<?xml version='1.0' encoding='UTF-8'?><gpx version="1.1" creator="JPX - https://github.com/jenetics/jpx" xmlns="http://www.topografix.com/GPX/1/1"><trk><trkseg><trkpt lat="40.95606832323218" lon="14.607934544141747"><ele>197.00000000000003</ele><time>2026-04-12T07:00:50Z</time></trkpt><trkpt lat="40.95599720326589" lon="14.607942850911572"><ele>197.0</ele><time>2026-04-12T07:02:31.999Z</time></trkpt><trkpt lat="40.95600234916468" lon="14.608095320329676"><ele>197.0</ele><time>2026-04-12T07:06:38Z</time></trkpt><trkpt lat="40.95600907250529" lon="14.608192162946612"><ele>197.0</ele><time>2026-04-12T07:06:39Z</time></trkpt><trkpt lat="40.95601073637039" lon="14.608279599036011"><ele>197.00000000000003</ele><time>2026-04-12T07:06:40Z</time></trkpt><trkpt lat="40.95601046307456" lon="14.608411722369585"><ele>197.0</ele><time>2026-04-12T07:06:42Z</time></trkpt><trkpt lat="40.95601258749358" lon="14.608539995782984"><ele>197.00000000000003</ele><time>2026-04-12T07:06:44Z</time></trkpt><trkpt lat="40.9560184798743" lon="14.608645935751218"><ele>197.0</ele><time>2026-04-12T07:06:46Z</time></trkpt><trkpt lat="40.956024517791214" lon="14.608758100394782"><ele>197.0</ele><time>2026-04-12T07:06:48Z</time></trkpt><trkpt lat="40.95602818129109" lon="14.608846843478238"><ele>197.0</ele><time>2026-04-12T07:06:50Z</time></trkpt><trkpt lat="40.956030086342366" lon="14.60893786253935"><ele>197.00000000000003</ele><time>2026-04-12T07:06:52Z</time></trkpt><trkpt lat="40.95604171293112" lon="14.609026074354857"><ele>197.0</ele><time>2026-04-12T07:06:55Z</time></trkpt><trkpt lat="40.95598567334664" lon="14.609142029845067"><ele>196.66666666666669</ele><time>2026-04-12T07:06:58Z</time></trkpt><trkpt lat="40.95592184525996" lon="14.609193599068572"><ele>196.33333333333334</ele><time>2026-04-12T07:06:59Z</time></trkpt><trkpt lat="40.95585597586555" lon="14.609252668942347"><ele>196.0</ele><time>2026-04-12T07:07:00Z</time></trkpt><trkpt lat="40.95579098720929" lon="14.609317358895991"><ele>195.66666666666669</ele><time>2026-04-12T07:07:01Z</time></trkpt><trkpt lat="40.955727091003986" lon="14.609386843707426"><ele>195.33333333333334</ele><time>2026-04-12T07:07:02Z</time></trkpt><trkpt lat="40.95565007907672" lon="14.60945312738179"><ele>195.0</ele><time>2026-04-12T07:07:03Z</time></trkpt><trkpt lat="40.95557870598224" lon="14.609526695735186"><ele>194.83333333333334</ele><time>2026-04-12T07:07:04Z</time></trkpt><trkpt lat="40.95551114648623" lon="14.609594774566734"><ele>194.66666666666669</ele><time>2026-04-12T07:07:05Z</time></trkpt><trkpt lat="40.95544504550829" lon="14.609662028134313"><ele>194.5</ele><time>2026-04-12T07:07:06Z</time></trkpt><trkpt lat="40.9553767932405" lon="14.609730952489189"><ele>194.33333333333334</ele><time>2026-04-12T07:07:07Z</time></trkpt><trkpt lat="40.95531285732" lon="14.609800394915984"><ele>194.16666666666669</ele><time>2026-04-12T07:07:08Z</time></trkpt><trkpt lat="40.955240795461386" lon="14.609864144029451"><ele>194.0</ele><time>2026-04-12T07:07:09Z</time></trkpt><trkpt lat="40.95516661666345" lon="14.609931947392232"><ele>194.0</ele><time>2026-04-12T07:07:10Z</time></trkpt><trkpt lat="40.95509309465171" lon="14.610007951682658"><ele>194.0</ele><time>2026-04-12T07:07:11Z</time></trkpt><trkpt lat="40.95502919511283" lon="14.610095821452198"><ele>194.0</ele><time>2026-04-12T07:07:12Z</time></trkpt><trkpt lat="40.9549732652439" lon="14.610195949666352"><ele>194.0</ele><time>2026-04-12T07:07:13Z</time></trkpt><trkpt lat="40.954928202597394" lon="14.610307367777894"><ele>194.0</ele><time>2026-04-12T07:07:14Z</time></trkpt><trkpt lat="40.95489415641917" lon="14.610431355302117"><ele>193.2</ele><time>2026-04-12T07:07:15Z</time></trkpt><trkpt lat="40.95487595101431" lon="14.610561554505574"><ele>192.39999999999998</ele><time>2026-04-12T07:07:16Z</time></trkpt><trkpt lat="40.95486726814114" lon="14.610689409028469"><ele>191.6</ele><time>2026-04-12T07:07:17Z</time></trkpt><trkpt lat="40.95486944349178" lon="14.610814262742977"><ele>190.8</ele><time>2026-04-12T07:07:18Z</time></trkpt><trkpt lat="40.95487302525997" lon="14.6109405823478"><ele>190.0</ele><time>2026-04-12T07:07:19Z</time></trkpt><trkpt lat="40.95487298005629" lon="14.61106311396069"><ele>190.16666666666669</ele><time>2026-04-12T07:07:20Z</time></trkpt><trkpt lat="40.954869325693465" lon="14.611198240926583"><ele>190.33333333333334</ele><time>2026-04-12T07:07:21Z</time></trkpt><trkpt lat="40.954867493592786" lon="14.61132342677309"><ele>190.5</ele><time>2026-04-12T07:07:22Z</time></trkpt><trkpt lat="40.95486531529499" lon="14.611427780567052"><ele>190.66666666666666</ele><time>2026-04-12T07:07:23Z</time></trkpt><trkpt lat="40.95486608207282" lon="14.611536439829052"><ele>190.83333333333331</ele><time>2026-04-12T07:07:24Z</time></trkpt><trkpt lat="40.9548566020039" lon="14.611643649976338"><ele>191.0</ele><time>2026-04-12T07:07:25Z</time></trkpt><trkpt lat="40.95483191908337" lon="14.611742541088205"><ele>191.0</ele><time>2026-04-12T07:07:26Z</time></trkpt><trkpt lat="40.95479493296948" lon="14.611829372811233"><ele>191.0</ele><time>2026-04-12T07:07:27Z</time></trkpt><trkpt lat="40.954759917252005" lon="14.611916632582204"><ele>191.0</ele><time>2026-04-12T07:07:28Z</time></trkpt><trkpt lat="40.95471404266731" lon="14.612008674184104"><ele>191.0</ele><time>2026-04-12T07:07:29Z</time></trkpt><trkpt lat="40.954656418925595" lon="14.61209831707252"><ele>191.0</ele><time>2026-04-12T07:07:30Z</time></trkpt><trkpt lat="40.95462409392479" lon="14.61219783052038"><ele>191.0</ele><time>2026-04-12T07:07:31Z</time></trkpt><trkpt lat="40.954582492864645" lon="14.612318303816592"><ele>191.0</ele><time>2026-04-12T07:07:32Z</time></trkpt><trkpt lat="40.95451016848682" lon="14.612409314796546"><ele>191.0</ele><time>2026-04-12T07:07:33Z</time></trkpt><trkpt lat="40.95445172113173" lon="14.612497983459042"><ele>191.0</ele><time>2026-04-12T07:07:34Z</time></trkpt><trkpt lat="40.95439656090726" lon="14.612588357291674"><ele>191.0</ele><time>2026-04-12T07:07:35Z</time></trkpt><trkpt lat="40.95434814811077" lon="14.612689819475575"><ele>191.0</ele><time>2026-04-12T07:07:36Z</time></trkpt><trkpt lat="40.954298537773894" lon="14.612796601252322"><ele>191.20000000000002</ele><time>2026-04-12T07:07:37Z</time></trkpt><trkpt lat="40.95424813409826" lon="14.61290707000617"><ele>191.4</ele><time>2026-04-12T07:07:38Z</time></trkpt><trkpt lat="40.9541933270386" lon="14.613014290250376"><ele>191.6</ele><time>2026-04-12T07:07:39Z</time></trkpt><trkpt lat="40.95413946983055" lon="14.613130905846907"><ele>191.8</ele><time>2026-04-12T07:07:40Z</time></trkpt><trkpt lat="40.95408825344752" lon="14.613255385939818"><ele>192.0</ele><time>2026-04-12T07:07:41Z</time></trkpt><trkpt lat="40.95403523707773" lon="14.613389704188634"><ele>191.8</ele><time>2026-04-12T07:07:42Z</time></trkpt><trkpt lat="40.953980508810126" lon="14.613521387333936"><ele>191.6</ele><time>2026-04-12T07:07:43Z</time></trkpt><trkpt lat="40.95392809987065" lon="14.613646931904109"><ele>191.4</ele><time>2026-04-12T07:07:44Z</time></trkpt><trkpt lat="40.953893156026986" lon="14.613762548460928"><ele>191.20000000000002</ele><time>2026-04-12T07:07:45Z</time></trkpt><trkpt lat="40.95387079472343" lon="14.613886310633415"><ele>191.0</ele><time>2026-04-12T07:07:46Z</time></trkpt><trkpt lat="40.95385563287765" lon="14.614013799760848"><ele>191.0</ele><time>2026-04-12T07:07:47Z</time></trkpt><trkpt lat="40.953844241128714" lon="14.614130670394022"><ele>191.0</ele><time>2026-04-12T07:07:48Z</time></trkpt><trkpt lat="40.95384640919789" lon="14.614248656198802"><ele>191.0</ele><time>2026-04-12T07:07:49Z</time></trkpt><trkpt lat="40.953852649401" lon="14.614364575931681"><ele>191.0</ele><time>2026-04-12T07:07:50Z</time></trkpt><trkpt lat="40.953852635424305" lon="14.614482478704224"><ele>191.0</ele><time>2026-04-12T07:07:51Z</time></trkpt><trkpt lat="40.95385627258944" lon="14.614601167750997"><ele>191.0</ele><time>2026-04-12T07:07:52Z</time></trkpt><trkpt lat="40.95385711080371" lon="14.614709699918652"><ele>191.33333333333331</ele><time>2026-04-12T07:07:53Z</time></trkpt><trkpt lat="40.95385610930757" lon="14.61482520365703"><ele>191.66666666666666</ele><time>2026-04-12T07:07:55Z</time></trkpt><trkpt lat="40.95383279030031" lon="14.614916671225586"><ele>192.0</ele><time>2026-04-12T07:07:57Z</time></trkpt><trkpt lat="40.95371404774397" lon="14.614922177312282"><ele>192.33333333333331</ele><time>2026-04-12T07:07:58Z</time></trkpt><trkpt lat="40.95363576283831" lon="14.614920070204434"><ele>192.66666666666666</ele><time>2026-04-12T07:07:59Z</time></trkpt><trkpt lat="40.95355184520576" lon="14.614932075294355"><ele>193.0</ele><time>2026-04-12T07:08:00Z</time></trkpt><trkpt lat="40.953463850859016" lon="14.614942398089484"><ele>193.0</ele><time>2026-04-12T07:08:01Z</time></trkpt><trkpt lat="40.95337859134718" lon="14.614952450013442"><ele>193.0</ele><time>2026-04-12T07:08:02Z</time></trkpt><trkpt lat="40.953289658830265" lon="14.614953509993507"><ele>193.0</ele><time>2026-04-12T07:08:03Z</time></trkpt><trkpt lat="40.95319746098921" lon="14.614946793363584"><ele>193.0</ele><time>2026-04-12T07:08:04Z</time></trkpt><trkpt lat="40.95310251194993" lon="14.614949989102488"><ele>193.0</ele><time>2026-04-12T07:08:05Z</time></trkpt><trkpt lat="40.9530088598345" lon="14.614952600393808"><ele>192.4</ele><time>2026-04-12T07:08:06Z</time></trkpt><trkpt lat="40.95291772767674" lon="14.614951791595413"><ele>191.8</ele><time>2026-04-12T07:08:07Z</time></trkpt><trkpt lat="40.952825530534845" lon="14.614963692582547"><ele>191.2</ele><time>2026-04-12T07:08:08Z</time></trkpt><trkpt lat="40.952716717230246" lon="14.6149601821479"><ele>190.6</ele><time>2026-04-12T07:08:09Z</time></trkpt><trkpt lat="40.95262450689362" lon="14.61496415057456"><ele>190.0</ele><time>2026-04-12T07:08:10Z</time></trkpt><trkpt lat="40.9525228610227" lon="14.614969379605663"><ele>190.0</ele><time>2026-04-12T07:08:11Z</time></trkpt><trkpt lat="40.95242729310368" lon="14.614971254342718"><ele>190.0</ele><time>2026-04-12T07:08:12Z</time></trkpt><trkpt lat="40.95232968157446" lon="14.614974512662034"><ele>190.0</ele><time>2026-04-12T07:08:13Z</time></trkpt><trkpt lat="40.9522373526982" lon="14.614971745998133"><ele>190.0</ele><time>2026-04-12T07:08:14Z</time></trkpt><trkpt lat="40.952147156278414" lon="14.61496949556091"><ele>190.0</ele><time>2026-04-12T07:08:15Z</time></trkpt><trkpt lat="40.9520571625577" lon="14.614957469926349"><ele>190.0</ele><time>2026-04-12T07:08:16Z</time></trkpt><trkpt lat="40.95198048231064" lon="14.614947948302486"><ele>190.0</ele><time>2026-04-12T07:08:17Z</time></trkpt><trkpt lat="40.951911987501106" lon="14.61494191135826"><ele>190.0</ele><time>2026-04-12T07:08:18Z</time></trkpt><trkpt lat="40.95184739557209" lon="14.614932235494463"><ele>190.0</ele><time>2026-04-12T07:08:20Z</time></trkpt><trkpt lat="40.95176908953672" lon="14.614939298413622"><ele>190.0</ele><time>2026-04-12T07:08:23Z</time></trkpt><trkpt lat="40.95173395081556" lon="14.615130586456575"><ele>190.0</ele><time>2026-04-12T07:08:26Z</time></trkpt><trkpt lat="40.95172873648108" lon="14.615219552015013"><ele>190.0</ele><time>2026-04-12T07:08:27Z</time></trkpt><trkpt lat="40.95172358185248" lon="14.615319423972489"><ele>190.0</ele><time>2026-04-12T07:08:28Z</time></trkpt><trkpt lat="40.95171804066941" lon="14.61543334631236"><ele>190.0</ele><time>2026-04-12T07:08:29Z</time></trkpt><trkpt lat="40.95171197944004" lon="14.615557960431278"><ele>190.0</ele><time>2026-04-12T07:08:30Z</time></trkpt><trkpt lat="40.95170486310724" lon="14.615694813432116"><ele>190.0</ele><time>2026-04-12T07:08:31Z</time></trkpt><trkpt lat="40.951697651180154" lon="14.615833241656434"><ele>191.0</ele><time>2026-04-12T07:08:32Z</time></trkpt><trkpt lat="40.951690041296786" lon="14.615979308400062"><ele>192.0</ele><time>2026-04-12T07:08:33Z</time></trkpt><trkpt lat="40.951682296611374" lon="14.61612599223862"><ele>193.0</ele><time>2026-04-12T07:08:34Z</time></trkpt><trkpt lat="40.95167370524865" lon="14.616276740681974"><ele>194.0</ele><time>2026-04-12T07:08:35Z</time></trkpt><trkpt lat="40.951664835479" lon="14.616434788499262"><ele>194.25</ele><time>2026-04-12T07:08:36Z</time></trkpt><trkpt lat="40.9516564064962" lon="14.616596656206475"><ele>194.5</ele><time>2026-04-12T07:08:37Z</time></trkpt><trkpt lat="40.951648564688405" lon="14.616756897808164"><ele>194.75</ele><time>2026-04-12T07:08:38Z</time></trkpt><trkpt lat="40.95164538714508" lon="14.616925223023891"><ele>195.0</ele><time>2026-04-12T07:08:39Z</time></trkpt><trkpt lat="40.95164423445374" lon="14.617071354056716"><ele>195.66666666666666</ele><time>2026-04-12T07:08:40Z</time></trkpt><trkpt lat="40.951643384800136" lon="14.617201266315531"><ele>196.33333333333331</ele><time>2026-04-12T07:08:41Z</time></trkpt><trkpt lat="40.951642741184585" lon="14.617299672027714"><ele>197.0</ele><time>2026-04-12T07:08:42Z</time></trkpt><trkpt lat="40.951642124851816" lon="14.617393902632918"><ele>197.66666666666666</ele><time>2026-04-12T07:08:43Z</time></trkpt><trkpt lat="40.951641347686476" lon="14.617486330488191"><ele>198.33333333333331</ele><time>2026-04-12T07:08:44Z</time></trkpt><trkpt lat="40.95164416743409" lon="14.617591387627472"><ele>199.0</ele><time>2026-04-12T07:08:45Z</time></trkpt><trkpt lat="40.951649129316415" lon="14.617705944088756"><ele>199.0</ele><time>2026-04-12T07:08:46Z</time></trkpt><trkpt lat="40.95165546352928" lon="14.617818026477218"><ele>199.0</ele><time>2026-04-12T07:08:47Z</time></trkpt><trkpt lat="40.951663041183615" lon="14.617936631604339"><ele>199.0</ele><time>2026-04-12T07:08:48Z</time></trkpt><trkpt lat="40.95167116092705" lon="14.618061099927017"><ele>199.0</ele><time>2026-04-12T07:08:49Z</time></trkpt><trkpt lat="40.95168255747687" lon="14.618182250200858"><ele>199.0</ele><time>2026-04-12T07:08:50Z</time></trkpt><trkpt lat="40.95169371918141" lon="14.618306236130032"><ele>199.2</ele><time>2026-04-12T07:08:51Z</time></trkpt><trkpt lat="40.95169798008979" lon="14.618427606669291"><ele>199.39999999999998</ele><time>2026-04-12T07:08:52Z</time></trkpt><trkpt lat="40.951716895063974" lon="14.618558435547351"><ele>199.6</ele><time>2026-04-12T07:08:53Z</time></trkpt><trkpt lat="40.95171991074832" lon="14.618677639237696"><ele>199.8</ele><time>2026-04-12T07:08:54Z</time></trkpt><trkpt lat="40.95172980670005" lon="14.618799739285567"><ele>200.0</ele><time>2026-04-12T07:08:55Z</time></trkpt><trkpt lat="40.95175147697171" lon="14.618920358962079"><ele>200.50000000000003</ele><time>2026-04-12T07:08:56Z</time></trkpt><trkpt lat="40.951765903293904" lon="14.619042744698072"><ele>201.0</ele><time>2026-04-12T07:08:57Z</time></trkpt><trkpt lat="40.95178178951879" lon="14.61915390819211"><ele>201.5</ele><time>2026-04-12T07:08:58Z</time></trkpt><trkpt lat="40.95179101709648" lon="14.619239931483134"><ele>202.0</ele><time>2026-04-12T07:08:59Z</time></trkpt><trkpt lat="40.95180859159974" lon="14.619353073897308"><ele>202.50000000000003</ele><time>2026-04-12T07:09:01Z</time></trkpt><trkpt lat="40.95182318694303" lon="14.619434890229677"><ele>203.0</ele><time>2026-04-12T07:09:03Z</time></trkpt><trkpt lat="40.951942786568374" lon="14.619402891110438"><ele>203.0</ele><time>2026-04-12T07:09:04Z</time></trkpt><trkpt lat="40.95201224576138" lon="14.619416334316417"><ele>203.0</ele><time>2026-04-12T07:09:05Z</time></trkpt><trkpt lat="40.95211248957382" lon="14.61939330013485"><ele>203.0</ele><time>2026-04-12T07:09:07Z</time></trkpt><trkpt lat="40.95219138691834" lon="14.619388841132317"><ele>203.0</ele><time>2026-04-12T07:09:09Z</time></trkpt><trkpt lat="40.95225600409431" lon="14.619504916564054"><ele>203.0</ele><time>2026-04-12T07:09:11Z</time></trkpt><trkpt lat="40.95229801035712" lon="14.619657349506106"><ele>203.66666666666669</ele><time>2026-04-12T07:09:13Z</time></trkpt><trkpt lat="40.9523453430024" lon="14.619810838176189"><ele>204.33333333333334</ele><time>2026-04-12T07:09:15Z</time></trkpt><trkpt lat="40.952362987616844" lon="14.619909586814126"><ele>205.0</ele><time>2026-04-12T07:09:16Z</time></trkpt><trkpt lat="40.95238846875552" lon="14.620004590111071"><ele>205.66666666666669</ele><time>2026-04-12T07:09:17Z</time></trkpt><trkpt lat="40.95240753507965" lon="14.620099224918615"><ele>206.33333333333334</ele><time>2026-04-12T07:09:18Z</time></trkpt><trkpt lat="40.952414722995435" lon="14.620200458912159"><ele>207.0</ele><time>2026-04-12T07:09:19Z</time></trkpt><trkpt lat="40.952412281735" lon="14.62030262777997"><ele>208.0</ele><time>2026-04-12T07:09:20Z</time></trkpt><trkpt lat="40.95241088960744" lon="14.62040910576225"><ele>209.0</ele><time>2026-04-12T07:09:21Z</time></trkpt><trkpt lat="40.9524185448682" lon="14.620520221781272"><ele>210.0</ele><time>2026-04-12T07:09:22Z</time></trkpt><trkpt lat="40.952434318197" lon="14.620609857979906"><ele>211.0</ele><time>2026-04-12T07:09:23Z</time></trkpt><trkpt lat="40.952443630283206" lon="14.620701041209303"><ele>212.0</ele><time>2026-04-12T07:09:24Z</time></trkpt><trkpt lat="40.952453939485274" lon="14.620874735062012"><ele>213.0</ele><time>2026-04-12T07:09:26Z</time></trkpt><trkpt lat="40.952452813275194" lon="14.62098218313699"><ele>213.0</ele><time>2026-04-12T07:09:28Z</time></trkpt><trkpt lat="40.95243761760999" lon="14.62106772484321"><ele>213.0</ele><time>2026-04-12T07:09:29Z</time></trkpt><trkpt lat="40.95245974658561" lon="14.621159546626545"><ele>213.0</ele><time>2026-04-12T07:09:30Z</time></trkpt><trkpt lat="40.95246154412214" lon="14.62133440179483"><ele>213.0</ele><time>2026-04-12T07:09:32Z</time></trkpt><trkpt lat="40.952494181595405" lon="14.621421557232683"><ele>213.0</ele><time>2026-04-12T07:09:33Z</time></trkpt><trkpt lat="40.95250954118328" lon="14.62150735000236"><ele>213.0</ele><time>2026-04-12T07:09:34Z</time></trkpt><trkpt lat="40.952583496226" lon="14.621541099097174"><ele>216.33333333333334</ele><time>2026-04-12T07:09:35Z</time></trkpt><trkpt lat="40.95265330904417" lon="14.62158358320376"><ele>219.66666666666669</ele><time>2026-04-12T07:09:36Z</time></trkpt><trkpt lat="40.95272688293082" lon="14.621625869779034"><ele>223.0</ele><time>2026-04-12T07:09:37Z</time></trkpt><trkpt lat="40.9528122789739" lon="14.621667125995865"><ele>226.33333333333334</ele><time>2026-04-12T07:09:38Z</time></trkpt><trkpt lat="40.95289776206191" lon="14.621712840695878"><ele>229.66666666666669</ele><time>2026-04-12T07:09:39Z</time></trkpt><trkpt lat="40.95298076393869" lon="14.621763100720298"><ele>233.0</ele><time>2026-04-12T07:09:40Z</time></trkpt><trkpt lat="40.95305979042019" lon="14.621813580808864"><ele>233.0</ele><time>2026-04-12T07:09:41Z</time></trkpt><trkpt lat="40.95315100643065" lon="14.621873837845678"><ele>233.0</ele><time>2026-04-12T07:09:42Z</time></trkpt><trkpt lat="40.95326122894075" lon="14.621948006073039"><ele>233.0</ele><time>2026-04-12T07:09:43Z</time></trkpt><trkpt lat="40.953383906864794" lon="14.62202653270333"><ele>233.0</ele><time>2026-04-12T07:09:44Z</time></trkpt><trkpt lat="40.95350936704505" lon="14.622101965295277"><ele>237.60000000000002</ele><time>2026-04-12T07:09:45Z</time></trkpt><trkpt lat="40.953613377875854" lon="14.6221740597009"><ele>242.20000000000002</ele><time>2026-04-12T07:09:46Z</time></trkpt><trkpt lat="40.95369512606536" lon="14.622234898228333"><ele>246.8</ele><time>2026-04-12T07:09:47Z</time></trkpt><trkpt lat="40.95378685396602" lon="14.62227687237347"><ele>251.4</ele><time>2026-04-12T07:09:48Z</time></trkpt><trkpt lat="40.95386708758825" lon="14.622290768604053"><ele>256.0</ele><time>2026-04-12T07:09:49Z</time></trkpt><trkpt lat="40.95393912305052" lon="14.622275718435409"><ele>256.0</ele><time>2026-04-12T07:09:51Z</time></trkpt><trkpt lat="40.95394770240873" lon="14.62242553114396"><ele>256.0</ele><time>2026-04-12T07:09:53Z</time></trkpt><trkpt lat="40.95395183017065" lon="14.62255506525133"><ele>256.0</ele><time>2026-04-12T07:09:54Z</time></trkpt><trkpt lat="40.9539532355091" lon="14.622662955585099"><ele>256.0</ele><time>2026-04-12T07:09:55Z</time></trkpt><trkpt lat="40.95392646465538" lon="14.622775443953078"><ele>256.0</ele><time>2026-04-12T07:09:56Z</time></trkpt><trkpt lat="40.953908707216954" lon="14.622871888560356"><ele>256.0</ele><time>2026-04-12T07:09:57Z</time></trkpt><trkpt lat="40.95396895831869" lon="14.622708313085955"><ele>256.0</ele><time>2026-04-12T07:10:06Z</time></trkpt><trkpt lat="40.95407760431713" lon="14.622701233366504"><ele>256.0</ele><time>2026-04-12T07:10:08Z</time></trkpt><trkpt lat="40.95418574170954" lon="14.622706983630538"><ele>256.0</ele><time>2026-04-12T07:10:09Z</time></trkpt><trkpt lat="40.95430210554743" lon="14.622753200679265"><ele>257.25</ele><time>2026-04-12T07:10:10Z</time></trkpt><trkpt lat="40.95444437854224" lon="14.622798114980164"><ele>258.5</ele><time>2026-04-12T07:10:11Z</time></trkpt><trkpt lat="40.95457999315357" lon="14.622854937976484"><ele>259.75</ele><time>2026-04-12T07:10:12Z</time></trkpt><trkpt lat="40.95471982882333" lon="14.622903346343804"><ele>261.0</ele><time>2026-04-12T07:10:13Z</time></trkpt><trkpt lat="40.95485913621624" lon="14.622924768995638"><ele>261.0</ele><time>2026-04-12T07:10:14Z</time></trkpt><trkpt lat="40.95500646400525" lon="14.622935009958379"><ele>261.0</ele><time>2026-04-12T07:10:15Z</time></trkpt><trkpt lat="40.955155268027475" lon="14.622931101856073"><ele>261.0</ele><time>2026-04-12T07:10:16Z</time></trkpt><trkpt lat="40.95531133870032" lon="14.622918053070247"><ele>263.5</ele><time>2026-04-12T07:10:17Z</time></trkpt><trkpt lat="40.95546356676141" lon="14.622922196508547"><ele>266.0</ele><time>2026-04-12T07:10:18Z</time></trkpt><trkpt lat="40.95559817540146" lon="14.622976460895748"><ele>268.5</ele><time>2026-04-12T07:10:19Z</time></trkpt><trkpt lat="40.955725110644885" lon="14.622998039177821"><ele>271.0</ele><time>2026-04-12T07:10:20Z</time></trkpt><trkpt lat="40.95583601875633" lon="14.623055117837897"><ele>276.25</ele><time>2026-04-12T07:10:21Z</time></trkpt><trkpt lat="40.95595693001589" lon="14.623125127184915"><ele>281.5</ele><time>2026-04-12T07:10:22Z</time></trkpt><trkpt lat="40.95609819352132" lon="14.623170889418844"><ele>286.75</ele><time>2026-04-12T07:10:23Z</time></trkpt><trkpt lat="40.95624322458591" lon="14.623204527614037"><ele>292.0</ele><time>2026-04-12T07:10:24Z</time></trkpt><trkpt lat="40.95637367114128" lon="14.623240199520804"><ele>292.0</ele><time>2026-04-12T07:10:25Z</time></trkpt><trkpt lat="40.956484940650085" lon="14.623267499199242"><ele>292.0</ele><time>2026-04-12T07:10:26Z</time></trkpt><trkpt lat="40.95658616408532" lon="14.623277354319727"><ele>292.0</ele><time>2026-04-12T07:10:27Z</time></trkpt><trkpt lat="40.956699839130934" lon="14.623266362884277"><ele>292.0</ele><time>2026-04-12T07:10:28Z</time></trkpt><trkpt lat="40.95680529163022" lon="14.623237249208012"><ele>292.0</ele><time>2026-04-12T07:10:29Z</time></trkpt><trkpt lat="40.95689021295295" lon="14.623193730877649"><ele>294.5</ele><time>2026-04-12T07:10:30Z</time></trkpt><trkpt lat="40.95696285137534" lon="14.623152736290258"><ele>297.0</ele><time>2026-04-12T07:10:31Z</time></trkpt><trkpt lat="40.957105470402034" lon="14.623201917094693"><ele>299.5</ele><time>2026-04-12T07:10:33Z</time></trkpt><trkpt lat="40.95721856405254" lon="14.623233283417377"><ele>302.0</ele><time>2026-04-12T07:10:34Z</time></trkpt><trkpt lat="40.957323825252296" lon="14.623287881311398"><ele>302.0</ele><time>2026-04-12T07:10:35Z</time></trkpt><trkpt lat="40.95743432707875" lon="14.623378108490929"><ele>302.0</ele><time>2026-04-12T07:10:36Z</time></trkpt><trkpt lat="40.957552789262586" lon="14.623468393262064"><ele>302.0</ele><time>2026-04-12T07:10:37Z</time></trkpt><trkpt lat="40.95766551711224" lon="14.623554266660333"><ele>302.0</ele><time>2026-04-12T07:10:38Z</time></trkpt><trkpt lat="40.95774623810534" lon="14.62364310069939"><ele>305.0</ele><time>2026-04-12T07:10:39Z</time></trkpt><trkpt lat="40.957807937131285" lon="14.62375209680074"><ele>308.0</ele><time>2026-04-12T07:10:40Z</time></trkpt><trkpt lat="40.9578714205753" lon="14.62389555200537"><ele>311.0</ele><time>2026-04-12T07:10:41Z</time></trkpt><trkpt lat="40.95791958815018" lon="14.624015750069356"><ele>314.0</ele><time>2026-04-12T07:10:42Z</time></trkpt><trkpt lat="40.9579574054826" lon="14.624105235191385"><ele>317.0</ele><time>2026-04-12T07:10:43Z</time></trkpt><trkpt lat="40.95799692983881" lon="14.624186436280493"><ele>317.0</ele><time>2026-04-12T07:10:44Z</time></trkpt><trkpt lat="40.95804232612673" lon="14.624267468116654"><ele>317.0</ele><time>2026-04-12T07:10:45Z</time></trkpt><trkpt lat="40.95809771774622" lon="14.624390564441573"><ele>317.0</ele><time>2026-04-12T07:10:47Z</time></trkpt><trkpt lat="40.95812695456381" lon="14.624474157646047"><ele>317.0</ele><time>2026-04-12T07:10:50Z</time></trkpt><trkpt lat="40.95817397196932" lon="14.6245718010778"><ele>317.0</ele><time>2026-04-12T07:11:50Z</time></trkpt><trkpt lat="40.95821906128171" lon="14.624633436106748"><ele>317.0</ele><time>2026-04-12T07:11:52Z</time></trkpt><trkpt lat="40.95823258048554" lon="14.624504830389439"><ele>317.0</ele><time>2026-04-12T07:12:53.999Z</time></trkpt><trkpt lat="40.958344862425335" lon="14.624410283421714"><ele>317.0</ele><time>2026-04-12T07:12:55.999Z</time></trkpt><trkpt lat="40.95843387161823" lon="14.624367729307336"><ele>317.0</ele><time>2026-04-12T07:12:56.999Z</time></trkpt><trkpt lat="40.95851728932474" lon="14.624324662742419"><ele>317.0</ele><time>2026-04-12T07:12:57.999Z</time></trkpt><trkpt lat="40.95861270629721" lon="14.624279295631425"><ele>317.0</ele><time>2026-04-12T07:12:58.999Z</time></trkpt><trkpt lat="40.958727810790506" lon="14.624230678956161"><ele>320.25</ele><time>2026-04-12T07:12:59.999Z</time></trkpt><trkpt lat="40.958845385513456" lon="14.624183129500448"><ele>323.5</ele><time>2026-04-12T07:13:00.999Z</time></trkpt><trkpt lat="40.95894587652877" lon="14.624121798369192"><ele>326.75</ele><time>2026-04-12T07:13:01.999Z</time></trkpt><trkpt lat="40.95904850853939" lon="14.62409208511348"><ele>330.0</ele><time>2026-04-12T07:13:02.999Z</time></trkpt><trkpt lat="40.95916396807232" lon="14.624014590762785"><ele>334.0</ele><time>2026-04-12T07:13:04Z</time></trkpt><trkpt lat="40.959294587803086" lon="14.623939494234213"><ele>338.0</ele><time>2026-04-12T07:13:05Z</time></trkpt><trkpt lat="40.95938875268569" lon="14.623850979970653"><ele>342.0</ele><time>2026-04-12T07:13:06Z</time></trkpt><trkpt lat="40.95949065554935" lon="14.623787333945796"><ele>346.0</ele><time>2026-04-12T07:13:07Z</time></trkpt><trkpt lat="40.95962252443882" lon="14.623761560906082"><ele>346.0</ele><time>2026-04-12T07:13:08Z</time></trkpt><trkpt lat="40.959730929669036" lon="14.623691511563695"><ele>346.0</ele><time>2026-04-12T07:13:09Z</time></trkpt><trkpt lat="40.959843797591994" lon="14.623648656750516"><ele>346.0</ele><time>2026-04-12T07:13:10Z</time></trkpt><trkpt lat="40.95993604805028" lon="14.623602809361188"><ele>346.0</ele><time>2026-04-12T07:13:11Z</time></trkpt><trkpt lat="40.960023547388" lon="14.623664847107035"><ele>346.0</ele><time>2026-04-12T07:13:13Z</time></trkpt><trkpt lat="40.9600438407201" lon="14.623786466628477"><ele>348.20000000000005</ele><time>2026-04-12T07:13:14Z</time></trkpt><trkpt lat="40.96010695102383" lon="14.62384179905035"><ele>350.40000000000003</ele><time>2026-04-12T07:13:15Z</time></trkpt><trkpt lat="40.96020616909109" lon="14.62385717270701"><ele>352.6</ele><time>2026-04-12T07:13:16Z</time></trkpt><trkpt lat="40.960331619185865" lon="14.623858875166418"><ele>354.8</ele><time>2026-04-12T07:13:17Z</time></trkpt><trkpt lat="40.960467857502664" lon="14.623899380826154"><ele>357.0</ele><time>2026-04-12T07:13:18Z</time></trkpt><trkpt lat="40.96058596085635" lon="14.623910704036755"><ele>357.0</ele><time>2026-04-12T07:13:19Z</time></trkpt><trkpt lat="40.96072350281381" lon="14.623926711854102"><ele>357.0</ele><time>2026-04-12T07:13:20Z</time></trkpt><trkpt lat="40.960827752732456" lon="14.623958561246027"><ele>357.0</ele><time>2026-04-12T07:13:21Z</time></trkpt><trkpt lat="40.96092175242474" lon="14.624020161094737"><ele>357.0</ele><time>2026-04-12T07:13:22Z</time></trkpt><trkpt lat="40.96103288760299" lon="14.624087660291405"><ele>360.0</ele><time>2026-04-12T07:13:23Z</time></trkpt><trkpt lat="40.96112274490922" lon="14.624147121448786"><ele>363.0</ele><time>2026-04-12T07:13:24Z</time></trkpt><trkpt lat="40.96109970832964" lon="14.624529678455671"><ele>366.0</ele><time>2026-04-12T07:13:25Z</time></trkpt><trkpt lat="40.96119430302256" lon="14.62459217107386"><ele>366.0</ele><time>2026-04-12T07:13:26Z</time></trkpt><trkpt lat="40.96162980978035" lon="14.62405796556775"><ele>370.8</ele><time>2026-04-12T07:13:30.999Z</time></trkpt><trkpt lat="40.96169904431675" lon="14.623960074394729"><ele>375.6</ele><time>2026-04-12T07:13:31.999Z</time></trkpt><trkpt lat="40.961758795685185" lon="14.623868009648097"><ele>380.4</ele><time>2026-04-12T07:13:32.999Z</time></trkpt><trkpt lat="40.96183547448152" lon="14.62380329534097"><ele>385.2</ele><time>2026-04-12T07:13:33.999Z</time></trkpt><trkpt lat="40.96193258336941" lon="14.623762219946853"><ele>390.0</ele><time>2026-04-12T07:13:34.999Z</time></trkpt><trkpt lat="40.96202077916086" lon="14.623760205365873"><ele>390.0</ele><time>2026-04-12T07:13:35.999Z</time></trkpt><trkpt lat="40.96208790150993" lon="14.62375469157196"><ele>390.0</ele><time>2026-04-12T07:13:36.999Z</time></trkpt><trkpt lat="40.962194968248404" lon="14.623640167005151"><ele>390.0</ele><time>2026-04-12T07:13:38.999Z</time></trkpt><trkpt lat="40.962223380075" lon="14.623507012058155"><ele>390.0</ele><time>2026-04-12T07:13:39.999Z</time></trkpt><trkpt lat="40.96223980447768" lon="14.623346411692774"><ele>390.0</ele><time>2026-04-12T07:13:40.999Z</time></trkpt><trkpt lat="40.962258909743234" lon="14.623250080030672"><ele>387.0</ele><time>2026-04-12T07:13:41.999Z</time></trkpt><trkpt lat="40.96231101377278" lon="14.623138746106122"><ele>384.0</ele><time>2026-04-12T07:13:42.999Z</time></trkpt><trkpt lat="40.96235328265995" lon="14.623018928818636"><ele>381.0</ele><time>2026-04-12T07:13:43.999Z</time></trkpt><trkpt lat="40.9624079737484" lon="14.622894017471237"><ele>378.0</ele><time>2026-04-12T07:13:44.999Z</time></trkpt><trkpt lat="40.962458338965" lon="14.622785733565372"><ele>375.0</ele><time>2026-04-12T07:13:45.999Z</time></trkpt><trkpt lat="40.962519432065754" lon="14.622658190103095"><ele>378.0</ele><time>2026-04-12T07:13:46.999Z</time></trkpt><trkpt lat="40.962586816651616" lon="14.622534068855831"><ele>381.0</ele><time>2026-04-12T07:13:47.999Z</time></trkpt><trkpt lat="40.962677773922216" lon="14.622413652721978"><ele>384.0</ele><time>2026-04-12T07:13:48.999Z</time></trkpt><trkpt lat="40.962759028280026" lon="14.622320007504408"><ele>387.0</ele><time>2026-04-12T07:13:49.999Z</time></trkpt><trkpt lat="40.96283676638051" lon="14.622226674903326"><ele>387.0</ele><time>2026-04-12T07:13:50.999Z</time></trkpt><trkpt lat="40.9629068492826" lon="14.622158241563449"><ele>387.0</ele><time>2026-04-12T07:13:51.999Z</time></trkpt><trkpt lat="40.962977183521566" lon="14.622090926759826"><ele>387.0</ele><time>2026-04-12T07:13:52.999Z</time></trkpt><trkpt lat="40.96307429470392" lon="14.622014511772605"><ele>387.0</ele><time>2026-04-12T07:13:53.999Z</time></trkpt><trkpt lat="40.96317612777481" lon="14.621925733992924"><ele>387.0</ele><time>2026-04-12T07:13:54.999Z</time></trkpt><trkpt lat="40.96327924489674" lon="14.6218363530013"><ele>387.8</ele><time>2026-04-12T07:13:55.999Z</time></trkpt><trkpt lat="40.963381106603585" lon="14.621733382507461"><ele>388.6</ele><time>2026-04-12T07:13:56.999Z</time></trkpt><trkpt lat="40.963478717493864" lon="14.621647775056285"><ele>389.40000000000003</ele><time>2026-04-12T07:13:57.999Z</time></trkpt><trkpt lat="40.96356027997932" lon="14.62161688557402"><ele>390.20000000000005</ele><time>2026-04-12T07:13:58.999Z</time></trkpt><trkpt lat="40.96365017521306" lon="14.621601593050487"><ele>391.0</ele><time>2026-04-12T07:13:59.999Z</time></trkpt><trkpt lat="40.96374283978357" lon="14.621554657201466"><ele>391.00000000000006</ele><time>2026-04-12T07:14:00.999Z</time></trkpt><trkpt lat="40.96383438391459" lon="14.62148504794585"><ele>391.0</ele><time>2026-04-12T07:14:01.999Z</time></trkpt><trkpt lat="40.963929116046806" lon="14.621420679744833"><ele>391.0</ele><time>2026-04-12T07:14:02.999Z</time></trkpt><trkpt lat="40.964014177794304" lon="14.621365981193334"><ele>391.0</ele><time>2026-04-12T07:14:03.999Z</time></trkpt><trkpt lat="40.96407487035445" lon="14.62134184351481"><ele>391.00000000000006</ele><time>2026-04-12T07:14:04.999Z</time></trkpt><trkpt lat="40.96414271854521" lon="14.62134237117477"><ele>391.0</ele><time>2026-04-12T07:14:05.999Z</time></trkpt><trkpt lat="40.96423312981512" lon="14.621350876726543"><ele>390.4</ele><time>2026-04-12T07:14:06.999Z</time></trkpt><trkpt lat="40.9643232614796" lon="14.621329625228668"><ele>389.8</ele><time>2026-04-12T07:14:07.999Z</time></trkpt><trkpt lat="40.96438594195498" lon="14.621297510120968"><ele>389.2</ele><time>2026-04-12T07:14:08.999Z</time></trkpt><trkpt lat="40.9644543686066" lon="14.621257380050583"><ele>388.59999999999997</ele><time>2026-04-12T07:14:09.999Z</time></trkpt><trkpt lat="40.96454920911072" lon="14.621187814992618"><ele>388.0</ele><time>2026-04-12T07:14:10.999Z</time></trkpt><trkpt lat="40.9646640699865" lon="14.621086011676068"><ele>388.0</ele><time>2026-04-12T07:14:11.999Z</time></trkpt><trkpt lat="40.96478160974915" lon="14.620984869591789"><ele>388.0</ele><time>2026-04-12T07:14:12.999Z</time></trkpt><trkpt lat="40.96489317651058" lon="14.620905376880534"><ele>388.0</ele><time>2026-04-12T07:14:13.999Z</time></trkpt><trkpt lat="40.96499080916554" lon="14.620840055392106"><ele>388.0</ele><time>2026-04-12T07:14:14.999Z</time></trkpt><trkpt lat="40.96508918769928" lon="14.62077221025466"><ele>391.25</ele><time>2026-04-12T07:14:15.999Z</time></trkpt><trkpt lat="40.96519238886382" lon="14.62068846417552"><ele>394.5</ele><time>2026-04-12T07:14:16.999Z</time></trkpt><trkpt lat="40.96529628446279" lon="14.620597284117133"><ele>397.75</ele><time>2026-04-12T07:14:17.999Z</time></trkpt><trkpt lat="40.96539167560993" lon="14.620505480864539"><ele>401.0</ele><time>2026-04-12T07:14:18.999Z</time></trkpt><trkpt lat="40.96548211570262" lon="14.620413341658582"><ele>401.25</ele><time>2026-04-12T07:14:19.999Z</time></trkpt><trkpt lat="40.965591197318304" lon="14.620290128105008"><ele>401.5</ele><time>2026-04-12T07:14:20.999Z</time></trkpt><trkpt lat="40.96569096777971" lon="14.620180023896488"><ele>401.75</ele><time>2026-04-12T07:14:21.999Z</time></trkpt><trkpt lat="40.965784008140695" lon="14.620106847595117"><ele>402.0</ele><time>2026-04-12T07:14:22.999Z</time></trkpt><trkpt lat="40.96586849313073" lon="14.620046877149903"><ele>402.0</ele><time>2026-04-12T07:14:23.999Z</time></trkpt><trkpt lat="40.96595928392732" lon="14.619987300704766"><ele>402.0</ele><time>2026-04-12T07:14:24.999Z</time></trkpt><trkpt lat="40.966067418506874" lon="14.619919903732077"><ele>402.0</ele><time>2026-04-12T07:14:25.999Z</time></trkpt><trkpt lat="40.96616676177651" lon="14.619865147932328"><ele>402.0</ele><time>2026-04-12T07:14:26.999Z</time></trkpt><trkpt lat="40.96625632059089" lon="14.619816737057901"><ele>402.0</ele><time>2026-04-12T07:14:27.999Z</time></trkpt><trkpt lat="40.96633100199816" lon="14.619757069926305"><ele>402.0</ele><time>2026-04-12T07:14:28.999Z</time></trkpt><trkpt lat="40.96639459955285" lon="14.619717131296355"><ele>402.0</ele><time>2026-04-12T07:14:37.999Z</time></trkpt><trkpt lat="40.96651577891303" lon="14.620011364065588"><ele>402.0</ele><time>2026-04-12T07:14:42.999Z</time></trkpt><trkpt lat="40.96656416211882" lon="14.620119151092263"><ele>402.0</ele><time>2026-04-12T07:14:43.999Z</time></trkpt><trkpt lat="40.966628427033214" lon="14.62022537180397"><ele>405.0</ele><time>2026-04-12T07:14:44.999Z</time></trkpt><trkpt lat="40.96667365876032" lon="14.620339775262517"><ele>408.0</ele><time>2026-04-12T07:14:45.999Z</time></trkpt><trkpt lat="40.966713530815554" lon="14.620429087391354"><ele>411.0</ele><time>2026-04-12T07:14:46.999Z</time></trkpt><trkpt lat="40.96674979356648" lon="14.620520247197227"><ele>414.0</ele><time>2026-04-12T07:14:48.999Z</time></trkpt><trkpt lat="40.96679166498481" lon="14.620616443624407"><ele>417.0</ele><time>2026-04-12T07:14:49.999Z</time></trkpt><trkpt lat="40.9668517549104" lon="14.620772010537106"><ele>418.75</ele><time>2026-04-12T07:14:50.999Z</time></trkpt><trkpt lat="40.96692277483562" lon="14.62094099780445"><ele>420.5</ele><time>2026-04-12T07:14:51.999Z</time></trkpt><trkpt lat="40.96698279534917" lon="14.621075772338974"><ele>422.25</ele><time>2026-04-12T07:14:52.999Z</time></trkpt><trkpt lat="40.96703176892478" lon="14.621240838089296"><ele>424.0</ele><time>2026-04-12T07:14:53.999Z</time></trkpt><trkpt lat="40.967098404521494" lon="14.621378000097984"><ele>428.75</ele><time>2026-04-12T07:14:54.999Z</time></trkpt><trkpt lat="40.96716417567186" lon="14.621516594688694"><ele>433.5</ele><time>2026-04-12T07:14:55.999Z</time></trkpt><trkpt lat="40.96721385646003" lon="14.621686472087207"><ele>438.25</ele><time>2026-04-12T07:14:56.999Z</time></trkpt><trkpt lat="40.96725393235279" lon="14.621833215568788"><ele>443.0</ele><time>2026-04-12T07:14:57.999Z</time></trkpt><trkpt lat="40.967288380568185" lon="14.621967307040382"><ele>447.0</ele><time>2026-04-12T07:14:58.999Z</time></trkpt><trkpt lat="40.96735129983481" lon="14.62213596706657"><ele>451.0</ele><time>2026-04-12T07:14:59.999Z</time></trkpt><trkpt lat="40.96743533059722" lon="14.622296037040888"><ele>455.0</ele><time>2026-04-12T07:15:00.999Z</time></trkpt><trkpt lat="40.96750387986925" lon="14.622450980054738"><ele>459.0</ele><time>2026-04-12T07:15:01.999Z</time></trkpt><trkpt lat="40.96755092788832" lon="14.622578962114693"><ele>460.4</ele><time>2026-04-12T07:15:02.999Z</time></trkpt><trkpt lat="40.96758743046317" lon="14.622692107605321"><ele>461.79999999999995</ele><time>2026-04-12T07:15:03.999Z</time></trkpt><trkpt lat="40.9676145955899" lon="14.622801635054754"><ele>463.20000000000005</ele><time>2026-04-12T07:15:04.999Z</time></trkpt><trkpt lat="40.96764822597029" lon="14.622929304912462"><ele>464.6</ele><time>2026-04-12T07:15:05.999Z</time></trkpt><trkpt lat="40.96769299197381" lon="14.623061183893274"><ele>466.0</ele><time>2026-04-12T07:15:06.999Z</time></trkpt><trkpt lat="40.96773117736052" lon="14.62318650342724"><ele>469.83333333333337</ele><time>2026-04-12T07:15:07.999Z</time></trkpt><trkpt lat="40.96776889672634" lon="14.623299967905758"><ele>473.6666666666667</ele><time>2026-04-12T07:15:08.999Z</time></trkpt><trkpt lat="40.96781186474924" lon="14.623366348297004"><ele>477.5</ele><time>2026-04-12T07:15:11Z</time></trkpt><trkpt lat="40.967887650327654" lon="14.623290245840046"><ele>481.33333333333337</ele><time>2026-04-12T07:15:16Z</time></trkpt><trkpt lat="40.9679438016229" lon="14.623246724802568"><ele>485.1666666666667</ele><time>2026-04-12T07:15:17Z</time></trkpt><trkpt lat="40.96801129703569" lon="14.62317976942689"><ele>489.0</ele><time>2026-04-12T07:15:19Z</time></trkpt><trkpt lat="40.968082536597194" lon="14.62313268480787"><ele>489.0</ele><time>2026-04-12T07:16:48.999Z</time></trkpt><trkpt lat="40.96814511179752" lon="14.623095605801531"><ele>489.0</ele><time>2026-04-12T07:17:27Z</time></trkpt><trkpt lat="40.96821911489909" lon="14.623044380898444"><ele>489.0</ele><time>2026-04-12T07:17:30Z</time></trkpt><trkpt lat="40.96830239944262" lon="14.622966263330563"><ele>489.0</ele><time>2026-04-12T07:17:32Z</time></trkpt><trkpt lat="40.96841983485339" lon="14.622881714787633"><ele>489.0</ele><time>2026-04-12T07:17:34Z</time></trkpt><trkpt lat="40.96851066764563" lon="14.622821954190787"><ele>485.75</ele><time>2026-04-12T07:17:35Z</time></trkpt><trkpt lat="40.968594278613956" lon="14.622754790477748"><ele>482.5</ele><time>2026-04-12T07:17:36Z</time></trkpt><trkpt lat="40.96869437603588" lon="14.622695189451324"><ele>479.25</ele><time>2026-04-12T07:17:37Z</time></trkpt><trkpt lat="40.968806200762494" lon="14.622649444667498"><ele>476.0</ele><time>2026-04-12T07:17:38Z</time></trkpt><trkpt lat="40.96892784530272" lon="14.622592965377537"><ele>476.0</ele><time>2026-04-12T07:17:39Z</time></trkpt><trkpt lat="40.969038964299095" lon="14.622542524547313"><ele>476.0</ele><time>2026-04-12T07:17:40Z</time></trkpt><trkpt lat="40.969131213102365" lon="14.622499265526807"><ele>476.0</ele><time>2026-04-12T07:17:41Z</time></trkpt><trkpt lat="40.96921285438406" lon="14.622465138974059"><ele>476.0</ele><time>2026-04-12T07:17:42Z</time></trkpt><trkpt lat="40.96929893086301" lon="14.622408745620508"><ele>476.0</ele><time>2026-04-12T07:17:43Z</time></trkpt><trkpt lat="40.96940058069817" lon="14.622333997969234"><ele>478.4</ele><time>2026-04-12T07:17:44Z</time></trkpt><trkpt lat="40.96951593821898" lon="14.622270131786122"><ele>480.8</ele><time>2026-04-12T07:17:45Z</time></trkpt><trkpt lat="40.969619785609176" lon="14.622209128968048"><ele>483.19999999999993</ele><time>2026-04-12T07:17:46Z</time></trkpt><trkpt lat="40.96972404824876" lon="14.622167513063866"><ele>485.59999999999997</ele><time>2026-04-12T07:17:47Z</time></trkpt><trkpt lat="40.96981778005592" lon="14.622131491524648"><ele>488.0</ele><time>2026-04-12T07:17:48Z</time></trkpt><trkpt lat="40.96988758719017" lon="14.622096384753766"><ele>487.99999999999994</ele><time>2026-04-12T07:17:49Z</time></trkpt><trkpt lat="40.96995732877854" lon="14.622061260839837"><ele>488.0</ele><time>2026-04-12T07:17:50Z</time></trkpt><trkpt lat="40.9700222254911" lon="14.62202546012967"><ele>488.0</ele><time>2026-04-12T07:17:51Z</time></trkpt><trkpt lat="40.97012633636232" lon="14.621970511574927"><ele>488.0</ele><time>2026-04-12T07:17:53Z</time></trkpt><trkpt lat="40.97022512866698" lon="14.621880410416368"><ele>487.99999999999994</ele><time>2026-04-12T07:17:55Z</time></trkpt><trkpt lat="40.97027921730193" lon="14.621833556180041"><ele>488.0</ele><time>2026-04-12T07:17:56Z</time></trkpt><trkpt lat="40.97033615471288" lon="14.621786765751747"><ele>486.59999999999997</ele><time>2026-04-12T07:17:57Z</time></trkpt><trkpt lat="40.970416550135624" lon="14.621724908669611"><ele>485.19999999999993</ele><time>2026-04-12T07:17:58Z</time></trkpt><trkpt lat="40.97049835916675" lon="14.62165525869568"><ele>483.8</ele><time>2026-04-12T07:17:59Z</time></trkpt><trkpt lat="40.97059302388188" lon="14.621590988990723"><ele>482.4</ele><time>2026-04-12T07:18:00Z</time></trkpt><trkpt lat="40.970698823923314" lon="14.621533104949927"><ele>481.0</ele><time>2026-04-12T07:18:01Z</time></trkpt><trkpt lat="40.970836962576456" lon="14.621485828714718"><ele>483.6</ele><time>2026-04-12T07:18:02Z</time></trkpt><trkpt lat="40.97097360103239" lon="14.62145027583517"><ele>486.20000000000005</ele><time>2026-04-12T07:18:03Z</time></trkpt><trkpt lat="40.971077872292824" lon="14.621423670800807"><ele>488.79999999999995</ele><time>2026-04-12T07:18:04Z</time></trkpt><trkpt lat="40.971155187808726" lon="14.621395279404695"><ele>491.4</ele><time>2026-04-12T07:18:05Z</time></trkpt><trkpt lat="40.971218170555545" lon="14.621368593594921"><ele>494.0</ele><time>2026-04-12T07:18:06Z</time></trkpt><trkpt lat="40.971347570293105" lon="14.621328562975421"><ele>494.0</ele><time>2026-04-12T07:18:08Z</time></trkpt><trkpt lat="40.97142429704233" lon="14.621302942639405"><ele>494.0</ele><time>2026-04-12T07:18:09Z</time></trkpt><trkpt lat="40.97150757828519" lon="14.621276199214712"><ele>494.0</ele><time>2026-04-12T07:18:10Z</time></trkpt><trkpt lat="40.97160864975712" lon="14.621240259958839"><ele>494.0</ele><time>2026-04-12T07:18:11Z</time></trkpt><trkpt lat="40.971704755508355" lon="14.621202436312535"><ele>494.0</ele><time>2026-04-12T07:18:12Z</time></trkpt><trkpt lat="40.97179211524412" lon="14.621177589518394"><ele>493.3333333333333</ele><time>2026-04-12T07:18:13Z</time></trkpt><trkpt lat="40.971868307478594" lon="14.621163684320397"><ele>492.66666666666663</ele><time>2026-04-12T07:18:14Z</time></trkpt><trkpt lat="40.97197478929781" lon="14.621152886628582"><ele>492.0</ele><time>2026-04-12T07:18:16Z</time></trkpt><trkpt lat="40.9720489798201" lon="14.62115251459103"><ele>491.33333333333337</ele><time>2026-04-12T07:18:18Z</time></trkpt><trkpt lat="40.97214329295499" lon="14.621129704090963"><ele>490.6666666666667</ele><time>2026-04-12T07:18:20Z</time></trkpt><trkpt lat="40.972221745093314" lon="14.621122297655587"><ele>490.0</ele><time>2026-04-12T07:18:23Z</time></trkpt><trkpt lat="40.972349277116805" lon="14.621133683303214"><ele>490.0</ele><time>2026-04-12T07:18:24Z</time></trkpt><trkpt lat="40.972418860437784" lon="14.621155281933898"><ele>490.0</ele><time>2026-04-12T07:18:25Z</time></trkpt><trkpt lat="40.972508606073006" lon="14.62119414179846"><ele>490.0</ele><time>2026-04-12T07:18:27Z</time></trkpt><trkpt lat="40.97258453608869" lon="14.621263398758083"><ele>490.0</ele><time>2026-04-12T07:18:29Z</time></trkpt><trkpt lat="40.972684926071466" lon="14.621358072775157"><ele>490.0</ele><time>2026-04-12T07:18:31Z</time></trkpt><trkpt lat="40.97275013044349" lon="14.621427593570681"><ele>482.5</ele><time>2026-04-12T07:18:32Z</time></trkpt><trkpt lat="40.97280670690994" lon="14.62148321502561"><ele>475.0</ele><time>2026-04-12T07:18:33Z</time></trkpt><trkpt lat="40.97289080665393" lon="14.621637628074765"><ele>467.5</ele><time>2026-04-12T07:18:35Z</time></trkpt><trkpt lat="40.97292187487686" lon="14.62175929596358"><ele>460.0</ele><time>2026-04-12T07:18:36Z</time></trkpt><trkpt lat="40.972976700269726" lon="14.62193957582792"><ele>460.75</ele><time>2026-04-12T07:18:37Z</time></trkpt><trkpt lat="40.97302243911151" lon="14.62212316666323"><ele>461.5</ele><time>2026-04-12T07:18:38Z</time></trkpt><trkpt lat="40.97303713000283" lon="14.622243644497487"><ele>462.25</ele><time>2026-04-12T07:18:39Z</time></trkpt><trkpt lat="40.97303578296824" lon="14.622368723960442"><ele>463.0</ele><time>2026-04-12T07:18:40Z</time></trkpt><trkpt lat="40.97297732925612" lon="14.622503658613487"><ele>463.0</ele><time>2026-04-12T07:18:41Z</time></trkpt><trkpt lat="40.972939348081816" lon="14.62270821902269"><ele>463.0</ele><time>2026-04-12T07:18:42Z</time></trkpt><trkpt lat="40.972901897685496" lon="14.622910532235139"><ele>463.0</ele><time>2026-04-12T07:18:43Z</time></trkpt><trkpt lat="40.97286279402666" lon="14.623092223827923"><ele>461.83333333333337</ele><time>2026-04-12T07:18:44Z</time></trkpt><trkpt lat="40.972820465852394" lon="14.623219957091573"><ele>460.6666666666667</ele><time>2026-04-12T07:18:45Z</time></trkpt><trkpt lat="40.97277114246686" lon="14.623339745290584"><ele>459.5</ele><time>2026-04-12T07:18:45.999Z</time></trkpt><trkpt lat="40.972725366154116" lon="14.623439633576751"><ele>458.33333333333337</ele><time>2026-04-12T07:18:46.999Z</time></trkpt><trkpt lat="40.97268867935429" lon="14.623507579677261"><ele>457.1666666666667</ele><time>2026-04-12T07:18:47.999Z</time></trkpt><trkpt lat="40.97264595295521" lon="14.62358171252925"><ele>456.0</ele><time>2026-04-12T07:18:48.999Z</time></trkpt><trkpt lat="40.97260888308071" lon="14.623682394713912"><ele>453.0</ele><time>2026-04-12T07:18:49.999Z</time></trkpt><trkpt lat="40.972566152531726" lon="14.623789266084195"><ele>450.0</ele><time>2026-04-12T07:18:50.999Z</time></trkpt><trkpt lat="40.972537478510134" lon="14.623895744698338"><ele>447.0</ele><time>2026-04-12T07:18:51.999Z</time></trkpt><trkpt lat="40.972475581862376" lon="14.624020620433946"><ele>444.0</ele><time>2026-04-12T07:18:52.999Z</time></trkpt><trkpt lat="40.97240253610161" lon="14.624165880209196"><ele>441.0</ele><time>2026-04-12T07:18:53.999Z</time></trkpt><trkpt lat="40.97233810916579" lon="14.624307873807695"><ele>449.75</ele><time>2026-04-12T07:18:54.999Z</time></trkpt><trkpt lat="40.972282243815414" lon="14.624450395541828"><ele>458.5</ele><time>2026-04-12T07:18:55.999Z</time></trkpt><trkpt lat="40.97223291616548" lon="14.62458730906448"><ele>467.25</ele><time>2026-04-12T07:18:56.999Z</time></trkpt><trkpt lat="40.972177399331464" lon="14.624740356768294"><ele>476.0</ele><time>2026-04-12T07:18:57.999Z</time></trkpt><trkpt lat="40.97212438919948" lon="14.624887049901282"><ele>476.0</ele><time>2026-04-12T07:18:58.999Z</time></trkpt><trkpt lat="40.972067481028056" lon="14.625032002309283"><ele>476.0</ele><time>2026-04-12T07:18:59.999Z</time></trkpt><trkpt lat="40.97200821836737" lon="14.625166737609721"><ele>476.0</ele><time>2026-04-12T07:19:00.999Z</time></trkpt><trkpt lat="40.971928947571364" lon="14.625304832654292"><ele>476.0</ele><time>2026-04-12T07:19:01.999Z</time></trkpt><trkpt lat="40.971842689711856" lon="14.625447979621143"><ele>470.75</ele><time>2026-04-12T07:19:02.999Z</time></trkpt><trkpt lat="40.97176393746351" lon="14.62557346616601"><ele>465.5</ele><time>2026-04-12T07:19:03.999Z</time></trkpt><trkpt lat="40.97167442689511" lon="14.625711743897988"><ele>460.25</ele><time>2026-04-12T07:19:04.999Z</time></trkpt><trkpt lat="40.97159948752677" lon="14.625860075606727"><ele>455.0</ele><time>2026-04-12T07:19:05.999Z</time></trkpt><trkpt lat="40.971524743182165" lon="14.626030791755227"><ele>462.5</ele><time>2026-04-12T07:19:06.999Z</time></trkpt><trkpt lat="40.97145623793097" lon="14.626194146098815"><ele>470.0</ele><time>2026-04-12T07:19:07.999Z</time></trkpt><trkpt lat="40.97139752725628" lon="14.626340240927487"><ele>477.5</ele><time>2026-04-12T07:19:08.999Z</time></trkpt><trkpt lat="40.97132528911019" lon="14.626500042684874"><ele>485.0</ele><time>2026-04-12T07:19:09.999Z</time></trkpt><trkpt lat="40.97125465051757" lon="14.626670196609153"><ele>485.0</ele><time>2026-04-12T07:19:10.999Z</time></trkpt><trkpt lat="40.97119264722122" lon="14.626843717127848"><ele>485.0</ele><time>2026-04-12T07:19:11.999Z</time></trkpt><trkpt lat="40.971137777766025" lon="14.62701691707917"><ele>485.0</ele><time>2026-04-12T07:19:12.999Z</time></trkpt><trkpt lat="40.97109213727087" lon="14.627181690789405"><ele>485.0</ele><time>2026-04-12T07:19:13.999Z</time></trkpt><trkpt lat="40.97104891277877" lon="14.627342555834955"><ele>487.5</ele><time>2026-04-12T07:19:14.999Z</time></trkpt><trkpt lat="40.97100168581665" lon="14.627504257192001"><ele>490.0</ele><time>2026-04-12T07:19:15.999Z</time></trkpt><trkpt lat="40.97094855602473" lon="14.627660519014919"><ele>492.5</ele><time>2026-04-12T07:19:16.999Z</time></trkpt><trkpt lat="40.97088388875105" lon="14.627828565640515"><ele>495.0</ele><time>2026-04-12T07:19:17.999Z</time></trkpt><trkpt lat="40.970806799287196" lon="14.62799883855994"><ele>495.0</ele><time>2026-04-12T07:19:18.999Z</time></trkpt><trkpt lat="40.97072413154395" lon="14.628177352276387"><ele>495.0</ele><time>2026-04-12T07:19:19.999Z</time></trkpt><trkpt lat="40.970656445121875" lon="14.628337077614734"><ele>495.0</ele><time>2026-04-12T07:19:21Z</time></trkpt><trkpt lat="40.97059244923669" lon="14.628478336814958"><ele>495.0</ele><time>2026-04-12T07:19:22Z</time></trkpt><trkpt lat="40.970507653776075" lon="14.62865807179742"><ele>488.66666666666663</ele><time>2026-04-12T07:19:23Z</time></trkpt><trkpt lat="40.97041432001259" lon="14.628851783331795"><ele>482.3333333333333</ele><time>2026-04-12T07:19:24Z</time></trkpt><trkpt lat="40.970336236052795" lon="14.629022608742273"><ele>476.0</ele><time>2026-04-12T07:19:25Z</time></trkpt><trkpt lat="40.97027457746742" lon="14.629195729821921"><ele>476.0</ele><time>2026-04-12T07:19:26Z</time></trkpt><trkpt lat="40.970214347280965" lon="14.62935552746989"><ele>476.0</ele><time>2026-04-12T07:19:27Z</time></trkpt><trkpt lat="40.9701525841882" lon="14.629497830103235"><ele>476.0</ele><time>2026-04-12T07:19:28Z</time></trkpt><trkpt lat="40.97008510022721" lon="14.629634808919027"><ele>476.0</ele><time>2026-04-12T07:19:29Z</time></trkpt><trkpt lat="40.970026286232326" lon="14.62979086745138"><ele>479.75</ele><time>2026-04-12T07:19:30Z</time></trkpt><trkpt lat="40.96998444352461" lon="14.62995787667367"><ele>483.5</ele><time>2026-04-12T07:19:31Z</time></trkpt><trkpt lat="40.969961530327616" lon="14.630120647469788"><ele>487.25</ele><time>2026-04-12T07:19:32Z</time></trkpt><trkpt lat="40.96992904769052" lon="14.630282192130377"><ele>491.0</ele><time>2026-04-12T07:19:33Z</time></trkpt><trkpt lat="40.96987389369685" lon="14.630445709644066"><ele>491.0</ele><time>2026-04-12T07:19:34Z</time></trkpt><trkpt lat="40.96981390454978" lon="14.63061418957196"><ele>491.0</ele><time>2026-04-12T07:19:35Z</time></trkpt><trkpt lat="40.96975149156079" lon="14.630774071557061"><ele>491.0</ele><time>2026-04-12T07:19:36Z</time></trkpt><trkpt lat="40.969698020240415" lon="14.630901124912596"><ele>491.0</ele><time>2026-04-12T07:19:37Z</time></trkpt><trkpt lat="40.969649318056476" lon="14.63101849472778"><ele>491.0</ele><time>2026-04-12T07:19:38Z</time></trkpt><trkpt lat="40.969612813141595" lon="14.631129549941582"><ele>491.0</ele><time>2026-04-12T07:19:39Z</time></trkpt><trkpt lat="40.9695808689608" lon="14.631259301676057"><ele>491.0</ele><time>2026-04-12T07:19:40Z</time></trkpt><trkpt lat="40.969544112004044" lon="14.631388825839338"><ele>491.0</ele><time>2026-04-12T07:19:41Z</time></trkpt><trkpt lat="40.9695222739039" lon="14.631496886916088"><ele>491.0</ele><time>2026-04-12T07:19:42Z</time></trkpt><trkpt lat="40.96950286489988" lon="14.631601461196864"><ele>487.99999999999994</ele><time>2026-04-12T07:19:43Z</time></trkpt><trkpt lat="40.96949015704254" lon="14.6316880119691"><ele>485.0</ele><time>2026-04-12T07:19:44Z</time></trkpt><trkpt lat="40.969477863700234" lon="14.631778310250432"><ele>482.0</ele><time>2026-04-12T07:19:45Z</time></trkpt><trkpt lat="40.96944667545696" lon="14.631892705016371"><ele>479.0</ele><time>2026-04-12T07:19:46Z</time></trkpt><trkpt lat="40.96939634749759" lon="14.632009919982638"><ele>475.99999999999994</ele><time>2026-04-12T07:19:47Z</time></trkpt><trkpt lat="40.96934283834856" lon="14.632122192335352"><ele>473.0</ele><time>2026-04-12T07:19:48Z</time></trkpt><trkpt lat="40.96928188806065" lon="14.632233746198995"><ele>473.49999999999994</ele><time>2026-04-12T07:19:49Z</time></trkpt><trkpt lat="40.96924558401156" lon="14.63232343282222"><ele>474.0</ele><time>2026-04-12T07:19:50Z</time></trkpt><trkpt lat="40.96923333016671" lon="14.632422685267926"><ele>474.5</ele><time>2026-04-12T07:19:52Z</time></trkpt><trkpt lat="40.969253998530085" lon="14.632527176854836"><ele>475.0</ele><time>2026-04-12T07:19:54Z</time></trkpt><trkpt lat="40.969319471876304" lon="14.632656739147478"><ele>475.49999999999994</ele><time>2026-04-12T07:19:56Z</time></trkpt><trkpt lat="40.96937059391593" lon="14.632745952706832"><ele>476.0</ele><time>2026-04-12T07:19:58Z</time></trkpt><trkpt lat="40.96941564514354" lon="14.632863521748089"><ele>475.99999999999994</ele><time>2026-04-12T07:20:01Z</time></trkpt><trkpt lat="40.96950738029144" lon="14.63302285556155"><ele>476.0</ele><time>2026-04-12T07:20:05Z</time></trkpt><trkpt lat="40.96955868607366" lon="14.63307388942334"><ele>476.0</ele><time>2026-04-12T07:20:07Z</time></trkpt><trkpt lat="40.96961302386276" lon="14.633148921981196"><ele>476.0</ele><time>2026-04-12T07:20:09Z</time></trkpt><trkpt lat="40.96965745293414" lon="14.633219123162526"><ele>475.99999999999994</ele><time>2026-04-12T07:20:12Z</time></trkpt><trkpt lat="40.96969465920092" lon="14.633310077161099"><ele>476.0</ele><time>2026-04-12T07:20:32Z</time></trkpt><trkpt lat="40.96970887330585" lon="14.633397162730459"><ele>476.0</ele><time>2026-04-12T07:21:04Z</time></trkpt><trkpt lat="40.96968053592661" lon="14.63353316200167"><ele>476.0</ele><time>2026-04-12T07:21:06Z</time></trkpt><trkpt lat="40.96966414460691" lon="14.633630201677304"><ele>476.0</ele><time>2026-04-12T07:21:07Z</time></trkpt><trkpt lat="40.96965146879525" lon="14.633725431557158"><ele>476.0</ele><time>2026-04-12T07:21:08Z</time></trkpt><trkpt lat="40.96961316257023" lon="14.633904800373015"><ele>476.0</ele><time>2026-04-12T07:21:10Z</time></trkpt><trkpt lat="40.96959492903311" lon="14.634003953964427"><ele>476.20000000000005</ele><time>2026-04-12T07:21:11Z</time></trkpt><trkpt lat="40.96958099764083" lon="14.634133818369317"><ele>476.40000000000003</ele><time>2026-04-12T07:21:12Z</time></trkpt><trkpt lat="40.969568259234386" lon="14.634277891546207"><ele>476.6</ele><time>2026-04-12T07:21:12.999Z</time></trkpt><trkpt lat="40.96955184456598" lon="14.634405096636513"><ele>476.8</ele><time>2026-04-12T07:21:13.999Z</time></trkpt><trkpt lat="40.969520632270466" lon="14.634550146442077"><ele>477.0</ele><time>2026-04-12T07:21:14.999Z</time></trkpt><trkpt lat="40.96948106611583" lon="14.634716297756833"><ele>476.40000000000003</ele><time>2026-04-12T07:21:15.999Z</time></trkpt><trkpt lat="40.96945557301447" lon="14.634878169490456"><ele>475.80000000000007</ele><time>2026-04-12T07:21:16.999Z</time></trkpt><trkpt lat="40.96943127448483" lon="14.63502147501029"><ele>475.2</ele><time>2026-04-12T07:21:17.999Z</time></trkpt><trkpt lat="40.96941448587293" lon="14.63513963157102"><ele>474.6</ele><time>2026-04-12T07:21:18.999Z</time></trkpt><trkpt lat="40.96936839546651" lon="14.63524070159588"><ele>474.0</ele><time>2026-04-12T07:21:19.999Z</time></trkpt><trkpt lat="40.969309814569975" lon="14.635336451807406"><ele>471.25</ele><time>2026-04-12T07:21:20.999Z</time></trkpt><trkpt lat="40.969217496000134" lon="14.635378631444155"><ele>468.5</ele><time>2026-04-12T07:21:21.999Z</time></trkpt><trkpt lat="40.96909557924668" lon="14.635418626657732"><ele>465.75</ele><time>2026-04-12T07:21:22.999Z</time></trkpt><trkpt lat="40.96897309442483" lon="14.635456099938876"><ele>463.0</ele><time>2026-04-12T07:21:23.999Z</time></trkpt><trkpt lat="40.96884557566217" lon="14.635493084700482"><ele>470.2</ele><time>2026-04-12T07:21:24.999Z</time></trkpt><trkpt lat="40.968733820630504" lon="14.635534870301134"><ele>477.4</ele><time>2026-04-12T07:21:25.999Z</time></trkpt><trkpt lat="40.96863783160218" lon="14.63560623346849"><ele>484.59999999999997</ele><time>2026-04-12T07:21:27Z</time></trkpt><trkpt lat="40.9685549035014" lon="14.635673487060728"><ele>491.79999999999995</ele><time>2026-04-12T07:21:28Z</time></trkpt><trkpt lat="40.96847627981589" lon="14.63573868451168"><ele>499.0</ele><time>2026-04-12T07:21:29Z</time></trkpt><trkpt lat="40.96839088976994" lon="14.635830995128277"><ele>504.5</ele><time>2026-04-12T07:21:30Z</time></trkpt><trkpt lat="40.9683034853185" lon="14.635930407099098"><ele>510.0</ele><time>2026-04-12T07:21:31Z</time></trkpt><trkpt lat="40.968207326893356" lon="14.636008515468273"><ele>515.5</ele><time>2026-04-12T07:21:32Z</time></trkpt><trkpt lat="40.96810144518906" lon="14.636083327310132"><ele>521.0</ele><time>2026-04-12T07:21:33Z</time></trkpt><trkpt lat="40.96801124843915" lon="14.636154853545264"><ele>521.0</ele><time>2026-04-12T07:21:34Z</time></trkpt><trkpt lat="40.96794108899977" lon="14.636261471034437"><ele>521.0</ele><time>2026-04-12T07:21:35Z</time></trkpt><trkpt lat="40.96787767087776" lon="14.636385797880946"><ele>521.0</ele><time>2026-04-12T07:21:36Z</time></trkpt><trkpt lat="40.967813649923535" lon="14.636497420142138"><ele>521.0</ele><time>2026-04-12T07:21:37Z</time></trkpt><trkpt lat="40.96776842789577" lon="14.636571580770207"><ele>521.0</ele><time>2026-04-12T07:21:38Z</time></trkpt><trkpt lat="40.96766360785025" lon="14.636602829615505"><ele>521.0</ele><time>2026-04-12T07:21:40Z</time></trkpt><trkpt lat="40.967556015682845" lon="14.636492126638334"><ele>521.0</ele><time>2026-04-12T07:21:42Z</time></trkpt><trkpt lat="40.967479975112795" lon="14.636437407327332"><ele>521.0</ele><time>2026-04-12T07:21:43Z</time></trkpt><trkpt lat="40.967367513612984" lon="14.6364641882407"><ele>521.0</ele><time>2026-04-12T07:21:45Z</time></trkpt><trkpt lat="40.96732681756364" lon="14.636537322408692"><ele>521.0</ele><time>2026-04-12T07:21:46Z</time></trkpt><trkpt lat="40.967269504838974" lon="14.636617819236301"><ele>526.0</ele><time>2026-04-12T07:21:47Z</time></trkpt><trkpt lat="40.967205758873845" lon="14.636656059836305"><ele>531.0</ele><time>2026-04-12T07:21:48Z</time></trkpt><trkpt lat="40.96714223457868" lon="14.636716785505655"><ele>536.0</ele><time>2026-04-12T07:21:49Z</time></trkpt><trkpt lat="40.967086594120545" lon="14.636774698055225"><ele>541.0</ele><time>2026-04-12T07:21:50Z</time></trkpt><trkpt lat="40.96702755482415" lon="14.636820113330813"><ele>546.0</ele><time>2026-04-12T07:21:51Z</time></trkpt><trkpt lat="40.96694917972561" lon="14.63688775532587"><ele>551.0</ele><time>2026-04-12T07:21:52Z</time></trkpt><trkpt lat="40.96688140983351" lon="14.636932357826188"><ele>550.5</ele><time>2026-04-12T07:21:53Z</time></trkpt><trkpt lat="40.96678442411578" lon="14.636985551598674"><ele>550.0</ele><time>2026-04-12T07:21:54Z</time></trkpt><trkpt lat="40.96665432254529" lon="14.637024670162143"><ele>549.5</ele><time>2026-04-12T07:21:55Z</time></trkpt><trkpt lat="40.96653505436004" lon="14.637079177547882"><ele>549.0</ele><time>2026-04-12T07:21:56Z</time></trkpt><trkpt lat="40.9664279219053" lon="14.63712394265514"><ele>549.0</ele><time>2026-04-12T07:21:57Z</time></trkpt><trkpt lat="40.966314624834574" lon="14.637182184734124"><ele>549.0</ele><time>2026-04-12T07:21:58Z</time></trkpt><trkpt lat="40.966175632062125" lon="14.637254270712809"><ele>549.0</ele><time>2026-04-12T07:21:59Z</time></trkpt><trkpt lat="40.96603592630826" lon="14.637326311086273"><ele>549.0</ele><time>2026-04-12T07:22:00Z</time></trkpt><trkpt lat="40.96593763622111" lon="14.637378142402838"><ele>549.0</ele><time>2026-04-12T07:22:01Z</time></trkpt><trkpt lat="40.965881702382184" lon="14.637427825098166"><ele>549.0</ele><time>2026-04-12T07:22:03Z</time></trkpt><trkpt lat="40.96582577002316" lon="14.637551230593933"><ele>549.0</ele><time>2026-04-12T07:22:05Z</time></trkpt><trkpt lat="40.96576448520759" lon="14.637607623769629"><ele>549.0</ele><time>2026-04-12T07:22:07Z</time></trkpt><trkpt lat="40.9658274691108" lon="14.637652776598435"><ele>549.0</ele><time>2026-04-12T07:22:47Z</time></trkpt><trkpt lat="40.96581394641376" lon="14.637755821384816"><ele>549.0</ele><time>2026-04-12T07:22:49Z</time></trkpt><trkpt lat="40.965781925222494" lon="14.637866695747466"><ele>550.2857142857142</ele><time>2026-04-12T07:22:50Z</time></trkpt><trkpt lat="40.96575565271111" lon="14.63796375333083"><ele>551.5714285714286</ele><time>2026-04-12T07:22:51Z</time></trkpt><trkpt lat="40.96573576406026" lon="14.638046719434104"><ele>552.8571428571429</ele><time>2026-04-12T07:22:52Z</time></trkpt><trkpt lat="40.965692069047826" lon="14.638114135222994"><ele>554.1428571428571</ele><time>2026-04-12T07:22:53Z</time></trkpt><trkpt lat="40.96562771173926" lon="14.638165795276148"><ele>555.4285714285714</ele><time>2026-04-12T07:22:54Z</time></trkpt><trkpt lat="40.96556161723895" lon="14.638184831781835"><ele>556.7142857142857</ele><time>2026-04-12T07:22:55Z</time></trkpt><trkpt lat="40.96550823406534" lon="14.638270200943513"><ele>558.0</ele><time>2026-04-12T07:22:57Z</time></trkpt><trkpt lat="40.96549420916545" lon="14.638367366529206"><ele>558.0</ele><time>2026-04-12T07:22:58Z</time></trkpt><trkpt lat="40.96548992162874" lon="14.638460764297742"><ele>558.0</ele><time>2026-04-12T07:23:00Z</time></trkpt><trkpt lat="40.96550179392209" lon="14.638566089607485"><ele>558.0</ele><time>2026-04-12T07:23:02Z</time></trkpt><trkpt lat="40.965489821753145" lon="14.63868179030432"><ele>558.0</ele><time>2026-04-12T07:23:06Z</time></trkpt><trkpt lat="40.96558402451633" lon="14.638749474200374"><ele>558.0</ele><time>2026-04-12T07:24:59Z</time></trkpt><trkpt lat="40.96565529621982" lon="14.638721254005578"><ele>558.0</ele><time>2026-04-12T07:26:31Z</time></trkpt><trkpt lat="40.96570852244427" lon="14.638642365643427"><ele>558.0</ele><time>2026-04-12T07:27:53Z</time></trkpt><trkpt lat="40.96578502523077" lon="14.638585226667992"><ele>558.0</ele><time>2026-04-12T07:32:19Z</time></trkpt><trkpt lat="40.965878402624405" lon="14.638578260392205"><ele>558.0</ele><time>2026-04-12T07:32:21Z</time></trkpt><trkpt lat="40.96597685461824" lon="14.638594353426413"><ele>558.0</ele><time>2026-04-12T07:32:23Z</time></trkpt><trkpt lat="40.96608351668872" lon="14.638625293686273"><ele>558.0</ele><time>2026-04-12T07:32:25Z</time></trkpt><trkpt lat="40.96617738522217" lon="14.638650468603794"><ele>560.8</ele><time>2026-04-12T07:32:26Z</time></trkpt><trkpt lat="40.96626818670831" lon="14.638671445321501"><ele>563.5999999999999</ele><time>2026-04-12T07:32:28Z</time></trkpt><trkpt lat="40.966367291555144" lon="14.638717088428688"><ele>566.4000000000001</ele><time>2026-04-12T07:32:32Z</time></trkpt><trkpt lat="40.96645400424614" lon="14.638810613728301"><ele>569.2</ele><time>2026-04-12T07:32:34Z</time></trkpt><trkpt lat="40.96650249453784" lon="14.638870072463334"><ele>572.0</ele><time>2026-04-12T07:32:35Z</time></trkpt><trkpt lat="40.9665559277914" lon="14.638939582962365"><ele>572.0</ele><time>2026-04-12T07:32:36Z</time></trkpt><trkpt lat="40.96661313893574" lon="14.639002183990474"><ele>572.0</ele><time>2026-04-12T07:32:37Z</time></trkpt><trkpt lat="40.96666548228708" lon="14.639061759136087"><ele>572.0</ele><time>2026-04-12T07:32:38Z</time></trkpt><trkpt lat="40.96676189505279" lon="14.639193824080609"><ele>572.0</ele><time>2026-04-12T07:32:39.999Z</time></trkpt><trkpt lat="40.96681316997137" lon="14.639278201091203"><ele>572.0</ele><time>2026-04-12T07:32:40.999Z</time></trkpt><trkpt lat="40.966844556457865" lon="14.639350783548894"><ele>572.0</ele><time>2026-04-12T07:32:41.999Z</time></trkpt><trkpt lat="40.96684568343135" lon="14.639511752986095"><ele>573.1666666666666</ele><time>2026-04-12T07:32:43.999Z</time></trkpt><trkpt lat="40.966795029141934" lon="14.639636730107508"><ele>574.3333333333333</ele><time>2026-04-12T07:32:45.999Z</time></trkpt><trkpt lat="40.96674238315229" lon="14.63970904599944"><ele>575.5</ele><time>2026-04-12T07:32:46.999Z</time></trkpt><trkpt lat="40.96669257768425" lon="14.639768613889593"><ele>576.6666666666666</ele><time>2026-04-12T07:32:47.999Z</time></trkpt><trkpt lat="40.96662618028487" lon="14.63980381996774"><ele>577.8333333333334</ele><time>2026-04-12T07:32:48.999Z</time></trkpt><trkpt lat="40.96656478688246" lon="14.639841932543845"><ele>579.0</ele><time>2026-04-12T07:32:49.999Z</time></trkpt><trkpt lat="40.9664672497606" lon="14.639942580714735"><ele>579.6</ele><time>2026-04-12T07:32:51.999Z</time></trkpt><trkpt lat="40.966351857990425" lon="14.639955467334"><ele>580.2</ele><time>2026-04-12T07:32:53.999Z</time></trkpt><trkpt lat="40.96626679954142" lon="14.639963217346402"><ele>580.8000000000001</ele><time>2026-04-12T07:32:55.999Z</time></trkpt><trkpt lat="40.966147782225214" lon="14.639967324316485"><ele>581.4</ele><time>2026-04-12T07:32:57.999Z</time></trkpt><trkpt lat="40.966040585075056" lon="14.639976073678264"><ele>582.0</ele><time>2026-04-12T07:32:59.999Z</time></trkpt><trkpt lat="40.96593901999508" lon="14.640023131718477"><ele>582.4</ele><time>2026-04-12T07:33:01.999Z</time></trkpt><trkpt lat="40.965841175280254" lon="14.640073633144912"><ele>582.8000000000001</ele><time>2026-04-12T07:33:02.999Z</time></trkpt><trkpt lat="40.96577902769871" lon="14.640094525285862"><ele>583.2</ele><time>2026-04-12T07:33:03.999Z</time></trkpt><trkpt lat="40.96567140684903" lon="14.640163161608745"><ele>583.6</ele><time>2026-04-12T07:33:05.999Z</time></trkpt><trkpt lat="40.96556499583451" lon="14.640250825072405"><ele>584.0</ele><time>2026-04-12T07:33:07.999Z</time></trkpt><trkpt lat="40.96550722761925" lon="14.640288203458361"><ele>585.5714285714286</ele><time>2026-04-12T07:33:08.999Z</time></trkpt><trkpt lat="40.965445374405746" lon="14.640323184494251"><ele>587.1428571428571</ele><time>2026-04-12T07:33:09.999Z</time></trkpt><trkpt lat="40.965379044164834" lon="14.640352400240989"><ele>588.7142857142858</ele><time>2026-04-12T07:33:10.999Z</time></trkpt><trkpt lat="40.96530990220825" lon="14.640393241135548"><ele>590.2857142857142</ele><time>2026-04-12T07:33:11.999Z</time></trkpt><trkpt lat="40.96525174564384" lon="14.640437558814874"><ele>591.8571428571429</ele><time>2026-04-12T07:33:12.999Z</time></trkpt><trkpt lat="40.9651974671272" lon="14.640493450338397"><ele>593.4285714285714</ele><time>2026-04-12T07:33:13.999Z</time></trkpt><trkpt lat="40.96513526465806" lon="14.640562979088326"><ele>595.0</ele><time>2026-04-12T07:33:14.999Z</time></trkpt><trkpt lat="40.9650773682242" lon="14.640626650625967"><ele>594.3333333333334</ele><time>2026-04-12T07:33:15.999Z</time></trkpt><trkpt lat="40.96502606250675" lon="14.640696048698704"><ele>593.6666666666667</ele><time>2026-04-12T07:33:16.999Z</time></trkpt><trkpt lat="40.96497809568578" lon="14.64077261617127"><ele>593.0</ele><time>2026-04-12T07:33:17.999Z</time></trkpt><trkpt lat="40.964933428024665" lon="14.640841292351192"><ele>592.3333333333334</ele><time>2026-04-12T07:33:18.999Z</time></trkpt><trkpt lat="40.96487827870701" lon="14.640923070048181"><ele>591.6666666666666</ele><time>2026-04-12T07:33:19.999Z</time></trkpt><trkpt lat="40.96483284975382" lon="14.641001327722972"><ele>591.0</ele><time>2026-04-12T07:33:20.999Z</time></trkpt><trkpt lat="40.96476716411964" lon="14.64114578689352"><ele>593.6666666666666</ele><time>2026-04-12T07:33:22.999Z</time></trkpt><trkpt lat="40.964688386650465" lon="14.641254236158511"><ele>596.3333333333334</ele><time>2026-04-12T07:33:24.999Z</time></trkpt><trkpt lat="40.964585948236106" lon="14.64128905297824"><ele>599.0</ele><time>2026-04-12T07:33:26.999Z</time></trkpt><trkpt lat="40.964537794015726" lon="14.64134570607196"><ele>601.6666666666667</ele><time>2026-04-12T07:33:27.999Z</time></trkpt><trkpt lat="40.96448342138207" lon="14.641396319747537"><ele>604.3333333333334</ele><time>2026-04-12T07:33:28.999Z</time></trkpt><trkpt lat="40.96444158510626" lon="14.641458744959381"><ele>607.0</ele><time>2026-04-12T07:33:29.999Z</time></trkpt><trkpt lat="40.964400207898045" lon="14.641607207123517"><ele>607.0</ele><time>2026-04-12T07:33:31.999Z</time></trkpt><trkpt lat="40.96441407177413" lon="14.6417460275147"><ele>607.0</ele><time>2026-04-12T07:33:33.999Z</time></trkpt><trkpt lat="40.96445042337992" lon="14.641883795099233"><ele>607.0</ele><time>2026-04-12T07:33:35.999Z</time></trkpt><trkpt lat="40.964479852082476" lon="14.64197085019667"><ele>607.0</ele><time>2026-04-12T07:33:37.999Z</time></trkpt><trkpt lat="40.964448351585865" lon="14.642086974916996"><ele>607.0</ele><time>2026-04-12T07:33:40.999Z</time></trkpt><trkpt lat="40.96432796044199" lon="14.642045335853044"><ele>607.3333333333334</ele><time>2026-04-12T07:33:43.999Z</time></trkpt><trkpt lat="40.964258701020505" lon="14.642033146712432"><ele>607.6666666666667</ele><time>2026-04-12T07:33:44.999Z</time></trkpt><trkpt lat="40.96418435990451" lon="14.6420693982267"><ele>608.0</ele><time>2026-04-12T07:33:46.999Z</time></trkpt><trkpt lat="40.964139426342705" lon="14.642179696830803"><ele>608.3333333333334</ele><time>2026-04-12T07:33:49.999Z</time></trkpt><trkpt lat="40.96410609609452" lon="14.642289733074017"><ele>608.6666666666666</ele><time>2026-04-12T07:33:51.999Z</time></trkpt><trkpt lat="40.96406895686727" lon="14.642374063693717"><ele>609.0</ele><time>2026-04-12T07:33:53.999Z</time></trkpt><trkpt lat="40.96402189119425" lon="14.64245138839442"><ele>609.0</ele><time>2026-04-12T07:33:56.999Z</time></trkpt><trkpt lat="40.96394906748293" lon="14.642569880960654"><ele>609.0</ele><time>2026-04-12T07:33:58.999Z</time></trkpt><trkpt lat="40.963891604947534" lon="14.642665239808371"><ele>609.0</ele><time>2026-04-12T07:34:01.999Z</time></trkpt><trkpt lat="40.96377934713868" lon="14.642880234680867"><ele>609.0</ele><time>2026-04-12T07:34:05Z</time></trkpt><trkpt lat="40.96371050228205" lon="14.642995398104437"><ele>612.4</ele><time>2026-04-12T07:34:07Z</time></trkpt><trkpt lat="40.963643947213" lon="14.64311291192924"><ele>615.8</ele><time>2026-04-12T07:34:09Z</time></trkpt><trkpt lat="40.96359108058472" lon="14.643196904798382"><ele>619.2</ele><time>2026-04-12T07:34:11Z</time></trkpt><trkpt lat="40.963557306613204" lon="14.64328819642359"><ele>622.6</ele><time>2026-04-12T07:34:13Z</time></trkpt><trkpt lat="40.96353524156207" lon="14.643428643625713"><ele>626.0</ele><time>2026-04-12T07:34:15Z</time></trkpt><trkpt lat="40.96351655465173" lon="14.643552671859924"><ele>628.6666666666666</ele><time>2026-04-12T07:34:17Z</time></trkpt><trkpt lat="40.963505843135984" lon="14.643689884274888"><ele>631.3333333333333</ele><time>2026-04-12T07:34:19Z</time></trkpt><trkpt lat="40.96346758868651" lon="14.643804665899445"><ele>634.0</ele><time>2026-04-12T07:34:21Z</time></trkpt><trkpt lat="40.96344771798861" lon="14.643887048279996"><ele>636.6666666666666</ele><time>2026-04-12T07:34:23Z</time></trkpt><trkpt lat="40.963428517970996" lon="14.643988762530611"><ele>639.3333333333334</ele><time>2026-04-12T07:34:27Z</time></trkpt><trkpt lat="40.96339838533361" lon="14.644117291849895"><ele>642.0</ele><time>2026-04-12T07:34:33Z</time></trkpt><trkpt lat="40.96336608453818" lon="14.644236215605758"><ele>640.2</ele><time>2026-04-12T07:34:35Z</time></trkpt><trkpt lat="40.963340327251025" lon="14.644369563570308"><ele>638.4000000000001</ele><time>2026-04-12T07:34:36Z</time></trkpt><trkpt lat="40.963298956330654" lon="14.644509339064234"><ele>636.5999999999999</ele><time>2026-04-12T07:34:37Z</time></trkpt><trkpt lat="40.963245320082834" lon="14.64461957620378"><ele>634.8</ele><time>2026-04-12T07:34:38Z</time></trkpt><trkpt lat="40.963197650265684" lon="14.64471727542238"><ele>633.0</ele><time>2026-04-12T07:34:39Z</time></trkpt><trkpt lat="40.96316489348964" lon="14.644834255969839"><ele>633.0</ele><time>2026-04-12T07:34:40Z</time></trkpt><trkpt lat="40.96312513331925" lon="14.644931181241391"><ele>633.0</ele><time>2026-04-12T07:34:41Z</time></trkpt><trkpt lat="40.96308666448296" lon="14.645023072331963"><ele>633.0</ele><time>2026-04-12T07:34:42Z</time></trkpt><trkpt lat="40.963068075199416" lon="14.645128488792853"><ele>633.0</ele><time>2026-04-12T07:34:43Z</time></trkpt><trkpt lat="40.9630730408759" lon="14.645217127233002"><ele>633.0</ele><time>2026-04-12T07:34:44Z</time></trkpt><trkpt lat="40.963135090340614" lon="14.64536370874935"><ele>633.0</ele><time>2026-04-12T07:34:46Z</time></trkpt><trkpt lat="40.96321048878971" lon="14.645440955043009"><ele>633.8333333333334</ele><time>2026-04-12T07:34:47Z</time></trkpt><trkpt lat="40.963279789835504" lon="14.645524898476088"><ele>634.6666666666666</ele><time>2026-04-12T07:34:48Z</time></trkpt><trkpt lat="40.96333422478804" lon="14.645591904593495"><ele>635.5</ele><time>2026-04-12T07:34:49Z</time></trkpt><trkpt lat="40.963376028911576" lon="14.645664617719545"><ele>636.3333333333333</ele><time>2026-04-12T07:34:50Z</time></trkpt><trkpt lat="40.963401674714795" lon="14.645770376784757"><ele>637.1666666666666</ele><time>2026-04-12T07:34:51Z</time></trkpt><trkpt lat="40.96342522710686" lon="14.645875764045126"><ele>638.0</ele><time>2026-04-12T07:34:52Z</time></trkpt><trkpt lat="40.96342089536549" lon="14.6459802796181"><ele>638.0</ele><time>2026-04-12T07:34:54Z</time></trkpt><trkpt lat="40.963314862176524" lon="14.645990927831814"><ele>638.0</ele><time>2026-04-12T07:34:56Z</time></trkpt><trkpt lat="40.96323881102625" lon="14.64597398428474"><ele>638.0</ele><time>2026-04-12T07:34:57Z</time></trkpt><trkpt lat="40.963129496811774" lon="14.645961102228247"><ele>638.0</ele><time>2026-04-12T07:34:59Z</time></trkpt><trkpt lat="40.963001493717094" lon="14.64604064064744"><ele>638.0</ele><time>2026-04-12T07:35:00.999Z</time></trkpt><trkpt lat="40.96292365484918" lon="14.646104850492653"><ele>639.2</ele><time>2026-04-12T07:35:01.999Z</time></trkpt><trkpt lat="40.96286272094599" lon="14.646155151994302"><ele>640.4</ele><time>2026-04-12T07:35:02.999Z</time></trkpt><trkpt lat="40.96281746827406" lon="14.646219894463474"><ele>641.6</ele><time>2026-04-12T07:35:03.999Z</time></trkpt><trkpt lat="40.96272641316201" lon="14.64636296400207"><ele>642.8000000000001</ele><time>2026-04-12T07:35:05.999Z</time></trkpt><trkpt lat="40.96266947096249" lon="14.64645933086967"><ele>644.0</ele><time>2026-04-12T07:35:06.999Z</time></trkpt><trkpt lat="40.962585219160786" lon="14.646582752331424"><ele>643.0</ele><time>2026-04-12T07:35:07.999Z</time></trkpt><trkpt lat="40.9625272298318" lon="14.646687068007653"><ele>642.0</ele><time>2026-04-12T07:35:08.999Z</time></trkpt><trkpt lat="40.962482274745604" lon="14.646774635847844"><ele>641.0</ele><time>2026-04-12T07:35:09.999Z</time></trkpt><trkpt lat="40.96242337852345" lon="14.646832037200952"><ele>640.0</ele><time>2026-04-12T07:35:11.999Z</time></trkpt><trkpt lat="40.96235948983867" lon="14.646839703250594"><ele>639.0</ele><time>2026-04-12T07:35:12.999Z</time></trkpt><trkpt lat="40.96228167688931" lon="14.646850526677923"><ele>638.0</ele><time>2026-04-12T07:35:13.999Z</time></trkpt><trkpt lat="40.96221675087314" lon="14.646845466481658"><ele>638.0</ele><time>2026-04-12T07:35:14.999Z</time></trkpt><trkpt lat="40.96215786534895" lon="14.64680570429579"><ele>638.0</ele><time>2026-04-12T07:35:16.999Z</time></trkpt><trkpt lat="40.962147721027264" lon="14.646703621890218"><ele>638.0</ele><time>2026-04-12T07:35:19.999Z</time></trkpt><trkpt lat="40.96215398933465" lon="14.646579923965614"><ele>638.0</ele><time>2026-04-12T07:35:23.999Z</time></trkpt><trkpt lat="40.96212247868559" lon="14.646473221984934"><ele>638.0</ele><time>2026-04-12T07:35:25.999Z</time></trkpt><trkpt lat="40.96208884428228" lon="14.646390863417036"><ele>638.0</ele><time>2026-04-12T07:35:27.999Z</time></trkpt><trkpt lat="40.96204631003237" lon="14.646300388468097"><ele>638.0</ele><time>2026-04-12T07:35:29.999Z</time></trkpt><trkpt lat="40.962021820209706" lon="14.646212564717214"><ele>638.0</ele><time>2026-04-12T07:35:31.999Z</time></trkpt><trkpt lat="40.96199295122403" lon="14.646118338509865"><ele>638.0</ele><time>2026-04-12T07:35:33.999Z</time></trkpt><trkpt lat="40.96196653109475" lon="14.645992156644793"><ele>638.0</ele><time>2026-04-12T07:35:35.999Z</time></trkpt><trkpt lat="40.96193327211344" lon="14.645872676110818"><ele>638.0</ele><time>2026-04-12T07:35:38.999Z</time></trkpt><trkpt lat="40.96191465269822" lon="14.645746291134557"><ele>638.0</ele><time>2026-04-12T07:35:40.999Z</time></trkpt><trkpt lat="40.96189902676722" lon="14.645630940910797"><ele>637.0</ele><time>2026-04-12T07:35:43.999Z</time></trkpt><trkpt lat="40.96190707457289" lon="14.645523940268617"><ele>636.0</ele><time>2026-04-12T07:35:45.999Z</time></trkpt><trkpt lat="40.96191873559663" lon="14.645431372101687"><ele>635.0</ele><time>2026-04-12T07:35:47.999Z</time></trkpt><trkpt lat="40.9619196490549" lon="14.645341771711632"><ele>634.0</ele><time>2026-04-12T07:35:49.999Z</time></trkpt><trkpt lat="40.96192257508946" lon="14.6452279805578"><ele>633.0</ele><time>2026-04-12T07:35:51.999Z</time></trkpt><trkpt lat="40.961926546939516" lon="14.645079763255724"><ele>632.0</ele><time>2026-04-12T07:35:53.999Z</time></trkpt><trkpt lat="40.96191397835065" lon="14.644961031038159"><ele>632.1666666666666</ele><time>2026-04-12T07:35:56.999Z</time></trkpt><trkpt lat="40.9619060485452" lon="14.644878247504092"><ele>632.3333333333333</ele><time>2026-04-12T07:35:58.999Z</time></trkpt><trkpt lat="40.961909039611456" lon="14.644789243836094"><ele>632.5</ele><time>2026-04-12T07:36:05.999Z</time></trkpt><trkpt lat="40.961903262722906" lon="14.644685115016316"><ele>632.6666666666666</ele><time>2026-04-12T07:36:07.999Z</time></trkpt><trkpt lat="40.961871768024835" lon="14.64455242805328"><ele>632.8333333333334</ele><time>2026-04-12T07:36:10Z</time></trkpt><trkpt lat="40.96184425315622" lon="14.644477105530372"><ele>633.0</ele><time>2026-04-12T07:36:11Z</time></trkpt><trkpt lat="40.96180993838488" lon="14.64438778127612"><ele>633.0</ele><time>2026-04-12T07:36:12Z</time></trkpt><trkpt lat="40.961756183374035" lon="14.644305875025942"><ele>633.0</ele><time>2026-04-12T07:36:13Z</time></trkpt><trkpt lat="40.961697030386595" lon="14.644213645420644"><ele>633.0</ele><time>2026-04-12T07:36:14Z</time></trkpt><trkpt lat="40.96162244209649" lon="14.644112409852397"><ele>633.0</ele><time>2026-04-12T07:36:15Z</time></trkpt><trkpt lat="40.961550105990966" lon="14.644012637842849"><ele>633.0</ele><time>2026-04-12T07:36:16Z</time></trkpt><trkpt lat="40.961484860757835" lon="14.64394298698075"><ele>634.0</ele><time>2026-04-12T07:36:17Z</time></trkpt><trkpt lat="40.961425375289615" lon="14.643879775031058"><ele>635.0</ele><time>2026-04-12T07:36:18Z</time></trkpt><trkpt lat="40.96131824165881" lon="14.643819428910412"><ele>636.0</ele><time>2026-04-12T07:36:20Z</time></trkpt><trkpt lat="40.961247772746106" lon="14.643821004161664"><ele>637.0</ele><time>2026-04-12T07:36:21Z</time></trkpt><trkpt lat="40.96116373586568" lon="14.64385434568928"><ele>638.0</ele><time>2026-04-12T07:36:22Z</time></trkpt><trkpt lat="40.961076496301295" lon="14.643904428482651"><ele>639.0</ele><time>2026-04-12T07:36:23Z</time></trkpt><trkpt lat="40.960981199899464" lon="14.643931315552427"><ele>639.0</ele><time>2026-04-12T07:36:24Z</time></trkpt><trkpt lat="40.9608752150614" lon="14.643942184525699"><ele>639.0</ele><time>2026-04-12T07:36:25Z</time></trkpt><trkpt lat="40.96076230462708" lon="14.643933124630143"><ele>639.0</ele><time>2026-04-12T07:36:26Z</time></trkpt><trkpt lat="40.960650212233936" lon="14.643887869161516"><ele>639.0</ele><time>2026-04-12T07:36:27Z</time></trkpt><trkpt lat="40.96052637018441" lon="14.643802010988589"><ele>639.75</ele><time>2026-04-12T07:36:28Z</time></trkpt><trkpt lat="40.9604052490439" lon="14.643706747295651"><ele>640.5</ele><time>2026-04-12T07:36:29Z</time></trkpt><trkpt lat="40.960298244128175" lon="14.643640333605546"><ele>641.25</ele><time>2026-04-12T07:36:30Z</time></trkpt><trkpt lat="40.96018945908076" lon="14.643581298603436"><ele>642.0</ele><time>2026-04-12T07:36:31Z</time></trkpt><trkpt lat="40.96007148472398" lon="14.643523899475804"><ele>637.75</ele><time>2026-04-12T07:36:32Z</time></trkpt><trkpt lat="40.95994691299522" lon="14.643491558379477"><ele>633.5</ele><time>2026-04-12T07:36:33Z</time></trkpt><trkpt lat="40.959825690782694" lon="14.643488739508962"><ele>629.25</ele><time>2026-04-12T07:36:34Z</time></trkpt><trkpt lat="40.959703976476646" lon="14.643495659714073"><ele>625.0</ele><time>2026-04-12T07:36:35Z</time></trkpt><trkpt lat="40.959583648364664" lon="14.643524766181391"><ele>625.0</ele><time>2026-04-12T07:36:36Z</time></trkpt><trkpt lat="40.9594632872025" lon="14.643591317648127"><ele>625.0</ele><time>2026-04-12T07:36:37Z</time></trkpt><trkpt lat="40.95935354814988" lon="14.643669814573501"><ele>625.0</ele><time>2026-04-12T07:36:38Z</time></trkpt><trkpt lat="40.95924872317526" lon="14.643739214574385"><ele>625.0</ele><time>2026-04-12T07:36:39Z</time></trkpt><trkpt lat="40.95915129681815" lon="14.6438145576134"><ele>626.5</ele><time>2026-04-12T07:36:40Z</time></trkpt><trkpt lat="40.95906382841914" lon="14.643912509130315"><ele>628.0</ele><time>2026-04-12T07:36:41Z</time></trkpt><trkpt lat="40.958991383841926" lon="14.644033092297756"><ele>629.5</ele><time>2026-04-12T07:36:42Z</time></trkpt><trkpt lat="40.9589377832202" lon="14.644171461422093"><ele>631.0</ele><time>2026-04-12T07:36:43Z</time></trkpt><trkpt lat="40.9588911676187" lon="14.644318429051953"><ele>633.0</ele><time>2026-04-12T07:36:44Z</time></trkpt><trkpt lat="40.95886100076605" lon="14.64447440257066"><ele>635.0</ele><time>2026-04-12T07:36:45Z</time></trkpt><trkpt lat="40.95884083118062" lon="14.64463353908553"><ele>637.0</ele><time>2026-04-12T07:36:46Z</time></trkpt><trkpt lat="40.95882924451472" lon="14.644800744979971"><ele>639.0</ele><time>2026-04-12T07:36:47Z</time></trkpt><trkpt lat="40.95882509393328" lon="14.64498195805808"><ele>639.0</ele><time>2026-04-12T07:36:48Z</time></trkpt><trkpt lat="40.95882712402756" lon="14.64516526436497"><ele>639.0</ele><time>2026-04-12T07:36:49Z</time></trkpt><trkpt lat="40.958834508848796" lon="14.645341408899728"><ele>639.0</ele><time>2026-04-12T07:36:50Z</time></trkpt><trkpt lat="40.958845610908156" lon="14.64551294478246"><ele>639.0</ele><time>2026-04-12T07:36:51Z</time></trkpt><trkpt lat="40.95885625763786" lon="14.645672733273004"><ele>637.5</ele><time>2026-04-12T07:36:52Z</time></trkpt><trkpt lat="40.958890251224155" lon="14.645845085271903"><ele>636.0</ele><time>2026-04-12T07:36:53Z</time></trkpt><trkpt lat="40.95893972498959" lon="14.646027314847617"><ele>634.5</ele><time>2026-04-12T07:36:54Z</time></trkpt><trkpt lat="40.95899678865749" lon="14.64620857876505"><ele>633.0</ele><time>2026-04-12T07:36:55Z</time></trkpt><trkpt lat="40.95903333816763" lon="14.646394699390328"><ele>632.0</ele><time>2026-04-12T07:36:56Z</time></trkpt><trkpt lat="40.959048596783425" lon="14.646579187869985"><ele>631.0</ele><time>2026-04-12T07:36:57Z</time></trkpt><trkpt lat="40.95905050670523" lon="14.646757484825903"><ele>630.0</ele><time>2026-04-12T07:36:58Z</time></trkpt><trkpt lat="40.95904523606183" lon="14.646937516636426"><ele>629.0</ele><time>2026-04-12T07:36:59Z</time></trkpt><trkpt lat="40.95904015510635" lon="14.647114514012777"><ele>629.0</ele><time>2026-04-12T07:37:00Z</time></trkpt><trkpt lat="40.95903414534965" lon="14.647290155542674"><ele>629.0</ele><time>2026-04-12T07:37:01Z</time></trkpt><trkpt lat="40.95902416116569" lon="14.647476943772084"><ele>629.0</ele><time>2026-04-12T07:37:02Z</time></trkpt><trkpt lat="40.9590115138972" lon="14.647666786479206"><ele>629.0</ele><time>2026-04-12T07:37:03Z</time></trkpt><trkpt lat="40.958992793875375" lon="14.647856081967038"><ele>629.0</ele><time>2026-04-12T07:37:04Z</time></trkpt><trkpt lat="40.95897484363805" lon="14.648054636770887"><ele>629.0</ele><time>2026-04-12T07:37:05Z</time></trkpt><trkpt lat="40.95895858948554" lon="14.648253985835618"><ele>629.0</ele><time>2026-04-12T07:37:06Z</time></trkpt><trkpt lat="40.958939817872725" lon="14.648449259387919"><ele>628.25</ele><time>2026-04-12T07:37:07Z</time></trkpt><trkpt lat="40.958920878402864" lon="14.648652895340772"><ele>627.5</ele><time>2026-04-12T07:37:08Z</time></trkpt><trkpt lat="40.9589189725827" lon="14.648849102932154"><ele>626.75</ele><time>2026-04-12T07:37:09Z</time></trkpt><trkpt lat="40.95891556116414" lon="14.649041579495757"><ele>626.0</ele><time>2026-04-12T07:37:10Z</time></trkpt><trkpt lat="40.958916317858694" lon="14.649224375952135"><ele>626.0</ele><time>2026-04-12T07:37:11Z</time></trkpt><trkpt lat="40.95892056781673" lon="14.649404382922244"><ele>626.0</ele><time>2026-04-12T07:37:12Z</time></trkpt><trkpt lat="40.95890562719751" lon="14.649579746267365"><ele>626.0</ele><time>2026-04-12T07:37:13Z</time></trkpt><trkpt lat="40.95888358715575" lon="14.649753363466612"><ele>626.0</ele><time>2026-04-12T07:37:14Z</time></trkpt><trkpt lat="40.95885123489835" lon="14.649927343153466"><ele>626.5</ele><time>2026-04-12T07:37:15Z</time></trkpt><trkpt lat="40.95881493638109" lon="14.650116552680215"><ele>627.0</ele><time>2026-04-12T07:37:16Z</time></trkpt><trkpt lat="40.958775596271295" lon="14.65031202891813"><ele>627.5</ele><time>2026-04-12T07:37:17Z</time></trkpt><trkpt lat="40.95873952636115" lon="14.650485224059418"><ele>628.0</ele><time>2026-04-12T07:37:18Z</time></trkpt><trkpt lat="40.95870300506205" lon="14.65064762092624"><ele>627.6</ele><time>2026-04-12T07:37:19Z</time></trkpt><trkpt lat="40.95869217811477" lon="14.650817468822005"><ele>627.1999999999999</ele><time>2026-04-12T07:37:20Z</time></trkpt><trkpt lat="40.95870435081442" lon="14.650968325713137"><ele>626.8</ele><time>2026-04-12T07:37:21Z</time></trkpt><trkpt lat="40.95871002348551" lon="14.651066488698927"><ele>626.4</ele><time>2026-04-12T07:37:22Z</time></trkpt><trkpt lat="40.95870162856796" lon="14.6512170930267"><ele>626.0</ele><time>2026-04-12T07:37:24Z</time></trkpt><trkpt lat="40.95871261027008" lon="14.651308760723852"><ele>626.0</ele><time>2026-04-12T07:37:25Z</time></trkpt><trkpt lat="40.95874252542976" lon="14.65142603011264"><ele>626.0</ele><time>2026-04-12T07:37:26Z</time></trkpt><trkpt lat="40.95877116888985" lon="14.65155980660357"><ele>626.0</ele><time>2026-04-12T07:37:27Z</time></trkpt><trkpt lat="40.958809143100154" lon="14.65168655083074"><ele>626.0</ele><time>2026-04-12T07:37:28Z</time></trkpt><trkpt lat="40.958854545714445" lon="14.651829411880241"><ele>626.0</ele><time>2026-04-12T07:37:29Z</time></trkpt><trkpt lat="40.9589038713302" lon="14.651987744086336"><ele>623.0</ele><time>2026-04-12T07:37:30Z</time></trkpt><trkpt lat="40.95895590687087" lon="14.652128744765719"><ele>620.0</ele><time>2026-04-12T07:37:31Z</time></trkpt><trkpt lat="40.95900736474379" lon="14.652261015529383"><ele>617.0</ele><time>2026-04-12T07:37:32Z</time></trkpt><trkpt lat="40.95905627720642" lon="14.652390116707272"><ele>614.0</ele><time>2026-04-12T07:37:33Z</time></trkpt><trkpt lat="40.95907927390473" lon="14.65251845021728"><ele>611.0</ele><time>2026-04-12T07:37:34Z</time></trkpt><trkpt lat="40.95911711740574" lon="14.652659989911015"><ele>609.6</ele><time>2026-04-12T07:37:35Z</time></trkpt><trkpt lat="40.95914055825936" lon="14.652807250281926"><ele>608.2</ele><time>2026-04-12T07:37:36Z</time></trkpt><trkpt lat="40.95917578039972" lon="14.652938409649746"><ele>606.8</ele><time>2026-04-12T07:37:37Z</time></trkpt><trkpt lat="40.95922427870638" lon="14.65307629550072"><ele>605.4</ele><time>2026-04-12T07:37:38Z</time></trkpt><trkpt lat="40.9592696252648" lon="14.653196371386734"><ele>604.0</ele><time>2026-04-12T07:37:39Z</time></trkpt><trkpt lat="40.95931160359921" lon="14.65330276314164"><ele>608.1666666666667</ele><time>2026-04-12T07:37:40Z</time></trkpt><trkpt lat="40.95934198057456" lon="14.653378450154552"><ele>612.3333333333334</ele><time>2026-04-12T07:37:41Z</time></trkpt><trkpt lat="40.95929390334681" lon="14.653526742281882"><ele>616.5</ele><time>2026-04-12T07:37:43Z</time></trkpt><trkpt lat="40.959250619636215" lon="14.653602795172587"><ele>620.6666666666666</ele><time>2026-04-12T07:37:44Z</time></trkpt><trkpt lat="40.95919125486705" lon="14.653672604286776"><ele>624.8333333333333</ele><time>2026-04-12T07:37:45Z</time></trkpt><trkpt lat="40.9591265283124" lon="14.653679147893504"><ele>629.0</ele><time>2026-04-12T07:37:46Z</time></trkpt><trkpt lat="40.95905153850312" lon="14.653696160405438"><ele>629.0</ele><time>2026-04-12T07:37:47Z</time></trkpt><trkpt lat="40.95895745955815" lon="14.653714384535743"><ele>629.0</ele><time>2026-04-12T07:37:48Z</time></trkpt><trkpt lat="40.95887423299826" lon="14.65377625918257"><ele>629.0</ele><time>2026-04-12T07:37:48.999Z</time></trkpt><trkpt lat="40.95879550503108" lon="14.653821636918522"><ele>629.0</ele><time>2026-04-12T07:37:49.999Z</time></trkpt><trkpt lat="40.95871116929394" lon="14.65386528863235"><ele>629.0</ele><time>2026-04-12T07:37:50.999Z</time></trkpt><trkpt lat="40.95862746867493" lon="14.65389778987276"><ele>629.0</ele><time>2026-04-12T07:37:51.999Z</time></trkpt><trkpt lat="40.95853949599842" lon="14.65390861949892"><ele>629.0</ele><time>2026-04-12T07:37:52.999Z</time></trkpt><trkpt lat="40.95846428365065" lon="14.653909926948781"><ele>629.0</ele><time>2026-04-12T07:37:53.999Z</time></trkpt><trkpt lat="40.95838981359911" lon="14.65388366902355"><ele>629.0</ele><time>2026-04-12T07:37:54.999Z</time></trkpt><trkpt lat="40.958299666183514" lon="14.653860030356583"><ele>629.0</ele><time>2026-04-12T07:37:55.999Z</time></trkpt><trkpt lat="40.958204459312086" lon="14.65381893849277"><ele>629.0</ele><time>2026-04-12T07:37:56.999Z</time></trkpt><trkpt lat="40.95811988452864" lon="14.653761107463257"><ele>627.0</ele><time>2026-04-12T07:37:57.999Z</time></trkpt><trkpt lat="40.95802970033148" lon="14.653700526062815"><ele>625.0</ele><time>2026-04-12T07:37:58.999Z</time></trkpt><trkpt lat="40.95793779969873" lon="14.653647306790205"><ele>623.0</ele><time>2026-04-12T07:37:59.999Z</time></trkpt><trkpt lat="40.95784050913539" lon="14.653604178658046"><ele>621.0</ele><time>2026-04-12T07:38:00.999Z</time></trkpt><trkpt lat="40.95774923386966" lon="14.653575911882847"><ele>619.0</ele><time>2026-04-12T07:38:01.999Z</time></trkpt><trkpt lat="40.95765940638126" lon="14.653578816144558"><ele>613.3333333333334</ele><time>2026-04-12T07:38:02.999Z</time></trkpt><trkpt lat="40.95759274650125" lon="14.653617451661033"><ele>607.6666666666667</ele><time>2026-04-12T07:38:03.999Z</time></trkpt><trkpt lat="40.95751735680547" lon="14.653693321275146"><ele>602.0</ele><time>2026-04-12T07:38:05.999Z</time></trkpt><trkpt lat="40.957488450180584" lon="14.653835153793043"><ele>596.3333333333334</ele><time>2026-04-12T07:38:07.999Z</time></trkpt><trkpt lat="40.95748661255661" lon="14.653935707076899"><ele>590.6666666666666</ele><time>2026-04-12T07:38:08.999Z</time></trkpt><trkpt lat="40.95748837090954" lon="14.654049055688281"><ele>585.0</ele><time>2026-04-12T07:38:09.999Z</time></trkpt><trkpt lat="40.957491077009024" lon="14.654181897648444"><ele>585.0</ele><time>2026-04-12T07:38:10.999Z</time></trkpt><trkpt lat="40.957490315611714" lon="14.654327530923043"><ele>585.0</ele><time>2026-04-12T07:38:11.999Z</time></trkpt><trkpt lat="40.957495141511394" lon="14.654462517986515"><ele>585.0</ele><time>2026-04-12T07:38:12.999Z</time></trkpt><trkpt lat="40.957511830587414" lon="14.654600281570108"><ele>585.0</ele><time>2026-04-12T07:38:13.999Z</time></trkpt><trkpt lat="40.957540725868455" lon="14.654735439002911"><ele>585.0</ele><time>2026-04-12T07:38:15Z</time></trkpt><trkpt lat="40.95757068580272" lon="14.654872280974727"><ele>592.1666666666666</ele><time>2026-04-12T07:38:16Z</time></trkpt><trkpt lat="40.957596332739726" lon="14.655007235364403"><ele>599.3333333333334</ele><time>2026-04-12T07:38:17Z</time></trkpt><trkpt lat="40.9576198508572" lon="14.655131275105813"><ele>606.5</ele><time>2026-04-12T07:38:18Z</time></trkpt><trkpt lat="40.9576346064245" lon="14.655234339237776"><ele>613.6666666666667</ele><time>2026-04-12T07:38:19Z</time></trkpt><trkpt lat="40.95768583963599" lon="14.655299579398518"><ele>620.8333333333334</ele><time>2026-04-12T07:38:20Z</time></trkpt><trkpt lat="40.957755551077476" lon="14.655357807165975"><ele>628.0</ele><time>2026-04-12T07:38:21Z</time></trkpt><trkpt lat="40.95781712582461" lon="14.65544412894007"><ele>628.0</ele><time>2026-04-12T07:38:22Z</time></trkpt><trkpt lat="40.95785164579606" lon="14.655532260186868"><ele>628.0</ele><time>2026-04-12T07:38:23Z</time></trkpt><trkpt lat="40.95784519462266" lon="14.655639134811121"><ele>628.0</ele><time>2026-04-12T07:38:24Z</time></trkpt><trkpt lat="40.957809848543924" lon="14.655765554190745"><ele>628.0</ele><time>2026-04-12T07:38:25Z</time></trkpt><trkpt lat="40.95778219932306" lon="14.655857784414987"><ele>628.0</ele><time>2026-04-12T07:38:26Z</time></trkpt><trkpt lat="40.95782489475591" lon="14.655939736094357"><ele>628.0</ele><time>2026-04-12T07:38:27Z</time></trkpt><trkpt lat="40.957832363276886" lon="14.65602836717755"><ele>630.5999999999999</ele><time>2026-04-12T07:38:28Z</time></trkpt><trkpt lat="40.95781963462691" lon="14.65612342224141"><ele>633.1999999999999</ele><time>2026-04-12T07:38:29Z</time></trkpt><trkpt lat="40.95772914213826" lon="14.656165142104188"><ele>635.8</ele><time>2026-04-12T07:38:30Z</time></trkpt><trkpt lat="40.95765951022084" lon="14.6562699340028"><ele>638.4</ele><time>2026-04-12T07:38:31Z</time></trkpt><trkpt lat="40.95757172019913" lon="14.656371695056851"><ele>641.0</ele><time>2026-04-12T07:38:32Z</time></trkpt><trkpt lat="40.95749681000791" lon="14.656466661659744"><ele>634.0</ele><time>2026-04-12T07:38:33Z</time></trkpt><trkpt lat="40.957444610919474" lon="14.656538771647957"><ele>627.0</ele><time>2026-04-12T07:38:34Z</time></trkpt><trkpt lat="40.95741376931054" lon="14.656631592132882"><ele>620.0</ele><time>2026-04-12T07:38:35Z</time></trkpt><trkpt lat="40.957376254159215" lon="14.656736250615158"><ele>613.0</ele><time>2026-04-12T07:38:36Z</time></trkpt><trkpt lat="40.95734204404634" lon="14.656838580052396"><ele>606.0</ele><time>2026-04-12T07:38:37Z</time></trkpt><trkpt lat="40.957308191070474" lon="14.656963295914851"><ele>599.0</ele><time>2026-04-12T07:38:38Z</time></trkpt><trkpt lat="40.95726751611612" lon="14.657074258624517"><ele>599.0</ele><time>2026-04-12T07:38:39Z</time></trkpt><trkpt lat="40.9572335716587" lon="14.657148450103058"><ele>599.0</ele><time>2026-04-12T07:38:40Z</time></trkpt><trkpt lat="40.957225672376666" lon="14.657236027411324"><ele>599.0</ele><time>2026-04-12T07:38:41Z</time></trkpt><trkpt lat="40.9572395357391" lon="14.657354031633597"><ele>599.0</ele><time>2026-04-12T07:38:42Z</time></trkpt><trkpt lat="40.957276931264666" lon="14.657484358141744"><ele>599.0</ele><time>2026-04-12T07:38:43Z</time></trkpt><trkpt lat="40.957293635171176" lon="14.657627159724514"><ele>599.0</ele><time>2026-04-12T07:38:44Z</time></trkpt><trkpt lat="40.957322572175514" lon="14.657784700006307"><ele>602.3333333333333</ele><time>2026-04-12T07:38:45Z</time></trkpt><trkpt lat="40.957346439748626" lon="14.657917113038112"><ele>605.6666666666666</ele><time>2026-04-12T07:38:46Z</time></trkpt><trkpt lat="40.957363027378776" lon="14.65801083101646"><ele>609.0</ele><time>2026-04-12T07:38:47Z</time></trkpt><trkpt lat="40.95734674282167" lon="14.658118845699429"><ele>612.3333333333334</ele><time>2026-04-12T07:38:48Z</time></trkpt><trkpt lat="40.957277037246186" lon="14.658162542761469"><ele>615.6666666666667</ele><time>2026-04-12T07:38:50Z</time></trkpt><trkpt lat="40.9572009719539" lon="14.658130849198768"><ele>619.0</ele><time>2026-04-12T07:38:52Z</time></trkpt><trkpt lat="40.95713081659154" lon="14.658161662890047"><ele>619.0</ele><time>2026-04-12T07:38:53Z</time></trkpt><trkpt lat="40.95706263797622" lon="14.658189444554024"><ele>619.0</ele><time>2026-04-12T07:38:54Z</time></trkpt><trkpt lat="40.95696270556687" lon="14.658233229581924"><ele>619.0</ele><time>2026-04-12T07:38:55Z</time></trkpt><trkpt lat="40.95686831524262" lon="14.658304253585046"><ele>619.0</ele><time>2026-04-12T07:38:56Z</time></trkpt><trkpt lat="40.95676701950026" lon="14.65836057365969"><ele>619.0</ele><time>2026-04-12T07:38:57Z</time></trkpt><trkpt lat="40.956700477520386" lon="14.658404392614894"><ele>616.8333333333334</ele><time>2026-04-12T07:38:58Z</time></trkpt><trkpt lat="40.95664915940392" lon="14.65846477918962"><ele>614.6666666666667</ele><time>2026-04-12T07:38:59Z</time></trkpt><trkpt lat="40.95659561525904" lon="14.658536830489089"><ele>612.5</ele><time>2026-04-12T07:39:00Z</time></trkpt><trkpt lat="40.9565356953463" lon="14.658630561255892"><ele>610.3333333333334</ele><time>2026-04-12T07:39:01Z</time></trkpt><trkpt lat="40.95648303444272" lon="14.658736750003596"><ele>608.1666666666666</ele><time>2026-04-12T07:39:02Z</time></trkpt><trkpt lat="40.956428237228394" lon="14.658808475854187"><ele>606.0</ele><time>2026-04-12T07:39:03Z</time></trkpt><trkpt lat="40.95638689893553" lon="14.658883178061275"><ele>606.0</ele><time>2026-04-12T07:39:04Z</time></trkpt><trkpt lat="40.95634783546255" lon="14.658981260169632"><ele>606.0</ele><time>2026-04-12T07:39:05Z</time></trkpt><trkpt lat="40.95629329641008" lon="14.659087312275142"><ele>606.0</ele><time>2026-04-12T07:39:06Z</time></trkpt><trkpt lat="40.95622076258661" lon="14.659171561969737"><ele>606.0</ele><time>2026-04-12T07:39:07Z</time></trkpt><trkpt lat="40.956145611957005" lon="14.659254173464841"><ele>606.0</ele><time>2026-04-12T07:39:08Z</time></trkpt><trkpt lat="40.956081901816795" lon="14.659340505311254"><ele>606.0</ele><time>2026-04-12T07:39:09Z</time></trkpt><trkpt lat="40.95602498427812" lon="14.659440767061449"><ele>606.0</ele><time>2026-04-12T07:39:10Z</time></trkpt><trkpt lat="40.9559878458838" lon="14.659538123196384"><ele>606.0</ele><time>2026-04-12T07:39:11Z</time></trkpt><trkpt lat="40.9559673741299" lon="14.659640002088304"><ele>606.0</ele><time>2026-04-12T07:39:12Z</time></trkpt><trkpt lat="40.9559625535199" lon="14.659750089091737"><ele>606.0</ele><time>2026-04-12T07:39:13Z</time></trkpt><trkpt lat="40.95597796528898" lon="14.659853980922156"><ele>606.0</ele><time>2026-04-12T07:39:14Z</time></trkpt><trkpt lat="40.9559895793267" lon="14.659960114741589"><ele>602.8333333333334</ele><time>2026-04-12T07:39:15Z</time></trkpt><trkpt lat="40.955998136418714" lon="14.66006572968503"><ele>599.6666666666666</ele><time>2026-04-12T07:39:16Z</time></trkpt><trkpt lat="40.95601470201577" lon="14.660168060141793"><ele>596.5</ele><time>2026-04-12T07:39:17Z</time></trkpt><trkpt lat="40.955999348568014" lon="14.660278381652857"><ele>593.3333333333333</ele><time>2026-04-12T07:39:18Z</time></trkpt><trkpt lat="40.9559734102121" lon="14.660379329471024"><ele>590.1666666666666</ele><time>2026-04-12T07:39:19Z</time></trkpt><trkpt lat="40.95592185849867" lon="14.660454639443046"><ele>587.0</ele><time>2026-04-12T07:39:20Z</time></trkpt><trkpt lat="40.95582805728284" lon="14.660599361927689"><ele>587.0</ele><time>2026-04-12T07:39:22Z</time></trkpt><trkpt lat="40.95579778343661" lon="14.660695983343361"><ele>587.0</ele><time>2026-04-12T07:39:23Z</time></trkpt><trkpt lat="40.95574851629218" lon="14.660788604633126"><ele>587.0</ele><time>2026-04-12T07:39:24Z</time></trkpt><trkpt lat="40.95569843469174" lon="14.66087939620453"><ele>587.0</ele><time>2026-04-12T07:39:25Z</time></trkpt><trkpt lat="40.95562638122204" lon="14.660973637125785"><ele>587.0</ele><time>2026-04-12T07:39:27Z</time></trkpt><trkpt lat="40.955543998299696" lon="14.660989499325309"><ele>587.0</ele><time>2026-04-12T07:39:29Z</time></trkpt><trkpt lat="40.95543798905817" lon="14.660946282099005"><ele>587.0</ele><time>2026-04-12T07:39:31Z</time></trkpt><trkpt lat="40.95536957375299" lon="14.660916047920221"><ele>587.0</ele><time>2026-04-12T07:39:32Z</time></trkpt><trkpt lat="40.95529858697492" lon="14.66087870898275"><ele>587.0</ele><time>2026-04-12T07:39:33Z</time></trkpt><trkpt lat="40.95522294867224" lon="14.660838923299679"><ele>587.0</ele><time>2026-04-12T07:39:34Z</time></trkpt><trkpt lat="40.95513779643363" lon="14.660811714660078"><ele>587.0</ele><time>2026-04-12T07:39:35Z</time></trkpt><trkpt lat="40.955047139170595" lon="14.660802586101635"><ele>587.0</ele><time>2026-04-12T07:39:36Z</time></trkpt><trkpt lat="40.95496192664175" lon="14.660808567536094"><ele>587.1666666666666</ele><time>2026-04-12T07:39:37Z</time></trkpt><trkpt lat="40.9549003954698" lon="14.660846125576738"><ele>587.3333333333333</ele><time>2026-04-12T07:39:38Z</time></trkpt><trkpt lat="40.95480889977406" lon="14.660944104871714"><ele>587.5</ele><time>2026-04-12T07:39:40Z</time></trkpt><trkpt lat="40.95477218250862" lon="14.661018167946983"><ele>587.6666666666666</ele><time>2026-04-12T07:39:41Z</time></trkpt><trkpt lat="40.954719346500966" lon="14.66108874832529"><ele>587.8333333333334</ele><time>2026-04-12T07:39:42Z</time></trkpt><trkpt lat="40.95466359647583" lon="14.6611643547791"><ele>588.0</ele><time>2026-04-12T07:39:43Z</time></trkpt><trkpt lat="40.954587550879815" lon="14.661238598913542"><ele>588.0</ele><time>2026-04-12T07:39:44Z</time></trkpt><trkpt lat="40.954506390529474" lon="14.661323451356608"><ele>588.0</ele><time>2026-04-12T07:39:45Z</time></trkpt><trkpt lat="40.95443123238238" lon="14.661390009848082"><ele>588.0</ele><time>2026-04-12T07:39:46Z</time></trkpt><trkpt lat="40.954375999412306" lon="14.661469938319982"><ele>588.0</ele><time>2026-04-12T07:39:47Z</time></trkpt><trkpt lat="40.95434137779546" lon="14.661553589399196"><ele>588.0</ele><time>2026-04-12T07:39:48Z</time></trkpt><trkpt lat="40.954329461393115" lon="14.661636578230777"><ele>588.0</ele><time>2026-04-12T07:39:49Z</time></trkpt><trkpt lat="40.95432902363944" lon="14.661743583636957"><ele>588.0</ele><time>2026-04-12T07:39:50Z</time></trkpt><trkpt lat="40.95434652726733" lon="14.661862318179434"><ele>588.0</ele><time>2026-04-12T07:39:51Z</time></trkpt><trkpt lat="40.95437296807019" lon="14.662003039343666"><ele>588.0</ele><time>2026-04-12T07:39:52Z</time></trkpt><trkpt lat="40.95438401362687" lon="14.662135566560865"><ele>588.0</ele><time>2026-04-12T07:39:53Z</time></trkpt><trkpt lat="40.954406793214694" lon="14.662249747301901"><ele>588.0</ele><time>2026-04-12T07:39:54Z</time></trkpt><trkpt lat="40.95442702635709" lon="14.662371655695424"><ele>590.0</ele><time>2026-04-12T07:39:55Z</time></trkpt><trkpt lat="40.954454602759235" lon="14.66248900628259"><ele>592.0</ele><time>2026-04-12T07:39:56Z</time></trkpt><trkpt lat="40.95453065442903" lon="14.662587100450345"><ele>594.0</ele><time>2026-04-12T07:39:57Z</time></trkpt><trkpt lat="40.95455238757903" lon="14.662688801113793"><ele>596.0</ele><time>2026-04-12T07:39:58Z</time></trkpt><trkpt lat="40.954542717176345" lon="14.662799736360238"><ele>598.0</ele><time>2026-04-12T07:40:00Z</time></trkpt><trkpt lat="40.95441959920131" lon="14.662792501335128"><ele>600.1666666666667</ele><time>2026-04-12T07:40:02Z</time></trkpt><trkpt lat="40.95434525704474" lon="14.662802781571422"><ele>602.3333333333334</ele><time>2026-04-12T07:40:03Z</time></trkpt><trkpt lat="40.95424181402984" lon="14.662814016292106"><ele>604.5</ele><time>2026-04-12T07:40:04Z</time></trkpt><trkpt lat="40.95413787153414" lon="14.662827086086175"><ele>606.6666666666666</ele><time>2026-04-12T07:40:05Z</time></trkpt><trkpt lat="40.954066503155296" lon="14.662838472480662"><ele>608.8333333333333</ele><time>2026-04-12T07:40:06Z</time></trkpt><trkpt lat="40.95398157156108" lon="14.662853373321655"><ele>611.0</ele><time>2026-04-12T07:40:07Z</time></trkpt><trkpt lat="40.95387861810181" lon="14.66287321988194"><ele>604.0</ele><time>2026-04-12T07:40:08Z</time></trkpt><trkpt lat="40.95377367275228" lon="14.662913634247296"><ele>597.0</ele><time>2026-04-12T07:40:09Z</time></trkpt><trkpt lat="40.95368223451577" lon="14.662910164793733"><ele>590.0</ele><time>2026-04-12T07:40:10Z</time></trkpt><trkpt lat="40.953596410915026" lon="14.662935285586618"><ele>583.0</ele><time>2026-04-12T07:40:11Z</time></trkpt><trkpt lat="40.95351174770026" lon="14.663013212291961"><ele>576.0</ele><time>2026-04-12T07:40:13Z</time></trkpt><trkpt lat="40.953474606784134" lon="14.663082951740293"><ele>576.0</ele><time>2026-04-12T07:40:14Z</time></trkpt><trkpt lat="40.953420416522626" lon="14.663233165023774"><ele>576.0</ele><time>2026-04-12T07:40:15.999Z</time></trkpt><trkpt lat="40.95343370438433" lon="14.663349133146596"><ele>576.0</ele><time>2026-04-12T07:40:16.999Z</time></trkpt><trkpt lat="40.95346706611103" lon="14.663450052552541"><ele>576.0</ele><time>2026-04-12T07:40:17.999Z</time></trkpt><trkpt lat="40.95350654173806" lon="14.663530099283749"><ele>576.0</ele><time>2026-04-12T07:40:18.999Z</time></trkpt><trkpt lat="40.95353276743286" lon="14.66361452804541"><ele>576.0</ele><time>2026-04-12T07:40:19.999Z</time></trkpt><trkpt lat="40.95355601736192" lon="14.6637249442251"><ele>574.0</ele><time>2026-04-12T07:40:21Z</time></trkpt><trkpt lat="40.95357160288758" lon="14.663820760483503"><ele>572.0</ele><time>2026-04-12T07:40:22Z</time></trkpt><trkpt lat="40.95352579807663" lon="14.663942123039229"><ele>570.0</ele><time>2026-04-12T07:40:24Z</time></trkpt><trkpt lat="40.95342719689516" lon="14.663952247598349"><ele>568.0</ele><time>2026-04-12T07:40:26Z</time></trkpt><trkpt lat="40.953342766624765" lon="14.663969876122293"><ele>566.0</ele><time>2026-04-12T07:40:27Z</time></trkpt><trkpt lat="40.95324416106871" lon="14.663974447138242"><ele>566.0</ele><time>2026-04-12T07:40:28Z</time></trkpt><trkpt lat="40.95312988124413" lon="14.663976924144277"><ele>566.0</ele><time>2026-04-12T07:40:29Z</time></trkpt><trkpt lat="40.953042781342376" lon="14.663989961405179"><ele>566.0</ele><time>2026-04-12T07:40:30Z</time></trkpt><trkpt lat="40.952975783905245" lon="14.664004394052105"><ele>566.0</ele><time>2026-04-12T07:40:31Z</time></trkpt><trkpt lat="40.952906888334724" lon="14.664042483086925"><ele>566.0</ele><time>2026-04-12T07:40:32Z</time></trkpt><trkpt lat="40.95285252981824" lon="14.664104821551751"><ele>566.0</ele><time>2026-04-12T07:40:33Z</time></trkpt><trkpt lat="40.95284188778781" lon="14.66424298932717"><ele>566.0</ele><time>2026-04-12T07:40:34Z</time></trkpt><trkpt lat="40.95278937938523" lon="14.664329249386617"><ele>566.0</ele><time>2026-04-12T07:40:35Z</time></trkpt><trkpt lat="40.95273329037068" lon="14.664428205726834"><ele>566.0</ele><time>2026-04-12T07:40:36Z</time></trkpt><trkpt lat="40.95268240279872" lon="14.664507874938415"><ele>566.0</ele><time>2026-04-12T07:40:37Z</time></trkpt><trkpt lat="40.952629691229895" lon="14.664610485620337"><ele>566.0</ele><time>2026-04-12T07:40:38Z</time></trkpt><trkpt lat="40.952552554716384" lon="14.664679935992545"><ele>566.0</ele><time>2026-04-12T07:40:39Z</time></trkpt><trkpt lat="40.952482174332" lon="14.664767765184742"><ele>563.6</ele><time>2026-04-12T07:40:40Z</time></trkpt><trkpt lat="40.952404876758116" lon="14.664864512921675"><ele>561.2</ele><time>2026-04-12T07:40:41Z</time></trkpt><trkpt lat="40.952325943094685" lon="14.664953824914791"><ele>558.8</ele><time>2026-04-12T07:40:42Z</time></trkpt><trkpt lat="40.95226093596034" lon="14.665033044327217"><ele>556.4</ele><time>2026-04-12T07:40:43Z</time></trkpt><trkpt lat="40.95221100320478" lon="14.665108523717977"><ele>554.0</ele><time>2026-04-12T07:40:44Z</time></trkpt><trkpt lat="40.952176349278474" lon="14.665200766703572"><ele>559.2</ele><time>2026-04-12T07:40:45Z</time></trkpt><trkpt lat="40.95217567753381" lon="14.665308480755783"><ele>564.4</ele><time>2026-04-12T07:40:46Z</time></trkpt><trkpt lat="40.952142598403015" lon="14.665431296633384"><ele>569.6</ele><time>2026-04-12T07:40:47Z</time></trkpt><trkpt lat="40.952118535213565" lon="14.665544879242875"><ele>574.8</ele><time>2026-04-12T07:40:48Z</time></trkpt><trkpt lat="40.952088478968264" lon="14.66565038068089"><ele>580.0</ele><time>2026-04-12T07:40:49Z</time></trkpt><trkpt lat="40.95204594728575" lon="14.665770405772497"><ele>580.0</ele><time>2026-04-12T07:40:50Z</time></trkpt><trkpt lat="40.951998017274924" lon="14.665900905750858"><ele>580.0</ele><time>2026-04-12T07:40:51Z</time></trkpt><trkpt lat="40.951954905027975" lon="14.666029479064292"><ele>580.0</ele><time>2026-04-12T07:40:52Z</time></trkpt><trkpt lat="40.951932015302575" lon="14.666153536615315"><ele>580.0</ele><time>2026-04-12T07:40:53Z</time></trkpt><trkpt lat="40.95190720323287" lon="14.666264966083592"><ele>580.0</ele><time>2026-04-12T07:40:54Z</time></trkpt><trkpt lat="40.95188182761507" lon="14.666380957538104"><ele>582.4</ele><time>2026-04-12T07:40:55Z</time></trkpt><trkpt lat="40.951866097726686" lon="14.66648846213824"><ele>584.8</ele><time>2026-04-12T07:40:56Z</time></trkpt><trkpt lat="40.95184521010275" lon="14.666579513235897"><ele>587.2</ele><time>2026-04-12T07:40:57Z</time></trkpt><trkpt lat="40.95182133305685" lon="14.666719405698009"><ele>589.6</ele><time>2026-04-12T07:40:59Z</time></trkpt><trkpt lat="40.95174965347662" lon="14.6668349905689"><ele>592.0</ele><time>2026-04-12T07:41:01Z</time></trkpt><trkpt lat="40.95167369631749" lon="14.666798496730381"><ele>585.5</ele><time>2026-04-12T07:41:02Z</time></trkpt><trkpt lat="40.951545222133085" lon="14.66677174886395"><ele>579.0</ele><time>2026-04-12T07:41:04Z</time></trkpt><trkpt lat="40.951484671717" lon="14.66672016055836"><ele>572.5</ele><time>2026-04-12T07:41:05Z</time></trkpt><trkpt lat="40.95146725912629" lon="14.66662774378475"><ele>566.0</ele><time>2026-04-12T07:41:07Z</time></trkpt><trkpt lat="40.95144429379059" lon="14.66651146907569"><ele>559.5</ele><time>2026-04-12T07:41:09Z</time></trkpt><trkpt lat="40.9514327502176" lon="14.666404545611327"><ele>553.0</ele><time>2026-04-12T07:41:10Z</time></trkpt><trkpt lat="40.95145099811372" lon="14.666248696207656"><ele>553.0</ele><time>2026-04-12T07:41:12Z</time></trkpt><trkpt lat="40.95147285206066" lon="14.666163572168823"><ele>553.0</ele><time>2026-04-12T07:41:14Z</time></trkpt><trkpt lat="40.95147816925367" lon="14.666071013992143"><ele>553.0</ele><time>2026-04-12T07:41:34Z</time></trkpt><trkpt lat="40.95151831602208" lon="14.665943318515"><ele>553.0</ele><time>2026-04-12T07:41:37Z</time></trkpt><trkpt lat="40.95154076036919" lon="14.665782462764946"><ele>553.0</ele><time>2026-04-12T07:41:39Z</time></trkpt><trkpt lat="40.95156363411539" lon="14.665690698485356"><ele>553.0</ele><time>2026-04-12T07:41:40Z</time></trkpt><trkpt lat="40.95156737530205" lon="14.665573791947399"><ele>551.8333333333334</ele><time>2026-04-12T07:41:41Z</time></trkpt><trkpt lat="40.951540618839225" lon="14.66546287699316"><ele>550.6666666666667</ele><time>2026-04-12T07:41:42Z</time></trkpt><trkpt lat="40.95148534367382" lon="14.665367688191854"><ele>549.5</ele><time>2026-04-12T07:41:43Z</time></trkpt><trkpt lat="40.95144542244769" lon="14.665255978205298"><ele>548.3333333333334</ele><time>2026-04-12T07:41:44Z</time></trkpt><trkpt lat="40.95144716862722" lon="14.665152558944087"><ele>547.1666666666666</ele><time>2026-04-12T07:41:45Z</time></trkpt><trkpt lat="40.9514403845471" lon="14.665045714482481"><ele>546.0</ele><time>2026-04-12T07:41:46Z</time></trkpt><trkpt lat="40.95142500821771" lon="14.66491869791427"><ele>543.4</ele><time>2026-04-12T07:41:47Z</time></trkpt><trkpt lat="40.95142910369501" lon="14.664793309519085"><ele>540.8</ele><time>2026-04-12T07:41:48Z</time></trkpt><trkpt lat="40.95143305845474" lon="14.664663706233345"><ele>538.1999999999999</ele><time>2026-04-12T07:41:49Z</time></trkpt><trkpt lat="40.95143580114996" lon="14.664519827624156"><ele>535.6</ele><time>2026-04-12T07:41:50Z</time></trkpt><trkpt lat="40.95143708121913" lon="14.664383787899137"><ele>533.0</ele><time>2026-04-12T07:41:51Z</time></trkpt><trkpt lat="40.95145039670468" lon="14.664239438652624"><ele>532.6</ele><time>2026-04-12T07:41:52Z</time></trkpt><trkpt lat="40.951497899100815" lon="14.664108555234407"><ele>532.1999999999999</ele><time>2026-04-12T07:41:53Z</time></trkpt><trkpt lat="40.951550886696765" lon="14.663977371159623"><ele>531.8</ele><time>2026-04-12T07:41:54Z</time></trkpt><trkpt lat="40.9515971512643" lon="14.663843983432699"><ele>531.4</ele><time>2026-04-12T07:41:55Z</time></trkpt><trkpt lat="40.95162823793084" lon="14.663697163681189"><ele>531.0</ele><time>2026-04-12T07:41:56Z</time></trkpt><trkpt lat="40.951647478148026" lon="14.66356941770329"><ele>533.6</ele><time>2026-04-12T07:41:57Z</time></trkpt><trkpt lat="40.951638812272186" lon="14.66344176775489"><ele>536.2</ele><time>2026-04-12T07:41:58Z</time></trkpt><trkpt lat="40.951552060746" lon="14.663344066226397"><ele>538.8</ele><time>2026-04-12T07:41:59Z</time></trkpt><trkpt lat="40.951540250430604" lon="14.66323834651305"><ele>541.4</ele><time>2026-04-12T07:42:00Z</time></trkpt><trkpt lat="40.951566973732845" lon="14.663139368316086"><ele>544.0</ele><time>2026-04-12T07:42:01Z</time></trkpt><trkpt lat="40.95160965368131" lon="14.66302979580892"><ele>544.0</ele><time>2026-04-12T07:42:02Z</time></trkpt><trkpt lat="40.95164084884944" lon="14.662900388623731"><ele>544.0</ele><time>2026-04-12T07:42:03Z</time></trkpt><trkpt lat="40.95167044750161" lon="14.66273812763386"><ele>544.0</ele><time>2026-04-12T07:42:04Z</time></trkpt><trkpt lat="40.95168548992112" lon="14.662585730784494"><ele>544.0</ele><time>2026-04-12T07:42:05Z</time></trkpt><trkpt lat="40.9517240584402" lon="14.662463557498869"><ele>544.0</ele><time>2026-04-12T07:42:06Z</time></trkpt><trkpt lat="40.95176141924056" lon="14.66232784044597"><ele>533.75</ele><time>2026-04-12T07:42:07Z</time></trkpt><trkpt lat="40.95179052200789" lon="14.662164844967016"><ele>523.5</ele><time>2026-04-12T07:42:08Z</time></trkpt><trkpt lat="40.95183566614385" lon="14.661995389404462"><ele>513.25</ele><time>2026-04-12T07:42:09Z</time></trkpt><trkpt lat="40.95186750603124" lon="14.66182788388774"><ele>503.0</ele><time>2026-04-12T07:42:10Z</time></trkpt><trkpt lat="40.95188446752881" lon="14.661672207639338"><ele>502.0</ele><time>2026-04-12T07:42:11Z</time></trkpt><trkpt lat="40.95184344159886" lon="14.661522004134156"><ele>501.0</ele><time>2026-04-12T07:42:12Z</time></trkpt><trkpt lat="40.95181673706474" lon="14.661375094107097"><ele>500.0</ele><time>2026-04-12T07:42:13Z</time></trkpt><trkpt lat="40.95178279840356" lon="14.661217066037285"><ele>499.0</ele><time>2026-04-12T07:42:14Z</time></trkpt><trkpt lat="40.95175425305312" lon="14.66105931387356"><ele>501.0</ele><time>2026-04-12T07:42:15Z</time></trkpt><trkpt lat="40.95174765873212" lon="14.660891192593601"><ele>503.0</ele><time>2026-04-12T07:42:16Z</time></trkpt><trkpt lat="40.95173308306809" lon="14.660739152223968"><ele>505.0</ele><time>2026-04-12T07:42:17Z</time></trkpt><trkpt lat="40.951732152848614" lon="14.660586657878817"><ele>507.0</ele><time>2026-04-12T07:42:18Z</time></trkpt><trkpt lat="40.95177508796503" lon="14.660419187364765"><ele>508.5</ele><time>2026-04-12T07:42:19Z</time></trkpt><trkpt lat="40.95182330426447" lon="14.660246099453714"><ele>510.0</ele><time>2026-04-12T07:42:20Z</time></trkpt><trkpt lat="40.951866215387746" lon="14.660078405295492"><ele>511.5</ele><time>2026-04-12T07:42:21Z</time></trkpt><trkpt lat="40.9518952908384" lon="14.659911577512078"><ele>513.0</ele><time>2026-04-12T07:42:22Z</time></trkpt><trkpt lat="40.951908054451536" lon="14.659728517712146"><ele>513.0</ele><time>2026-04-12T07:42:23Z</time></trkpt><trkpt lat="40.95188457496758" lon="14.659533729867391"><ele>513.0</ele><time>2026-04-12T07:42:24Z</time></trkpt><trkpt lat="40.95186966807015" lon="14.659341877952047"><ele>513.0</ele><time>2026-04-12T07:42:25Z</time></trkpt><trkpt lat="40.951887121776664" lon="14.659176342377911"><ele>513.0</ele><time>2026-04-12T07:42:26Z</time></trkpt><trkpt lat="40.951929388181206" lon="14.659034545333018"><ele>515.75</ele><time>2026-04-12T07:42:27Z</time></trkpt><trkpt lat="40.95196093820409" lon="14.658875589432094"><ele>518.5</ele><time>2026-04-12T07:42:28Z</time></trkpt><trkpt lat="40.952007482151316" lon="14.658704527924321"><ele>521.25</ele><time>2026-04-12T07:42:29Z</time></trkpt><trkpt lat="40.95202195908791" lon="14.65853908314932"><ele>524.0</ele><time>2026-04-12T07:42:30Z</time></trkpt><trkpt lat="40.95203930415826" lon="14.65835851299452"><ele>525.75</ele><time>2026-04-12T07:42:31Z</time></trkpt><trkpt lat="40.95201644994248" lon="14.658169803176955"><ele>527.5</ele><time>2026-04-12T07:42:32Z</time></trkpt><trkpt lat="40.951986164696144" lon="14.657994085393995"><ele>529.25</ele><time>2026-04-12T07:42:33Z</time></trkpt><trkpt lat="40.95195674960638" lon="14.657823393259699"><ele>531.0</ele><time>2026-04-12T07:42:34Z</time></trkpt><trkpt lat="40.95193455498899" lon="14.657667219843303"><ele>532.5</ele><time>2026-04-12T07:42:35Z</time></trkpt><trkpt lat="40.951937831630396" lon="14.657519782030398"><ele>534.0</ele><time>2026-04-12T07:42:36Z</time></trkpt><trkpt lat="40.95193731133058" lon="14.657379178106822"><ele>535.5</ele><time>2026-04-12T07:42:37Z</time></trkpt><trkpt lat="40.951970793185986" lon="14.65722289514299"><ele>537.0</ele><time>2026-04-12T07:42:38Z</time></trkpt><trkpt lat="40.951963085126096" lon="14.657041172218536"><ele>538.0</ele><time>2026-04-12T07:42:39Z</time></trkpt><trkpt lat="40.951961045733704" lon="14.65685107460534"><ele>539.0</ele><time>2026-04-12T07:42:40Z</time></trkpt><trkpt lat="40.951947514365614" lon="14.65669885256087"><ele>540.0</ele><time>2026-04-12T07:42:41Z</time></trkpt><trkpt lat="40.95196806752141" lon="14.656517167644617"><ele>541.0</ele><time>2026-04-12T07:42:42Z</time></trkpt><trkpt lat="40.951975266258444" lon="14.656335366842537"><ele>541.0</ele><time>2026-04-12T07:42:43Z</time></trkpt><trkpt lat="40.95200677711747" lon="14.656170906681771"><ele>541.0</ele><time>2026-04-12T07:42:44Z</time></trkpt><trkpt lat="40.9520204572158" lon="14.655984037939948"><ele>541.0</ele><time>2026-04-12T07:42:45Z</time></trkpt><trkpt lat="40.95201076363768" lon="14.655776063652647"><ele>541.0</ele><time>2026-04-12T07:42:46Z</time></trkpt><trkpt lat="40.95200693560888" lon="14.655572241624823"><ele>542.25</ele><time>2026-04-12T07:42:47Z</time></trkpt><trkpt lat="40.952005388012154" lon="14.655390966906097"><ele>543.5</ele><time>2026-04-12T07:42:48Z</time></trkpt><trkpt lat="40.95195838648729" lon="14.65522578450233"><ele>544.75</ele><time>2026-04-12T07:42:49Z</time></trkpt><trkpt lat="40.951925062852915" lon="14.655034664554599"><ele>546.0</ele><time>2026-04-12T07:42:50Z</time></trkpt><trkpt lat="40.95186598789854" lon="14.654832386476663"><ele>546.25</ele><time>2026-04-12T07:42:51Z</time></trkpt><trkpt lat="40.951795606033905" lon="14.654670581953946"><ele>546.5</ele><time>2026-04-12T07:42:52Z</time></trkpt><trkpt lat="40.951713969689024" lon="14.654519255024239"><ele>546.75</ele><time>2026-04-12T07:42:53Z</time></trkpt><trkpt lat="40.95158950957161" lon="14.654393643444518"><ele>547.0</ele><time>2026-04-12T07:42:54Z</time></trkpt><trkpt lat="40.95145457216333" lon="14.654279394420296"><ele>552.75</ele><time>2026-04-12T07:42:55Z</time></trkpt><trkpt lat="40.95133454177172" lon="14.65416678151718"><ele>558.5</ele><time>2026-04-12T07:42:56Z</time></trkpt><trkpt lat="40.95122783270076" lon="14.654058898990105"><ele>564.25</ele><time>2026-04-12T07:42:57Z</time></trkpt><trkpt lat="40.951118425537956" lon="14.653954902572295"><ele>570.0</ele><time>2026-04-12T07:42:58Z</time></trkpt><trkpt lat="40.951001404488956" lon="14.65385157974924"><ele>571.25</ele><time>2026-04-12T07:42:59Z</time></trkpt><trkpt lat="40.950873996567545" lon="14.653759087302431"><ele>572.5</ele><time>2026-04-12T07:43:00Z</time></trkpt><trkpt lat="40.950733560478284" lon="14.653684400400278"><ele>573.75</ele><time>2026-04-12T07:43:01Z</time></trkpt><trkpt lat="40.95058936743072" lon="14.653623861866734"><ele>575.0</ele><time>2026-04-12T07:43:02Z</time></trkpt><trkpt lat="40.95043948498134" lon="14.653557487428857"><ele>575.0</ele><time>2026-04-12T07:43:03Z</time></trkpt><trkpt lat="40.950289811178294" lon="14.653471276570242"><ele>575.0</ele><time>2026-04-12T07:43:04Z</time></trkpt><trkpt lat="40.95013827555007" lon="14.653404627375535"><ele>575.0</ele><time>2026-04-12T07:43:05Z</time></trkpt><trkpt lat="40.94998864590318" lon="14.653363498898877"><ele>578.2</ele><time>2026-04-12T07:43:06Z</time></trkpt><trkpt lat="40.949865001360635" lon="14.653316901468488"><ele>581.4</ele><time>2026-04-12T07:43:07Z</time></trkpt><trkpt lat="40.94975622965015" lon="14.653291950631278"><ele>584.6</ele><time>2026-04-12T07:43:08Z</time></trkpt><trkpt lat="40.94965446544262" lon="14.65329261819924"><ele>587.8</ele><time>2026-04-12T07:43:09Z</time></trkpt><trkpt lat="40.949572742096606" lon="14.65319962975603"><ele>591.0</ele><time>2026-04-12T07:43:10Z</time></trkpt><trkpt lat="40.949476114157676" lon="14.653155037576092"><ele>591.0</ele><time>2026-04-12T07:43:11Z</time></trkpt><trkpt lat="40.949382666648376" lon="14.653145636793122"><ele>591.0</ele><time>2026-04-12T07:43:12Z</time></trkpt><trkpt lat="40.949299274450254" lon="14.65309958180787"><ele>591.0</ele><time>2026-04-12T07:43:13Z</time></trkpt><trkpt lat="40.949200437467375" lon="14.653075764013623"><ele>591.0</ele><time>2026-04-12T07:43:14Z</time></trkpt><trkpt lat="40.94911026907283" lon="14.653035159259874"><ele>591.0</ele><time>2026-04-12T07:43:15Z</time></trkpt><trkpt lat="40.94901313685266" lon="14.653003569206023"><ele>591.6</ele><time>2026-04-12T07:43:16Z</time></trkpt><trkpt lat="40.94891169388729" lon="14.652992075318386"><ele>592.2</ele><time>2026-04-12T07:43:17Z</time></trkpt><trkpt lat="40.94882191997543" lon="14.652963805965431"><ele>592.8</ele><time>2026-04-12T07:43:18Z</time></trkpt><trkpt lat="40.94873677751143" lon="14.652939308138754"><ele>593.4</ele><time>2026-04-12T07:43:19Z</time></trkpt><trkpt lat="40.94865293724289" lon="14.652926987495889"><ele>594.0</ele><time>2026-04-12T07:43:20Z</time></trkpt><trkpt lat="40.94856335328179" lon="14.65291637076379"><ele>594.0</ele><time>2026-04-12T07:43:21Z</time></trkpt><trkpt lat="40.948462072997856" lon="14.65289290446828"><ele>594.0</ele><time>2026-04-12T07:43:22Z</time></trkpt><trkpt lat="40.94835760362471" lon="14.652915212760181"><ele>594.0</ele><time>2026-04-12T07:43:23Z</time></trkpt><trkpt lat="40.94825983522702" lon="14.652932275917477"><ele>594.0</ele><time>2026-04-12T07:43:24Z</time></trkpt><trkpt lat="40.94816136166997" lon="14.652926645583406"><ele>594.0</ele><time>2026-04-12T07:43:25Z</time></trkpt><trkpt lat="40.948053193917126" lon="14.652936607493436"><ele>593.25</ele><time>2026-04-12T07:43:26Z</time></trkpt><trkpt lat="40.94794228754392" lon="14.652947918248142"><ele>592.5</ele><time>2026-04-12T07:43:27Z</time></trkpt><trkpt lat="40.94782140450099" lon="14.652965028286697"><ele>591.75</ele><time>2026-04-12T07:43:28Z</time></trkpt><trkpt lat="40.947695611715616" lon="14.653008961798475"><ele>591.0</ele><time>2026-04-12T07:43:29Z</time></trkpt><trkpt lat="40.94756315349088" lon="14.653045267593464"><ele>589.0</ele><time>2026-04-12T07:43:30Z</time></trkpt><trkpt lat="40.947428583330925" lon="14.653081535480997"><ele>587.0</ele><time>2026-04-12T07:43:31Z</time></trkpt><trkpt lat="40.94729721495046" lon="14.65311893121479"><ele>585.0</ele><time>2026-04-12T07:43:32Z</time></trkpt><trkpt lat="40.947172771279234" lon="14.653160744582797"><ele>583.0</ele><time>2026-04-12T07:43:33Z</time></trkpt><trkpt lat="40.94704641281298" lon="14.653194924811405"><ele>583.0</ele><time>2026-04-12T07:43:34Z</time></trkpt><trkpt lat="40.94690827808329" lon="14.653231963066538"><ele>583.0</ele><time>2026-04-12T07:43:35Z</time></trkpt><trkpt lat="40.94676322789867" lon="14.653275337630296"><ele>583.0</ele><time>2026-04-12T07:43:36Z</time></trkpt><trkpt lat="40.94662102343842" lon="14.653318789945114"><ele>583.0</ele><time>2026-04-12T07:43:37Z</time></trkpt><trkpt lat="40.94647570202813" lon="14.653359288529265"><ele>580.25</ele><time>2026-04-12T07:43:38Z</time></trkpt><trkpt lat="40.946337266299146" lon="14.653395512291278"><ele>577.5</ele><time>2026-04-12T07:43:39Z</time></trkpt><trkpt lat="40.94620458499869" lon="14.653403436230963"><ele>574.75</ele><time>2026-04-12T07:43:40Z</time></trkpt><trkpt lat="40.946083353892114" lon="14.653454980671112"><ele>572.0</ele><time>2026-04-12T07:43:41Z</time></trkpt><trkpt lat="40.94596034859763" lon="14.653495172029277"><ele>573.2</ele><time>2026-04-12T07:43:42Z</time></trkpt><trkpt lat="40.94583992924038" lon="14.653556085233093"><ele>574.4000000000001</ele><time>2026-04-12T07:43:43Z</time></trkpt><trkpt lat="40.945737094909056" lon="14.653629505256651"><ele>575.5999999999999</ele><time>2026-04-12T07:43:44Z</time></trkpt><trkpt lat="40.94565330439415" lon="14.653710418919943"><ele>576.8</ele><time>2026-04-12T07:43:45Z</time></trkpt><trkpt lat="40.945567713054295" lon="14.65374709780121"><ele>578.0</ele><time>2026-04-12T07:43:46Z</time></trkpt><trkpt lat="40.94548817581318" lon="14.65379304154103"><ele>578.0</ele><time>2026-04-12T07:43:47Z</time></trkpt><trkpt lat="40.945412630016676" lon="14.653835413669723"><ele>578.0</ele><time>2026-04-12T07:43:48Z</time></trkpt><trkpt lat="40.94532892533628" lon="14.653882621025925"><ele>578.0</ele><time>2026-04-12T07:43:49Z</time></trkpt><trkpt lat="40.945244279989915" lon="14.653950360932862"><ele>578.0</ele><time>2026-04-12T07:43:50Z</time></trkpt><trkpt lat="40.945154345798194" lon="14.653999641764875"><ele>578.0</ele><time>2026-04-12T07:43:51Z</time></trkpt><trkpt lat="40.94504327517171" lon="14.654033204519893"><ele>572.75</ele><time>2026-04-12T07:43:52Z</time></trkpt><trkpt lat="40.94493642903177" lon="14.654101290291095"><ele>567.5</ele><time>2026-04-12T07:43:53Z</time></trkpt><trkpt lat="40.9448450956285" lon="14.654202989446505"><ele>562.25</ele><time>2026-04-12T07:43:54Z</time></trkpt><trkpt lat="40.944760011729784" lon="14.65430932102644"><ele>557.0</ele><time>2026-04-12T07:43:55Z</time></trkpt><trkpt lat="40.94468479024954" lon="14.654393296772751"><ele>559.4</ele><time>2026-04-12T07:43:56Z</time></trkpt><trkpt lat="40.94460334475407" lon="14.654478914104953"><ele>561.8000000000001</ele><time>2026-04-12T07:43:57Z</time></trkpt><trkpt lat="40.944522301742786" lon="14.654570968150225"><ele>564.2</ele><time>2026-04-12T07:43:58Z</time></trkpt><trkpt lat="40.944447716913885" lon="14.654661880830433"><ele>566.6</ele><time>2026-04-12T07:43:59Z</time></trkpt><trkpt lat="40.944341776706224" lon="14.654730231918895"><ele>569.0</ele><time>2026-04-12T07:44:00Z</time></trkpt><trkpt lat="40.94423715416343" lon="14.654811922479283"><ele>563.5</ele><time>2026-04-12T07:44:01Z</time></trkpt><trkpt lat="40.94413546354626" lon="14.654910958029802"><ele>558.0</ele><time>2026-04-12T07:44:02Z</time></trkpt><trkpt lat="40.94405466285998" lon="14.655016902454777"><ele>552.5</ele><time>2026-04-12T07:44:03Z</time></trkpt><trkpt lat="40.94394939163756" lon="14.655097019219259"><ele>547.0</ele><time>2026-04-12T07:44:04Z</time></trkpt><trkpt lat="40.94385441841729" lon="14.655154384126316"><ele>547.0</ele><time>2026-04-12T07:44:05Z</time></trkpt><trkpt lat="40.94375454967927" lon="14.655245349261003"><ele>547.0</ele><time>2026-04-12T07:44:06Z</time></trkpt><trkpt lat="40.94365845602371" lon="14.65531816486589"><ele>547.0</ele><time>2026-04-12T07:44:07Z</time></trkpt><trkpt lat="40.94357589825456" lon="14.655411293513914"><ele>547.0</ele><time>2026-04-12T07:44:08Z</time></trkpt><trkpt lat="40.943496988398834" lon="14.655468882470995"><ele>547.0</ele><time>2026-04-12T07:44:09Z</time></trkpt><trkpt lat="40.94344972893711" lon="14.655604454749923"><ele>549.2</ele><time>2026-04-12T07:44:11Z</time></trkpt><trkpt lat="40.9434056602698" lon="14.655702596248029"><ele>551.4000000000001</ele><time>2026-04-12T07:44:13Z</time></trkpt><trkpt lat="40.94333591406248" lon="14.65572718613577"><ele>553.5999999999999</ele><time>2026-04-12T07:44:15Z</time></trkpt><trkpt lat="40.943253017755836" lon="14.655856189298015"><ele>555.8</ele><time>2026-04-12T07:44:17Z</time></trkpt><trkpt lat="40.943210953438175" lon="14.655946199150096"><ele>558.0</ele><time>2026-04-12T07:44:18Z</time></trkpt><trkpt lat="40.943156829709295" lon="14.656044807644506"><ele>556.6</ele><time>2026-04-12T07:44:19Z</time></trkpt><trkpt lat="40.94311278001534" lon="14.656145795844964"><ele>555.1999999999999</ele><time>2026-04-12T07:44:20Z</time></trkpt><trkpt lat="40.943066927321475" lon="14.656275839896672"><ele>553.8</ele><time>2026-04-12T07:44:21Z</time></trkpt><trkpt lat="40.943008849656934" lon="14.656398509477617"><ele>552.4</ele><time>2026-04-12T07:44:22Z</time></trkpt><trkpt lat="40.94296002683285" lon="14.656502575815006"><ele>551.0</ele><time>2026-04-12T07:44:23Z</time></trkpt><trkpt lat="40.94290285621198" lon="14.656595421243177"><ele>551.0</ele><time>2026-04-12T07:44:24Z</time></trkpt><trkpt lat="40.94284765010205" lon="14.65670900429004"><ele>551.0</ele><time>2026-04-12T07:44:25Z</time></trkpt><trkpt lat="40.94281775318129" lon="14.656829948672836"><ele>551.0</ele><time>2026-04-12T07:44:26Z</time></trkpt><trkpt lat="40.942758229935166" lon="14.656948900979575"><ele>551.0</ele><time>2026-04-12T07:44:27Z</time></trkpt><trkpt lat="40.94271320093069" lon="14.657083009540447"><ele>551.0</ele><time>2026-04-12T07:44:28Z</time></trkpt><trkpt lat="40.94268598881923" lon="14.65724533083505"><ele>554.75</ele><time>2026-04-12T07:44:29Z</time></trkpt><trkpt lat="40.94265895934518" lon="14.657405056608818"><ele>558.5</ele><time>2026-04-12T07:44:30Z</time></trkpt><trkpt lat="40.94264111265782" lon="14.657549005642169"><ele>562.25</ele><time>2026-04-12T07:44:31Z</time></trkpt><trkpt lat="40.942639265478164" lon="14.657684423144248"><ele>566.0</ele><time>2026-04-12T07:44:32Z</time></trkpt><trkpt lat="40.9426819429673" lon="14.65785050801786"><ele>568.0</ele><time>2026-04-12T07:44:33Z</time></trkpt><trkpt lat="40.9427362695233" lon="14.65802961728056"><ele>570.0</ele><time>2026-04-12T07:44:34Z</time></trkpt><trkpt lat="40.9427940300379" lon="14.658186714418772"><ele>572.0</ele><time>2026-04-12T07:44:35Z</time></trkpt><trkpt lat="40.94285492919759" lon="14.658325949453396"><ele>574.0</ele><time>2026-04-12T07:44:36Z</time></trkpt><trkpt lat="40.94288887394711" lon="14.658408633917515"><ele>574.0</ele><time>2026-04-12T07:44:37Z</time></trkpt><trkpt lat="40.942863664218024" lon="14.658511094144076"><ele>574.0</ele><time>2026-04-12T07:44:39Z</time></trkpt><trkpt lat="40.942794521491045" lon="14.658531231520616"><ele>574.0</ele><time>2026-04-12T07:44:40Z</time></trkpt><trkpt lat="40.94272463007199" lon="14.658457278023597"><ele>574.0</ele><time>2026-04-12T07:44:41Z</time></trkpt><trkpt lat="40.94265108861465" lon="14.658372284241246"><ele>574.0</ele><time>2026-04-12T07:44:42Z</time></trkpt><trkpt lat="40.94254395362602" lon="14.658296667914888"><ele>570.6</ele><time>2026-04-12T07:44:43Z</time></trkpt><trkpt lat="40.94242616905562" lon="14.658231696380966"><ele>567.2</ele><time>2026-04-12T07:44:44Z</time></trkpt><trkpt lat="40.942321179128335" lon="14.65820808843364"><ele>563.8000000000001</ele><time>2026-04-12T07:44:45Z</time></trkpt><trkpt lat="40.94223525580508" lon="14.658182324771316"><ele>560.4</ele><time>2026-04-12T07:44:46Z</time></trkpt><trkpt lat="40.94215012069301" lon="14.65817296956748"><ele>557.0</ele><time>2026-04-12T07:44:47Z</time></trkpt><trkpt lat="40.94206953002347" lon="14.658228394159519"><ele>557.0</ele><time>2026-04-12T07:44:48Z</time></trkpt><trkpt lat="40.94198937001313" lon="14.658346601542748"><ele>557.0</ele><time>2026-04-12T07:44:49Z</time></trkpt><trkpt lat="40.94191587163145" lon="14.658503628281737"><ele>557.0</ele><time>2026-04-12T07:44:50Z</time></trkpt><trkpt lat="40.94182968609436" lon="14.65865460716112"><ele>557.0</ele><time>2026-04-12T07:44:51Z</time></trkpt><trkpt lat="40.94174125554605" lon="14.658777328668934"><ele>560.5</ele><time>2026-04-12T07:44:52Z</time></trkpt><trkpt lat="40.94165905010921" lon="14.658873498346242"><ele>564.0</ele><time>2026-04-12T07:44:53Z</time></trkpt><trkpt lat="40.94157492285108" lon="14.658968865916101"><ele>567.5</ele><time>2026-04-12T07:44:54Z</time></trkpt><trkpt lat="40.94146962466988" lon="14.659052413209942"><ele>571.0</ele><time>2026-04-12T07:44:55Z</time></trkpt><trkpt lat="40.941373961602224" lon="14.659167023907125"><ele>571.0</ele><time>2026-04-12T07:44:56Z</time></trkpt><trkpt lat="40.94128545386266" lon="14.659276490978213"><ele>571.0</ele><time>2026-04-12T07:44:57Z</time></trkpt><trkpt lat="40.941216013743514" lon="14.659394327410036"><ele>571.0</ele><time>2026-04-12T07:44:58Z</time></trkpt><trkpt lat="40.94116204673402" lon="14.659552929531499"><ele>571.0</ele><time>2026-04-12T07:44:59Z</time></trkpt><trkpt lat="40.94112384412341" lon="14.659748405571944"><ele>577.3333333333334</ele><time>2026-04-12T07:45:00Z</time></trkpt><trkpt lat="40.94107780252271" lon="14.659946993410319"><ele>583.6666666666666</ele><time>2026-04-12T07:45:01Z</time></trkpt><trkpt lat="40.941026219234786" lon="14.660133851233647"><ele>590.0</ele><time>2026-04-12T07:45:02Z</time></trkpt><trkpt lat="40.94097758627977" lon="14.660320916636579"><ele>590.0</ele><time>2026-04-12T07:45:03Z</time></trkpt><trkpt lat="40.94093837747733" lon="14.660487320861314"><ele>590.0</ele><time>2026-04-12T07:45:04Z</time></trkpt><trkpt lat="40.9408956268772" lon="14.66063464882568"><ele>590.0</ele><time>2026-04-12T07:45:05Z</time></trkpt><trkpt lat="40.940834831572054" lon="14.660787599418546"><ele>590.0</ele><time>2026-04-12T07:45:06Z</time></trkpt><trkpt lat="40.94076819559308" lon="14.660958765162446"><ele>594.6666666666666</ele><time>2026-04-12T07:45:07Z</time></trkpt><trkpt lat="40.940668417967544" lon="14.66112641051025"><ele>599.3333333333334</ele><time>2026-04-12T07:45:08Z</time></trkpt><trkpt lat="40.94059619217531" lon="14.661311168037209"><ele>604.0</ele><time>2026-04-12T07:45:09Z</time></trkpt><trkpt lat="40.94052889765199" lon="14.66149055029508"><ele>604.0</ele><time>2026-04-12T07:45:10Z</time></trkpt><trkpt lat="40.94046833044803" lon="14.661703145938338"><ele>604.0</ele><time>2026-04-12T07:45:11Z</time></trkpt><trkpt lat="40.940405303087246" lon="14.661926003628945"><ele>604.0</ele><time>2026-04-12T07:45:12Z</time></trkpt><trkpt lat="40.940349543100105" lon="14.662148712676206"><ele>609.3333333333334</ele><time>2026-04-12T07:45:13Z</time></trkpt><trkpt lat="40.94030242370805" lon="14.662336554564689"><ele>614.6666666666666</ele><time>2026-04-12T07:45:14Z</time></trkpt><trkpt lat="40.940261836179396" lon="14.662527639840537"><ele>620.0</ele><time>2026-04-12T07:45:15Z</time></trkpt><trkpt lat="40.940207918478045" lon="14.662727311209489"><ele>620.6666666666666</ele><time>2026-04-12T07:45:16Z</time></trkpt><trkpt lat="40.94012974173105" lon="14.66293146115062"><ele>621.3333333333334</ele><time>2026-04-12T07:45:17Z</time></trkpt><trkpt lat="40.94005316453897" lon="14.66314267945527"><ele>622.0</ele><time>2026-04-12T07:45:18Z</time></trkpt><trkpt lat="40.93998587424241" lon="14.66333301250482"><ele>622.0</ele><time>2026-04-12T07:45:19Z</time></trkpt><trkpt lat="40.93992510571082" lon="14.663513905378968"><ele>622.0</ele><time>2026-04-12T07:45:20Z</time></trkpt><trkpt lat="40.93987300019117" lon="14.66371172963415"><ele>622.0</ele><time>2026-04-12T07:45:21Z</time></trkpt><trkpt lat="40.93982552177899" lon="14.663918559510906"><ele>626.3333333333334</ele><time>2026-04-12T07:45:22Z</time></trkpt><trkpt lat="40.93978966345504" lon="14.664144682331136"><ele>630.6666666666666</ele><time>2026-04-12T07:45:23Z</time></trkpt><trkpt lat="40.939730301340624" lon="14.664378989849718"><ele>635.0</ele><time>2026-04-12T07:45:24Z</time></trkpt><trkpt lat="40.939669532701416" lon="14.6646157067563"><ele>639.6666666666666</ele><time>2026-04-12T07:45:25Z</time></trkpt><trkpt lat="40.93961609396084" lon="14.664848497634866"><ele>644.3333333333334</ele><time>2026-04-12T07:45:26Z</time></trkpt><trkpt lat="40.93956380394963" lon="14.665065764546515"><ele>649.0</ele><time>2026-04-12T07:45:27Z</time></trkpt><trkpt lat="40.93950270209338" lon="14.665281575966436"><ele>653.6666666666667</ele><time>2026-04-12T07:45:28Z</time></trkpt><trkpt lat="40.93945856532615" lon="14.665518295945983"><ele>658.3333333333334</ele><time>2026-04-12T07:45:29Z</time></trkpt><trkpt lat="40.93942349404247" lon="14.665753651932839"><ele>663.0</ele><time>2026-04-12T07:45:30Z</time></trkpt><trkpt lat="40.93939696007032" lon="14.66595163489692"><ele>663.0</ele><time>2026-04-12T07:45:31Z</time></trkpt><trkpt lat="40.939373701843785" lon="14.66609619911886"><ele>663.0</ele><time>2026-04-12T07:45:32Z</time></trkpt><trkpt lat="40.93936067950185" lon="14.666186938126561"><ele>663.0</ele><time>2026-04-12T07:45:33Z</time></trkpt><trkpt lat="40.939401070091094" lon="14.666314129205453"><ele>663.0</ele><time>2026-04-12T07:45:35Z</time></trkpt><trkpt lat="40.93946815263779" lon="14.666317975364885"><ele>663.0</ele><time>2026-04-12T07:45:36Z</time></trkpt><trkpt lat="40.93955788908138" lon="14.666241810051204"><ele>663.0</ele><time>2026-04-12T07:45:37Z</time></trkpt><trkpt lat="40.93963075067197" lon="14.666145393666733"><ele>663.0</ele><time>2026-04-12T07:45:38Z</time></trkpt><trkpt lat="40.9396847463608" lon="14.666092205928141"><ele>663.0</ele><time>2026-04-12T07:45:39Z</time></trkpt><trkpt lat="40.93973758066323" lon="14.666161637403254"><ele>663.0</ele><time>2026-04-12T07:45:41Z</time></trkpt><trkpt lat="40.939690668742436" lon="14.666356524531821"><ele>663.0</ele><time>2026-04-12T07:45:43Z</time></trkpt><trkpt lat="40.93966769904794" lon="14.666505355986786"><ele>666.25</ele><time>2026-04-12T07:45:44Z</time></trkpt><trkpt lat="40.93962836063822" lon="14.666680139828388"><ele>669.5</ele><time>2026-04-12T07:45:45Z</time></trkpt><trkpt lat="40.93958763205429" lon="14.666878289124751"><ele>672.75</ele><time>2026-04-12T07:45:46Z</time></trkpt><trkpt lat="40.939541548585225" lon="14.667067720720166"><ele>676.0</ele><time>2026-04-12T07:45:47Z</time></trkpt><trkpt lat="40.93949020875083" lon="14.667240245694051"><ele>679.75</ele><time>2026-04-12T07:45:48Z</time></trkpt><trkpt lat="40.939396091802905" lon="14.667355316339727"><ele>683.5</ele><time>2026-04-12T07:45:49Z</time></trkpt><trkpt lat="40.93933759882518" lon="14.667488035494157"><ele>687.25</ele><time>2026-04-12T07:45:50Z</time></trkpt><trkpt lat="40.93930985888296" lon="14.667658557495992"><ele>691.0</ele><time>2026-04-12T07:45:51Z</time></trkpt><trkpt lat="40.939319089355955" lon="14.66786759681305"><ele>695.6666666666667</ele><time>2026-04-12T07:45:52Z</time></trkpt><trkpt lat="40.939332758136416" lon="14.668090203937926"><ele>700.3333333333334</ele><time>2026-04-12T07:45:53Z</time></trkpt><trkpt lat="40.93931560370149" lon="14.668308682822182"><ele>705.0</ele><time>2026-04-12T07:45:54Z</time></trkpt><trkpt lat="40.93926994722882" lon="14.668512548815038"><ele>707.75</ele><time>2026-04-12T07:45:55Z</time></trkpt><trkpt lat="40.93923105155074" lon="14.668687581888515"><ele>710.5</ele><time>2026-04-12T07:45:56Z</time></trkpt><trkpt lat="40.93922308553099" lon="14.668872749332023"><ele>713.25</ele><time>2026-04-12T07:45:57Z</time></trkpt><trkpt lat="40.93924711607521" lon="14.669066760384753"><ele>716.0</ele><time>2026-04-12T07:45:58Z</time></trkpt><trkpt lat="40.93927680489276" lon="14.669236833497331"><ele>716.0</ele><time>2026-04-12T07:45:59Z</time></trkpt><trkpt lat="40.93927297936803" lon="14.669413450647083"><ele>716.0</ele><time>2026-04-12T07:46:00Z</time></trkpt><trkpt lat="40.93926516319977" lon="14.66959649480154"><ele>716.0</ele><time>2026-04-12T07:46:01Z</time></trkpt><trkpt lat="40.93922639974376" lon="14.669764621462203"><ele>716.0</ele><time>2026-04-12T07:46:02Z</time></trkpt><trkpt lat="40.93921168146522" lon="14.669897623031137"><ele>717.0</ele><time>2026-04-12T07:46:03Z</time></trkpt><trkpt lat="40.93923136353731" lon="14.669998661064092"><ele>718.0</ele><time>2026-04-12T07:46:04Z</time></trkpt><trkpt lat="40.93927388177721" lon="14.67007219869445"><ele>719.0</ele><time>2026-04-12T07:46:05Z</time></trkpt><trkpt lat="40.939324431874404" lon="14.670153646499097"><ele>720.0</ele><time>2026-04-12T07:46:06Z</time></trkpt><trkpt lat="40.939362141100645" lon="14.670258728228353"><ele>721.0</ele><time>2026-04-12T07:46:07Z</time></trkpt><trkpt lat="40.93939428140979" lon="14.670360924023411"><ele>722.0</ele><time>2026-04-12T07:46:08Z</time></trkpt><trkpt lat="40.93942225143651" lon="14.670471328421293"><ele>722.4000000000001</ele><time>2026-04-12T07:46:10Z</time></trkpt><trkpt lat="40.93934919157916" lon="14.670518783666639"><ele>722.8000000000001</ele><time>2026-04-12T07:46:13Z</time></trkpt><trkpt lat="40.939265230268305" lon="14.670449523789172"><ele>723.2</ele><time>2026-04-12T07:46:17Z</time></trkpt><trkpt lat="40.939201972505145" lon="14.670364738603766"><ele>723.6</ele><time>2026-04-12T07:46:19Z</time></trkpt><trkpt lat="40.93911219288543" lon="14.670417517028763"><ele>724.0</ele><time>2026-04-12T07:46:22Z</time></trkpt><trkpt lat="40.93900775477865" lon="14.670432187315877"><ele>720.25</ele><time>2026-04-12T07:46:24Z</time></trkpt><trkpt lat="40.93882583570482" lon="14.670494073864914"><ele>716.5</ele><time>2026-04-12T07:46:26Z</time></trkpt><trkpt lat="40.93869933315698" lon="14.670565650719505"><ele>712.75</ele><time>2026-04-12T07:46:27Z</time></trkpt><trkpt lat="40.93861095319053" lon="14.670607986015552"><ele>709.0</ele><time>2026-04-12T07:46:28Z</time></trkpt><trkpt lat="40.93852743133221" lon="14.670640709401724"><ele>709.0</ele><time>2026-04-12T07:46:29Z</time></trkpt><trkpt lat="40.93843107227406" lon="14.670655787569247"><ele>709.0</ele><time>2026-04-12T07:46:30Z</time></trkpt><trkpt lat="40.93833401991284" lon="14.670689068118085"><ele>709.0</ele><time>2026-04-12T07:46:31Z</time></trkpt><trkpt lat="40.9382362987056" lon="14.67071842873786"><ele>709.0</ele><time>2026-04-12T07:46:32Z</time></trkpt><trkpt lat="40.93813817663254" lon="14.670751543669278"><ele>709.0</ele><time>2026-04-12T07:46:33Z</time></trkpt><trkpt lat="40.93803487841445" lon="14.67078532961387"><ele>709.6666666666667</ele><time>2026-04-12T07:46:34Z</time></trkpt><trkpt lat="40.93792548967524" lon="14.67082702273546"><ele>710.3333333333334</ele><time>2026-04-12T07:46:35Z</time></trkpt><trkpt lat="40.93782439094885" lon="14.670862926180579"><ele>711.0</ele><time>2026-04-12T07:46:36Z</time></trkpt><trkpt lat="40.93775935399068" lon="14.670888308065454"><ele>711.6666666666666</ele><time>2026-04-12T07:46:37Z</time></trkpt><trkpt lat="40.93768448102355" lon="14.67091724959002"><ele>712.3333333333333</ele><time>2026-04-12T07:46:38Z</time></trkpt><trkpt lat="40.93761768986854" lon="14.670899244209645"><ele>713.0</ele><time>2026-04-12T07:46:39Z</time></trkpt><trkpt lat="40.937543204570886" lon="14.670898558065733"><ele>713.0</ele><time>2026-04-12T07:46:40Z</time></trkpt><trkpt lat="40.937457430032744" lon="14.670933772128079"><ele>713.0</ele><time>2026-04-12T07:46:41Z</time></trkpt><trkpt lat="40.93735599575717" lon="14.670980086138524"><ele>713.0</ele><time>2026-04-12T07:46:42Z</time></trkpt><trkpt lat="40.93725042017006" lon="14.671033131553795"><ele>713.0</ele><time>2026-04-12T07:46:43Z</time></trkpt><trkpt lat="40.937137544728394" lon="14.671095474849176"><ele>713.0</ele><time>2026-04-12T07:46:44Z</time></trkpt><trkpt lat="40.937032839904234" lon="14.671167676838667"><ele>712.8</ele><time>2026-04-12T07:46:45Z</time></trkpt><trkpt lat="40.9369347897629" lon="14.671236435600813"><ele>712.5999999999999</ele><time>2026-04-12T07:46:46Z</time></trkpt><trkpt lat="40.9368634372394" lon="14.671288408747552"><ele>712.4000000000001</ele><time>2026-04-12T07:46:47Z</time></trkpt><trkpt lat="40.93681426079746" lon="14.671346619780236"><ele>712.2</ele><time>2026-04-12T07:46:48Z</time></trkpt><trkpt lat="40.93676075971175" lon="14.67145093610376"><ele>712.0</ele><time>2026-04-12T07:46:49Z</time></trkpt><trkpt lat="40.936711577778325" lon="14.67156870611788"><ele>712.0</ele><time>2026-04-12T07:46:50Z</time></trkpt><trkpt lat="40.93664422692484" lon="14.671724923061111"><ele>712.0</ele><time>2026-04-12T07:46:51Z</time></trkpt><trkpt lat="40.93657640697352" lon="14.671886979524734"><ele>712.0</ele><time>2026-04-12T07:46:52Z</time></trkpt><trkpt lat="40.93652490607281" lon="14.672009998860611"><ele>712.0</ele><time>2026-04-12T07:46:53Z</time></trkpt><trkpt lat="40.936473329802745" lon="14.672134607043377"><ele>712.6666666666667</ele><time>2026-04-12T07:46:54Z</time></trkpt><trkpt lat="40.936438981620114" lon="14.67224389547674"><ele>713.3333333333334</ele><time>2026-04-12T07:46:55Z</time></trkpt><trkpt lat="40.93641759733906" lon="14.67234373209568"><ele>714.0</ele><time>2026-04-12T07:46:56Z</time></trkpt><trkpt lat="40.93640388963184" lon="14.672453002275825"><ele>714.6666666666666</ele><time>2026-04-12T07:46:57Z</time></trkpt><trkpt lat="40.9363874886039" lon="14.672563053831801"><ele>715.3333333333333</ele><time>2026-04-12T07:46:58Z</time></trkpt><trkpt lat="40.936340815232974" lon="14.672662535791332"><ele>716.0</ele><time>2026-04-12T07:46:59Z</time></trkpt><trkpt lat="40.93628460488445" lon="14.672774112029446"><ele>717.0</ele><time>2026-04-12T07:47:00Z</time></trkpt><trkpt lat="40.93620059634289" lon="14.672886953635432"><ele>718.0</ele><time>2026-04-12T07:47:01Z</time></trkpt><trkpt lat="40.9361357386935" lon="14.672988539785244"><ele>719.0</ele><time>2026-04-12T07:47:02Z</time></trkpt><trkpt lat="40.93607391336464" lon="14.673082020594306"><ele>720.0</ele><time>2026-04-12T07:47:03Z</time></trkpt><trkpt lat="40.93602563486796" lon="14.673158120313008"><ele>721.0</ele><time>2026-04-12T07:47:04Z</time></trkpt><trkpt lat="40.93592768267834" lon="14.673178924438975"><ele>720.3333333333334</ele><time>2026-04-12T07:47:06Z</time></trkpt><trkpt lat="40.935867913945714" lon="14.67313034445419"><ele>719.6666666666667</ele><time>2026-04-12T07:47:07Z</time></trkpt><trkpt lat="40.93580337929963" lon="14.67308472846051"><ele>719.0</ele><time>2026-04-12T07:47:08Z</time></trkpt><trkpt lat="40.93572141852514" lon="14.67307896108307"><ele>718.3333333333334</ele><time>2026-04-12T07:47:11Z</time></trkpt><trkpt lat="40.93562099632334" lon="14.673132128891249"><ele>717.6666666666666</ele><time>2026-04-12T07:48:08Z</time></trkpt><trkpt lat="40.93555226207883" lon="14.673127337424908"><ele>717.0</ele><time>2026-04-12T07:48:10Z</time></trkpt><trkpt lat="40.93546292468218" lon="14.673156833325038"><ele>717.0</ele><time>2026-04-12T07:48:12Z</time></trkpt><trkpt lat="40.93539903664832" lon="14.67318394354212"><ele>717.0</ele><time>2026-04-12T07:48:13Z</time></trkpt><trkpt lat="40.93533545280692" lon="14.67321294960848"><ele>717.0</ele><time>2026-04-12T07:48:14Z</time></trkpt><trkpt lat="40.935257629505536" lon="14.673216752750763"><ele>717.0</ele><time>2026-04-12T07:48:15Z</time></trkpt><trkpt lat="40.93518570646344" lon="14.673223872639431"><ele>717.0</ele><time>2026-04-12T07:48:16Z</time></trkpt><trkpt lat="40.935063672784764" lon="14.673251234756323"><ele>717.0</ele><time>2026-04-12T07:48:18Z</time></trkpt><trkpt lat="40.934981895272514" lon="14.673278280862617"><ele>717.5</ele><time>2026-04-12T07:48:19Z</time></trkpt><trkpt lat="40.93490791934285" lon="14.673286905796287"><ele>718.0</ele><time>2026-04-12T07:48:20Z</time></trkpt><trkpt lat="40.93484032970264" lon="14.673275809492948"><ele>718.5</ele><time>2026-04-12T07:48:21Z</time></trkpt><trkpt lat="40.93476113290529" lon="14.673265655082096"><ele>719.0</ele><time>2026-04-12T07:48:22Z</time></trkpt><trkpt lat="40.93468537973816" lon="14.673227499358983"><ele>719.5</ele><time>2026-04-12T07:48:23Z</time></trkpt><trkpt lat="40.93460269372003" lon="14.673174290338228"><ele>720.0</ele><time>2026-04-12T07:48:24Z</time></trkpt><trkpt lat="40.93451643008583" lon="14.673118431597594"><ele>720.0</ele><time>2026-04-12T07:48:25Z</time></trkpt><trkpt lat="40.93446295729626" lon="14.673068876105145"><ele>720.0</ele><time>2026-04-12T07:48:26Z</time></trkpt><trkpt lat="40.93433925921822" lon="14.672974091654112"><ele>720.0</ele><time>2026-04-12T07:48:28Z</time></trkpt><trkpt lat="40.9342808997542" lon="14.672883951556013"><ele>720.0</ele><time>2026-04-12T07:48:29Z</time></trkpt><trkpt lat="40.93421040107022" lon="14.672828992620484"><ele>720.0</ele><time>2026-04-12T07:48:30Z</time></trkpt><trkpt lat="40.93413523710961" lon="14.672805942311651"><ele>720.8571428571428</ele><time>2026-04-12T07:48:31Z</time></trkpt><trkpt lat="40.93407656782333" lon="14.67276362342514"><ele>721.7142857142858</ele><time>2026-04-12T07:48:31.999Z</time></trkpt><trkpt lat="40.93403411608255" lon="14.672683428979363"><ele>722.5714285714286</ele><time>2026-04-12T07:48:32.999Z</time></trkpt><trkpt lat="40.93399116801671" lon="14.672602553260594"><ele>723.4285714285713</ele><time>2026-04-12T07:48:33.999Z</time></trkpt><trkpt lat="40.93393682023659" lon="14.672551104912682"><ele>724.2857142857142</ele><time>2026-04-12T07:48:34.999Z</time></trkpt><trkpt lat="40.933870132869274" lon="14.672509314786218"><ele>725.1428571428571</ele><time>2026-04-12T07:48:35.999Z</time></trkpt><trkpt lat="40.9338169139642" lon="14.672458114019243"><ele>726.0</ele><time>2026-04-12T07:48:36.999Z</time></trkpt><trkpt lat="40.93371919062497" lon="14.672382097728772"><ele>726.0</ele><time>2026-04-12T07:48:38.999Z</time></trkpt><trkpt lat="40.93366592631936" lon="14.672524577952322"><ele>726.0</ele><time>2026-04-12T07:48:41.999Z</time></trkpt><trkpt lat="40.9336642134125" lon="14.67265019944043"><ele>726.0</ele><time>2026-04-12T07:48:42.999Z</time></trkpt><trkpt lat="40.933641076032295" lon="14.672790654611191"><ele>726.0</ele><time>2026-04-12T07:48:44Z</time></trkpt><trkpt lat="40.93363818039349" lon="14.672953714292078"><ele>726.0</ele><time>2026-04-12T07:48:45Z</time></trkpt><trkpt lat="40.93364942340289" lon="14.673114832667029"><ele>724.75</ele><time>2026-04-12T07:48:46Z</time></trkpt><trkpt lat="40.93366240139254" lon="14.67326156996142"><ele>723.5</ele><time>2026-04-12T07:48:47Z</time></trkpt><trkpt lat="40.933651277118535" lon="14.673396506024332"><ele>722.25</ele><time>2026-04-12T07:48:48Z</time></trkpt><trkpt lat="40.93362460899228" lon="14.67356316014012"><ele>721.0</ele><time>2026-04-12T07:48:49Z</time></trkpt><trkpt lat="40.93359252024054" lon="14.673699276015277"><ele>717.5</ele><time>2026-04-12T07:48:50Z</time></trkpt><trkpt lat="40.9335498062555" lon="14.673833906865257"><ele>714.0</ele><time>2026-04-12T07:48:51Z</time></trkpt><trkpt lat="40.93350136699151" lon="14.673995221428196"><ele>710.5</ele><time>2026-04-12T07:48:52Z</time></trkpt><trkpt lat="40.93345317914709" lon="14.674147172548267"><ele>707.0</ele><time>2026-04-12T07:48:53Z</time></trkpt><trkpt lat="40.93340596119526" lon="14.67425161280721"><ele>706.6</ele><time>2026-04-12T07:48:54Z</time></trkpt><trkpt lat="40.93336710784243" lon="14.674358824714702"><ele>706.2</ele><time>2026-04-12T07:48:55Z</time></trkpt><trkpt lat="40.933314000223014" lon="14.674476145998874"><ele>705.8</ele><time>2026-04-12T07:48:56Z</time></trkpt><trkpt lat="40.93325757986084" lon="14.674570425925753"><ele>705.4</ele><time>2026-04-12T07:48:57Z</time></trkpt><trkpt lat="40.93318673621355" lon="14.674675949828831"><ele>705.0</ele><time>2026-04-12T07:48:58Z</time></trkpt><trkpt lat="40.93310126877542" lon="14.674805814049284"><ele>705.0</ele><time>2026-04-12T07:48:59Z</time></trkpt><trkpt lat="40.93300830387843" lon="14.67493251443539"><ele>705.0</ele><time>2026-04-12T07:49:00Z</time></trkpt><trkpt lat="40.932911148195736" lon="14.675057585493613"><ele>705.0</ele><time>2026-04-12T07:49:01Z</time></trkpt><trkpt lat="40.932818215617765" lon="14.675182332219238"><ele>705.0</ele><time>2026-04-12T07:49:02Z</time></trkpt><trkpt lat="40.93273060183246" lon="14.675262925761471"><ele>703.0</ele><time>2026-04-12T07:49:03Z</time></trkpt><trkpt lat="40.93263916752095" lon="14.67532624570083"><ele>701.0</ele><time>2026-04-12T07:49:04Z</time></trkpt><trkpt lat="40.93256459587816" lon="14.6753709358457"><ele>699.0</ele><time>2026-04-12T07:49:05Z</time></trkpt><trkpt lat="40.932476952534216" lon="14.675409040480423"><ele>697.0</ele><time>2026-04-12T07:49:06Z</time></trkpt><trkpt lat="40.93237217786882" lon="14.675406084093852"><ele>695.0</ele><time>2026-04-12T07:49:07Z</time></trkpt><trkpt lat="40.93228256759971" lon="14.675388736248447"><ele>694.3333333333333</ele><time>2026-04-12T07:49:08Z</time></trkpt><trkpt lat="40.93218986081201" lon="14.675343950685559"><ele>693.6666666666666</ele><time>2026-04-12T07:49:09Z</time></trkpt><trkpt lat="40.93209646552225" lon="14.6753223781896"><ele>693.0</ele><time>2026-04-12T07:49:10Z</time></trkpt><trkpt lat="40.93201727885976" lon="14.67529446313304"><ele>692.3333333333334</ele><time>2026-04-12T07:49:11Z</time></trkpt><trkpt lat="40.93196115377997" lon="14.675251329339355"><ele>691.6666666666667</ele><time>2026-04-12T07:49:12Z</time></trkpt><trkpt lat="40.93188677403317" lon="14.675235740981305"><ele>691.0</ele><time>2026-04-12T07:49:12.999Z</time></trkpt><trkpt lat="40.93180912485738" lon="14.675184542147685"><ele>691.0</ele><time>2026-04-12T07:49:13.999Z</time></trkpt><trkpt lat="40.93174269748367" lon="14.675124648107998"><ele>691.0</ele><time>2026-04-12T07:49:14.999Z</time></trkpt><trkpt lat="40.93167875395752" lon="14.675041889643683"><ele>691.0</ele><time>2026-04-12T07:49:16.999Z</time></trkpt><trkpt lat="40.93167176697" lon="14.675160932902045"><ele>691.0</ele><time>2026-04-12T07:49:21.999Z</time></trkpt><trkpt lat="40.93175783738808" lon="14.675283312830482"><ele>691.0</ele><time>2026-04-12T07:49:23.999Z</time></trkpt><trkpt lat="40.93181433394163" lon="14.67536556728883"><ele>691.0</ele><time>2026-04-12T07:49:24.999Z</time></trkpt><trkpt lat="40.93186733598962" lon="14.675428523573856"><ele>691.0</ele><time>2026-04-12T07:49:25.999Z</time></trkpt><trkpt lat="40.931937374999755" lon="14.675496452450126"><ele>691.0</ele><time>2026-04-12T07:49:26.999Z</time></trkpt><trkpt lat="40.9320401360801" lon="14.675576515162488"><ele>691.0</ele><time>2026-04-12T07:49:27.999Z</time></trkpt><trkpt lat="40.932131389100725" lon="14.675656009823097"><ele>691.0</ele><time>2026-04-12T07:49:28.999Z</time></trkpt><trkpt lat="40.93220983295446" lon="14.675720299256994"><ele>691.0</ele><time>2026-04-12T07:49:29.999Z</time></trkpt><trkpt lat="40.932287649619546" lon="14.675760602845768"><ele>691.0</ele><time>2026-04-12T07:49:30.999Z</time></trkpt><trkpt lat="40.93237149210022" lon="14.67578865198654"><ele>691.0</ele><time>2026-04-12T07:49:31.999Z</time></trkpt><trkpt lat="40.93247261780683" lon="14.675812600961585"><ele>691.0</ele><time>2026-04-12T07:49:32.999Z</time></trkpt><trkpt lat="40.932568669446695" lon="14.675829495720876"><ele>691.0</ele><time>2026-04-12T07:49:33.999Z</time></trkpt><trkpt lat="40.932684077931725" lon="14.675827894778248"><ele>691.6666666666667</ele><time>2026-04-12T07:49:34.999Z</time></trkpt><trkpt lat="40.93276444140847" lon="14.675775614470854"><ele>692.3333333333334</ele><time>2026-04-12T07:49:35.999Z</time></trkpt><trkpt lat="40.93281626414536" lon="14.675695817198136"><ele>693.0</ele><time>2026-04-12T07:49:36.999Z</time></trkpt><trkpt lat="40.93287307249113" lon="14.675589384644919"><ele>693.6666666666666</ele><time>2026-04-12T07:49:37.999Z</time></trkpt><trkpt lat="40.93294215683602" lon="14.675511611742653"><ele>694.3333333333333</ele><time>2026-04-12T07:49:38.999Z</time></trkpt><trkpt lat="40.93301953589963" lon="14.67546646668632"><ele>695.0</ele><time>2026-04-12T07:49:39.999Z</time></trkpt><trkpt lat="40.93311771831279" lon="14.675430248681401"><ele>695.0</ele><time>2026-04-12T07:49:40.999Z</time></trkpt><trkpt lat="40.93323769469586" lon="14.67538570838123"><ele>695.0</ele><time>2026-04-12T07:49:41.999Z</time></trkpt><trkpt lat="40.93337453399648" lon="14.675376875875676"><ele>695.0</ele><time>2026-04-12T07:49:42.999Z</time></trkpt><trkpt lat="40.93345253152233" lon="14.675316120678819"><ele>695.0</ele><time>2026-04-12T07:49:43.999Z</time></trkpt><trkpt lat="40.93352522654113" lon="14.675238161469386"><ele>695.0</ele><time>2026-04-12T07:49:44.999Z</time></trkpt><trkpt lat="40.933660618160296" lon="14.675197872912078"><ele>695.6</ele><time>2026-04-12T07:49:45.999Z</time></trkpt><trkpt lat="40.93376569628404" lon="14.675155978109725"><ele>696.2</ele><time>2026-04-12T07:49:46.999Z</time></trkpt><trkpt lat="40.93386341901823" lon="14.675115369206376"><ele>696.8</ele><time>2026-04-12T07:49:47.999Z</time></trkpt><trkpt lat="40.933967332318964" lon="14.675067281743713"><ele>697.4</ele><time>2026-04-12T07:49:48.999Z</time></trkpt><trkpt lat="40.93405270542918" lon="14.675021216545792"><ele>698.0</ele><time>2026-04-12T07:49:49.999Z</time></trkpt><trkpt lat="40.9341427778187" lon="14.674953858618517"><ele>699.4</ele><time>2026-04-12T07:49:50.999Z</time></trkpt><trkpt lat="40.934242142646944" lon="14.674919508442807"><ele>700.8</ele><time>2026-04-12T07:49:51.999Z</time></trkpt><trkpt lat="40.93435408754615" lon="14.67489348287434"><ele>702.2</ele><time>2026-04-12T07:49:52.999Z</time></trkpt><trkpt lat="40.934450734225756" lon="14.674863508816044"><ele>703.6</ele><time>2026-04-12T07:49:53.999Z</time></trkpt><trkpt lat="40.93452807157677" lon="14.67484646414428"><ele>705.0</ele><time>2026-04-12T07:49:54.999Z</time></trkpt><trkpt lat="40.93461104502346" lon="14.674840776166281"><ele>705.0</ele><time>2026-04-12T07:49:55.999Z</time></trkpt><trkpt lat="40.934703904750805" lon="14.674828451611578"><ele>705.0</ele><time>2026-04-12T07:49:56.999Z</time></trkpt><trkpt lat="40.93478790399548" lon="14.674805140798352"><ele>705.0</ele><time>2026-04-12T07:49:57.999Z</time></trkpt><trkpt lat="40.934843694580714" lon="14.674746029105282"><ele>705.0</ele><time>2026-04-12T07:49:58.999Z</time></trkpt><trkpt lat="40.93493056183831" lon="14.674725260902484"><ele>705.0</ele><time>2026-04-12T07:50:00.999Z</time></trkpt><trkpt lat="40.93495569218648" lon="14.67481114273123"><ele>705.0</ele><time>2026-04-12T07:50:04.999Z</time></trkpt><trkpt lat="40.93488766081552" lon="14.674857907900511"><ele>705.0</ele><time>2026-04-12T07:50:06.999Z</time></trkpt><trkpt lat="40.93480047021349" lon="14.674948511532802"><ele>705.0</ele><time>2026-04-12T07:50:09.999Z</time></trkpt><trkpt lat="40.93470402337321" lon="14.674996635561037"><ele>705.0</ele><time>2026-04-12T07:50:10.999Z</time></trkpt><trkpt lat="40.934590562490754" lon="14.675022550786588"><ele>705.0</ele><time>2026-04-12T07:50:11.999Z</time></trkpt><trkpt lat="40.93449002723729" lon="14.675045928851477"><ele>705.0</ele><time>2026-04-12T07:50:12.999Z</time></trkpt><trkpt lat="40.93439306133795" lon="14.675084042883563"><ele>705.0</ele><time>2026-04-12T07:50:13.999Z</time></trkpt><trkpt lat="40.934322065334946" lon="14.675120158487298"><ele>705.0</ele><time>2026-04-12T07:50:14.999Z</time></trkpt><trkpt lat="40.93425534007228" lon="14.675194320323058"><ele>705.0</ele><time>2026-04-12T07:50:15.999Z</time></trkpt><trkpt lat="40.93418391258458" lon="14.675273417173168"><ele>705.0</ele><time>2026-04-12T07:50:16.999Z</time></trkpt><trkpt lat="40.93412159282451" lon="14.675333898469418"><ele>705.0</ele><time>2026-04-12T07:50:17.999Z</time></trkpt><trkpt lat="40.9340706415122" lon="14.675386997388523"><ele>705.0</ele><time>2026-04-12T07:50:18.999Z</time></trkpt><trkpt lat="40.93408952111906" lon="14.675470863946709"><ele>705.1666666666666</ele><time>2026-04-12T07:50:20.999Z</time></trkpt><trkpt lat="40.93418144002927" lon="14.675606856658671"><ele>705.3333333333334</ele><time>2026-04-12T07:50:22.999Z</time></trkpt><trkpt lat="40.934227189232466" lon="14.675684180552219"><ele>705.5</ele><time>2026-04-12T07:50:23.999Z</time></trkpt><trkpt lat="40.934270198820165" lon="14.675792910117668"><ele>705.6666666666667</ele><time>2026-04-12T07:50:25.999Z</time></trkpt><trkpt lat="40.934289687508894" lon="14.675887384244032"><ele>705.8333333333334</ele><time>2026-04-12T07:50:27.999Z</time></trkpt><trkpt lat="40.93426054556651" lon="14.675970232301076"><ele>706.0</ele><time>2026-04-12T07:50:29.999Z</time></trkpt><trkpt lat="40.93415347561827" lon="14.676086228050961"><ele>710.4</ele><time>2026-04-12T07:50:31.999Z</time></trkpt><trkpt lat="40.93404243130846" lon="14.676174854849789"><ele>714.8</ele><time>2026-04-12T07:50:32.999Z</time></trkpt><trkpt lat="40.93396095222239" lon="14.67622772010978"><ele>719.1999999999999</ele><time>2026-04-12T07:50:33.999Z</time></trkpt><trkpt lat="40.9339022665895" lon="14.676259004715774"><ele>723.5999999999999</ele><time>2026-04-12T07:50:34.999Z</time></trkpt><trkpt lat="40.93385653413447" lon="14.676395156336326"><ele>728.0</ele><time>2026-04-12T07:50:36.999Z</time></trkpt><trkpt lat="40.933840359125774" lon="14.676491606531725"><ele>728.0</ele><time>2026-04-12T07:50:37.999Z</time></trkpt><trkpt lat="40.93377029482866" lon="14.676503347241512"><ele>728.0</ele><time>2026-04-12T07:50:41.999Z</time></trkpt><trkpt lat="40.93369616840311" lon="14.676488798171306"><ele>728.0</ele><time>2026-04-12T07:50:44.999Z</time></trkpt><trkpt lat="40.93358307811688" lon="14.676477268291926"><ele>728.0</ele><time>2026-04-12T07:50:46.999Z</time></trkpt><trkpt lat="40.93350606120368" lon="14.676530730371637"><ele>728.0</ele><time>2026-04-12T07:50:47.999Z</time></trkpt><trkpt lat="40.933439376429035" lon="14.67658990368461"><ele>728.0</ele><time>2026-04-12T07:50:48.999Z</time></trkpt><trkpt lat="40.93336897896364" lon="14.676647802431457"><ele>724.2</ele><time>2026-04-12T07:50:50Z</time></trkpt><trkpt lat="40.93328691245586" lon="14.676672760002107"><ele>720.4</ele><time>2026-04-12T07:50:51Z</time></trkpt><trkpt lat="40.933190486908515" lon="14.676694808836457"><ele>716.6</ele><time>2026-04-12T07:50:52Z</time></trkpt><trkpt lat="40.93312436914905" lon="14.676702373894841"><ele>712.8000000000001</ele><time>2026-04-12T07:50:53Z</time></trkpt><trkpt lat="40.93304417873382" lon="14.67680413341066"><ele>709.0</ele><time>2026-04-12T07:50:55Z</time></trkpt><trkpt lat="40.932941240243935" lon="14.676863443906614"><ele>709.0</ele><time>2026-04-12T07:50:57Z</time></trkpt><trkpt lat="40.93281628740891" lon="14.676898388653406"><ele>709.0</ele><time>2026-04-12T07:50:59Z</time></trkpt><trkpt lat="40.93273631465071" lon="14.676928752560046"><ele>709.0</ele><time>2026-04-12T07:51:00Z</time></trkpt><trkpt lat="40.932674054711384" lon="14.676977414086702"><ele>709.0</ele><time>2026-04-12T07:51:01Z</time></trkpt><trkpt lat="40.93261772924849" lon="14.677050182023537"><ele>709.0</ele><time>2026-04-12T07:51:02Z</time></trkpt><trkpt lat="40.93259662875797" lon="14.677145719567179"><ele>709.0</ele><time>2026-04-12T07:51:03Z</time></trkpt><trkpt lat="40.93261398811468" lon="14.677241274877902"><ele>708.5</ele><time>2026-04-12T07:51:04Z</time></trkpt><trkpt lat="40.932636714643074" lon="14.677354900699262"><ele>708.0</ele><time>2026-04-12T07:51:05Z</time></trkpt><trkpt lat="40.93263840013141" lon="14.677465469066641"><ele>707.5</ele><time>2026-04-12T07:51:06Z</time></trkpt><trkpt lat="40.93260996830165" lon="14.677544119107411"><ele>707.0</ele><time>2026-04-12T07:51:07Z</time></trkpt><trkpt lat="40.932519483858066" lon="14.677614777557453"><ele>706.5</ele><time>2026-04-12T07:51:09Z</time></trkpt><trkpt lat="40.93245305316742" lon="14.677613083272725"><ele>706.0</ele><time>2026-04-12T07:51:10Z</time></trkpt><trkpt lat="40.93238005756624" lon="14.677508534106137"><ele>706.0</ele><time>2026-04-12T07:51:12Z</time></trkpt><trkpt lat="40.93230446589651" lon="14.677393441404776"><ele>706.0</ele><time>2026-04-12T07:51:14Z</time></trkpt><trkpt lat="40.93225058866276" lon="14.677341765732265"><ele>706.0</ele><time>2026-04-12T07:51:15Z</time></trkpt><trkpt lat="40.932204949527815" lon="14.677242750141293"><ele>706.0</ele><time>2026-04-12T07:51:16Z</time></trkpt><trkpt lat="40.932156930918694" lon="14.677078686686722"><ele>706.0</ele><time>2026-04-12T07:51:17Z</time></trkpt><trkpt lat="40.93206602001356" lon="14.677030252682371"><ele>706.0</ele><time>2026-04-12T07:51:19Z</time></trkpt><trkpt lat="40.93199657286766" lon="14.677016740160294"><ele>706.0</ele><time>2026-04-12T07:51:20Z</time></trkpt><trkpt lat="40.93190522957374" lon="14.677013290905311"><ele>706.0</ele><time>2026-04-12T07:51:21Z</time></trkpt><trkpt lat="40.93181171811328" lon="14.677019194925627"><ele>706.0</ele><time>2026-04-12T07:51:22Z</time></trkpt><trkpt lat="40.93171515556823" lon="14.67700056900141"><ele>706.0</ele><time>2026-04-12T07:51:23Z</time></trkpt><trkpt lat="40.931626744708005" lon="14.676968010185611"><ele>706.0</ele><time>2026-04-12T07:51:24Z</time></trkpt><trkpt lat="40.931530560280486" lon="14.676951209851785"><ele>709.0</ele><time>2026-04-12T07:51:25Z</time></trkpt><trkpt lat="40.93142594540208" lon="14.676949873634559"><ele>712.0</ele><time>2026-04-12T07:51:26Z</time></trkpt><trkpt lat="40.93131329740534" lon="14.676954783156209"><ele>715.0</ele><time>2026-04-12T07:51:27Z</time></trkpt><trkpt lat="40.93122761882415" lon="14.6769532729994"><ele>718.0</ele><time>2026-04-12T07:51:28Z</time></trkpt><trkpt lat="40.93114592750552" lon="14.676928472186852"><ele>721.0</ele><time>2026-04-12T07:51:29Z</time></trkpt><trkpt lat="40.931054636947486" lon="14.676897195021343"><ele>715.5</ele><time>2026-04-12T07:51:30Z</time></trkpt><trkpt lat="40.93093205870803" lon="14.676847073473304"><ele>710.0</ele><time>2026-04-12T07:51:31Z</time></trkpt><trkpt lat="40.93079846179534" lon="14.676800299317875"><ele>704.5</ele><time>2026-04-12T07:51:32Z</time></trkpt><trkpt lat="40.93067548981001" lon="14.676747993790352"><ele>699.0</ele><time>2026-04-12T07:51:33Z</time></trkpt><trkpt lat="40.93056889703419" lon="14.676734905586319"><ele>699.0</ele><time>2026-04-12T07:51:34Z</time></trkpt><trkpt lat="40.930453975307465" lon="14.676708176534294"><ele>699.0</ele><time>2026-04-12T07:51:35Z</time></trkpt><trkpt lat="40.93033543652813" lon="14.6766878143652"><ele>699.0</ele><time>2026-04-12T07:51:36Z</time></trkpt><trkpt lat="40.930223477624445" lon="14.676692111672756"><ele>699.0</ele><time>2026-04-12T07:51:37Z</time></trkpt><trkpt lat="40.93012657538294" lon="14.676706588061288"><ele>699.0</ele><time>2026-04-12T07:51:38Z</time></trkpt><trkpt lat="40.93004680612435" lon="14.67672207197271"><ele>698.8333333333334</ele><time>2026-04-12T07:51:39Z</time></trkpt><trkpt lat="40.929925870251296" lon="14.676808884489718"><ele>698.6666666666666</ele><time>2026-04-12T07:51:40.999Z</time></trkpt><trkpt lat="40.92986784159582" lon="14.676862361286078"><ele>698.5</ele><time>2026-04-12T07:51:41.999Z</time></trkpt><trkpt lat="40.92981127491998" lon="14.676928028679978"><ele>698.3333333333333</ele><time>2026-04-12T07:51:42.999Z</time></trkpt><trkpt lat="40.92977150088484" lon="14.676999900011058"><ele>698.1666666666666</ele><time>2026-04-12T07:51:43.999Z</time></trkpt><trkpt lat="40.929739172908505" lon="14.67708218624691"><ele>698.0</ele><time>2026-04-12T07:51:44.999Z</time></trkpt><trkpt lat="40.92970870733204" lon="14.677186564131157"><ele>699.1666666666666</ele><time>2026-04-12T07:51:45.999Z</time></trkpt><trkpt lat="40.92971141793899" lon="14.677299159764878"><ele>700.3333333333333</ele><time>2026-04-12T07:51:46.999Z</time></trkpt><trkpt lat="40.929735103084404" lon="14.677410762769107"><ele>701.5</ele><time>2026-04-12T07:51:47.999Z</time></trkpt><trkpt lat="40.92974756469711" lon="14.677498302331532"><ele>702.6666666666666</ele><time>2026-04-12T07:51:48.999Z</time></trkpt><trkpt lat="40.929769292058786" lon="14.677599968421196"><ele>703.8333333333334</ele><time>2026-04-12T07:51:49.999Z</time></trkpt><trkpt lat="40.929785556018466" lon="14.677699138116234"><ele>705.0</ele><time>2026-04-12T07:51:50.999Z</time></trkpt><trkpt lat="40.929796695464965" lon="14.677800978891657"><ele>705.6666666666666</ele><time>2026-04-12T07:51:51.999Z</time></trkpt><trkpt lat="40.92983445675266" lon="14.677928459346541"><ele>706.3333333333334</ele><time>2026-04-12T07:51:52.999Z</time></trkpt><trkpt lat="40.929880412741724" lon="14.678061072700359"><ele>707.0</ele><time>2026-04-12T07:51:53.999Z</time></trkpt><trkpt lat="40.929916437031395" lon="14.678152629746648"><ele>707.6666666666667</ele><time>2026-04-12T07:51:54.999Z</time></trkpt><trkpt lat="40.929953387514985" lon="14.678227147649833"><ele>708.3333333333334</ele><time>2026-04-12T07:51:55.999Z</time></trkpt><trkpt lat="40.92993416295586" lon="14.678322841460904"><ele>709.0</ele><time>2026-04-12T07:51:57.999Z</time></trkpt><trkpt lat="40.92980497208074" lon="14.678350220111904"><ele>709.0</ele><time>2026-04-12T07:51:59.999Z</time></trkpt><trkpt lat="40.92972837750903" lon="14.678332162908063"><ele>709.0</ele><time>2026-04-12T07:52:00.999Z</time></trkpt><trkpt lat="40.929643119667325" lon="14.678329403908917"><ele>709.0</ele><time>2026-04-12T07:52:01.999Z</time></trkpt><trkpt lat="40.92951634422814" lon="14.678321587149123"><ele>709.0</ele><time>2026-04-12T07:52:02.999Z</time></trkpt><trkpt lat="40.92940696217644" lon="14.678318927162245"><ele>709.0</ele><time>2026-04-12T07:52:03.999Z</time></trkpt><trkpt lat="40.92931407443152" lon="14.678331926936403"><ele>705.6</ele><time>2026-04-12T07:52:04.999Z</time></trkpt><trkpt lat="40.92921707973123" lon="14.678374314812846"><ele>702.2</ele><time>2026-04-12T07:52:05.999Z</time></trkpt><trkpt lat="40.929124270977255" lon="14.678420102577789"><ele>698.8000000000001</ele><time>2026-04-12T07:52:06.999Z</time></trkpt><trkpt lat="40.92905943451267" lon="14.678471504978502"><ele>695.4000000000001</ele><time>2026-04-12T07:52:07.999Z</time></trkpt><trkpt lat="40.92896990498762" lon="14.67848066856836"><ele>692.0</ele><time>2026-04-12T07:52:08.999Z</time></trkpt><trkpt lat="40.928872379524826" lon="14.678438407834143"><ele>692.0</ele><time>2026-04-12T07:52:09.999Z</time></trkpt><trkpt lat="40.92877882490858" lon="14.678385292114088"><ele>692.0</ele><time>2026-04-12T07:52:10.999Z</time></trkpt><trkpt lat="40.928701029" lon="14.678324607324464"><ele>692.0</ele><time>2026-04-12T07:52:11.999Z</time></trkpt><trkpt lat="40.92863619523372" lon="14.678308551184005"><ele>692.0</ele><time>2026-04-12T07:52:12.999Z</time></trkpt><trkpt lat="40.928568109261306" lon="14.678319889917674"><ele>692.0</ele><time>2026-04-12T07:52:13.999Z</time></trkpt><trkpt lat="40.92848721990717" lon="14.678374481490222"><ele>692.0</ele><time>2026-04-12T07:52:14.999Z</time></trkpt><trkpt lat="40.928408970002906" lon="14.678472080234299"><ele>692.0</ele><time>2026-04-12T07:52:15.999Z</time></trkpt><trkpt lat="40.92833206521819" lon="14.67857889805442"><ele>692.0</ele><time>2026-04-12T07:52:16.999Z</time></trkpt><trkpt lat="40.9282762448763" lon="14.678666921543584"><ele>692.0</ele><time>2026-04-12T07:52:17.999Z</time></trkpt><trkpt lat="40.9282229259679" lon="14.678764475017536"><ele>692.0</ele><time>2026-04-12T07:52:18.999Z</time></trkpt><trkpt lat="40.92816615404237" lon="14.678840773333633"><ele>692.0</ele><time>2026-04-12T07:52:19.999Z</time></trkpt><trkpt lat="40.928156454419074" lon="14.678939790991567"><ele>692.0</ele><time>2026-04-12T07:52:20.999Z</time></trkpt><trkpt lat="40.92815596138505" lon="14.679048152771092"><ele>692.0</ele><time>2026-04-12T07:52:21.999Z</time></trkpt><trkpt lat="40.92816534115573" lon="14.679152333665735"><ele>692.0</ele><time>2026-04-12T07:52:22.999Z</time></trkpt><trkpt lat="40.92817794777586" lon="14.679262821493626"><ele>692.0</ele><time>2026-04-12T07:52:23.999Z</time></trkpt><trkpt lat="40.92818851700778" lon="14.679412872343976"><ele>692.0</ele><time>2026-04-12T07:52:25.999Z</time></trkpt><trkpt lat="40.928172322522755" lon="14.67954546257835"><ele>692.0</ele><time>2026-04-12T07:52:27.999Z</time></trkpt><trkpt lat="40.92811563798554" lon="14.679586229689225"><ele>692.0</ele><time>2026-04-12T07:52:28.999Z</time></trkpt><trkpt lat="40.9280547670441" lon="14.679564770321852"><ele>692.0</ele><time>2026-04-12T07:52:29.999Z</time></trkpt><trkpt lat="40.92797847184823" lon="14.679570293391803"><ele>692.0</ele><time>2026-04-12T07:52:30.999Z</time></trkpt><trkpt lat="40.927885868445564" lon="14.679538257465952"><ele>692.0</ele><time>2026-04-12T07:52:31.999Z</time></trkpt><trkpt lat="40.9278027492489" lon="14.679481122003711"><ele>692.0</ele><time>2026-04-12T07:52:32.999Z</time></trkpt><trkpt lat="40.92771733718349" lon="14.679421460823205"><ele>692.0</ele><time>2026-04-12T07:52:33.999Z</time></trkpt><trkpt lat="40.92764829202769" lon="14.67938001716639"><ele>692.0</ele><time>2026-04-12T07:52:34.999Z</time></trkpt><trkpt lat="40.92759904986987" lon="14.679312116549676"><ele>692.0</ele><time>2026-04-12T07:52:35.999Z</time></trkpt><trkpt lat="40.92756277256434" lon="14.679232451728986"><ele>692.0</ele><time>2026-04-12T07:52:36.999Z</time></trkpt><trkpt lat="40.9274939794886" lon="14.67915791051649"><ele>692.0</ele><time>2026-04-12T07:52:37.999Z</time></trkpt><trkpt lat="40.92739848132399" lon="14.67914955061929"><ele>692.0</ele><time>2026-04-12T07:52:38.999Z</time></trkpt><trkpt lat="40.92728203340528" lon="14.679141641967254"><ele>692.0</ele><time>2026-04-12T07:52:39.999Z</time></trkpt><trkpt lat="40.92716023790409" lon="14.679147181196056"><ele>689.25</ele><time>2026-04-12T07:52:40.999Z</time></trkpt><trkpt lat="40.92703720026298" lon="14.679171030130977"><ele>686.5</ele><time>2026-04-12T07:52:41.999Z</time></trkpt><trkpt lat="40.926917592277114" lon="14.679187543442175"><ele>683.75</ele><time>2026-04-12T07:52:42.999Z</time></trkpt><trkpt lat="40.92679831882051" lon="14.679198703141402"><ele>681.0</ele><time>2026-04-12T07:52:43.999Z</time></trkpt><trkpt lat="40.92668883104404" lon="14.679215119108427"><ele>679.75</ele><time>2026-04-12T07:52:44.999Z</time></trkpt><trkpt lat="40.92655571650928" lon="14.679211588382906"><ele>678.5</ele><time>2026-04-12T07:52:45.999Z</time></trkpt><trkpt lat="40.926416481203134" lon="14.679208893071744"><ele>677.25</ele><time>2026-04-12T07:52:46.999Z</time></trkpt><trkpt lat="40.92628308243278" lon="14.67918666420868"><ele>676.0</ele><time>2026-04-12T07:52:47.999Z</time></trkpt><trkpt lat="40.926187106385626" lon="14.679177905869327"><ele>676.0</ele><time>2026-04-12T07:52:48.999Z</time></trkpt><trkpt lat="40.926118122700515" lon="14.679191041236239"><ele>676.0</ele><time>2026-04-12T07:52:49.999Z</time></trkpt><trkpt lat="40.92605934312592" lon="14.679237885690236"><ele>676.0</ele><time>2026-04-12T07:52:51.999Z</time></trkpt><trkpt lat="40.92600905530263" lon="14.679398307273724"><ele>676.0</ele><time>2026-04-12T07:52:53.999Z</time></trkpt><trkpt lat="40.925957935404746" lon="14.679502299277635"><ele>676.0</ele><time>2026-04-12T07:52:54.999Z</time></trkpt><trkpt lat="40.92593502864751" lon="14.679595671298953"><ele>676.0</ele><time>2026-04-12T07:52:56Z</time></trkpt><trkpt lat="40.925887548421734" lon="14.679698324836444"><ele>679.1999999999999</ele><time>2026-04-12T07:52:58Z</time></trkpt><trkpt lat="40.92581798502894" lon="14.679703319795548"><ele>682.4</ele><time>2026-04-12T07:53:00Z</time></trkpt><trkpt lat="40.92574690576185" lon="14.679627868694764"><ele>685.6</ele><time>2026-04-12T07:53:01Z</time></trkpt><trkpt lat="40.925654938513844" lon="14.67957058609084"><ele>688.8</ele><time>2026-04-12T07:53:02Z</time></trkpt><trkpt lat="40.925540817455946" lon="14.679515794055051"><ele>692.0</ele><time>2026-04-12T07:53:03Z</time></trkpt><trkpt lat="40.925420131698395" lon="14.67946519326117"><ele>690.0</ele><time>2026-04-12T07:53:04Z</time></trkpt><trkpt lat="40.92533550205346" lon="14.679416216972937"><ele>688.0</ele><time>2026-04-12T07:53:05Z</time></trkpt><trkpt lat="40.925262286733236" lon="14.679365746507756"><ele>686.0</ele><time>2026-04-12T07:53:06Z</time></trkpt><trkpt lat="40.925169812839286" lon="14.679327769135181"><ele>684.0</ele><time>2026-04-12T07:53:07Z</time></trkpt><trkpt lat="40.92506301861258" lon="14.679311240432591"><ele>682.0</ele><time>2026-04-12T07:53:08Z</time></trkpt><trkpt lat="40.92496493214536" lon="14.679367909243604"><ele>682.6666666666667</ele><time>2026-04-12T07:53:10Z</time></trkpt><trkpt lat="40.92493586934285" lon="14.679480046342496"><ele>683.3333333333334</ele><time>2026-04-12T07:53:12Z</time></trkpt><trkpt lat="40.924967079008645" lon="14.679575096965515"><ele>684.0</ele><time>2026-04-12T07:53:14Z</time></trkpt><trkpt lat="40.925001563262676" lon="14.679674632110373"><ele>684.6666666666666</ele><time>2026-04-12T07:53:17Z</time></trkpt><trkpt lat="40.92501755860129" lon="14.679772338832624"><ele>685.3333333333333</ele><time>2026-04-12T07:53:18Z</time></trkpt><trkpt lat="40.92500071976708" lon="14.679881090905258"><ele>686.0</ele><time>2026-04-12T07:53:19Z</time></trkpt><trkpt lat="40.92499636610751" lon="14.679974551426046"><ele>686.0</ele><time>2026-04-12T07:53:20Z</time></trkpt><trkpt lat="40.9249913816316" lon="14.680089227341318"><ele>686.0</ele><time>2026-04-12T07:53:22Z</time></trkpt><trkpt lat="40.92495984158502" lon="14.680220426900949"><ele>686.0</ele><time>2026-04-12T07:53:24Z</time></trkpt><trkpt lat="40.9249342684129" lon="14.680324542614121"><ele>686.0</ele><time>2026-04-12T07:53:27Z</time></trkpt><trkpt lat="40.92488273793536" lon="14.680413267829428"><ele>686.0</ele><time>2026-04-12T07:53:30Z</time></trkpt><trkpt lat="40.924804566406" lon="14.680465465157114"><ele>686.0</ele><time>2026-04-12T07:53:35Z</time></trkpt><trkpt lat="40.924751366689435" lon="14.68052194252608"><ele>687.8333333333333</ele><time>2026-04-12T07:53:39Z</time></trkpt><trkpt lat="40.92473380813721" lon="14.680610991168397"><ele>689.6666666666666</ele><time>2026-04-12T07:53:42Z</time></trkpt><trkpt lat="40.92469685550029" lon="14.6806982491301"><ele>691.5</ele><time>2026-04-12T07:53:45Z</time></trkpt><trkpt lat="40.924650095175735" lon="14.68077430410554"><ele>693.3333333333334</ele><time>2026-04-12T07:53:48Z</time></trkpt><trkpt lat="40.92459112264039" lon="14.680856116393487"><ele>695.1666666666667</ele><time>2026-04-12T07:53:51Z</time></trkpt><trkpt lat="40.924554334127464" lon="14.680953717166362"><ele>697.0</ele><time>2026-04-12T07:53:54Z</time></trkpt><trkpt lat="40.92449051546079" lon="14.681066398817906"><ele>714.0</ele><time>2026-04-12T07:53:57Z</time></trkpt><trkpt lat="40.92416876548604" lon="14.681527538776887"><ele>714.0</ele><time>2026-04-12T07:53:59Z</time></trkpt><trkpt lat="40.92409911684967" lon="14.681648230694227"><ele>714.0</ele><time>2026-04-12T07:54:01Z</time></trkpt><trkpt lat="40.924058768146494" lon="14.681744752789038"><ele>714.0</ele><time>2026-04-12T07:54:03Z</time></trkpt><trkpt lat="40.92402123653609" lon="14.681830921635987"><ele>714.0</ele><time>2026-04-12T07:54:06Z</time></trkpt><trkpt lat="40.92403258989503" lon="14.681918315329886"><ele>714.0</ele><time>2026-04-12T07:54:08Z</time></trkpt><trkpt lat="40.92403600403802" lon="14.682035985803727"><ele>714.0</ele><time>2026-04-12T07:54:10Z</time></trkpt><trkpt lat="40.92403899179641" lon="14.682161290655388"><ele>716.4000000000001</ele><time>2026-04-12T07:54:12Z</time></trkpt><trkpt lat="40.924071793207055" lon="14.682234445693565"><ele>718.8</ele><time>2026-04-12T07:54:29.999Z</time></trkpt><trkpt lat="40.924094608452634" lon="14.682350986297504"><ele>721.2</ele><time>2026-04-12T07:54:32.999Z</time></trkpt><trkpt lat="40.92410773187632" lon="14.682509662554724"><ele>723.5999999999999</ele><time>2026-04-12T07:54:35.999Z</time></trkpt><trkpt lat="40.92412608300401" lon="14.682626090466156"><ele>726.0</ele><time>2026-04-12T07:54:36.999Z</time></trkpt><trkpt lat="40.92413906356541" lon="14.682744476331672"><ele>727.5</ele><time>2026-04-12T07:54:37.999Z</time></trkpt><trkpt lat="40.924139482332976" lon="14.68287169239155"><ele>729.0</ele><time>2026-04-12T07:54:38.999Z</time></trkpt><trkpt lat="40.92414707569662" lon="14.682975463074046"><ele>730.5</ele><time>2026-04-12T07:54:39.999Z</time></trkpt><trkpt lat="40.92416439129932" lon="14.683069565289287"><ele>732.0</ele><time>2026-04-12T07:54:40.999Z</time></trkpt><trkpt lat="40.92418312723711" lon="14.683166034523007"><ele>733.5</ele><time>2026-04-12T07:54:41.999Z</time></trkpt><trkpt lat="40.924201973617826" lon="14.683268886302107"><ele>735.0</ele><time>2026-04-12T07:54:42.999Z</time></trkpt><trkpt lat="40.92423366899688" lon="14.683379479952345"><ele>737.0</ele><time>2026-04-12T07:54:43.999Z</time></trkpt><trkpt lat="40.92425688484742" lon="14.683472907478524"><ele>739.0</ele><time>2026-04-12T07:54:44.999Z</time></trkpt><trkpt lat="40.92424645597156" lon="14.683591347652442"><ele>741.0</ele><time>2026-04-12T07:54:46.999Z</time></trkpt><trkpt lat="40.924152718563036" lon="14.683703261187079"><ele>743.0</ele><time>2026-04-12T07:54:48.999Z</time></trkpt><trkpt lat="40.92409491215511" lon="14.683749917599048"><ele>745.0</ele><time>2026-04-12T07:54:51.999Z</time></trkpt><trkpt lat="40.92409229271758" lon="14.683850830438915"><ele>747.0</ele><time>2026-04-12T07:55:02Z</time></trkpt><trkpt lat="40.92411397316212" lon="14.683979058803427"><ele>747.0</ele><time>2026-04-12T07:55:04Z</time></trkpt><trkpt lat="40.924147771952555" lon="14.684094930018887"><ele>747.0</ele><time>2026-04-12T07:55:07Z</time></trkpt><trkpt lat="40.92415477684923" lon="14.684187681877368"><ele>747.0</ele><time>2026-04-12T07:55:10Z</time></trkpt><trkpt lat="40.924174579123374" lon="14.684279974013112"><ele>747.0</ele><time>2026-04-12T07:55:12Z</time></trkpt><trkpt lat="40.9241580080032" lon="14.684366788122427"><ele>747.0</ele><time>2026-04-12T07:55:14Z</time></trkpt><trkpt lat="40.924119626418765" lon="14.684484522758265"><ele>747.0</ele><time>2026-04-12T07:55:17Z</time></trkpt><trkpt lat="40.92412789907246" lon="14.684613160590239"><ele>749.8</ele><time>2026-04-12T07:55:20Z</time></trkpt><trkpt lat="40.924145671256376" lon="14.684729965658315"><ele>752.6</ele><time>2026-04-12T07:55:23Z</time></trkpt><trkpt lat="40.92416916379769" lon="14.684812623022513"><ele>755.4</ele><time>2026-04-12T07:55:25Z</time></trkpt><trkpt lat="40.92416375400623" lon="14.684926082187664"><ele>758.1999999999999</ele><time>2026-04-12T07:55:28Z</time></trkpt><trkpt lat="40.92417599513131" lon="14.685150818999539"><ele>761.0</ele><time>2026-04-12T07:55:31Z</time></trkpt><trkpt lat="40.92418830128172" lon="14.685254032544483"><ele>767.3333333333333</ele><time>2026-04-12T07:55:33Z</time></trkpt><trkpt lat="40.92414716717063" lon="14.685647622392645"><ele>773.6666666666666</ele><time>2026-04-12T07:55:35Z</time></trkpt><trkpt lat="40.92414852183507" lon="14.685753865473698"><ele>780.0</ele><time>2026-04-12T07:55:37Z</time></trkpt><trkpt lat="40.92413760668392" lon="14.685867791770994"><ele>780.0</ele><time>2026-04-12T07:55:39Z</time></trkpt><trkpt lat="40.92412981190225" lon="14.685973836548476"><ele>780.0</ele><time>2026-04-12T07:55:42Z</time></trkpt><trkpt lat="40.92412416020538" lon="14.686084286773397"><ele>780.0</ele><time>2026-04-12T07:55:44Z</time></trkpt><trkpt lat="40.92411377164155" lon="14.68623277860265"><ele>780.0</ele><time>2026-04-12T07:55:46Z</time></trkpt><trkpt lat="40.924117407222006" lon="14.686339708115518"><ele>780.0</ele><time>2026-04-12T07:55:48Z</time></trkpt><trkpt lat="40.92411319533637" lon="14.686441030436905"><ele>780.0</ele><time>2026-04-12T07:55:51Z</time></trkpt><trkpt lat="40.92409751417695" lon="14.686523431150459"><ele>784.5</ele><time>2026-04-12T07:55:53Z</time></trkpt><trkpt lat="40.924080323469596" lon="14.686605474017815"><ele>789.0</ele><time>2026-04-12T07:55:55Z</time></trkpt><trkpt lat="40.92407544500954" lon="14.68669017269084"><ele>793.5</ele><time>2026-04-12T07:55:57Z</time></trkpt><trkpt lat="40.92404893103557" lon="14.686774496868445"><ele>798.0</ele><time>2026-04-12T07:55:59Z</time></trkpt><trkpt lat="40.92392855683378" lon="14.687211876402394"><ele>801.2</ele><time>2026-04-12T07:56:03Z</time></trkpt><trkpt lat="40.92387587705834" lon="14.687361747924577"><ele>804.4</ele><time>2026-04-12T07:56:05Z</time></trkpt><trkpt lat="40.92384837607771" lon="14.687440851559279"><ele>807.6</ele><time>2026-04-12T07:56:06Z</time></trkpt><trkpt lat="40.92382904807148" lon="14.687562601053367"><ele>810.8000000000001</ele><time>2026-04-12T07:56:08Z</time></trkpt><trkpt lat="40.923822678741374" lon="14.68768210782195"><ele>814.0</ele><time>2026-04-12T07:56:10Z</time></trkpt><trkpt lat="40.923812547942866" lon="14.687837269526549"><ele>816.9999999999999</ele><time>2026-04-12T07:56:12Z</time></trkpt><trkpt lat="40.92380935452364" lon="14.687929227302355"><ele>820.0</ele><time>2026-04-12T07:56:13Z</time></trkpt><trkpt lat="40.92380347382763" lon="14.688019373430476"><ele>823.0</ele><time>2026-04-12T07:56:14Z</time></trkpt><trkpt lat="40.923793440423665" lon="14.68810666087427"><ele>826.0</ele><time>2026-04-12T07:56:15Z</time></trkpt><trkpt lat="40.92372934362385" lon="14.6882394530201"><ele>828.9999999999999</ele><time>2026-04-12T07:56:17Z</time></trkpt><trkpt lat="40.923728478168734" lon="14.688362837604691"><ele>832.0</ele><time>2026-04-12T07:56:25Z</time></trkpt><trkpt lat="40.92371327421848" lon="14.688459239922887"><ele>831.9999999999999</ele><time>2026-04-12T07:56:28Z</time></trkpt><trkpt lat="40.92373435450416" lon="14.688537809099358"><ele>832.0</ele><time>2026-04-12T07:56:32Z</time></trkpt><trkpt lat="40.92370807304788" lon="14.688627690982063"><ele>832.0</ele><time>2026-04-12T07:56:35Z</time></trkpt><trkpt lat="40.92369998149154" lon="14.688732406531221"><ele>832.0</ele><time>2026-04-12T07:56:38Z</time></trkpt><trkpt lat="40.92364705862731" lon="14.688837760065836"><ele>831.9999999999999</ele><time>2026-04-12T07:56:41Z</time></trkpt><trkpt lat="40.923645016739584" lon="14.688943621395062"><ele>832.0</ele><time>2026-04-12T07:56:45Z</time></trkpt><trkpt lat="40.92361046519567" lon="14.689019473021462"><ele>835.4000000000001</ele><time>2026-04-12T07:56:48Z</time></trkpt><trkpt lat="40.923590959461876" lon="14.689158979856218"><ele>838.8000000000001</ele><time>2026-04-12T07:56:50Z</time></trkpt><trkpt lat="40.92357444471675" lon="14.68924512311439"><ele>842.2</ele><time>2026-04-12T07:56:50.999Z</time></trkpt><trkpt lat="40.923545613949" lon="14.689378060179726"><ele>845.6</ele><time>2026-04-12T07:56:52.999Z</time></trkpt><trkpt lat="40.923495361685625" lon="14.68950957482593"><ele>849.0</ele><time>2026-04-12T07:56:54.999Z</time></trkpt><trkpt lat="40.92346209967859" lon="14.689596143239207"><ele>852.1666666666666</ele><time>2026-04-12T07:56:58.999Z</time></trkpt><trkpt lat="40.92344036850332" lon="14.689721588834963"><ele>855.3333333333333</ele><time>2026-04-12T07:57:01.999Z</time></trkpt><trkpt lat="40.923425302687264" lon="14.689808238257262"><ele>858.5</ele><time>2026-04-12T07:57:02.999Z</time></trkpt><trkpt lat="40.92340597387724" lon="14.689891671102828"><ele>861.6666666666666</ele><time>2026-04-12T07:57:03.999Z</time></trkpt><trkpt lat="40.92340629182872" lon="14.690017835109202"><ele>864.8333333333333</ele><time>2026-04-12T07:57:05.999Z</time></trkpt><trkpt lat="40.92342033374228" lon="14.690139600521956"><ele>868.0</ele><time>2026-04-12T07:57:08Z</time></trkpt><trkpt lat="40.92340476911039" lon="14.690231187283814"><ele>869.5714285714286</ele><time>2026-04-12T07:57:11Z</time></trkpt><trkpt lat="40.923399290298285" lon="14.690340894162347"><ele>871.1428571428571</ele><time>2026-04-12T07:57:15Z</time></trkpt><trkpt lat="40.923405506754584" lon="14.69043606075817"><ele>872.7142857142858</ele><time>2026-04-12T07:57:19Z</time></trkpt><trkpt lat="40.92338972998491" lon="14.690519416590535"><ele>874.2857142857142</ele><time>2026-04-12T07:57:25Z</time></trkpt><trkpt lat="40.92344470354152" lon="14.690567076008497"><ele>875.8571428571429</ele><time>2026-04-12T07:58:34Z</time></trkpt><trkpt lat="40.92348338242333" lon="14.690650092826338"><ele>877.4285714285714</ele><time>2026-04-12T08:02:50Z</time></trkpt><trkpt lat="40.92355015180236" lon="14.69068495923528"><ele>879.0</ele><time>2026-04-12T08:02:52Z</time></trkpt><trkpt lat="40.923673014501865" lon="14.69069174881009"><ele>879.0</ele><time>2026-04-12T08:02:54Z</time></trkpt><trkpt lat="40.923730933087285" lon="14.690754426793605"><ele>879.0</ele><time>2026-04-12T08:02:56Z</time></trkpt><trkpt lat="40.92378245817746" lon="14.690847451279469"><ele>879.0</ele><time>2026-04-12T08:02:58Z</time></trkpt><trkpt lat="40.92384573718346" lon="14.690949877455727"><ele>879.0</ele><time>2026-04-12T08:03:00Z</time></trkpt><trkpt lat="40.92387764600105" lon="14.691065076677155"><ele>879.0</ele><time>2026-04-12T08:03:03Z</time></trkpt><trkpt lat="40.923901325489545" lon="14.69116570146428"><ele>879.0</ele><time>2026-04-12T08:03:07Z</time></trkpt><trkpt lat="40.92389572515429" lon="14.69128319803863"><ele>879.8333333333334</ele><time>2026-04-12T08:03:09Z</time></trkpt><trkpt lat="40.92387534617778" lon="14.691396477522485"><ele>880.6666666666667</ele><time>2026-04-12T08:03:11Z</time></trkpt><trkpt lat="40.92386491171659" lon="14.691491583144153"><ele>881.5</ele><time>2026-04-12T08:03:14Z</time></trkpt><trkpt lat="40.92387461200271" lon="14.691594436214586"><ele>882.3333333333334</ele><time>2026-04-12T08:03:16Z</time></trkpt><trkpt lat="40.92389044083659" lon="14.691685993180053"><ele>883.1666666666667</ele><time>2026-04-12T08:03:18Z</time></trkpt><trkpt lat="40.92394153658043" lon="14.691791233187253"><ele>884.0</ele><time>2026-04-12T08:03:20Z</time></trkpt><trkpt lat="40.923948576539246" lon="14.691934705705703"><ele>885.6</ele><time>2026-04-12T08:03:24Z</time></trkpt><trkpt lat="40.92393858390453" lon="14.692060473242542"><ele>887.2</ele><time>2026-04-12T08:03:26Z</time></trkpt><trkpt lat="40.92398764978354" lon="14.69215336857115"><ele>888.8000000000001</ele><time>2026-04-12T08:03:28Z</time></trkpt><trkpt lat="40.92402067059168" lon="14.692256850313429"><ele>890.4000000000001</ele><time>2026-04-12T08:03:30Z</time></trkpt><trkpt lat="40.924070895242885" lon="14.69236695733974"><ele>892.0</ele><time>2026-04-12T08:03:32Z</time></trkpt><trkpt lat="40.924130763291366" lon="14.6925009445028"><ele>892.0</ele><time>2026-04-12T08:03:34Z</time></trkpt><trkpt lat="40.92422191105378" lon="14.692611816587554"><ele>892.0</ele><time>2026-04-12T08:03:36Z</time></trkpt><trkpt lat="40.92428388495707" lon="14.69265161561553"><ele>892.0</ele><time>2026-04-12T08:03:37Z</time></trkpt><trkpt lat="40.924367074577155" lon="14.692747969204515"><ele>892.0</ele><time>2026-04-12T08:03:39Z</time></trkpt><trkpt lat="40.92443297550794" lon="14.692778200923534"><ele>892.0</ele><time>2026-04-12T08:03:42Z</time></trkpt><trkpt lat="40.924511190105775" lon="14.692840065043184"><ele>896.4999999999999</ele><time>2026-04-12T08:03:46Z</time></trkpt><trkpt lat="40.924635551271855" lon="14.692859532324873"><ele>901.0</ele><time>2026-04-12T08:03:49Z</time></trkpt><trkpt lat="40.92470653551757" lon="14.69284269584723"><ele>905.5</ele><time>2026-04-12T08:03:51Z</time></trkpt><trkpt lat="40.924771496970045" lon="14.692865751680145"><ele>910.0</ele><time>2026-04-12T08:03:54Z</time></trkpt><trkpt lat="40.92482177497585" lon="14.692943660856605"><ele>914.4999999999999</ele><time>2026-04-12T08:04:37Z</time></trkpt><trkpt lat="40.92487201855621" lon="14.692995403805977"><ele>919.0</ele><time>2026-04-12T08:04:39Z</time></trkpt><trkpt lat="40.924904862589386" lon="14.693097596809013"><ele>919.0</ele><time>2026-04-12T08:04:42Z</time></trkpt><trkpt lat="40.92489228589813" lon="14.693204401946662"><ele>919.0000000000001</ele><time>2026-04-12T08:04:44Z</time></trkpt><trkpt lat="40.92489075640653" lon="14.693327334855342"><ele>919.0000000000001</ele><time>2026-04-12T08:04:46Z</time></trkpt><trkpt lat="40.92491528127301" lon="14.693471727021414"><ele>919.0</ele><time>2026-04-12T08:04:48Z</time></trkpt><trkpt lat="40.92494316015626" lon="14.693589966830809"><ele>919.0</ele><time>2026-04-12T08:04:50Z</time></trkpt><trkpt lat="40.92498842138532" lon="14.693714373257018"><ele>919.8000000000001</ele><time>2026-04-12T08:04:52Z</time></trkpt><trkpt lat="40.925048507374925" lon="14.693834284294716"><ele>920.6000000000001</ele><time>2026-04-12T08:04:54Z</time></trkpt><trkpt lat="40.925055542500765" lon="14.693955729966065"><ele>921.4</ele><time>2026-04-12T08:04:56Z</time></trkpt><trkpt lat="40.92513495246288" lon="14.694064577610956"><ele>922.2</ele><time>2026-04-12T08:04:58Z</time></trkpt><trkpt lat="40.9252094092681" lon="14.694186510764764"><ele>923.0</ele><time>2026-04-12T08:05:00Z</time></trkpt><trkpt lat="40.92526574554135" lon="14.694318975075262"><ele>924.0</ele><time>2026-04-12T08:05:02Z</time></trkpt><trkpt lat="40.92532936214915" lon="14.694444391073802"><ele>925.0</ele><time>2026-04-12T08:05:04Z</time></trkpt><trkpt lat="40.92538327228472" lon="14.694589495049248"><ele>926.0</ele><time>2026-04-12T08:05:06Z</time></trkpt><trkpt lat="40.92543380133139" lon="14.694746023005342"><ele>927.0</ele><time>2026-04-12T08:05:08Z</time></trkpt><trkpt lat="40.92547313317848" lon="14.694832410506715"><ele>928.0</ele><time>2026-04-12T08:05:09Z</time></trkpt><trkpt lat="40.925514981380495" lon="14.69491761902242"><ele>927.9999999999999</ele><time>2026-04-12T08:05:10Z</time></trkpt><trkpt lat="40.92556519238764" lon="14.695024623527123"><ele>928.0</ele><time>2026-04-12T08:05:11Z</time></trkpt><trkpt lat="40.925594374058214" lon="14.69511901866137"><ele>928.0</ele><time>2026-04-12T08:05:12Z</time></trkpt><trkpt lat="40.92564432274133" lon="14.69519680594632"><ele>928.0</ele><time>2026-04-12T08:05:13Z</time></trkpt><trkpt lat="40.92572162494389" lon="14.69525704053483"><ele>927.9999999999999</ele><time>2026-04-12T08:05:14Z</time></trkpt><trkpt lat="40.92580142100237" lon="14.695297807036518"><ele>928.0</ele><time>2026-04-12T08:05:15Z</time></trkpt><trkpt lat="40.92588390288769" lon="14.695360979214755"><ele>929.8</ele><time>2026-04-12T08:05:16Z</time></trkpt><trkpt lat="40.925989656979276" lon="14.695390058271945"><ele>931.5999999999999</ele><time>2026-04-12T08:05:17Z</time></trkpt><trkpt lat="40.92609175798271" lon="14.695443128281243"><ele>933.4000000000001</ele><time>2026-04-12T08:05:18Z</time></trkpt><trkpt lat="40.92619598665785" lon="14.695493414779566"><ele>935.2</ele><time>2026-04-12T08:05:19Z</time></trkpt><trkpt lat="40.926291875372904" lon="14.695569065883728"><ele>937.0</ele><time>2026-04-12T08:05:20Z</time></trkpt><trkpt lat="40.92638306221723" lon="14.695650190471444"><ele>936.9999999999999</ele><time>2026-04-12T08:05:21Z</time></trkpt><trkpt lat="40.92645622459214" lon="14.695716192684731"><ele>937.0</ele><time>2026-04-12T08:05:22Z</time></trkpt><trkpt lat="40.926526384595576" lon="14.695816086118967"><ele>937.0</ele><time>2026-04-12T08:05:23Z</time></trkpt><trkpt lat="40.92660142924034" lon="14.695859216771638"><ele>937.0</ele><time>2026-04-12T08:05:24Z</time></trkpt><trkpt lat="40.926665573976344" lon="14.695879657760846"><ele>936.9999999999999</ele><time>2026-04-12T08:05:25Z</time></trkpt><trkpt lat="40.9267632039286" lon="14.695864490991577"><ele>937.0</ele><time>2026-04-12T08:05:27Z</time></trkpt><trkpt lat="40.92686517260403" lon="14.695905589589474"><ele>943.5</ele><time>2026-04-12T08:05:29Z</time></trkpt><trkpt lat="40.92696750865587" lon="14.695972271656554"><ele>950.0</ele><time>2026-04-12T08:05:31Z</time></trkpt><trkpt lat="40.927079159729864" lon="14.695952772219991"><ele>956.5</ele><time>2026-04-12T08:05:33Z</time></trkpt><trkpt lat="40.92717304992205" lon="14.695867526865726"><ele>963.0</ele><time>2026-04-12T08:05:35Z</time></trkpt><trkpt lat="40.92727429885307" lon="14.695793877485439"><ele>963.0</ele><time>2026-04-12T08:05:37Z</time></trkpt><trkpt lat="40.92733472117574" lon="14.695706637688044"><ele>963.0</ele><time>2026-04-12T08:05:39Z</time></trkpt><trkpt lat="40.9274052484131" lon="14.695714197426575"><ele>963.0</ele><time>2026-04-12T08:05:40Z</time></trkpt><trkpt lat="40.927518553657414" lon="14.695695330325893"><ele>963.0</ele><time>2026-04-12T08:05:42Z</time></trkpt><trkpt lat="40.9275823260645" lon="14.695690009692443"><ele>963.0</ele><time>2026-04-12T08:05:43Z</time></trkpt><trkpt lat="40.92765043192849" lon="14.695716134150633"><ele>963.0</ele><time>2026-04-12T08:05:44Z</time></trkpt><trkpt lat="40.927772370486004" lon="14.69570051054051"><ele>965.3333333333334</ele><time>2026-04-12T08:05:46Z</time></trkpt><trkpt lat="40.92784579229811" lon="14.695676066852943"><ele>967.6666666666667</ele><time>2026-04-12T08:05:47Z</time></trkpt><trkpt lat="40.92791052965304" lon="14.695642009050621"><ele>970.0</ele><time>2026-04-12T08:05:48Z</time></trkpt><trkpt lat="40.927980702989316" lon="14.695620930114826"><ele>972.3333333333334</ele><time>2026-04-12T08:05:49Z</time></trkpt><trkpt lat="40.92806212247872" lon="14.69559801598342"><ele>974.6666666666667</ele><time>2026-04-12T08:05:50Z</time></trkpt><trkpt lat="40.928150092747494" lon="14.695594964811022"><ele>977.0</ele><time>2026-04-12T08:05:51Z</time></trkpt><trkpt lat="40.928226898939855" lon="14.695603157391375"><ele>977.0</ele><time>2026-04-12T08:05:52Z</time></trkpt><trkpt lat="40.92833992871957" lon="14.695648913750524"><ele>977.0</ele><time>2026-04-12T08:05:54Z</time></trkpt><trkpt lat="40.928446637995066" lon="14.69567605838171"><ele>977.0</ele><time>2026-04-12T08:05:56Z</time></trkpt><trkpt lat="40.9285134025872" lon="14.69568867046808"><ele>977.0</ele><time>2026-04-12T08:05:57Z</time></trkpt><trkpt lat="40.92861440427363" lon="14.69570559511185"><ele>977.0</ele><time>2026-04-12T08:05:58Z</time></trkpt><trkpt lat="40.92867747511982" lon="14.69569168690943"><ele>977.8333333333334</ele><time>2026-04-12T08:05:59Z</time></trkpt><trkpt lat="40.92874561666712" lon="14.695679257792607"><ele>978.6666666666667</ele><time>2026-04-12T08:06:00Z</time></trkpt><trkpt lat="40.928834177699216" lon="14.695623903776537"><ele>979.5</ele><time>2026-04-12T08:06:02Z</time></trkpt><trkpt lat="40.928901044116586" lon="14.69559734512117"><ele>980.3333333333333</ele><time>2026-04-12T08:06:03Z</time></trkpt><trkpt lat="40.928958139738114" lon="14.695537077046744"><ele>981.1666666666666</ele><time>2026-04-12T08:06:04Z</time></trkpt><trkpt lat="40.92901429326561" lon="14.69548578195836"><ele>982.0</ele><time>2026-04-12T08:06:05Z</time></trkpt><trkpt lat="40.92910466701864" lon="14.69544999069128"><ele>981.9999999999999</ele><time>2026-04-12T08:06:07Z</time></trkpt><trkpt lat="40.92916677595596" lon="14.69542403008134"><ele>982.0</ele><time>2026-04-12T08:06:08Z</time></trkpt><trkpt lat="40.92920094126536" lon="14.695348789913213"><ele>982.0</ele><time>2026-04-12T08:06:09Z</time></trkpt><trkpt lat="40.9292245398913" lon="14.69527041385153"><ele>982.0</ele><time>2026-04-12T08:06:10Z</time></trkpt><trkpt lat="40.92924218349168" lon="14.69513592808018"><ele>981.9999999999999</ele><time>2026-04-12T08:06:12Z</time></trkpt><trkpt lat="40.92929640791044" lon="14.695058709347714"><ele>982.0</ele><time>2026-04-12T08:06:14Z</time></trkpt><trkpt lat="40.929348258281564" lon="14.694991336257152"><ele>983.1666666666666</ele><time>2026-04-12T08:06:16Z</time></trkpt><trkpt lat="40.92940665976246" lon="14.69490785391358"><ele>984.3333333333333</ele><time>2026-04-12T08:06:19Z</time></trkpt><trkpt lat="40.92941769668223" lon="14.694818274424772"><ele>985.5</ele><time>2026-04-12T08:06:22Z</time></trkpt><trkpt lat="40.92946422976799" lon="14.694737315155386"><ele>986.6666666666667</ele><time>2026-04-12T08:06:26Z</time></trkpt><trkpt lat="40.92953239026232" lon="14.694691591297037"><ele>987.8333333333334</ele><time>2026-04-12T08:06:28.999Z</time></trkpt><trkpt lat="40.92961226691276" lon="14.694654607739093"><ele>989.0</ele><time>2026-04-12T08:06:31.999Z</time></trkpt><trkpt lat="40.92969750833876" lon="14.694657103933203"><ele>989.0</ele><time>2026-04-12T08:06:34.999Z</time></trkpt><trkpt lat="40.92976698858995" lon="14.694619756767228"><ele>989.0</ele><time>2026-04-12T08:06:37.999Z</time></trkpt><trkpt lat="40.92980391599177" lon="14.694532989149469"><ele>989.0</ele><time>2026-04-12T08:06:39.999Z</time></trkpt><trkpt lat="40.93054417053197" lon="14.694210466124263"><ele>991.1666666666667</ele><time>2026-04-12T08:06:40.999Z</time></trkpt><trkpt lat="40.9306301918531" lon="14.6941778430412"><ele>993.3333333333334</ele><time>2026-04-12T08:06:41.999Z</time></trkpt><trkpt lat="40.93072079258507" lon="14.69415583484851"><ele>995.5</ele><time>2026-04-12T08:06:42.999Z</time></trkpt><trkpt lat="40.93079848000237" lon="14.694142332737712"><ele>997.6666666666667</ele><time>2026-04-12T08:06:43.999Z</time></trkpt><trkpt lat="40.93087592553947" lon="14.69414832148688"><ele>999.8333333333334</ele><time>2026-04-12T08:06:44.999Z</time></trkpt><trkpt lat="40.93095209156306" lon="14.694154531139239"><ele>1002.0</ele><time>2026-04-12T08:06:45.999Z</time></trkpt><trkpt lat="40.93102844279526" lon="14.694155038360584"><ele>1003.0</ele><time>2026-04-12T08:06:46.999Z</time></trkpt><trkpt lat="40.93110662544273" lon="14.694129104164924"><ele>1004.0</ele><time>2026-04-12T08:06:48.999Z</time></trkpt><trkpt lat="40.931172359811505" lon="14.694111822932626"><ele>1005.0</ele><time>2026-04-12T08:06:51.999Z</time></trkpt><trkpt lat="40.93125026772684" lon="14.694091920563444"><ele>1006.0</ele><time>2026-04-12T08:06:53.999Z</time></trkpt><trkpt lat="40.93135013769677" lon="14.694063395751101"><ele>1007.0</ele><time>2026-04-12T08:06:55.999Z</time></trkpt><trkpt lat="40.931421379863224" lon="14.694048278807582"><ele>1008.0</ele><time>2026-04-12T08:06:56.999Z</time></trkpt><trkpt lat="40.931601816374304" lon="14.69395254553411"><ele>1008.0</ele><time>2026-04-12T08:06:59.999Z</time></trkpt><trkpt lat="40.93167398647267" lon="14.6939268427794"><ele>1008.0</ele><time>2026-04-12T08:07:00.999Z</time></trkpt><trkpt lat="40.931751620609795" lon="14.69390036962205"><ele>1008.0</ele><time>2026-04-12T08:07:01.999Z</time></trkpt><trkpt lat="40.931489464613634" lon="14.694025050978018"><ele>1008.0</ele><time>2026-04-12T08:07:02.999Z</time></trkpt><trkpt lat="40.931563911207476" lon="14.694002273258386"><ele>1008.0</ele><time>2026-04-12T08:07:03.999Z</time></trkpt><trkpt lat="40.93165132678407" lon="14.69398757391804"><ele>1008.0</ele><time>2026-04-12T08:07:04.999Z</time></trkpt><trkpt lat="40.93174304903305" lon="14.693978808968295"><ele>1008.0</ele><time>2026-04-12T08:07:05.999Z</time></trkpt><trkpt lat="40.93187161640404" lon="14.693986235362797"><ele>1008.0</ele><time>2026-04-12T08:07:06.999Z</time></trkpt><trkpt lat="40.93196503970304" lon="14.693971124364314"><ele>1008.0</ele><time>2026-04-12T08:07:07.999Z</time></trkpt><trkpt lat="40.932032754627606" lon="14.693948544416982"><ele>1010.4</ele><time>2026-04-12T08:07:08.999Z</time></trkpt><trkpt lat="40.93216103143301" lon="14.693830330430018"><ele>1012.8</ele><time>2026-04-12T08:07:10.999Z</time></trkpt><trkpt lat="40.932235331516985" lon="14.693751153117697"><ele>1015.2</ele><time>2026-04-12T08:07:11.999Z</time></trkpt><trkpt lat="40.93229949938566" lon="14.693679037915155"><ele>1017.6</ele><time>2026-04-12T08:07:12.999Z</time></trkpt><trkpt lat="40.93238197266699" lon="14.69360159719243"><ele>1020.0</ele><time>2026-04-12T08:07:13.999Z</time></trkpt><trkpt lat="40.932462447127314" lon="14.693538827284218"><ele>1020.0</ele><time>2026-04-12T08:07:14.999Z</time></trkpt><trkpt lat="40.93254991384396" lon="14.693490044583191"><ele>1020.0</ele><time>2026-04-12T08:07:15.999Z</time></trkpt><trkpt lat="40.93263051835433" lon="14.693444260106771"><ele>1020.0</ele><time>2026-04-12T08:07:16.999Z</time></trkpt><trkpt lat="40.932715328506944" lon="14.693369750926664"><ele>1020.0</ele><time>2026-04-12T08:07:17.999Z</time></trkpt><trkpt lat="40.93279339063844" lon="14.693290141549717"><ele>1020.0</ele><time>2026-04-12T08:07:18.999Z</time></trkpt><trkpt lat="40.932871488460435" lon="14.69321902417639"><ele>1021.2</ele><time>2026-04-12T08:07:19.999Z</time></trkpt><trkpt lat="40.932916676514594" lon="14.693134313873703"><ele>1022.4</ele><time>2026-04-12T08:07:20.999Z</time></trkpt><trkpt lat="40.93301436051262" lon="14.69302806438159"><ele>1023.5999999999999</ele><time>2026-04-12T08:07:22.999Z</time></trkpt><trkpt lat="40.93307876122096" lon="14.69296976781191"><ele>1024.8</ele><time>2026-04-12T08:07:23.999Z</time></trkpt><trkpt lat="40.93321131647794" lon="14.692924966743309"><ele>1026.0</ele><time>2026-04-12T08:07:25.999Z</time></trkpt><trkpt lat="40.93327266064943" lon="14.69290334038076"><ele>1026.0</ele><time>2026-04-12T08:07:27.999Z</time></trkpt><trkpt lat="40.933338384472485" lon="14.692847851706572"><ele>1026.0</ele><time>2026-04-12T08:07:29.999Z</time></trkpt><trkpt lat="40.93343557545759" lon="14.692760591802333"><ele>1026.0</ele><time>2026-04-12T08:07:31.999Z</time></trkpt><trkpt lat="40.933503662196784" lon="14.692719952235137"><ele>1026.0</ele><time>2026-04-12T08:07:33.999Z</time></trkpt><trkpt lat="40.933602702424864" lon="14.692655095016608"><ele>1026.0</ele><time>2026-04-12T08:07:36.999Z</time></trkpt><trkpt lat="40.93384880084022" lon="14.692496807842126"><ele>1025.6</ele><time>2026-04-12T08:07:39Z</time></trkpt><trkpt lat="40.933924731022465" lon="14.692372850625512"><ele>1025.1999999999998</ele><time>2026-04-12T08:07:41Z</time></trkpt><trkpt lat="40.93398876264853" lon="14.692237958471498"><ele>1024.8000000000002</ele><time>2026-04-12T08:07:43Z</time></trkpt><trkpt lat="40.93403653616778" lon="14.69215584898817"><ele>1024.4</ele><time>2026-04-12T08:07:44Z</time></trkpt><trkpt lat="40.93408015398669" lon="14.692069646737881"><ele>1024.0</ele><time>2026-04-12T08:07:45Z</time></trkpt><trkpt lat="40.93414585480428" lon="14.691990116316882"><ele>1025.25</ele><time>2026-04-12T08:07:46Z</time></trkpt><trkpt lat="40.93424724100735" lon="14.691912552779767"><ele>1026.5</ele><time>2026-04-12T08:07:47Z</time></trkpt><trkpt lat="40.934380162177206" lon="14.691822605416462"><ele>1027.75</ele><time>2026-04-12T08:07:48Z</time></trkpt><trkpt lat="40.93450143942572" lon="14.69174996791154"><ele>1029.0</ele><time>2026-04-12T08:07:49Z</time></trkpt><trkpt lat="40.934627162196236" lon="14.691676654221547"><ele>1029.0</ele><time>2026-04-12T08:07:50Z</time></trkpt><trkpt lat="40.934772272543356" lon="14.691596445633639"><ele>1029.0</ele><time>2026-04-12T08:07:51Z</time></trkpt><trkpt lat="40.93490763121742" lon="14.691529938222603"><ele>1029.0</ele><time>2026-04-12T08:07:52Z</time></trkpt><trkpt lat="40.93503293471681" lon="14.691483055840813"><ele>1029.0</ele><time>2026-04-12T08:07:53Z</time></trkpt><trkpt lat="40.935146692019984" lon="14.691433116569536"><ele>1031.0</ele><time>2026-04-12T08:07:54Z</time></trkpt><trkpt lat="40.93524665147947" lon="14.691373883995613"><ele>1033.0</ele><time>2026-04-12T08:07:55Z</time></trkpt><trkpt lat="40.935328058963684" lon="14.691289687492006"><ele>1035.0</ele><time>2026-04-12T08:07:56Z</time></trkpt><trkpt lat="40.935405538723295" lon="14.691202895073483"><ele>1037.0</ele><time>2026-04-12T08:07:57Z</time></trkpt><trkpt lat="40.935467053117236" lon="14.69110322784272"><ele>1039.0</ele><time>2026-04-12T08:07:58Z</time></trkpt><trkpt lat="40.9355645050297" lon="14.69104366212025"><ele>1039.0</ele><time>2026-04-12T08:07:59Z</time></trkpt><trkpt lat="40.935637745264025" lon="14.690948972967368"><ele>1039.0</ele><time>2026-04-12T08:08:00Z</time></trkpt><trkpt lat="40.935692730998376" lon="14.690856895705954"><ele>1039.0</ele><time>2026-04-12T08:08:01Z</time></trkpt><trkpt lat="40.93575925547527" lon="14.690789708180539"><ele>1039.0</ele><time>2026-04-12T08:08:02Z</time></trkpt><trkpt lat="40.93582527262728" lon="14.69072168472843"><ele>1039.0</ele><time>2026-04-12T08:08:03Z</time></trkpt><trkpt lat="40.935892495155976" lon="14.690637502737424"><ele>1042.6666666666665</ele><time>2026-04-12T08:08:04Z</time></trkpt><trkpt lat="40.93596405543879" lon="14.690569749527478"><ele>1046.3333333333333</ele><time>2026-04-12T08:08:05Z</time></trkpt><trkpt lat="40.93601998350095" lon="14.6905197294071"><ele>1050.0</ele><time>2026-04-12T08:08:06Z</time></trkpt><trkpt lat="40.93611019027318" lon="14.6904952791596"><ele>1053.6666666666667</ele><time>2026-04-12T08:08:07Z</time></trkpt><trkpt lat="40.936201607638594" lon="14.690498064170658"><ele>1057.3333333333335</ele><time>2026-04-12T08:08:08Z</time></trkpt><trkpt lat="40.93629031212055" lon="14.69053310065935"><ele>1061.0</ele><time>2026-04-12T08:08:09Z</time></trkpt><trkpt lat="40.936372347924944" lon="14.690536990496733"><ele>1061.0</ele><time>2026-04-12T08:08:10Z</time></trkpt><trkpt lat="40.93644576211797" lon="14.690518224325945"><ele>1061.0</ele><time>2026-04-12T08:08:11Z</time></trkpt><trkpt lat="40.936541786266446" lon="14.690495884624607"><ele>1061.0</ele><time>2026-04-12T08:08:12Z</time></trkpt><trkpt lat="40.93662725508679" lon="14.690440161982853"><ele>1061.0</ele><time>2026-04-12T08:08:13Z</time></trkpt><trkpt lat="40.93672770038944" lon="14.6904039365257"><ele>1061.0</ele><time>2026-04-12T08:08:14Z</time></trkpt><trkpt lat="40.93681948918138" lon="14.690373075329623"><ele>1062.8</ele><time>2026-04-12T08:08:15Z</time></trkpt><trkpt lat="40.93688891690049" lon="14.690364354275381"><ele>1064.6</ele><time>2026-04-12T08:08:16Z</time></trkpt><trkpt lat="40.93696536927133" lon="14.69030209410546"><ele>1066.4</ele><time>2026-04-12T08:08:17.999Z</time></trkpt><trkpt lat="40.9370078071103" lon="14.690116937777235"><ele>1068.2</ele><time>2026-04-12T08:08:19.999Z</time></trkpt><trkpt lat="40.93705222423755" lon="14.690024938511245"><ele>1070.0</ele><time>2026-04-12T08:08:20.999Z</time></trkpt><trkpt lat="40.93709516147484" lon="14.689883665851156"><ele>1070.0</ele><time>2026-04-12T08:08:21.999Z</time></trkpt><trkpt lat="40.93713819664018" lon="14.689778951969277"><ele>1070.0</ele><time>2026-04-12T08:08:22.999Z</time></trkpt><trkpt lat="40.93719736585805" lon="14.689717633362278"><ele>1070.0</ele><time>2026-04-12T08:08:24.999Z</time></trkpt><trkpt lat="40.9372465633943" lon="14.689639714022313"><ele>1070.0</ele><time>2026-04-12T08:08:26.999Z</time></trkpt><trkpt lat="40.93731237233768" lon="14.689635515236873"><ele>1070.0</ele><time>2026-04-12T08:08:29.999Z</time></trkpt><trkpt lat="40.93737370038489" lon="14.689559797925833"><ele>1070.0</ele><time>2026-04-12T08:08:31.999Z</time></trkpt><trkpt lat="40.937471099593985" lon="14.689482574312894"><ele>1071.0</ele><time>2026-04-12T08:08:33.999Z</time></trkpt><trkpt lat="40.93756234437084" lon="14.68943113380107"><ele>1072.0</ele><time>2026-04-12T08:08:34.999Z</time></trkpt><trkpt lat="40.93764541700659" lon="14.689357972094253"><ele>1073.0</ele><time>2026-04-12T08:08:35.999Z</time></trkpt><trkpt lat="40.93775210608226" lon="14.689273593538164"><ele>1074.0</ele><time>2026-04-12T08:08:36.999Z</time></trkpt><trkpt lat="40.93785083334553" lon="14.689202747354775"><ele>1075.0</ele><time>2026-04-12T08:08:37.999Z</time></trkpt><trkpt lat="40.93796813910268" lon="14.6891188098618"><ele>1075.0</ele><time>2026-04-12T08:08:38.999Z</time></trkpt><trkpt lat="40.93809535535329" lon="14.689046320888773"><ele>1075.0</ele><time>2026-04-12T08:08:39.999Z</time></trkpt><trkpt lat="40.93820292475058" lon="14.688957310773914"><ele>1075.0</ele><time>2026-04-12T08:08:40.999Z</time></trkpt><trkpt lat="40.93832287424172" lon="14.68889448931102"><ele>1075.0</ele><time>2026-04-12T08:08:41.999Z</time></trkpt><trkpt lat="40.93838507091124" lon="14.688798924944765"><ele>1075.8</ele><time>2026-04-12T08:08:42.999Z</time></trkpt><trkpt lat="40.93844061155221" lon="14.688673204514348"><ele>1076.6</ele><time>2026-04-12T08:08:43.999Z</time></trkpt><trkpt lat="40.9384913819465" lon="14.688549692018318"><ele>1077.4</ele><time>2026-04-12T08:08:44.999Z</time></trkpt><trkpt lat="40.938566130455875" lon="14.688450824092133"><ele>1078.2</ele><time>2026-04-12T08:08:45.999Z</time></trkpt><trkpt lat="40.9386409525827" lon="14.688372803450944"><ele>1079.0</ele><time>2026-04-12T08:08:46.999Z</time></trkpt><trkpt lat="40.93868634272025" lon="14.688311076414712"><ele>1079.0</ele><time>2026-04-12T08:08:47.999Z</time></trkpt><trkpt lat="40.93873997318029" lon="14.688242901266296"><ele>1079.0</ele><time>2026-04-12T08:08:48.999Z</time></trkpt><trkpt lat="40.93878346802068" lon="14.688171794826873"><ele>1079.0</ele><time>2026-04-12T08:08:49.999Z</time></trkpt><trkpt lat="40.93884087366568" lon="14.688106761405832"><ele>1079.0</ele><time>2026-04-12T08:08:50.999Z</time></trkpt><trkpt lat="40.93889845207086" lon="14.68801055035682"><ele>1079.0</ele><time>2026-04-12T08:08:51.999Z</time></trkpt><trkpt lat="40.93900059061772" lon="14.687929517435313"><ele>1079.0</ele><time>2026-04-12T08:08:52.999Z</time></trkpt><trkpt lat="40.93908037886822" lon="14.687856151295978"><ele>1074.8</ele><time>2026-04-12T08:08:53.999Z</time></trkpt><trkpt lat="40.939140638120165" lon="14.687743629781899"><ele>1070.6000000000001</ele><time>2026-04-12T08:08:55.999Z</time></trkpt><trkpt lat="40.939141718621045" lon="14.687615615279253"><ele>1066.4</ele><time>2026-04-12T08:08:56.999Z</time></trkpt><trkpt lat="40.93915878462866" lon="14.68752012187152"><ele>1062.2</ele><time>2026-04-12T08:08:57.999Z</time></trkpt><trkpt lat="40.939192984229635" lon="14.68741602270705"><ele>1058.0</ele><time>2026-04-12T08:08:58.999Z</time></trkpt><trkpt lat="40.9392622817558" lon="14.687304964590787"><ele>1063.0</ele><time>2026-04-12T08:08:59.999Z</time></trkpt><trkpt lat="40.93932017735824" lon="14.687173581854895"><ele>1068.0</ele><time>2026-04-12T08:09:00.999Z</time></trkpt><trkpt lat="40.939384651578" lon="14.687063426531163"><ele>1073.0</ele><time>2026-04-12T08:09:01.999Z</time></trkpt><trkpt lat="40.93945744871518" lon="14.6869514145285"><ele>1078.0</ele><time>2026-04-12T08:09:02.999Z</time></trkpt><trkpt lat="40.939549538215026" lon="14.686841869591326"><ele>1078.0</ele><time>2026-04-12T08:09:03.999Z</time></trkpt><trkpt lat="40.939639121374555" lon="14.686729545732005"><ele>1078.0</ele><time>2026-04-12T08:09:04.999Z</time></trkpt><trkpt lat="40.93972217744799" lon="14.686605985074879"><ele>1078.0</ele><time>2026-04-12T08:09:05.999Z</time></trkpt><trkpt lat="40.93978927627977" lon="14.686471385980827"><ele>1078.0</ele><time>2026-04-12T08:09:06.999Z</time></trkpt><trkpt lat="40.93985017770883" lon="14.686339301044537"><ele>1078.0</ele><time>2026-04-12T08:09:07.999Z</time></trkpt><trkpt lat="40.93990988443437" lon="14.686235996266507"><ele>1078.0</ele><time>2026-04-12T08:09:08.999Z</time></trkpt><trkpt lat="40.93996629207329" lon="14.686169962722781"><ele>1078.0</ele><time>2026-04-12T08:09:09.999Z</time></trkpt><trkpt lat="40.94007604446713" lon="14.686101128732384"><ele>1078.0</ele><time>2026-04-12T08:09:11.999Z</time></trkpt><trkpt lat="40.940152128446876" lon="14.686068155310458"><ele>1078.0</ele><time>2026-04-12T08:09:12.999Z</time></trkpt><trkpt lat="40.94021876526432" lon="14.68601671876109"><ele>1080.6</ele><time>2026-04-12T08:09:13.999Z</time></trkpt><trkpt lat="40.94029052371688" lon="14.685967375782862"><ele>1083.1999999999998</ele><time>2026-04-12T08:09:14.999Z</time></trkpt><trkpt lat="40.94036971499817" lon="14.685926479863035"><ele>1085.8</ele><time>2026-04-12T08:09:15.999Z</time></trkpt><trkpt lat="40.9404565557837" lon="14.68586766999426"><ele>1088.3999999999999</ele><time>2026-04-12T08:09:16.999Z</time></trkpt><trkpt lat="40.94051989408199" lon="14.685774710963008"><ele>1091.0</ele><time>2026-04-12T08:09:17.999Z</time></trkpt><trkpt lat="40.94058604466319" lon="14.685682063527107"><ele>1091.0</ele><time>2026-04-12T08:09:18.999Z</time></trkpt><trkpt lat="40.940655716847786" lon="14.685605808013861"><ele>1091.0</ele><time>2026-04-12T08:09:19.999Z</time></trkpt><trkpt lat="40.94072238361126" lon="14.685511806283621"><ele>1091.0</ele><time>2026-04-12T08:09:20.999Z</time></trkpt><trkpt lat="40.940786975866786" lon="14.685404675922465"><ele>1091.0</ele><time>2026-04-12T08:09:21.999Z</time></trkpt><trkpt lat="40.940854709444736" lon="14.685335286630794"><ele>1091.0</ele><time>2026-04-12T08:09:22.999Z</time></trkpt><trkpt lat="40.94093433511347" lon="14.685271375767392"><ele>1090.0</ele><time>2026-04-12T08:09:23.999Z</time></trkpt><trkpt lat="40.94103379783097" lon="14.685180699698508"><ele>1089.0</ele><time>2026-04-12T08:09:24.999Z</time></trkpt><trkpt lat="40.941121114459015" lon="14.685098702602845"><ele>1088.0</ele><time>2026-04-12T08:09:25.999Z</time></trkpt><trkpt lat="40.94119938589582" lon="14.685045658420778"><ele>1087.0</ele><time>2026-04-12T08:09:26.999Z</time></trkpt><trkpt lat="40.94129106630712" lon="14.685009786145582"><ele>1086.0</ele><time>2026-04-12T08:09:27.999Z</time></trkpt><trkpt lat="40.941376381727224" lon="14.684964577819231"><ele>1086.0</ele><time>2026-04-12T08:09:28.999Z</time></trkpt><trkpt lat="40.94146605439195" lon="14.68492672175992"><ele>1086.0</ele><time>2026-04-12T08:09:29.999Z</time></trkpt><trkpt lat="40.94156719757604" lon="14.684902517220044"><ele>1086.0</ele><time>2026-04-12T08:09:30.999Z</time></trkpt><trkpt lat="40.94166714286386" lon="14.684876557872824"><ele>1086.0</ele><time>2026-04-12T08:09:31.999Z</time></trkpt><trkpt lat="40.94178017434953" lon="14.68487419138876"><ele>1086.0</ele><time>2026-04-12T08:09:32.999Z</time></trkpt><trkpt lat="40.94188296675112" lon="14.684872549467508"><ele>1085.3999999999999</ele><time>2026-04-12T08:09:33.999Z</time></trkpt><trkpt lat="40.94199530360281" lon="14.684891838410993"><ele>1084.8</ele><time>2026-04-12T08:09:34.999Z</time></trkpt><trkpt lat="40.94210334938475" lon="14.684912552326224"><ele>1084.1999999999998</ele><time>2026-04-12T08:09:35.999Z</time></trkpt><trkpt lat="40.942210378538626" lon="14.684948632409785"><ele>1083.6</ele><time>2026-04-12T08:09:36.999Z</time></trkpt><trkpt lat="40.94228856949375" lon="14.685001340347467"><ele>1083.0</ele><time>2026-04-12T08:09:37.999Z</time></trkpt><trkpt lat="40.942355274954245" lon="14.685037772433994"><ele>1083.0</ele><time>2026-04-12T08:09:38.999Z</time></trkpt><trkpt lat="40.942430652257144" lon="14.685118220218119"><ele>1083.0</ele><time>2026-04-12T08:09:40.999Z</time></trkpt><trkpt lat="40.94246433189635" lon="14.68520496503771"><ele>1083.0</ele><time>2026-04-12T08:09:41.999Z</time></trkpt><trkpt lat="40.942514242105055" lon="14.68529660279875"><ele>1083.0</ele><time>2026-04-12T08:09:42.999Z</time></trkpt><trkpt lat="40.942559001947046" lon="14.685403029746423"><ele>1083.0</ele><time>2026-04-12T08:09:44Z</time></trkpt><trkpt lat="40.942587146190135" lon="14.685516899857369"><ele>1083.0</ele><time>2026-04-12T08:09:45Z</time></trkpt><trkpt lat="40.942621545858174" lon="14.685619915434431"><ele>1082.0</ele><time>2026-04-12T08:09:46Z</time></trkpt><trkpt lat="40.94266423975695" lon="14.685724858987166"><ele>1081.0</ele><time>2026-04-12T08:09:47Z</time></trkpt><trkpt lat="40.942713001880996" lon="14.685852544089547"><ele>1080.0</ele><time>2026-04-12T08:09:48Z</time></trkpt><trkpt lat="40.94277569402386" lon="14.685970970949764"><ele>1079.0</ele><time>2026-04-12T08:09:49Z</time></trkpt><trkpt lat="40.942822841472" lon="14.686090846767879"><ele>1078.0</ele><time>2026-04-12T08:09:50Z</time></trkpt><trkpt lat="40.94286878820119" lon="14.686210121885331"><ele>1078.0</ele><time>2026-04-12T08:09:51Z</time></trkpt><trkpt lat="40.94290694855281" lon="14.686364929738875"><ele>1078.0</ele><time>2026-04-12T08:09:52Z</time></trkpt><trkpt lat="40.94294959543141" lon="14.686546264913726"><ele>1078.0</ele><time>2026-04-12T08:09:53Z</time></trkpt><trkpt lat="40.94298695957349" lon="14.68673170627568"><ele>1078.0</ele><time>2026-04-12T08:09:54Z</time></trkpt><trkpt lat="40.943004021459664" lon="14.686926252016855"><ele>1080.0</ele><time>2026-04-12T08:09:55Z</time></trkpt><trkpt lat="40.943036217059024" lon="14.687110285847954"><ele>1082.0</ele><time>2026-04-12T08:09:56Z</time></trkpt><trkpt lat="40.9430887971748" lon="14.687289031569462"><ele>1084.0</ele><time>2026-04-12T08:09:57Z</time></trkpt><trkpt lat="40.94312801093041" lon="14.68747883824173"><ele>1086.0</ele><time>2026-04-12T08:09:58Z</time></trkpt><trkpt lat="40.94316435088337" lon="14.687654767431273"><ele>1087.8</ele><time>2026-04-12T08:09:59Z</time></trkpt><trkpt lat="40.94319921663358" lon="14.68780439255776"><ele>1089.6</ele><time>2026-04-12T08:10:00Z</time></trkpt><trkpt lat="40.943261003215895" lon="14.68794662976461"><ele>1091.4</ele><time>2026-04-12T08:10:01Z</time></trkpt><trkpt lat="40.94327992709794" lon="14.68806059073569"><ele>1093.2</ele><time>2026-04-12T08:10:02Z</time></trkpt><trkpt lat="40.94329357691462" lon="14.688181065006185"><ele>1095.0</ele><time>2026-04-12T08:10:03Z</time></trkpt><trkpt lat="40.943330395376385" lon="14.688309690385086"><ele>1095.0</ele><time>2026-04-12T08:10:04Z</time></trkpt><trkpt lat="40.94337040267506" lon="14.68844350171676"><ele>1095.0</ele><time>2026-04-12T08:10:05Z</time></trkpt><trkpt lat="40.943428158322014" lon="14.6885893414522"><ele>1095.0</ele><time>2026-04-12T08:10:06Z</time></trkpt><trkpt lat="40.94347459203896" lon="14.688746421405202"><ele>1095.0</ele><time>2026-04-12T08:10:07Z</time></trkpt><trkpt lat="40.943533027508835" lon="14.688913628811893"><ele>1093.75</ele><time>2026-04-12T08:10:08Z</time></trkpt><trkpt lat="40.94358632275997" lon="14.68907177154208"><ele>1092.5</ele><time>2026-04-12T08:10:09Z</time></trkpt><trkpt lat="40.94367338088874" lon="14.689219469934276"><ele>1091.25</ele><time>2026-04-12T08:10:10Z</time></trkpt><trkpt lat="40.94376529660211" lon="14.689356078621293"><ele>1090.0</ele><time>2026-04-12T08:10:11Z</time></trkpt><trkpt lat="40.9438718367905" lon="14.68949637531477"><ele>1091.0</ele><time>2026-04-12T08:10:12Z</time></trkpt><trkpt lat="40.943963551167144" lon="14.689634375899955"><ele>1092.0</ele><time>2026-04-12T08:10:13Z</time></trkpt><trkpt lat="40.94406817198555" lon="14.689705048685546"><ele>1093.0</ele><time>2026-04-12T08:10:14Z</time></trkpt><trkpt lat="40.94419202373983" lon="14.6897767117217"><ele>1094.0</ele><time>2026-04-12T08:10:15Z</time></trkpt><trkpt lat="40.94429006264964" lon="14.689855303055412"><ele>1094.0</ele><time>2026-04-12T08:10:16Z</time></trkpt><trkpt lat="40.944411286097136" lon="14.689910388149094"><ele>1094.0</ele><time>2026-04-12T08:10:17Z</time></trkpt><trkpt lat="40.944515487127646" lon="14.689975225317712"><ele>1094.0</ele><time>2026-04-12T08:10:18Z</time></trkpt><trkpt lat="40.94462612910003" lon="14.690018730073074"><ele>1094.0</ele><time>2026-04-12T08:10:19Z</time></trkpt><trkpt lat="40.94471669631679" lon="14.69009091998213"><ele>1094.0</ele><time>2026-04-12T08:10:20Z</time></trkpt><trkpt lat="40.94480530625608" lon="14.690190510048334"><ele>1094.0</ele><time>2026-04-12T08:10:21Z</time></trkpt><trkpt lat="40.944899104493615" lon="14.690316726304191"><ele>1094.0</ele><time>2026-04-12T08:10:22Z</time></trkpt><trkpt lat="40.94500153664149" lon="14.690407243852528"><ele>1094.0</ele><time>2026-04-12T08:10:23Z</time></trkpt><trkpt lat="40.94510264724717" lon="14.690492966831098"><ele>1095.25</ele><time>2026-04-12T08:10:24Z</time></trkpt><trkpt lat="40.94523834857125" lon="14.690601621118457"><ele>1096.5</ele><time>2026-04-12T08:10:25Z</time></trkpt><trkpt lat="40.945358257942985" lon="14.690690723252816"><ele>1097.75</ele><time>2026-04-12T08:10:26Z</time></trkpt><trkpt lat="40.94548879174287" lon="14.690765719448535"><ele>1099.0</ele><time>2026-04-12T08:10:27Z</time></trkpt><trkpt lat="40.94562497323941" lon="14.690816280229434"><ele>1099.0</ele><time>2026-04-12T08:10:28Z</time></trkpt><trkpt lat="40.94576026486764" lon="14.690908940489573"><ele>1099.0</ele><time>2026-04-12T08:10:29Z</time></trkpt><trkpt lat="40.945879669563645" lon="14.690983818867844"><ele>1099.0</ele><time>2026-04-12T08:10:30Z</time></trkpt><trkpt lat="40.94596471846591" lon="14.691020555952937"><ele>1099.0</ele><time>2026-04-12T08:10:31Z</time></trkpt><trkpt lat="40.946030494856174" lon="14.691060966533637"><ele>1099.0</ele><time>2026-04-12T08:10:32Z</time></trkpt><trkpt lat="40.946086951853935" lon="14.691106159795856"><ele>1098.2857142857142</ele><time>2026-04-12T08:10:37Z</time></trkpt><trkpt lat="40.94614216445219" lon="14.691157119993195"><ele>1097.5714285714284</ele><time>2026-04-12T08:10:41Z</time></trkpt><trkpt lat="40.946214097606024" lon="14.691168013942873"><ele>1096.857142857143</ele><time>2026-04-12T08:10:45Z</time></trkpt><trkpt lat="40.94628728809441" lon="14.691190712605547"><ele>1096.142857142857</ele><time>2026-04-12T08:10:50Z</time></trkpt><trkpt lat="40.94634915689075" lon="14.691238207449294"><ele>1095.4285714285713</ele><time>2026-04-12T08:10:54Z</time></trkpt><trkpt lat="40.946427902555016" lon="14.691269670155785"><ele>1094.7142857142858</ele><time>2026-04-12T08:10:56.999Z</time></trkpt><trkpt lat="40.9464851990376" lon="14.6913206773017"><ele>1094.0</ele><time>2026-04-12T08:10:59.999Z</time></trkpt><trkpt lat="40.946553111753296" lon="14.69134181458196"><ele>1094.0</ele><time>2026-04-12T08:11:02.999Z</time></trkpt><trkpt lat="40.94663240038268" lon="14.691357332833329"><ele>1094.0</ele><time>2026-04-12T08:11:05.999Z</time></trkpt><trkpt lat="40.9467289881202" lon="14.691375181563364"><ele>1094.0</ele><time>2026-04-12T08:11:07.999Z</time></trkpt><trkpt lat="40.94680998306574" lon="14.691385211118524"><ele>1094.0</ele><time>2026-04-12T08:11:10.999Z</time></trkpt><trkpt lat="40.94687155975546" lon="14.691356518952814"><ele>1094.0</ele><time>2026-04-12T08:11:13.999Z</time></trkpt><trkpt lat="40.946934070041756" lon="14.691331802468667"><ele>1094.0</ele><time>2026-04-12T08:11:15.999Z</time></trkpt><trkpt lat="40.94703627897257" lon="14.691332682729358"><ele>1088.6666666666667</ele><time>2026-04-12T08:11:17.999Z</time></trkpt><trkpt lat="40.94710992267847" lon="14.691290179469119"><ele>1083.3333333333333</ele><time>2026-04-12T08:11:20.999Z</time></trkpt><trkpt lat="40.94717980026743" lon="14.691223242783098"><ele>1078.0</ele><time>2026-04-12T08:11:22.999Z</time></trkpt><trkpt lat="40.94746145725974" lon="14.691031832675979"><ele>1077.4</ele><time>2026-04-12T08:11:25.999Z</time></trkpt><trkpt lat="40.94752367440529" lon="14.690907358104234"><ele>1076.8</ele><time>2026-04-12T08:11:27.999Z</time></trkpt><trkpt lat="40.94756126251244" lon="14.690773529904419"><ele>1076.2</ele><time>2026-04-12T08:11:29.999Z</time></trkpt><trkpt lat="40.94757586453571" lon="14.690655961926655"><ele>1075.6</ele><time>2026-04-12T08:11:31.999Z</time></trkpt><trkpt lat="40.94760033022559" lon="14.690535231086248"><ele>1075.0</ele><time>2026-04-12T08:11:33.999Z</time></trkpt><trkpt lat="40.94761864239599" lon="14.690452890739916"><ele>1075.0</ele><time>2026-04-12T08:11:34.999Z</time></trkpt><trkpt lat="40.94765479460886" lon="14.69030145898091"><ele>1075.0</ele><time>2026-04-12T08:11:36.999Z</time></trkpt><trkpt lat="40.94766834252202" lon="14.690217922935977"><ele>1075.0</ele><time>2026-04-12T08:11:37.999Z</time></trkpt><trkpt lat="40.94769083816117" lon="14.690093892414756"><ele>1075.0</ele><time>2026-04-12T08:11:39.999Z</time></trkpt><trkpt lat="40.947702251042756" lon="14.689759591670255"><ele>1071.8</ele><time>2026-04-12T08:11:43.999Z</time></trkpt><trkpt lat="40.94779454224229" lon="14.689737532716281"><ele>1068.6</ele><time>2026-04-12T08:11:51Z</time></trkpt><trkpt lat="40.94789281955477" lon="14.689723534463518"><ele>1065.4</ele><time>2026-04-12T08:11:53Z</time></trkpt><trkpt lat="40.94800183401773" lon="14.689667919262405"><ele>1062.2</ele><time>2026-04-12T08:11:55Z</time></trkpt><trkpt lat="40.94806910458698" lon="14.689675980121523"><ele>1059.0</ele><time>2026-04-12T08:11:56Z</time></trkpt><trkpt lat="40.94814700872392" lon="14.689675540610322"><ele>1059.0</ele><time>2026-04-12T08:11:58Z</time></trkpt><trkpt lat="40.948223158366424" lon="14.689696077067149"><ele>1059.0</ele><time>2026-04-12T08:12:00Z</time></trkpt><trkpt lat="40.94832029633779" lon="14.689705654626506"><ele>1059.0</ele><time>2026-04-12T08:12:02Z</time></trkpt><trkpt lat="40.94840295930078" lon="14.689700765929794"><ele>1059.0</ele><time>2026-04-12T08:12:04Z</time></trkpt><trkpt lat="40.94852525555349" lon="14.68969163356645"><ele>1059.0</ele><time>2026-04-12T08:12:06Z</time></trkpt><trkpt lat="40.948595654118606" lon="14.689699059089202"><ele>1056.8</ele><time>2026-04-12T08:12:07Z</time></trkpt><trkpt lat="40.94868167006111" lon="14.689656850072838"><ele>1054.6000000000001</ele><time>2026-04-12T08:12:09Z</time></trkpt><trkpt lat="40.94874816349757" lon="14.689565614195171"><ele>1052.4</ele><time>2026-04-12T08:12:11Z</time></trkpt><trkpt lat="40.94884995438757" lon="14.68954169618239"><ele>1050.2</ele><time>2026-04-12T08:12:58Z</time></trkpt><trkpt lat="40.948784863792675" lon="14.689554511523365"><ele>1048.0</ele><time>2026-04-12T08:17:55Z</time></trkpt><trkpt lat="40.94877276642196" lon="14.68968920943606"><ele>1048.0</ele><time>2026-04-12T08:18:48Z</time></trkpt><trkpt lat="40.94883946007558" lon="14.689615389201233"><ele>1048.0</ele><time>2026-04-12T08:19:19Z</time></trkpt><trkpt lat="40.94885722388251" lon="14.689535254088558"><ele>1048.0</ele><time>2026-04-12T08:19:52Z</time></trkpt><trkpt lat="40.948809681660144" lon="14.689590353897845"><ele>1048.0</ele><time>2026-04-12T08:23:34Z</time></trkpt><trkpt lat="40.948894116934994" lon="14.689527634219724"><ele>1048.0</ele><time>2026-04-12T08:24:46.999Z</time></trkpt><trkpt lat="40.948959631687856" lon="14.689525167998626"><ele>1048.0</ele><time>2026-04-12T08:24:48.999Z</time></trkpt><trkpt lat="40.94902503319442" lon="14.689532838514369"><ele>1048.0</ele><time>2026-04-12T08:24:50.999Z</time></trkpt><trkpt lat="40.94912641886517" lon="14.68951659500343"><ele>1048.0</ele><time>2026-04-12T08:24:52.999Z</time></trkpt><trkpt lat="40.94920130238018" lon="14.68950576953525"><ele>1048.0</ele><time>2026-04-12T08:24:53.999Z</time></trkpt><trkpt lat="40.949280369781334" lon="14.689507531679704"><ele>1048.0</ele><time>2026-04-12T08:24:54.999Z</time></trkpt><trkpt lat="40.94935497455828" lon="14.689531196266014"><ele>1048.0</ele><time>2026-04-12T08:24:55.999Z</time></trkpt><trkpt lat="40.949447428552176" lon="14.689540318673224"><ele>1048.0</ele><time>2026-04-12T08:24:57.999Z</time></trkpt><trkpt lat="40.94952567429125" lon="14.689528641872482"><ele>1048.0</ele><time>2026-04-12T08:24:59.999Z</time></trkpt><trkpt lat="40.94963022558054" lon="14.68944737791922"><ele>1046.6666666666665</ele><time>2026-04-12T08:25:01.999Z</time></trkpt><trkpt lat="40.949692344293936" lon="14.689398792432655"><ele>1045.3333333333333</ele><time>2026-04-12T08:25:02.999Z</time></trkpt><trkpt lat="40.949765968105595" lon="14.689363754512675"><ele>1044.0</ele><time>2026-04-12T08:25:03.999Z</time></trkpt><trkpt lat="40.949840991153" lon="14.689353240975207"><ele>1042.6666666666667</ele><time>2026-04-12T08:25:04.999Z</time></trkpt><trkpt lat="40.94991151448808" lon="14.689386695681128"><ele>1041.3333333333335</ele><time>2026-04-12T08:25:05.999Z</time></trkpt><trkpt lat="40.94998356045183" lon="14.689428648382187"><ele>1040.0</ele><time>2026-04-12T08:25:06.999Z</time></trkpt><trkpt lat="40.95005764249823" lon="14.689462525087828"><ele>1038.2</ele><time>2026-04-12T08:25:07.999Z</time></trkpt><trkpt lat="40.95014098009762" lon="14.689502139776168"><ele>1036.4</ele><time>2026-04-12T08:25:08.999Z</time></trkpt><trkpt lat="40.950212647583164" lon="14.689539408960538"><ele>1034.6</ele><time>2026-04-12T08:25:09.999Z</time></trkpt><trkpt lat="40.95027597464003" lon="14.689580336486044"><ele>1032.8</ele><time>2026-04-12T08:25:10.999Z</time></trkpt><trkpt lat="40.950351325715616" lon="14.689668149609295"><ele>1031.0</ele><time>2026-04-12T08:25:12.999Z</time></trkpt><trkpt lat="40.95037438138694" lon="14.68983103156128"><ele>1031.0</ele><time>2026-04-12T08:25:14.999Z</time></trkpt><trkpt lat="40.95040308753136" lon="14.689912207590833"><ele>1031.0</ele><time>2026-04-12T08:25:22.999Z</time></trkpt><trkpt lat="40.950460835135104" lon="14.68998555987166"><ele>1031.0</ele><time>2026-04-12T08:25:25.999Z</time></trkpt><trkpt lat="40.950552562325235" lon="14.690005927134075"><ele>1031.0</ele><time>2026-04-12T08:25:27.999Z</time></trkpt><trkpt lat="40.950641642665104" lon="14.690055570986408"><ele>1031.0</ele><time>2026-04-12T08:25:31.999Z</time></trkpt><trkpt lat="40.950667886812006" lon="14.690138697050333"><ele>1031.0</ele><time>2026-04-12T08:25:34.999Z</time></trkpt><trkpt lat="40.95073112229733" lon="14.69024849116797"><ele>1030.2</ele><time>2026-04-12T08:25:36.999Z</time></trkpt><trkpt lat="40.950807699682194" lon="14.690323503874112"><ele>1029.3999999999999</ele><time>2026-04-12T08:25:37.999Z</time></trkpt><trkpt lat="40.95087135375609" lon="14.690443809411391"><ele>1028.6</ele><time>2026-04-12T08:25:39.999Z</time></trkpt><trkpt lat="40.95092358718799" lon="14.690494755266089"><ele>1027.8</ele><time>2026-04-12T08:25:40.999Z</time></trkpt><trkpt lat="40.950976820216866" lon="14.690563386035434"><ele>1027.0</ele><time>2026-04-12T08:25:44.999Z</time></trkpt><trkpt lat="40.95103689546596" lon="14.690686767450728"><ele>1025.1666666666665</ele><time>2026-04-12T08:25:47.999Z</time></trkpt><trkpt lat="40.95113058594501" lon="14.690773486655637"><ele>1023.3333333333333</ele><time>2026-04-12T08:25:49.999Z</time></trkpt><trkpt lat="40.95120129086668" lon="14.69083808950519"><ele>1021.5</ele><time>2026-04-12T08:25:51.999Z</time></trkpt><trkpt lat="40.95128638738071" lon="14.690883300847416"><ele>1019.6666666666667</ele><time>2026-04-12T08:25:55.999Z</time></trkpt><trkpt lat="40.95134635772784" lon="14.690939678974955"><ele>1017.8333333333334</ele><time>2026-04-12T08:25:58.999Z</time></trkpt><trkpt lat="40.9513890290655" lon="14.691009046136589"><ele>1016.0</ele><time>2026-04-12T08:26:01.999Z</time></trkpt><trkpt lat="40.95143151671279" lon="14.691080267503644"><ele>1016.3333333333334</ele><time>2026-04-12T08:26:04.999Z</time></trkpt><trkpt lat="40.95145834164675" lon="14.69116865459617"><ele>1016.6666666666667</ele><time>2026-04-12T08:26:06.999Z</time></trkpt><trkpt lat="40.95151530333972" lon="14.691271695196555"><ele>1017.0</ele><time>2026-04-12T08:26:09.999Z</time></trkpt><trkpt lat="40.95158471360687" lon="14.691334026585315"><ele>1017.3333333333333</ele><time>2026-04-12T08:26:11.999Z</time></trkpt><trkpt lat="40.95163549437365" lon="14.691392227433715"><ele>1017.6666666666666</ele><time>2026-04-12T08:26:13.999Z</time></trkpt><trkpt lat="40.95172920729302" lon="14.691383730557178"><ele>1018.0</ele><time>2026-04-12T08:26:15.999Z</time></trkpt><trkpt lat="40.95178477129987" lon="14.691337136717722"><ele>1018.0</ele><time>2026-04-12T08:26:17.999Z</time></trkpt><trkpt lat="40.952069552090784" lon="14.691490689428207"><ele>1018.0</ele><time>2026-04-12T08:26:20.999Z</time></trkpt><trkpt lat="40.952193349345386" lon="14.691219106703775"><ele>1017.9999999999999</ele><time>2026-04-12T08:26:22.999Z</time></trkpt><trkpt lat="40.95229754624233" lon="14.69113245735946"><ele>1018.0</ele><time>2026-04-12T08:26:24.999Z</time></trkpt><trkpt lat="40.95235915537751" lon="14.691095151828746"><ele>1018.0</ele><time>2026-04-12T08:26:25.999Z</time></trkpt><trkpt lat="40.952432214346274" lon="14.691042763685285"><ele>1018.0</ele><time>2026-04-12T08:26:26.999Z</time></trkpt><trkpt lat="40.952505936019485" lon="14.690999900508404"><ele>1017.9999999999999</ele><time>2026-04-12T08:26:27.999Z</time></trkpt><trkpt lat="40.95258007111054" lon="14.690980625405956"><ele>1018.0</ele><time>2026-04-12T08:26:28.999Z</time></trkpt><trkpt lat="40.95271699225652" lon="14.691042859249592"><ele>1016.9999999999999</ele><time>2026-04-12T08:26:30.999Z</time></trkpt><trkpt lat="40.95279170379024" lon="14.691121769753678"><ele>1016.0</ele><time>2026-04-12T08:26:31.999Z</time></trkpt><trkpt lat="40.95286710765798" lon="14.691187667706822"><ele>1015.0</ele><time>2026-04-12T08:26:32.999Z</time></trkpt><trkpt lat="40.95295524893621" lon="14.69126644085184"><ele>1014.0</ele><time>2026-04-12T08:26:33.999Z</time></trkpt><trkpt lat="40.95303366339737" lon="14.691299132781424"><ele>1012.9999999999999</ele><time>2026-04-12T08:26:34.999Z</time></trkpt><trkpt lat="40.95310445041407" lon="14.691327672056758"><ele>1012.0</ele><time>2026-04-12T08:26:35.999Z</time></trkpt><trkpt lat="40.953194520621246" lon="14.691287978404361"><ele>1012.0</ele><time>2026-04-12T08:26:36.999Z</time></trkpt><trkpt lat="40.95328257192536" lon="14.691257609354334"><ele>1012.0</ele><time>2026-04-12T08:26:37.999Z</time></trkpt><trkpt lat="40.953357176059775" lon="14.691228118811466"><ele>1012.0</ele><time>2026-04-12T08:26:38.999Z</time></trkpt><trkpt lat="40.95342608597214" lon="14.691214686299313"><ele>1012.0</ele><time>2026-04-12T08:26:39.999Z</time></trkpt><trkpt lat="40.95349161895163" lon="14.691224532485556"><ele>1012.0</ele><time>2026-04-12T08:26:40.999Z</time></trkpt><trkpt lat="40.95364483395924" lon="14.691267049071008"><ele>1012.3333333333333</ele><time>2026-04-12T08:26:42.999Z</time></trkpt><trkpt lat="40.953725652896864" lon="14.691271761290844"><ele>1012.6666666666666</ele><time>2026-04-12T08:26:43.999Z</time></trkpt><trkpt lat="40.95382816772096" lon="14.691303556478049"><ele>1013.0</ele><time>2026-04-12T08:26:45.999Z</time></trkpt><trkpt lat="40.95389203837935" lon="14.69138812874608"><ele>1013.3333333333333</ele><time>2026-04-12T08:26:46.999Z</time></trkpt><trkpt lat="40.953976435101545" lon="14.691445081486686"><ele>1013.6666666666666</ele><time>2026-04-12T08:26:47.999Z</time></trkpt><trkpt lat="40.95404305400738" lon="14.691491130454757"><ele>1014.0</ele><time>2026-04-12T08:26:48.999Z</time></trkpt><trkpt lat="40.954123776972416" lon="14.69159959455447"><ele>1014.0</ele><time>2026-04-12T08:26:50.999Z</time></trkpt><trkpt lat="40.954145179546444" lon="14.691706004689339"><ele>1014.0000000000001</ele><time>2026-04-12T08:26:52.999Z</time></trkpt><trkpt lat="40.95410059836663" lon="14.69179027757097"><ele>1014.0000000000001</ele><time>2026-04-12T08:26:55.999Z</time></trkpt><trkpt lat="40.954117372209545" lon="14.691940457737696"><ele>1014.0</ele><time>2026-04-12T08:26:57.999Z</time></trkpt><trkpt lat="40.954146254603174" lon="14.69202130492915"><ele>1014.0</ele><time>2026-04-12T08:26:59.999Z</time></trkpt><trkpt lat="40.95411596146246" lon="14.692183395278079"><ele>1014.6666666666666</ele><time>2026-04-12T08:27:00.999Z</time></trkpt><trkpt lat="40.954101014357484" lon="14.692366184160706"><ele>1015.3333333333333</ele><time>2026-04-12T08:27:02.999Z</time></trkpt><trkpt lat="40.954095086840475" lon="14.692454983834578"><ele>1016.0</ele><time>2026-04-12T08:27:03.999Z</time></trkpt><trkpt lat="40.95407562085155" lon="14.692535073771875"><ele>1016.6666666666666</ele><time>2026-04-12T08:27:04.999Z</time></trkpt><trkpt lat="40.95406671712686" lon="14.692624779062156"><ele>1017.3333333333333</ele><time>2026-04-12T08:27:05.999Z</time></trkpt><trkpt lat="40.95404845162604" lon="14.692718855375865"><ele>1018.0</ele><time>2026-04-12T08:27:06.999Z</time></trkpt><trkpt lat="40.95403560092976" lon="14.692829722698102"><ele>1018.8</ele><time>2026-04-12T08:27:07.999Z</time></trkpt><trkpt lat="40.954018144775624" lon="14.692941935986111"><ele>1019.5999999999999</ele><time>2026-04-12T08:27:08.999Z</time></trkpt><trkpt lat="40.9540075676487" lon="14.693069323534889"><ele>1020.4000000000001</ele><time>2026-04-12T08:27:09.999Z</time></trkpt><trkpt lat="40.954001752464784" lon="14.693206465705671"><ele>1021.2</ele><time>2026-04-12T08:27:10.999Z</time></trkpt><trkpt lat="40.953975701431254" lon="14.693330511630071"><ele>1022.0</ele><time>2026-04-12T08:27:11.999Z</time></trkpt><trkpt lat="40.95394639978764" lon="14.693453975352176"><ele>1022.0000000000001</ele><time>2026-04-12T08:27:12.999Z</time></trkpt><trkpt lat="40.953910307072746" lon="14.693564982110244"><ele>1022.0</ele><time>2026-04-12T08:27:13.999Z</time></trkpt><trkpt lat="40.953871906221636" lon="14.693686033549719"><ele>1022.0</ele><time>2026-04-12T08:27:14.999Z</time></trkpt><trkpt lat="40.95384418268537" lon="14.693805601978795"><ele>1022.0</ele><time>2026-04-12T08:27:15.999Z</time></trkpt><trkpt lat="40.953816088300506" lon="14.693912141653117"><ele>1022.0000000000001</ele><time>2026-04-12T08:27:16.999Z</time></trkpt><trkpt lat="40.95380016987579" lon="14.694001070392238"><ele>1022.0</ele><time>2026-04-12T08:27:17.999Z</time></trkpt><trkpt lat="40.95372093931588" lon="14.694071137022865"><ele>1024.0</ele><time>2026-04-12T08:27:19.999Z</time></trkpt><trkpt lat="40.95366830113673" lon="14.694145394717799"><ele>1026.0</ele><time>2026-04-12T08:27:20.999Z</time></trkpt><trkpt lat="40.95362624835026" lon="14.694243642070521"><ele>1028.0</ele><time>2026-04-12T08:27:21.999Z</time></trkpt><trkpt lat="40.95359610701038" lon="14.694345891972675"><ele>1030.0</ele><time>2026-04-12T08:27:23.999Z</time></trkpt><trkpt lat="40.95352705052779" lon="14.69436218333571"><ele>1032.0</ele><time>2026-04-12T08:27:29.999Z</time></trkpt><trkpt lat="40.95347997963199" lon="14.694465102328172"><ele>1034.0</ele><time>2026-04-12T08:27:31.999Z</time></trkpt><trkpt lat="40.9534199825482" lon="14.694511092625374"><ele>1034.1666666666667</ele><time>2026-04-12T08:27:32.999Z</time></trkpt><trkpt lat="40.95340400290373" lon="14.694613505248997"><ele>1034.3333333333335</ele><time>2026-04-12T08:27:34.999Z</time></trkpt><trkpt lat="40.953384398882676" lon="14.694741784031558"><ele>1034.5</ele><time>2026-04-12T08:27:35.999Z</time></trkpt><trkpt lat="40.95335494872043" lon="14.694846614213718"><ele>1034.6666666666667</ele><time>2026-04-12T08:27:36.999Z</time></trkpt><trkpt lat="40.95337871755319" lon="14.694944028032305"><ele>1034.8333333333333</ele><time>2026-04-12T08:27:39.999Z</time></trkpt><trkpt lat="40.95337672160463" lon="14.695032240927759"><ele>1035.0</ele><time>2026-04-12T08:27:47.999Z</time></trkpt><trkpt lat="40.953438147222634" lon="14.695065699852295"><ele>1036.8333333333333</ele><time>2026-04-12T08:27:49.999Z</time></trkpt><trkpt lat="40.953501229153126" lon="14.69509291993582"><ele>1038.6666666666667</ele><time>2026-04-12T08:27:50.999Z</time></trkpt><trkpt lat="40.953576752070454" lon="14.69511339849917"><ele>1040.5</ele><time>2026-04-12T08:27:51.999Z</time></trkpt><trkpt lat="40.95365124257312" lon="14.695112931705467"><ele>1042.3333333333335</ele><time>2026-04-12T08:27:52.999Z</time></trkpt><trkpt lat="40.95372193818433" lon="14.69509370507568"><ele>1044.1666666666667</ele><time>2026-04-12T08:27:53.999Z</time></trkpt><trkpt lat="40.953819487199475" lon="14.69512564959231"><ele>1046.0</ele><time>2026-04-12T08:27:55.999Z</time></trkpt><trkpt lat="40.95388758961344" lon="14.695182271926198"><ele>1046.0</ele><time>2026-04-12T08:27:57.999Z</time></trkpt><trkpt lat="40.95396390562755" lon="14.695134735742897"><ele>1046.0</ele><time>2026-04-12T08:27:59.999Z</time></trkpt><trkpt lat="40.95401720598804" lon="14.695069578352806"><ele>1046.0</ele><time>2026-04-12T08:28:00.999Z</time></trkpt><trkpt lat="40.95408361601992" lon="14.695020944335305"><ele>1046.0</ele><time>2026-04-12T08:28:01.999Z</time></trkpt><trkpt lat="40.95415390345272" lon="14.69497880356688"><ele>1046.0</ele><time>2026-04-12T08:28:02.999Z</time></trkpt><trkpt lat="40.95423035662739" lon="14.694925621720884"><ele>1046.0</ele><time>2026-04-12T08:28:03.999Z</time></trkpt><trkpt lat="40.954299922702866" lon="14.694844924962446"><ele>1048.6666666666667</ele><time>2026-04-12T08:28:04.999Z</time></trkpt><trkpt lat="40.9543694463976" lon="14.69478758242725"><ele>1051.3333333333335</ele><time>2026-04-12T08:28:05.999Z</time></trkpt><trkpt lat="40.954459144637056" lon="14.694763945066708"><ele>1054.0</ele><time>2026-04-12T08:28:06.999Z</time></trkpt><trkpt lat="40.95455003416504" lon="14.694750947695404"><ele>1056.6666666666667</ele><time>2026-04-12T08:28:07.999Z</time></trkpt><trkpt lat="40.95463767064375" lon="14.694761398543063"><ele>1059.3333333333333</ele><time>2026-04-12T08:28:08.999Z</time></trkpt><trkpt lat="40.95473097361923" lon="14.694756484890316"><ele>1062.0</ele><time>2026-04-12T08:28:09.999Z</time></trkpt><trkpt lat="40.954846004058574" lon="14.694686614511758"><ele>1062.0</ele><time>2026-04-12T08:28:11.999Z</time></trkpt><trkpt lat="40.95490355424978" lon="14.69461106213826"><ele>1062.0</ele><time>2026-04-12T08:28:12.999Z</time></trkpt><trkpt lat="40.95498251796641" lon="14.694537325566303"><ele>1062.0</ele><time>2026-04-12T08:28:13.999Z</time></trkpt><trkpt lat="40.95507232664911" lon="14.694471180373778"><ele>1062.0</ele><time>2026-04-12T08:28:14.999Z</time></trkpt><trkpt lat="40.95514903348229" lon="14.694401627777061"><ele>1062.0</ele><time>2026-04-12T08:28:15.999Z</time></trkpt><trkpt lat="40.95522940300031" lon="14.694314798165813"><ele>1061.2</ele><time>2026-04-12T08:28:16.999Z</time></trkpt><trkpt lat="40.95531710130452" lon="14.694234520469529"><ele>1060.4</ele><time>2026-04-12T08:28:17.999Z</time></trkpt><trkpt lat="40.955382485351066" lon="14.694188445116689"><ele>1059.6</ele><time>2026-04-12T08:28:18.999Z</time></trkpt><trkpt lat="40.95544851161057" lon="14.694133550612442"><ele>1058.8</ele><time>2026-04-12T08:28:19.999Z</time></trkpt><trkpt lat="40.955521112537205" lon="14.694080502289857"><ele>1058.0</ele><time>2026-04-12T08:28:20.999Z</time></trkpt><trkpt lat="40.95562086327617" lon="14.693988471473542"><ele>1058.0</ele><time>2026-04-12T08:28:21.999Z</time></trkpt><trkpt lat="40.955721656379616" lon="14.693898756032636"><ele>1058.0</ele><time>2026-04-12T08:28:22.999Z</time></trkpt><trkpt lat="40.955825534826836" lon="14.693783047860508"><ele>1058.0</ele><time>2026-04-12T08:28:23.999Z</time></trkpt><trkpt lat="40.95592390185985" lon="14.693647706415224"><ele>1058.0</ele><time>2026-04-12T08:28:24.999Z</time></trkpt><trkpt lat="40.955993304616165" lon="14.693549843320138"><ele>1061.8</ele><time>2026-04-12T08:28:25.999Z</time></trkpt><trkpt lat="40.95605609857477" lon="14.693448290727675"><ele>1065.6</ele><time>2026-04-12T08:28:26.999Z</time></trkpt><trkpt lat="40.95612444181261" lon="14.693390806538526"><ele>1069.4</ele><time>2026-04-12T08:28:27.999Z</time></trkpt><trkpt lat="40.95619754473132" lon="14.693294764556972"><ele>1073.2</ele><time>2026-04-12T08:28:28.999Z</time></trkpt><trkpt lat="40.956253055418664" lon="14.693153656506155"><ele>1077.0</ele><time>2026-04-12T08:28:29.999Z</time></trkpt><trkpt lat="40.95630856698925" lon="14.693067237123321"><ele>1077.0</ele><time>2026-04-12T08:28:30.999Z</time></trkpt><trkpt lat="40.95636233646075" lon="14.693017724769522"><ele>1077.0</ele><time>2026-04-12T08:28:31.999Z</time></trkpt><trkpt lat="40.956425876412965" lon="14.692912847747259"><ele>1077.0</ele><time>2026-04-12T08:28:32.999Z</time></trkpt><trkpt lat="40.956496472698056" lon="14.692843827049456"><ele>1077.0</ele><time>2026-04-12T08:28:33.999Z</time></trkpt><trkpt lat="40.95655321597209" lon="14.692709376060986"><ele>1077.0</ele><time>2026-04-12T08:28:34.999Z</time></trkpt><trkpt lat="40.95662155109806" lon="14.692612433573363"><ele>1073.6</ele><time>2026-04-12T08:28:36Z</time></trkpt><trkpt lat="40.956695638674894" lon="14.692531519342177"><ele>1070.2</ele><time>2026-04-12T08:28:37Z</time></trkpt><trkpt lat="40.95674916304002" lon="14.69245660173857"><ele>1066.8</ele><time>2026-04-12T08:28:38Z</time></trkpt><trkpt lat="40.95681606194407" lon="14.692362117043528"><ele>1063.4</ele><time>2026-04-12T08:28:39Z</time></trkpt><trkpt lat="40.95688764821947" lon="14.692276798833003"><ele>1060.0</ele><time>2026-04-12T08:28:40Z</time></trkpt><trkpt lat="40.95695412705447" lon="14.692212031464956"><ele>1062.6</ele><time>2026-04-12T08:28:41Z</time></trkpt><trkpt lat="40.95701865389838" lon="14.692155803142398"><ele>1065.2</ele><time>2026-04-12T08:28:42Z</time></trkpt><trkpt lat="40.95709350636866" lon="14.692100493955868"><ele>1067.8</ele><time>2026-04-12T08:28:43Z</time></trkpt><trkpt lat="40.95715802081839" lon="14.69202241070059"><ele>1070.4</ele><time>2026-04-12T08:28:44Z</time></trkpt><trkpt lat="40.9572788896745" lon="14.691819600245042"><ele>1073.0</ele><time>2026-04-12T08:28:46Z</time></trkpt><trkpt lat="40.95733635704969" lon="14.691741663413813"><ele>1073.0</ele><time>2026-04-12T08:28:47Z</time></trkpt><trkpt lat="40.957386838241895" lon="14.691681836871076"><ele>1073.0</ele><time>2026-04-12T08:28:48Z</time></trkpt><trkpt lat="40.95743987773079" lon="14.691589818479171"><ele>1073.0</ele><time>2026-04-12T08:28:49Z</time></trkpt><trkpt lat="40.95750724692701" lon="14.691493475857005"><ele>1073.0</ele><time>2026-04-12T08:28:50Z</time></trkpt><trkpt lat="40.95756659343569" lon="14.691410371881952"><ele>1073.0</ele><time>2026-04-12T08:28:51Z</time></trkpt><trkpt lat="40.957631897391764" lon="14.691331105703908"><ele>1073.0</ele><time>2026-04-12T08:28:52Z</time></trkpt><trkpt lat="40.9576754329454" lon="14.691246127011379"><ele>1074.8</ele><time>2026-04-12T08:28:53Z</time></trkpt><trkpt lat="40.95771043307069" lon="14.691173249578492"><ele>1076.6</ele><time>2026-04-12T08:28:54Z</time></trkpt><trkpt lat="40.95780348447214" lon="14.691077375361433"><ele>1078.4</ele><time>2026-04-12T08:28:56Z</time></trkpt><trkpt lat="40.957865059633434" lon="14.691000393465892"><ele>1080.2</ele><time>2026-04-12T08:28:58Z</time></trkpt><trkpt lat="40.95794806321344" lon="14.690881092630265"><ele>1082.0</ele><time>2026-04-12T08:29:00Z</time></trkpt><trkpt lat="40.95800179241995" lon="14.690827757267948"><ele>1082.0</ele><time>2026-04-12T08:29:01Z</time></trkpt><trkpt lat="40.95811757266741" lon="14.69068766338196"><ele>1082.0</ele><time>2026-04-12T08:29:03Z</time></trkpt><trkpt lat="40.958172480101986" lon="14.690629990378207"><ele>1082.0</ele><time>2026-04-12T08:29:04Z</time></trkpt><trkpt lat="40.95826163011269" lon="14.690571996346405"><ele>1082.0</ele><time>2026-04-12T08:29:06Z</time></trkpt><trkpt lat="40.958357173580815" lon="14.690489237885773"><ele>1082.0</ele><time>2026-04-12T08:29:08Z</time></trkpt><trkpt lat="40.95842243730328" lon="14.690427355544236"><ele>1085.6666666666667</ele><time>2026-04-12T08:29:09Z</time></trkpt><trkpt lat="40.958479780686666" lon="14.690366820655123"><ele>1089.3333333333335</ele><time>2026-04-12T08:29:10Z</time></trkpt><trkpt lat="40.95854478007525" lon="14.690337385018506"><ele>1093.0</ele><time>2026-04-12T08:29:11Z</time></trkpt><trkpt lat="40.95862065709683" lon="14.690288494596356"><ele>1096.6666666666667</ele><time>2026-04-12T08:29:12Z</time></trkpt><trkpt lat="40.95870453344206" lon="14.69024309414947"><ele>1100.3333333333333</ele><time>2026-04-12T08:29:13Z</time></trkpt><trkpt lat="40.95879736049098" lon="14.690182536489685"><ele>1104.0</ele><time>2026-04-12T08:29:14Z</time></trkpt><trkpt lat="40.95887316436311" lon="14.690133480127827"><ele>1104.0</ele><time>2026-04-12T08:29:15Z</time></trkpt><trkpt lat="40.95893364245189" lon="14.690105706501685"><ele>1104.0</ele><time>2026-04-12T08:29:16Z</time></trkpt><trkpt lat="40.95900313707123" lon="14.690030342769395"><ele>1104.0</ele><time>2026-04-12T08:29:18Z</time></trkpt><trkpt lat="40.95908801302049" lon="14.68993399731027"><ele>1104.0</ele><time>2026-04-12T08:29:21Z</time></trkpt><trkpt lat="40.95915762437896" lon="14.689901119995833"><ele>1104.0</ele><time>2026-04-12T08:29:23Z</time></trkpt><trkpt lat="40.95928010602934" lon="14.689797199274052"><ele>1105.7142857142858</ele><time>2026-04-12T08:29:27Z</time></trkpt><trkpt lat="40.95935637145493" lon="14.689749213360649"><ele>1107.4285714285716</ele><time>2026-04-12T08:29:29Z</time></trkpt><trkpt lat="40.959406350785194" lon="14.689678105103534"><ele>1109.142857142857</ele><time>2026-04-12T08:29:31Z</time></trkpt><trkpt lat="40.95948070391304" lon="14.689650295877831"><ele>1110.857142857143</ele><time>2026-04-12T08:29:34Z</time></trkpt><trkpt lat="40.95953288271057" lon="14.68959592438149"><ele>1112.5714285714284</ele><time>2026-04-12T08:29:40Z</time></trkpt><trkpt lat="40.95958773018595" lon="14.689541594042812"><ele>1114.2857142857142</ele><time>2026-04-12T08:30:44Z</time></trkpt><trkpt lat="40.95963765027176" lon="14.689464294028202"><ele>1116.0</ele><time>2026-04-12T08:30:47Z</time></trkpt><trkpt lat="40.95969277625851" lon="14.689404610822539"><ele>1115.9999999999998</ele><time>2026-04-12T08:30:49Z</time></trkpt><trkpt lat="40.95975732114776" lon="14.689356361030322"><ele>1116.0</ele><time>2026-04-12T08:30:53Z</time></trkpt><trkpt lat="40.95981417162803" lon="14.689297158288694"><ele>1116.0</ele><time>2026-04-12T08:30:58Z</time></trkpt><trkpt lat="40.959870462177555" lon="14.689209908907456"><ele>1116.0</ele><time>2026-04-12T08:32:30Z</time></trkpt><trkpt lat="40.959927462065316" lon="14.689166876798142"><ele>1116.0</ele><time>2026-04-12T08:36:05Z</time></trkpt><trkpt lat="40.959990440280926" lon="14.689177082799096"><ele>1115.9999999999998</ele><time>2026-04-12T08:36:09Z</time></trkpt><trkpt lat="40.96007298555802" lon="14.689195459528598"><ele>1116.0</ele><time>2026-04-12T08:36:20Z</time></trkpt><trkpt lat="40.960129277034554" lon="14.689093904694003"><ele>1118.0</ele><time>2026-04-12T08:36:24Z</time></trkpt><trkpt lat="40.96018770905488" lon="14.68900002840991"><ele>1120.0</ele><time>2026-04-12T08:36:26Z</time></trkpt><trkpt lat="40.96025683855842" lon="14.68892422801312"><ele>1122.0</ele><time>2026-04-12T08:36:28Z</time></trkpt><trkpt lat="40.960307608439784" lon="14.688861433085759"><ele>1124.0</ele><time>2026-04-12T08:36:30Z</time></trkpt><trkpt lat="40.9603670162066" lon="14.688807632540613"><ele>1126.0</ele><time>2026-04-12T08:36:32Z</time></trkpt><trkpt lat="40.960657133891374" lon="14.68860563094054"><ele>1126.0</ele><time>2026-04-12T08:36:34Z</time></trkpt><trkpt lat="40.96071702850833" lon="14.688633312611351"><ele>1126.0</ele><time>2026-04-12T08:36:37Z</time></trkpt><trkpt lat="40.960775059561826" lon="14.688565440155982"><ele>1126.0</ele><time>2026-04-12T08:37:15Z</time></trkpt><trkpt lat="40.960794457980654" lon="14.688439679109313"><ele>1126.0</ele><time>2026-04-12T08:37:18Z</time></trkpt><trkpt lat="40.96082691693606" lon="14.688309445205801"><ele>1126.0</ele><time>2026-04-12T08:37:20Z</time></trkpt><trkpt lat="40.960845086579496" lon="14.688199031994003"><ele>1126.0</ele><time>2026-04-12T08:37:21Z</time></trkpt><trkpt lat="40.960865805622156" lon="14.688086432418412"><ele>1124.3999999999999</ele><time>2026-04-12T08:37:22Z</time></trkpt><trkpt lat="40.96091259020126" lon="14.687967201448803"><ele>1122.8</ele><time>2026-04-12T08:37:23Z</time></trkpt><trkpt lat="40.96097229744905" lon="14.687875171707573"><ele>1121.1999999999998</ele><time>2026-04-12T08:37:24Z</time></trkpt><trkpt lat="40.96103642859453" lon="14.687750939026282"><ele>1119.6</ele><time>2026-04-12T08:37:25Z</time></trkpt><trkpt lat="40.96110384101264" lon="14.687632513922534"><ele>1118.0</ele><time>2026-04-12T08:37:26Z</time></trkpt><trkpt lat="40.9611609747755" lon="14.687550021285825"><ele>1117.5</ele><time>2026-04-12T08:37:27Z</time></trkpt><trkpt lat="40.961201955859686" lon="14.687486665335731"><ele>1117.0</ele><time>2026-04-12T08:37:28Z</time></trkpt><trkpt lat="40.961264682356465" lon="14.687418396540409"><ele>1116.5</ele><time>2026-04-12T08:37:29Z</time></trkpt><trkpt lat="40.9613261060069" lon="14.687316239928023"><ele>1116.0</ele><time>2026-04-12T08:37:30Z</time></trkpt><trkpt lat="40.9613724043297" lon="14.687228977179783"><ele>1115.5</ele><time>2026-04-12T08:37:31Z</time></trkpt><trkpt lat="40.96142548475488" lon="14.687088382065793"><ele>1115.0</ele><time>2026-04-12T08:37:33Z</time></trkpt><trkpt lat="40.96146201014364" lon="14.687012675032705"><ele>1115.0</ele><time>2026-04-12T08:37:34Z</time></trkpt><trkpt lat="40.96151677236812" lon="14.686933198539965"><ele>1115.0</ele><time>2026-04-12T08:37:35Z</time></trkpt><trkpt lat="40.961572526383236" lon="14.686838669308171"><ele>1115.0</ele><time>2026-04-12T08:37:36Z</time></trkpt><trkpt lat="40.96160540705945" lon="14.686762103298106"><ele>1115.0</ele><time>2026-04-12T08:37:37Z</time></trkpt><trkpt lat="40.96166066076343" lon="14.686629531399154"><ele>1115.0</ele><time>2026-04-12T08:37:39Z</time></trkpt><trkpt lat="40.96158959712276" lon="14.686633423132236"><ele>1115.0</ele><time>2026-04-12T08:37:41Z</time></trkpt><trkpt lat="40.961487885506145" lon="14.686686712703585"><ele>1115.0</ele><time>2026-04-12T08:37:43Z</time></trkpt><trkpt lat="40.9613961348802" lon="14.68674003158197"><ele>1115.0</ele><time>2026-04-12T08:37:46Z</time></trkpt><trkpt lat="40.96129921847053" lon="14.68677316845805"><ele>1115.0</ele><time>2026-04-12T08:37:48Z</time></trkpt><trkpt lat="40.961212735458794" lon="14.686841476629949"><ele>1115.0</ele><time>2026-04-12T08:37:51Z</time></trkpt><trkpt lat="40.96116729444054" lon="14.686902929182038"><ele>1115.0</ele><time>2026-04-12T08:37:54Z</time></trkpt><trkpt lat="40.961108502669845" lon="14.686950341181507"><ele>1115.0</ele><time>2026-04-12T08:38:00Z</time></trkpt><trkpt lat="40.961099211035844" lon="14.687032905470824"><ele>1115.0</ele><time>2026-04-12T08:38:05Z</time></trkpt><trkpt lat="40.961011481752784" lon="14.687035135688205"><ele>1115.0</ele><time>2026-04-12T08:38:09Z</time></trkpt><trkpt lat="40.96094125316456" lon="14.687054173257382"><ele>1115.0</ele><time>2026-04-12T08:38:11Z</time></trkpt><trkpt lat="40.960823461331685" lon="14.687171388116125"><ele>1115.0</ele><time>2026-04-12T08:38:13Z</time></trkpt><trkpt lat="40.96076639190657" lon="14.687228825599433"><ele>1115.0</ele><time>2026-04-12T08:38:14Z</time></trkpt><trkpt lat="40.96069027095661" lon="14.687322973007669"><ele>1118.0</ele><time>2026-04-12T08:38:15Z</time></trkpt><trkpt lat="40.960640189729084" lon="14.687400898958204"><ele>1121.0</ele><time>2026-04-12T08:38:16Z</time></trkpt><trkpt lat="40.96053085376786" lon="14.687413368569198"><ele>1124.0</ele><time>2026-04-12T08:38:17Z</time></trkpt><trkpt lat="40.960446656979165" lon="14.687478515626825"><ele>1127.0</ele><time>2026-04-12T08:38:18Z</time></trkpt><trkpt lat="40.96036044703735" lon="14.687546108434171"><ele>1130.0</ele><time>2026-04-12T08:38:19Z</time></trkpt><trkpt lat="40.960275657107" lon="14.687618033146887"><ele>1130.0</ele><time>2026-04-12T08:38:20Z</time></trkpt><trkpt lat="40.96019387888143" lon="14.687701061967806"><ele>1130.0</ele><time>2026-04-12T08:38:21Z</time></trkpt><trkpt lat="40.96012447560327" lon="14.687783598821182"><ele>1130.0</ele><time>2026-04-12T08:38:22Z</time></trkpt><trkpt lat="40.96005208942994" lon="14.687859142639754"><ele>1130.0</ele><time>2026-04-12T08:38:23Z</time></trkpt><trkpt lat="40.95997723613309" lon="14.687925960869125"><ele>1130.0</ele><time>2026-04-12T08:38:24Z</time></trkpt><trkpt lat="40.9599091740814" lon="14.687972765564975"><ele>1130.6</ele><time>2026-04-12T08:38:25Z</time></trkpt><trkpt lat="40.9598356122196" lon="14.688022676018704"><ele>1131.2</ele><time>2026-04-12T08:38:26Z</time></trkpt><trkpt lat="40.95974976029112" lon="14.688097570445866"><ele>1131.8</ele><time>2026-04-12T08:38:27Z</time></trkpt><trkpt lat="40.95967077797196" lon="14.688173635429129"><ele>1132.4</ele><time>2026-04-12T08:38:28Z</time></trkpt><trkpt lat="40.959595852998184" lon="14.688240757355198"><ele>1133.0</ele><time>2026-04-12T08:38:29Z</time></trkpt><trkpt lat="40.959511061744045" lon="14.68828768567447"><ele>1133.0</ele><time>2026-04-12T08:38:30Z</time></trkpt><trkpt lat="40.95942186345568" lon="14.688349232431804"><ele>1133.0</ele><time>2026-04-12T08:38:31Z</time></trkpt><trkpt lat="40.95931878081525" lon="14.688409729287155"><ele>1133.0</ele><time>2026-04-12T08:38:32Z</time></trkpt><trkpt lat="40.959216202503036" lon="14.688451387266765"><ele>1133.0</ele><time>2026-04-12T08:38:33Z</time></trkpt><trkpt lat="40.959121062822994" lon="14.688467995884105"><ele>1133.0</ele><time>2026-04-12T08:38:34Z</time></trkpt><trkpt lat="40.95902156068548" lon="14.688488323027867"><ele>1136.2</ele><time>2026-04-12T08:38:35Z</time></trkpt><trkpt lat="40.95892917839986" lon="14.688511687857437"><ele>1139.4</ele><time>2026-04-12T08:38:36Z</time></trkpt><trkpt lat="40.95885447908242" lon="14.68853463634235"><ele>1142.6000000000001</ele><time>2026-04-12T08:38:37Z</time></trkpt><trkpt lat="40.958898727623215" lon="14.688461057587363"><ele>1145.8</ele><time>2026-04-12T08:38:43Z</time></trkpt><trkpt lat="40.959004682609375" lon="14.688400581622092"><ele>1149.0</ele><time>2026-04-12T08:38:45Z</time></trkpt><trkpt lat="40.95908796415573" lon="14.688329896061635"><ele>1149.0</ele><time>2026-04-12T08:38:46Z</time></trkpt><trkpt lat="40.95914923501912" lon="14.688258045273113"><ele>1149.0</ele><time>2026-04-12T08:38:47Z</time></trkpt><trkpt lat="40.95920656217175" lon="14.688199785272428"><ele>1149.0</ele><time>2026-04-12T08:38:48Z</time></trkpt><trkpt lat="40.95926930199446" lon="14.68815292369167"><ele>1149.0</ele><time>2026-04-12T08:38:49Z</time></trkpt><trkpt lat="40.959330779150015" lon="14.688102778822438"><ele>1149.0</ele><time>2026-04-12T08:38:50Z</time></trkpt><trkpt lat="40.95938905776802" lon="14.688039687871932"><ele>1149.0</ele><time>2026-04-12T08:38:51Z</time></trkpt><trkpt lat="40.95946757585384" lon="14.687915340050925"><ele>1150.6000000000001</ele><time>2026-04-12T08:38:53Z</time></trkpt><trkpt lat="40.959535652673694" lon="14.687815973029346"><ele>1152.2</ele><time>2026-04-12T08:38:54Z</time></trkpt><trkpt lat="40.959598962346334" lon="14.687716113982395"><ele>1153.8000000000002</ele><time>2026-04-12T08:38:55Z</time></trkpt><trkpt lat="40.95965362555986" lon="14.687619372731705"><ele>1155.4</ele><time>2026-04-12T08:38:56Z</time></trkpt><trkpt lat="40.95970639760029" lon="14.687516874098538"><ele>1157.0</ele><time>2026-04-12T08:38:57Z</time></trkpt><trkpt lat="40.95975469595847" lon="14.687369960048958"><ele>1157.0</ele><time>2026-04-12T08:38:59Z</time></trkpt><trkpt lat="40.95980480554725" lon="14.68725366674801"><ele>1157.0</ele><time>2026-04-12T08:39:00Z</time></trkpt><trkpt lat="40.95984700265785" lon="14.68713933067503"><ele>1157.0</ele><time>2026-04-12T08:39:01Z</time></trkpt><trkpt lat="40.9599370447182" lon="14.687080285236195"><ele>1157.0</ele><time>2026-04-12T08:39:03Z</time></trkpt><trkpt lat="40.95998397788075" lon="14.68700248514877"><ele>1157.0</ele><time>2026-04-12T08:39:04Z</time></trkpt><trkpt lat="40.96001893979084" lon="14.686922324869593"><ele>1157.0</ele><time>2026-04-12T08:39:05Z</time></trkpt><trkpt lat="40.96007161013822" lon="14.686838213821236"><ele>1155.6</ele><time>2026-04-12T08:39:06Z</time></trkpt><trkpt lat="40.960115373696055" lon="14.686754170749126"><ele>1154.2</ele><time>2026-04-12T08:39:07Z</time></trkpt><trkpt lat="40.96017734099137" lon="14.686655947649747"><ele>1152.8</ele><time>2026-04-12T08:39:08Z</time></trkpt><trkpt lat="40.96022851678662" lon="14.686537845493437"><ele>1151.4</ele><time>2026-04-12T08:39:09Z</time></trkpt><trkpt lat="40.96027942188855" lon="14.686408383071699"><ele>1150.0</ele><time>2026-04-12T08:39:10Z</time></trkpt><trkpt lat="40.96031859378358" lon="14.6862952714324"><ele>1150.0</ele><time>2026-04-12T08:39:11Z</time></trkpt><trkpt lat="40.960319597761675" lon="14.686200559286265"><ele>1150.0</ele><time>2026-04-12T08:39:13Z</time></trkpt><trkpt lat="40.960251604041154" lon="14.686193943592952"><ele>1150.0</ele><time>2026-04-12T08:39:17Z</time></trkpt><trkpt lat="40.96021457987499" lon="14.686282759196013"><ele>1150.0</ele><time>2026-04-12T08:39:19Z</time></trkpt><trkpt lat="40.960170832401054" lon="14.686353955364265"><ele>1150.0</ele><time>2026-04-12T08:39:20Z</time></trkpt><trkpt lat="40.9600944341464" lon="14.686439758623536"><ele>1150.0</ele><time>2026-04-12T08:39:21Z</time></trkpt><trkpt lat="40.96002689353805" lon="14.686507519025836"><ele>1157.4</ele><time>2026-04-12T08:39:22Z</time></trkpt><trkpt lat="40.95994601220189" lon="14.686556013672169"><ele>1164.8</ele><time>2026-04-12T08:39:23Z</time></trkpt><trkpt lat="40.9598522711201" lon="14.686596191517644"><ele>1172.2</ele><time>2026-04-12T08:39:24Z</time></trkpt><trkpt lat="40.9597379355048" lon="14.68663448160558"><ele>1179.6</ele><time>2026-04-12T08:39:25Z</time></trkpt><trkpt lat="40.95964969600142" lon="14.686713278316185"><ele>1187.0</ele><time>2026-04-12T08:39:26Z</time></trkpt><trkpt lat="40.95957388747646" lon="14.68683193865199"><ele>1187.0</ele><time>2026-04-12T08:39:28Z</time></trkpt><trkpt lat="40.959515094500105" lon="14.686862823054973"><ele>1187.0</ele><time>2026-04-12T08:39:29Z</time></trkpt><trkpt lat="40.95944041240889" lon="14.686912508724701"><ele>1187.0</ele><time>2026-04-12T08:39:30Z</time></trkpt><trkpt lat="40.959353756877576" lon="14.686952859867521"><ele>1187.0</ele><time>2026-04-12T08:39:31Z</time></trkpt><trkpt lat="40.95929180265968" lon="14.686981079347367"><ele>1187.0</ele><time>2026-04-12T08:39:32Z</time></trkpt><trkpt lat="40.959199797123745" lon="14.687026055822232"><ele>1187.0</ele><time>2026-04-12T08:39:34Z</time></trkpt><trkpt lat="40.95912024905898" lon="14.687043673790537"><ele>1187.0</ele><time>2026-04-12T08:39:36Z</time></trkpt><trkpt lat="40.959042337481044" lon="14.68704078215547"><ele>1187.0</ele><time>2026-04-12T08:39:40Z</time></trkpt><trkpt lat="40.95905964902405" lon="14.686942551829596"><ele>1187.0</ele><time>2026-04-12T08:39:43Z</time></trkpt><trkpt lat="40.95911699300126" lon="14.686879793054004"><ele>1187.0</ele><time>2026-04-12T08:39:46Z</time></trkpt><trkpt lat="40.959362086563836" lon="14.68639659167731"><ele>1187.0</ele><time>2026-04-12T08:39:50Z</time></trkpt><trkpt lat="40.959385364301234" lon="14.686297460883212"><ele>1187.0</ele><time>2026-04-12T08:39:51Z</time></trkpt><trkpt lat="40.95942506258709" lon="14.686200903933171"><ele>1187.0</ele><time>2026-04-12T08:39:52Z</time></trkpt><trkpt lat="40.959495029714326" lon="14.686101045548128"><ele>1187.0</ele><time>2026-04-12T08:39:54Z</time></trkpt><trkpt lat="40.95957056265312" lon="14.686133019109407"><ele>1187.0</ele><time>2026-04-12T08:40:56Z</time></trkpt><trkpt lat="40.95961161656789" lon="14.686054508191232"><ele>1187.0</ele><time>2026-04-12T08:41:09Z</time></trkpt><trkpt lat="40.95963450468469" lon="14.685947315411111"><ele>1189.6666666666667</ele><time>2026-04-12T08:41:13.001Z</time></trkpt><trkpt lat="40.95964981018381" lon="14.685819635488832"><ele>1192.3333333333335</ele><time>2026-04-12T08:41:16.001Z</time></trkpt><trkpt lat="40.95963158779333" lon="14.685691798816638"><ele>1195.0</ele><time>2026-04-12T08:41:18.001Z</time></trkpt><trkpt lat="40.95961001514637" lon="14.685609041523668"><ele>1197.6666666666667</ele><time>2026-04-12T08:41:21.001Z</time></trkpt><trkpt lat="40.95958830001086" lon="14.685525526521758"><ele>1200.3333333333333</ele><time>2026-04-12T08:41:24Z</time></trkpt><trkpt lat="40.959557775071" lon="14.685449321106905"><ele>1203.0</ele><time>2026-04-12T08:41:26Z</time></trkpt><trkpt lat="40.959508995933604" lon="14.685355824036067"><ele>1203.0</ele><time>2026-04-12T08:41:28.999Z</time></trkpt><trkpt lat="40.95948538902292" lon="14.685277229019931"><ele>1203.0</ele><time>2026-04-12T08:41:30.999Z</time></trkpt><trkpt lat="40.95947934618554" lon="14.685187119843308"><ele>1203.0</ele><time>2026-04-12T08:41:32.999Z</time></trkpt><trkpt lat="40.95946064583367" lon="14.685098201730467"><ele>1203.0</ele><time>2026-04-12T08:41:36.999Z</time></trkpt><trkpt lat="40.959434778443466" lon="14.684977084511855"><ele>1203.0</ele><time>2026-04-12T08:41:42.999Z</time></trkpt><trkpt lat="40.959423789129865" lon="14.684857941179125"><ele>1203.0</ele><time>2026-04-12T08:41:45.999Z</time></trkpt><trkpt lat="40.95939864017393" lon="14.684761628641546"><ele>1205.8333333333333</ele><time>2026-04-12T08:41:47.999Z</time></trkpt><trkpt lat="40.95935510000534" lon="14.684640932265323"><ele>1208.6666666666667</ele><time>2026-04-12T08:41:49.999Z</time></trkpt><trkpt lat="40.95930791015695" lon="14.684535845191816"><ele>1211.5</ele><time>2026-04-12T08:41:51.999Z</time></trkpt><trkpt lat="40.95928266325997" lon="14.684458889165084"><ele>1214.3333333333335</ele><time>2026-04-12T08:41:54.999Z</time></trkpt><trkpt lat="40.95932389209322" lon="14.684392262785433"><ele>1217.1666666666667</ele><time>2026-04-12T08:41:57.999Z</time></trkpt><trkpt lat="40.95936811249293" lon="14.684308454979872"><ele>1220.0</ele><time>2026-04-12T08:42:01.999Z</time></trkpt><trkpt lat="40.959364606210556" lon="14.684220816409772"><ele>1220.0</ele><time>2026-04-12T08:43:17Z</time></trkpt><trkpt lat="40.959291552390205" lon="14.684208606460396"><ele>1220.0</ele><time>2026-04-12T08:46:31Z</time></trkpt><trkpt lat="40.959291477950586" lon="14.684308682334404"><ele>1220.0</ele><time>2026-04-12T08:47:16.999Z</time></trkpt><trkpt lat="40.95932572837856" lon="14.684391142620937"><ele>1220.0</ele><time>2026-04-12T08:47:21.999Z</time></trkpt><trkpt lat="40.95937150405651" lon="14.68446066539892"><ele>1220.0</ele><time>2026-04-12T08:47:42Z</time></trkpt><trkpt lat="40.959434102405915" lon="14.684394452093567"><ele>1220.0</ele><time>2026-04-12T08:48:02Z</time></trkpt><trkpt lat="40.95938532134222" lon="14.684465380289106"><ele>1220.0</ele><time>2026-04-12T08:49:37Z</time></trkpt><trkpt lat="40.959373952740854" lon="14.68436770272979"><ele>1224.5</ele><time>2026-04-12T08:50:10Z</time></trkpt><trkpt lat="40.959369286031475" lon="14.684281788859"><ele>1229.0</ele><time>2026-04-12T08:50:16Z</time></trkpt><trkpt lat="40.95938039992064" lon="14.68418702481284"><ele>1233.5</ele><time>2026-04-12T08:50:22Z</time></trkpt><trkpt lat="40.95948423542273" lon="14.684225988906809"><ele>1238.0</ele><time>2026-04-12T08:51:48Z</time></trkpt><trkpt lat="40.959584759803064" lon="14.68422333220698"><ele>1242.5</ele><time>2026-04-12T08:51:50Z</time></trkpt><trkpt lat="40.9596618106959" lon="14.684245418949018"><ele>1247.0</ele><time>2026-04-12T08:51:52Z</time></trkpt><trkpt lat="40.95974748768793" lon="14.684269880985289"><ele>1247.0</ele><time>2026-04-12T08:51:54Z</time></trkpt><trkpt lat="40.959860009466794" lon="14.684289280971663"><ele>1247.0</ele><time>2026-04-12T08:51:56Z</time></trkpt><trkpt lat="40.95997541644406" lon="14.684291872695512"><ele>1247.0</ele><time>2026-04-12T08:51:58Z</time></trkpt><trkpt lat="40.96005797083416" lon="14.684283475277478"><ele>1247.0</ele><time>2026-04-12T08:51:59Z</time></trkpt><trkpt lat="40.96016370541604" lon="14.684224483823131"><ele>1247.0</ele><time>2026-04-12T08:52:01Z</time></trkpt><trkpt lat="40.96020726527487" lon="14.684148603043589"><ele>1246.8</ele><time>2026-04-12T08:52:02Z</time></trkpt><trkpt lat="40.96024890987849" lon="14.684015455788884"><ele>1246.6</ele><time>2026-04-12T08:52:04Z</time></trkpt><trkpt lat="40.960306004650754" lon="14.683862298949956"><ele>1246.3999999999999</ele><time>2026-04-12T08:52:06Z</time></trkpt><trkpt lat="40.96034513723323" lon="14.683763076191028"><ele>1246.2</ele><time>2026-04-12T08:52:07Z</time></trkpt><trkpt lat="40.96037819348319" lon="14.683676070256604"><ele>1246.0</ele><time>2026-04-12T08:52:08Z</time></trkpt><trkpt lat="40.960413646899404" lon="14.683587298296967"><ele>1246.0</ele><time>2026-04-12T08:52:09Z</time></trkpt><trkpt lat="40.96049979775079" lon="14.683457378424926"><ele>1246.0</ele><time>2026-04-12T08:52:10Z</time></trkpt><trkpt lat="40.9605455930253" lon="14.683333540697557"><ele>1246.0</ele><time>2026-04-12T08:52:11Z</time></trkpt><trkpt lat="40.960599355880774" lon="14.6832161155865"><ele>1246.0</ele><time>2026-04-12T08:52:12Z</time></trkpt><trkpt lat="40.96066600904884" lon="14.683115847265155"><ele>1246.0</ele><time>2026-04-12T08:52:13Z</time></trkpt><trkpt lat="40.96070820960927" lon="14.683035118905574"><ele>1246.0</ele><time>2026-04-12T08:52:14Z</time></trkpt><trkpt lat="40.960741100778804" lon="14.682881450895357"><ele>1246.0</ele><time>2026-04-12T08:52:16Z</time></trkpt><trkpt lat="40.96074357102538" lon="14.682776355028665"><ele>1246.0</ele><time>2026-04-12T08:52:17Z</time></trkpt><trkpt lat="40.96077735678131" lon="14.682675994304459"><ele>1246.0</ele><time>2026-04-12T08:52:18Z</time></trkpt><trkpt lat="40.96080546268166" lon="14.68258405096877"><ele>1246.0</ele><time>2026-04-12T08:52:19Z</time></trkpt><trkpt lat="40.96083505583459" lon="14.682467812910648"><ele>1248.3333333333333</ele><time>2026-04-12T08:52:20Z</time></trkpt><trkpt lat="40.96086336877387" lon="14.68235894783184"><ele>1250.6666666666665</ele><time>2026-04-12T08:52:21Z</time></trkpt><trkpt lat="40.960881622419485" lon="14.682246912199794"><ele>1253.0</ele><time>2026-04-12T08:52:22Z</time></trkpt><trkpt lat="40.96091290588958" lon="14.68212473687306"><ele>1255.3333333333333</ele><time>2026-04-12T08:52:23Z</time></trkpt><trkpt lat="40.96095020739486" lon="14.682019582252288"><ele>1257.6666666666667</ele><time>2026-04-12T08:52:24Z</time></trkpt><trkpt lat="40.96096300421112" lon="14.681902330842078"><ele>1260.0</ele><time>2026-04-12T08:52:25Z</time></trkpt><trkpt lat="40.960978772645205" lon="14.681774572919343"><ele>1253.8333333333333</ele><time>2026-04-12T08:52:26Z</time></trkpt><trkpt lat="40.96100720843112" lon="14.681653125343859"><ele>1247.6666666666667</ele><time>2026-04-12T08:52:27Z</time></trkpt><trkpt lat="40.96103031146623" lon="14.68156117844062"><ele>1241.5</ele><time>2026-04-12T08:52:28Z</time></trkpt><trkpt lat="40.961061042798164" lon="14.681445532865014"><ele>1235.3333333333335</ele><time>2026-04-12T08:52:30Z</time></trkpt><trkpt lat="40.96105124026402" lon="14.681361677540355"><ele>1229.1666666666667</ele><time>2026-04-12T08:52:31Z</time></trkpt><trkpt lat="40.96103313089878" lon="14.681270938566094"><ele>1223.0</ele><time>2026-04-12T08:52:32Z</time></trkpt><trkpt lat="40.96101535678022" lon="14.681170182768254"><ele>1226.2</ele><time>2026-04-12T08:52:33Z</time></trkpt><trkpt lat="40.96101991015405" lon="14.681050561352194"><ele>1229.4</ele><time>2026-04-12T08:52:34Z</time></trkpt><trkpt lat="40.96101022936785" lon="14.680922274921292"><ele>1232.6000000000001</ele><time>2026-04-12T08:52:35Z</time></trkpt><trkpt lat="40.961027171754395" lon="14.68079991667235"><ele>1235.8</ele><time>2026-04-12T08:52:36Z</time></trkpt><trkpt lat="40.96105257758915" lon="14.680684200518167"><ele>1239.0</ele><time>2026-04-12T08:52:37Z</time></trkpt><trkpt lat="40.961084582384096" lon="14.680565495924139"><ele>1239.0</ele><time>2026-04-12T08:52:38Z</time></trkpt><trkpt lat="40.96112316990037" lon="14.680455305571211"><ele>1239.0</ele><time>2026-04-12T08:52:39Z</time></trkpt><trkpt lat="40.96115566999589" lon="14.680348357065714"><ele>1239.0</ele><time>2026-04-12T08:52:40Z</time></trkpt><trkpt lat="40.96117524604943" lon="14.680242080932489"><ele>1239.0</ele><time>2026-04-12T08:52:41Z</time></trkpt><trkpt lat="40.96120271068161" lon="14.680151661836556"><ele>1239.0</ele><time>2026-04-12T08:52:42Z</time></trkpt><trkpt lat="40.96123507934574" lon="14.680072999634861"><ele>1239.0</ele><time>2026-04-12T08:52:43Z</time></trkpt><trkpt lat="40.961278540262974" lon="14.679986149355601"><ele>1242.1666666666667</ele><time>2026-04-12T08:52:44Z</time></trkpt><trkpt lat="40.961322490182475" lon="14.679896176556946"><ele>1245.3333333333333</ele><time>2026-04-12T08:52:45Z</time></trkpt><trkpt lat="40.961383088997934" lon="14.679814399908139"><ele>1248.5</ele><time>2026-04-12T08:52:46Z</time></trkpt><trkpt lat="40.96145470478618" lon="14.679720507006163"><ele>1251.6666666666665</ele><time>2026-04-12T08:52:48Z</time></trkpt><trkpt lat="40.961489794648486" lon="14.679637644499229"><ele>1254.8333333333333</ele><time>2026-04-12T08:52:49Z</time></trkpt><trkpt lat="40.96151811142081" lon="14.679538367643962"><ele>1258.0</ele><time>2026-04-12T08:52:50Z</time></trkpt><trkpt lat="40.96156372509527" lon="14.679440431838328"><ele>1261.0</ele><time>2026-04-12T08:52:51Z</time></trkpt><trkpt lat="40.96160460204185" lon="14.679363050995528"><ele>1264.0</ele><time>2026-04-12T08:52:52Z</time></trkpt><trkpt lat="40.96166467178402" lon="14.679268088553092"><ele>1267.0</ele><time>2026-04-12T08:52:53Z</time></trkpt><trkpt lat="40.96169692020963" lon="14.67917549993462"><ele>1270.0</ele><time>2026-04-12T08:52:54Z</time></trkpt><trkpt lat="40.96172217430233" lon="14.679068167053044"><ele>1273.0</ele><time>2026-04-12T08:52:55Z</time></trkpt><trkpt lat="40.96175483917975" lon="14.678926175890926"><ele>1276.0</ele><time>2026-04-12T08:52:57Z</time></trkpt><trkpt lat="40.96176301904606" lon="14.678839086793035"><ele>1278.0</ele><time>2026-04-12T08:52:58Z</time></trkpt><trkpt lat="40.96177150000372" lon="14.67872028961822"><ele>1280.0</ele><time>2026-04-12T08:52:59Z</time></trkpt><trkpt lat="40.96176645720412" lon="14.678604272949581"><ele>1282.0</ele><time>2026-04-12T08:53:00Z</time></trkpt><trkpt lat="40.96174272377212" lon="14.678464656962857"><ele>1284.0</ele><time>2026-04-12T08:53:02Z</time></trkpt><trkpt lat="40.96171528379865" lon="14.678371164027645"><ele>1286.0</ele><time>2026-04-12T08:53:04Z</time></trkpt><trkpt lat="40.961717861427466" lon="14.678278966315405"><ele>1288.0</ele><time>2026-04-12T08:53:05Z</time></trkpt><trkpt lat="40.961692347746045" lon="14.678202181661241"><ele>1288.7142857142858</ele><time>2026-04-12T08:53:06Z</time></trkpt><trkpt lat="40.96171438223899" lon="14.678107539418116"><ele>1289.4285714285716</ele><time>2026-04-12T08:53:08Z</time></trkpt><trkpt lat="40.961724084772406" lon="14.677998741915742"><ele>1290.142857142857</ele><time>2026-04-12T08:53:12Z</time></trkpt><trkpt lat="40.96172085370817" lon="14.67790550477477"><ele>1290.857142857143</ele><time>2026-04-12T08:53:16Z</time></trkpt><trkpt lat="40.96170785626463" lon="14.677822376109745"><ele>1291.5714285714287</ele><time>2026-04-12T08:53:19Z</time></trkpt><trkpt lat="40.96169427225389" lon="14.677726065216085"><ele>1292.2857142857142</ele><time>2026-04-12T08:53:23Z</time></trkpt><trkpt lat="40.961687521093054" lon="14.677631298366238"><ele>1293.0</ele><time>2026-04-12T08:53:27Z</time></trkpt><trkpt lat="40.961675445136194" lon="14.677546174166519"><ele>1293.0</ele><time>2026-04-12T08:53:29Z</time></trkpt><trkpt lat="40.96164010923996" lon="14.67747447452706"><ele>1293.0</ele><time>2026-04-12T08:53:32Z</time></trkpt><trkpt lat="40.96160077593968" lon="14.677386337046865"><ele>1293.0</ele><time>2026-04-12T08:53:35Z</time></trkpt><trkpt lat="40.961593862724676" lon="14.677291335993164"><ele>1293.0</ele><time>2026-04-12T08:53:38Z</time></trkpt><trkpt lat="40.96157126908998" lon="14.677213360438074"><ele>1293.0</ele><time>2026-04-12T08:53:42Z</time></trkpt><trkpt lat="40.96155520795134" lon="14.677102976043729"><ele>1293.0</ele><time>2026-04-12T08:53:47Z</time></trkpt><trkpt lat="40.96150285592264" lon="14.67701661140325"><ele>1293.0</ele><time>2026-04-12T08:53:53Z</time></trkpt><trkpt lat="40.96143664133936" lon="14.676964745867663"><ele>1293.0</ele><time>2026-04-12T08:53:56Z</time></trkpt><trkpt lat="40.961340753949116" lon="14.676984716163858"><ele>1293.0</ele><time>2026-04-12T08:54:00Z</time></trkpt><trkpt lat="40.96125202531494" lon="14.67697572234434"><ele>1293.0</ele><time>2026-04-12T08:54:02Z</time></trkpt><trkpt lat="40.96116494357343" lon="14.677009722986753"><ele>1293.0</ele><time>2026-04-12T08:54:04Z</time></trkpt><trkpt lat="40.961119249043605" lon="14.67709046392411"><ele>1293.0</ele><time>2026-04-12T08:54:07Z</time></trkpt><trkpt lat="40.961072185028655" lon="14.677207384292519"><ele>1293.0</ele><time>2026-04-12T08:54:10Z</time></trkpt><trkpt lat="40.961026374509515" lon="14.677296603353222"><ele>1293.0</ele><time>2026-04-12T08:54:13Z</time></trkpt><trkpt lat="40.96090788224904" lon="14.677481970485983"><ele>1293.0</ele><time>2026-04-12T08:54:15Z</time></trkpt><trkpt lat="40.96086155414313" lon="14.677539005676204"><ele>1293.0</ele><time>2026-04-12T08:54:16Z</time></trkpt><trkpt lat="40.96078932996891" lon="14.677610425632478"><ele>1293.0</ele><time>2026-04-12T08:54:18Z</time></trkpt><trkpt lat="40.960712355234804" lon="14.677635525475536"><ele>1299.0</ele><time>2026-04-12T08:54:20Z</time></trkpt><trkpt lat="40.960679312293" lon="14.677763330452297"><ele>1305.0</ele><time>2026-04-12T08:54:23Z</time></trkpt><trkpt lat="40.96060586052216" lon="14.677870394934372"><ele>1311.0</ele><time>2026-04-12T08:54:25Z</time></trkpt><trkpt lat="40.96057827113002" lon="14.677966163171854"><ele>1317.0</ele><time>2026-04-12T08:54:26Z</time></trkpt><trkpt lat="40.96054642007932" lon="14.678052757247775"><ele>1323.0</ele><time>2026-04-12T08:54:27Z</time></trkpt><trkpt lat="40.96051360569179" lon="14.678124428400926"><ele>1329.0</ele><time>2026-04-12T08:54:28Z</time></trkpt><trkpt lat="40.960426245972755" lon="14.678201648010887"><ele>1329.4</ele><time>2026-04-12T08:54:30Z</time></trkpt><trkpt lat="40.960329452267445" lon="14.678273110648231"><ele>1329.8000000000002</ele><time>2026-04-12T08:54:32Z</time></trkpt><trkpt lat="40.96027277184006" lon="14.678340385735401"><ele>1330.1999999999998</ele><time>2026-04-12T08:54:34Z</time></trkpt><trkpt lat="40.96020161271423" lon="14.67843925501504"><ele>1330.6</ele><time>2026-04-12T08:54:36Z</time></trkpt><trkpt lat="40.96010810825835" lon="14.678498187331716"><ele>1331.0</ele><time>2026-04-12T08:54:39Z</time></trkpt><trkpt lat="40.960036288311606" lon="14.678529024426302"><ele>1334.8333333333335</ele><time>2026-04-12T08:54:43Z</time></trkpt><trkpt lat="40.959960809360815" lon="14.678533498049337"><ele>1338.6666666666667</ele><time>2026-04-12T08:54:45Z</time></trkpt><trkpt lat="40.959900896668856" lon="14.678567560449922"><ele>1342.5</ele><time>2026-04-12T08:54:47Z</time></trkpt><trkpt lat="40.95986517486797" lon="14.678654131926674"><ele>1346.3333333333333</ele><time>2026-04-12T08:54:50Z</time></trkpt><trkpt lat="40.95984202412872" lon="14.678759674778467"><ele>1350.1666666666665</ele><time>2026-04-12T08:54:52Z</time></trkpt><trkpt lat="40.95979920739655" lon="14.678864321816288"><ele>1354.0</ele><time>2026-04-12T08:54:54Z</time></trkpt><trkpt lat="40.959809511336175" lon="14.678965799982945"><ele>1355.1666666666665</ele><time>2026-04-12T08:54:57Z</time></trkpt><trkpt lat="40.959784344560724" lon="14.679073561713086"><ele>1356.3333333333333</ele><time>2026-04-12T08:55:00Z</time></trkpt><trkpt lat="40.95971525178327" lon="14.679135776017807"><ele>1357.5</ele><time>2026-04-12T08:55:02Z</time></trkpt><trkpt lat="40.95965224251537" lon="14.679195310172291"><ele>1358.6666666666667</ele><time>2026-04-12T08:55:04Z</time></trkpt><trkpt lat="40.95963808665947" lon="14.67928431943852"><ele>1359.8333333333335</ele><time>2026-04-12T08:55:06Z</time></trkpt><trkpt lat="40.95958027646601" lon="14.679343750317651"><ele>1361.0</ele><time>2026-04-12T08:55:08Z</time></trkpt><trkpt lat="40.95951822675331" lon="14.679401460063692"><ele>1360.6</ele><time>2026-04-12T08:55:10Z</time></trkpt><trkpt lat="40.959484511393164" lon="14.679486344064337"><ele>1360.1999999999998</ele><time>2026-04-12T08:55:14Z</time></trkpt><trkpt lat="40.95943147935319" lon="14.679601401776388"><ele>1359.8000000000002</ele><time>2026-04-12T08:55:16Z</time></trkpt><trkpt lat="40.95934303801122" lon="14.679662879067441"><ele>1359.4</ele><time>2026-04-12T08:55:18Z</time></trkpt><trkpt lat="40.959269071378166" lon="14.679708865048083"><ele>1359.0</ele><time>2026-04-12T08:55:20Z</time></trkpt><trkpt lat="40.95918099396475" lon="14.679753661024932"><ele>1359.0</ele><time>2026-04-12T08:55:22Z</time></trkpt><trkpt lat="40.95911657564953" lon="14.679761101229145"><ele>1359.0</ele><time>2026-04-12T08:55:24Z</time></trkpt><trkpt lat="40.95905445789423" lon="14.679788102650047"><ele>1359.0</ele><time>2026-04-12T08:55:27Z</time></trkpt><trkpt lat="40.95899553519254" lon="14.679754237437745"><ele>1359.0</ele><time>2026-04-12T08:57:23Z</time></trkpt><trkpt lat="40.958938746742774" lon="14.679794411491118"><ele>1359.0</ele><time>2026-04-12T08:57:29Z</time></trkpt><trkpt lat="40.95887182330693" lon="14.679795520360791"><ele>1359.0</ele><time>2026-04-12T08:57:37Z</time></trkpt><trkpt lat="40.95880936574884" lon="14.679835360180991"><ele>1359.0</ele><time>2026-04-12T08:57:48Z</time></trkpt><trkpt lat="40.95875500828726" lon="14.679787338298032"><ele>1359.0</ele><time>2026-04-12T08:58:02.999Z</time></trkpt><trkpt lat="40.95869562755046" lon="14.67983837289479"><ele>1359.0</ele><time>2026-04-12T09:31:10.999Z</time></trkpt><trkpt lat="40.95876008053019" lon="14.679828788368383"><ele>1359.0</ele><time>2026-04-12T09:36:28Z</time></trkpt><trkpt lat="40.95881917877724" lon="14.679798038074852"><ele>1359.0</ele><time>2026-04-12T09:36:37Z</time></trkpt><trkpt lat="40.95893029303091" lon="14.679794211402642"><ele>1359.0</ele><time>2026-04-12T09:36:51Z</time></trkpt><trkpt lat="40.95898468332302" lon="14.679846128606112"><ele>1359.0</ele><time>2026-04-12T09:37:04Z</time></trkpt><trkpt lat="40.95904690147911" lon="14.679862405242638"><ele>1359.0</ele><time>2026-04-12T09:37:09Z</time></trkpt><trkpt lat="40.95903850044473" lon="14.67977849034615"><ele>1359.0</ele><time>2026-04-12T09:37:58.999Z</time></trkpt><trkpt lat="40.95897830689639" lon="14.679841084215166"><ele>1359.0</ele><time>2026-04-12T09:41:27.999Z</time></trkpt><trkpt lat="40.95902285948652" lon="14.679916522341797"><ele>1359.0</ele><time>2026-04-12T09:41:31.999Z</time></trkpt><trkpt lat="40.95911648555507" lon="14.679888321905729"><ele>1359.0</ele><time>2026-04-12T09:41:33.999Z</time></trkpt><trkpt lat="40.95921190418736" lon="14.679840181743755"><ele>1359.0</ele><time>2026-04-12T09:41:35.999Z</time></trkpt><trkpt lat="40.959296903669205" lon="14.679825837891217"><ele>1359.0</ele><time>2026-04-12T09:41:37.999Z</time></trkpt><trkpt lat="40.95937747422019" lon="14.679809172280487"><ele>1359.2857142857142</ele><time>2026-04-12T09:41:39.999Z</time></trkpt><trkpt lat="40.95934192613779" lon="14.679724622688703"><ele>1359.5714285714284</ele><time>2026-04-12T09:41:53.999Z</time></trkpt><trkpt lat="40.959382102423696" lon="14.679635030383444"><ele>1359.8571428571427</ele><time>2026-04-12T09:41:56.999Z</time></trkpt><trkpt lat="40.95943387376895" lon="14.679580238407699"><ele>1360.142857142857</ele><time>2026-04-12T09:41:58.999Z</time></trkpt><trkpt lat="40.959472536377994" lon="14.679493868402574"><ele>1360.4285714285713</ele><time>2026-04-12T09:42:02.999Z</time></trkpt><trkpt lat="40.95951642013979" lon="14.679418672483584"><ele>1360.7142857142856</ele><time>2026-04-12T09:42:07.999Z</time></trkpt><trkpt lat="40.95957920079977" lon="14.679381242202815"><ele>1361.0</ele><time>2026-04-12T09:42:11.999Z</time></trkpt><trkpt lat="40.95963009652694" lon="14.679327362231462"><ele>1361.0</ele><time>2026-04-12T09:42:21.999Z</time></trkpt><trkpt lat="40.95964422380275" lon="14.679221220293758"><ele>1361.0</ele><time>2026-04-12T09:42:27Z</time></trkpt><trkpt lat="40.95969815681911" lon="14.67913950174153"><ele>1361.0</ele><time>2026-04-12T09:42:32Z</time></trkpt><trkpt lat="40.95973141907272" lon="14.679064899961922"><ele>1361.0</ele><time>2026-04-12T09:42:34Z</time></trkpt><trkpt lat="40.9597064256326" lon="14.678956623760595"><ele>1361.0</ele><time>2026-04-12T09:42:37Z</time></trkpt><trkpt lat="40.95972075342299" lon="14.678863026853074"><ele>1361.0</ele><time>2026-04-12T09:42:39Z</time></trkpt><trkpt lat="40.95973636304724" lon="14.678775447340207"><ele>1360.9999999999998</ele><time>2026-04-12T09:42:41Z</time></trkpt><trkpt lat="40.959773858159984" lon="14.678693741747873"><ele>1361.0</ele><time>2026-04-12T09:42:44Z</time></trkpt><trkpt lat="40.959832290063375" lon="14.678618788791354"><ele>1361.0</ele><time>2026-04-12T09:42:46Z</time></trkpt><trkpt lat="40.959880947610465" lon="14.678564540192998"><ele>1361.0</ele><time>2026-04-12T09:42:48Z</time></trkpt><trkpt lat="40.95993623341368" lon="14.678517031977549"><ele>1361.0</ele><time>2026-04-12T09:42:50Z</time></trkpt><trkpt lat="40.95999280270668" lon="14.678469098429401"><ele>1360.9999999999998</ele><time>2026-04-12T09:42:51Z</time></trkpt><trkpt lat="40.96006812757255" lon="14.67839507609462"><ele>1361.0</ele><time>2026-04-12T09:42:53Z</time></trkpt><trkpt lat="40.96013746956292" lon="14.678342120860549"><ele>1355.0</ele><time>2026-04-12T09:42:55Z</time></trkpt><trkpt lat="40.960211334430994" lon="14.678275291075845"><ele>1349.0</ele><time>2026-04-12T09:42:58Z</time></trkpt><trkpt lat="40.960308225041814" lon="14.678236910397745"><ele>1343.0</ele><time>2026-04-12T09:43:00Z</time></trkpt><trkpt lat="40.96038887874006" lon="14.678156053954837"><ele>1337.0</ele><time>2026-04-12T09:43:02Z</time></trkpt><trkpt lat="40.96044760461315" lon="14.678069043160548"><ele>1331.0</ele><time>2026-04-12T09:43:04Z</time></trkpt><trkpt lat="40.96051724383344" lon="14.677924373728143"><ele>1331.0</ele><time>2026-04-12T09:43:06Z</time></trkpt><trkpt lat="40.960575809230725" lon="14.677824728004238"><ele>1331.0</ele><time>2026-04-12T09:43:08Z</time></trkpt><trkpt lat="40.96060841953515" lon="14.677739177370219"><ele>1331.0</ele><time>2026-04-12T09:43:10Z</time></trkpt><trkpt lat="40.96065890973995" lon="14.67768629155293"><ele>1331.0</ele><time>2026-04-12T09:43:12Z</time></trkpt><trkpt lat="40.960726585230695" lon="14.67763840487181"><ele>1331.0</ele><time>2026-04-12T09:43:14Z</time></trkpt><trkpt lat="40.96078844777974" lon="14.677581340523192"><ele>1331.0</ele><time>2026-04-12T09:43:16Z</time></trkpt><trkpt lat="40.96085237794915" lon="14.677498314716715"><ele>1324.6666666666667</ele><time>2026-04-12T09:43:18Z</time></trkpt><trkpt lat="40.96090255002488" lon="14.6773835147861"><ele>1318.3333333333335</ele><time>2026-04-12T09:43:20Z</time></trkpt><trkpt lat="40.96097019082538" lon="14.677317376857326"><ele>1312.0</ele><time>2026-04-12T09:43:22Z</time></trkpt><trkpt lat="40.961024249059456" lon="14.677249071103116"><ele>1305.6666666666667</ele><time>2026-04-12T09:43:24Z</time></trkpt><trkpt lat="40.9610487503631" lon="14.677139492914957"><ele>1299.3333333333333</ele><time>2026-04-12T09:43:26.001Z</time></trkpt><trkpt lat="40.96110575544486" lon="14.67708266194538"><ele>1293.0</ele><time>2026-04-12T09:43:29.001Z</time></trkpt><trkpt lat="40.961168210296464" lon="14.677027691565959"><ele>1293.0</ele><time>2026-04-12T09:43:32.001Z</time></trkpt><trkpt lat="40.961228197080025" lon="14.676999862678528"><ele>1293.0</ele><time>2026-04-12T09:43:34.001Z</time></trkpt><trkpt lat="40.961339083149106" lon="14.677005813135125"><ele>1293.0</ele><time>2026-04-12T09:43:37.001Z</time></trkpt><trkpt lat="40.96140274072519" lon="14.67699818420211"><ele>1293.0</ele><time>2026-04-12T09:43:39.001Z</time></trkpt><trkpt lat="40.96143770585223" lon="14.677076917669018"><ele>1293.0</ele><time>2026-04-12T09:43:42.001Z</time></trkpt><trkpt lat="40.961464680975176" lon="14.677163606154405"><ele>1293.0</ele><time>2026-04-12T09:43:44.001Z</time></trkpt><trkpt lat="40.961503450392236" lon="14.677236234142496"><ele>1293.0</ele><time>2026-04-12T09:43:47.001Z</time></trkpt><trkpt lat="40.96153393268635" lon="14.677325835670585"><ele>1293.0</ele><time>2026-04-12T09:43:50.001Z</time></trkpt><trkpt lat="40.96155660901641" lon="14.677430349309363"><ele>1293.0</ele><time>2026-04-12T09:43:53.001Z</time></trkpt><trkpt lat="40.96157325775567" lon="14.677526156305081"><ele>1293.0</ele><time>2026-04-12T09:43:56.001Z</time></trkpt><trkpt lat="40.96156280992835" lon="14.677609357410333"><ele>1293.0</ele><time>2026-04-12T09:43:59.001Z</time></trkpt><trkpt lat="40.961559680809316" lon="14.677701514564365"><ele>1293.0</ele><time>2026-04-12T09:44:04.001Z</time></trkpt><trkpt lat="40.961545345722605" lon="14.677800286458979"><ele>1293.0</ele><time>2026-04-12T09:44:08.001Z</time></trkpt><trkpt lat="40.961546917442696" lon="14.67789721195487"><ele>1293.0</ele><time>2026-04-12T09:44:11.001Z</time></trkpt><trkpt lat="40.961544146531246" lon="14.678019805221515"><ele>1292.0</ele><time>2026-04-12T09:44:14.001Z</time></trkpt><trkpt lat="40.961512710509034" lon="14.67816202787776"><ele>1291.0</ele><time>2026-04-12T09:44:24.001Z</time></trkpt><trkpt lat="40.96149905253911" lon="14.678265939025911"><ele>1290.0</ele><time>2026-04-12T09:44:26.001Z</time></trkpt><trkpt lat="40.961549762857715" lon="14.67834172120877"><ele>1289.0</ele><time>2026-04-12T09:44:28.001Z</time></trkpt><trkpt lat="40.96160168496555" lon="14.678405040990238"><ele>1288.0</ele><time>2026-04-12T09:44:30.001Z</time></trkpt><trkpt lat="40.96157443049482" lon="14.678589220693022"><ele>1285.6000000000001</ele><time>2026-04-12T09:44:31.001Z</time></trkpt><trkpt lat="40.96159979020703" lon="14.678670260265282"><ele>1283.2</ele><time>2026-04-12T09:44:32.001Z</time></trkpt><trkpt lat="40.96164068913945" lon="14.678819260205907"><ele>1280.8</ele><time>2026-04-12T09:44:34.001Z</time></trkpt><trkpt lat="40.96164906246464" lon="14.67895489485962"><ele>1278.4</ele><time>2026-04-12T09:44:36.001Z</time></trkpt><trkpt lat="40.96162206335424" lon="14.679032266598682"><ele>1276.0</ele><time>2026-04-12T09:44:38.001Z</time></trkpt><trkpt lat="40.96158882506916" lon="14.679157609599594"><ele>1276.0</ele><time>2026-04-12T09:44:40.001Z</time></trkpt><trkpt lat="40.96156674931685" lon="14.679240560746463"><ele>1276.0</ele><time>2026-04-12T09:44:41.001Z</time></trkpt><trkpt lat="40.961540389446576" lon="14.67933153681686"><ele>1276.0</ele><time>2026-04-12T09:44:42.001Z</time></trkpt><trkpt lat="40.961506222840086" lon="14.679414518874726"><ele>1276.0</ele><time>2026-04-12T09:44:43.001Z</time></trkpt><trkpt lat="40.96146494796197" lon="14.679498623919592"><ele>1276.0</ele><time>2026-04-12T09:44:44.001Z</time></trkpt><trkpt lat="40.96142063007756" lon="14.679570714417936"><ele>1276.0</ele><time>2026-04-12T09:44:45.001Z</time></trkpt><trkpt lat="40.961374124068534" lon="14.67964995558641"><ele>1276.0</ele><time>2026-04-12T09:44:46.001Z</time></trkpt><trkpt lat="40.96132243594211" lon="14.679745556849834"><ele>1272.3999999999999</ele><time>2026-04-12T09:44:47.001Z</time></trkpt><trkpt lat="40.96127263222253" lon="14.679838683892083"><ele>1268.8</ele><time>2026-04-12T09:44:48.001Z</time></trkpt><trkpt lat="40.96122971914783" lon="14.679919047574607"><ele>1265.1999999999998</ele><time>2026-04-12T09:44:49.001Z</time></trkpt><trkpt lat="40.96118702638017" lon="14.680008900101226"><ele>1261.6</ele><time>2026-04-12T09:44:50.001Z</time></trkpt><trkpt lat="40.961146399336045" lon="14.680101050171789"><ele>1258.0</ele><time>2026-04-12T09:44:51.001Z</time></trkpt><trkpt lat="40.961007865297645" lon="14.680712522774717"><ele>1254.2</ele><time>2026-04-12T09:44:52.001Z</time></trkpt><trkpt lat="40.960958016327886" lon="14.680830720646847"><ele>1250.4</ele><time>2026-04-12T09:44:53.001Z</time></trkpt><trkpt lat="40.96093476273344" lon="14.680961983699842"><ele>1246.6000000000001</ele><time>2026-04-12T09:44:54.001Z</time></trkpt><trkpt lat="40.96093208055855" lon="14.681107420410877"><ele>1242.8</ele><time>2026-04-12T09:44:55.001Z</time></trkpt><trkpt lat="40.960921311148326" lon="14.681250083940746"><ele>1239.0</ele><time>2026-04-12T09:44:56.001Z</time></trkpt><trkpt lat="40.96091454650024" lon="14.681350296398897"><ele>1235.8</ele><time>2026-04-12T09:44:57.001Z</time></trkpt><trkpt lat="40.96095438041255" lon="14.681474225152758"><ele>1232.6000000000001</ele><time>2026-04-12T09:44:59.001Z</time></trkpt><trkpt lat="40.96093276561602" lon="14.681662166545653"><ele>1229.4</ele><time>2026-04-12T09:45:01.001Z</time></trkpt><trkpt lat="40.96091901839551" lon="14.681775271369304"><ele>1226.2</ele><time>2026-04-12T09:45:02.001Z</time></trkpt><trkpt lat="40.960888785528425" lon="14.681912164318561"><ele>1223.0</ele><time>2026-04-12T09:45:03.001Z</time></trkpt><trkpt lat="40.96086712301611" lon="14.6820294389355"><ele>1230.4</ele><time>2026-04-12T09:45:04.001Z</time></trkpt><trkpt lat="40.960833683236814" lon="14.682141943112166"><ele>1237.8</ele><time>2026-04-12T09:45:05.001Z</time></trkpt><trkpt lat="40.96078708018306" lon="14.682295958847783"><ele>1245.2</ele><time>2026-04-12T09:45:06.001Z</time></trkpt><trkpt lat="40.96076197266424" lon="14.682426730050276"><ele>1252.6</ele><time>2026-04-12T09:45:07.001Z</time></trkpt><trkpt lat="40.96073579069134" lon="14.682532310903001"><ele>1260.0</ele><time>2026-04-12T09:45:08.001Z</time></trkpt><trkpt lat="40.96071466313531" lon="14.682619725711398"><ele>1260.0</ele><time>2026-04-12T09:45:09.001Z</time></trkpt><trkpt lat="40.96069780010181" lon="14.682705017660586"><ele>1260.0</ele><time>2026-04-12T09:45:10.001Z</time></trkpt><trkpt lat="40.96068782188996" lon="14.682794677774378"><ele>1260.0</ele><time>2026-04-12T09:45:11.001Z</time></trkpt><trkpt lat="40.96066120965249" lon="14.682909705297359"><ele>1260.0</ele><time>2026-04-12T09:45:13Z</time></trkpt><trkpt lat="40.96061864964989" lon="14.683089786395351"><ele>1260.0</ele><time>2026-04-12T09:45:15Z</time></trkpt><trkpt lat="40.96057926936893" lon="14.683212368385707"><ele>1256.5</ele><time>2026-04-12T09:45:16Z</time></trkpt><trkpt lat="40.960519192756784" lon="14.683362912083851"><ele>1253.0</ele><time>2026-04-12T09:45:17Z</time></trkpt><trkpt lat="40.96045077116978" lon="14.683516100393978"><ele>1249.5</ele><time>2026-04-12T09:45:18Z</time></trkpt><trkpt lat="40.96038377855777" lon="14.683627163255029"><ele>1246.0</ele><time>2026-04-12T09:45:19Z</time></trkpt><trkpt lat="40.96033085273094" lon="14.683715206351351"><ele>1246.1666666666665</ele><time>2026-04-12T09:45:20Z</time></trkpt><trkpt lat="40.960275140262524" lon="14.683804710107792"><ele>1246.3333333333333</ele><time>2026-04-12T09:45:21Z</time></trkpt><trkpt lat="40.960249813218795" lon="14.683888653278732"><ele>1246.5</ele><time>2026-04-12T09:45:22Z</time></trkpt><trkpt lat="40.960216003010714" lon="14.683965552753252"><ele>1246.6666666666667</ele><time>2026-04-12T09:45:23Z</time></trkpt><trkpt lat="40.96018319137854" lon="14.684037756075666"><ele>1246.8333333333335</ele><time>2026-04-12T09:45:24Z</time></trkpt><trkpt lat="40.96014176453342" lon="14.684103966845688"><ele>1247.0</ele><time>2026-04-12T09:45:25Z</time></trkpt><trkpt lat="40.960011881079076" lon="14.684129842824266"><ele>1247.0</ele><time>2026-04-12T09:45:27Z</time></trkpt><trkpt lat="40.959912343136914" lon="14.684129810598767"><ele>1247.0</ele><time>2026-04-12T09:45:28Z</time></trkpt><trkpt lat="40.95984292690466" lon="14.684162490232808"><ele>1247.0</ele><time>2026-04-12T09:45:29Z</time></trkpt><trkpt lat="40.95975752119312" lon="14.684156002198302"><ele>1247.0</ele><time>2026-04-12T09:45:30Z</time></trkpt><trkpt lat="40.95969061525565" lon="14.684146426567171"><ele>1247.0</ele><time>2026-04-12T09:45:31Z</time></trkpt><trkpt lat="40.95959364364687" lon="14.684082782314507"><ele>1247.0</ele><time>2026-04-12T09:45:33Z</time></trkpt><trkpt lat="40.959529000475456" lon="14.68398808598485"><ele>1247.0</ele><time>2026-04-12T09:45:35Z</time></trkpt><trkpt lat="40.95948298699202" lon="14.683924694225784"><ele>1247.0</ele><time>2026-04-12T09:45:37Z</time></trkpt><trkpt lat="40.95939123468357" lon="14.684026838072676"><ele>1247.0</ele><time>2026-04-12T09:45:39Z</time></trkpt><trkpt lat="40.95935641108665" lon="14.684126682904079"><ele>1247.0</ele><time>2026-04-12T09:45:41Z</time></trkpt><trkpt lat="40.959389847548074" lon="14.684247059525466"><ele>1247.0</ele><time>2026-04-12T09:45:43Z</time></trkpt><trkpt lat="40.95936976701304" lon="14.684348796122302"><ele>1247.0</ele><time>2026-04-12T09:45:45.001Z</time></trkpt><trkpt lat="40.95937620423983" lon="14.68447512636238"><ele>1242.5</ele><time>2026-04-12T09:45:48.001Z</time></trkpt><trkpt lat="40.95938487694619" lon="14.684570478426723"><ele>1238.0</ele><time>2026-04-12T09:45:50.001Z</time></trkpt><trkpt lat="40.95940548422918" lon="14.684680165862524"><ele>1233.5</ele><time>2026-04-12T09:45:52.001Z</time></trkpt><trkpt lat="40.95943987444012" lon="14.684806229114178"><ele>1229.0</ele><time>2026-04-12T09:45:54.001Z</time></trkpt><trkpt lat="40.95945168437213" lon="14.684890470737122"><ele>1224.5</ele><time>2026-04-12T09:45:55.001Z</time></trkpt><trkpt lat="40.959471352983016" lon="14.684977887508108"><ele>1220.0</ele><time>2026-04-12T09:45:56.001Z</time></trkpt><trkpt lat="40.95950064818547" lon="14.685074495322263"><ele>1220.0</ele><time>2026-04-12T09:45:57.001Z</time></trkpt><trkpt lat="40.95952348548466" lon="14.685158628569463"><ele>1220.0</ele><time>2026-04-12T09:45:58.001Z</time></trkpt><trkpt lat="40.95957026372525" lon="14.685244372210716"><ele>1220.0</ele><time>2026-04-12T09:45:59.001Z</time></trkpt><trkpt lat="40.9595801142217" lon="14.685340430206402"><ele>1220.0</ele><time>2026-04-12T09:46:00.001Z</time></trkpt><trkpt lat="40.95960101143876" lon="14.685424400555442"><ele>1220.0</ele><time>2026-04-12T09:46:01.001Z</time></trkpt><trkpt lat="40.95965302924967" lon="14.685551695626957"><ele>1220.0</ele><time>2026-04-12T09:46:03.001Z</time></trkpt><trkpt lat="40.959667926518115" lon="14.68568700949023"><ele>1217.5714285714287</ele><time>2026-04-12T09:46:05.001Z</time></trkpt><trkpt lat="40.959645518825106" lon="14.685798316645124"><ele>1215.142857142857</ele><time>2026-04-12T09:46:07.001Z</time></trkpt><trkpt lat="40.959591742206186" lon="14.685859389650147"><ele>1212.7142857142858</ele><time>2026-04-12T09:46:09.001Z</time></trkpt><trkpt lat="40.959543774647685" lon="14.685928989786806"><ele>1210.2857142857142</ele><time>2026-04-12T09:46:12.001Z</time></trkpt><trkpt lat="40.95951455822922" lon="14.686020289823121"><ele>1207.857142857143</ele><time>2026-04-12T09:46:18.001Z</time></trkpt><trkpt lat="40.95957312370705" lon="14.68606059831708"><ele>1205.4285714285713</ele><time>2026-04-12T09:46:25.001Z</time></trkpt><trkpt lat="40.95963282398251" lon="14.686096067534978"><ele>1203.0</ele><time>2026-04-12T09:46:29.001Z</time></trkpt><trkpt lat="40.95969559406574" lon="14.68612135188645"><ele>1200.7142857142858</ele><time>2026-04-12T09:46:33.001Z</time></trkpt><trkpt lat="40.9597577340812" lon="14.686149897831886"><ele>1198.4285714285716</ele><time>2026-04-12T09:46:36.001Z</time></trkpt><trkpt lat="40.95981290193579" lon="14.686194419062522"><ele>1196.1428571428573</ele><time>2026-04-12T09:46:39.001Z</time></trkpt><trkpt lat="40.959882444119636" lon="14.686219686174312"><ele>1193.857142857143</ele><time>2026-04-12T09:46:45.001Z</time></trkpt><trkpt lat="40.959956421119166" lon="14.686232320948909"><ele>1191.5714285714287</ele><time>2026-04-12T09:46:50.001Z</time></trkpt><trkpt lat="40.960021773386046" lon="14.686197987399842"><ele>1189.2857142857144</ele><time>2026-04-12T09:46:54.001Z</time></trkpt><trkpt lat="40.96007818582671" lon="14.686134222189057"><ele>1187.0</ele><time>2026-04-12T09:46:59.001Z</time></trkpt><trkpt lat="40.96017298180424" lon="14.686129208868167"><ele>1184.1666666666667</ele><time>2026-04-12T09:47:05.001Z</time></trkpt><trkpt lat="40.96024083990017" lon="14.686077977048555"><ele>1181.3333333333335</ele><time>2026-04-12T09:47:09.001Z</time></trkpt><trkpt lat="40.96030980143443" lon="14.686059064654565"><ele>1178.5</ele><time>2026-04-12T09:47:19.001Z</time></trkpt><trkpt lat="40.960365165260164" lon="14.686140820286989"><ele>1175.6666666666667</ele><time>2026-04-12T09:47:34.001Z</time></trkpt><trkpt lat="40.960383565489636" lon="14.686239886878097"><ele>1172.8333333333333</ele><time>2026-04-12T09:47:37.001Z</time></trkpt><trkpt lat="40.96034843366621" lon="14.686352245407612"><ele>1170.0</ele><time>2026-04-12T09:47:40.001Z</time></trkpt><trkpt lat="40.96031679393383" lon="14.686469732213133"><ele>1167.8333333333333</ele><time>2026-04-12T09:47:42.001Z</time></trkpt><trkpt lat="40.96026937244482" lon="14.686560154986019"><ele>1165.6666666666667</ele><time>2026-04-12T09:47:44.001Z</time></trkpt><trkpt lat="40.9602215078037" lon="14.686662151220114"><ele>1163.5</ele><time>2026-04-12T09:47:46.001Z</time></trkpt><trkpt lat="40.96018992593209" lon="14.686747502467727"><ele>1161.3333333333335</ele><time>2026-04-12T09:47:47.001Z</time></trkpt><trkpt lat="40.960148829862455" lon="14.686825101776806"><ele>1159.1666666666667</ele><time>2026-04-12T09:47:48.001Z</time></trkpt><trkpt lat="40.96011305101049" lon="14.68689635148055"><ele>1157.0</ele><time>2026-04-12T09:47:49.001Z</time></trkpt><trkpt lat="40.96002898953507" lon="14.686986911697227"><ele>1157.0</ele><time>2026-04-12T09:47:51.001Z</time></trkpt><trkpt lat="40.95996684029498" lon="14.687036589932088"><ele>1157.0</ele><time>2026-04-12T09:47:52.001Z</time></trkpt><trkpt lat="40.95990178395809" lon="14.687139690813407"><ele>1157.0</ele><time>2026-04-12T09:47:54.001Z</time></trkpt><trkpt lat="40.959849333220156" lon="14.687228148395176"><ele>1157.0</ele><time>2026-04-12T09:47:55.001Z</time></trkpt><trkpt lat="40.95981843911569" lon="14.687311506729596"><ele>1157.0</ele><time>2026-04-12T09:47:56.001Z</time></trkpt><trkpt lat="40.9597669369978" lon="14.687483115028973"><ele>1157.0</ele><time>2026-04-12T09:47:57.001Z</time></trkpt><trkpt lat="40.959713518316086" lon="14.68758232882384"><ele>1157.0</ele><time>2026-04-12T09:47:58.001Z</time></trkpt><trkpt lat="40.95966132488228" lon="14.687705632181475"><ele>1157.0</ele><time>2026-04-12T09:47:59.001Z</time></trkpt><trkpt lat="40.95960343701675" lon="14.687796847602982"><ele>1157.0</ele><time>2026-04-12T09:48:00.001Z</time></trkpt><trkpt lat="40.95955127423193" lon="14.6878874323181"><ele>1157.0</ele><time>2026-04-12T09:48:01.001Z</time></trkpt><trkpt lat="40.959493817800336" lon="14.687961898312906"><ele>1155.4</ele><time>2026-04-12T09:48:02.001Z</time></trkpt><trkpt lat="40.95943104600036" lon="14.68803394455822"><ele>1153.8000000000002</ele><time>2026-04-12T09:48:03.001Z</time></trkpt><trkpt lat="40.95937448693905" lon="14.688087780862762"><ele>1152.2</ele><time>2026-04-12T09:48:04.001Z</time></trkpt><trkpt lat="40.95931412226641" lon="14.688140469868907"><ele>1150.6000000000001</ele><time>2026-04-12T09:48:05.001Z</time></trkpt><trkpt lat="40.95920608211165" lon="14.688192301972546"><ele>1149.0</ele><time>2026-04-12T09:48:07.001Z</time></trkpt><trkpt lat="40.95909746053042" lon="14.688226676016079"><ele>1149.0</ele><time>2026-04-12T09:48:09.001Z</time></trkpt><trkpt lat="40.95899542204121" lon="14.688299845822234"><ele>1149.0</ele><time>2026-04-12T09:48:11.001Z</time></trkpt><trkpt lat="40.958951784659455" lon="14.688360382934404"><ele>1149.0</ele><time>2026-04-12T09:48:13.001Z</time></trkpt><trkpt lat="40.95900355137298" lon="14.688449817510453"><ele>1149.0</ele><time>2026-04-12T09:48:21.001Z</time></trkpt><trkpt lat="40.95911909655199" lon="14.688430450203414"><ele>1149.0</ele><time>2026-04-12T09:48:23.002Z</time></trkpt><trkpt lat="40.959191756031665" lon="14.68837651251451"><ele>1145.8</ele><time>2026-04-12T09:48:24.002Z</time></trkpt><trkpt lat="40.95929586679448" lon="14.688327181171697"><ele>1142.6000000000001</ele><time>2026-04-12T09:48:25.002Z</time></trkpt><trkpt lat="40.95938596223144" lon="14.688276935541541"><ele>1139.4</ele><time>2026-04-12T09:48:26.002Z</time></trkpt><trkpt lat="40.959483069436025" lon="14.688193583112842"><ele>1136.2</ele><time>2026-04-12T09:48:27.001Z</time></trkpt><trkpt lat="40.95956572974623" lon="14.688135271417702"><ele>1133.0</ele><time>2026-04-12T09:48:28.001Z</time></trkpt><trkpt lat="40.959640695799465" lon="14.688046853756731"><ele>1133.0</ele><time>2026-04-12T09:48:29.001Z</time></trkpt><trkpt lat="40.95971493772906" lon="14.687950793020603"><ele>1133.0</ele><time>2026-04-12T09:48:30.001Z</time></trkpt><trkpt lat="40.95979298631876" lon="14.687880487455695"><ele>1133.0</ele><time>2026-04-12T09:48:31.001Z</time></trkpt><trkpt lat="40.959872085765475" lon="14.68784573755415"><ele>1133.0</ele><time>2026-04-12T09:48:32.001Z</time></trkpt><trkpt lat="40.95993428842042" lon="14.687810080893039"><ele>1133.0</ele><time>2026-04-12T09:48:33.001Z</time></trkpt><trkpt lat="40.96000310341711" lon="14.687741356350381"><ele>1133.0</ele><time>2026-04-12T09:48:34.001Z</time></trkpt><trkpt lat="40.96006738996467" lon="14.687690133373062"><ele>1132.4</ele><time>2026-04-12T09:48:35.001Z</time></trkpt><trkpt lat="40.96013147379991" lon="14.687605833057123"><ele>1131.8</ele><time>2026-04-12T09:48:36.001Z</time></trkpt><trkpt lat="40.96020324644202" lon="14.687532706925596"><ele>1131.2</ele><time>2026-04-12T09:48:37.001Z</time></trkpt><trkpt lat="40.96028534479405" lon="14.68747795199554"><ele>1130.6</ele><time>2026-04-12T09:48:38.001Z</time></trkpt><trkpt lat="40.9603420069748" lon="14.687422834290254"><ele>1130.0</ele><time>2026-04-12T09:48:39.001Z</time></trkpt><trkpt lat="40.96045008817996" lon="14.687376377217575"><ele>1130.0</ele><time>2026-04-12T09:48:40.001Z</time></trkpt><trkpt lat="40.96054853551252" lon="14.687310554690999"><ele>1130.0</ele><time>2026-04-12T09:48:41.001Z</time></trkpt><trkpt lat="40.96064722093937" lon="14.68723802734104"><ele>1130.0</ele><time>2026-04-12T09:48:42.001Z</time></trkpt><trkpt lat="40.96072490139475" lon="14.687172780753754"><ele>1130.0</ele><time>2026-04-12T09:48:43.001Z</time></trkpt><trkpt lat="40.96080938337722" lon="14.687112896589397"><ele>1130.0</ele><time>2026-04-12T09:48:44.001Z</time></trkpt><trkpt lat="40.960891914811604" lon="14.6870578835853"><ele>1129.142857142857</ele><time>2026-04-12T09:48:45.001Z</time></trkpt><trkpt lat="40.960955138588844" lon="14.687027445354405"><ele>1128.2857142857142</ele><time>2026-04-12T09:48:46.001Z</time></trkpt><trkpt lat="40.961025969554406" lon="14.687011658686941"><ele>1127.4285714285716</ele><time>2026-04-12T09:48:48.001Z</time></trkpt><trkpt lat="40.96109010403965" lon="14.68703975862872"><ele>1126.5714285714284</ele><time>2026-04-12T09:48:53.001Z</time></trkpt><trkpt lat="40.96111346477904" lon="14.686954577220979"><ele>1125.7142857142858</ele><time>2026-04-12T09:48:59.001Z</time></trkpt><trkpt lat="40.961179536004536" lon="14.686904197295128"><ele>1124.857142857143</ele><time>2026-04-12T09:49:07.001Z</time></trkpt><trkpt lat="40.961251511226784" lon="14.686842437764698"><ele>1124.0</ele><time>2026-04-12T09:49:11.001Z</time></trkpt><trkpt lat="40.96131909001086" lon="14.686793601898845"><ele>1124.0</ele><time>2026-04-12T09:49:14.001Z</time></trkpt><trkpt lat="40.96138794940846" lon="14.686761344929549"><ele>1124.0</ele><time>2026-04-12T09:49:17.001Z</time></trkpt><trkpt lat="40.96145149311552" lon="14.68669151970838"><ele>1124.0</ele><time>2026-04-12T09:49:21.001Z</time></trkpt><trkpt lat="40.961533577840754" lon="14.686737011083146"><ele>1124.0</ele><time>2026-04-12T09:49:24.001Z</time></trkpt><trkpt lat="40.9616027216292" lon="14.686757360636845"><ele>1124.0</ele><time>2026-04-12T09:49:29.001Z</time></trkpt><trkpt lat="40.96167043820496" lon="14.686813651180552"><ele>1124.0</ele><time>2026-04-12T09:49:34.001Z</time></trkpt><trkpt lat="40.96172633997105" lon="14.686891865133305"><ele>1121.857142857143</ele><time>2026-04-12T09:49:38.001Z</time></trkpt><trkpt lat="40.961783772106806" lon="14.686952897665089"><ele>1119.7142857142858</ele><time>2026-04-12T09:49:41.001Z</time></trkpt><trkpt lat="40.96185488144538" lon="14.687008394477807"><ele>1117.5714285714284</ele><time>2026-04-12T09:49:45.001Z</time></trkpt><trkpt lat="40.96191865687336" lon="14.687084703188477"><ele>1115.4285714285716</ele><time>2026-04-12T09:49:48.001Z</time></trkpt><trkpt lat="40.96195224308858" lon="14.687160092352482"><ele>1113.2857142857142</ele><time>2026-04-12T09:49:51.001Z</time></trkpt><trkpt lat="40.961947971795645" lon="14.687251815218394"><ele>1111.142857142857</ele><time>2026-04-12T09:49:55.001Z</time></trkpt><trkpt lat="40.96189268060137" lon="14.687303240642926"><ele>1109.0</ele><time>2026-04-12T09:49:58.001Z</time></trkpt><trkpt lat="40.96185961009942" lon="14.687380636755789"><ele>1109.0</ele><time>2026-04-12T09:50:01.001Z</time></trkpt><trkpt lat="40.96179006621263" lon="14.687517161136181"><ele>1109.0</ele><time>2026-04-12T09:50:50.001Z</time></trkpt><trkpt lat="40.96183774973152" lon="14.687587072203044"><ele>1109.0</ele><time>2026-04-12T09:50:52.001Z</time></trkpt><trkpt lat="40.96190594528346" lon="14.687666215088642"><ele>1109.0</ele><time>2026-04-12T09:50:55.001Z</time></trkpt><trkpt lat="40.96198228088189" lon="14.687650860605663"><ele>1109.0</ele><time>2026-04-12T09:50:58.001Z</time></trkpt><trkpt lat="40.962072864367556" lon="14.687556903319281"><ele>1109.0</ele><time>2026-04-12T09:51:00.001Z</time></trkpt><trkpt lat="40.962141570996145" lon="14.6874919732682"><ele>1109.0</ele><time>2026-04-12T09:51:01.001Z</time></trkpt><trkpt lat="40.96220048827937" lon="14.687437989777111"><ele>1109.0</ele><time>2026-04-12T09:51:02.001Z</time></trkpt><trkpt lat="40.96226255010568" lon="14.687381118622282"><ele>1109.0</ele><time>2026-04-12T09:51:04.001Z</time></trkpt><trkpt lat="40.96235547293627" lon="14.687299550228982"><ele>1109.0</ele><time>2026-04-12T09:51:08.001Z</time></trkpt><trkpt lat="40.9623872003272" lon="14.687181785846843"><ele>1109.0</ele><time>2026-04-12T09:51:11.001Z</time></trkpt><trkpt lat="40.96243075877151" lon="14.687114264240304"><ele>1109.0</ele><time>2026-04-12T09:51:13.001Z</time></trkpt><trkpt lat="40.962490685987206" lon="14.68701580868866"><ele>1109.0</ele><time>2026-04-12T09:51:16.001Z</time></trkpt><trkpt lat="40.96253843871418" lon="14.686871148659751"><ele>1109.0</ele><time>2026-04-12T09:51:18.001Z</time></trkpt><trkpt lat="40.96258936272822" lon="14.686795358539026"><ele>1109.0</ele><time>2026-04-12T09:51:19.001Z</time></trkpt><trkpt lat="40.96262185155731" lon="14.686718014004262"><ele>1109.0</ele><time>2026-04-12T09:51:20.001Z</time></trkpt><trkpt lat="40.96269550140058" lon="14.686606888772111"><ele>1107.0</ele><time>2026-04-12T09:51:22.001Z</time></trkpt><trkpt lat="40.96277033311319" lon="14.68654063683694"><ele>1105.0</ele><time>2026-04-12T09:51:24.001Z</time></trkpt><trkpt lat="40.962807771176955" lon="14.686471764987077"><ele>1103.0</ele><time>2026-04-12T09:51:25.001Z</time></trkpt><trkpt lat="40.96284096165113" lon="14.686370201938066"><ele>1101.0</ele><time>2026-04-12T09:51:26.001Z</time></trkpt><trkpt lat="40.962881503390086" lon="14.686275028456983"><ele>1099.0</ele><time>2026-04-12T09:51:27.001Z</time></trkpt><trkpt lat="40.96293040383058" lon="14.686209842585933"><ele>1097.0</ele><time>2026-04-12T09:51:28.001Z</time></trkpt><trkpt lat="40.9629927462863" lon="14.6861248325915"><ele>1094.5</ele><time>2026-04-12T09:51:29.001Z</time></trkpt><trkpt lat="40.963058287131986" lon="14.686055119272933"><ele>1092.0</ele><time>2026-04-12T09:51:30.001Z</time></trkpt><trkpt lat="40.96311166894719" lon="14.685984391546574"><ele>1089.5</ele><time>2026-04-12T09:51:31.001Z</time></trkpt><trkpt lat="40.963178598615194" lon="14.685930960193692"><ele>1087.0</ele><time>2026-04-12T09:51:33.001Z</time></trkpt><trkpt lat="40.96327770279104" lon="14.68591290279693"><ele>1084.5</ele><time>2026-04-12T09:51:35.001Z</time></trkpt><trkpt lat="40.963348236583" lon="14.685949258090275"><ele>1082.0</ele><time>2026-04-12T09:51:40.001Z</time></trkpt><trkpt lat="40.963414056538" lon="14.685984418395932"><ele>1076.857142857143</ele><time>2026-04-12T09:51:51.001Z</time></trkpt><trkpt lat="40.96347216637597" lon="14.686023401297021"><ele>1071.7142857142858</ele><time>2026-04-12T09:51:56.001Z</time></trkpt><trkpt lat="40.96352992802948" lon="14.686074252227518"><ele>1066.5714285714284</ele><time>2026-04-12T09:52:01.001Z</time></trkpt><trkpt lat="40.963584473614986" lon="14.686124722981033"><ele>1061.4285714285716</ele><time>2026-04-12T09:52:05.001Z</time></trkpt><trkpt lat="40.96365699143098" lon="14.686120953111148"><ele>1056.2857142857142</ele><time>2026-04-12T09:52:13.001Z</time></trkpt><trkpt lat="40.96372770104481" lon="14.686093736923793"><ele>1051.142857142857</ele><time>2026-04-12T09:52:22.001Z</time></trkpt><trkpt lat="40.96377890041273" lon="14.686043086389382"><ele>1046.0</ele><time>2026-04-12T09:52:29.001Z</time></trkpt><trkpt lat="40.963873979168426" lon="14.686028672084271"><ele>1045.7142857142856</ele><time>2026-04-12T09:53:22.001Z</time></trkpt><trkpt lat="40.96394319051762" lon="14.686053529293575"><ele>1045.4285714285713</ele><time>2026-04-12T09:53:35.001Z</time></trkpt><trkpt lat="40.96400222104626" lon="14.686007827008247"><ele>1045.142857142857</ele><time>2026-04-12T09:53:41.001Z</time></trkpt><trkpt lat="40.964042647096996" lon="14.685930595661228"><ele>1044.8571428571427</ele><time>2026-04-12T09:54:59.001Z</time></trkpt><trkpt lat="40.96408122033571" lon="14.6858386346184"><ele>1044.5714285714284</ele><time>2026-04-12T09:55:05.001Z</time></trkpt><trkpt lat="40.96413315004382" lon="14.685764141564945"><ele>1044.2857142857142</ele><time>2026-04-12T09:55:09.001Z</time></trkpt><trkpt lat="40.96419881647478" lon="14.685715995534586"><ele>1044.0</ele><time>2026-04-12T09:55:11.001Z</time></trkpt><trkpt lat="40.96426783985391" lon="14.685667414051775"><ele>1038.7142857142858</ele><time>2026-04-12T09:55:14.001Z</time></trkpt><trkpt lat="40.96435118401167" lon="14.685624696827826"><ele>1033.4285714285713</ele><time>2026-04-12T09:55:17.001Z</time></trkpt><trkpt lat="40.964426356848634" lon="14.68561369464805"><ele>1028.142857142857</ele><time>2026-04-12T09:55:20Z</time></trkpt><trkpt lat="40.964491658888974" lon="14.685597810216532"><ele>1022.8571428571429</ele><time>2026-04-12T09:55:23Z</time></trkpt><trkpt lat="40.964564099547665" lon="14.68559601652466"><ele>1017.5714285714287</ele><time>2026-04-12T09:55:26Z</time></trkpt><trkpt lat="40.964633804507905" lon="14.685605213301873"><ele>1012.2857142857142</ele><time>2026-04-12T09:55:29Z</time></trkpt><trkpt lat="40.96470210422873" lon="14.685629785189828"><ele>1007.0</ele><time>2026-04-12T09:55:31Z</time></trkpt><trkpt lat="40.964781958425725" lon="14.685662408222544"><ele>1007.0000000000001</ele><time>2026-04-12T09:55:33Z</time></trkpt><trkpt lat="40.96484158990936" lon="14.685716060684884"><ele>1007.0</ele><time>2026-04-12T09:55:36Z</time></trkpt><trkpt lat="40.964896303327755" lon="14.685771074289654"><ele>1007.0</ele><time>2026-04-12T09:55:38Z</time></trkpt><trkpt lat="40.9649368817086" lon="14.685839220875852"><ele>1007.0</ele><time>2026-04-12T09:55:40Z</time></trkpt><trkpt lat="40.96505446384743" lon="14.685952068292684"><ele>1007.0000000000001</ele><time>2026-04-12T09:55:42Z</time></trkpt><trkpt lat="40.96503697544809" lon="14.686077049022474"><ele>1007.0</ele><time>2026-04-12T09:55:44Z</time></trkpt><trkpt lat="40.96501032424853" lon="14.686190852008112"><ele>1006.2</ele><time>2026-04-12T09:55:46Z</time></trkpt><trkpt lat="40.96502029462851" lon="14.686306799770778"><ele>1005.4000000000001</ele><time>2026-04-12T09:55:48Z</time></trkpt><trkpt lat="40.96504568791629" lon="14.68641690072497"><ele>1004.5999999999999</ele><time>2026-04-12T09:55:50Z</time></trkpt><trkpt lat="40.96509566737135" lon="14.686507584203595"><ele>1003.8</ele><time>2026-04-12T09:55:52Z</time></trkpt><trkpt lat="40.96511813842504" lon="14.68659591437289"><ele>1003.0</ele><time>2026-04-12T09:55:54Z</time></trkpt><trkpt lat="40.96506597790336" lon="14.686746074128775"><ele>1001.8333333333333</ele><time>2026-04-12T09:57:32Z</time></trkpt><trkpt lat="40.965051172827586" lon="14.686850686244323"><ele>1000.6666666666666</ele><time>2026-04-12T09:57:34Z</time></trkpt><trkpt lat="40.9650701419947" lon="14.68698032535891"><ele>999.5</ele><time>2026-04-12T09:57:36Z</time></trkpt><trkpt lat="40.96508072844723" lon="14.687069702794846"><ele>998.3333333333333</ele><time>2026-04-12T09:57:37Z</time></trkpt><trkpt lat="40.96507106492487" lon="14.687169294102175"><ele>997.1666666666666</ele><time>2026-04-12T09:57:38Z</time></trkpt><trkpt lat="40.9650512980333" lon="14.68727047679234"><ele>996.0</ele><time>2026-04-12T09:57:40Z</time></trkpt><trkpt lat="40.96503000024264" lon="14.687384278250088"><ele>996.0</ele><time>2026-04-12T09:57:42Z</time></trkpt><trkpt lat="40.96504739133636" lon="14.687526408502695"><ele>995.9999999999999</ele><time>2026-04-12T09:57:45Z</time></trkpt><trkpt lat="40.96506213155939" lon="14.687666030208693"><ele>995.9999999999999</ele><time>2026-04-12T09:57:47Z</time></trkpt><trkpt lat="40.965085467033106" lon="14.6877901642231"><ele>996.0</ele><time>2026-04-12T09:57:49Z</time></trkpt><trkpt lat="40.96509549974185" lon="14.687898309092011"><ele>996.0</ele><time>2026-04-12T09:57:51Z</time></trkpt><trkpt lat="40.96512077536844" lon="14.688015797513705"><ele>996.5</ele><time>2026-04-12T09:57:54Z</time></trkpt><trkpt lat="40.96514535951477" lon="14.688114996722897"><ele>997.0</ele><time>2026-04-12T09:57:58Z</time></trkpt><trkpt lat="40.965204423381635" lon="14.68817596465565"><ele>997.5</ele><time>2026-04-12T09:58:01Z</time></trkpt><trkpt lat="40.96528029111531" lon="14.68823359711359"><ele>998.0</ele><time>2026-04-12T09:58:05Z</time></trkpt><trkpt lat="40.96534570318779" lon="14.688312271117494"><ele>998.5</ele><time>2026-04-12T09:58:07Z</time></trkpt><trkpt lat="40.9654037856947" lon="14.688361010613988"><ele>999.0</ele><time>2026-04-12T09:58:09Z</time></trkpt><trkpt lat="40.96546636303588" lon="14.688405936989538"><ele>999.0</ele><time>2026-04-12T09:58:11Z</time></trkpt><trkpt lat="40.96551598100106" lon="14.688497026240922"><ele>999.0</ele><time>2026-04-12T09:58:14Z</time></trkpt><trkpt lat="40.96557080946711" lon="14.688552377751085"><ele>999.0</ele><time>2026-04-12T09:58:16Z</time></trkpt><trkpt lat="40.96566231536458" lon="14.688574451371677"><ele>999.0</ele><time>2026-04-12T09:58:18Z</time></trkpt><trkpt lat="40.96574654098294" lon="14.688595292708941"><ele>999.0</ele><time>2026-04-12T09:58:21Z</time></trkpt><trkpt lat="40.96581938145576" lon="14.688601399115825"><ele>999.0</ele><time>2026-04-12T09:58:24Z</time></trkpt><trkpt lat="40.96588103810501" lon="14.688623941971652"><ele>1001.8333333333334</ele><time>2026-04-12T09:58:26Z</time></trkpt><trkpt lat="40.9659420123899" lon="14.688677600027429"><ele>1004.6666666666667</ele><time>2026-04-12T09:58:29Z</time></trkpt><trkpt lat="40.966007330775085" lon="14.688695266425086"><ele>1007.5</ele><time>2026-04-12T09:58:48Z</time></trkpt><trkpt lat="40.96603882970228" lon="14.688767890658328"><ele>1010.3333333333334</ele><time>2026-04-12T09:58:50Z</time></trkpt><trkpt lat="40.96610959199666" lon="14.688891336738772"><ele>1013.1666666666667</ele><time>2026-04-12T09:58:52.001Z</time></trkpt><trkpt lat="40.966173149760486" lon="14.688981264380681"><ele>1016.0</ele><time>2026-04-12T09:58:54.001Z</time></trkpt><trkpt lat="40.96625320847463" lon="14.689082537267755"><ele>1016.0000000000001</ele><time>2026-04-12T09:58:56.001Z</time></trkpt><trkpt lat="40.966296892751345" lon="14.689177982703676"><ele>1016.0</ele><time>2026-04-12T09:58:58.001Z</time></trkpt><trkpt lat="40.96635348710179" lon="14.689244303703994"><ele>1016.0</ele><time>2026-04-12T09:59:00.001Z</time></trkpt><trkpt lat="40.96631100971191" lon="14.689345619518363"><ele>1016.0</ele><time>2026-04-12T10:00:19Z</time></trkpt><trkpt lat="40.96625010522891" lon="14.689464534868115"><ele>1016.0000000000001</ele><time>2026-04-12T10:00:21Z</time></trkpt><trkpt lat="40.96621714003181" lon="14.689556987058804"><ele>1016.0</ele><time>2026-04-12T10:00:23Z</time></trkpt><trkpt lat="40.96628511749056" lon="14.689574109271595"><ele>1017.8571428571429</ele><time>2026-04-12T10:00:26Z</time></trkpt><trkpt lat="40.96633803598109" lon="14.68952688907003"><ele>1019.7142857142857</ele><time>2026-04-12T10:00:28Z</time></trkpt><trkpt lat="40.966275020323984" lon="14.6895240957131"><ele>1021.5714285714286</ele><time>2026-04-12T10:01:52Z</time></trkpt><trkpt lat="40.966326268617976" lon="14.689465394036764"><ele>1023.4285714285714</ele><time>2026-04-12T10:02:29Z</time></trkpt><trkpt lat="40.96639958734266" lon="14.689447494167453"><ele>1025.2857142857142</ele><time>2026-04-12T10:04:57.999Z</time></trkpt><trkpt lat="40.96633239412179" lon="14.689480970832944"><ele>1027.142857142857</ele><time>2026-04-12T10:09:04Z</time></trkpt><trkpt lat="40.966279329900765" lon="14.689551464422417"><ele>1029.0</ele><time>2026-04-12T10:09:29Z</time></trkpt><trkpt lat="40.96621986279696" lon="14.689657493493323"><ele>1029.0</ele><time>2026-04-12T10:09:31Z</time></trkpt><trkpt lat="40.9661801731487" lon="14.689732409936182"><ele>1029.0</ele><time>2026-04-12T10:09:32Z</time></trkpt><trkpt lat="40.96608870779041" lon="14.689807554430754"><ele>1029.0</ele><time>2026-04-12T10:09:34Z</time></trkpt><trkpt lat="40.96598536342603" lon="14.689820708945527"><ele>1029.0</ele><time>2026-04-12T10:09:36Z</time></trkpt><trkpt lat="40.96591928293874" lon="14.68985183350188"><ele>1029.0</ele><time>2026-04-12T10:09:37Z</time></trkpt><trkpt lat="40.965849097682344" lon="14.68988472021569"><ele>1029.0</ele><time>2026-04-12T10:09:38Z</time></trkpt><trkpt lat="40.965779224739684" lon="14.68992690572649"><ele>1028.0</ele><time>2026-04-12T10:09:39Z</time></trkpt><trkpt lat="40.96571843166535" lon="14.689992906044395"><ele>1027.0</ele><time>2026-04-12T10:09:40Z</time></trkpt><trkpt lat="40.965690999722845" lon="14.690079070089714"><ele>1026.0</ele><time>2026-04-12T10:09:41Z</time></trkpt><trkpt lat="40.96567414035668" lon="14.690186691399362"><ele>1025.0</ele><time>2026-04-12T10:09:42Z</time></trkpt><trkpt lat="40.96567569306091" lon="14.690306082131412"><ele>1024.0</ele><time>2026-04-12T10:09:43Z</time></trkpt><trkpt lat="40.96568142989455" lon="14.690427474649015"><ele>1023.0</ele><time>2026-04-12T10:09:44Z</time></trkpt><trkpt lat="40.96568445080519" lon="14.690547147712103"><ele>1023.0</ele><time>2026-04-12T10:09:45Z</time></trkpt><trkpt lat="40.96568705663258" lon="14.690663994821056"><ele>1023.0</ele><time>2026-04-12T10:09:46Z</time></trkpt><trkpt lat="40.965691793798015" lon="14.690780054379006"><ele>1023.0</ele><time>2026-04-12T10:09:47Z</time></trkpt><trkpt lat="40.96570742561283" lon="14.69089618178785"><ele>1023.0</ele><time>2026-04-12T10:09:48Z</time></trkpt><trkpt lat="40.96572091482843" lon="14.691012717751684"><ele>1023.0</ele><time>2026-04-12T10:09:49Z</time></trkpt><trkpt lat="40.965720616193856" lon="14.69112464655951"><ele>1023.0</ele><time>2026-04-12T10:09:50Z</time></trkpt><trkpt lat="40.96569345145787" lon="14.69121712212069"><ele>1024.8333333333333</ele><time>2026-04-12T10:09:51Z</time></trkpt><trkpt lat="40.96563605925953" lon="14.691308238076562"><ele>1026.6666666666667</ele><time>2026-04-12T10:09:52Z</time></trkpt><trkpt lat="40.965569305869714" lon="14.69136271670976"><ele>1028.5</ele><time>2026-04-12T10:09:53Z</time></trkpt><trkpt lat="40.9654906029237" lon="14.691440479105355"><ele>1030.3333333333335</ele><time>2026-04-12T10:09:54Z</time></trkpt><trkpt lat="40.9654448278971" lon="14.691523874790253"><ele>1032.1666666666667</ele><time>2026-04-12T10:09:55Z</time></trkpt><trkpt lat="40.96540654644732" lon="14.69164057810455"><ele>1034.0</ele><time>2026-04-12T10:09:56Z</time></trkpt><trkpt lat="40.965335993149814" lon="14.691766130152404"><ele>1034.0</ele><time>2026-04-12T10:09:57Z</time></trkpt><trkpt lat="40.96528056253261" lon="14.691917527845659"><ele>1034.0</ele><time>2026-04-12T10:09:58Z</time></trkpt><trkpt lat="40.96521474825497" lon="14.692065193250741"><ele>1034.0</ele><time>2026-04-12T10:09:59Z</time></trkpt><trkpt lat="40.965153138722584" lon="14.692187799347337"><ele>1034.0</ele><time>2026-04-12T10:10:00Z</time></trkpt><trkpt lat="40.965101614322066" lon="14.692277884871343"><ele>1036.0</ele><time>2026-04-12T10:10:01Z</time></trkpt><trkpt lat="40.96506782868525" lon="14.69241457899546"><ele>1038.0</ele><time>2026-04-12T10:10:02Z</time></trkpt><trkpt lat="40.96502195908781" lon="14.69257366305867"><ele>1040.0</ele><time>2026-04-12T10:10:03Z</time></trkpt><trkpt lat="40.96497892447154" lon="14.692735191260034"><ele>1042.0</ele><time>2026-04-12T10:10:04Z</time></trkpt><trkpt lat="40.96491823202103" lon="14.692893372077625"><ele>1038.8</ele><time>2026-04-12T10:10:05Z</time></trkpt><trkpt lat="40.96487441485271" lon="14.693047539064311"><ele>1035.6</ele><time>2026-04-12T10:10:06Z</time></trkpt><trkpt lat="40.964831999563835" lon="14.693160886638802"><ele>1032.3999999999999</ele><time>2026-04-12T10:10:07Z</time></trkpt><trkpt lat="40.96479073925721" lon="14.69328138095785"><ele>1029.2</ele><time>2026-04-12T10:10:08Z</time></trkpt><trkpt lat="40.96474503090614" lon="14.693395297554492"><ele>1026.0</ele><time>2026-04-12T10:10:09Z</time></trkpt><trkpt lat="40.964716611157584" lon="14.693478973269015"><ele>1026.0</ele><time>2026-04-12T10:10:10Z</time></trkpt><trkpt lat="40.96471432228705" lon="14.693569063005121"><ele>1026.0</ele><time>2026-04-12T10:10:11Z</time></trkpt><trkpt lat="40.96472149347639" lon="14.693675066652924"><ele>1026.0</ele><time>2026-04-12T10:10:14Z</time></trkpt><trkpt lat="40.964664998223384" lon="14.693786499177467"><ele>1026.0</ele><time>2026-04-12T10:10:16Z</time></trkpt><trkpt lat="40.964631713935994" lon="14.69387989582221"><ele>1026.0</ele><time>2026-04-12T10:10:17Z</time></trkpt><trkpt lat="40.96458184770591" lon="14.693959924812257"><ele>1026.0</ele><time>2026-04-12T10:10:18Z</time></trkpt><trkpt lat="40.96452461707399" lon="14.694088585334404"><ele>1027.3999999999999</ele><time>2026-04-12T10:10:19Z</time></trkpt><trkpt lat="40.9644834010989" lon="14.69420453869157"><ele>1028.8</ele><time>2026-04-12T10:10:20Z</time></trkpt><trkpt lat="40.96445365553115" lon="14.694333345528271"><ele>1030.1999999999998</ele><time>2026-04-12T10:10:21Z</time></trkpt><trkpt lat="40.96442808107828" lon="14.694446362497361"><ele>1031.6</ele><time>2026-04-12T10:10:22Z</time></trkpt><trkpt lat="40.96442833196243" lon="14.694553724987967"><ele>1033.0</ele><time>2026-04-12T10:10:23Z</time></trkpt><trkpt lat="40.9644087327504" lon="14.694663949071085"><ele>1032.4</ele><time>2026-04-12T10:10:24Z</time></trkpt><trkpt lat="40.964366428766624" lon="14.694780993929601"><ele>1031.8</ele><time>2026-04-12T10:10:25Z</time></trkpt><trkpt lat="40.96429799784475" lon="14.694900887155505"><ele>1031.2</ele><time>2026-04-12T10:10:26Z</time></trkpt><trkpt lat="40.96423767717222" lon="14.694992877050908"><ele>1030.6</ele><time>2026-04-12T10:10:27Z</time></trkpt><trkpt lat="40.96417566211395" lon="14.695089103402614"><ele>1030.0</ele><time>2026-04-12T10:10:28Z</time></trkpt><trkpt lat="40.964124590785694" lon="14.69518553213778"><ele>1031.75</ele><time>2026-04-12T10:10:29Z</time></trkpt><trkpt lat="40.96408348219964" lon="14.695327919252318"><ele>1033.5</ele><time>2026-04-12T10:10:30Z</time></trkpt><trkpt lat="40.96403163435923" lon="14.695498944414018"><ele>1035.25</ele><time>2026-04-12T10:10:31Z</time></trkpt><trkpt lat="40.96395514582958" lon="14.695640862519943"><ele>1037.0</ele><time>2026-04-12T10:10:32Z</time></trkpt><trkpt lat="40.963870505680354" lon="14.695761119278655"><ele>1037.0</ele><time>2026-04-12T10:10:33Z</time></trkpt><trkpt lat="40.96380564448056" lon="14.695844580903026"><ele>1037.0</ele><time>2026-04-12T10:10:34Z</time></trkpt><trkpt lat="40.9637708722045" lon="14.695939640898803"><ele>1037.0</ele><time>2026-04-12T10:10:35Z</time></trkpt><trkpt lat="40.96380267046638" lon="14.696104286731673"><ele>1037.0</ele><time>2026-04-12T10:10:37Z</time></trkpt><trkpt lat="40.963845449222696" lon="14.696239950441615"><ele>1037.0</ele><time>2026-04-12T10:10:38Z</time></trkpt><trkpt lat="40.963882346520435" lon="14.69635494170161"><ele>1038.75</ele><time>2026-04-12T10:10:39Z</time></trkpt><trkpt lat="40.96387008934657" lon="14.696494893948287"><ele>1040.5</ele><time>2026-04-12T10:10:40Z</time></trkpt><trkpt lat="40.96382857386633" lon="14.696641738944505"><ele>1042.25</ele><time>2026-04-12T10:10:41Z</time></trkpt><trkpt lat="40.963759084046195" lon="14.69676668177293"><ele>1044.0</ele><time>2026-04-12T10:10:42Z</time></trkpt><trkpt lat="40.96366354735736" lon="14.696871247671876"><ele>1045.2</ele><time>2026-04-12T10:10:43Z</time></trkpt><trkpt lat="40.963601286815646" lon="14.69698167282463"><ele>1046.4</ele><time>2026-04-12T10:10:44Z</time></trkpt><trkpt lat="40.9635773343901" lon="14.697094853012132"><ele>1047.6</ele><time>2026-04-12T10:10:45Z</time></trkpt><trkpt lat="40.9635501934095" lon="14.697223400659134"><ele>1048.8</ele><time>2026-04-12T10:10:46Z</time></trkpt><trkpt lat="40.963498138969264" lon="14.697359493500393"><ele>1050.0</ele><time>2026-04-12T10:10:47Z</time></trkpt><trkpt lat="40.96342901102897" lon="14.697470788157027"><ele>1049.0</ele><time>2026-04-12T10:10:48Z</time></trkpt><trkpt lat="40.96335452162968" lon="14.697583758166369"><ele>1048.0</ele><time>2026-04-12T10:10:49Z</time></trkpt><trkpt lat="40.96326753597302" lon="14.697727011338156"><ele>1047.0</ele><time>2026-04-12T10:10:50Z</time></trkpt><trkpt lat="40.96319581042283" lon="14.697846799188133"><ele>1046.0</ele><time>2026-04-12T10:10:51Z</time></trkpt><trkpt lat="40.963118504772005" lon="14.69794972012873"><ele>1046.0</ele><time>2026-04-12T10:10:52Z</time></trkpt><trkpt lat="40.96302839382825" lon="14.698037453747673"><ele>1046.0</ele><time>2026-04-12T10:10:53Z</time></trkpt><trkpt lat="40.962952848410495" lon="14.698132703939141"><ele>1046.0</ele><time>2026-04-12T10:10:54Z</time></trkpt><trkpt lat="40.96287734494137" lon="14.698195364734792"><ele>1046.0</ele><time>2026-04-12T10:10:55Z</time></trkpt><trkpt lat="40.96279420578161" lon="14.69824944624962"><ele>1046.0</ele><time>2026-04-12T10:10:56Z</time></trkpt><trkpt lat="40.96269577125159" lon="14.698277988941127"><ele>1046.0</ele><time>2026-04-12T10:10:57Z</time></trkpt><trkpt lat="40.9626058033111" lon="14.698270876274073"><ele>1046.0</ele><time>2026-04-12T10:10:58Z</time></trkpt><trkpt lat="40.9625160983899" lon="14.698282524093145"><ele>1046.0</ele><time>2026-04-12T10:10:59Z</time></trkpt><trkpt lat="40.96243282135266" lon="14.698319127162767"><ele>1046.0</ele><time>2026-04-12T10:11:00Z</time></trkpt><trkpt lat="40.96236307414795" lon="14.698393541810969"><ele>1046.0</ele><time>2026-04-12T10:11:01Z</time></trkpt><trkpt lat="40.962307727436986" lon="14.698482956426075"><ele>1046.0</ele><time>2026-04-12T10:11:02Z</time></trkpt><trkpt lat="40.9622441224544" lon="14.698574148589438"><ele>1044.6</ele><time>2026-04-12T10:11:03Z</time></trkpt><trkpt lat="40.96216969227735" lon="14.69867238274154"><ele>1043.1999999999998</ele><time>2026-04-12T10:11:04Z</time></trkpt><trkpt lat="40.96210204529707" lon="14.698758594361479"><ele>1041.8000000000002</ele><time>2026-04-12T10:11:05Z</time></trkpt><trkpt lat="40.962030021876934" lon="14.69883172636908"><ele>1040.4</ele><time>2026-04-12T10:11:06Z</time></trkpt><trkpt lat="40.961933329335" lon="14.6989096742998"><ele>1039.0</ele><time>2026-04-12T10:11:07Z</time></trkpt><trkpt lat="40.96184027603016" lon="14.698999592628509"><ele>1039.0</ele><time>2026-04-12T10:11:08Z</time></trkpt><trkpt lat="40.96175507238872" lon="14.699090410229495"><ele>1039.0</ele><time>2026-04-12T10:11:09Z</time></trkpt><trkpt lat="40.961667834872806" lon="14.69916446629169"><ele>1039.0</ele><time>2026-04-12T10:11:10Z</time></trkpt><trkpt lat="40.961575280197316" lon="14.699214403291478"><ele>1039.0</ele><time>2026-04-12T10:11:11Z</time></trkpt><trkpt lat="40.96148992463521" lon="14.699262745756208"><ele>1039.0</ele><time>2026-04-12T10:11:12Z</time></trkpt><trkpt lat="40.96139851013227" lon="14.699327906062484"><ele>1038.8</ele><time>2026-04-12T10:11:13Z</time></trkpt><trkpt lat="40.961335141304" lon="14.699382334272453"><ele>1038.6000000000001</ele><time>2026-04-12T10:11:14Z</time></trkpt><trkpt lat="40.961269976146745" lon="14.699437958583122"><ele>1038.4</ele><time>2026-04-12T10:11:15Z</time></trkpt><trkpt lat="40.96119640327636" lon="14.699525408919403"><ele>1038.2</ele><time>2026-04-12T10:11:16Z</time></trkpt><trkpt lat="40.96112261337317" lon="14.699611926530704"><ele>1038.0</ele><time>2026-04-12T10:11:17Z</time></trkpt><trkpt lat="40.96103964697991" lon="14.699690096046258"><ele>1038.0</ele><time>2026-04-12T10:11:18Z</time></trkpt><trkpt lat="40.96095789508488" lon="14.699775970967334"><ele>1038.0</ele><time>2026-04-12T10:11:19Z</time></trkpt><trkpt lat="40.960887949989136" lon="14.699854092716617"><ele>1038.0</ele><time>2026-04-12T10:11:20Z</time></trkpt><trkpt lat="40.960805634090526" lon="14.69995616728069"><ele>1038.0</ele><time>2026-04-12T10:11:21Z</time></trkpt><trkpt lat="40.96073433051345" lon="14.700039794969529"><ele>1038.0</ele><time>2026-04-12T10:11:22Z</time></trkpt><trkpt lat="40.96065820149903" lon="14.700127178184191"><ele>1038.0</ele><time>2026-04-12T10:11:23Z</time></trkpt><trkpt lat="40.9605803160569" lon="14.700211127908656"><ele>1038.0</ele><time>2026-04-12T10:11:24Z</time></trkpt><trkpt lat="40.96050094036683" lon="14.700303741982461"><ele>1038.0</ele><time>2026-04-12T10:11:25Z</time></trkpt><trkpt lat="40.96042505898419" lon="14.700383394884815"><ele>1038.0</ele><time>2026-04-12T10:11:26Z</time></trkpt><trkpt lat="40.960377814341335" lon="14.70044703865045"><ele>1038.0</ele><time>2026-04-12T10:11:27Z</time></trkpt><trkpt lat="40.96032462506546" lon="14.700528266825163"><ele>1038.0</ele><time>2026-04-12T10:11:28Z</time></trkpt><trkpt lat="40.96026438887382" lon="14.700622216573535"><ele>1038.0</ele><time>2026-04-12T10:11:29Z</time></trkpt><trkpt lat="40.96022724847483" lon="14.700701147259892"><ele>1038.0</ele><time>2026-04-12T10:11:30Z</time></trkpt><trkpt lat="40.96019526865415" lon="14.700789146455584"><ele>1038.0</ele><time>2026-04-12T10:11:31Z</time></trkpt><trkpt lat="40.96015070449559" lon="14.700900929669812"><ele>1038.0</ele><time>2026-04-12T10:11:32Z</time></trkpt><trkpt lat="40.96008051172016" lon="14.701035835087477"><ele>1039.25</ele><time>2026-04-12T10:11:33Z</time></trkpt><trkpt lat="40.96001934406776" lon="14.701187247144846"><ele>1040.5</ele><time>2026-04-12T10:11:34Z</time></trkpt><trkpt lat="40.95996677080848" lon="14.701334465988781"><ele>1041.75</ele><time>2026-04-12T10:11:35Z</time></trkpt><trkpt lat="40.95993010186211" lon="14.701485414029843"><ele>1043.0</ele><time>2026-04-12T10:11:36Z</time></trkpt><trkpt lat="40.95989969354237" lon="14.701666522448075"><ele>1043.0</ele><time>2026-04-12T10:11:37Z</time></trkpt><trkpt lat="40.95988780160341" lon="14.701858162884998"><ele>1043.0</ele><time>2026-04-12T10:11:38Z</time></trkpt><trkpt lat="40.95987774420696" lon="14.70204903869667"><ele>1043.0</ele><time>2026-04-12T10:11:39Z</time></trkpt><trkpt lat="40.95986559005779" lon="14.70220179260586"><ele>1043.0</ele><time>2026-04-12T10:11:40Z</time></trkpt><trkpt lat="40.95985185193132" lon="14.702340879354992"><ele>1043.5</ele><time>2026-04-12T10:11:41Z</time></trkpt><trkpt lat="40.959814958460875" lon="14.702462444607832"><ele>1044.0</ele><time>2026-04-12T10:11:42Z</time></trkpt><trkpt lat="40.9597872967624" lon="14.702581825749725"><ele>1044.5</ele><time>2026-04-12T10:11:43Z</time></trkpt><trkpt lat="40.95973576091097" lon="14.702648483746755"><ele>1045.0</ele><time>2026-04-12T10:11:44Z</time></trkpt><trkpt lat="40.95967394598474" lon="14.702720512015638"><ele>1045.5</ele><time>2026-04-12T10:11:45Z</time></trkpt><trkpt lat="40.959632764305645" lon="14.702804344558695"><ele>1046.0</ele><time>2026-04-12T10:11:46Z</time></trkpt><trkpt lat="40.95960299972607" lon="14.702907300892926"><ele>1046.1666666666667</ele><time>2026-04-12T10:11:47Z</time></trkpt><trkpt lat="40.95957068116703" lon="14.703008419054536"><ele>1046.3333333333335</ele><time>2026-04-12T10:11:48Z</time></trkpt><trkpt lat="40.959535234422646" lon="14.703103381940029"><ele>1046.5</ele><time>2026-04-12T10:11:49Z</time></trkpt><trkpt lat="40.95950497864864" lon="14.703177853354328"><ele>1046.6666666666667</ele><time>2026-04-12T10:11:50Z</time></trkpt><trkpt lat="40.95950182467418" lon="14.70333083723287"><ele>1046.8333333333333</ele><time>2026-04-12T10:11:52Z</time></trkpt><trkpt lat="40.95950567292183" lon="14.703460810755855"><ele>1047.0</ele><time>2026-04-12T10:11:53Z</time></trkpt><trkpt lat="40.95948271848545" lon="14.703581222031925"><ele>1047.6</ele><time>2026-04-12T10:11:54Z</time></trkpt><trkpt lat="40.95949255533696" lon="14.703705458379293"><ele>1048.2</ele><time>2026-04-12T10:11:55Z</time></trkpt><trkpt lat="40.959516587591864" lon="14.70387264577031"><ele>1048.8</ele><time>2026-04-12T10:11:56Z</time></trkpt><trkpt lat="40.95953900166982" lon="14.704014752708206"><ele>1049.4</ele><time>2026-04-12T10:11:57Z</time></trkpt><trkpt lat="40.95954224347435" lon="14.704146883338412"><ele>1050.0</ele><time>2026-04-12T10:11:58Z</time></trkpt><trkpt lat="40.959558199296204" lon="14.704289980864225"><ele>1050.5</ele><time>2026-04-12T10:11:59Z</time></trkpt><trkpt lat="40.959566907249865" lon="14.704437047234801"><ele>1051.0</ele><time>2026-04-12T10:12:00Z</time></trkpt><trkpt lat="40.95959674678534" lon="14.704591701607526"><ele>1051.5</ele><time>2026-04-12T10:12:01Z</time></trkpt><trkpt lat="40.959630603465456" lon="14.70475779943779"><ele>1052.0</ele><time>2026-04-12T10:12:02Z</time></trkpt><trkpt lat="40.95966874137599" lon="14.704938562202333"><ele>1052.0</ele><time>2026-04-12T10:12:03Z</time></trkpt><trkpt lat="40.95970318516602" lon="14.705122683718312"><ele>1052.0</ele><time>2026-04-12T10:12:04Z</time></trkpt><trkpt lat="40.95974970722464" lon="14.705296155835264"><ele>1052.0</ele><time>2026-04-12T10:12:05Z</time></trkpt><trkpt lat="40.959815242136315" lon="14.705465109876535"><ele>1052.0</ele><time>2026-04-12T10:12:06Z</time></trkpt><trkpt lat="40.959887537798856" lon="14.705630015339782"><ele>1052.75</ele><time>2026-04-12T10:12:07Z</time></trkpt><trkpt lat="40.95993706833475" lon="14.705783831935012"><ele>1053.5</ele><time>2026-04-12T10:12:08Z</time></trkpt><trkpt lat="40.95995659040076" lon="14.705928876468004"><ele>1054.25</ele><time>2026-04-12T10:12:09Z</time></trkpt><trkpt lat="40.95996425336409" lon="14.706072352034623"><ele>1055.0</ele><time>2026-04-12T10:12:10Z</time></trkpt><trkpt lat="40.959975343743494" lon="14.706222085909742"><ele>1055.75</ele><time>2026-04-12T10:12:11Z</time></trkpt><trkpt lat="40.959957306226194" lon="14.70640569251774"><ele>1056.5</ele><time>2026-04-12T10:12:12Z</time></trkpt><trkpt lat="40.959929324144554" lon="14.706596465161907"><ele>1057.25</ele><time>2026-04-12T10:12:13Z</time></trkpt><trkpt lat="40.95989886415377" lon="14.70676963424825"><ele>1058.0</ele><time>2026-04-12T10:12:14Z</time></trkpt><trkpt lat="40.959884563508965" lon="14.706927231346299"><ele>1059.25</ele><time>2026-04-12T10:12:15Z</time></trkpt><trkpt lat="40.95989581091293" lon="14.707066141401452"><ele>1060.5</ele><time>2026-04-12T10:12:16Z</time></trkpt><trkpt lat="40.95993229751631" lon="14.707217138846993"><ele>1061.75</ele><time>2026-04-12T10:12:17Z</time></trkpt><trkpt lat="40.959970900187" lon="14.707376183780612"><ele>1063.0</ele><time>2026-04-12T10:12:18Z</time></trkpt><trkpt lat="40.96001642884838" lon="14.707514621958456"><ele>1062.75</ele><time>2026-04-12T10:12:19Z</time></trkpt><trkpt lat="40.960034284773684" lon="14.707678919755839"><ele>1062.5</ele><time>2026-04-12T10:12:20Z</time></trkpt><trkpt lat="40.96005994942304" lon="14.707858742366351"><ele>1062.25</ele><time>2026-04-12T10:12:21Z</time></trkpt><trkpt lat="40.960103464945995" lon="14.708054016706637"><ele>1062.0</ele><time>2026-04-12T10:12:22Z</time></trkpt><trkpt lat="40.96012974297755" lon="14.70822292061375"><ele>1062.0</ele><time>2026-04-12T10:12:23Z</time></trkpt><trkpt lat="40.96013409874269" lon="14.708399478976698"><ele>1062.0</ele><time>2026-04-12T10:12:24Z</time></trkpt><trkpt lat="40.96012778398522" lon="14.708589636500017"><ele>1062.0</ele><time>2026-04-12T10:12:25Z</time></trkpt><trkpt lat="40.96012171301934" lon="14.708793429270035"><ele>1062.0</ele><time>2026-04-12T10:12:26Z</time></trkpt><trkpt lat="40.96014247209529" lon="14.708982954059769"><ele>1062.75</ele><time>2026-04-12T10:12:27Z</time></trkpt><trkpt lat="40.960154237224835" lon="14.709149211138227"><ele>1063.5</ele><time>2026-04-12T10:12:28Z</time></trkpt><trkpt lat="40.9601822589545" lon="14.709299006416074"><ele>1064.25</ele><time>2026-04-12T10:12:29Z</time></trkpt><trkpt lat="40.96018643488432" lon="14.709442142242247"><ele>1065.0</ele><time>2026-04-12T10:12:30Z</time></trkpt><trkpt lat="40.96020100113967" lon="14.709582926093473"><ele>1065.8</ele><time>2026-04-12T10:12:31Z</time></trkpt><trkpt lat="40.960219047002575" lon="14.709690881615453"><ele>1066.6</ele><time>2026-04-12T10:12:32Z</time></trkpt><trkpt lat="40.96025901030527" lon="14.709809181920381"><ele>1067.4</ele><time>2026-04-12T10:12:33Z</time></trkpt><trkpt lat="40.96030393886407" lon="14.709915294160087"><ele>1068.2</ele><time>2026-04-12T10:12:34Z</time></trkpt><trkpt lat="40.96036987614791" lon="14.710000136425512"><ele>1069.0</ele><time>2026-04-12T10:12:35Z</time></trkpt><trkpt lat="40.96042174320582" lon="14.710091320364766"><ele>1069.0</ele><time>2026-04-12T10:12:36Z</time></trkpt><trkpt lat="40.96046401604896" lon="14.710194158083638"><ele>1069.0</ele><time>2026-04-12T10:12:37Z</time></trkpt><trkpt lat="40.96048818029904" lon="14.710331441248554"><ele>1069.0</ele><time>2026-04-12T10:12:38Z</time></trkpt><trkpt lat="40.960526613616494" lon="14.710468794678244"><ele>1069.0</ele><time>2026-04-12T10:12:39Z</time></trkpt><trkpt lat="40.96059450991949" lon="14.71061087127403"><ele>1069.0</ele><time>2026-04-12T10:12:40Z</time></trkpt><trkpt lat="40.96065772721558" lon="14.710753700923473"><ele>1070.1666666666665</ele><time>2026-04-12T10:12:41Z</time></trkpt><trkpt lat="40.96069228259027" lon="14.710854033101183"><ele>1071.3333333333333</ele><time>2026-04-12T10:12:42Z</time></trkpt><trkpt lat="40.96067655638349" lon="14.710939493077651"><ele>1072.5</ele><time>2026-04-12T10:12:45Z</time></trkpt><trkpt lat="40.960613188347665" lon="14.711044227802452"><ele>1073.6666666666667</ele><time>2026-04-12T10:12:47Z</time></trkpt><trkpt lat="40.96057506502666" lon="14.711157888912124"><ele>1074.8333333333335</ele><time>2026-04-12T10:12:48Z</time></trkpt><trkpt lat="40.96052165374167" lon="14.7112707182713"><ele>1076.0</ele><time>2026-04-12T10:12:49Z</time></trkpt><trkpt lat="40.96042544488001" lon="14.71139233831305"><ele>1078.0</ele><time>2026-04-12T10:12:50Z</time></trkpt><trkpt lat="40.960369087736204" lon="14.711549128592821"><ele>1080.0</ele><time>2026-04-12T10:12:51Z</time></trkpt><trkpt lat="40.96033544542013" lon="14.711699934531714"><ele>1082.0</ele><time>2026-04-12T10:12:52Z</time></trkpt><trkpt lat="40.96026345282919" lon="14.71181557478145"><ele>1084.0</ele><time>2026-04-12T10:12:53Z</time></trkpt><trkpt lat="40.96022413253431" lon="14.711953200527784"><ele>1085.5</ele><time>2026-04-12T10:12:54Z</time></trkpt><trkpt lat="40.960173995922524" lon="14.71210511832171"><ele>1087.0</ele><time>2026-04-12T10:12:55Z</time></trkpt><trkpt lat="40.96012138066251" lon="14.712264764541485"><ele>1088.5</ele><time>2026-04-12T10:12:56Z</time></trkpt><trkpt lat="40.96005523157372" lon="14.712443343468035"><ele>1090.0</ele><time>2026-04-12T10:12:57Z</time></trkpt><trkpt lat="40.95999435714649" lon="14.712613642921434"><ele>1093.5</ele><time>2026-04-12T10:12:58Z</time></trkpt><trkpt lat="40.95993679539202" lon="14.712784767202614"><ele>1097.0</ele><time>2026-04-12T10:12:59Z</time></trkpt><trkpt lat="40.95987666291907" lon="14.712955021086104"><ele>1100.5</ele><time>2026-04-12T10:13:00Z</time></trkpt><trkpt lat="40.95982661314959" lon="14.713119416667556"><ele>1104.0</ele><time>2026-04-12T10:13:01Z</time></trkpt><trkpt lat="40.959762009906946" lon="14.7132920795832"><ele>1104.0</ele><time>2026-04-12T10:13:02Z</time></trkpt><trkpt lat="40.95970455523194" lon="14.71345684651813"><ele>1104.0</ele><time>2026-04-12T10:13:03Z</time></trkpt><trkpt lat="40.95965916974963" lon="14.713618121838214"><ele>1104.0</ele><time>2026-04-12T10:13:04Z</time></trkpt><trkpt lat="40.95961477761524" lon="14.713792787408362"><ele>1104.0</ele><time>2026-04-12T10:13:05Z</time></trkpt><trkpt lat="40.959561196752986" lon="14.713944937921166"><ele>1105.25</ele><time>2026-04-12T10:13:06Z</time></trkpt><trkpt lat="40.95950813578075" lon="14.71410347228011"><ele>1106.5</ele><time>2026-04-12T10:13:07Z</time></trkpt><trkpt lat="40.959475966847016" lon="14.71424759040274"><ele>1107.75</ele><time>2026-04-12T10:13:08Z</time></trkpt><trkpt lat="40.95943275755872" lon="14.714401780694534"><ele>1109.0</ele><time>2026-04-12T10:13:09Z</time></trkpt><trkpt lat="40.9593814942429" lon="14.7145402214623"><ele>1109.0</ele><time>2026-04-12T10:13:10Z</time></trkpt><trkpt lat="40.959335499809114" lon="14.714659491770737"><ele>1109.0</ele><time>2026-04-12T10:13:11Z</time></trkpt><trkpt lat="40.95928707161484" lon="14.714809654274463"><ele>1109.0</ele><time>2026-04-12T10:13:12Z</time></trkpt><trkpt lat="40.959242311133615" lon="14.714948665913314"><ele>1109.0</ele><time>2026-04-12T10:13:13Z</time></trkpt><trkpt lat="40.959214435045375" lon="14.715068908049554"><ele>1109.0</ele><time>2026-04-12T10:13:14Z</time></trkpt><trkpt lat="40.959202927106446" lon="14.715162391250338"><ele>1112.0</ele><time>2026-04-12T10:13:15Z</time></trkpt><trkpt lat="40.95917558441866" lon="14.715253659887722"><ele>1115.0</ele><time>2026-04-12T10:13:16Z</time></trkpt><trkpt lat="40.9591419431072" lon="14.715331358999842"><ele>1118.0</ele><time>2026-04-12T10:13:17Z</time></trkpt><trkpt lat="40.959125965327246" lon="14.715416725964511"><ele>1121.0</ele><time>2026-04-12T10:13:18Z</time></trkpt><trkpt lat="40.95909395619513" lon="14.715498395437995"><ele>1124.0</ele><time>2026-04-12T10:13:19Z</time></trkpt><trkpt lat="40.959066191463165" lon="14.715602878778956"><ele>1127.0</ele><time>2026-04-12T10:13:20Z</time></trkpt><trkpt lat="40.959016443679126" lon="14.715713291874989"><ele>1127.0</ele><time>2026-04-12T10:13:21Z</time></trkpt><trkpt lat="40.958952122546656" lon="14.715837948262076"><ele>1127.0</ele><time>2026-04-12T10:13:22Z</time></trkpt><trkpt lat="40.958876480774556" lon="14.715968486424341"><ele>1127.0</ele><time>2026-04-12T10:13:23Z</time></trkpt><trkpt lat="40.958790890965325" lon="14.716085646875088"><ele>1127.0</ele><time>2026-04-12T10:13:24Z</time></trkpt><trkpt lat="40.958730811538835" lon="14.716213976367676"><ele>1127.75</ele><time>2026-04-12T10:13:25Z</time></trkpt><trkpt lat="40.958668129059234" lon="14.716339655721702"><ele>1128.5</ele><time>2026-04-12T10:13:26Z</time></trkpt><trkpt lat="40.95858405941192" lon="14.716470311915298"><ele>1129.25</ele><time>2026-04-12T10:13:27Z</time></trkpt><trkpt lat="40.95849800241492" lon="14.716601397604416"><ele>1130.0</ele><time>2026-04-12T10:13:28Z</time></trkpt><trkpt lat="40.958420721513725" lon="14.716721390033808"><ele>1133.2</ele><time>2026-04-12T10:13:29Z</time></trkpt><trkpt lat="40.95835359683582" lon="14.716826764520604"><ele>1136.4</ele><time>2026-04-12T10:13:30Z</time></trkpt><trkpt lat="40.95829759380671" lon="14.716937742379"><ele>1139.6</ele><time>2026-04-12T10:13:31Z</time></trkpt><trkpt lat="40.9582325592423" lon="14.71703112286169"><ele>1142.8</ele><time>2026-04-12T10:13:32Z</time></trkpt><trkpt lat="40.95818872865909" lon="14.717143616004453"><ele>1146.0</ele><time>2026-04-12T10:13:33Z</time></trkpt><trkpt lat="40.95814874993959" lon="14.717277466086857"><ele>1146.3999999999999</ele><time>2026-04-12T10:13:34Z</time></trkpt><trkpt lat="40.9581333914489" lon="14.717390323267828"><ele>1146.8</ele><time>2026-04-12T10:13:35Z</time></trkpt><trkpt lat="40.95810154991172" lon="14.717531610750026"><ele>1147.1999999999998</ele><time>2026-04-12T10:13:36Z</time></trkpt><trkpt lat="40.95806649954496" lon="14.717660522854187"><ele>1147.6</ele><time>2026-04-12T10:13:37Z</time></trkpt><trkpt lat="40.95804406776254" lon="14.71777955522881"><ele>1148.0</ele><time>2026-04-12T10:13:38Z</time></trkpt><trkpt lat="40.95801131346168" lon="14.717895298064407"><ele>1148.8</ele><time>2026-04-12T10:13:39Z</time></trkpt><trkpt lat="40.957954814975466" lon="14.71802320159634"><ele>1149.6</ele><time>2026-04-12T10:13:40Z</time></trkpt><trkpt lat="40.95790661286706" lon="14.718154171105455"><ele>1150.4</ele><time>2026-04-12T10:13:41Z</time></trkpt><trkpt lat="40.95787566697509" lon="14.718266117392297"><ele>1151.2</ele><time>2026-04-12T10:13:42Z</time></trkpt><trkpt lat="40.957879734398155" lon="14.718393700991848"><ele>1152.0</ele><time>2026-04-12T10:13:43Z</time></trkpt><trkpt lat="40.95786041085741" lon="14.718530661336157"><ele>1154.6</ele><time>2026-04-12T10:13:44Z</time></trkpt><trkpt lat="40.957851623485276" lon="14.718658197371212"><ele>1157.2</ele><time>2026-04-12T10:13:45Z</time></trkpt><trkpt lat="40.957832816006714" lon="14.718772736691323"><ele>1159.8</ele><time>2026-04-12T10:13:46Z</time></trkpt><trkpt lat="40.95782491939319" lon="14.718879549159206"><ele>1162.4</ele><time>2026-04-12T10:13:47Z</time></trkpt><trkpt lat="40.957803073129746" lon="14.718999066196822"><ele>1165.0</ele><time>2026-04-12T10:13:48Z</time></trkpt><trkpt lat="40.95777497300944" lon="14.719124527958344"><ele>1165.0</ele><time>2026-04-12T10:13:49Z</time></trkpt><trkpt lat="40.957750671793555" lon="14.71926900608223"><ele>1165.0</ele><time>2026-04-12T10:13:50Z</time></trkpt><trkpt lat="40.95773582620203" lon="14.719411355657712"><ele>1165.0</ele><time>2026-04-12T10:13:51Z</time></trkpt><trkpt lat="40.957731741699014" lon="14.719533989795202"><ele>1165.0</ele><time>2026-04-12T10:13:52Z</time></trkpt><trkpt lat="40.95771668452717" lon="14.719628702190674"><ele>1165.0</ele><time>2026-04-12T10:13:53Z</time></trkpt><trkpt lat="40.95770159285691" lon="14.719726909070241"><ele>1167.3333333333333</ele><time>2026-04-12T10:13:54Z</time></trkpt><trkpt lat="40.95766888135799" lon="14.719823516606468"><ele>1169.6666666666665</ele><time>2026-04-12T10:13:55Z</time></trkpt><trkpt lat="40.95761979982269" lon="14.719959315005672"><ele>1172.0</ele><time>2026-04-12T10:13:57Z</time></trkpt><trkpt lat="40.95759331483393" lon="14.720045815512616"><ele>1174.3333333333333</ele><time>2026-04-12T10:13:58Z</time></trkpt><trkpt lat="40.957562183347115" lon="14.720138443853402"><ele>1176.6666666666667</ele><time>2026-04-12T10:13:59Z</time></trkpt><trkpt lat="40.95752773551746" lon="14.7202355325406"><ele>1179.0</ele><time>2026-04-12T10:14:00Z</time></trkpt><trkpt lat="40.9575007383583" lon="14.720336045438568"><ele>1182.5</ele><time>2026-04-12T10:14:01Z</time></trkpt><trkpt lat="40.9574688159251" lon="14.720412828985673"><ele>1186.0</ele><time>2026-04-12T10:14:02Z</time></trkpt><trkpt lat="40.95743534679948" lon="14.720505074263444"><ele>1189.5</ele><time>2026-04-12T10:14:03Z</time></trkpt><trkpt lat="40.957410651147605" lon="14.720600056636567"><ele>1193.0</ele><time>2026-04-12T10:14:04Z</time></trkpt><trkpt lat="40.957383823518185" lon="14.720691668396194"><ele>1196.5</ele><time>2026-04-12T10:14:05Z</time></trkpt><trkpt lat="40.95736985650294" lon="14.72078368419542"><ele>1200.0</ele><time>2026-04-12T10:14:06Z</time></trkpt><trkpt lat="40.9573459935349" lon="14.72089282245039"><ele>1200.0</ele><time>2026-04-12T10:14:07Z</time></trkpt><trkpt lat="40.95733299430917" lon="14.720998243053984"><ele>1200.0</ele><time>2026-04-12T10:14:08Z</time></trkpt><trkpt lat="40.95730109080045" lon="14.721124805935313"><ele>1200.0</ele><time>2026-04-12T10:14:09Z</time></trkpt><trkpt lat="40.957268226011855" lon="14.721245195772834"><ele>1200.0</ele><time>2026-04-12T10:14:10Z</time></trkpt><trkpt lat="40.957229113935156" lon="14.721370680908112"><ele>1200.0</ele><time>2026-04-12T10:14:11Z</time></trkpt><trkpt lat="40.95718069495959" lon="14.721479801722781"><ele>1202.5</ele><time>2026-04-12T10:14:12Z</time></trkpt><trkpt lat="40.95711955764909" lon="14.72159402970143"><ele>1205.0</ele><time>2026-04-12T10:14:13Z</time></trkpt><trkpt lat="40.95705661490114" lon="14.721741842372877"><ele>1207.5</ele><time>2026-04-12T10:14:14Z</time></trkpt><trkpt lat="40.95696900282972" lon="14.72188679596604"><ele>1210.0</ele><time>2026-04-12T10:14:15Z</time></trkpt><trkpt lat="40.95691655589587" lon="14.72201055679331"><ele>1213.8</ele><time>2026-04-12T10:14:16Z</time></trkpt><trkpt lat="40.95686280238579" lon="14.722112779569763"><ele>1217.6</ele><time>2026-04-12T10:14:17Z</time></trkpt><trkpt lat="40.9568155919545" lon="14.722216983560546"><ele>1221.4</ele><time>2026-04-12T10:14:18Z</time></trkpt><trkpt lat="40.95676223239397" lon="14.72234086904548"><ele>1225.2</ele><time>2026-04-12T10:14:19Z</time></trkpt><trkpt lat="40.956709365142125" lon="14.722483154930213"><ele>1229.0</ele><time>2026-04-12T10:14:20Z</time></trkpt><trkpt lat="40.95663413340788" lon="14.722620002965302"><ele>1230.2</ele><time>2026-04-12T10:14:21Z</time></trkpt><trkpt lat="40.95657208246255" lon="14.722736064942278"><ele>1231.4</ele><time>2026-04-12T10:14:22Z</time></trkpt><trkpt lat="40.95652269110111" lon="14.722834514662356"><ele>1232.6</ele><time>2026-04-12T10:14:23Z</time></trkpt><trkpt lat="40.956473875999755" lon="14.722935057173691"><ele>1233.8</ele><time>2026-04-12T10:14:24Z</time></trkpt><trkpt lat="40.95642699346053" lon="14.723049551760958"><ele>1235.0</ele><time>2026-04-12T10:14:25Z</time></trkpt><trkpt lat="40.95638940381048" lon="14.723138622587479"><ele>1235.0</ele><time>2026-04-12T10:14:26Z</time></trkpt><trkpt lat="40.95634763142138" lon="14.723201300354951"><ele>1235.0</ele><time>2026-04-12T10:14:27Z</time></trkpt><trkpt lat="40.956312548165734" lon="14.723281528092645"><ele>1235.0</ele><time>2026-04-12T10:14:28Z</time></trkpt><trkpt lat="40.95636485682258" lon="14.723383137719944"><ele>1235.0</ele><time>2026-04-12T10:14:30Z</time></trkpt><trkpt lat="40.95642674988148" lon="14.723453683564099"><ele>1235.0</ele><time>2026-04-12T10:14:31Z</time></trkpt><trkpt lat="40.95648429251342" lon="14.72349944212015"><ele>1235.0</ele><time>2026-04-12T10:14:32Z</time></trkpt><trkpt lat="40.956602404483505" lon="14.723550865486828"><ele>1235.0</ele><time>2026-04-12T10:14:34Z</time></trkpt><trkpt lat="40.95668817855313" lon="14.723489888161932"><ele>1235.0</ele><time>2026-04-12T10:14:35Z</time></trkpt><trkpt lat="40.956762440564056" lon="14.723438069803182"><ele>1235.0</ele><time>2026-04-12T10:14:37Z</time></trkpt><trkpt lat="40.956735765997685" lon="14.723563620941238"><ele>1235.0</ele><time>2026-04-12T10:14:41Z</time></trkpt><trkpt lat="40.956652027867676" lon="14.72361796643837"><ele>1235.0</ele><time>2026-04-12T10:14:42Z</time></trkpt><trkpt lat="40.956558220717056" lon="14.723620070036649"><ele>1235.0</ele><time>2026-04-12T10:14:43Z</time></trkpt><trkpt lat="40.95648638636625" lon="14.723610051935191"><ele>1235.0</ele><time>2026-04-12T10:14:44Z</time></trkpt><trkpt lat="40.95642120700163" lon="14.723595868174359"><ele>1235.0</ele><time>2026-04-12T10:14:45Z</time></trkpt><trkpt lat="40.9563277038617" lon="14.723522278335244"><ele>1235.0</ele><time>2026-04-12T10:14:47Z</time></trkpt><trkpt lat="40.9562342535534" lon="14.72343284044174"><ele>1235.0</ele><time>2026-04-12T10:14:49Z</time></trkpt><trkpt lat="40.95618537960547" lon="14.72337893356159"><ele>1235.0</ele><time>2026-04-12T10:14:51Z</time></trkpt><trkpt lat="40.9561066255582" lon="14.723315152695145"><ele>1235.0</ele><time>2026-04-12T10:15:39Z</time></trkpt><trkpt lat="40.95602445299218" lon="14.723210034886105"><ele>1235.0</ele><time>2026-04-12T10:15:41.001Z</time></trkpt><trkpt lat="40.95599402440544" lon="14.72311763512445"><ele>1235.0</ele><time>2026-04-12T10:15:42.001Z</time></trkpt><trkpt lat="40.9559933985062" lon="14.72299766642939"><ele>1235.0</ele><time>2026-04-12T10:15:43.001Z</time></trkpt><trkpt lat="40.95602897992248" lon="14.722869911820016"><ele>1235.0</ele><time>2026-04-12T10:15:44.001Z</time></trkpt><trkpt lat="40.956078984136994" lon="14.72275298564702"><ele>1233.5</ele><time>2026-04-12T10:15:45.001Z</time></trkpt><trkpt lat="40.956140300230125" lon="14.722625025189593"><ele>1232.0</ele><time>2026-04-12T10:15:46.001Z</time></trkpt><trkpt lat="40.95621581404668" lon="14.722467931310337"><ele>1230.5</ele><time>2026-04-12T10:15:47.001Z</time></trkpt><trkpt lat="40.95628805779748" lon="14.72228067598135"><ele>1229.0</ele><time>2026-04-12T10:15:48.001Z</time></trkpt><trkpt lat="40.95634023116984" lon="14.722069895071266"><ele>1230.6666666666667</ele><time>2026-04-12T10:15:49.001Z</time></trkpt><trkpt lat="40.95637059886577" lon="14.72182497316214"><ele>1232.3333333333333</ele><time>2026-04-12T10:15:50.001Z</time></trkpt><trkpt lat="40.956405322405004" lon="14.721585907741671"><ele>1234.0</ele><time>2026-04-12T10:15:51.001Z</time></trkpt><trkpt lat="40.95646874738207" lon="14.721383661238674"><ele>1234.0</ele><time>2026-04-12T10:15:52.001Z</time></trkpt><trkpt lat="40.95653529959484" lon="14.721220246465975"><ele>1234.0</ele><time>2026-04-12T10:15:53.001Z</time></trkpt><trkpt lat="40.95657647557047" lon="14.721078449692426"><ele>1234.0</ele><time>2026-04-12T10:15:54.001Z</time></trkpt><trkpt lat="40.95659837981052" lon="14.720922678035508"><ele>1234.0</ele><time>2026-04-12T10:15:55.001Z</time></trkpt><trkpt lat="40.95656470636489" lon="14.72075710368038"><ele>1235.25</ele><time>2026-04-12T10:15:56Z</time></trkpt><trkpt lat="40.956498644421046" lon="14.720598917798016"><ele>1236.5</ele><time>2026-04-12T10:15:57Z</time></trkpt><trkpt lat="40.95645963705776" lon="14.720449757722973"><ele>1237.75</ele><time>2026-04-12T10:15:58Z</time></trkpt><trkpt lat="40.95644231896802" lon="14.720296523533374"><ele>1239.0</ele><time>2026-04-12T10:15:59Z</time></trkpt><trkpt lat="40.956458466734084" lon="14.720116725926548"><ele>1241.25</ele><time>2026-04-12T10:16:00Z</time></trkpt><trkpt lat="40.95649406681608" lon="14.719945134372324"><ele>1243.5</ele><time>2026-04-12T10:16:01Z</time></trkpt><trkpt lat="40.95656093827474" lon="14.719797888694211"><ele>1245.75</ele><time>2026-04-12T10:16:02Z</time></trkpt><trkpt lat="40.95660186513011" lon="14.719636210774661"><ele>1248.0</ele><time>2026-04-12T10:16:03Z</time></trkpt><trkpt lat="40.956603064983085" lon="14.719438864070197"><ele>1248.3333333333333</ele><time>2026-04-12T10:16:04Z</time></trkpt><trkpt lat="40.95659566110367" lon="14.719237362936875"><ele>1248.6666666666665</ele><time>2026-04-12T10:16:05Z</time></trkpt><trkpt lat="40.95658705209893" lon="14.71902996615674"><ele>1249.0</ele><time>2026-04-12T10:16:06Z</time></trkpt><trkpt lat="40.956582416029455" lon="14.718841661935317"><ele>1249.0</ele><time>2026-04-12T10:16:07Z</time></trkpt><trkpt lat="40.956566829030116" lon="14.71868964188885"><ele>1249.0</ele><time>2026-04-12T10:16:08Z</time></trkpt><trkpt lat="40.95652832048961" lon="14.718560338898142"><ele>1249.0</ele><time>2026-04-12T10:16:09Z</time></trkpt><trkpt lat="40.95646779177287" lon="14.718452873418656"><ele>1249.0</ele><time>2026-04-12T10:16:10Z</time></trkpt><trkpt lat="40.95638312966516" lon="14.718357592372818"><ele>1249.0</ele><time>2026-04-12T10:16:11Z</time></trkpt><trkpt lat="40.95628844689599" lon="14.718280150108743"><ele>1246.25</ele><time>2026-04-12T10:16:12Z</time></trkpt><trkpt lat="40.956214446426024" lon="14.718186362159305"><ele>1243.5</ele><time>2026-04-12T10:16:13Z</time></trkpt><trkpt lat="40.95617161850765" lon="14.718042872798016"><ele>1240.75</ele><time>2026-04-12T10:16:14Z</time></trkpt><trkpt lat="40.95615342848389" lon="14.717879505325326"><ele>1238.0</ele><time>2026-04-12T10:16:15Z</time></trkpt><trkpt lat="40.95617307618443" lon="14.717723773048721"><ele>1234.75</ele><time>2026-04-12T10:16:16Z</time></trkpt><trkpt lat="40.95619364052543" lon="14.71759598626566"><ele>1231.5</ele><time>2026-04-12T10:16:17Z</time></trkpt><trkpt lat="40.95616760320179" lon="14.717453643562441"><ele>1228.25</ele><time>2026-04-12T10:16:18Z</time></trkpt><trkpt lat="40.956089491216154" lon="14.717308124005605"><ele>1225.0</ele><time>2026-04-12T10:16:19Z</time></trkpt><trkpt lat="40.95598805828027" lon="14.71716934444274"><ele>1225.0</ele><time>2026-04-12T10:16:20Z</time></trkpt><trkpt lat="40.9558834043128" lon="14.717067110637538"><ele>1225.0</ele><time>2026-04-12T10:16:21Z</time></trkpt><trkpt lat="40.95576936767667" lon="14.717004784847816"><ele>1225.0</ele><time>2026-04-12T10:16:22Z</time></trkpt><trkpt lat="40.955636277592994" lon="14.71698559365941"><ele>1225.0</ele><time>2026-04-12T10:16:23Z</time></trkpt><trkpt lat="40.955492819785384" lon="14.716984646344137"><ele>1229.8</ele><time>2026-04-12T10:16:24Z</time></trkpt><trkpt lat="40.95537537806793" lon="14.716973199367784"><ele>1234.6</ele><time>2026-04-12T10:16:25Z</time></trkpt><trkpt lat="40.95526696840177" lon="14.716885276764597"><ele>1239.4</ele><time>2026-04-12T10:16:27Z</time></trkpt><trkpt lat="40.955235794813035" lon="14.716790957300983"><ele>1244.2</ele><time>2026-04-12T10:16:28Z</time></trkpt><trkpt lat="40.955241573851005" lon="14.716674822559773"><ele>1249.0</ele><time>2026-04-12T10:16:29Z</time></trkpt><trkpt lat="40.95528071743707" lon="14.716541865690605"><ele>1249.0</ele><time>2026-04-12T10:16:30Z</time></trkpt><trkpt lat="40.95527950868697" lon="14.716391968130788"><ele>1249.0</ele><time>2026-04-12T10:16:31Z</time></trkpt><trkpt lat="40.9552779862699" lon="14.71621770282234"><ele>1249.0</ele><time>2026-04-12T10:16:32Z</time></trkpt><trkpt lat="40.95528556584987" lon="14.716049860918616"><ele>1249.0</ele><time>2026-04-12T10:16:33Z</time></trkpt><trkpt lat="40.95529499715603" lon="14.71590973471552"><ele>1247.25</ele><time>2026-04-12T10:16:34Z</time></trkpt><trkpt lat="40.955264386840454" lon="14.715782361154552"><ele>1245.5</ele><time>2026-04-12T10:16:35Z</time></trkpt><trkpt lat="40.95519695517729" lon="14.715661975739696"><ele>1243.75</ele><time>2026-04-12T10:16:36Z</time></trkpt><trkpt lat="40.955172413604174" lon="14.715518937129316"><ele>1242.0</ele><time>2026-04-12T10:16:37Z</time></trkpt><trkpt lat="40.95520282830861" lon="14.715319594382262"><ele>1241.25</ele><time>2026-04-12T10:16:38Z</time></trkpt><trkpt lat="40.95524225648285" lon="14.715130140337818"><ele>1240.5</ele><time>2026-04-12T10:16:39Z</time></trkpt><trkpt lat="40.955281892475206" lon="14.71499510886739"><ele>1239.75</ele><time>2026-04-12T10:16:40Z</time></trkpt><trkpt lat="40.95526299861431" lon="14.714851728449435"><ele>1239.0</ele><time>2026-04-12T10:16:41Z</time></trkpt><trkpt lat="40.95526689706369" lon="14.714647051002819"><ele>1239.0</ele><time>2026-04-12T10:16:42Z</time></trkpt><trkpt lat="40.95527268002706" lon="14.714465871312987"><ele>1239.0</ele><time>2026-04-12T10:16:43Z</time></trkpt><trkpt lat="40.95526836638496" lon="14.714299885803195"><ele>1239.0</ele><time>2026-04-12T10:16:44Z</time></trkpt><trkpt lat="40.9552779662214" lon="14.714139136527121"><ele>1239.0</ele><time>2026-04-12T10:16:45Z</time></trkpt><trkpt lat="40.95525363838467" lon="14.714029339338625"><ele>1238.0</ele><time>2026-04-12T10:16:46Z</time></trkpt><trkpt lat="40.95521318364574" lon="14.713939014079815"><ele>1237.0</ele><time>2026-04-12T10:16:47Z</time></trkpt><trkpt lat="40.95516066902547" lon="14.713816249279127"><ele>1236.0</ele><time>2026-04-12T10:16:48Z</time></trkpt><trkpt lat="40.955067558380385" lon="14.71366621474742"><ele>1235.0</ele><time>2026-04-12T10:16:49Z</time></trkpt><trkpt lat="40.95495513706677" lon="14.71357828476947"><ele>1244.0</ele><time>2026-04-12T10:16:50Z</time></trkpt><trkpt lat="40.954870050298545" lon="14.713496427505348"><ele>1253.0</ele><time>2026-04-12T10:16:51Z</time></trkpt><trkpt lat="40.954819674308034" lon="14.713425607212649"><ele>1262.0</ele><time>2026-04-12T10:16:52Z</time></trkpt><trkpt lat="40.95479084243993" lon="14.713326945955812"><ele>1271.0</ele><time>2026-04-12T10:16:53Z</time></trkpt><trkpt lat="40.954781552683095" lon="14.713193575970909"><ele>1280.0</ele><time>2026-04-12T10:16:54Z</time></trkpt><trkpt lat="40.954797926103296" lon="14.713044608798933"><ele>1280.0</ele><time>2026-04-12T10:16:55Z</time></trkpt><trkpt lat="40.954861902159884" lon="14.71287475497969"><ele>1280.0</ele><time>2026-04-12T10:16:56Z</time></trkpt><trkpt lat="40.954902669199704" lon="14.712729733837584"><ele>1280.0</ele><time>2026-04-12T10:16:57Z</time></trkpt><trkpt lat="40.95492788974015" lon="14.71256855883374"><ele>1280.0</ele><time>2026-04-12T10:16:58Z</time></trkpt><trkpt lat="40.954958505575036" lon="14.712409655828315"><ele>1280.5</ele><time>2026-04-12T10:16:59Z</time></trkpt><trkpt lat="40.95495610639372" lon="14.71223367511179"><ele>1281.0</ele><time>2026-04-12T10:17:00Z</time></trkpt><trkpt lat="40.954982878097475" lon="14.712066672904438"><ele>1281.5</ele><time>2026-04-12T10:17:01Z</time></trkpt><trkpt lat="40.955023442857815" lon="14.711921585993567"><ele>1282.0</ele><time>2026-04-12T10:17:02Z</time></trkpt><trkpt lat="40.95507406603132" lon="14.711789482695877"><ele>1283.25</ele><time>2026-04-12T10:17:03Z</time></trkpt><trkpt lat="40.95509731371612" lon="14.711643098885999"><ele>1284.5</ele><time>2026-04-12T10:17:04Z</time></trkpt><trkpt lat="40.9550872940122" lon="14.711498664763091"><ele>1285.75</ele><time>2026-04-12T10:17:05Z</time></trkpt><trkpt lat="40.95505082973965" lon="14.711325649060171"><ele>1287.0</ele><time>2026-04-12T10:17:06Z</time></trkpt><trkpt lat="40.95500473078066" lon="14.71114336392693"><ele>1286.8</ele><time>2026-04-12T10:17:07Z</time></trkpt><trkpt lat="40.95495436947644" lon="14.710980930513207"><ele>1286.6</ele><time>2026-04-12T10:17:08Z</time></trkpt><trkpt lat="40.954910819343155" lon="14.710841885984964"><ele>1286.3999999999999</ele><time>2026-04-12T10:17:09Z</time></trkpt><trkpt lat="40.95487524617324" lon="14.710716112770205"><ele>1286.1999999999998</ele><time>2026-04-12T10:17:10Z</time></trkpt><trkpt lat="40.9548507284342" lon="14.710597700781681"><ele>1286.0</ele><time>2026-04-12T10:17:11Z</time></trkpt><trkpt lat="40.954847635327006" lon="14.71047668529069"><ele>1286.0</ele><time>2026-04-12T10:17:12Z</time></trkpt><trkpt lat="40.95489349669945" lon="14.710343580283286"><ele>1286.0</ele><time>2026-04-12T10:17:13Z</time></trkpt><trkpt lat="40.95497041243082" lon="14.710189669098057"><ele>1286.0</ele><time>2026-04-12T10:17:14Z</time></trkpt><trkpt lat="40.955029975272936" lon="14.710035771655432"><ele>1286.0</ele><time>2026-04-12T10:17:15Z</time></trkpt><trkpt lat="40.9550737923741" lon="14.709852578921652"><ele>1275.75</ele><time>2026-04-12T10:17:16Z</time></trkpt><trkpt lat="40.955096317912414" lon="14.709684781414008"><ele>1265.5</ele><time>2026-04-12T10:17:17Z</time></trkpt><trkpt lat="40.95509917656321" lon="14.709499995318543"><ele>1255.25</ele><time>2026-04-12T10:17:18Z</time></trkpt><trkpt lat="40.955094157996044" lon="14.709288556487445"><ele>1245.0</ele><time>2026-04-12T10:17:19Z</time></trkpt><trkpt lat="40.95509836873883" lon="14.709109956985024"><ele>1245.0</ele><time>2026-04-12T10:17:20Z</time></trkpt><trkpt lat="40.95511725028225" lon="14.708950342092285"><ele>1245.0</ele><time>2026-04-12T10:17:21Z</time></trkpt><trkpt lat="40.95515022648124" lon="14.70876964235653"><ele>1245.0</ele><time>2026-04-12T10:17:22Z</time></trkpt><trkpt lat="40.95517713893107" lon="14.708610805864344"><ele>1245.0</ele><time>2026-04-12T10:17:23Z</time></trkpt><trkpt lat="40.95522599961423" lon="14.708469811351023"><ele>1247.0</ele><time>2026-04-12T10:17:24Z</time></trkpt><trkpt lat="40.955292888426776" lon="14.708351294861936"><ele>1249.0</ele><time>2026-04-12T10:17:25Z</time></trkpt><trkpt lat="40.955345524441874" lon="14.708251810082253"><ele>1251.0</ele><time>2026-04-12T10:17:26Z</time></trkpt><trkpt lat="40.95536407489061" lon="14.708146905083742"><ele>1253.0</ele><time>2026-04-12T10:17:27Z</time></trkpt><trkpt lat="40.955329225603656" lon="14.708010190405329"><ele>1255.0</ele><time>2026-04-12T10:17:28Z</time></trkpt><trkpt lat="40.95526998394904" lon="14.70783864718979"><ele>1254.0</ele><time>2026-04-12T10:17:29Z</time></trkpt><trkpt lat="40.95520263929689" lon="14.707697631882654"><ele>1253.0</ele><time>2026-04-12T10:17:30Z</time></trkpt><trkpt lat="40.95513652023838" lon="14.707575265745287"><ele>1252.0</ele><time>2026-04-12T10:17:31Z</time></trkpt><trkpt lat="40.95504749923362" lon="14.70746885807404"><ele>1251.0</ele><time>2026-04-12T10:17:32Z</time></trkpt><trkpt lat="40.9549212576192" lon="14.707358161510367"><ele>1260.25</ele><time>2026-04-12T10:17:33Z</time></trkpt><trkpt lat="40.954774821029694" lon="14.707271622696611"><ele>1269.5</ele><time>2026-04-12T10:17:34Z</time></trkpt><trkpt lat="40.95464604059483" lon="14.707199853577979"><ele>1278.75</ele><time>2026-04-12T10:17:35Z</time></trkpt><trkpt lat="40.95453701324192" lon="14.707132272094254"><ele>1288.0</ele><time>2026-04-12T10:17:36Z</time></trkpt><trkpt lat="40.954438034466556" lon="14.707060961108256"><ele>1288.0</ele><time>2026-04-12T10:17:37Z</time></trkpt><trkpt lat="40.95435946060702" lon="14.706942609863235"><ele>1288.0</ele><time>2026-04-12T10:17:38Z</time></trkpt><trkpt lat="40.95426226977473" lon="14.706819796671242"><ele>1288.0</ele><time>2026-04-12T10:17:39Z</time></trkpt><trkpt lat="40.95421433481813" lon="14.706650431344583"><ele>1288.0</ele><time>2026-04-12T10:17:40Z</time></trkpt><trkpt lat="40.95418273946175" lon="14.706500401147022"><ele>1287.4</ele><time>2026-04-12T10:17:41Z</time></trkpt><trkpt lat="40.95416002844743" lon="14.706370484453386"><ele>1286.8000000000002</ele><time>2026-04-12T10:17:42Z</time></trkpt><trkpt lat="40.9541313728723" lon="14.706259516590913"><ele>1286.2</ele><time>2026-04-12T10:17:43Z</time></trkpt><trkpt lat="40.95409742599124" lon="14.70615025899725"><ele>1285.6</ele><time>2026-04-12T10:17:44Z</time></trkpt><trkpt lat="40.954048358650276" lon="14.706048477731377"><ele>1285.0</ele><time>2026-04-12T10:17:45Z</time></trkpt><trkpt lat="40.95399146028824" lon="14.705974031572454"><ele>1285.0</ele><time>2026-04-12T10:17:46.001Z</time></trkpt><trkpt lat="40.9539000079674" lon="14.705880868697959"><ele>1285.0</ele><time>2026-04-12T10:17:48.001Z</time></trkpt><trkpt lat="40.953793605779616" lon="14.705811302238175"><ele>1285.0</ele><time>2026-04-12T10:17:50.001Z</time></trkpt><trkpt lat="40.953715283297704" lon="14.705797365088557"><ele>1285.0</ele><time>2026-04-12T10:17:51.001Z</time></trkpt><trkpt lat="40.953615500636474" lon="14.705817367951418"><ele>1285.0</ele><time>2026-04-12T10:17:52.001Z</time></trkpt><trkpt lat="40.95349825762038" lon="14.70587381246928"><ele>1285.0</ele><time>2026-04-12T10:17:53.001Z</time></trkpt><trkpt lat="40.95338285604865" lon="14.705960987198653"><ele>1285.0</ele><time>2026-04-12T10:17:54.001Z</time></trkpt><trkpt lat="40.95327602124592" lon="14.706071854539768"><ele>1285.0</ele><time>2026-04-12T10:17:55.001Z</time></trkpt><trkpt lat="40.95317002050909" lon="14.706213033203033"><ele>1285.0</ele><time>2026-04-12T10:17:56.001Z</time></trkpt><trkpt lat="40.953075622487596" lon="14.706363636683381"><ele>1294.3333333333333</ele><time>2026-04-12T10:17:57.001Z</time></trkpt><trkpt lat="40.95295481649519" lon="14.706532318906753"><ele>1303.6666666666667</ele><time>2026-04-12T10:17:58.001Z</time></trkpt><trkpt lat="40.95283509315854" lon="14.70670385740261"><ele>1313.0</ele><time>2026-04-12T10:17:59.001Z</time></trkpt><trkpt lat="40.95273743139094" lon="14.706855158104554"><ele>1318.5</ele><time>2026-04-12T10:18:00.001Z</time></trkpt><trkpt lat="40.9526357007366" lon="14.70697348201299"><ele>1324.0</ele><time>2026-04-12T10:18:01.001Z</time></trkpt><trkpt lat="40.952580591798025" lon="14.707083675191942"><ele>1329.5</ele><time>2026-04-12T10:18:02.001Z</time></trkpt><trkpt lat="40.95254187898177" lon="14.707202183444966"><ele>1335.0</ele><time>2026-04-12T10:18:03.001Z</time></trkpt><trkpt lat="40.95254910381407" lon="14.707373407841612"><ele>1335.0</ele><time>2026-04-12T10:18:04.001Z</time></trkpt><trkpt lat="40.95255988406905" lon="14.707554479239686"><ele>1335.0</ele><time>2026-04-12T10:18:05.001Z</time></trkpt><trkpt lat="40.952583970183085" lon="14.707725099694082"><ele>1335.0</ele><time>2026-04-12T10:18:06Z</time></trkpt><trkpt lat="40.952542805744784" lon="14.707872726148791"><ele>1335.0</ele><time>2026-04-12T10:18:07Z</time></trkpt><trkpt lat="40.95248139013428" lon="14.708012710425363"><ele>1332.25</ele><time>2026-04-12T10:18:08Z</time></trkpt><trkpt lat="40.952396309779786" lon="14.708167375792359"><ele>1329.5</ele><time>2026-04-12T10:18:09Z</time></trkpt><trkpt lat="40.95229882248004" lon="14.70829347919929"><ele>1326.75</ele><time>2026-04-12T10:18:10Z</time></trkpt><trkpt lat="40.952224131192345" lon="14.70843244613603"><ele>1324.0</ele><time>2026-04-12T10:18:11Z</time></trkpt><trkpt lat="40.95213747525029" lon="14.70857340653426"><ele>1334.6666666666665</ele><time>2026-04-12T10:18:12Z</time></trkpt><trkpt lat="40.95203457454344" lon="14.708719712271474"><ele>1345.3333333333333</ele><time>2026-04-12T10:18:13Z</time></trkpt><trkpt lat="40.951910677956874" lon="14.708865365312333"><ele>1356.0</ele><time>2026-04-12T10:18:14Z</time></trkpt><trkpt lat="40.95178779727914" lon="14.708988319214422"><ele>1355.6666666666667</ele><time>2026-04-12T10:18:15Z</time></trkpt><trkpt lat="40.95166467763557" lon="14.709131776442508"><ele>1355.3333333333335</ele><time>2026-04-12T10:18:16Z</time></trkpt><trkpt lat="40.95154463619668" lon="14.709290884349917"><ele>1355.0</ele><time>2026-04-12T10:18:17Z</time></trkpt><trkpt lat="40.95143811671723" lon="14.709435465623864"><ele>1355.0</ele><time>2026-04-12T10:18:18Z</time></trkpt><trkpt lat="40.95134024189652" lon="14.709559623610021"><ele>1355.0</ele><time>2026-04-12T10:18:19Z</time></trkpt><trkpt lat="40.9512540680478" lon="14.709677672002586"><ele>1355.0</ele><time>2026-04-12T10:18:20Z</time></trkpt><trkpt lat="40.95115716604007" lon="14.709771309818159"><ele>1355.0</ele><time>2026-04-12T10:18:21Z</time></trkpt><trkpt lat="40.951054454237706" lon="14.709864843735629"><ele>1355.0</ele><time>2026-04-12T10:18:22Z</time></trkpt><trkpt lat="40.95091893003822" lon="14.709920908206607"><ele>1355.0</ele><time>2026-04-12T10:18:23Z</time></trkpt><trkpt lat="40.950757999583246" lon="14.709961457022336"><ele>1355.0</ele><time>2026-04-12T10:18:24Z</time></trkpt><trkpt lat="40.95061621995867" lon="14.709991347542156"><ele>1355.0</ele><time>2026-04-12T10:18:25Z</time></trkpt><trkpt lat="40.95048250813297" lon="14.710022508215507"><ele>1351.25</ele><time>2026-04-12T10:18:26Z</time></trkpt><trkpt lat="40.95034035033305" lon="14.710051265371535"><ele>1347.5</ele><time>2026-04-12T10:18:27Z</time></trkpt><trkpt lat="40.95021512903592" lon="14.710066642567213"><ele>1343.75</ele><time>2026-04-12T10:18:28Z</time></trkpt><trkpt lat="40.95010517204589" lon="14.710069981266875"><ele>1340.0</ele><time>2026-04-12T10:18:29Z</time></trkpt><trkpt lat="40.94999900018694" lon="14.710062373275143"><ele>1340.0</ele><time>2026-04-12T10:18:30Z</time></trkpt><trkpt lat="40.94990551622432" lon="14.710061710889823"><ele>1340.0</ele><time>2026-04-12T10:18:31Z</time></trkpt><trkpt lat="40.94982529032317" lon="14.710064811445749"><ele>1340.0</ele><time>2026-04-12T10:18:32Z</time></trkpt><trkpt lat="40.949751306428176" lon="14.71005581196503"><ele>1340.0</ele><time>2026-04-12T10:18:33Z</time></trkpt><trkpt lat="40.949681588633894" lon="14.710028048866596"><ele>1340.0</ele><time>2026-04-12T10:18:34Z</time></trkpt><trkpt lat="40.949620665858596" lon="14.709982629250938"><ele>1340.0</ele><time>2026-04-12T10:18:35Z</time></trkpt><trkpt lat="40.94955179263585" lon="14.709872807789038"><ele>1340.0</ele><time>2026-04-12T10:18:37Z</time></trkpt><trkpt lat="40.949508307404926" lon="14.709807210996503"><ele>1340.0</ele><time>2026-04-12T10:18:39Z</time></trkpt><trkpt lat="40.94945450813477" lon="14.709698915175002"><ele>1340.0</ele><time>2026-04-12T10:18:41Z</time></trkpt><trkpt lat="40.94941605695478" lon="14.709632521255944"><ele>1340.0</ele><time>2026-04-12T10:18:42Z</time></trkpt><trkpt lat="40.94935085850793" lon="14.709483458422318"><ele>1340.0</ele><time>2026-04-12T10:18:44Z</time></trkpt><trkpt lat="40.94929694235571" lon="14.709352132491246"><ele>1341.3333333333335</ele><time>2026-04-12T10:18:46Z</time></trkpt><trkpt lat="40.94918308928534" lon="14.709300463154177"><ele>1342.6666666666667</ele><time>2026-04-12T10:18:48Z</time></trkpt><trkpt lat="40.94911476664643" lon="14.709322211319"><ele>1344.0</ele><time>2026-04-12T10:18:49Z</time></trkpt><trkpt lat="40.94902595303048" lon="14.709345125687191"><ele>1345.3333333333333</ele><time>2026-04-12T10:18:50Z</time></trkpt><trkpt lat="40.948950385261696" lon="14.70938031557089"><ele>1346.6666666666665</ele><time>2026-04-12T10:18:51Z</time></trkpt><trkpt lat="40.948866927997955" lon="14.70938644139619"><ele>1348.0</ele><time>2026-04-12T10:18:52Z</time></trkpt><trkpt lat="40.948793835020844" lon="14.70939970654483"><ele>1349.4</ele><time>2026-04-12T10:18:53Z</time></trkpt><trkpt lat="40.94870380624991" lon="14.70942294835573"><ele>1350.8000000000002</ele><time>2026-04-12T10:18:55Z</time></trkpt><trkpt lat="40.9486364385883" lon="14.709425455186507"><ele>1352.2</ele><time>2026-04-12T10:18:56Z</time></trkpt><trkpt lat="40.94852030121909" lon="14.709421562890412"><ele>1353.6</ele><time>2026-04-12T10:18:57Z</time></trkpt><trkpt lat="40.948406504491814" lon="14.7094272905931"><ele>1355.0</ele><time>2026-04-12T10:18:58Z</time></trkpt><trkpt lat="40.9482561163615" lon="14.70942441132034"><ele>1355.0</ele><time>2026-04-12T10:18:59Z</time></trkpt><trkpt lat="40.94807865436599" lon="14.709371418591397"><ele>1355.0</ele><time>2026-04-12T10:19:00Z</time></trkpt><trkpt lat="40.94789616477378" lon="14.709393477516972"><ele>1355.0</ele><time>2026-04-12T10:19:01Z</time></trkpt><trkpt lat="40.947739397783906" lon="14.709401421795931"><ele>1354.75</ele><time>2026-04-12T10:19:02Z</time></trkpt><trkpt lat="40.947599748127054" lon="14.709411850063635"><ele>1354.5</ele><time>2026-04-12T10:19:03Z</time></trkpt><trkpt lat="40.94748324658919" lon="14.709386734608291"><ele>1354.25</ele><time>2026-04-12T10:19:04Z</time></trkpt><trkpt lat="40.94734317364629" lon="14.709364208500157"><ele>1354.0</ele><time>2026-04-12T10:19:05Z</time></trkpt><trkpt lat="40.947214667064834" lon="14.709381316485215"><ele>1354.0</ele><time>2026-04-12T10:19:06Z</time></trkpt><trkpt lat="40.94710324341909" lon="14.709394321662003"><ele>1354.0</ele><time>2026-04-12T10:19:07Z</time></trkpt><trkpt lat="40.947014351533575" lon="14.709403986007036"><ele>1354.0</ele><time>2026-04-12T10:19:08Z</time></trkpt><trkpt lat="40.94693403831422" lon="14.709416765274808"><ele>1354.0</ele><time>2026-04-12T10:19:09Z</time></trkpt><trkpt lat="40.94687131148186" lon="14.709430198993035"><ele>1354.0</ele><time>2026-04-12T10:19:10Z</time></trkpt><trkpt lat="40.946809439015425" lon="14.709445831459817"><ele>1354.0</ele><time>2026-04-12T10:19:11Z</time></trkpt><trkpt lat="40.94674484215741" lon="14.709466721447942"><ele>1356.2</ele><time>2026-04-12T10:19:12Z</time></trkpt><trkpt lat="40.946665520389196" lon="14.70949819650275"><ele>1358.4</ele><time>2026-04-12T10:19:13Z</time></trkpt><trkpt lat="40.94657292484814" lon="14.709540591335848"><ele>1360.6</ele><time>2026-04-12T10:19:14Z</time></trkpt><trkpt lat="40.94648214493378" lon="14.709586695286665"><ele>1362.8</ele><time>2026-04-12T10:19:15Z</time></trkpt><trkpt lat="40.94638806318852" lon="14.709647496477581"><ele>1365.0</ele><time>2026-04-12T10:19:16Z</time></trkpt><trkpt lat="40.94631536310992" lon="14.709763906028778"><ele>1365.0</ele><time>2026-04-12T10:19:17Z</time></trkpt><trkpt lat="40.94625556601805" lon="14.709924151765128"><ele>1365.0</ele><time>2026-04-12T10:19:18Z</time></trkpt><trkpt lat="40.94618390487413" lon="14.71008420059867"><ele>1365.0</ele><time>2026-04-12T10:19:19Z</time></trkpt><trkpt lat="40.946119375978334" lon="14.710208775554456"><ele>1365.0</ele><time>2026-04-12T10:19:20Z</time></trkpt><trkpt lat="40.946038702839026" lon="14.710338041389857"><ele>1364.0</ele><time>2026-04-12T10:19:21Z</time></trkpt><trkpt lat="40.945934787302136" lon="14.71045162340754"><ele>1363.0</ele><time>2026-04-12T10:19:22Z</time></trkpt><trkpt lat="40.9458595273897" lon="14.710548514001752"><ele>1362.0</ele><time>2026-04-12T10:19:23Z</time></trkpt><trkpt lat="40.945773190842445" lon="14.710600977082022"><ele>1361.0</ele><time>2026-04-12T10:19:24Z</time></trkpt><trkpt lat="40.945675767146746" lon="14.710626505153574"><ele>1360.0</ele><time>2026-04-12T10:19:25Z</time></trkpt><trkpt lat="40.94561132398604" lon="14.710659280684354"><ele>1360.0</ele><time>2026-04-12T10:19:26Z</time></trkpt><trkpt lat="40.945531919012375" lon="14.710675811958552"><ele>1360.0</ele><time>2026-04-12T10:19:27Z</time></trkpt><trkpt lat="40.945469849271085" lon="14.710694904761045"><ele>1360.0</ele><time>2026-04-12T10:19:28Z</time></trkpt><trkpt lat="40.945350845337266" lon="14.710619583129695"><ele>1360.0</ele><time>2026-04-12T10:19:30Z</time></trkpt><trkpt lat="40.945278337892695" lon="14.71054189079986"><ele>1360.0</ele><time>2026-04-12T10:19:31Z</time></trkpt><trkpt lat="40.94520060456964" lon="14.710440863171128"><ele>1360.0</ele><time>2026-04-12T10:19:33Z</time></trkpt><trkpt lat="40.94513165497847" lon="14.710396400542708"><ele>1360.0</ele><time>2026-04-12T10:19:34Z</time></trkpt><trkpt lat="40.94503727892644" lon="14.710341344464878"><ele>1360.0</ele><time>2026-04-12T10:19:35Z</time></trkpt><trkpt lat="40.9449509224303" lon="14.710310000244778"><ele>1360.0</ele><time>2026-04-12T10:19:36Z</time></trkpt><trkpt lat="40.94487840801637" lon="14.71028546843105"><ele>1360.0</ele><time>2026-04-12T10:19:37Z</time></trkpt><trkpt lat="40.944807488410085" lon="14.710268975224853"><ele>1360.0</ele><time>2026-04-12T10:19:38Z</time></trkpt><trkpt lat="40.944730051497736" lon="14.710233584457583"><ele>1358.6</ele><time>2026-04-12T10:19:39Z</time></trkpt><trkpt lat="40.9446346251622" lon="14.71021046533696"><ele>1357.2</ele><time>2026-04-12T10:19:40Z</time></trkpt><trkpt lat="40.944559362647716" lon="14.71020481603737"><ele>1355.8000000000002</ele><time>2026-04-12T10:19:41Z</time></trkpt><trkpt lat="40.94447015590094" lon="14.710198234162897"><ele>1354.4</ele><time>2026-04-12T10:19:42Z</time></trkpt><trkpt lat="40.94435916466044" lon="14.710188512479844"><ele>1353.0</ele><time>2026-04-12T10:19:43Z</time></trkpt><trkpt lat="40.944278062754755" lon="14.71017641137937"><ele>1351.8000000000002</ele><time>2026-04-12T10:19:44Z</time></trkpt><trkpt lat="40.944193377753045" lon="14.710132384445487"><ele>1350.6</ele><time>2026-04-12T10:19:45Z</time></trkpt><trkpt lat="40.944119888588546" lon="14.710065637905142"><ele>1349.4</ele><time>2026-04-12T10:19:46Z</time></trkpt><trkpt lat="40.944027945282684" lon="14.709957776674052"><ele>1348.1999999999998</ele><time>2026-04-12T10:19:47Z</time></trkpt><trkpt lat="40.94394243800041" lon="14.709835537835328"><ele>1347.0</ele><time>2026-04-12T10:19:48Z</time></trkpt><trkpt lat="40.94388777985325" lon="14.709707545963445"><ele>1347.0</ele><time>2026-04-12T10:19:49Z</time></trkpt><trkpt lat="40.94385775347067" lon="14.709593749964627"><ele>1347.0</ele><time>2026-04-12T10:19:50Z</time></trkpt><trkpt lat="40.943821317756495" lon="14.709463796064233"><ele>1347.0</ele><time>2026-04-12T10:19:51Z</time></trkpt><trkpt lat="40.94381621439208" lon="14.709362417966332"><ele>1347.0</ele><time>2026-04-12T10:19:52Z</time></trkpt><trkpt lat="40.943825074374665" lon="14.709263765883193"><ele>1347.0</ele><time>2026-04-12T10:19:53Z</time></trkpt><trkpt lat="40.94384179571964" lon="14.709165070849467"><ele>1347.0</ele><time>2026-04-12T10:19:54Z</time></trkpt><trkpt lat="40.94386820286577" lon="14.70907868876696"><ele>1347.1666666666667</ele><time>2026-04-12T10:19:55Z</time></trkpt><trkpt lat="40.94390910995784" lon="14.708998489504523"><ele>1347.3333333333333</ele><time>2026-04-12T10:19:56Z</time></trkpt><trkpt lat="40.94394581187781" lon="14.708900958986426"><ele>1347.5</ele><time>2026-04-12T10:19:57Z</time></trkpt><trkpt lat="40.943952403565156" lon="14.708802116019315"><ele>1347.6666666666665</ele><time>2026-04-12T10:19:58Z</time></trkpt><trkpt lat="40.943948522932246" lon="14.708707209932305"><ele>1347.8333333333333</ele><time>2026-04-12T10:19:59Z</time></trkpt><trkpt lat="40.94393566498087" lon="14.708598446567558"><ele>1348.0</ele><time>2026-04-12T10:20:00Z</time></trkpt><trkpt lat="40.943918470123464" lon="14.708516366930342"><ele>1348.6666666666665</ele><time>2026-04-12T10:20:01Z</time></trkpt><trkpt lat="40.94390377933169" lon="14.70843316047018"><ele>1349.3333333333333</ele><time>2026-04-12T10:20:02Z</time></trkpt><trkpt lat="40.94388734827205" lon="14.708326921542492"><ele>1350.0</ele><time>2026-04-12T10:20:03Z</time></trkpt><trkpt lat="40.9438785971855" lon="14.70820612029885"><ele>1350.6666666666667</ele><time>2026-04-12T10:20:04Z</time></trkpt><trkpt lat="40.94388303119936" lon="14.708076100294385"><ele>1351.3333333333335</ele><time>2026-04-12T10:20:05Z</time></trkpt><trkpt lat="40.94385790902255" lon="14.707930943293011"><ele>1352.0</ele><time>2026-04-12T10:20:06Z</time></trkpt><trkpt lat="40.943860648456344" lon="14.707780021428508"><ele>1352.1999999999998</ele><time>2026-04-12T10:20:07Z</time></trkpt><trkpt lat="40.943854709662375" lon="14.707613677646181"><ele>1352.4</ele><time>2026-04-12T10:20:08Z</time></trkpt><trkpt lat="40.94385055574592" lon="14.707459434550971"><ele>1352.6</ele><time>2026-04-12T10:20:09Z</time></trkpt><trkpt lat="40.94386223455198" lon="14.707313872818279"><ele>1352.8000000000002</ele><time>2026-04-12T10:20:10Z</time></trkpt><trkpt lat="40.94386996879771" lon="14.707195592020616"><ele>1353.0</ele><time>2026-04-12T10:20:11Z</time></trkpt><trkpt lat="40.94387890842767" lon="14.707109246212871"><ele>1353.0</ele><time>2026-04-12T10:20:12Z</time></trkpt><trkpt lat="40.94385786342101" lon="14.706959896783266"><ele>1353.0</ele><time>2026-04-12T10:20:14Z</time></trkpt><trkpt lat="40.94383843852946" lon="14.706875407398522"><ele>1353.0</ele><time>2026-04-12T10:20:17Z</time></trkpt><trkpt lat="40.94375544253509" lon="14.706767815666181"><ele>1353.0</ele><time>2026-04-12T10:20:19Z</time></trkpt><trkpt lat="40.94366811143513" lon="14.706647565755445"><ele>1353.0</ele><time>2026-04-12T10:20:21Z</time></trkpt><trkpt lat="40.94360339359721" lon="14.706532755205092"><ele>1353.4</ele><time>2026-04-12T10:20:22Z</time></trkpt><trkpt lat="40.94353141294314" lon="14.70641767750193"><ele>1353.8000000000002</ele><time>2026-04-12T10:20:23Z</time></trkpt><trkpt lat="40.94345828005589" lon="14.70631732063793"><ele>1354.2</ele><time>2026-04-12T10:20:24Z</time></trkpt><trkpt lat="40.94339956493025" lon="14.70620390678983"><ele>1354.6</ele><time>2026-04-12T10:20:25Z</time></trkpt><trkpt lat="40.94336154593969" lon="14.706086121537675"><ele>1355.0</ele><time>2026-04-12T10:20:26Z</time></trkpt><trkpt lat="40.94329560274968" lon="14.70595992744524"><ele>1353.6</ele><time>2026-04-12T10:20:27Z</time></trkpt><trkpt lat="40.9432514503438" lon="14.705820393507636"><ele>1352.2</ele><time>2026-04-12T10:20:28Z</time></trkpt><trkpt lat="40.943215527754276" lon="14.705688115889616"><ele>1350.8000000000002</ele><time>2026-04-12T10:20:29Z</time></trkpt><trkpt lat="40.94318959527219" lon="14.705552066797026"><ele>1349.4</ele><time>2026-04-12T10:20:30Z</time></trkpt><trkpt lat="40.94314873838129" lon="14.705404728767299"><ele>1348.0</ele><time>2026-04-12T10:20:31Z</time></trkpt><trkpt lat="40.94313297412687" lon="14.705262351980673"><ele>1349.25</ele><time>2026-04-12T10:20:32Z</time></trkpt><trkpt lat="40.94312148582565" lon="14.705111893651038"><ele>1350.5</ele><time>2026-04-12T10:20:33Z</time></trkpt><trkpt lat="40.94315578568554" lon="14.704948288729243"><ele>1351.75</ele><time>2026-04-12T10:20:34Z</time></trkpt><trkpt lat="40.94319946530749" lon="14.70478584771768"><ele>1353.0</ele><time>2026-04-12T10:20:35Z</time></trkpt><trkpt lat="40.94321657770383" lon="14.704655432661472"><ele>1353.0</ele><time>2026-04-12T10:20:35.999Z</time></trkpt><trkpt lat="40.94321461603037" lon="14.704545880590848"><ele>1353.0</ele><time>2026-04-12T10:20:36.999Z</time></trkpt><trkpt lat="40.94320145575221" lon="14.704420994216882"><ele>1353.0</ele><time>2026-04-12T10:20:37.999Z</time></trkpt><trkpt lat="40.943158286782136" lon="14.704276915084892"><ele>1353.0</ele><time>2026-04-12T10:20:38.999Z</time></trkpt><trkpt lat="40.94309694450662" lon="14.704088178320637"><ele>1353.25</ele><time>2026-04-12T10:20:39.999Z</time></trkpt><trkpt lat="40.943031996369236" lon="14.703897304131146"><ele>1353.5</ele><time>2026-04-12T10:20:40.999Z</time></trkpt><trkpt lat="40.94299986761377" lon="14.703728807490291"><ele>1353.75</ele><time>2026-04-12T10:20:41.999Z</time></trkpt><trkpt lat="40.94298524174115" lon="14.703580005704456"><ele>1354.0</ele><time>2026-04-12T10:20:42.999Z</time></trkpt><trkpt lat="40.942991894763466" lon="14.703444314803987"><ele>1354.75</ele><time>2026-04-12T10:20:43.999Z</time></trkpt><trkpt lat="40.94298450260535" lon="14.703305357664881"><ele>1355.5</ele><time>2026-04-12T10:20:44.999Z</time></trkpt><trkpt lat="40.94299915084391" lon="14.703165288736963"><ele>1356.25</ele><time>2026-04-12T10:20:45.999Z</time></trkpt><trkpt lat="40.94301598752523" lon="14.702994175262932"><ele>1357.0</ele><time>2026-04-12T10:20:46.999Z</time></trkpt><trkpt lat="40.9430572390621" lon="14.702814878717229"><ele>1356.1999999999998</ele><time>2026-04-12T10:20:47.999Z</time></trkpt><trkpt lat="40.94308791643139" lon="14.702664944598162"><ele>1355.4</ele><time>2026-04-12T10:20:48.999Z</time></trkpt><trkpt lat="40.94311676985653" lon="14.702527249732125"><ele>1354.6</ele><time>2026-04-12T10:20:49.999Z</time></trkpt><trkpt lat="40.94312171553504" lon="14.702408383611976"><ele>1353.8000000000002</ele><time>2026-04-12T10:20:50.999Z</time></trkpt><trkpt lat="40.943094159049075" lon="14.702297130010406"><ele>1353.0</ele><time>2026-04-12T10:20:51.999Z</time></trkpt><trkpt lat="40.943038201429985" lon="14.702234388456018"><ele>1353.0</ele><time>2026-04-12T10:20:52.999Z</time></trkpt><trkpt lat="40.94294721586795" lon="14.702105270088916"><ele>1353.0</ele><time>2026-04-12T10:20:53.999Z</time></trkpt><trkpt lat="40.942835283573466" lon="14.702030770570136"><ele>1353.0</ele><time>2026-04-12T10:20:54.999Z</time></trkpt><trkpt lat="40.9427258927001" lon="14.701993091900624"><ele>1353.0</ele><time>2026-04-12T10:20:55.999Z</time></trkpt><trkpt lat="40.94264279282552" lon="14.701940530292124"><ele>1353.8000000000002</ele><time>2026-04-12T10:20:56.999Z</time></trkpt><trkpt lat="40.942547909825386" lon="14.701888609751032"><ele>1354.6</ele><time>2026-04-12T10:20:57.999Z</time></trkpt><trkpt lat="40.942469485286416" lon="14.701893739562234"><ele>1355.4</ele><time>2026-04-12T10:20:58.999Z</time></trkpt><trkpt lat="40.94239272589676" lon="14.701848752011134"><ele>1356.1999999999998</ele><time>2026-04-12T10:20:59.999Z</time></trkpt><trkpt lat="40.942364233413436" lon="14.701725020308588"><ele>1357.0</ele><time>2026-04-12T10:21:00.999Z</time></trkpt><trkpt lat="40.942335156955444" lon="14.70159544360071"><ele>1354.8</ele><time>2026-04-12T10:21:01.999Z</time></trkpt><trkpt lat="40.94228314018523" lon="14.701448629675939"><ele>1352.6</ele><time>2026-04-12T10:21:02.999Z</time></trkpt><trkpt lat="40.942243656784996" lon="14.701294167394858"><ele>1350.3999999999999</ele><time>2026-04-12T10:21:03.999Z</time></trkpt><trkpt lat="40.9422130059761" lon="14.701177907422176"><ele>1348.1999999999998</ele><time>2026-04-12T10:21:04.999Z</time></trkpt><trkpt lat="40.94218213615159" lon="14.701074855127525"><ele>1346.0</ele><time>2026-04-12T10:21:05.999Z</time></trkpt><trkpt lat="40.94214392313311" lon="14.700955007455931"><ele>1346.0</ele><time>2026-04-12T10:21:06.999Z</time></trkpt><trkpt lat="40.94208753148565" lon="14.700832474819487"><ele>1346.0</ele><time>2026-04-12T10:21:07.999Z</time></trkpt><trkpt lat="40.942053563413204" lon="14.700700030165411"><ele>1346.0</ele><time>2026-04-12T10:21:08.999Z</time></trkpt><trkpt lat="40.942019739045634" lon="14.700521465931816"><ele>1346.0</ele><time>2026-04-12T10:21:09.999Z</time></trkpt><trkpt lat="40.941978978567484" lon="14.700370856571903"><ele>1345.25</ele><time>2026-04-12T10:21:10.999Z</time></trkpt><trkpt lat="40.941980482855996" lon="14.700186064879373"><ele>1344.5</ele><time>2026-04-12T10:21:11.999Z</time></trkpt><trkpt lat="40.94197744314808" lon="14.700022515384624"><ele>1343.75</ele><time>2026-04-12T10:21:12.999Z</time></trkpt><trkpt lat="40.94198289907167" lon="14.699797909293753"><ele>1343.0</ele><time>2026-04-12T10:21:13.999Z</time></trkpt><trkpt lat="40.94199930031565" lon="14.699583797974231"><ele>1342.0</ele><time>2026-04-12T10:21:14.999Z</time></trkpt><trkpt lat="40.94201502938536" lon="14.699348557996261"><ele>1341.0</ele><time>2026-04-12T10:21:15.999Z</time></trkpt><trkpt lat="40.94203001125251" lon="14.699181161938885"><ele>1340.0</ele><time>2026-04-12T10:21:16.999Z</time></trkpt><trkpt lat="40.942049552560874" lon="14.699001273792696"><ele>1339.0</ele><time>2026-04-12T10:21:17.999Z</time></trkpt><trkpt lat="40.942054336535165" lon="14.698828702572495"><ele>1339.0</ele><time>2026-04-12T10:21:18.999Z</time></trkpt><trkpt lat="40.94204206309739" lon="14.698685409895205"><ele>1339.0</ele><time>2026-04-12T10:21:19.999Z</time></trkpt><trkpt lat="40.94206022913423" lon="14.698487431376016"><ele>1339.0</ele><time>2026-04-12T10:21:20.999Z</time></trkpt><trkpt lat="40.94204507932035" lon="14.698259952373787"><ele>1339.0</ele><time>2026-04-12T10:21:21.999Z</time></trkpt><trkpt lat="40.94205510642725" lon="14.698082627485304"><ele>1336.75</ele><time>2026-04-12T10:21:22.999Z</time></trkpt><trkpt lat="40.94209777899229" lon="14.697913390496641"><ele>1334.5</ele><time>2026-04-12T10:21:23.999Z</time></trkpt><trkpt lat="40.942088680883096" lon="14.697755473381836"><ele>1332.25</ele><time>2026-04-12T10:21:24.999Z</time></trkpt><trkpt lat="40.94207181472982" lon="14.69762355751474"><ele>1330.0</ele><time>2026-04-12T10:21:25.999Z</time></trkpt><trkpt lat="40.94205781129203" lon="14.697497183056697"><ele>1330.0</ele><time>2026-04-12T10:21:26.999Z</time></trkpt><trkpt lat="40.94207830245979" lon="14.697344360946484"><ele>1330.0</ele><time>2026-04-12T10:21:27.999Z</time></trkpt><trkpt lat="40.94207823118486" lon="14.697236154101434"><ele>1330.0</ele><time>2026-04-12T10:21:29.999Z</time></trkpt><trkpt lat="40.94215590349505" lon="14.69711769749676"><ele>1330.0</ele><time>2026-04-12T10:21:31.999Z</time></trkpt><trkpt lat="40.94219664288042" lon="14.697051970390017"><ele>1330.0</ele><time>2026-04-12T10:21:32.999Z</time></trkpt><trkpt lat="40.942296673328066" lon="14.696997732028883"><ele>1327.6</ele><time>2026-04-12T10:21:34.999Z</time></trkpt><trkpt lat="40.94237374485391" lon="14.696896421378476"><ele>1325.2</ele><time>2026-04-12T10:21:36.999Z</time></trkpt><trkpt lat="40.942450597717794" lon="14.69678751421283"><ele>1322.8000000000002</ele><time>2026-04-12T10:21:38.999Z</time></trkpt><trkpt lat="40.94253695663871" lon="14.69675125307337"><ele>1320.4</ele><time>2026-04-12T10:21:40.999Z</time></trkpt><trkpt lat="40.942644400133496" lon="14.696709899481112"><ele>1318.0</ele><time>2026-04-12T10:21:42.999Z</time></trkpt><trkpt lat="40.942698090367365" lon="14.696628034670841"><ele>1318.0</ele><time>2026-04-12T10:21:45.999Z</time></trkpt><trkpt lat="40.94270896045912" lon="14.696544438055087"><ele>1318.0</ele><time>2026-04-12T10:21:47.999Z</time></trkpt><trkpt lat="40.94263982857579" lon="14.696497120284283"><ele>1318.0</ele><time>2026-04-12T10:21:49.999Z</time></trkpt><trkpt lat="40.942518889604216" lon="14.696521094449785"><ele>1318.0</ele><time>2026-04-12T10:21:51.999Z</time></trkpt><trkpt lat="40.94242162278481" lon="14.696546947551765"><ele>1318.0</ele><time>2026-04-12T10:21:52.999Z</time></trkpt><trkpt lat="40.9423365847493" lon="14.696529717977855"><ele>1318.0</ele><time>2026-04-12T10:21:53.999Z</time></trkpt><trkpt lat="40.942247843352895" lon="14.696505033310352"><ele>1318.0</ele><time>2026-04-12T10:21:54.999Z</time></trkpt><trkpt lat="40.94213796441935" lon="14.696458712394499"><ele>1318.0</ele><time>2026-04-12T10:21:55.999Z</time></trkpt><trkpt lat="40.94205468436713" lon="14.696445871930498"><ele>1318.0</ele><time>2026-04-12T10:21:56.999Z</time></trkpt><trkpt lat="40.94195639839062" lon="14.696428956032738"><ele>1318.0</ele><time>2026-04-12T10:21:58Z</time></trkpt><trkpt lat="40.94187976694619" lon="14.696402129730199"><ele>1318.0</ele><time>2026-04-12T10:21:59Z</time></trkpt><trkpt lat="40.94178405552284" lon="14.696371868485581"><ele>1318.0</ele><time>2026-04-12T10:22:01Z</time></trkpt><trkpt lat="40.94172031473353" lon="14.696349291518182"><ele>1318.0</ele><time>2026-04-12T10:22:02Z</time></trkpt><trkpt lat="40.941632159450975" lon="14.696241112521315"><ele>1318.0</ele><time>2026-04-12T10:22:04Z</time></trkpt><trkpt lat="40.94158856667499" lon="14.696144410404825"><ele>1318.0</ele><time>2026-04-12T10:22:05Z</time></trkpt><trkpt lat="40.94154535004078" lon="14.696057475455794"><ele>1318.0</ele><time>2026-04-12T10:22:06Z</time></trkpt><trkpt lat="40.94149586172152" lon="14.69598114824898"><ele>1318.0</ele><time>2026-04-12T10:22:08Z</time></trkpt><trkpt lat="40.941445820999924" lon="14.695923084420246"><ele>1314.5</ele><time>2026-04-12T10:22:09Z</time></trkpt><trkpt lat="40.94141996554364" lon="14.69584225933097"><ele>1311.0</ele><time>2026-04-12T10:22:10Z</time></trkpt><trkpt lat="40.94139917657346" lon="14.69574456663343"><ele>1307.5</ele><time>2026-04-12T10:22:11Z</time></trkpt><trkpt lat="40.94138072134502" lon="14.695627993824171"><ele>1304.0</ele><time>2026-04-12T10:22:12Z</time></trkpt><trkpt lat="40.941338189673615" lon="14.695529605035137"><ele>1300.5</ele><time>2026-04-12T10:22:13Z</time></trkpt><trkpt lat="40.941308902921584" lon="14.695429108579702"><ele>1297.0</ele><time>2026-04-12T10:22:14Z</time></trkpt><trkpt lat="40.94125975249615" lon="14.695345132678066"><ele>1297.0</ele><time>2026-04-12T10:22:15Z</time></trkpt><trkpt lat="40.941220880905014" lon="14.69527904291109"><ele>1297.0</ele><time>2026-04-12T10:22:16Z</time></trkpt><trkpt lat="40.941213775535694" lon="14.695166190739625"><ele>1297.0</ele><time>2026-04-12T10:22:17Z</time></trkpt><trkpt lat="40.941221460391446" lon="14.695051847009799"><ele>1297.0</ele><time>2026-04-12T10:22:18Z</time></trkpt><trkpt lat="40.94124284466131" lon="14.694901818405626"><ele>1297.0</ele><time>2026-04-12T10:22:19Z</time></trkpt><trkpt lat="40.94124129292003" lon="14.694758379000977"><ele>1292.3999999999999</ele><time>2026-04-12T10:22:20Z</time></trkpt><trkpt lat="40.94124679118937" lon="14.694628213108214"><ele>1287.8</ele><time>2026-04-12T10:22:21Z</time></trkpt><trkpt lat="40.94123615500146" lon="14.694475644501761"><ele>1283.2</ele><time>2026-04-12T10:22:22Z</time></trkpt><trkpt lat="40.94121861839825" lon="14.694315001925412"><ele>1278.6</ele><time>2026-04-12T10:22:23Z</time></trkpt><trkpt lat="40.941200815064455" lon="14.6941684589041"><ele>1274.0</ele><time>2026-04-12T10:22:24Z</time></trkpt><trkpt lat="40.941170674906246" lon="14.69402725698496"><ele>1272.3333333333335</ele><time>2026-04-12T10:22:25Z</time></trkpt><trkpt lat="40.94115409089421" lon="14.693928053558588"><ele>1270.6666666666667</ele><time>2026-04-12T10:22:26Z</time></trkpt><trkpt lat="40.9411539946406" lon="14.693841917549378"><ele>1269.0</ele><time>2026-04-12T10:22:27Z</time></trkpt><trkpt lat="40.94113569916508" lon="14.693734283872399"><ele>1267.3333333333333</ele><time>2026-04-12T10:22:28Z</time></trkpt><trkpt lat="40.94111150638585" lon="14.693649178471613"><ele>1265.6666666666665</ele><time>2026-04-12T10:22:29Z</time></trkpt><trkpt lat="40.94108692787574" lon="14.693514860323882"><ele>1264.0</ele><time>2026-04-12T10:22:31Z</time></trkpt><trkpt lat="40.94107392817232" lon="14.693429180112963"><ele>1261.8</ele><time>2026-04-12T10:22:32Z</time></trkpt><trkpt lat="40.94104029388232" lon="14.693354185307511"><ele>1259.6000000000001</ele><time>2026-04-12T10:22:33Z</time></trkpt><trkpt lat="40.94100983238019" lon="14.693280228313343"><ele>1257.4</ele><time>2026-04-12T10:22:34Z</time></trkpt><trkpt lat="40.94096739726301" lon="14.693199458784795"><ele>1255.2</ele><time>2026-04-12T10:22:35Z</time></trkpt><trkpt lat="40.94085581149918" lon="14.693061724845247"><ele>1253.0</ele><time>2026-04-12T10:22:37Z</time></trkpt><trkpt lat="40.94074382694343" lon="14.692980305066266"><ele>1257.1666666666667</ele><time>2026-04-12T10:22:39Z</time></trkpt><trkpt lat="40.940677612077664" lon="14.692939171347426"><ele>1261.3333333333335</ele><time>2026-04-12T10:22:40Z</time></trkpt><trkpt lat="40.94060911126277" lon="14.692915213528185"><ele>1265.5</ele><time>2026-04-12T10:22:41Z</time></trkpt><trkpt lat="40.94053255028279" lon="14.692921064940263"><ele>1269.6666666666667</ele><time>2026-04-12T10:22:42Z</time></trkpt><trkpt lat="40.94045569868757" lon="14.692943038553617"><ele>1273.8333333333333</ele><time>2026-04-12T10:22:43Z</time></trkpt><trkpt lat="40.94036994666795" lon="14.692957419362116"><ele>1278.0</ele><time>2026-04-12T10:22:44Z</time></trkpt><trkpt lat="40.94026625092196" lon="14.692975152284724"><ele>1278.0</ele><time>2026-04-12T10:22:45Z</time></trkpt><trkpt lat="40.94018463413831" lon="14.69300832814004"><ele>1278.0</ele><time>2026-04-12T10:22:46Z</time></trkpt><trkpt lat="40.94008414010088" lon="14.69302050217866"><ele>1278.0</ele><time>2026-04-12T10:22:47Z</time></trkpt><trkpt lat="40.93997531933099" lon="14.693025170992644"><ele>1278.0</ele><time>2026-04-12T10:22:48Z</time></trkpt><trkpt lat="40.93988635642322" lon="14.693058242804165"><ele>1278.0</ele><time>2026-04-12T10:22:49Z</time></trkpt><trkpt lat="40.939789225817414" lon="14.693092991164288"><ele>1276.8333333333333</ele><time>2026-04-12T10:22:50Z</time></trkpt><trkpt lat="40.93970289672957" lon="14.693108357233893"><ele>1275.6666666666667</ele><time>2026-04-12T10:22:51Z</time></trkpt><trkpt lat="40.93963649613322" lon="14.693151022529038"><ele>1274.5</ele><time>2026-04-12T10:22:52Z</time></trkpt><trkpt lat="40.93954322669483" lon="14.693196505627789"><ele>1273.3333333333335</ele><time>2026-04-12T10:22:53Z</time></trkpt><trkpt lat="40.9394801621011" lon="14.693265924997451"><ele>1272.1666666666667</ele><time>2026-04-12T10:22:54Z</time></trkpt><trkpt lat="40.93939355906076" lon="14.69329930504746"><ele>1271.0</ele><time>2026-04-12T10:22:55Z</time></trkpt><trkpt lat="40.93933110981176" lon="14.693349905785906"><ele>1271.0</ele><time>2026-04-12T10:22:56Z</time></trkpt><trkpt lat="40.939249943914874" lon="14.693385552078496"><ele>1271.0</ele><time>2026-04-12T10:22:57Z</time></trkpt><trkpt lat="40.93917622878893" lon="14.6934542136031"><ele>1271.0</ele><time>2026-04-12T10:22:58Z</time></trkpt><trkpt lat="40.939119943172855" lon="14.693505953335494"><ele>1271.0</ele><time>2026-04-12T10:22:59Z</time></trkpt><trkpt lat="40.93906000113732" lon="14.693566724304617"><ele>1271.0</ele><time>2026-04-12T10:23:00Z</time></trkpt><trkpt lat="40.93900159799287" lon="14.69364085494812"><ele>1271.0</ele><time>2026-04-12T10:23:01Z</time></trkpt><trkpt lat="40.93895089195115" lon="14.693722256199365"><ele>1270.3333333333335</ele><time>2026-04-12T10:23:02Z</time></trkpt><trkpt lat="40.93888368066593" lon="14.693788475436483"><ele>1269.6666666666667</ele><time>2026-04-12T10:23:03Z</time></trkpt><trkpt lat="40.93884756085815" lon="14.693862708071808"><ele>1269.0</ele><time>2026-04-12T10:23:04Z</time></trkpt><trkpt lat="40.938774956515786" lon="14.693963689796723"><ele>1268.3333333333333</ele><time>2026-04-12T10:23:06Z</time></trkpt><trkpt lat="40.93872869403398" lon="14.694024352829285"><ele>1267.6666666666665</ele><time>2026-04-12T10:23:08Z</time></trkpt><trkpt lat="40.93870786078024" lon="14.694124898440052"><ele>1267.0</ele><time>2026-04-12T10:23:09.999Z</time></trkpt><trkpt lat="40.938633961048886" lon="14.694082691257075"><ele>1267.0</ele><time>2026-04-12T10:23:12.999Z</time></trkpt><trkpt lat="40.938689077218825" lon="14.693980403550016"><ele>1267.0</ele><time>2026-04-12T10:23:14.999Z</time></trkpt><trkpt lat="40.9387367635021" lon="14.693892091128369"><ele>1267.0</ele><time>2026-04-12T10:23:16.999Z</time></trkpt><trkpt lat="40.93876206514889" lon="14.693782540104749"><ele>1267.0</ele><time>2026-04-12T10:23:18.999Z</time></trkpt><trkpt lat="40.93878716823571" lon="14.693675170035645"><ele>1267.0</ele><time>2026-04-12T10:23:19.999Z</time></trkpt><trkpt lat="40.9388255885911" lon="14.69355343536298"><ele>1267.0</ele><time>2026-04-12T10:23:21.999Z</time></trkpt><trkpt lat="40.9388323890988" lon="14.693462944514597"><ele>1263.0</ele><time>2026-04-12T10:23:22.999Z</time></trkpt><trkpt lat="40.9388455232792" lon="14.693380485164885"><ele>1259.0</ele><time>2026-04-12T10:23:23.999Z</time></trkpt><trkpt lat="40.93889330530209" lon="14.69324810364739"><ele>1255.0</ele><time>2026-04-12T10:23:25.999Z</time></trkpt><trkpt lat="40.938918831392385" lon="14.693103719885361"><ele>1251.0</ele><time>2026-04-12T10:23:27.999Z</time></trkpt><trkpt lat="40.93892186786053" lon="14.69301545966482"><ele>1247.0</ele><time>2026-04-12T10:23:28.999Z</time></trkpt><trkpt lat="40.938943403731336" lon="14.692930306628174"><ele>1243.0</ele><time>2026-04-12T10:23:30.999Z</time></trkpt><trkpt lat="40.938974798720466" lon="14.692817410583515"><ele>1239.1666666666665</ele><time>2026-04-12T10:23:33.999Z</time></trkpt><trkpt lat="40.93902562643946" lon="14.692713536233747"><ele>1235.3333333333333</ele><time>2026-04-12T10:23:37.999Z</time></trkpt><trkpt lat="40.93908082306961" lon="14.69263809973396"><ele>1231.5</ele><time>2026-04-12T10:23:40.999Z</time></trkpt><trkpt lat="40.939109040593586" lon="14.692547288773444"><ele>1227.6666666666667</ele><time>2026-04-12T10:23:42.999Z</time></trkpt><trkpt lat="40.93912519187531" lon="14.692416525167637"><ele>1223.8333333333335</ele><time>2026-04-12T10:23:44.999Z</time></trkpt><trkpt lat="40.939165534827744" lon="14.692342025772176"><ele>1220.0</ele><time>2026-04-12T10:23:46.999Z</time></trkpt><trkpt lat="40.93919411135453" lon="14.6922641366491"><ele>1219.2857142857144</ele><time>2026-04-12T10:23:47.999Z</time></trkpt><trkpt lat="40.93923532024813" lon="14.69216908625263"><ele>1218.5714285714284</ele><time>2026-04-12T10:23:48.999Z</time></trkpt><trkpt lat="40.93925307799087" lon="14.692083994145666"><ele>1217.857142857143</ele><time>2026-04-12T10:23:49.999Z</time></trkpt><trkpt lat="40.93928508422973" lon="14.692003485897208"><ele>1217.1428571428573</ele><time>2026-04-12T10:23:50.999Z</time></trkpt><trkpt lat="40.939318877681885" lon="14.691907432608293"><ele>1216.4285714285716</ele><time>2026-04-12T10:23:51.999Z</time></trkpt><trkpt lat="40.939366262954884" lon="14.691825991771895"><ele>1215.7142857142858</ele><time>2026-04-12T10:23:52.999Z</time></trkpt><trkpt lat="40.939403679556044" lon="14.691753258141198"><ele>1215.0</ele><time>2026-04-12T10:23:53.999Z</time></trkpt><trkpt lat="40.9394431901296" lon="14.691680673886852"><ele>1215.0</ele><time>2026-04-12T10:23:54.999Z</time></trkpt><trkpt lat="40.93950958600831" lon="14.691589822719509"><ele>1215.0</ele><time>2026-04-12T10:23:55.999Z</time></trkpt><trkpt lat="40.93956943249334" lon="14.691508619269758"><ele>1215.0</ele><time>2026-04-12T10:23:56.999Z</time></trkpt><trkpt lat="40.93960640397136" lon="14.691433567408552"><ele>1215.0</ele><time>2026-04-12T10:23:57.999Z</time></trkpt><trkpt lat="40.93966902752721" lon="14.691315267262159"><ele>1215.0</ele><time>2026-04-12T10:23:59.999Z</time></trkpt><trkpt lat="40.93973096183454" lon="14.69123248562532"><ele>1215.0</ele><time>2026-04-12T10:24:00.999Z</time></trkpt><trkpt lat="40.939794944230314" lon="14.6911482776243"><ele>1212.6</ele><time>2026-04-12T10:24:01.999Z</time></trkpt><trkpt lat="40.93986864246092" lon="14.691088442231948"><ele>1210.2</ele><time>2026-04-12T10:24:02.999Z</time></trkpt><trkpt lat="40.939942206802286" lon="14.691008556645079"><ele>1207.8</ele><time>2026-04-12T10:24:04Z</time></trkpt><trkpt lat="40.94001413578685" lon="14.690955873283906"><ele>1205.4</ele><time>2026-04-12T10:24:05Z</time></trkpt><trkpt lat="40.94007779762386" lon="14.69091683145983"><ele>1203.0</ele><time>2026-04-12T10:24:06Z</time></trkpt><trkpt lat="40.940201874355004" lon="14.690857548383226"><ele>1203.0</ele><time>2026-04-12T10:24:08Z</time></trkpt><trkpt lat="40.94027765595224" lon="14.690762638668211"><ele>1203.0</ele><time>2026-04-12T10:24:10Z</time></trkpt><trkpt lat="40.94031149053205" lon="14.690616539260523"><ele>1203.0</ele><time>2026-04-12T10:24:12Z</time></trkpt><trkpt lat="40.94029202095359" lon="14.69047912819941"><ele>1203.0</ele><time>2026-04-12T10:24:14Z</time></trkpt><trkpt lat="40.940239166155756" lon="14.69042387795434"><ele>1203.0</ele><time>2026-04-12T10:24:16Z</time></trkpt><trkpt lat="40.94017758485389" lon="14.690358941089753"><ele>1203.0</ele><time>2026-04-12T10:24:20Z</time></trkpt><trkpt lat="40.94013909425694" lon="14.690262812112204"><ele>1203.0</ele><time>2026-04-12T10:24:23Z</time></trkpt><trkpt lat="40.94005369365139" lon="14.690240849353433"><ele>1203.0</ele><time>2026-04-12T10:24:27Z</time></trkpt><trkpt lat="40.939985928702285" lon="14.69025287695489"><ele>1203.0</ele><time>2026-04-12T10:24:29Z</time></trkpt><trkpt lat="40.93991104592411" lon="14.6902966072763"><ele>1203.0</ele><time>2026-04-12T10:24:31Z</time></trkpt><trkpt lat="40.9398436394935" lon="14.690351392254536"><ele>1203.0</ele><time>2026-04-12T10:24:34Z</time></trkpt><trkpt lat="40.93977633560379" lon="14.6903535589936"><ele>1200.3333333333333</ele><time>2026-04-12T10:24:35Z</time></trkpt><trkpt lat="40.9396806503424" lon="14.690372673345424"><ele>1197.6666666666667</ele><time>2026-04-12T10:24:37Z</time></trkpt><trkpt lat="40.93961815604474" lon="14.690410686903986"><ele>1195.0</ele><time>2026-04-12T10:24:39Z</time></trkpt><trkpt lat="40.939527581753886" lon="14.69043765306813"><ele>1192.3333333333335</ele><time>2026-04-12T10:24:41Z</time></trkpt><trkpt lat="40.93946400297056" lon="14.690456471091869"><ele>1189.6666666666667</ele><time>2026-04-12T10:24:42Z</time></trkpt><trkpt lat="40.93940032875004" lon="14.6904867544194"><ele>1187.0</ele><time>2026-04-12T10:24:43Z</time></trkpt><trkpt lat="40.93932366724592" lon="14.690543404775893"><ele>1187.0</ele><time>2026-04-12T10:24:45Z</time></trkpt><trkpt lat="40.93926364431881" lon="14.690604719551605"><ele>1187.0</ele><time>2026-04-12T10:24:47Z</time></trkpt><trkpt lat="40.93919765325693" lon="14.690679545070669"><ele>1187.0</ele><time>2026-04-12T10:24:49Z</time></trkpt><trkpt lat="40.939099435144016" lon="14.690772176496305"><ele>1187.0</ele><time>2026-04-12T10:24:51Z</time></trkpt><trkpt lat="40.93901554001016" lon="14.690863598021945"><ele>1187.0</ele><time>2026-04-12T10:24:53Z</time></trkpt><trkpt lat="40.93893470031228" lon="14.690914650165544"><ele>1182.0</ele><time>2026-04-12T10:24:55Z</time></trkpt><trkpt lat="40.938859400579226" lon="14.690906008274837"><ele>1177.0</ele><time>2026-04-12T10:24:58Z</time></trkpt><trkpt lat="40.938743813585816" lon="14.690947497424695"><ele>1172.0</ele><time>2026-04-12T10:25:01Z</time></trkpt><trkpt lat="40.938647262661085" lon="14.690969679132955"><ele>1167.0</ele><time>2026-04-12T10:25:04Z</time></trkpt><trkpt lat="40.938580741756006" lon="14.690995501809763"><ele>1162.0</ele><time>2026-04-12T10:25:06Z</time></trkpt><trkpt lat="40.93844164265527" lon="14.691057301769618"><ele>1160.5</ele><time>2026-04-12T10:25:08Z</time></trkpt><trkpt lat="40.93838004278749" lon="14.691133908313825"><ele>1159.0</ele><time>2026-04-12T10:25:09Z</time></trkpt><trkpt lat="40.938312783538116" lon="14.691187122913933"><ele>1157.5</ele><time>2026-04-12T10:25:10Z</time></trkpt><trkpt lat="40.93825945098774" lon="14.691241820971747"><ele>1156.0</ele><time>2026-04-12T10:25:11Z</time></trkpt><trkpt lat="40.93820098324938" lon="14.69132381894819"><ele>1154.5</ele><time>2026-04-12T10:25:12Z</time></trkpt><trkpt lat="40.93813704029504" lon="14.691409029678342"><ele>1153.0</ele><time>2026-04-12T10:25:13Z</time></trkpt><trkpt lat="40.93807347250559" lon="14.691491704715919"><ele>1153.0</ele><time>2026-04-12T10:25:14Z</time></trkpt><trkpt lat="40.93801296973809" lon="14.69156315735675"><ele>1153.0</ele><time>2026-04-12T10:25:15Z</time></trkpt><trkpt lat="40.93789636383145" lon="14.691699575367501"><ele>1153.0</ele><time>2026-04-12T10:25:17Z</time></trkpt><trkpt lat="40.937818146300025" lon="14.691762544995616"><ele>1153.0</ele><time>2026-04-12T10:25:18Z</time></trkpt><trkpt lat="40.93774570333329" lon="14.69181755450661"><ele>1153.0</ele><time>2026-04-12T10:25:19Z</time></trkpt><trkpt lat="40.937664820553614" lon="14.691853306201182"><ele>1153.0</ele><time>2026-04-12T10:25:20Z</time></trkpt><trkpt lat="40.937587854682164" lon="14.69189206826192"><ele>1153.0</ele><time>2026-04-12T10:25:21Z</time></trkpt><trkpt lat="40.93750607962943" lon="14.691930660598217"><ele>1153.0</ele><time>2026-04-12T10:25:21.999Z</time></trkpt><trkpt lat="40.93743565495454" lon="14.691978404089324"><ele>1153.0</ele><time>2026-04-12T10:25:22.999Z</time></trkpt><trkpt lat="40.937380602963785" lon="14.692057087239666"><ele>1153.0</ele><time>2026-04-12T10:25:23.999Z</time></trkpt><trkpt lat="40.93727321688424" lon="14.692199887617422"><ele>1150.5</ele><time>2026-04-12T10:25:25.999Z</time></trkpt><trkpt lat="40.93719465551869" lon="14.692233562501581"><ele>1148.0</ele><time>2026-04-12T10:25:26.999Z</time></trkpt><trkpt lat="40.93711210214207" lon="14.692322234073721"><ele>1145.5</ele><time>2026-04-12T10:25:28.999Z</time></trkpt><trkpt lat="40.937065984824045" lon="14.692389642134534"><ele>1143.0</ele><time>2026-04-12T10:25:29.999Z</time></trkpt><trkpt lat="40.937026300468226" lon="14.69246843522783"><ele>1140.5</ele><time>2026-04-12T10:25:30.999Z</time></trkpt><trkpt lat="40.93699737872577" lon="14.692546676345366"><ele>1138.0</ele><time>2026-04-12T10:25:31.999Z</time></trkpt><trkpt lat="40.93696337949138" lon="14.69262592783222"><ele>1138.0</ele><time>2026-04-12T10:25:33.999Z</time></trkpt><trkpt lat="40.93689401311197" lon="14.692703808515581"><ele>1138.0</ele><time>2026-04-12T10:25:35.999Z</time></trkpt><trkpt lat="40.93684542742112" lon="14.69276210528824"><ele>1138.0</ele><time>2026-04-12T10:25:37.999Z</time></trkpt><trkpt lat="40.936749729654224" lon="14.692805393481587"><ele>1138.0</ele><time>2026-04-12T10:25:39.999Z</time></trkpt><trkpt lat="40.93666640170905" lon="14.692856614258183"><ele>1138.0</ele><time>2026-04-12T10:25:42.999Z</time></trkpt><trkpt lat="40.93657831671216" lon="14.692926204513947"><ele>1133.8333333333333</ele><time>2026-04-12T10:25:45.999Z</time></trkpt><trkpt lat="40.936503064990546" lon="14.692934728643078"><ele>1129.6666666666665</ele><time>2026-04-12T10:25:48.999Z</time></trkpt><trkpt lat="40.936463664929114" lon="14.693060010747047"><ele>1125.5</ele><time>2026-04-12T10:25:49.999Z</time></trkpt><trkpt lat="40.93641913778853" lon="14.693135244683402"><ele>1121.3333333333333</ele><time>2026-04-12T10:25:51.999Z</time></trkpt><trkpt lat="40.93639303494566" lon="14.693256619347217"><ele>1117.1666666666667</ele><time>2026-04-12T10:25:53.999Z</time></trkpt><trkpt lat="40.93631374056352" lon="14.693333319863678"><ele>1113.0</ele><time>2026-04-12T10:25:55.999Z</time></trkpt><trkpt lat="40.93622322025606" lon="14.693364696401101"><ele>1113.0</ele><time>2026-04-12T10:25:57.999Z</time></trkpt><trkpt lat="40.93612295771882" lon="14.693426048541225"><ele>1113.0</ele><time>2026-04-12T10:25:59.999Z</time></trkpt><trkpt lat="40.93603103431765" lon="14.693514285378027"><ele>1113.0</ele><time>2026-04-12T10:26:01.999Z</time></trkpt><trkpt lat="40.935953398993895" lon="14.693628009448616"><ele>1113.0</ele><time>2026-04-12T10:26:03.999Z</time></trkpt><trkpt lat="40.9358668924809" lon="14.69366466041356"><ele>1113.0</ele><time>2026-04-12T10:26:04.999Z</time></trkpt><trkpt lat="40.93578619229638" lon="14.693704398216134"><ele>1108.2</ele><time>2026-04-12T10:26:05.999Z</time></trkpt><trkpt lat="40.935719129747675" lon="14.693743017272235"><ele>1103.4</ele><time>2026-04-12T10:26:06.999Z</time></trkpt><trkpt lat="40.93562804143103" lon="14.69378496070473"><ele>1098.6000000000001</ele><time>2026-04-12T10:26:08.999Z</time></trkpt><trkpt lat="40.935526928248784" lon="14.693803867393932"><ele>1093.8</ele><time>2026-04-12T10:26:11Z</time></trkpt><trkpt lat="40.93543695965781" lon="14.693841627988018"><ele>1089.0</ele><time>2026-04-12T10:26:13Z</time></trkpt><trkpt lat="40.935344300753584" lon="14.693894643055476"><ele>1089.0</ele><time>2026-04-12T10:26:15Z</time></trkpt><trkpt lat="40.93528173005062" lon="14.693972425923938"><ele>1089.0</ele><time>2026-04-12T10:26:18Z</time></trkpt><trkpt lat="40.93520862888578" lon="14.694021731591695"><ele>1089.0</ele><time>2026-04-12T10:26:20Z</time></trkpt><trkpt lat="40.93512784492323" lon="14.694090586077648"><ele>1089.0</ele><time>2026-04-12T10:26:22Z</time></trkpt><trkpt lat="40.935062528655834" lon="14.69411023583306"><ele>1089.0</ele><time>2026-04-12T10:26:23Z</time></trkpt><trkpt lat="40.93500027407741" lon="14.694150060638053"><ele>1089.0</ele><time>2026-04-12T10:26:24Z</time></trkpt><trkpt lat="40.93493184634542" lon="14.69418073792727"><ele>1083.4</ele><time>2026-04-12T10:26:25Z</time></trkpt><trkpt lat="40.9348758032523" lon="14.69422272806277"><ele>1077.8000000000002</ele><time>2026-04-12T10:26:28Z</time></trkpt><trkpt lat="40.93478371390251" lon="14.69425768062832"><ele>1072.1999999999998</ele><time>2026-04-12T10:26:30Z</time></trkpt><trkpt lat="40.93468811164333" lon="14.694249293568737"><ele>1066.6</ele><time>2026-04-12T10:26:32Z</time></trkpt><trkpt lat="40.93459906356751" lon="14.694320809315277"><ele>1061.0</ele><time>2026-04-12T10:26:34Z</time></trkpt><trkpt lat="40.93451822987552" lon="14.694379079936642"><ele>1061.0</ele><time>2026-04-12T10:26:36Z</time></trkpt><trkpt lat="40.93443025700794" lon="14.6944058931864"><ele>1061.0</ele><time>2026-04-12T10:26:38Z</time></trkpt><trkpt lat="40.93433260350881" lon="14.694358169097448"><ele>1061.0</ele><time>2026-04-12T10:26:40Z</time></trkpt><trkpt lat="40.934267917125936" lon="14.694378975966696"><ele>1061.0</ele><time>2026-04-12T10:26:42Z</time></trkpt><trkpt lat="40.934171320072934" lon="14.694322495223387"><ele>1061.0</ele><time>2026-04-12T10:26:44Z</time></trkpt><trkpt lat="40.9340970597313" lon="14.694225575575922"><ele>1058.0</ele><time>2026-04-12T10:26:46Z</time></trkpt><trkpt lat="40.934045044848915" lon="14.694109801709851"><ele>1055.0</ele><time>2026-04-12T10:26:48Z</time></trkpt><trkpt lat="40.93400698024474" lon="14.693993816601141"><ele>1052.0</ele><time>2026-04-12T10:26:50Z</time></trkpt><trkpt lat="40.93397439232846" lon="14.69391988773106"><ele>1049.0</ele><time>2026-04-12T10:26:52Z</time></trkpt><trkpt lat="40.9339623576571" lon="14.693836366460513"><ele>1046.0</ele><time>2026-04-12T10:26:53Z</time></trkpt><trkpt lat="40.93394176156068" lon="14.69375679269873"><ele>1043.0</ele><time>2026-04-12T10:26:54Z</time></trkpt><trkpt lat="40.933892327458686" lon="14.6936622549068"><ele>1041.2</ele><time>2026-04-12T10:26:56Z</time></trkpt><trkpt lat="40.93383937151194" lon="14.693569967682944"><ele>1039.4</ele><time>2026-04-12T10:26:58Z</time></trkpt><trkpt lat="40.933764448286304" lon="14.69341976335748"><ele>1037.6000000000001</ele><time>2026-04-12T10:27:00Z</time></trkpt><trkpt lat="40.93368782318162" lon="14.693350881497855"><ele>1035.8</ele><time>2026-04-12T10:27:02Z</time></trkpt><trkpt lat="40.93358527939592" lon="14.693298211725386"><ele>1034.0</ele><time>2026-04-12T10:27:04Z</time></trkpt><trkpt lat="40.93350401457982" lon="14.693215191792392"><ele>1034.0</ele><time>2026-04-12T10:27:06Z</time></trkpt><trkpt lat="40.93341492021221" lon="14.693141640190419"><ele>1034.0</ele><time>2026-04-12T10:27:08Z</time></trkpt><trkpt lat="40.93333308507509" lon="14.693060195064156"><ele>1034.0</ele><time>2026-04-12T10:27:10Z</time></trkpt><trkpt lat="40.93328404904368" lon="14.693007637750945"><ele>1034.0</ele><time>2026-04-12T10:27:14Z</time></trkpt><trkpt lat="40.93322268515418" lon="14.69296202169805"><ele>1034.0</ele><time>2026-04-12T10:34:55Z</time></trkpt><trkpt lat="40.933129829476044" lon="14.692945442990133"><ele>1034.0</ele><time>2026-04-12T10:35:08Z</time></trkpt><trkpt lat="40.93303044104826" lon="14.692954683323249"><ele>1032.6666666666667</ele><time>2026-04-12T10:35:10Z</time></trkpt><trkpt lat="40.9329122639049" lon="14.692975714619157"><ele>1031.3333333333335</ele><time>2026-04-12T10:35:12Z</time></trkpt><trkpt lat="40.93284643631747" lon="14.69301324553287"><ele>1030.0</ele><time>2026-04-12T10:35:13Z</time></trkpt><trkpt lat="40.93278342480323" lon="14.693064928848981"><ele>1028.6666666666667</ele><time>2026-04-12T10:35:14Z</time></trkpt><trkpt lat="40.93271971393725" lon="14.693132932156306"><ele>1027.3333333333333</ele><time>2026-04-12T10:35:15Z</time></trkpt><trkpt lat="40.93265443646596" lon="14.693215711471561"><ele>1026.0</ele><time>2026-04-12T10:35:16Z</time></trkpt><trkpt lat="40.93255616643697" lon="14.693285755504029"><ele>1024.8</ele><time>2026-04-12T10:35:17Z</time></trkpt><trkpt lat="40.9324834183434" lon="14.69333968287425"><ele>1023.5999999999999</ele><time>2026-04-12T10:35:18Z</time></trkpt><trkpt lat="40.932399463960266" lon="14.693388313851417"><ele>1022.4</ele><time>2026-04-12T10:35:19Z</time></trkpt><trkpt lat="40.93234304469549" lon="14.693460220415423"><ele>1021.2</ele><time>2026-04-12T10:35:20Z</time></trkpt><trkpt lat="40.932217916028094" lon="14.693515457603512"><ele>1020.0</ele><time>2026-04-12T10:35:22Z</time></trkpt><trkpt lat="40.93214250255518" lon="14.693520336866724"><ele>1020.0</ele><time>2026-04-12T10:35:23Z</time></trkpt><trkpt lat="40.93201604650747" lon="14.69347746951843"><ele>1020.0</ele><time>2026-04-12T10:35:25Z</time></trkpt><trkpt lat="40.931946806675704" lon="14.693443499738025"><ele>1020.0</ele><time>2026-04-12T10:35:26Z</time></trkpt><trkpt lat="40.93183194564703" lon="14.693420046530594"><ele>1020.0</ele><time>2026-04-12T10:35:28Z</time></trkpt><trkpt lat="40.93174482222872" lon="14.693435007696904"><ele>1020.0</ele><time>2026-04-12T10:35:29Z</time></trkpt><trkpt lat="40.93167298316798" lon="14.693485727452384"><ele>1019.8</ele><time>2026-04-12T10:35:30Z</time></trkpt><trkpt lat="40.93159593272167" lon="14.693500578815742"><ele>1019.6</ele><time>2026-04-12T10:35:31Z</time></trkpt><trkpt lat="40.931497222682445" lon="14.69354111140052"><ele>1019.4000000000001</ele><time>2026-04-12T10:35:32Z</time></trkpt><trkpt lat="40.931401752271746" lon="14.69359463847368"><ele>1019.2</ele><time>2026-04-12T10:35:33Z</time></trkpt><trkpt lat="40.931314873842936" lon="14.693618790363237"><ele>1019.0</ele><time>2026-04-12T10:35:34Z</time></trkpt><trkpt lat="40.93118605050949" lon="14.69368741583706"><ele>1017.1666666666667</ele><time>2026-04-12T10:35:36Z</time></trkpt><trkpt lat="40.93110551305678" lon="14.693745921551114"><ele>1015.3333333333334</ele><time>2026-04-12T10:35:37Z</time></trkpt><trkpt lat="40.93100952095448" lon="14.693798054247399"><ele>1013.5</ele><time>2026-04-12T10:35:38Z</time></trkpt><trkpt lat="40.93093117283768" lon="14.693806096469226"><ele>1011.6666666666667</ele><time>2026-04-12T10:35:39Z</time></trkpt><trkpt lat="40.93083469201257" lon="14.693836881271592"><ele>1009.8333333333334</ele><time>2026-04-12T10:35:41Z</time></trkpt><trkpt lat="40.930761862447" lon="14.693836046200138"><ele>1008.0</ele><time>2026-04-12T10:35:43Z</time></trkpt><trkpt lat="40.930695753622054" lon="14.693860934204523"><ele>1007.0</ele><time>2026-04-12T10:35:45Z</time></trkpt><trkpt lat="40.93062727213987" lon="14.693878504370051"><ele>1006.0</ele><time>2026-04-12T10:35:47Z</time></trkpt><trkpt lat="40.93056044875402" lon="14.69384356976673"><ele>1005.0</ele><time>2026-04-12T10:35:51Z</time></trkpt><trkpt lat="40.93047474644967" lon="14.693878896664055"><ele>1004.0</ele><time>2026-04-12T10:36:09Z</time></trkpt><trkpt lat="40.93040312700462" lon="14.693878354475817"><ele>1003.0</ele><time>2026-04-12T10:36:13Z</time></trkpt><trkpt lat="40.9303429410686" lon="14.693916386723485"><ele>1002.0</ele><time>2026-04-12T10:36:15Z</time></trkpt><trkpt lat="40.930256173516824" lon="14.69393805883336"><ele>1002.0</ele><time>2026-04-12T10:36:17Z</time></trkpt><trkpt lat="40.930180742260205" lon="14.69395979880435"><ele>1002.0</ele><time>2026-04-12T10:36:19Z</time></trkpt><trkpt lat="40.930067295184166" lon="14.693989521671096"><ele>1002.0</ele><time>2026-04-12T10:36:22Z</time></trkpt><trkpt lat="40.92995411943661" lon="14.694028183776283"><ele>1002.0</ele><time>2026-04-12T10:36:24Z</time></trkpt><trkpt lat="40.9298680338937" lon="14.694034818756075"><ele>1002.0</ele><time>2026-04-12T10:36:26Z</time></trkpt><trkpt lat="40.929781154917606" lon="14.694036031986302"><ele>1001.6666666666666</ele><time>2026-04-12T10:36:28Z</time></trkpt><trkpt lat="40.92971009108992" lon="14.694057830215742"><ele>1001.3333333333333</ele><time>2026-04-12T10:36:29Z</time></trkpt><trkpt lat="40.9296364028003" lon="14.694063942162838"><ele>1001.0</ele><time>2026-04-12T10:36:31Z</time></trkpt><trkpt lat="40.929562362557135" lon="14.694060604261756"><ele>1000.6666666666666</ele><time>2026-04-12T10:36:39Z</time></trkpt><trkpt lat="40.929485815955275" lon="14.694067976537045"><ele>1000.3333333333333</ele><time>2026-04-12T10:36:42Z</time></trkpt><trkpt lat="40.92943082643553" lon="14.694013557825258"><ele>1000.0</ele><time>2026-04-12T10:36:44Z</time></trkpt><trkpt lat="40.929370664346436" lon="14.693920358902117"><ele>999.9999999999999</ele><time>2026-04-12T10:36:46Z</time></trkpt><trkpt lat="40.929336097842494" lon="14.693849768794145"><ele>1000.0</ele><time>2026-04-12T10:36:48Z</time></trkpt><trkpt lat="40.92926183973911" lon="14.693789279803843"><ele>1000.0</ele><time>2026-04-12T10:36:51Z</time></trkpt><trkpt lat="40.92919807957206" lon="14.693732116687816"><ele>1000.0</ele><time>2026-04-12T10:36:53Z</time></trkpt><trkpt lat="40.92914126744368" lon="14.693693015084133"><ele>999.9999999999999</ele><time>2026-04-12T10:36:54Z</time></trkpt><trkpt lat="40.92901564858212" lon="14.693698823196929"><ele>1000.0</ele><time>2026-04-12T10:36:56Z</time></trkpt><trkpt lat="40.92886652968709" lon="14.6937172676961"><ele>998.1666666666666</ele><time>2026-04-12T10:36:58Z</time></trkpt><trkpt lat="40.928779700281005" lon="14.69373186139527"><ele>996.3333333333333</ele><time>2026-04-12T10:36:59Z</time></trkpt><trkpt lat="40.92868446840119" lon="14.69373122889034"><ele>994.5</ele><time>2026-04-12T10:37:00Z</time></trkpt><trkpt lat="40.92859231476233" lon="14.693746887579545"><ele>992.6666666666667</ele><time>2026-04-12T10:37:01Z</time></trkpt><trkpt lat="40.92850276083685" lon="14.693752792360895"><ele>990.8333333333334</ele><time>2026-04-12T10:37:02Z</time></trkpt><trkpt lat="40.92841995240294" lon="14.693749187812637"><ele>989.0</ele><time>2026-04-12T10:37:03Z</time></trkpt><trkpt lat="40.928348774209745" lon="14.693728823916041"><ele>989.0000000000001</ele><time>2026-04-12T10:37:04Z</time></trkpt><trkpt lat="40.92827281475708" lon="14.693696141526353"><ele>989.0</ele><time>2026-04-12T10:37:05Z</time></trkpt><trkpt lat="40.928202572764675" lon="14.693690040650997"><ele>989.0</ele><time>2026-04-12T10:37:06Z</time></trkpt><trkpt lat="40.928110745319934" lon="14.693663098880476"><ele>989.0</ele><time>2026-04-12T10:37:07Z</time></trkpt><trkpt lat="40.92803172765168" lon="14.693600985596525"><ele>989.0000000000001</ele><time>2026-04-12T10:37:08Z</time></trkpt><trkpt lat="40.927962403390396" lon="14.693552601014048"><ele>989.0</ele><time>2026-04-12T10:37:09Z</time></trkpt><trkpt lat="40.92789479197793" lon="14.693494830021358"><ele>989.0000000000001</ele><time>2026-04-12T10:37:10Z</time></trkpt><trkpt lat="40.927815476090494" lon="14.69345578001651"><ele>989.0</ele><time>2026-04-12T10:37:11Z</time></trkpt><trkpt lat="40.92774832903508" lon="14.693439567805884"><ele>989.0</ele><time>2026-04-12T10:37:12Z</time></trkpt><trkpt lat="40.92766126851197" lon="14.693457449481603"><ele>989.0</ele><time>2026-04-12T10:37:13Z</time></trkpt><trkpt lat="40.92757067681598" lon="14.69348480747705"><ele>989.0000000000001</ele><time>2026-04-12T10:37:14Z</time></trkpt><trkpt lat="40.927473076572916" lon="14.693501433345547"><ele>989.0</ele><time>2026-04-12T10:37:15Z</time></trkpt><trkpt lat="40.927385835008124" lon="14.693489228560662"><ele>987.6666666666667</ele><time>2026-04-12T10:37:16Z</time></trkpt><trkpt lat="40.927313698280756" lon="14.693495451978634"><ele>986.3333333333334</ele><time>2026-04-12T10:37:17Z</time></trkpt><trkpt lat="40.927247230320155" lon="14.693482610034918"><ele>985.0</ele><time>2026-04-12T10:37:18Z</time></trkpt><trkpt lat="40.92716447817774" lon="14.693442675789399"><ele>983.6666666666667</ele><time>2026-04-12T10:37:20Z</time></trkpt><trkpt lat="40.92705227381304" lon="14.693401194605704"><ele>982.3333333333334</ele><time>2026-04-12T10:37:22Z</time></trkpt><trkpt lat="40.92698287408392" lon="14.693386309065497"><ele>981.0</ele><time>2026-04-12T10:37:23Z</time></trkpt><trkpt lat="40.926915218249576" lon="14.693368446924788"><ele>981.0</ele><time>2026-04-12T10:37:24Z</time></trkpt><trkpt lat="40.92682801001461" lon="14.693348476711487"><ele>980.9999999999999</ele><time>2026-04-12T10:37:25Z</time></trkpt><trkpt lat="40.92674846132229" lon="14.693315422748686"><ele>980.9999999999999</ele><time>2026-04-12T10:37:26Z</time></trkpt><trkpt lat="40.926674849362186" lon="14.69326017217294"><ele>981.0</ele><time>2026-04-12T10:37:27Z</time></trkpt><trkpt lat="40.92655107126638" lon="14.693181651796206"><ele>981.0</ele><time>2026-04-12T10:37:29Z</time></trkpt><trkpt lat="40.92646414429681" lon="14.693138902794196"><ele>981.4</ele><time>2026-04-12T10:37:30Z</time></trkpt><trkpt lat="40.92637480719358" lon="14.69306585340919"><ele>981.8</ele><time>2026-04-12T10:37:31Z</time></trkpt><trkpt lat="40.926280189064066" lon="14.692981173732207"><ele>982.1999999999999</ele><time>2026-04-12T10:37:32Z</time></trkpt><trkpt lat="40.92621551132644" lon="14.692906107855299"><ele>982.5999999999999</ele><time>2026-04-12T10:37:33Z</time></trkpt><trkpt lat="40.92616750889813" lon="14.692806320254562"><ele>983.0</ele><time>2026-04-12T10:37:34Z</time></trkpt><trkpt lat="40.9261030489121" lon="14.692707346318711"><ele>983.0</ele><time>2026-04-12T10:37:35Z</time></trkpt><trkpt lat="40.92605730493909" lon="14.692634369407573"><ele>983.0</ele><time>2026-04-12T10:37:36Z</time></trkpt><trkpt lat="40.92599052948978" lon="14.692510769753426"><ele>983.0</ele><time>2026-04-12T10:37:38Z</time></trkpt><trkpt lat="40.92593987152075" lon="14.692356486510098"><ele>983.0</ele><time>2026-04-12T10:37:40Z</time></trkpt><trkpt lat="40.92591089356824" lon="14.692281915503255"><ele>983.0</ele><time>2026-04-12T10:37:41Z</time></trkpt><trkpt lat="40.925858868689424" lon="14.692141518886931"><ele>978.3333333333334</ele><time>2026-04-12T10:37:43Z</time></trkpt><trkpt lat="40.92582284289647" lon="14.692062148547372"><ele>973.6666666666667</ele><time>2026-04-12T10:37:44Z</time></trkpt><trkpt lat="40.92575350370699" lon="14.691991966262588"><ele>969.0</ele><time>2026-04-12T10:37:46Z</time></trkpt><trkpt lat="40.92568886288688" lon="14.691967277565137"><ele>964.3333333333333</ele><time>2026-04-12T10:37:49Z</time></trkpt><trkpt lat="40.92565174485368" lon="14.69206969507856"><ele>959.6666666666666</ele><time>2026-04-12T10:37:53Z</time></trkpt><trkpt lat="40.92567459041166" lon="14.692174537500133"><ele>955.0</ele><time>2026-04-12T10:37:55Z</time></trkpt><trkpt lat="40.92571695181356" lon="14.692285386988843"><ele>954.9999999999999</ele><time>2026-04-12T10:37:56Z</time></trkpt><trkpt lat="40.92568460383516" lon="14.692376571144736"><ele>955.0</ele><time>2026-04-12T10:37:57Z</time></trkpt><trkpt lat="40.92570350532748" lon="14.692472863899857"><ele>955.0</ele><time>2026-04-12T10:37:58Z</time></trkpt><trkpt lat="40.92571489405851" lon="14.69263558143637"><ele>955.0</ele><time>2026-04-12T10:37:59.999Z</time></trkpt><trkpt lat="40.92572080857237" lon="14.692722566506694"><ele>954.9999999999999</ele><time>2026-04-12T10:38:00.999Z</time></trkpt><trkpt lat="40.92573760558051" lon="14.692833001903315"><ele>955.0</ele><time>2026-04-12T10:38:01.999Z</time></trkpt><trkpt lat="40.925762379175424" lon="14.69292926991653"><ele>953.2857142857142</ele><time>2026-04-12T10:38:02.999Z</time></trkpt><trkpt lat="40.925785613086774" lon="14.693016325104363"><ele>951.5714285714286</ele><time>2026-04-12T10:38:03.999Z</time></trkpt><trkpt lat="40.92582410617055" lon="14.69311115398633"><ele>949.8571428571429</ele><time>2026-04-12T10:38:04.999Z</time></trkpt><trkpt lat="40.92586207751883" lon="14.693181008638588"><ele>948.1428571428571</ele><time>2026-04-12T10:38:05.999Z</time></trkpt><trkpt lat="40.925900241495036" lon="14.69324872544101"><ele>946.4285714285716</ele><time>2026-04-12T10:38:06.999Z</time></trkpt><trkpt lat="40.92594988631426" lon="14.693315641980195"><ele>944.7142857142858</ele><time>2026-04-12T10:38:07.999Z</time></trkpt><trkpt lat="40.92602249080026" lon="14.693394791228378"><ele>943.0</ele><time>2026-04-12T10:38:09.999Z</time></trkpt><trkpt lat="40.926063744766324" lon="14.693484617036097"><ele>945.0</ele><time>2026-04-12T10:38:15.999Z</time></trkpt><trkpt lat="40.92609084689312" lon="14.693570142176906"><ele>947.0</ele><time>2026-04-12T10:38:16.999Z</time></trkpt><trkpt lat="40.926128263392556" lon="14.693686142190762"><ele>949.0</ele><time>2026-04-12T10:38:18.999Z</time></trkpt><trkpt lat="40.92618790112169" lon="14.693802968903958"><ele>951.0</ele><time>2026-04-12T10:38:20.999Z</time></trkpt><trkpt lat="40.926204855118165" lon="14.693922098631159"><ele>953.0</ele><time>2026-04-12T10:38:22.999Z</time></trkpt><trkpt lat="40.92622769474521" lon="14.694037954476611"><ele>953.0</ele><time>2026-04-12T10:38:24.999Z</time></trkpt><trkpt lat="40.92626210690864" lon="14.694149211181784"><ele>953.0</ele><time>2026-04-12T10:38:26.999Z</time></trkpt><trkpt lat="40.92627267337521" lon="14.694303478982826"><ele>953.0</ele><time>2026-04-12T10:38:28.999Z</time></trkpt><trkpt lat="40.92630915810854" lon="14.6944255265778"><ele>953.0</ele><time>2026-04-12T10:38:30.999Z</time></trkpt><trkpt lat="40.926341547473235" lon="14.694588583115985"><ele>953.0</ele><time>2026-04-12T10:38:32.999Z</time></trkpt><trkpt lat="40.92636577987593" lon="14.694679081125376"><ele>951.3333333333334</ele><time>2026-04-12T10:38:33.999Z</time></trkpt><trkpt lat="40.926380895032935" lon="14.694776004697164"><ele>949.6666666666667</ele><time>2026-04-12T10:38:34.999Z</time></trkpt><trkpt lat="40.92639890817682" lon="14.694874841428323"><ele>948.0</ele><time>2026-04-12T10:38:35.999Z</time></trkpt><trkpt lat="40.92642208389201" lon="14.69498096237769"><ele>946.3333333333333</ele><time>2026-04-12T10:38:36.999Z</time></trkpt><trkpt lat="40.926436694484615" lon="14.695084174555829"><ele>944.6666666666666</ele><time>2026-04-12T10:38:37.999Z</time></trkpt><trkpt lat="40.926448155107195" lon="14.695181033180267"><ele>943.0</ele><time>2026-04-12T10:38:38.999Z</time></trkpt><trkpt lat="40.926461530896624" lon="14.695273447134532"><ele>941.9999999999999</ele><time>2026-04-12T10:38:39.999Z</time></trkpt><trkpt lat="40.92649080861752" lon="14.695357579157301"><ele>941.0</ele><time>2026-04-12T10:38:41.999Z</time></trkpt><trkpt lat="40.92649539738355" lon="14.695459894997564"><ele>940.0</ele><time>2026-04-12T10:38:47Z</time></trkpt><trkpt lat="40.926460353363844" lon="14.695552755548611"><ele>939.0</ele><time>2026-04-12T10:38:50Z</time></trkpt><trkpt lat="40.92643600442563" lon="14.695650873003268"><ele>937.9999999999999</ele><time>2026-04-12T10:38:52Z</time></trkpt><trkpt lat="40.926351979716074" lon="14.695636030394812"><ele>937.0</ele><time>2026-04-12T10:38:54Z</time></trkpt><trkpt lat="40.92629880065162" lon="14.695565098654589"><ele>937.0</ele><time>2026-04-12T10:38:55Z</time></trkpt><trkpt lat="40.92623039114061" lon="14.695469861502955"><ele>937.0</ele><time>2026-04-12T10:38:56Z</time></trkpt><trkpt lat="40.926165049308864" lon="14.695394468580329"><ele>937.0</ele><time>2026-04-12T10:38:57Z</time></trkpt><trkpt lat="40.92611966325979" lon="14.695298135969718"><ele>937.0</ele><time>2026-04-12T10:38:58Z</time></trkpt><trkpt lat="40.925971413417386" lon="14.695334685161873"><ele>937.0</ele><time>2026-04-12T10:38:59Z</time></trkpt><trkpt lat="40.92589073479643" lon="14.695328689823853"><ele>935.2</ele><time>2026-04-12T10:39:00Z</time></trkpt><trkpt lat="40.92581543434566" lon="14.695300806792721"><ele>933.4000000000001</ele><time>2026-04-12T10:39:01Z</time></trkpt><trkpt lat="40.925707869255426" lon="14.695249366223045"><ele>931.5999999999999</ele><time>2026-04-12T10:39:03Z</time></trkpt><trkpt lat="40.92564617721262" lon="14.695224309192614"><ele>929.8</ele><time>2026-04-12T10:39:04Z</time></trkpt><trkpt lat="40.925608281283175" lon="14.695126481101235"><ele>928.0</ele><time>2026-04-12T10:39:08Z</time></trkpt><trkpt lat="40.92547898534443" lon="14.694873127018802"><ele>928.0</ele><time>2026-04-12T10:39:11Z</time></trkpt><trkpt lat="40.92543755208425" lon="14.694788729832542"><ele>928.0</ele><time>2026-04-12T10:39:12.999Z</time></trkpt><trkpt lat="40.925391628649194" lon="14.694684840639583"><ele>928.0</ele><time>2026-04-12T10:39:13.999Z</time></trkpt><trkpt lat="40.9253310455458" lon="14.694563612561442"><ele>928.0</ele><time>2026-04-12T10:39:14.999Z</time></trkpt><trkpt lat="40.92527592917607" lon="14.694448425447264"><ele>928.0</ele><time>2026-04-12T10:39:15.999Z</time></trkpt><trkpt lat="40.92521037177262" lon="14.69432450616727"><ele>928.8</ele><time>2026-04-12T10:39:16.999Z</time></trkpt><trkpt lat="40.92514152416222" lon="14.694201503432598"><ele>929.5999999999999</ele><time>2026-04-12T10:39:17.999Z</time></trkpt><trkpt lat="40.92509265191826" lon="14.694100676115653"><ele>930.4000000000001</ele><time>2026-04-12T10:39:18.999Z</time></trkpt><trkpt lat="40.92506414817325" lon="14.694024176970322"><ele>931.2</ele><time>2026-04-12T10:39:19.999Z</time></trkpt><trkpt lat="40.92503194962738" lon="14.69388750328658"><ele>932.0</ele><time>2026-04-12T10:39:20.999Z</time></trkpt><trkpt lat="40.92497397265218" lon="14.693771018828587"><ele>930.2</ele><time>2026-04-12T10:39:21.999Z</time></trkpt><trkpt lat="40.92493798985277" lon="14.693661426979055"><ele>928.4000000000001</ele><time>2026-04-12T10:39:22.999Z</time></trkpt><trkpt lat="40.9249164189621" lon="14.693526112156434"><ele>926.5999999999999</ele><time>2026-04-12T10:39:23.999Z</time></trkpt><trkpt lat="40.92489188641084" lon="14.693395302984987"><ele>924.8</ele><time>2026-04-12T10:39:24.999Z</time></trkpt><trkpt lat="40.924883564619755" lon="14.693264146037018"><ele>923.0</ele><time>2026-04-12T10:39:25.999Z</time></trkpt><trkpt lat="40.9248740238526" lon="14.693167165825304"><ele>922.3333333333334</ele><time>2026-04-12T10:39:26.999Z</time></trkpt><trkpt lat="40.92485410442646" lon="14.693047836876183"><ele>921.6666666666667</ele><time>2026-04-12T10:39:28.999Z</time></trkpt><trkpt lat="40.92478022548481" lon="14.692941854207575"><ele>921.0</ele><time>2026-04-12T10:39:30.999Z</time></trkpt><trkpt lat="40.92471013044129" lon="14.692940908347396"><ele>920.3333333333333</ele><time>2026-04-12T10:39:33.999Z</time></trkpt><trkpt lat="40.924631434701965" lon="14.692940422438136"><ele>919.6666666666666</ele><time>2026-04-12T10:39:37.999Z</time></trkpt><trkpt lat="40.924551714651514" lon="14.692912379698138"><ele>919.0</ele><time>2026-04-12T10:39:40.999Z</time></trkpt><trkpt lat="40.92447407346378" lon="14.692860711127235"><ele>918.9999999999999</ele><time>2026-04-12T10:39:43.999Z</time></trkpt><trkpt lat="40.924395738268366" lon="14.692817703492695"><ele>919.0</ele><time>2026-04-12T10:39:45.999Z</time></trkpt><trkpt lat="40.92431740396334" lon="14.692738784778447"><ele>919.0</ele><time>2026-04-12T10:39:47.999Z</time></trkpt><trkpt lat="40.92425639158927" lon="14.692677774871424"><ele>919.0</ele><time>2026-04-12T10:39:49.999Z</time></trkpt><trkpt lat="40.92417080612911" lon="14.692609744902837"><ele>918.9999999999999</ele><time>2026-04-12T10:39:51.999Z</time></trkpt><trkpt lat="40.924102581957904" lon="14.692541423807988"><ele>919.0</ele><time>2026-04-12T10:39:53.999Z</time></trkpt><trkpt lat="40.9240636451247" lon="14.692393443658336"><ele>914.4999999999999</ele><time>2026-04-12T10:39:55.999Z</time></trkpt><trkpt lat="40.92403184903801" lon="14.692310368849622"><ele>910.0</ele><time>2026-04-12T10:39:57.999Z</time></trkpt><trkpt lat="40.92400179155707" lon="14.692216466971892"><ele>905.5</ele><time>2026-04-12T10:40:00.999Z</time></trkpt><trkpt lat="40.92396398667322" lon="14.692124859225459"><ele>901.0</ele><time>2026-04-12T10:40:02.999Z</time></trkpt><trkpt lat="40.92394893291327" lon="14.692021847480087"><ele>896.4999999999999</ele><time>2026-04-12T10:40:04.999Z</time></trkpt><trkpt lat="40.92393100911773" lon="14.69192643707458"><ele>892.0</ele><time>2026-04-12T10:40:05.999Z</time></trkpt><trkpt lat="40.92389201252074" lon="14.691838887753375"><ele>890.6666666666666</ele><time>2026-04-12T10:40:07.999Z</time></trkpt><trkpt lat="40.92389592613341" lon="14.691744046413275"><ele>889.3333333333333</ele><time>2026-04-12T10:40:11.999Z</time></trkpt><trkpt lat="40.92388463725055" lon="14.691644042889486"><ele>888.0</ele><time>2026-04-12T10:40:13.999Z</time></trkpt><trkpt lat="40.923878991153394" lon="14.691537465813916"><ele>886.6666666666667</ele><time>2026-04-12T10:40:16.999Z</time></trkpt><trkpt lat="40.923878112537004" lon="14.691445301000094"><ele>885.3333333333334</ele><time>2026-04-12T10:40:18.999Z</time></trkpt><trkpt lat="40.9238526901335" lon="14.691349222127089"><ele>884.0</ele><time>2026-04-12T10:40:20.999Z</time></trkpt><trkpt lat="40.92382002230376" lon="14.691257816799245"><ele>884.0</ele><time>2026-04-12T10:40:23.999Z</time></trkpt><trkpt lat="40.923810330333204" lon="14.69116061609343"><ele>884.0000000000001</ele><time>2026-04-12T10:40:25.999Z</time></trkpt><trkpt lat="40.923740329155756" lon="14.691040929918135"><ele>884.0000000000001</ele><time>2026-04-12T10:40:27.999Z</time></trkpt><trkpt lat="40.92368366059076" lon="14.690936044535094"><ele>884.0</ele><time>2026-04-12T10:40:29.999Z</time></trkpt><trkpt lat="40.92365138199814" lon="14.690830828096473"><ele>884.0</ele><time>2026-04-12T10:40:31.999Z</time></trkpt><trkpt lat="40.92356104616246" lon="14.690761985802707"><ele>883.2857142857143</ele><time>2026-04-12T10:40:34.999Z</time></trkpt><trkpt lat="40.923499191751134" lon="14.690715465674444"><ele>882.5714285714286</ele><time>2026-04-12T10:40:36.999Z</time></trkpt><trkpt lat="40.92346083237315" lon="14.690630986860887"><ele>881.8571428571429</ele><time>2026-04-12T10:40:39.999Z</time></trkpt><trkpt lat="40.9234185639519" lon="14.690565812519264"><ele>881.1428571428571</ele><time>2026-04-12T10:40:41.999Z</time></trkpt><trkpt lat="40.92337875920323" lon="14.690490957985869"><ele>880.4285714285714</ele><time>2026-04-12T10:41:01Z</time></trkpt><trkpt lat="40.923340714405185" lon="14.690400620279052"><ele>879.7142857142858</ele><time>2026-04-12T10:41:04Z</time></trkpt><trkpt lat="40.92335468887498" lon="14.690312750354561"><ele>879.0</ele><time>2026-04-12T10:41:07Z</time></trkpt><trkpt lat="40.92337924017752" lon="14.690213065351575"><ele>877.1666666666666</ele><time>2026-04-12T10:41:09Z</time></trkpt><trkpt lat="40.9233866109765" lon="14.690127494517284"><ele>875.3333333333333</ele><time>2026-04-12T10:41:12Z</time></trkpt><trkpt lat="40.92338333658085" lon="14.689994890426451"><ele>873.5</ele><time>2026-04-12T10:41:15Z</time></trkpt><trkpt lat="40.923412403837425" lon="14.689866930995708"><ele>871.6666666666666</ele><time>2026-04-12T10:41:17Z</time></trkpt><trkpt lat="40.923451625015545" lon="14.689737264383496"><ele>869.8333333333333</ele><time>2026-04-12T10:41:20Z</time></trkpt><trkpt lat="40.92346897040272" lon="14.68965373308417"><ele>868.0</ele><time>2026-04-12T10:41:22Z</time></trkpt><trkpt lat="40.92356062242926" lon="14.689268251402565"><ele>864.8333333333333</ele><time>2026-04-12T10:41:25Z</time></trkpt><trkpt lat="40.92357413756567" lon="14.689169836356578"><ele>861.6666666666666</ele><time>2026-04-12T10:41:26Z</time></trkpt><trkpt lat="40.923593995030075" lon="14.689025244707798"><ele>858.5</ele><time>2026-04-12T10:41:28Z</time></trkpt><trkpt lat="40.923635718429225" lon="14.68893934754549"><ele>855.3333333333333</ele><time>2026-04-12T10:41:30Z</time></trkpt><trkpt lat="40.92367851588468" lon="14.688864293766045"><ele>852.1666666666666</ele><time>2026-04-12T10:42:09.999Z</time></trkpt><trkpt lat="40.92367140258641" lon="14.688771065522234"><ele>849.0</ele><time>2026-04-12T10:42:38.999Z</time></trkpt><trkpt lat="40.92367490178924" lon="14.688657088773613"><ele>846.5714285714287</ele><time>2026-04-12T10:42:52.999Z</time></trkpt><trkpt lat="40.92370859853794" lon="14.68858289695398"><ele>844.1428571428571</ele><time>2026-04-12T10:42:56.999Z</time></trkpt><trkpt lat="40.923722951673824" lon="14.688493874392218"><ele>841.7142857142858</ele><time>2026-04-12T10:43:00Z</time></trkpt><trkpt lat="40.92371089850987" lon="14.688400673240762"><ele>839.2857142857143</ele><time>2026-04-12T10:43:02Z</time></trkpt><trkpt lat="40.92371140291741" lon="14.688315258387124"><ele>836.8571428571429</ele><time>2026-04-12T10:43:04Z</time></trkpt><trkpt lat="40.923701414377135" lon="14.688216876919721"><ele>834.4285714285714</ele><time>2026-04-12T10:43:08Z</time></trkpt><trkpt lat="40.92374903747184" lon="14.68815403944209"><ele>832.0</ele><time>2026-04-12T10:43:11Z</time></trkpt><trkpt lat="40.9237889064996" lon="14.68805861622891"><ele>831.9999999999999</ele><time>2026-04-12T10:43:14Z</time></trkpt><trkpt lat="40.92380574860094" lon="14.68797056596916"><ele>832.0</ele><time>2026-04-12T10:43:16Z</time></trkpt><trkpt lat="40.92382749646424" lon="14.687875228257347"><ele>832.0</ele><time>2026-04-12T10:43:18Z</time></trkpt><trkpt lat="40.92386757099056" lon="14.68779796741348"><ele>832.0</ele><time>2026-04-12T10:43:20Z</time></trkpt><trkpt lat="40.92388557953262" lon="14.687686591453112"><ele>831.9999999999999</ele><time>2026-04-12T10:43:23Z</time></trkpt><trkpt lat="40.923897832289825" lon="14.687561902613545"><ele>832.0</ele><time>2026-04-12T10:43:26Z</time></trkpt><trkpt lat="40.923931961756466" lon="14.68745375646167"><ele>826.0</ele><time>2026-04-12T10:43:29Z</time></trkpt><trkpt lat="40.9239486999861" lon="14.687371099600487"><ele>820.0</ele><time>2026-04-12T10:43:31Z</time></trkpt><trkpt lat="40.923971796733674" lon="14.68726908682425"><ele>814.0</ele><time>2026-04-12T10:43:34Z</time></trkpt><trkpt lat="40.92405970144742" lon="14.686560488562588"><ele>811.3333333333333</ele><time>2026-04-12T10:43:37Z</time></trkpt><trkpt lat="40.92407555396518" lon="14.686461687522598"><ele>808.6666666666666</ele><time>2026-04-12T10:43:39Z</time></trkpt><trkpt lat="40.92410472531408" lon="14.686337164473816"><ele>806.0</ele><time>2026-04-12T10:43:42Z</time></trkpt><trkpt lat="40.924107827171305" lon="14.686239512187859"><ele>803.3333333333333</ele><time>2026-04-12T10:43:44Z</time></trkpt><trkpt lat="40.924092491596795" lon="14.68614498254522"><ele>800.6666666666666</ele><time>2026-04-12T10:43:46Z</time></trkpt><trkpt lat="40.924098595407315" lon="14.686052894093935"><ele>798.0</ele><time>2026-04-12T10:43:48Z</time></trkpt><trkpt lat="40.924111550524415" lon="14.685952120858449"><ele>795.0</ele><time>2026-04-12T10:43:50Z</time></trkpt><trkpt lat="40.92412066885384" lon="14.68585193839033"><ele>792.0</ele><time>2026-04-12T10:43:53Z</time></trkpt><trkpt lat="40.92413222145646" lon="14.685739668895597"><ele>789.0</ele><time>2026-04-12T10:43:55Z</time></trkpt><trkpt lat="40.924117298447904" lon="14.68561446218704"><ele>786.0</ele><time>2026-04-12T10:43:57Z</time></trkpt><trkpt lat="40.92414905201754" lon="14.685484434345378"><ele>783.0</ele><time>2026-04-12T10:44:01Z</time></trkpt><trkpt lat="40.92413432377543" lon="14.685374548723765"><ele>780.0</ele><time>2026-04-12T10:44:03Z</time></trkpt><trkpt lat="40.92414606988035" lon="14.685262214293973"><ele>776.8333333333334</ele><time>2026-04-12T10:44:05Z</time></trkpt><trkpt lat="40.924191875754694" lon="14.685169046737713"><ele>773.6666666666666</ele><time>2026-04-12T10:44:07Z</time></trkpt><trkpt lat="40.92420517611483" lon="14.685065728967563"><ele>770.5</ele><time>2026-04-12T10:44:17.999Z</time></trkpt><trkpt lat="40.92420332617288" lon="14.684977679270679"><ele>767.3333333333333</ele><time>2026-04-12T10:44:22.999Z</time></trkpt><trkpt lat="40.924164253695466" lon="14.684873540258177"><ele>764.1666666666666</ele><time>2026-04-12T10:44:25.999Z</time></trkpt><trkpt lat="40.92413666492306" lon="14.684767187560045"><ele>761.0</ele><time>2026-04-12T10:44:27.999Z</time></trkpt><trkpt lat="40.92411532860191" lon="14.684678397731307"><ele>760.9999999999999</ele><time>2026-04-12T10:44:31.999Z</time></trkpt><trkpt lat="40.924112316207186" lon="14.684581713387155"><ele>761.0</ele><time>2026-04-12T10:44:57.999Z</time></trkpt><trkpt lat="40.92411036106246" lon="14.684479918845067"><ele>761.0</ele><time>2026-04-12T10:45:02.999Z</time></trkpt><trkpt lat="40.92413984125549" lon="14.684397489718789"><ele>761.0</ele><time>2026-04-12T10:45:06Z</time></trkpt><trkpt lat="40.92413538385094" lon="14.684312667027113"><ele>761.0</ele><time>2026-04-12T10:45:11Z</time></trkpt><trkpt lat="40.92414701611056" lon="14.684226567403206"><ele>760.9999999999999</ele><time>2026-04-12T10:45:18Z</time></trkpt><trkpt lat="40.92412524119611" lon="14.684130145477589"><ele>761.0</ele><time>2026-04-12T10:45:22Z</time></trkpt><trkpt lat="40.92410567803203" lon="14.684035042351214"><ele>758.1999999999999</ele><time>2026-04-12T10:45:25Z</time></trkpt><trkpt lat="40.924104416176114" lon="14.683939730508238"><ele>755.4</ele><time>2026-04-12T10:45:27Z</time></trkpt><trkpt lat="40.92410991315925" lon="14.683849424554767"><ele>752.6</ele><time>2026-04-12T10:45:29Z</time></trkpt><trkpt lat="40.92415044772471" lon="14.683733402516147"><ele>749.8</ele><time>2026-04-12T10:45:31Z</time></trkpt><trkpt lat="40.924205393542074" lon="14.683601384688263"><ele>747.0</ele><time>2026-04-12T10:45:33Z</time></trkpt><trkpt lat="40.924186929444744" lon="14.68344500456503"><ele>745.0</ele><time>2026-04-12T10:45:36Z</time></trkpt><trkpt lat="40.924163014896244" lon="14.683356381126975"><ele>743.0</ele><time>2026-04-12T10:45:37Z</time></trkpt><trkpt lat="40.92414291710524" lon="14.68326403371747"><ele>741.0</ele><time>2026-04-12T10:45:38Z</time></trkpt><trkpt lat="40.924122734031165" lon="14.683117286742922"><ele>739.0</ele><time>2026-04-12T10:45:40Z</time></trkpt><trkpt lat="40.92411644088847" lon="14.68302625949138"><ele>737.0</ele><time>2026-04-12T10:45:42Z</time></trkpt><trkpt lat="40.92412850644167" lon="14.682934410938811"><ele>735.0</ele><time>2026-04-12T10:45:49Z</time></trkpt><trkpt lat="40.92416166735155" lon="14.682854201085112"><ele>733.5</ele><time>2026-04-12T10:45:57Z</time></trkpt><trkpt lat="40.924145526833534" lon="14.682717604615178"><ele>732.0</ele><time>2026-04-12T10:45:59Z</time></trkpt><trkpt lat="40.92412789408345" lon="14.682614168623425"><ele>730.5</ele><time>2026-04-12T10:46:00Z</time></trkpt><trkpt lat="40.9241015475314" lon="14.682489088515458"><ele>729.0</ele><time>2026-04-12T10:46:02Z</time></trkpt><trkpt lat="40.9240843460501" lon="14.68240524689082"><ele>727.5</ele><time>2026-04-12T10:46:06Z</time></trkpt><trkpt lat="40.92407188158578" lon="14.682292670444127"><ele>726.0</ele><time>2026-04-12T10:46:08Z</time></trkpt><trkpt lat="40.92406368998522" lon="14.682199421062501"><ele>726.0</ele><time>2026-04-12T10:46:09Z</time></trkpt><trkpt lat="40.92404977471815" lon="14.68204963387849"><ele>726.0</ele><time>2026-04-12T10:46:11Z</time></trkpt><trkpt lat="40.92405369656037" lon="14.681951437457563"><ele>726.0</ele><time>2026-04-12T10:46:13Z</time></trkpt><trkpt lat="40.92406328482171" lon="14.681866747113947"><ele>726.0</ele><time>2026-04-12T10:46:16Z</time></trkpt><trkpt lat="40.924099896449434" lon="14.681716045487912"><ele>726.0</ele><time>2026-04-12T10:46:18Z</time></trkpt><trkpt lat="40.924143495921356" lon="14.681589606551276"><ele>725.0</ele><time>2026-04-12T10:46:20Z</time></trkpt><trkpt lat="40.9241635351728" lon="14.681488824205028"><ele>724.0</ele><time>2026-04-12T10:46:22Z</time></trkpt><trkpt lat="40.924209296848744" lon="14.681380290504405"><ele>723.0</ele><time>2026-04-12T10:46:24Z</time></trkpt><trkpt lat="40.92426898350249" lon="14.681313069264839"><ele>722.0</ele><time>2026-04-12T10:46:26Z</time></trkpt><trkpt lat="40.9243215904445" lon="14.681193833147049"><ele>721.0</ele><time>2026-04-12T10:46:28Z</time></trkpt><trkpt lat="40.92440193643701" lon="14.681121401391053"><ele>716.1999999999999</ele><time>2026-04-12T10:46:30Z</time></trkpt><trkpt lat="40.92450035684218" lon="14.681038706653036"><ele>711.4</ele><time>2026-04-12T10:46:32Z</time></trkpt><trkpt lat="40.92457588054949" lon="14.680961482000406"><ele>706.6</ele><time>2026-04-12T10:46:34Z</time></trkpt><trkpt lat="40.92463329151971" lon="14.680906060453005"><ele>701.8</ele><time>2026-04-12T10:46:37Z</time></trkpt><trkpt lat="40.92471249795233" lon="14.680816943674746"><ele>697.0</ele><time>2026-04-12T10:46:40Z</time></trkpt><trkpt lat="40.9247592652534" lon="14.680739820039006"><ele>697.0</ele><time>2026-04-12T10:46:42Z</time></trkpt><trkpt lat="40.924920570383804" lon="14.680289337582135"><ele>697.0</ele><time>2026-04-12T10:46:45Z</time></trkpt><trkpt lat="40.92493670456986" lon="14.68020034247961"><ele>697.0</ele><time>2026-04-12T10:46:46Z</time></trkpt><trkpt lat="40.924951263590295" lon="14.68011449663424"><ele>695.1666666666667</ele><time>2026-04-12T10:46:47Z</time></trkpt><trkpt lat="40.9249672882678" lon="14.680021740040456"><ele>693.3333333333334</ele><time>2026-04-12T10:46:48Z</time></trkpt><trkpt lat="40.924978939409904" lon="14.67993454531603"><ele>691.5</ele><time>2026-04-12T10:46:49Z</time></trkpt><trkpt lat="40.924993389246936" lon="14.679779292374885"><ele>689.6666666666666</ele><time>2026-04-12T10:46:51Z</time></trkpt><trkpt lat="40.92499646585163" lon="14.679693993986072"><ele>687.8333333333333</ele><time>2026-04-12T10:46:52Z</time></trkpt><trkpt lat="40.92497484991551" lon="14.67957313680145"><ele>686.0</ele><time>2026-04-12T10:46:54Z</time></trkpt><trkpt lat="40.924913479621026" lon="14.679491217697702"><ele>685.3333333333333</ele><time>2026-04-12T10:46:57Z</time></trkpt><trkpt lat="40.92493828869053" lon="14.679409740173396"><ele>684.6666666666666</ele><time>2026-04-12T10:47:52Z</time></trkpt><trkpt lat="40.924973230112066" lon="14.679328796075255"><ele>684.0</ele><time>2026-04-12T10:47:54Z</time></trkpt><trkpt lat="40.92506775193116" lon="14.679312387367698"><ele>683.3333333333334</ele><time>2026-04-12T10:47:56Z</time></trkpt><trkpt lat="40.92517152166105" lon="14.679319472920916"><ele>682.6666666666667</ele><time>2026-04-12T10:47:58Z</time></trkpt><trkpt lat="40.92524119508988" lon="14.67932565131827"><ele>682.0</ele><time>2026-04-12T10:47:59Z</time></trkpt><trkpt lat="40.92534433404098" lon="14.67936854824852"><ele>681.5</ele><time>2026-04-12T10:48:01Z</time></trkpt><trkpt lat="40.92541457933412" lon="14.679407365838724"><ele>681.0</ele><time>2026-04-12T10:48:03Z</time></trkpt><trkpt lat="40.925478683193816" lon="14.679446852997401"><ele>680.5</ele><time>2026-04-12T10:48:04Z</time></trkpt><trkpt lat="40.925557480465855" lon="14.679479607451995"><ele>680.0</ele><time>2026-04-12T10:48:05Z</time></trkpt><trkpt lat="40.9256254664097" lon="14.67949081992853"><ele>679.5</ele><time>2026-04-12T10:48:06Z</time></trkpt><trkpt lat="40.92572356344948" lon="14.679556092355623"><ele>679.0</ele><time>2026-04-12T10:48:08Z</time></trkpt><trkpt lat="40.92578265409116" lon="14.679596838059924"><ele>678.4000000000001</ele><time>2026-04-12T10:48:09Z</time></trkpt><trkpt lat="40.92584430644158" lon="14.679616009458703"><ele>677.8</ele><time>2026-04-12T10:48:10Z</time></trkpt><trkpt lat="40.925926407971964" lon="14.679534751492385"><ele>677.2</ele><time>2026-04-12T10:48:13Z</time></trkpt><trkpt lat="40.92594935429182" lon="14.67942563101185"><ele>676.5999999999999</ele><time>2026-04-12T10:48:14Z</time></trkpt><trkpt lat="40.92600571051208" lon="14.67925990968655"><ele>676.0</ele><time>2026-04-12T10:48:16Z</time></trkpt><trkpt lat="40.92604775639825" lon="14.679185827627533"><ele>676.0</ele><time>2026-04-12T10:48:17Z</time></trkpt><trkpt lat="40.9261733374091" lon="14.679172673640366"><ele>676.0</ele><time>2026-04-12T10:48:20Z</time></trkpt><trkpt lat="40.926286384937505" lon="14.679170481011372"><ele>676.0</ele><time>2026-04-12T10:48:21Z</time></trkpt><trkpt lat="40.92638576658689" lon="14.679202266687627"><ele>676.0</ele><time>2026-04-12T10:48:22Z</time></trkpt><trkpt lat="40.92649467265624" lon="14.679203535479962"><ele>676.0</ele><time>2026-04-12T10:48:23Z</time></trkpt><trkpt lat="40.92656144876779" lon="14.679180301669582"><ele>676.0</ele><time>2026-04-12T10:48:24Z</time></trkpt><trkpt lat="40.92669591822238" lon="14.679199540480461"><ele>676.0</ele><time>2026-04-12T10:48:26Z</time></trkpt><trkpt lat="40.92677617863207" lon="14.679209866545763"><ele>676.0</ele><time>2026-04-12T10:48:27Z</time></trkpt><trkpt lat="40.926866359412145" lon="14.679186079891084"><ele>676.0</ele><time>2026-04-12T10:48:28Z</time></trkpt><trkpt lat="40.92696797428548" lon="14.679180132074764"><ele>676.8333333333334</ele><time>2026-04-12T10:48:29Z</time></trkpt><trkpt lat="40.927069079826616" lon="14.679187916208145"><ele>677.6666666666667</ele><time>2026-04-12T10:48:30Z</time></trkpt><trkpt lat="40.92715473090048" lon="14.679175605850055"><ele>678.5</ele><time>2026-04-12T10:48:31Z</time></trkpt><trkpt lat="40.927237450742744" lon="14.679167970586347"><ele>679.3333333333334</ele><time>2026-04-12T10:48:32Z</time></trkpt><trkpt lat="40.92732814000154" lon="14.679163693692036"><ele>680.1666666666666</ele><time>2026-04-12T10:48:33Z</time></trkpt><trkpt lat="40.927408512680664" lon="14.67916862106639"><ele>681.0</ele><time>2026-04-12T10:48:34Z</time></trkpt><trkpt lat="40.927474099905474" lon="14.679185813836266"><ele>681.0</ele><time>2026-04-12T10:48:35Z</time></trkpt><trkpt lat="40.92753161779577" lon="14.679220860884575"><ele>681.0</ele><time>2026-04-12T10:48:36Z</time></trkpt><trkpt lat="40.92757671975095" lon="14.67933925526841"><ele>681.0</ele><time>2026-04-12T10:48:38Z</time></trkpt><trkpt lat="40.92766897592741" lon="14.67938695824159"><ele>681.0</ele><time>2026-04-12T10:48:40Z</time></trkpt><trkpt lat="40.9277621960483" lon="14.679423209970455"><ele>681.0</ele><time>2026-04-12T10:48:42Z</time></trkpt><trkpt lat="40.92781403282959" lon="14.679478643624453"><ele>681.0</ele><time>2026-04-12T10:48:43Z</time></trkpt><trkpt lat="40.92787308463571" lon="14.679533926498328"><ele>682.8333333333334</ele><time>2026-04-12T10:48:44Z</time></trkpt><trkpt lat="40.927944764254825" lon="14.679575177099482"><ele>684.6666666666666</ele><time>2026-04-12T10:48:45Z</time></trkpt><trkpt lat="40.928011063163964" lon="14.679577783445158"><ele>686.5</ele><time>2026-04-12T10:48:46Z</time></trkpt><trkpt lat="40.92810159412836" lon="14.67954097469123"><ele>688.3333333333333</ele><time>2026-04-12T10:48:48Z</time></trkpt><trkpt lat="40.92813579647459" lon="14.679417969505444"><ele>690.1666666666666</ele><time>2026-04-12T10:48:50Z</time></trkpt><trkpt lat="40.92813511708226" lon="14.679316373489046"><ele>692.0</ele><time>2026-04-12T10:48:51Z</time></trkpt><trkpt lat="40.92812987903766" lon="14.679175884037843"><ele>692.0</ele><time>2026-04-12T10:48:52Z</time></trkpt><trkpt lat="40.92812592067482" lon="14.679048181491382"><ele>692.0</ele><time>2026-04-12T10:48:53Z</time></trkpt><trkpt lat="40.928129396479825" lon="14.678936217978316"><ele>692.0</ele><time>2026-04-12T10:48:54Z</time></trkpt><trkpt lat="40.92816524721334" lon="14.678745658189293"><ele>692.0</ele><time>2026-04-12T10:48:56Z</time></trkpt><trkpt lat="40.92819769366284" lon="14.678642973990241"><ele>692.0</ele><time>2026-04-12T10:48:57Z</time></trkpt><trkpt lat="40.92826160630779" lon="14.678549038068871"><ele>692.0</ele><time>2026-04-12T10:48:58Z</time></trkpt><trkpt lat="40.92834075194654" lon="14.678456044737674"><ele>692.0</ele><time>2026-04-12T10:48:59Z</time></trkpt><trkpt lat="40.92843229092836" lon="14.678377428843453"><ele>692.0</ele><time>2026-04-12T10:49:00Z</time></trkpt><trkpt lat="40.92850005330184" lon="14.678309635841979"><ele>692.0</ele><time>2026-04-12T10:49:01Z</time></trkpt><trkpt lat="40.9285642973524" lon="14.678277592850138"><ele>692.0</ele><time>2026-04-12T10:49:02Z</time></trkpt><trkpt lat="40.92864381121683" lon="14.67827947998784"><ele>692.0</ele><time>2026-04-12T10:49:03Z</time></trkpt><trkpt lat="40.928715803376086" lon="14.678303191786968"><ele>692.0</ele><time>2026-04-12T10:49:04Z</time></trkpt><trkpt lat="40.92880035166686" lon="14.678351984752883"><ele>692.0</ele><time>2026-04-12T10:49:05Z</time></trkpt><trkpt lat="40.92887330231766" lon="14.678401109357308"><ele>692.0</ele><time>2026-04-12T10:49:06Z</time></trkpt><trkpt lat="40.92894388340339" lon="14.678436183989552"><ele>692.0</ele><time>2026-04-12T10:49:07Z</time></trkpt><trkpt lat="40.92902883396779" lon="14.678441225438823"><ele>692.0</ele><time>2026-04-12T10:49:08Z</time></trkpt><trkpt lat="40.92910499204267" lon="14.678417881074758"><ele>692.0</ele><time>2026-04-12T10:49:09Z</time></trkpt><trkpt lat="40.929187401764544" lon="14.678365729658099"><ele>695.4000000000001</ele><time>2026-04-12T10:49:10Z</time></trkpt><trkpt lat="40.92927890707548" lon="14.678305100849316"><ele>698.8000000000001</ele><time>2026-04-12T10:49:11Z</time></trkpt><trkpt lat="40.92935881162922" lon="14.678286488884924"><ele>702.2</ele><time>2026-04-12T10:49:12Z</time></trkpt><trkpt lat="40.929451705241114" lon="14.67828158887772"><ele>705.6</ele><time>2026-04-12T10:49:13Z</time></trkpt><trkpt lat="40.92955305484102" lon="14.678257473317865"><ele>709.0</ele><time>2026-04-12T10:49:14Z</time></trkpt><trkpt lat="40.92964420641801" lon="14.678274737972176"><ele>709.0</ele><time>2026-04-12T10:49:15Z</time></trkpt><trkpt lat="40.92975980293927" lon="14.67830993572939"><ele>709.0</ele><time>2026-04-12T10:49:17Z</time></trkpt><trkpt lat="40.92983194212126" lon="14.678293672227555"><ele>709.0</ele><time>2026-04-12T10:49:18Z</time></trkpt><trkpt lat="40.92988653382243" lon="14.678201959887689"><ele>709.0</ele><time>2026-04-12T10:49:20Z</time></trkpt><trkpt lat="40.92984451306983" lon="14.678100241267718"><ele>709.0</ele><time>2026-04-12T10:49:22Z</time></trkpt><trkpt lat="40.92980184691599" lon="14.678029111953498"><ele>709.0</ele><time>2026-04-12T10:49:23Z</time></trkpt><trkpt lat="40.92977245424174" lon="14.677936850147912"><ele>709.0</ele><time>2026-04-12T10:49:24Z</time></trkpt><trkpt lat="40.929735433234825" lon="14.677841690644042"><ele>709.0</ele><time>2026-04-12T10:49:25Z</time></trkpt><trkpt lat="40.929696040422115" lon="14.677694936203913"><ele>709.0</ele><time>2026-04-12T10:49:27Z</time></trkpt><trkpt lat="40.929697310038" lon="14.67760716587786"><ele>709.0</ele><time>2026-04-12T10:49:28Z</time></trkpt><trkpt lat="40.929694562595614" lon="14.67750736016466"><ele>709.0</ele><time>2026-04-12T10:49:29Z</time></trkpt><trkpt lat="40.929698657515225" lon="14.677397374252466"><ele>709.0</ele><time>2026-04-12T10:49:30Z</time></trkpt><trkpt lat="40.92969485802827" lon="14.67730047907139"><ele>708.2</ele><time>2026-04-12T10:49:31Z</time></trkpt><trkpt lat="40.92970358565131" lon="14.677203061063484"><ele>707.4000000000001</ele><time>2026-04-12T10:49:32Z</time></trkpt><trkpt lat="40.92971526114916" lon="14.677104450073317"><ele>706.6</ele><time>2026-04-12T10:49:33Z</time></trkpt><trkpt lat="40.929765988156056" lon="14.676962491905337"><ele>705.8</ele><time>2026-04-12T10:49:35Z</time></trkpt><trkpt lat="40.929816306260285" lon="14.676886912095604"><ele>705.0</ele><time>2026-04-12T10:49:36Z</time></trkpt><trkpt lat="40.92993206906398" lon="14.6768094704624"><ele>703.8</ele><time>2026-04-12T10:49:38Z</time></trkpt><trkpt lat="40.93000982215071" lon="14.676766232218151"><ele>702.6</ele><time>2026-04-12T10:49:39Z</time></trkpt><trkpt lat="40.93007514280434" lon="14.676727698397885"><ele>701.4000000000001</ele><time>2026-04-12T10:49:40Z</time></trkpt><trkpt lat="40.93020978581519" lon="14.676717096159923"><ele>700.2</ele><time>2026-04-12T10:49:42Z</time></trkpt><trkpt lat="40.93031307189165" lon="14.676721718781518"><ele>699.0</ele><time>2026-04-12T10:49:43Z</time></trkpt><trkpt lat="40.930422826388664" lon="14.676731751033849"><ele>699.0</ele><time>2026-04-12T10:49:44Z</time></trkpt><trkpt lat="40.93050641328181" lon="14.676757438539457"><ele>699.0</ele><time>2026-04-12T10:49:45Z</time></trkpt><trkpt lat="40.93058162656778" lon="14.676777984438901"><ele>699.0</ele><time>2026-04-12T10:49:46Z</time></trkpt><trkpt lat="40.93066778435244" lon="14.67679798030189"><ele>699.0</ele><time>2026-04-12T10:49:47Z</time></trkpt><trkpt lat="40.93075739884208" lon="14.676817343733648"><ele>699.0</ele><time>2026-04-12T10:49:48Z</time></trkpt><trkpt lat="40.93084360659975" lon="14.676852139017921"><ele>699.0</ele><time>2026-04-12T10:49:49Z</time></trkpt><trkpt lat="40.93094863734917" lon="14.676891559048972"><ele>696.8000000000001</ele><time>2026-04-12T10:49:50Z</time></trkpt><trkpt lat="40.93104437415589" lon="14.67692992306399"><ele>694.6</ele><time>2026-04-12T10:49:51Z</time></trkpt><trkpt lat="40.93112401214177" lon="14.676963089547156"><ele>692.4</ele><time>2026-04-12T10:49:52Z</time></trkpt><trkpt lat="40.93124174422072" lon="14.676992347587756"><ele>690.2</ele><time>2026-04-12T10:49:54Z</time></trkpt><trkpt lat="40.93130698390576" lon="14.676995348799089"><ele>688.0</ele><time>2026-04-12T10:49:55Z</time></trkpt><trkpt lat="40.9313879948362" lon="14.676984306592315"><ele>691.0</ele><time>2026-04-12T10:49:56Z</time></trkpt><trkpt lat="40.9314747925774" lon="14.676982005127197"><ele>694.0</ele><time>2026-04-12T10:49:57Z</time></trkpt><trkpt lat="40.931580571469304" lon="14.676991674959332"><ele>697.0</ele><time>2026-04-12T10:49:58Z</time></trkpt><trkpt lat="40.931674245734676" lon="14.676999837742885"><ele>700.0</ele><time>2026-04-12T10:49:59Z</time></trkpt><trkpt lat="40.93176049100608" lon="14.677001704416902"><ele>703.0</ele><time>2026-04-12T10:50:00Z</time></trkpt><trkpt lat="40.93182361001299" lon="14.677016471067747"><ele>706.0</ele><time>2026-04-12T10:50:01Z</time></trkpt><trkpt lat="40.93189069838214" lon="14.677032020448896"><ele>706.0</ele><time>2026-04-12T10:50:02Z</time></trkpt><trkpt lat="40.93196725535312" lon="14.677043719326527"><ele>706.0</ele><time>2026-04-12T10:50:03Z</time></trkpt><trkpt lat="40.93204803367253" lon="14.677044376099323"><ele>706.0</ele><time>2026-04-12T10:50:04Z</time></trkpt><trkpt lat="40.932138832975994" lon="14.677063817890119"><ele>706.0</ele><time>2026-04-12T10:50:06Z</time></trkpt><trkpt lat="40.932212748937886" lon="14.677177610878223"><ele>706.0</ele><time>2026-04-12T10:50:08Z</time></trkpt><trkpt lat="40.93225657367502" lon="14.677288349355843"><ele>706.0</ele><time>2026-04-12T10:50:09Z</time></trkpt><trkpt lat="40.93229317876712" lon="14.677395959625882"><ele>706.0</ele><time>2026-04-12T10:50:10Z</time></trkpt><trkpt lat="40.93236400479645" lon="14.67748788593773"><ele>706.0</ele><time>2026-04-12T10:50:12Z</time></trkpt><trkpt lat="40.93242066737859" lon="14.677524434803935"><ele>706.0</ele><time>2026-04-12T10:50:13Z</time></trkpt><trkpt lat="40.93246269745271" lon="14.67762271271515"><ele>706.0</ele><time>2026-04-12T10:50:15Z</time></trkpt><trkpt lat="40.932573566729644" lon="14.677581990744512"><ele>711.0</ele><time>2026-04-12T10:50:17Z</time></trkpt><trkpt lat="40.93259879965378" lon="14.677498919567887"><ele>716.0</ele><time>2026-04-12T10:50:18Z</time></trkpt><trkpt lat="40.93259665476037" lon="14.677291307988359"><ele>721.0</ele><time>2026-04-12T10:50:20Z</time></trkpt><trkpt lat="40.93258770217268" lon="14.677171868043116"><ele>726.0</ele><time>2026-04-12T10:50:21Z</time></trkpt><trkpt lat="40.93260900002225" lon="14.677049735363173"><ele>731.0</ele><time>2026-04-12T10:50:23Z</time></trkpt><trkpt lat="40.93265977992665" lon="14.676995541089413"><ele>725.5</ele><time>2026-04-12T10:50:29Z</time></trkpt><trkpt lat="40.932764133021664" lon="14.676897204291347"><ele>720.0</ele><time>2026-04-12T10:50:31Z</time></trkpt><trkpt lat="40.93287613333429" lon="14.676858303978548"><ele>714.5</ele><time>2026-04-12T10:50:33Z</time></trkpt><trkpt lat="40.93298120709171" lon="14.676805204124548"><ele>709.0</ele><time>2026-04-12T10:50:35Z</time></trkpt><trkpt lat="40.93307095574052" lon="14.676731619485038"><ele>709.0</ele><time>2026-04-12T10:50:37Z</time></trkpt><trkpt lat="40.9331557654438" lon="14.676659433975558"><ele>709.0</ele><time>2026-04-12T10:50:39Z</time></trkpt><trkpt lat="40.9332187218978" lon="14.67663779830511"><ele>709.0</ele><time>2026-04-12T10:50:40Z</time></trkpt><trkpt lat="40.93330109305355" lon="14.676630406957301"><ele>709.0</ele><time>2026-04-12T10:50:41Z</time></trkpt><trkpt lat="40.933387556578694" lon="14.676605470301212"><ele>709.0</ele><time>2026-04-12T10:50:42Z</time></trkpt><trkpt lat="40.93344461452907" lon="14.676557977901153"><ele>709.0</ele><time>2026-04-12T10:50:43Z</time></trkpt><trkpt lat="40.933502115156806" lon="14.676492468171265"><ele>708.5</ele><time>2026-04-12T10:50:44Z</time></trkpt><trkpt lat="40.933578250791435" lon="14.676443963540017"><ele>708.0</ele><time>2026-04-12T10:50:45Z</time></trkpt><trkpt lat="40.93368202890771" lon="14.676458300213941"><ele>707.5</ele><time>2026-04-12T10:50:47Z</time></trkpt><trkpt lat="40.9337799374988" lon="14.676464797188249"><ele>707.0</ele><time>2026-04-12T10:50:49Z</time></trkpt><trkpt lat="40.93380372974697" lon="14.676360014114088"><ele>706.5</ele><time>2026-04-12T10:50:51Z</time></trkpt><trkpt lat="40.93384752638165" lon="14.676288630322528"><ele>706.0</ele><time>2026-04-12T10:50:55Z</time></trkpt><trkpt lat="40.934130039324266" lon="14.67604064542425"><ele>706.0</ele><time>2026-04-12T10:50:58Z</time></trkpt><trkpt lat="40.93419981873189" lon="14.67598970713002"><ele>706.0</ele><time>2026-04-12T10:50:59Z</time></trkpt><trkpt lat="40.93425441291601" lon="14.675944668188452"><ele>706.0</ele><time>2026-04-12T10:51:00Z</time></trkpt><trkpt lat="40.934283576566386" lon="14.675860771763235"><ele>706.0</ele><time>2026-04-12T10:51:02Z</time></trkpt><trkpt lat="40.93422730112906" lon="14.675772357602835"><ele>706.0</ele><time>2026-04-12T10:51:04Z</time></trkpt><trkpt lat="40.93417296410786" lon="14.675659046637644"><ele>706.0</ele><time>2026-04-12T10:51:06Z</time></trkpt><trkpt lat="40.93413729454824" lon="14.675588097313637"><ele>706.0</ele><time>2026-04-12T10:51:07Z</time></trkpt><trkpt lat="40.93410453884023" lon="14.675508685309907"><ele>706.0</ele><time>2026-04-12T10:51:08Z</time></trkpt><trkpt lat="40.93406203870131" lon="14.675392387923424"><ele>706.0</ele><time>2026-04-12T10:51:10Z</time></trkpt><trkpt lat="40.93412737787259" lon="14.675317978596519"><ele>706.0</ele><time>2026-04-12T10:51:12Z</time></trkpt><trkpt lat="40.93419407627367" lon="14.675277198997435"><ele>706.0</ele><time>2026-04-12T10:51:13Z</time></trkpt><trkpt lat="40.93429409873879" lon="14.675192657200173"><ele>706.0</ele><time>2026-04-12T10:51:14Z</time></trkpt><trkpt lat="40.9343633938054" lon="14.67514552622941"><ele>705.8</ele><time>2026-04-12T10:51:15Z</time></trkpt><trkpt lat="40.93448282016621" lon="14.67514665168142"><ele>705.5999999999999</ele><time>2026-04-12T10:51:17Z</time></trkpt><trkpt lat="40.93457661596578" lon="14.67513164632267"><ele>705.4</ele><time>2026-04-12T10:51:18Z</time></trkpt><trkpt lat="40.934645533160214" lon="14.675102244308073"><ele>705.2</ele><time>2026-04-12T10:51:19Z</time></trkpt><trkpt lat="40.93476035357304" lon="14.675078928087816"><ele>705.0</ele><time>2026-04-12T10:51:21Z</time></trkpt><trkpt lat="40.93483777651518" lon="14.67500304141728"><ele>705.0</ele><time>2026-04-12T10:51:23Z</time></trkpt><trkpt lat="40.93487757322645" lon="14.674899925900935"><ele>705.0</ele><time>2026-04-12T10:51:25Z</time></trkpt><trkpt lat="40.934939123464154" lon="14.674859487599905"><ele>705.0</ele><time>2026-04-12T10:51:27Z</time></trkpt><trkpt lat="40.93488316259965" lon="14.67478872144146"><ele>705.0</ele><time>2026-04-12T10:51:32Z</time></trkpt><trkpt lat="40.93482373495859" lon="14.67483783114443"><ele>705.0</ele><time>2026-04-12T10:51:34Z</time></trkpt><trkpt lat="40.93477501704409" lon="14.674895721816013"><ele>705.0</ele><time>2026-04-12T10:51:35Z</time></trkpt><trkpt lat="40.9346742905997" lon="14.67494328987083"><ele>705.0</ele><time>2026-04-12T10:51:37Z</time></trkpt><trkpt lat="40.93460634968788" lon="14.6749255482703"><ele>705.0</ele><time>2026-04-12T10:51:38Z</time></trkpt><trkpt lat="40.934535965321984" lon="14.674906119994167"><ele>705.0</ele><time>2026-04-12T10:51:39Z</time></trkpt><trkpt lat="40.93441916502733" lon="14.674911376324046"><ele>705.0</ele><time>2026-04-12T10:51:41Z</time></trkpt><trkpt lat="40.934352747953426" lon="14.674939381997651"><ele>705.0</ele><time>2026-04-12T10:51:42Z</time></trkpt><trkpt lat="40.93426550065787" lon="14.674982221001734"><ele>705.0</ele><time>2026-04-12T10:51:43Z</time></trkpt><trkpt lat="40.93419055897906" lon="14.675009114801858"><ele>703.6</ele><time>2026-04-12T10:51:44Z</time></trkpt><trkpt lat="40.93412534316153" lon="14.675025070448504"><ele>702.2</ele><time>2026-04-12T10:51:45Z</time></trkpt><trkpt lat="40.93404911149525" lon="14.675070549725111"><ele>700.8</ele><time>2026-04-12T10:51:46Z</time></trkpt><trkpt lat="40.933963538468014" lon="14.675105481878619"><ele>699.4</ele><time>2026-04-12T10:51:47Z</time></trkpt><trkpt lat="40.93389095999777" lon="14.67514627582634"><ele>698.0</ele><time>2026-04-12T10:51:48Z</time></trkpt><trkpt lat="40.933766757633535" lon="14.67520629335734"><ele>698.0</ele><time>2026-04-12T10:51:50Z</time></trkpt><trkpt lat="40.93365322286042" lon="14.675233130864802"><ele>698.0</ele><time>2026-04-12T10:51:51Z</time></trkpt><trkpt lat="40.933529278551184" lon="14.675305224465403"><ele>698.0</ele><time>2026-04-12T10:51:52Z</time></trkpt><trkpt lat="40.933420215098316" lon="14.675364513842949"><ele>698.0</ele><time>2026-04-12T10:51:53Z</time></trkpt><trkpt lat="40.933301919277596" lon="14.67541340328021"><ele>697.4</ele><time>2026-04-12T10:51:55Z</time></trkpt><trkpt lat="40.93320668493245" lon="14.675463616918403"><ele>696.8</ele><time>2026-04-12T10:51:56Z</time></trkpt><trkpt lat="40.933088898517" lon="14.67551125233609"><ele>696.2</ele><time>2026-04-12T10:51:57Z</time></trkpt><trkpt lat="40.93298892929476" lon="14.675552936031748"><ele>695.6</ele><time>2026-04-12T10:51:58Z</time></trkpt><trkpt lat="40.93289412772143" lon="14.675551533765528"><ele>695.0</ele><time>2026-04-12T10:51:59Z</time></trkpt><trkpt lat="40.93282892829457" lon="14.675591461779122"><ele>695.0</ele><time>2026-04-12T10:52:00Z</time></trkpt><trkpt lat="40.932788990095574" lon="14.675676336748973"><ele>695.0</ele><time>2026-04-12T10:52:01Z</time></trkpt><trkpt lat="40.932742082862156" lon="14.675743593356014"><ele>695.0</ele><time>2026-04-12T10:52:02Z</time></trkpt><trkpt lat="40.93266915488792" lon="14.675792080890318"><ele>695.0</ele><time>2026-04-12T10:52:03Z</time></trkpt><trkpt lat="40.932587138625536" lon="14.675806081773578"><ele>695.0</ele><time>2026-04-12T10:52:04Z</time></trkpt><trkpt lat="40.932503824033496" lon="14.675795338947951"><ele>695.0</ele><time>2026-04-12T10:52:05Z</time></trkpt><trkpt lat="40.93238906362355" lon="14.675804265592436"><ele>694.3333333333333</ele><time>2026-04-12T10:52:06Z</time></trkpt><trkpt lat="40.93227333501249" lon="14.675783367554477"><ele>693.6666666666666</ele><time>2026-04-12T10:52:07Z</time></trkpt><trkpt lat="40.93218534206869" lon="14.675768366545956"><ele>693.0</ele><time>2026-04-12T10:52:08Z</time></trkpt><trkpt lat="40.93212680541432" lon="14.675726207242239"><ele>692.3333333333334</ele><time>2026-04-12T10:52:09Z</time></trkpt><trkpt lat="40.932046469866705" lon="14.675672483012232"><ele>691.6666666666667</ele><time>2026-04-12T10:52:10Z</time></trkpt><trkpt lat="40.931968414892815" lon="14.675621110865164"><ele>691.0</ele><time>2026-04-12T10:52:11Z</time></trkpt><trkpt lat="40.93188261200989" lon="14.675560523279277"><ele>691.0</ele><time>2026-04-12T10:52:12Z</time></trkpt><trkpt lat="40.93180496042828" lon="14.675447872266945"><ele>691.0</ele><time>2026-04-12T10:52:13Z</time></trkpt><trkpt lat="40.93174097479405" lon="14.675368044156205"><ele>691.0</ele><time>2026-04-12T10:52:14Z</time></trkpt><trkpt lat="40.93168683819072" lon="14.675276040854587"><ele>691.0</ele><time>2026-04-12T10:52:15Z</time></trkpt><trkpt lat="40.93163550001696" lon="14.675172012081266"><ele>691.0</ele><time>2026-04-12T10:52:16Z</time></trkpt><trkpt lat="40.9315848316549" lon="14.675093408038391"><ele>691.0</ele><time>2026-04-12T10:52:17Z</time></trkpt><trkpt lat="40.93163861954784" lon="14.675046623083475"><ele>691.0</ele><time>2026-04-12T10:52:25Z</time></trkpt><trkpt lat="40.93169034471661" lon="14.675095450547392"><ele>691.0</ele><time>2026-04-12T10:52:27Z</time></trkpt><trkpt lat="40.93195865074205" lon="14.67529596853973"><ele>691.0</ele><time>2026-04-12T10:52:31Z</time></trkpt><trkpt lat="40.93204254310235" lon="14.675340669096032"><ele>691.0</ele><time>2026-04-12T10:52:32Z</time></trkpt><trkpt lat="40.932116501295624" lon="14.675373834759784"><ele>691.0</ele><time>2026-04-12T10:52:33Z</time></trkpt><trkpt lat="40.932182077941" lon="14.675397861990334"><ele>691.0</ele><time>2026-04-12T10:52:34Z</time></trkpt><trkpt lat="40.93225465221542" lon="14.675417931282773"><ele>691.0</ele><time>2026-04-12T10:52:35Z</time></trkpt><trkpt lat="40.93233799198672" lon="14.675433576847096"><ele>691.0</ele><time>2026-04-12T10:52:36Z</time></trkpt><trkpt lat="40.932424231692174" lon="14.675442402704034"><ele>691.0</ele><time>2026-04-12T10:52:37Z</time></trkpt><trkpt lat="40.93251233801544" lon="14.67544637747922"><ele>691.8</ele><time>2026-04-12T10:52:38Z</time></trkpt><trkpt lat="40.93260025734643" lon="14.67540611311051"><ele>692.5999999999999</ele><time>2026-04-12T10:52:39Z</time></trkpt><trkpt lat="40.932676177366645" lon="14.675360423855963"><ele>693.4</ele><time>2026-04-12T10:52:40Z</time></trkpt><trkpt lat="40.932754585806464" lon="14.675296667020097"><ele>694.2</ele><time>2026-04-12T10:52:41Z</time></trkpt><trkpt lat="40.932834268929355" lon="14.675223615208923"><ele>695.0</ele><time>2026-04-12T10:52:42Z</time></trkpt><trkpt lat="40.9329228759303" lon="14.675142694281423"><ele>697.5</ele><time>2026-04-12T10:52:43Z</time></trkpt><trkpt lat="40.93301128216512" lon="14.675032923469919"><ele>700.0</ele><time>2026-04-12T10:52:44Z</time></trkpt><trkpt lat="40.933103755279895" lon="14.674890478121345"><ele>702.5</ele><time>2026-04-12T10:52:45Z</time></trkpt><trkpt lat="40.933192157996906" lon="14.674755415964276"><ele>705.0</ele><time>2026-04-12T10:52:46Z</time></trkpt><trkpt lat="40.93327665395683" lon="14.674619312022037"><ele>705.0</ele><time>2026-04-12T10:52:47Z</time></trkpt><trkpt lat="40.93336234585886" lon="14.674473841731846"><ele>705.0</ele><time>2026-04-12T10:52:48Z</time></trkpt><trkpt lat="40.93343264312883" lon="14.674414575637815"><ele>705.0</ele><time>2026-04-12T10:52:49Z</time></trkpt><trkpt lat="40.93348690736415" lon="14.674257018315183"><ele>705.0</ele><time>2026-04-12T10:52:50Z</time></trkpt><trkpt lat="40.93353782526726" lon="14.674098636646079"><ele>705.5</ele><time>2026-04-12T10:52:51Z</time></trkpt><trkpt lat="40.93360423481251" lon="14.673903240323733"><ele>706.0</ele><time>2026-04-12T10:52:52Z</time></trkpt><trkpt lat="40.933646146874054" lon="14.673723941209174"><ele>706.5</ele><time>2026-04-12T10:52:53Z</time></trkpt><trkpt lat="40.93368862638343" lon="14.673572054454663"><ele>707.0</ele><time>2026-04-12T10:52:54Z</time></trkpt><trkpt lat="40.93370690450128" lon="14.673437143195747"><ele>710.5</ele><time>2026-04-12T10:52:55Z</time></trkpt><trkpt lat="40.933718883386604" lon="14.673308471080489"><ele>714.0</ele><time>2026-04-12T10:52:56Z</time></trkpt><trkpt lat="40.93372260516809" lon="14.673164806047065"><ele>717.5</ele><time>2026-04-12T10:52:57Z</time></trkpt><trkpt lat="40.93372818071383" lon="14.673003510672634"><ele>721.0</ele><time>2026-04-12T10:52:58Z</time></trkpt><trkpt lat="40.93372167633705" lon="14.672828635150983"><ele>722.0</ele><time>2026-04-12T10:52:59Z</time></trkpt><trkpt lat="40.93372018886992" lon="14.672685071226118"><ele>723.0</ele><time>2026-04-12T10:53:00Z</time></trkpt><trkpt lat="40.93367683467815" lon="14.6725571527805"><ele>724.0</ele><time>2026-04-12T10:53:01Z</time></trkpt><trkpt lat="40.93369093292411" lon="14.672429144769898"><ele>725.0</ele><time>2026-04-12T10:53:03Z</time></trkpt><trkpt lat="40.9337396924231" lon="14.672375095112404"><ele>726.0</ele><time>2026-04-12T10:53:05Z</time></trkpt><trkpt lat="40.9338119443327" lon="14.672409730920574"><ele>726.0</ele><time>2026-04-12T10:53:36Z</time></trkpt><trkpt lat="40.93389159350059" lon="14.672481864167523"><ele>726.0</ele><time>2026-04-12T10:53:38Z</time></trkpt><trkpt lat="40.933942895517035" lon="14.672547712430937"><ele>726.0</ele><time>2026-04-12T10:53:39Z</time></trkpt><trkpt lat="40.93400491928987" lon="14.672591461502881"><ele>726.0</ele><time>2026-04-12T10:53:40Z</time></trkpt><trkpt lat="40.93409983634356" lon="14.672678299923136"><ele>726.0</ele><time>2026-04-12T10:53:42Z</time></trkpt><trkpt lat="40.93415543022081" lon="14.672731077517554"><ele>726.0</ele><time>2026-04-12T10:53:43Z</time></trkpt><trkpt lat="40.93420828603242" lon="14.672789722799807"><ele>725.0</ele><time>2026-04-12T10:53:44Z</time></trkpt><trkpt lat="40.93426036410867" lon="14.672840645918678"><ele>724.0</ele><time>2026-04-12T10:53:45Z</time></trkpt><trkpt lat="40.934330543227844" lon="14.67292321411974"><ele>723.0</ele><time>2026-04-12T10:53:47Z</time></trkpt><trkpt lat="40.934382867737504" lon="14.672973853190523"><ele>722.0</ele><time>2026-04-12T10:53:48Z</time></trkpt><trkpt lat="40.934441213069405" lon="14.673024015574061"><ele>721.0</ele><time>2026-04-12T10:53:49Z</time></trkpt><trkpt lat="40.93450073288464" lon="14.67306091731994"><ele>720.0</ele><time>2026-04-12T10:53:50Z</time></trkpt><trkpt lat="40.9346102914109" lon="14.673148528482217"><ele>720.0</ele><time>2026-04-12T10:53:52Z</time></trkpt><trkpt lat="40.934686898413496" lon="14.673168533641084"><ele>720.0</ele><time>2026-04-12T10:53:53Z</time></trkpt><trkpt lat="40.934758030793574" lon="14.673184806483274"><ele>720.0</ele><time>2026-04-12T10:53:54Z</time></trkpt><trkpt lat="40.934835940053055" lon="14.67320223180662"><ele>720.0</ele><time>2026-04-12T10:53:55Z</time></trkpt><trkpt lat="40.93491108815319" lon="14.673226607754422"><ele>720.0</ele><time>2026-04-12T10:53:56Z</time></trkpt><trkpt lat="40.93498020218089" lon="14.673243104240306"><ele>720.0</ele><time>2026-04-12T10:53:57Z</time></trkpt><trkpt lat="40.9350477844651" lon="14.67324453885156"><ele>720.0</ele><time>2026-04-12T10:53:58Z</time></trkpt><trkpt lat="40.935116591048384" lon="14.673223428615085"><ele>719.4</ele><time>2026-04-12T10:53:59Z</time></trkpt><trkpt lat="40.93518813607008" lon="14.673199041970657"><ele>718.8</ele><time>2026-04-12T10:54:00Z</time></trkpt><trkpt lat="40.93532240252273" lon="14.673179676154588"><ele>718.2</ele><time>2026-04-12T10:54:02Z</time></trkpt><trkpt lat="40.93539300990354" lon="14.673181299999452"><ele>717.6</ele><time>2026-04-12T10:54:03Z</time></trkpt><trkpt lat="40.93550885397755" lon="14.673117369214545"><ele>717.0</ele><time>2026-04-12T10:54:05Z</time></trkpt><trkpt lat="40.93561709341491" lon="14.673111006867627"><ele>717.0</ele><time>2026-04-12T10:54:07Z</time></trkpt><trkpt lat="40.93568863783174" lon="14.673133512107867"><ele>717.0</ele><time>2026-04-12T10:54:13Z</time></trkpt><trkpt lat="40.93574862421035" lon="14.673091237504863"><ele>717.0</ele><time>2026-04-12T10:54:46Z</time></trkpt><trkpt lat="40.93584744956342" lon="14.673111681781736"><ele>717.0</ele><time>2026-04-12T10:54:49Z</time></trkpt><trkpt lat="40.935926660938144" lon="14.673144085031531"><ele>717.0</ele><time>2026-04-12T10:54:50Z</time></trkpt><trkpt lat="40.93601080673814" lon="14.673132799306792"><ele>717.0</ele><time>2026-04-12T10:54:52Z</time></trkpt><trkpt lat="40.936084974140186" lon="14.67298110423626"><ele>716.8333333333334</ele><time>2026-04-12T10:54:54Z</time></trkpt><trkpt lat="40.93613808510782" lon="14.672900000926456"><ele>716.6666666666666</ele><time>2026-04-12T10:54:55Z</time></trkpt><trkpt lat="40.93618411027239" lon="14.672834632894347"><ele>716.5</ele><time>2026-04-12T10:54:56Z</time></trkpt><trkpt lat="40.93623691571378" lon="14.672750710174203"><ele>716.3333333333333</ele><time>2026-04-12T10:54:57Z</time></trkpt><trkpt lat="40.936293250471" lon="14.672656376315482"><ele>716.1666666666666</ele><time>2026-04-12T10:54:58Z</time></trkpt><trkpt lat="40.93634959883838" lon="14.672566345893268"><ele>716.0</ele><time>2026-04-12T10:54:59Z</time></trkpt><trkpt lat="40.93638950605595" lon="14.672495583579616"><ele>716.0</ele><time>2026-04-12T10:55:00Z</time></trkpt><trkpt lat="40.93643387262359" lon="14.672345879225544"><ele>716.0</ele><time>2026-04-12T10:55:02Z</time></trkpt><trkpt lat="40.93644458492329" lon="14.672249884888597"><ele>716.0</ele><time>2026-04-12T10:55:03Z</time></trkpt><trkpt lat="40.93646469828339" lon="14.672155652986918"><ele>716.0</ele><time>2026-04-12T10:55:04Z</time></trkpt><trkpt lat="40.936499895463925" lon="14.672073012853337"><ele>716.0</ele><time>2026-04-12T10:55:05Z</time></trkpt><trkpt lat="40.9365351159423" lon="14.671986641028367"><ele>716.0</ele><time>2026-04-12T10:55:06Z</time></trkpt><trkpt lat="40.93657210128008" lon="14.67190640849973"><ele>716.1999999999999</ele><time>2026-04-12T10:55:07Z</time></trkpt><trkpt lat="40.93661524621246" lon="14.67183016874325"><ele>716.4</ele><time>2026-04-12T10:55:08Z</time></trkpt><trkpt lat="40.936664823142344" lon="14.671723683490384"><ele>716.6</ele><time>2026-04-12T10:55:09Z</time></trkpt><trkpt lat="40.936720651050614" lon="14.671596947371214"><ele>716.8</ele><time>2026-04-12T10:55:10Z</time></trkpt><trkpt lat="40.936776061461885" lon="14.671474903198968"><ele>717.0</ele><time>2026-04-12T10:55:11Z</time></trkpt><trkpt lat="40.936837165194646" lon="14.67136378575437"><ele>717.0</ele><time>2026-04-12T10:55:12Z</time></trkpt><trkpt lat="40.93689418828083" lon="14.671273322589848"><ele>717.0</ele><time>2026-04-12T10:55:13Z</time></trkpt><trkpt lat="40.93695546734983" lon="14.67120984442487"><ele>717.0</ele><time>2026-04-12T10:55:14Z</time></trkpt><trkpt lat="40.9370344282732" lon="14.671179275583832"><ele>717.0</ele><time>2026-04-12T10:55:15Z</time></trkpt><trkpt lat="40.937133144353" lon="14.671134850000042"><ele>717.0</ele><time>2026-04-12T10:55:16Z</time></trkpt><trkpt lat="40.93723207679742" lon="14.671076458347027"><ele>716.4000000000001</ele><time>2026-04-12T10:55:17Z</time></trkpt><trkpt lat="40.93732570980885" lon="14.671029471203786"><ele>715.8000000000001</ele><time>2026-04-12T10:55:18Z</time></trkpt><trkpt lat="40.93743163308426" lon="14.670977528767635"><ele>715.2</ele><time>2026-04-12T10:55:19Z</time></trkpt><trkpt lat="40.93752386594987" lon="14.67095271726377"><ele>714.6</ele><time>2026-04-12T10:55:20Z</time></trkpt><trkpt lat="40.937605549692385" lon="14.670919482415737"><ele>714.0</ele><time>2026-04-12T10:55:21Z</time></trkpt><trkpt lat="40.937672568980496" lon="14.670902037303213"><ele>714.0</ele><time>2026-04-12T10:55:22Z</time></trkpt><trkpt lat="40.93774423751303" lon="14.67091406253351"><ele>714.0</ele><time>2026-04-12T10:55:23Z</time></trkpt><trkpt lat="40.93781513506977" lon="14.670919170928844"><ele>714.0</ele><time>2026-04-12T10:55:24Z</time></trkpt><trkpt lat="40.93789790452007" lon="14.67087782749809"><ele>714.0</ele><time>2026-04-12T10:55:25Z</time></trkpt><trkpt lat="40.93800053126628" lon="14.670835118864542"><ele>714.0</ele><time>2026-04-12T10:55:26Z</time></trkpt><trkpt lat="40.9381100123197" lon="14.670798875874004"><ele>714.0</ele><time>2026-04-12T10:55:27Z</time></trkpt><trkpt lat="40.93821870551467" lon="14.67075611497295"><ele>714.0</ele><time>2026-04-12T10:55:28Z</time></trkpt><trkpt lat="40.93831194583866" lon="14.670729470542508"><ele>714.0</ele><time>2026-04-12T10:55:29Z</time></trkpt><trkpt lat="40.93838089005427" lon="14.670703358125127"><ele>714.0</ele><time>2026-04-12T10:55:30Z</time></trkpt><trkpt lat="40.93846233045074" lon="14.670681813009821"><ele>714.0</ele><time>2026-04-12T10:55:31Z</time></trkpt><trkpt lat="40.93854579087627" lon="14.670652613097552"><ele>713.1666666666666</ele><time>2026-04-12T10:55:32Z</time></trkpt><trkpt lat="40.938611069521045" lon="14.67062480103654"><ele>712.3333333333334</ele><time>2026-04-12T10:55:33.001Z</time></trkpt><trkpt lat="40.93870830739509" lon="14.670562551613394"><ele>711.5</ele><time>2026-04-12T10:55:35.001Z</time></trkpt><trkpt lat="40.93877583272645" lon="14.670521463622013"><ele>710.6666666666667</ele><time>2026-04-12T10:55:37.001Z</time></trkpt><trkpt lat="40.93885673538549" lon="14.670500593815772"><ele>709.8333333333334</ele><time>2026-04-12T10:55:40.001Z</time></trkpt><trkpt lat="40.93893956944805" lon="14.670472368540358"><ele>709.0</ele><time>2026-04-12T10:55:42Z</time></trkpt><trkpt lat="40.939035088099274" lon="14.670431871297392"><ele>709.0</ele><time>2026-04-12T10:55:44Z</time></trkpt><trkpt lat="40.939096119176135" lon="14.670373976237638"><ele>709.0</ele><time>2026-04-12T10:55:46Z</time></trkpt><trkpt lat="40.939165116505166" lon="14.670391323774147"><ele>709.0</ele><time>2026-04-12T10:55:48Z</time></trkpt><trkpt lat="40.9392658500551" lon="14.670461741659581"><ele>709.0</ele><time>2026-04-12T10:55:50Z</time></trkpt><trkpt lat="40.93936452914659" lon="14.670430678789517"><ele>709.0</ele><time>2026-04-12T10:55:53Z</time></trkpt><trkpt lat="40.93938279085837" lon="14.67033839762524"><ele>709.0</ele><time>2026-04-12T10:55:54Z</time></trkpt><trkpt lat="40.93937316428459" lon="14.67025541697674"><ele>711.6</ele><time>2026-04-12T10:55:54.999Z</time></trkpt><trkpt lat="40.93934737286971" lon="14.670178360821026"><ele>714.2</ele><time>2026-04-12T10:55:55.999Z</time></trkpt><trkpt lat="40.93932575204641" lon="14.670035827236163"><ele>716.8000000000001</ele><time>2026-04-12T10:55:57.999Z</time></trkpt><trkpt lat="40.93926647781353" lon="14.6699299924884"><ele>719.4000000000001</ele><time>2026-04-12T10:55:59.999Z</time></trkpt><trkpt lat="40.93924761284078" lon="14.669803291703902"><ele>722.0</ele><time>2026-04-12T10:56:01.999Z</time></trkpt><trkpt lat="40.939280588466296" lon="14.6696371961531"><ele>722.0</ele><time>2026-04-12T10:56:03.999Z</time></trkpt><trkpt lat="40.93929640036584" lon="14.669538325124499"><ele>722.0</ele><time>2026-04-12T10:56:04.999Z</time></trkpt><trkpt lat="40.939306136799324" lon="14.669420042763823"><ele>722.0</ele><time>2026-04-12T10:56:05.999Z</time></trkpt><trkpt lat="40.93931075660615" lon="14.669303814106613"><ele>722.0</ele><time>2026-04-12T10:56:06.999Z</time></trkpt><trkpt lat="40.93931022006223" lon="14.669189311074456"><ele>722.0</ele><time>2026-04-12T10:56:07.999Z</time></trkpt><trkpt lat="40.9393011069745" lon="14.669070287685958"><ele>722.0</ele><time>2026-04-12T10:56:08.999Z</time></trkpt><trkpt lat="40.939261016068755" lon="14.668956051410671"><ele>721.0</ele><time>2026-04-12T10:56:09.999Z</time></trkpt><trkpt lat="40.93924551302466" lon="14.668852438863684"><ele>720.0</ele><time>2026-04-12T10:56:10.999Z</time></trkpt><trkpt lat="40.9392634257142" lon="14.668741154752828"><ele>719.0</ele><time>2026-04-12T10:56:11.999Z</time></trkpt><trkpt lat="40.93926926846178" lon="14.668644273395712"><ele>718.0</ele><time>2026-04-12T10:56:12.999Z</time></trkpt><trkpt lat="40.93928892071489" lon="14.668556192993082"><ele>717.0</ele><time>2026-04-12T10:56:13.999Z</time></trkpt><trkpt lat="40.939310332070036" lon="14.668450088743702"><ele>716.0</ele><time>2026-04-12T10:56:14.999Z</time></trkpt><trkpt lat="40.939318802284056" lon="14.668324270218465"><ele>714.1666666666666</ele><time>2026-04-12T10:56:15.999Z</time></trkpt><trkpt lat="40.939338102889245" lon="14.668204674339252"><ele>712.3333333333333</ele><time>2026-04-12T10:56:16.999Z</time></trkpt><trkpt lat="40.93935176767432" lon="14.668084787507716"><ele>710.5</ele><time>2026-04-12T10:56:17.999Z</time></trkpt><trkpt lat="40.939356899123624" lon="14.667968675498372"><ele>708.6666666666666</ele><time>2026-04-12T10:56:18.999Z</time></trkpt><trkpt lat="40.93935514973415" lon="14.66785690230206"><ele>706.8333333333334</ele><time>2026-04-12T10:56:19.999Z</time></trkpt><trkpt lat="40.93934914409074" lon="14.667738671726234"><ele>705.0</ele><time>2026-04-12T10:56:20.999Z</time></trkpt><trkpt lat="40.939345892947955" lon="14.667618371893594"><ele>702.2</ele><time>2026-04-12T10:56:21.999Z</time></trkpt><trkpt lat="40.93935436310954" lon="14.667509836817706"><ele>699.4</ele><time>2026-04-12T10:56:22.999Z</time></trkpt><trkpt lat="40.93939326510545" lon="14.667410356441046"><ele>696.5999999999999</ele><time>2026-04-12T10:56:23.999Z</time></trkpt><trkpt lat="40.9394543612764" lon="14.667321405388677"><ele>693.8</ele><time>2026-04-12T10:56:24.999Z</time></trkpt><trkpt lat="40.939511462078734" lon="14.667217502405126"><ele>691.0</ele><time>2026-04-12T10:56:25.999Z</time></trkpt><trkpt lat="40.939556730323545" lon="14.667089784464075"><ele>691.0</ele><time>2026-04-12T10:56:26.999Z</time></trkpt><trkpt lat="40.93959317368205" lon="14.666946786364514"><ele>691.0</ele><time>2026-04-12T10:56:27.999Z</time></trkpt><trkpt lat="40.9396225624995" lon="14.666809885849528"><ele>691.0</ele><time>2026-04-12T10:56:28.999Z</time></trkpt><trkpt lat="40.93964335556736" lon="14.66668826942099"><ele>691.0</ele><time>2026-04-12T10:56:29.999Z</time></trkpt><trkpt lat="40.93966630147549" lon="14.666570755951946"><ele>691.0</ele><time>2026-04-12T10:56:30.999Z</time></trkpt><trkpt lat="40.939690312484515" lon="14.666457382012055"><ele>688.0</ele><time>2026-04-12T10:56:31.999Z</time></trkpt><trkpt lat="40.93971545720889" lon="14.66634751492472"><ele>685.0</ele><time>2026-04-12T10:56:32.999Z</time></trkpt><trkpt lat="40.93973227365368" lon="14.666248380481147"><ele>682.0</ele><time>2026-04-12T10:56:33.999Z</time></trkpt><trkpt lat="40.93975141892601" lon="14.66611265218759"><ele>679.0</ele><time>2026-04-12T10:56:35.999Z</time></trkpt><trkpt lat="40.9396688587372" lon="14.666024616705515"><ele>676.0</ele><time>2026-04-12T10:56:37.999Z</time></trkpt><trkpt lat="40.93959389260005" lon="14.666126389168832"><ele>676.0</ele><time>2026-04-12T10:56:38.999Z</time></trkpt><trkpt lat="40.939539967177375" lon="14.666182070661753"><ele>676.0</ele><time>2026-04-12T10:56:39.999Z</time></trkpt><trkpt lat="40.9394687817383" lon="14.666254948851723"><ele>676.0</ele><time>2026-04-12T10:56:41.999Z</time></trkpt><trkpt lat="40.939408092659335" lon="14.666163351471463"><ele>676.0</ele><time>2026-04-12T10:56:44.999Z</time></trkpt><trkpt lat="40.939422140510935" lon="14.666074274856351"><ele>676.0</ele><time>2026-04-12T10:56:45.999Z</time></trkpt><trkpt lat="40.93942928813656" lon="14.665970337166836"><ele>676.0</ele><time>2026-04-12T10:56:46.999Z</time></trkpt><trkpt lat="40.939450871576156" lon="14.665866204178451"><ele>673.4</ele><time>2026-04-12T10:56:47.999Z</time></trkpt><trkpt lat="40.93946271612001" lon="14.665759046688958"><ele>670.8</ele><time>2026-04-12T10:56:48.999Z</time></trkpt><trkpt lat="40.93947453396398" lon="14.66565012497221"><ele>668.1999999999999</ele><time>2026-04-12T10:56:49.999Z</time></trkpt><trkpt lat="40.93949192234488" lon="14.665529380230614"><ele>665.5999999999999</ele><time>2026-04-12T10:56:50.999Z</time></trkpt><trkpt lat="40.93950942413523" lon="14.665398607892747"><ele>663.0</ele><time>2026-04-12T10:56:51.999Z</time></trkpt><trkpt lat="40.939534417497406" lon="14.665265533842918"><ele>659.5</ele><time>2026-04-12T10:56:52.999Z</time></trkpt><trkpt lat="40.939563256827" lon="14.665127792895877"><ele>656.0</ele><time>2026-04-12T10:56:53.999Z</time></trkpt><trkpt lat="40.93960023702867" lon="14.66499303706497"><ele>652.5</ele><time>2026-04-12T10:56:54.999Z</time></trkpt><trkpt lat="40.93963990333375" lon="14.664849196973394"><ele>649.0</ele><time>2026-04-12T10:56:55.999Z</time></trkpt><trkpt lat="40.93967857263763" lon="14.664700678231208"><ele>649.0</ele><time>2026-04-12T10:56:56.999Z</time></trkpt><trkpt lat="40.939714967008776" lon="14.664556514768456"><ele>649.0</ele><time>2026-04-12T10:56:57.999Z</time></trkpt><trkpt lat="40.93974572622314" lon="14.664412853784214"><ele>649.0</ele><time>2026-04-12T10:56:58.999Z</time></trkpt><trkpt lat="40.939782236851215" lon="14.664271149721436"><ele>649.0</ele><time>2026-04-12T10:56:59.999Z</time></trkpt><trkpt lat="40.93982101596609" lon="14.664125266539443"><ele>645.5</ele><time>2026-04-12T10:57:00.999Z</time></trkpt><trkpt lat="40.939851694117706" lon="14.66397635258076"><ele>642.0</ele><time>2026-04-12T10:57:01.999Z</time></trkpt><trkpt lat="40.939875264141676" lon="14.663822404520227"><ele>638.5</ele><time>2026-04-12T10:57:02.999Z</time></trkpt><trkpt lat="40.939900138910815" lon="14.66367147216885"><ele>635.0</ele><time>2026-04-12T10:57:03.999Z</time></trkpt><trkpt lat="40.9399301302448" lon="14.663533524406375"><ele>635.6</ele><time>2026-04-12T10:57:04.999Z</time></trkpt><trkpt lat="40.93998511704992" lon="14.663424406783104"><ele>636.2</ele><time>2026-04-12T10:57:05.999Z</time></trkpt><trkpt lat="40.94001664634953" lon="14.663288914150195"><ele>636.8</ele><time>2026-04-12T10:57:06.999Z</time></trkpt><trkpt lat="40.94007162782695" lon="14.663163680752328"><ele>637.4</ele><time>2026-04-12T10:57:07.999Z</time></trkpt><trkpt lat="40.940126067069926" lon="14.663022821984043"><ele>638.0</ele><time>2026-04-12T10:57:08.999Z</time></trkpt><trkpt lat="40.94017931393669" lon="14.66287463742284"><ele>633.5</ele><time>2026-04-12T10:57:09.999Z</time></trkpt><trkpt lat="40.94022983313084" lon="14.662721375317743"><ele>629.0</ele><time>2026-04-12T10:57:10.999Z</time></trkpt><trkpt lat="40.940273416653625" lon="14.662574616478794"><ele>624.5</ele><time>2026-04-12T10:57:11.999Z</time></trkpt><trkpt lat="40.94031497713961" lon="14.662413461520622"><ele>620.0</ele><time>2026-04-12T10:57:12.999Z</time></trkpt><trkpt lat="40.94035668447255" lon="14.662232128926123"><ele>620.0</ele><time>2026-04-12T10:57:13.999Z</time></trkpt><trkpt lat="40.940393328304864" lon="14.662041543673533"><ele>620.0</ele><time>2026-04-12T10:57:14.999Z</time></trkpt><trkpt lat="40.94044231531037" lon="14.661852408348912"><ele>620.0</ele><time>2026-04-12T10:57:15.999Z</time></trkpt><trkpt lat="40.940492462323945" lon="14.66167439804612"><ele>620.0</ele><time>2026-04-12T10:57:16.999Z</time></trkpt><trkpt lat="40.940538271084506" lon="14.661502210145022"><ele>616.0</ele><time>2026-04-12T10:57:17.999Z</time></trkpt><trkpt lat="40.94059339071468" lon="14.661342576983568"><ele>612.0</ele><time>2026-04-12T10:57:18.999Z</time></trkpt><trkpt lat="40.94066399327907" lon="14.661190662330114"><ele>608.0</ele><time>2026-04-12T10:57:19.999Z</time></trkpt><trkpt lat="40.940735318728436" lon="14.661045163988126"><ele>604.0</ele><time>2026-04-12T10:57:20.999Z</time></trkpt><trkpt lat="40.94080792657971" lon="14.660904106525523"><ele>604.0</ele><time>2026-04-12T10:57:21.999Z</time></trkpt><trkpt lat="40.940875361285244" lon="14.660755972007124"><ele>604.0</ele><time>2026-04-12T10:57:22.999Z</time></trkpt><trkpt lat="40.94093483207809" lon="14.660598986937497"><ele>604.0</ele><time>2026-04-12T10:57:23.999Z</time></trkpt><trkpt lat="40.94098347725908" lon="14.660434603359409"><ele>604.0</ele><time>2026-04-12T10:57:24.999Z</time></trkpt><trkpt lat="40.941020536140456" lon="14.660256253920316"><ele>600.5</ele><time>2026-04-12T10:57:25.999Z</time></trkpt><trkpt lat="40.94106613561326" lon="14.66007233553016"><ele>597.0</ele><time>2026-04-12T10:57:26.999Z</time></trkpt><trkpt lat="40.94111241222375" lon="14.659884125651686"><ele>593.5</ele><time>2026-04-12T10:57:27.999Z</time></trkpt><trkpt lat="40.94115874675759" lon="14.659705693150974"><ele>590.0</ele><time>2026-04-12T10:57:28.999Z</time></trkpt><trkpt lat="40.941197156894795" lon="14.659548917448"><ele>585.25</ele><time>2026-04-12T10:57:29.999Z</time></trkpt><trkpt lat="40.9412407740314" lon="14.659412889036272"><ele>580.5</ele><time>2026-04-12T10:57:30.999Z</time></trkpt><trkpt lat="40.94131572762884" lon="14.659281769746437"><ele>575.75</ele><time>2026-04-12T10:57:31.999Z</time></trkpt><trkpt lat="40.94141418259487" lon="14.659165478389351"><ele>571.0</ele><time>2026-04-12T10:57:32.999Z</time></trkpt><trkpt lat="40.94152195827699" lon="14.659056026088775"><ele>571.0</ele><time>2026-04-12T10:57:33.999Z</time></trkpt><trkpt lat="40.941625769265286" lon="14.658952846614964"><ele>571.0</ele><time>2026-04-12T10:57:34.999Z</time></trkpt><trkpt lat="40.94172073103977" lon="14.658840330923761"><ele>571.0</ele><time>2026-04-12T10:57:35.999Z</time></trkpt><trkpt lat="40.94181486108648" lon="14.65871351001446"><ele>571.0</ele><time>2026-04-12T10:57:36.999Z</time></trkpt><trkpt lat="40.94190713555782" lon="14.65858368019964"><ele>568.2</ele><time>2026-04-12T10:57:37.999Z</time></trkpt><trkpt lat="40.941984292929725" lon="14.658462845128346"><ele>565.4000000000001</ele><time>2026-04-12T10:57:39Z</time></trkpt><trkpt lat="40.942047136556916" lon="14.658346552704774"><ele>562.6</ele><time>2026-04-12T10:57:40Z</time></trkpt><trkpt lat="40.942105138317295" lon="14.658262226371725"><ele>559.8000000000001</ele><time>2026-04-12T10:57:41Z</time></trkpt><trkpt lat="40.94217858824132" lon="14.658212710353125"><ele>557.0</ele><time>2026-04-12T10:57:42Z</time></trkpt><trkpt lat="40.94227532541565" lon="14.65821686090604"><ele>557.0</ele><time>2026-04-12T10:57:43Z</time></trkpt><trkpt lat="40.942383222720736" lon="14.658254282838334"><ele>557.0</ele><time>2026-04-12T10:57:44Z</time></trkpt><trkpt lat="40.94250138341196" lon="14.658323985584834"><ele>557.0</ele><time>2026-04-12T10:57:45Z</time></trkpt><trkpt lat="40.942590270074604" lon="14.658392494846245"><ele>557.0</ele><time>2026-04-12T10:57:46Z</time></trkpt><trkpt lat="40.94266510266984" lon="14.658450601248003"><ele>557.0</ele><time>2026-04-12T10:57:47Z</time></trkpt><trkpt lat="40.94272378929602" lon="14.65850418763556"><ele>560.4</ele><time>2026-04-12T10:57:48Z</time></trkpt><trkpt lat="40.94277806341176" lon="14.658546419744429"><ele>563.8000000000001</ele><time>2026-04-12T10:57:49Z</time></trkpt><trkpt lat="40.94287402818192" lon="14.658534625035335"><ele>567.2</ele><time>2026-04-12T10:57:51Z</time></trkpt><trkpt lat="40.942924601982" lon="14.658463965215928"><ele>570.6</ele><time>2026-04-12T10:57:52Z</time></trkpt><trkpt lat="40.94290445522775" lon="14.658310224759084"><ele>574.0</ele><time>2026-04-12T10:57:53Z</time></trkpt><trkpt lat="40.94283160168529" lon="14.658186667443381"><ele>574.0</ele><time>2026-04-12T10:57:54Z</time></trkpt><trkpt lat="40.942785258271364" lon="14.658067380853117"><ele>574.0</ele><time>2026-04-12T10:57:55Z</time></trkpt><trkpt lat="40.94273865153" lon="14.65793032452541"><ele>574.0</ele><time>2026-04-12T10:57:56Z</time></trkpt><trkpt lat="40.942704030294436" lon="14.657796713492212"><ele>574.0</ele><time>2026-04-12T10:57:57Z</time></trkpt><trkpt lat="40.94267780592259" lon="14.65766677385323"><ele>574.0</ele><time>2026-04-12T10:57:58Z</time></trkpt><trkpt lat="40.94265762515134" lon="14.657544485958496"><ele>572.4</ele><time>2026-04-12T10:57:59Z</time></trkpt><trkpt lat="40.94267474026374" lon="14.657427778381573"><ele>570.8</ele><time>2026-04-12T10:58:00Z</time></trkpt><trkpt lat="40.942696132668075" lon="14.65729838291861"><ele>569.2</ele><time>2026-04-12T10:58:01Z</time></trkpt><trkpt lat="40.942723986867705" lon="14.657173549393658"><ele>567.6</ele><time>2026-04-12T10:58:02Z</time></trkpt><trkpt lat="40.942762587957965" lon="14.657044022979784"><ele>566.0</ele><time>2026-04-12T10:58:03Z</time></trkpt><trkpt lat="40.94278759818162" lon="14.65691896696137"><ele>563.0</ele><time>2026-04-12T10:58:04Z</time></trkpt><trkpt lat="40.942828617587246" lon="14.656811480581952"><ele>560.0</ele><time>2026-04-12T10:58:05Z</time></trkpt><trkpt lat="40.94287343535724" lon="14.6566951183471"><ele>557.0</ele><time>2026-04-12T10:58:06Z</time></trkpt><trkpt lat="40.942934547034" lon="14.656581295287236"><ele>554.0</ele><time>2026-04-12T10:58:07Z</time></trkpt><trkpt lat="40.94299788008327" lon="14.656462390345494"><ele>551.0</ele><time>2026-04-12T10:58:08Z</time></trkpt><trkpt lat="40.943053719728894" lon="14.656334707766886"><ele>551.0</ele><time>2026-04-12T10:58:09Z</time></trkpt><trkpt lat="40.943105828121325" lon="14.65622117072329"><ele>551.0</ele><time>2026-04-12T10:58:10Z</time></trkpt><trkpt lat="40.943154140582855" lon="14.656109523037605"><ele>551.0</ele><time>2026-04-12T10:58:11Z</time></trkpt><trkpt lat="40.94320202142563" lon="14.656005995366794"><ele>551.0</ele><time>2026-04-12T10:58:12Z</time></trkpt><trkpt lat="40.94326162713154" lon="14.655895511807763"><ele>551.0</ele><time>2026-04-12T10:58:13Z</time></trkpt><trkpt lat="40.94332357466173" lon="14.65577787301976"><ele>546.75</ele><time>2026-04-12T10:58:14Z</time></trkpt><trkpt lat="40.94336393585501" lon="14.655633584037453"><ele>542.5</ele><time>2026-04-12T10:58:15Z</time></trkpt><trkpt lat="40.94337161432998" lon="14.65547939516577"><ele>538.25</ele><time>2026-04-12T10:58:16Z</time></trkpt><trkpt lat="40.9433772986681" lon="14.65533153251981"><ele>534.0</ele><time>2026-04-12T10:58:17Z</time></trkpt><trkpt lat="40.94337336010723" lon="14.655192622337122"><ele>537.25</ele><time>2026-04-12T10:58:18Z</time></trkpt><trkpt lat="40.94340567948975" lon="14.655042899807022"><ele>540.5</ele><time>2026-04-12T10:58:19Z</time></trkpt><trkpt lat="40.94344645531006" lon="14.654903954830612"><ele>543.75</ele><time>2026-04-12T10:58:20Z</time></trkpt><trkpt lat="40.943494301267364" lon="14.654752845981834"><ele>547.0</ele><time>2026-04-12T10:58:21Z</time></trkpt><trkpt lat="40.94353623428053" lon="14.654599904832375"><ele>543.5</ele><time>2026-04-12T10:58:22Z</time></trkpt><trkpt lat="40.94358079041975" lon="14.65444112404921"><ele>540.0</ele><time>2026-04-12T10:58:23Z</time></trkpt><trkpt lat="40.94361998834498" lon="14.654273597877824"><ele>536.5</ele><time>2026-04-12T10:58:24Z</time></trkpt><trkpt lat="40.9436642274774" lon="14.654107686688954"><ele>533.0</ele><time>2026-04-12T10:58:25Z</time></trkpt><trkpt lat="40.9437035274635" lon="14.653949957840508"><ele>533.0</ele><time>2026-04-12T10:58:26Z</time></trkpt><trkpt lat="40.943731531034715" lon="14.653787045408897"><ele>533.0</ele><time>2026-04-12T10:58:26.999Z</time></trkpt><trkpt lat="40.94377110604045" lon="14.653620847000244"><ele>533.0</ele><time>2026-04-12T10:58:27.999Z</time></trkpt><trkpt lat="40.94380400709153" lon="14.653442253503043"><ele>533.0</ele><time>2026-04-12T10:58:28.999Z</time></trkpt><trkpt lat="40.943844734243186" lon="14.653256941990639"><ele>528.0</ele><time>2026-04-12T10:58:29.999Z</time></trkpt><trkpt lat="40.94386995590478" lon="14.653070290529847"><ele>523.0</ele><time>2026-04-12T10:58:30.999Z</time></trkpt><trkpt lat="40.94391493966311" lon="14.65286863476232"><ele>518.0</ele><time>2026-04-12T10:58:31.999Z</time></trkpt><trkpt lat="40.943966470306776" lon="14.652660574272325"><ele>511.66666666666663</ele><time>2026-04-12T10:58:32.999Z</time></trkpt><trkpt lat="40.94402652576149" lon="14.652458664610505"><ele>505.33333333333337</ele><time>2026-04-12T10:58:33.999Z</time></trkpt><trkpt lat="40.94408956805082" lon="14.652255372153405"><ele>499.0</ele><time>2026-04-12T10:58:34.999Z</time></trkpt><trkpt lat="40.94415461448931" lon="14.652076668612683"><ele>500.33333333333337</ele><time>2026-04-12T10:58:35.999Z</time></trkpt><trkpt lat="40.944230674386965" lon="14.651899095509396"><ele>501.66666666666663</ele><time>2026-04-12T10:58:36.999Z</time></trkpt><trkpt lat="40.94430097791308" lon="14.6517243203891"><ele>503.0</ele><time>2026-04-12T10:58:37.999Z</time></trkpt><trkpt lat="40.94436958189464" lon="14.651553859156449"><ele>503.0</ele><time>2026-04-12T10:58:38.999Z</time></trkpt><trkpt lat="40.9444119697664" lon="14.651371198028125"><ele>503.0</ele><time>2026-04-12T10:58:39.999Z</time></trkpt><trkpt lat="40.94445186025915" lon="14.651221715554318"><ele>503.0</ele><time>2026-04-12T10:58:40.999Z</time></trkpt><trkpt lat="40.94451011622697" lon="14.651104886376322"><ele>503.0</ele><time>2026-04-12T10:58:41.999Z</time></trkpt><trkpt lat="40.94455912196364" lon="14.650951859329716"><ele>499.0</ele><time>2026-04-12T10:58:43.999Z</time></trkpt><trkpt lat="40.94457483471523" lon="14.650806388454894"><ele>494.99999999999994</ele><time>2026-04-12T10:58:45.999Z</time></trkpt><trkpt lat="40.94443098282803" lon="14.650807310647451"><ele>490.99999999999994</ele><time>2026-04-12T10:58:46.999Z</time></trkpt><trkpt lat="40.94437360842689" lon="14.650886958743774"><ele>487.0</ele><time>2026-04-12T10:58:47.999Z</time></trkpt><trkpt lat="40.944319772298314" lon="14.650930576717851"><ele>483.0</ele><time>2026-04-12T10:58:48.999Z</time></trkpt><trkpt lat="40.94424809034943" lon="14.651007012960726"><ele>483.0</ele><time>2026-04-12T10:58:49.999Z</time></trkpt><trkpt lat="40.944136079545295" lon="14.650991138297458"><ele>482.99999999999994</ele><time>2026-04-12T10:58:51.999Z</time></trkpt><trkpt lat="40.94408213761795" lon="14.650913809227365"><ele>482.99999999999994</ele><time>2026-04-12T10:58:52.999Z</time></trkpt><trkpt lat="40.94417818806661" lon="14.650842391595942"><ele>483.0</ele><time>2026-04-12T10:58:53.999Z</time></trkpt><trkpt lat="40.944204967649064" lon="14.650749467847247"><ele>483.0</ele><time>2026-04-12T10:58:54.999Z</time></trkpt><trkpt lat="40.94423971115748" lon="14.650622334321708"><ele>483.0</ele><time>2026-04-12T10:58:55.999Z</time></trkpt><trkpt lat="40.944274687476444" lon="14.650496487593788"><ele>482.99999999999994</ele><time>2026-04-12T10:58:56.999Z</time></trkpt><trkpt lat="40.94430832921546" lon="14.650380146175822"><ele>482.99999999999994</ele><time>2026-04-12T10:58:57.999Z</time></trkpt><trkpt lat="40.944346564478415" lon="14.650262179810369"><ele>483.0</ele><time>2026-04-12T10:58:58.999Z</time></trkpt><trkpt lat="40.944387974395134" lon="14.650135066449442"><ele>483.0</ele><time>2026-04-12T10:58:59.999Z</time></trkpt><trkpt lat="40.94443078466395" lon="14.6500075774519"><ele>479.4</ele><time>2026-04-12T10:59:00.999Z</time></trkpt><trkpt lat="40.944481390789115" lon="14.64988481309074"><ele>475.79999999999995</ele><time>2026-04-12T10:59:01.999Z</time></trkpt><trkpt lat="40.94453745070741" lon="14.649763234371788"><ele>472.2</ele><time>2026-04-12T10:59:02.999Z</time></trkpt><trkpt lat="40.94461267526989" lon="14.64967342726601"><ele>468.6</ele><time>2026-04-12T10:59:03.999Z</time></trkpt><trkpt lat="40.944691872584784" lon="14.649574891417632"><ele>465.0</ele><time>2026-04-12T10:59:04.999Z</time></trkpt><trkpt lat="40.94477217306144" lon="14.649472703858995"><ele>464.2</ele><time>2026-04-12T10:59:05.999Z</time></trkpt><trkpt lat="40.94485064387765" lon="14.649362317953473"><ele>463.4</ele><time>2026-04-12T10:59:06.999Z</time></trkpt><trkpt lat="40.944925199555726" lon="14.649251267572625"><ele>462.6</ele><time>2026-04-12T10:59:07.999Z</time></trkpt><trkpt lat="40.944994569995565" lon="14.649142663982591"><ele>461.8</ele><time>2026-04-12T10:59:08.999Z</time></trkpt><trkpt lat="40.945060361108496" lon="14.649034415671109"><ele>461.0</ele><time>2026-04-12T10:59:09.999Z</time></trkpt><trkpt lat="40.94512046767328" lon="14.648920474573845"><ele>461.0</ele><time>2026-04-12T10:59:10.999Z</time></trkpt><trkpt lat="40.94515015453202" lon="14.648796814507325"><ele>461.0</ele><time>2026-04-12T10:59:11.999Z</time></trkpt><trkpt lat="40.94520428896761" lon="14.648671121808983"><ele>461.0</ele><time>2026-04-12T10:59:12.999Z</time></trkpt><trkpt lat="40.9452575133625" lon="14.648527902250482"><ele>461.0</ele><time>2026-04-12T10:59:13.999Z</time></trkpt><trkpt lat="40.945334807983684" lon="14.648385008066484"><ele>457.0</ele><time>2026-04-12T10:59:14.999Z</time></trkpt><trkpt lat="40.945436540545955" lon="14.648255491886255"><ele>453.0</ele><time>2026-04-12T10:59:15.999Z</time></trkpt><trkpt lat="40.94552945735744" lon="14.648136609708558"><ele>449.0</ele><time>2026-04-12T10:59:16.999Z</time></trkpt><trkpt lat="40.94561629304168" lon="14.64802067747235"><ele>445.0</ele><time>2026-04-12T10:59:17.999Z</time></trkpt><trkpt lat="40.945698783712444" lon="14.64791514417292"><ele>445.0</ele><time>2026-04-12T10:59:18.999Z</time></trkpt><trkpt lat="40.9457750925824" lon="14.647801442677313"><ele>445.0</ele><time>2026-04-12T10:59:19.999Z</time></trkpt><trkpt lat="40.945851690580774" lon="14.647702994877331"><ele>445.0</ele><time>2026-04-12T10:59:20.999Z</time></trkpt><trkpt lat="40.94592256798715" lon="14.64761233407539"><ele>445.0</ele><time>2026-04-12T10:59:21.999Z</time></trkpt><trkpt lat="40.94598202498699" lon="14.6475341270945"><ele>445.0</ele><time>2026-04-12T10:59:22.999Z</time></trkpt><trkpt lat="40.94603177855005" lon="14.647465378965196"><ele>444.0</ele><time>2026-04-12T10:59:23.999Z</time></trkpt><trkpt lat="40.94605576288835" lon="14.647337670683099"><ele>443.0</ele><time>2026-04-12T10:59:25.999Z</time></trkpt><trkpt lat="40.94599772305755" lon="14.647261398131551"><ele>442.0</ele><time>2026-04-12T10:59:26.999Z</time></trkpt><trkpt lat="40.94591919032104" lon="14.647191819811125"><ele>441.0</ele><time>2026-04-12T10:59:27.999Z</time></trkpt><trkpt lat="40.94580970106427" lon="14.647166256065578"><ele>440.0</ele><time>2026-04-12T10:59:28.999Z</time></trkpt><trkpt lat="40.94569245986692" lon="14.647146449296395"><ele>437.99999999999994</ele><time>2026-04-12T10:59:29.999Z</time></trkpt><trkpt lat="40.94559537409091" lon="14.647112713262352"><ele>436.0</ele><time>2026-04-12T10:59:30.999Z</time></trkpt><trkpt lat="40.94551332258783" lon="14.647080584581232"><ele>434.0</ele><time>2026-04-12T10:59:31.999Z</time></trkpt><trkpt lat="40.94543385946773" lon="14.647058421848689"><ele>432.0</ele><time>2026-04-12T10:59:32.999Z</time></trkpt><trkpt lat="40.94535249281365" lon="14.647040525018168"><ele>429.99999999999994</ele><time>2026-04-12T10:59:33.999Z</time></trkpt><trkpt lat="40.94528624895406" lon="14.647025585833065"><ele>428.0</ele><time>2026-04-12T10:59:34.999Z</time></trkpt><trkpt lat="40.945218736414965" lon="14.646996469893953"><ele>425.3333333333333</ele><time>2026-04-12T10:59:36.999Z</time></trkpt><trkpt lat="40.94519796383845" lon="14.646913497106796"><ele>422.66666666666663</ele><time>2026-04-12T10:59:38.999Z</time></trkpt><trkpt lat="40.9452276754458" lon="14.64682167869566"><ele>420.0</ele><time>2026-04-12T10:59:40.999Z</time></trkpt><trkpt lat="40.945288850058425" lon="14.646743669731757"><ele>417.33333333333337</ele><time>2026-04-12T10:59:42.999Z</time></trkpt><trkpt lat="40.94535845375005" lon="14.646585717404342"><ele>414.6666666666667</ele><time>2026-04-12T10:59:45Z</time></trkpt><trkpt lat="40.94540681019443" lon="14.646500378635281"><ele>412.0</ele><time>2026-04-12T10:59:46Z</time></trkpt><trkpt lat="40.945455482313285" lon="14.646413576100556"><ele>412.0</ele><time>2026-04-12T10:59:47Z</time></trkpt><trkpt lat="40.94550857202491" lon="14.646313730721001"><ele>412.0</ele><time>2026-04-12T10:59:48Z</time></trkpt><trkpt lat="40.94556751216041" lon="14.646205082785057"><ele>412.0</ele><time>2026-04-12T10:59:49Z</time></trkpt><trkpt lat="40.94562893285774" lon="14.646091343928166"><ele>412.0</ele><time>2026-04-12T10:59:50Z</time></trkpt><trkpt lat="40.94569036041796" lon="14.64597217321587"><ele>412.0</ele><time>2026-04-12T10:59:51Z</time></trkpt><trkpt lat="40.945752949867426" lon="14.64585111217281"><ele>410.8</ele><time>2026-04-12T10:59:52Z</time></trkpt><trkpt lat="40.945818560278965" lon="14.64572524489884"><ele>409.6</ele><time>2026-04-12T10:59:53Z</time></trkpt><trkpt lat="40.945886158795176" lon="14.645593932917468"><ele>408.40000000000003</ele><time>2026-04-12T10:59:54Z</time></trkpt><trkpt lat="40.945950785004456" lon="14.645471722061169"><ele>407.20000000000005</ele><time>2026-04-12T10:59:55Z</time></trkpt><trkpt lat="40.946011371772265" lon="14.645383039590742"><ele>406.0</ele><time>2026-04-12T10:59:56Z</time></trkpt><trkpt lat="40.946074024800296" lon="14.645296225023214"><ele>403.4</ele><time>2026-04-12T10:59:57Z</time></trkpt><trkpt lat="40.94614025354047" lon="14.645206034263552"><ele>400.8</ele><time>2026-04-12T10:59:58Z</time></trkpt><trkpt lat="40.94618858131943" lon="14.645104280093301"><ele>398.2</ele><time>2026-04-12T10:59:59Z</time></trkpt><trkpt lat="40.94622504510474" lon="14.64498152816297"><ele>395.59999999999997</ele><time>2026-04-12T11:00:00Z</time></trkpt><trkpt lat="40.94624948325391" lon="14.644837051099765"><ele>393.0</ele><time>2026-04-12T11:00:01Z</time></trkpt><trkpt lat="40.946268222393655" lon="14.644684064655241"><ele>393.0</ele><time>2026-04-12T11:00:02Z</time></trkpt><trkpt lat="40.94627199665631" lon="14.644527332257248"><ele>393.0</ele><time>2026-04-12T11:00:03Z</time></trkpt><trkpt lat="40.94626896283107" lon="14.644361429739343"><ele>393.0</ele><time>2026-04-12T11:00:04Z</time></trkpt><trkpt lat="40.946259677937164" lon="14.644182195841557"><ele>393.0</ele><time>2026-04-12T11:00:05Z</time></trkpt><trkpt lat="40.946244339509484" lon="14.644002697398479"><ele>390.0</ele><time>2026-04-12T11:00:06Z</time></trkpt><trkpt lat="40.94623208204346" lon="14.643831915010393"><ele>387.0</ele><time>2026-04-12T11:00:07Z</time></trkpt><trkpt lat="40.94621962171359" lon="14.643666126118946"><ele>384.0</ele><time>2026-04-12T11:00:08Z</time></trkpt><trkpt lat="40.94620214019657" lon="14.643507136289651"><ele>381.0</ele><time>2026-04-12T11:00:09Z</time></trkpt><trkpt lat="40.94621035180637" lon="14.643364770775815"><ele>378.6</ele><time>2026-04-12T11:00:10Z</time></trkpt><trkpt lat="40.94620949915718" lon="14.643255849584637"><ele>376.20000000000005</ele><time>2026-04-12T11:00:11Z</time></trkpt><trkpt lat="40.9462177962523" lon="14.643157078358163"><ele>373.79999999999995</ele><time>2026-04-12T11:00:12Z</time></trkpt><trkpt lat="40.94623177360969" lon="14.64307025423865"><ele>371.4</ele><time>2026-04-12T11:00:13Z</time></trkpt><trkpt lat="40.94607916704399" lon="14.642946804242522"><ele>369.0</ele><time>2026-04-12T11:00:15Z</time></trkpt><trkpt lat="40.94596952579693" lon="14.642920583113396"><ele>369.0</ele><time>2026-04-12T11:00:16Z</time></trkpt><trkpt lat="40.94588251361389" lon="14.642911545836016"><ele>369.0</ele><time>2026-04-12T11:00:17Z</time></trkpt><trkpt lat="40.94583893249091" lon="14.642850648935777"><ele>369.0</ele><time>2026-04-12T11:00:18Z</time></trkpt><trkpt lat="40.94580145766979" lon="14.642762166416388"><ele>369.0</ele><time>2026-04-12T11:00:19Z</time></trkpt><trkpt lat="40.945779062129176" lon="14.642679287156668"><ele>369.0</ele><time>2026-04-12T11:00:20Z</time></trkpt><trkpt lat="40.94586309005993" lon="14.642529845508065"><ele>369.0</ele><time>2026-04-12T11:00:22Z</time></trkpt><trkpt lat="40.94595403232216" lon="14.642493063102451"><ele>362.75</ele><time>2026-04-12T11:00:23Z</time></trkpt><trkpt lat="40.94605664039031" lon="14.642489237695717"><ele>356.5</ele><time>2026-04-12T11:00:24Z</time></trkpt><trkpt lat="40.94617454854174" lon="14.64247488158974"><ele>350.25</ele><time>2026-04-12T11:00:25Z</time></trkpt><trkpt lat="40.94629896012347" lon="14.642443344916002"><ele>344.0</ele><time>2026-04-12T11:00:26Z</time></trkpt><trkpt lat="40.946429232294015" lon="14.642433908285668"><ele>344.0</ele><time>2026-04-12T11:00:27Z</time></trkpt><trkpt lat="40.94656280882138" lon="14.642436659911212"><ele>344.0</ele><time>2026-04-12T11:00:28Z</time></trkpt><trkpt lat="40.9466876878964" lon="14.642425609083347"><ele>344.0</ele><time>2026-04-12T11:00:29Z</time></trkpt><trkpt lat="40.94680985689204" lon="14.642418325648277"><ele>344.0</ele><time>2026-04-12T11:00:30Z</time></trkpt><trkpt lat="40.946933552542404" lon="14.642411907095982"><ele>342.5</ele><time>2026-04-12T11:00:31Z</time></trkpt><trkpt lat="40.94706681969189" lon="14.642401769074805"><ele>341.0</ele><time>2026-04-12T11:00:32Z</time></trkpt><trkpt lat="40.947197074720826" lon="14.642375531822438"><ele>339.5</ele><time>2026-04-12T11:00:33Z</time></trkpt><trkpt lat="40.94732457852599" lon="14.6423647210028"><ele>338.0</ele><time>2026-04-12T11:00:34Z</time></trkpt><trkpt lat="40.94744901621797" lon="14.642357280114163"><ele>337.4</ele><time>2026-04-12T11:00:35Z</time></trkpt><trkpt lat="40.94757209327928" lon="14.642357613680714"><ele>336.79999999999995</ele><time>2026-04-12T11:00:36Z</time></trkpt><trkpt lat="40.94768574873559" lon="14.64234991072669"><ele>336.2</ele><time>2026-04-12T11:00:37Z</time></trkpt><trkpt lat="40.947790973777344" lon="14.642348900471287"><ele>335.6</ele><time>2026-04-12T11:00:38Z</time></trkpt><trkpt lat="40.94788547865479" lon="14.642351663998715"><ele>335.0</ele><time>2026-04-12T11:00:39Z</time></trkpt><trkpt lat="40.94799886062823" lon="14.642343635084442"><ele>335.0</ele><time>2026-04-12T11:00:40Z</time></trkpt><trkpt lat="40.94810641631433" lon="14.642339375547694"><ele>335.0</ele><time>2026-04-12T11:00:41Z</time></trkpt><trkpt lat="40.94821426948646" lon="14.642336196097842"><ele>335.0</ele><time>2026-04-12T11:00:42Z</time></trkpt><trkpt lat="40.94830535175658" lon="14.642333454158633"><ele>335.0</ele><time>2026-04-12T11:00:43Z</time></trkpt><trkpt lat="40.948401241820626" lon="14.642313154990301"><ele>335.0</ele><time>2026-04-12T11:00:44Z</time></trkpt><trkpt lat="40.948494413417116" lon="14.642302496068027"><ele>334.83333333333337</ele><time>2026-04-12T11:00:45Z</time></trkpt><trkpt lat="40.94857810550868" lon="14.642296151867463"><ele>334.6666666666667</ele><time>2026-04-12T11:00:46Z</time></trkpt><trkpt lat="40.94866416958602" lon="14.642277459197942"><ele>334.5</ele><time>2026-04-12T11:00:47Z</time></trkpt><trkpt lat="40.94874564804395" lon="14.642263751547867"><ele>334.3333333333333</ele><time>2026-04-12T11:00:48Z</time></trkpt><trkpt lat="40.948824020843986" lon="14.642243629503731"><ele>334.16666666666663</ele><time>2026-04-12T11:00:49Z</time></trkpt><trkpt lat="40.948909803657585" lon="14.642234185583149"><ele>334.0</ele><time>2026-04-12T11:00:50Z</time></trkpt><trkpt lat="40.94897812697638" lon="14.642238249640236"><ele>334.0</ele><time>2026-04-12T11:00:51Z</time></trkpt><trkpt lat="40.94905830431809" lon="14.64223327683609"><ele>334.0</ele><time>2026-04-12T11:00:52Z</time></trkpt><trkpt lat="40.949158583523605" lon="14.64219817806717"><ele>334.0</ele><time>2026-04-12T11:00:54Z</time></trkpt><trkpt lat="40.94927682650881" lon="14.64209695615577"><ele>334.0</ele><time>2026-04-12T11:00:56Z</time></trkpt><trkpt lat="40.94934242581498" lon="14.642014691143073"><ele>334.0</ele><time>2026-04-12T11:00:57Z</time></trkpt><trkpt lat="40.949396186591386" lon="14.641928943357467"><ele>331.3333333333333</ele><time>2026-04-12T11:00:58Z</time></trkpt><trkpt lat="40.94944782154341" lon="14.641837127913526"><ele>328.66666666666663</ele><time>2026-04-12T11:00:59Z</time></trkpt><trkpt lat="40.949498556317295" lon="14.641749170186802"><ele>326.0</ele><time>2026-04-12T11:01:00Z</time></trkpt><trkpt lat="40.949542854046534" lon="14.641658236718996"><ele>323.3333333333333</ele><time>2026-04-12T11:01:01Z</time></trkpt><trkpt lat="40.949575154573374" lon="14.641560967107452"><ele>320.6666666666667</ele><time>2026-04-12T11:01:02Z</time></trkpt><trkpt lat="40.94958262542199" lon="14.64147510564527"><ele>318.0</ele><time>2026-04-12T11:01:03Z</time></trkpt><trkpt lat="40.94961728829403" lon="14.641391785652873"><ele>318.0</ele><time>2026-04-12T11:01:04Z</time></trkpt><trkpt lat="40.949649930370526" lon="14.641307886652346"><ele>318.0</ele><time>2026-04-12T11:01:05Z</time></trkpt><trkpt lat="40.94967088807338" lon="14.641217104142491"><ele>318.0</ele><time>2026-04-12T11:01:06Z</time></trkpt><trkpt lat="40.949703769799946" lon="14.641126247957917"><ele>318.0</ele><time>2026-04-12T11:01:07Z</time></trkpt><trkpt lat="40.94974724911107" lon="14.641022449759172"><ele>318.0</ele><time>2026-04-12T11:01:08Z</time></trkpt><trkpt lat="40.949781701703365" lon="14.640908615403665"><ele>318.0</ele><time>2026-04-12T11:01:09Z</time></trkpt><trkpt lat="40.94981462765366" lon="14.64078366265426"><ele>317.1666666666667</ele><time>2026-04-12T11:01:10Z</time></trkpt><trkpt lat="40.94985039966627" lon="14.640669749990147"><ele>316.3333333333333</ele><time>2026-04-12T11:01:11Z</time></trkpt><trkpt lat="40.94989424713048" lon="14.64057284283921"><ele>315.5</ele><time>2026-04-12T11:01:11.999Z</time></trkpt><trkpt lat="40.9499395318171" lon="14.640478994710515"><ele>314.66666666666663</ele><time>2026-04-12T11:01:12.999Z</time></trkpt><trkpt lat="40.94999550975267" lon="14.640385973547685"><ele>313.8333333333333</ele><time>2026-04-12T11:01:13.999Z</time></trkpt><trkpt lat="40.950040093011424" lon="14.640288651418281"><ele>313.0</ele><time>2026-04-12T11:01:14.999Z</time></trkpt><trkpt lat="40.950069917557784" lon="14.640206252493956"><ele>313.0</ele><time>2026-04-12T11:01:15.999Z</time></trkpt><trkpt lat="40.950117672175814" lon="14.640039877513184"><ele>313.0</ele><time>2026-04-12T11:01:17.999Z</time></trkpt><trkpt lat="40.950158814791116" lon="14.639931179851887"><ele>313.0</ele><time>2026-04-12T11:01:18.999Z</time></trkpt><trkpt lat="40.950197501949795" lon="14.63981130479896"><ele>313.0</ele><time>2026-04-12T11:01:19.999Z</time></trkpt><trkpt lat="40.95024618533359" lon="14.639688263841244"><ele>313.0</ele><time>2026-04-12T11:01:20.999Z</time></trkpt><trkpt lat="40.95032145965044" lon="14.63955701795851"><ele>312.0</ele><time>2026-04-12T11:01:21.999Z</time></trkpt><trkpt lat="40.950421912219916" lon="14.6394326578174"><ele>311.0</ele><time>2026-04-12T11:01:22.999Z</time></trkpt><trkpt lat="40.950542244705154" lon="14.63933670397955"><ele>310.0</ele><time>2026-04-12T11:01:23.999Z</time></trkpt><trkpt lat="40.950668833694024" lon="14.639251705670866"><ele>309.0</ele><time>2026-04-12T11:01:24.999Z</time></trkpt><trkpt lat="40.950792103947634" lon="14.639155052723474"><ele>309.6666666666667</ele><time>2026-04-12T11:01:25.999Z</time></trkpt><trkpt lat="40.95091632823084" lon="14.639037974463504"><ele>310.33333333333337</ele><time>2026-04-12T11:01:26.999Z</time></trkpt><trkpt lat="40.951048209113964" lon="14.638907433776302"><ele>311.0</ele><time>2026-04-12T11:01:27.999Z</time></trkpt><trkpt lat="40.95115388086716" lon="14.638796536764145"><ele>311.0</ele><time>2026-04-12T11:01:28.999Z</time></trkpt><trkpt lat="40.95124494892594" lon="14.638702367127012"><ele>311.0</ele><time>2026-04-12T11:01:29.999Z</time></trkpt><trkpt lat="40.95131671282089" lon="14.638626010953587"><ele>311.0</ele><time>2026-04-12T11:01:30.999Z</time></trkpt><trkpt lat="40.95136938204563" lon="14.63857056103125"><ele>311.0</ele><time>2026-04-12T11:01:31.999Z</time></trkpt><trkpt lat="40.95140841591298" lon="14.6384422210276"><ele>311.0</ele><time>2026-04-12T11:01:33.999Z</time></trkpt><trkpt lat="40.9513429880114" lon="14.63828470314101"><ele>310.6</ele><time>2026-04-12T11:01:35.999Z</time></trkpt><trkpt lat="40.95126644897057" lon="14.638221777671802"><ele>310.20000000000005</ele><time>2026-04-12T11:01:36.999Z</time></trkpt><trkpt lat="40.95118147702493" lon="14.638173637185309"><ele>309.79999999999995</ele><time>2026-04-12T11:01:37.999Z</time></trkpt><trkpt lat="40.95108721920816" lon="14.638140562834076"><ele>309.4</ele><time>2026-04-12T11:01:38.999Z</time></trkpt><trkpt lat="40.95099620762699" lon="14.638106078117671"><ele>309.0</ele><time>2026-04-12T11:01:39.999Z</time></trkpt><trkpt lat="40.95090574319458" lon="14.638078950970346"><ele>308.0</ele><time>2026-04-12T11:01:40.999Z</time></trkpt><trkpt lat="40.95081872912951" lon="14.638053157210594"><ele>307.0</ele><time>2026-04-12T11:01:41.999Z</time></trkpt><trkpt lat="40.95072898648554" lon="14.638023805969501"><ele>306.0</ele><time>2026-04-12T11:01:42.999Z</time></trkpt><trkpt lat="40.95062742558901" lon="14.637990589605591"><ele>305.0</ele><time>2026-04-12T11:01:43.999Z</time></trkpt><trkpt lat="40.95052360213923" lon="14.63794947510104"><ele>304.0</ele><time>2026-04-12T11:01:44.999Z</time></trkpt><trkpt lat="40.950420358638915" lon="14.637904825264817"><ele>304.0</ele><time>2026-04-12T11:01:45.999Z</time></trkpt><trkpt lat="40.95031816046574" lon="14.637852390273489"><ele>304.0</ele><time>2026-04-12T11:01:46.999Z</time></trkpt><trkpt lat="40.95021746436574" lon="14.637792364985657"><ele>304.0</ele><time>2026-04-12T11:01:47.999Z</time></trkpt><trkpt lat="40.95012334273497" lon="14.63773009178376"><ele>304.0</ele><time>2026-04-12T11:01:48.999Z</time></trkpt><trkpt lat="40.95003888981971" lon="14.637673004383267"><ele>304.0</ele><time>2026-04-12T11:01:49.999Z</time></trkpt><trkpt lat="40.94997373397895" lon="14.637638361208156"><ele>302.8333333333333</ele><time>2026-04-12T11:01:51Z</time></trkpt><trkpt lat="40.94987349884436" lon="14.637582607515565"><ele>301.66666666666663</ele><time>2026-04-12T11:01:53Z</time></trkpt><trkpt lat="40.9498090026968" lon="14.637546595746176"><ele>300.5</ele><time>2026-04-12T11:01:54Z</time></trkpt><trkpt lat="40.94973755412355" lon="14.637506541491978"><ele>299.3333333333333</ele><time>2026-04-12T11:01:55Z</time></trkpt><trkpt lat="40.949651459375346" lon="14.637473437871598"><ele>298.1666666666667</ele><time>2026-04-12T11:01:56Z</time></trkpt><trkpt lat="40.94957439979796" lon="14.637431803981213"><ele>297.0</ele><time>2026-04-12T11:01:57Z</time></trkpt><trkpt lat="40.9495046534901" lon="14.637389185461585"><ele>297.0</ele><time>2026-04-12T11:01:58Z</time></trkpt><trkpt lat="40.949435021436514" lon="14.637354658900797"><ele>297.0</ele><time>2026-04-12T11:01:59Z</time></trkpt><trkpt lat="40.949370950812224" lon="14.637320780190455"><ele>297.0</ele><time>2026-04-12T11:02:00Z</time></trkpt><trkpt lat="40.949270204261616" lon="14.637263169447825"><ele>297.0</ele><time>2026-04-12T11:02:02Z</time></trkpt><trkpt lat="40.94920162687234" lon="14.637156330575051"><ele>297.0</ele><time>2026-04-12T11:02:04Z</time></trkpt><trkpt lat="40.94921384069639" lon="14.63704817545444"><ele>297.0</ele><time>2026-04-12T11:02:05Z</time></trkpt><trkpt lat="40.949252694683" lon="14.63690805084748"><ele>296.25</ele><time>2026-04-12T11:02:06Z</time></trkpt><trkpt lat="40.949295724923935" lon="14.636737705268462"><ele>295.5</ele><time>2026-04-12T11:02:07Z</time></trkpt><trkpt lat="40.94936911427326" lon="14.636575265019948"><ele>294.75</ele><time>2026-04-12T11:02:08Z</time></trkpt><trkpt lat="40.94940391914214" lon="14.636409483666636"><ele>294.0</ele><time>2026-04-12T11:02:09Z</time></trkpt><trkpt lat="40.94943757633132" lon="14.636261516312512"><ele>293.0</ele><time>2026-04-12T11:02:10Z</time></trkpt><trkpt lat="40.94946022978526" lon="14.636098866003"><ele>292.0</ele><time>2026-04-12T11:02:11Z</time></trkpt><trkpt lat="40.94946392238467" lon="14.63593614799587"><ele>291.0</ele><time>2026-04-12T11:02:12Z</time></trkpt><trkpt lat="40.94946347596222" lon="14.63578929610215"><ele>290.0</ele><time>2026-04-12T11:02:13Z</time></trkpt><trkpt lat="40.94946280681567" lon="14.635651116632012"><ele>290.0</ele><time>2026-04-12T11:02:14Z</time></trkpt><trkpt lat="40.9494629542718" lon="14.635533982321736"><ele>290.0</ele><time>2026-04-12T11:02:15Z</time></trkpt><trkpt lat="40.949463634770325" lon="14.635420816104272"><ele>290.0</ele><time>2026-04-12T11:02:16Z</time></trkpt><trkpt lat="40.949466178579385" lon="14.635310216114098"><ele>290.0</ele><time>2026-04-12T11:02:17Z</time></trkpt><trkpt lat="40.94946954854055" lon="14.635196634438604"><ele>290.0</ele><time>2026-04-12T11:02:18Z</time></trkpt><trkpt lat="40.94947665402632" lon="14.635071130807933"><ele>290.0</ele><time>2026-04-12T11:02:19Z</time></trkpt><trkpt lat="40.94948894976551" lon="14.634961240189563"><ele>289.1666666666667</ele><time>2026-04-12T11:02:20Z</time></trkpt><trkpt lat="40.94951174009333" lon="14.634865171720119"><ele>288.33333333333337</ele><time>2026-04-12T11:02:21Z</time></trkpt><trkpt lat="40.949524222022355" lon="14.634770682253313"><ele>287.5</ele><time>2026-04-12T11:02:22Z</time></trkpt><trkpt lat="40.94957053452697" lon="14.634679109432893"><ele>286.6666666666667</ele><time>2026-04-12T11:02:23Z</time></trkpt><trkpt lat="40.94962047221479" lon="14.634576561704451"><ele>285.8333333333333</ele><time>2026-04-12T11:02:24Z</time></trkpt><trkpt lat="40.949670248593705" lon="14.634465838119029"><ele>285.0</ele><time>2026-04-12T11:02:25Z</time></trkpt><trkpt lat="40.949723288199124" lon="14.634350393469708"><ele>283.8</ele><time>2026-04-12T11:02:26Z</time></trkpt><trkpt lat="40.949773924074904" lon="14.634228174095513"><ele>282.6</ele><time>2026-04-12T11:02:27Z</time></trkpt><trkpt lat="40.94982445937985" lon="14.634103034475876"><ele>281.4</ele><time>2026-04-12T11:02:28Z</time></trkpt><trkpt lat="40.94987543345566" lon="14.633990611192715"><ele>280.2</ele><time>2026-04-12T11:02:29Z</time></trkpt><trkpt lat="40.949922324620836" lon="14.633879367220127"><ele>279.0</ele><time>2026-04-12T11:02:30Z</time></trkpt><trkpt lat="40.94997582013053" lon="14.633784386300661"><ele>279.0</ele><time>2026-04-12T11:02:31Z</time></trkpt><trkpt lat="40.949998571176764" lon="14.633678190440868"><ele>279.0</ele><time>2026-04-12T11:02:32Z</time></trkpt><trkpt lat="40.95003706604433" lon="14.633581903192939"><ele>279.0</ele><time>2026-04-12T11:02:33Z</time></trkpt><trkpt lat="40.95007343102275" lon="14.633474882501208"><ele>279.0</ele><time>2026-04-12T11:02:34Z</time></trkpt><trkpt lat="40.95011166583209" lon="14.63337152539368"><ele>279.0</ele><time>2026-04-12T11:02:35Z</time></trkpt><trkpt lat="40.95016075933061" lon="14.633290025685314"><ele>279.0</ele><time>2026-04-12T11:02:36Z</time></trkpt><trkpt lat="40.95020610977752" lon="14.633216908820849"><ele>278.2</ele><time>2026-04-12T11:02:37Z</time></trkpt><trkpt lat="40.9502463987774" lon="14.633139875193798"><ele>277.4</ele><time>2026-04-12T11:02:38Z</time></trkpt><trkpt lat="40.950320501133476" lon="14.633037083439936"><ele>276.6</ele><time>2026-04-12T11:02:40Z</time></trkpt><trkpt lat="40.95044280929399" lon="14.633012951533322"><ele>275.8</ele><time>2026-04-12T11:02:42Z</time></trkpt><trkpt lat="40.95053324960487" lon="14.633027468095536"><ele>275.0</ele><time>2026-04-12T11:02:43Z</time></trkpt><trkpt lat="40.95063123925765" lon="14.633027782615134"><ele>275.0</ele><time>2026-04-12T11:02:44Z</time></trkpt><trkpt lat="40.95069555486002" lon="14.633005775156363"><ele>275.0</ele><time>2026-04-12T11:02:45Z</time></trkpt><trkpt lat="40.950774533101104" lon="14.632995787255119"><ele>275.0</ele><time>2026-04-12T11:02:46Z</time></trkpt><trkpt lat="40.95085205782236" lon="14.63299193925211"><ele>275.0</ele><time>2026-04-12T11:02:47Z</time></trkpt><trkpt lat="40.9509806473396" lon="14.632987470195177"><ele>275.0</ele><time>2026-04-12T11:02:49Z</time></trkpt><trkpt lat="40.951059232308324" lon="14.63296838261294"><ele>275.0</ele><time>2026-04-12T11:02:51Z</time></trkpt><trkpt lat="40.951108866795515" lon="14.632885886385585"><ele>274.0</ele><time>2026-04-12T11:02:53Z</time></trkpt><trkpt lat="40.951158388022805" lon="14.632763642786758"><ele>273.0</ele><time>2026-04-12T11:02:55Z</time></trkpt><trkpt lat="40.951157837624045" lon="14.632615383374773"><ele>272.0</ele><time>2026-04-12T11:02:57Z</time></trkpt><trkpt lat="40.95120158791527" lon="14.63255112681855"><ele>271.0</ele><time>2026-04-12T11:02:58Z</time></trkpt><trkpt lat="40.951254913196934" lon="14.632467706315536"><ele>270.0</ele><time>2026-04-12T11:02:59Z</time></trkpt><trkpt lat="40.951291671654964" lon="14.632359879226371"><ele>270.0</ele><time>2026-04-12T11:03:00Z</time></trkpt><trkpt lat="40.951307087066645" lon="14.63224749666236"><ele>270.0</ele><time>2026-04-12T11:03:01Z</time></trkpt><trkpt lat="40.95133192593396" lon="14.632161793520698"><ele>270.0</ele><time>2026-04-12T11:03:02Z</time></trkpt><trkpt lat="40.95135275323967" lon="14.632081324452598"><ele>270.0</ele><time>2026-04-12T11:03:03Z</time></trkpt><trkpt lat="40.95141697159049" lon="14.631972487896771"><ele>270.0</ele><time>2026-04-12T11:03:05Z</time></trkpt><trkpt lat="40.951484629662716" lon="14.63194314566588"><ele>270.0</ele><time>2026-04-12T11:03:06Z</time></trkpt><trkpt lat="40.95157063061438" lon="14.631948771582381"><ele>269.0</ele><time>2026-04-12T11:03:07Z</time></trkpt><trkpt lat="40.95165808028607" lon="14.631955617876525"><ele>268.0</ele><time>2026-04-12T11:03:08Z</time></trkpt><trkpt lat="40.95174258962305" lon="14.631943744760457"><ele>267.0</ele><time>2026-04-12T11:03:09Z</time></trkpt><trkpt lat="40.95183456274099" lon="14.631921668111234"><ele>266.0</ele><time>2026-04-12T11:03:10Z</time></trkpt><trkpt lat="40.951926378836525" lon="14.631913276678366"><ele>265.0</ele><time>2026-04-12T11:03:11Z</time></trkpt><trkpt lat="40.95201897660071" lon="14.631903662580608"><ele>265.0</ele><time>2026-04-12T11:03:12Z</time></trkpt><trkpt lat="40.9521225370814" lon="14.631887511554403"><ele>265.0</ele><time>2026-04-12T11:03:13Z</time></trkpt><trkpt lat="40.95220188898592" lon="14.6318813815071"><ele>265.0</ele><time>2026-04-12T11:03:14Z</time></trkpt><trkpt lat="40.95231876256631" lon="14.631858998856387"><ele>265.0</ele><time>2026-04-12T11:03:16Z</time></trkpt><trkpt lat="40.952377591696965" lon="14.631702072732844"><ele>265.0</ele><time>2026-04-12T11:03:18Z</time></trkpt><trkpt lat="40.952396689475" lon="14.6315895706325"><ele>265.0</ele><time>2026-04-12T11:03:19Z</time></trkpt><trkpt lat="40.95243943087823" lon="14.631474831649623"><ele>265.0</ele><time>2026-04-12T11:03:20Z</time></trkpt><trkpt lat="40.9524861192715" lon="14.63134754149913"><ele>265.0</ele><time>2026-04-12T11:03:21Z</time></trkpt><trkpt lat="40.952517115354965" lon="14.631204960257389"><ele>265.0</ele><time>2026-04-12T11:03:22Z</time></trkpt><trkpt lat="40.95252326820717" lon="14.631043391162482"><ele>265.0</ele><time>2026-04-12T11:03:23Z</time></trkpt><trkpt lat="40.95252186500413" lon="14.630873657432835"><ele>264.75</ele><time>2026-04-12T11:03:24Z</time></trkpt><trkpt lat="40.95252752147669" lon="14.630690577553148"><ele>264.5</ele><time>2026-04-12T11:03:25Z</time></trkpt><trkpt lat="40.95252740966499" lon="14.630512197511754"><ele>264.25</ele><time>2026-04-12T11:03:26Z</time></trkpt><trkpt lat="40.9525463197985" lon="14.630352198434865"><ele>264.0</ele><time>2026-04-12T11:03:27Z</time></trkpt><trkpt lat="40.95254966017335" lon="14.630200166033925"><ele>263.0</ele><time>2026-04-12T11:03:28Z</time></trkpt><trkpt lat="40.95253805990168" lon="14.630040061350307"><ele>262.0</ele><time>2026-04-12T11:03:29Z</time></trkpt><trkpt lat="40.95254303661695" lon="14.629886127675165"><ele>261.0</ele><time>2026-04-12T11:03:30Z</time></trkpt><trkpt lat="40.952540994115914" lon="14.629745531875981"><ele>260.0</ele><time>2026-04-12T11:03:31Z</time></trkpt><trkpt lat="40.95253657164151" lon="14.629629876153627"><ele>259.0</ele><time>2026-04-12T11:03:32Z</time></trkpt><trkpt lat="40.95254957214105" lon="14.629521579054236"><ele>258.8</ele><time>2026-04-12T11:03:33Z</time></trkpt><trkpt lat="40.952542958641494" lon="14.629413739798503"><ele>258.59999999999997</ele><time>2026-04-12T11:03:34Z</time></trkpt><trkpt lat="40.95253410956676" lon="14.629266910520059"><ele>258.4</ele><time>2026-04-12T11:03:35Z</time></trkpt><trkpt lat="40.95252980274892" lon="14.629107568204155"><ele>258.2</ele><time>2026-04-12T11:03:36Z</time></trkpt><trkpt lat="40.95249780572085" lon="14.628972303917124"><ele>258.0</ele><time>2026-04-12T11:03:37Z</time></trkpt><trkpt lat="40.95251275608938" lon="14.628811711109341"><ele>256.6666666666667</ele><time>2026-04-12T11:03:38Z</time></trkpt><trkpt lat="40.95253418192521" lon="14.62861339559094"><ele>255.33333333333334</ele><time>2026-04-12T11:03:39Z</time></trkpt><trkpt lat="40.95255091937124" lon="14.628413491189175"><ele>254.0</ele><time>2026-04-12T11:03:40Z</time></trkpt><trkpt lat="40.95257436870734" lon="14.628220295361581"><ele>254.0</ele><time>2026-04-12T11:03:41Z</time></trkpt><trkpt lat="40.95258088682325" lon="14.62805184337264"><ele>254.0</ele><time>2026-04-12T11:03:42Z</time></trkpt><trkpt lat="40.95256528351236" lon="14.627876295616655"><ele>254.0</ele><time>2026-04-12T11:03:43Z</time></trkpt><trkpt lat="40.95253449144761" lon="14.627690413217527"><ele>254.0</ele><time>2026-04-12T11:03:44Z</time></trkpt><trkpt lat="40.952476278813414" lon="14.627513047320974"><ele>253.5</ele><time>2026-04-12T11:03:45Z</time></trkpt><trkpt lat="40.95243641260882" lon="14.627325963386218"><ele>253.0</ele><time>2026-04-12T11:03:46Z</time></trkpt><trkpt lat="40.95240861710373" lon="14.627136233171433"><ele>252.5</ele><time>2026-04-12T11:03:47Z</time></trkpt><trkpt lat="40.95240481611295" lon="14.62693494187304"><ele>252.0</ele><time>2026-04-12T11:03:48Z</time></trkpt><trkpt lat="40.952428503061206" lon="14.62675260083869"><ele>252.0</ele><time>2026-04-12T11:03:49Z</time></trkpt><trkpt lat="40.95244869896682" lon="14.626561055819518"><ele>252.0</ele><time>2026-04-12T11:03:50Z</time></trkpt><trkpt lat="40.95248681171733" lon="14.6264017294558"><ele>252.0</ele><time>2026-04-12T11:03:51Z</time></trkpt><trkpt lat="40.95253264849144" lon="14.626282352346553"><ele>252.0</ele><time>2026-04-12T11:03:52Z</time></trkpt><trkpt lat="40.95259547864627" lon="14.626176146683374"><ele>252.5</ele><time>2026-04-12T11:03:53Z</time></trkpt><trkpt lat="40.95268626597543" lon="14.626078468196757"><ele>253.0</ele><time>2026-04-12T11:03:54Z</time></trkpt><trkpt lat="40.952786863762086" lon="14.62597055330624"><ele>253.5</ele><time>2026-04-12T11:03:55Z</time></trkpt><trkpt lat="40.95288429866593" lon="14.625836091955302"><ele>254.0</ele><time>2026-04-12T11:03:56Z</time></trkpt><trkpt lat="40.9529777322384" lon="14.6256960339995"><ele>254.0</ele><time>2026-04-12T11:03:57Z</time></trkpt><trkpt lat="40.953073395692705" lon="14.625555178805254"><ele>254.0</ele><time>2026-04-12T11:03:58Z</time></trkpt><trkpt lat="40.95317371418436" lon="14.625414622479576"><ele>254.0</ele><time>2026-04-12T11:03:59Z</time></trkpt><trkpt lat="40.95327027669899" lon="14.625269450737575"><ele>254.0</ele><time>2026-04-12T11:04:00Z</time></trkpt><trkpt lat="40.953369175823084" lon="14.625104931435649"><ele>254.0</ele><time>2026-04-12T11:04:01Z</time></trkpt><trkpt lat="40.95346269675412" lon="14.624926316628034"><ele>254.0</ele><time>2026-04-12T11:04:02Z</time></trkpt><trkpt lat="40.953551772531775" lon="14.624743692350723"><ele>254.0</ele><time>2026-04-12T11:04:03Z</time></trkpt><trkpt lat="40.95362530152221" lon="14.624590131332976"><ele>254.25</ele><time>2026-04-12T11:04:04Z</time></trkpt><trkpt lat="40.953692055981925" lon="14.624453049448245"><ele>254.5</ele><time>2026-04-12T11:04:05Z</time></trkpt><trkpt lat="40.95375391756161" lon="14.62430607335626"><ele>254.75</ele><time>2026-04-12T11:04:06Z</time></trkpt><trkpt lat="40.95381554830171" lon="14.624162464657358"><ele>255.0</ele><time>2026-04-12T11:04:07Z</time></trkpt><trkpt lat="40.95386657994324" lon="14.624010419346568"><ele>255.0</ele><time>2026-04-12T11:04:08Z</time></trkpt><trkpt lat="40.95390240289859" lon="14.623833894747083"><ele>255.0</ele><time>2026-04-12T11:04:09Z</time></trkpt><trkpt lat="40.95391815621834" lon="14.623659386018943"><ele>255.0</ele><time>2026-04-12T11:04:10Z</time></trkpt><trkpt lat="40.953934042583136" lon="14.623491426481069"><ele>255.0</ele><time>2026-04-12T11:04:11Z</time></trkpt><trkpt lat="40.953942287008545" lon="14.623341071602217"><ele>255.16666666666666</ele><time>2026-04-12T11:04:12Z</time></trkpt><trkpt lat="40.9539437044489" lon="14.623213978725722"><ele>255.33333333333331</ele><time>2026-04-12T11:04:13Z</time></trkpt><trkpt lat="40.95394415803871" lon="14.62310043147437"><ele>255.5</ele><time>2026-04-12T11:04:14Z</time></trkpt><trkpt lat="40.953929078711695" lon="14.622997158794233"><ele>255.66666666666666</ele><time>2026-04-12T11:04:15Z</time></trkpt><trkpt lat="40.953928671859785" lon="14.622889889363645"><ele>255.83333333333331</ele><time>2026-04-12T11:04:16Z</time></trkpt><trkpt lat="40.953937645371106" lon="14.622782313566985"><ele>256.0</ele><time>2026-04-12T11:04:17Z</time></trkpt><trkpt lat="40.953962499749885" lon="14.62267924122906"><ele>256.0</ele><time>2026-04-12T11:04:18Z</time></trkpt><trkpt lat="40.95397786296677" lon="14.622584270965593"><ele>256.0</ele><time>2026-04-12T11:04:19Z</time></trkpt><trkpt lat="40.95397847697195" lon="14.622488728474552"><ele>256.0</ele><time>2026-04-12T11:04:20Z</time></trkpt><trkpt lat="40.9539635558243" lon="14.62239192417805"><ele>256.0</ele><time>2026-04-12T11:04:21Z</time></trkpt><trkpt lat="40.95397423569365" lon="14.622267823563906"><ele>256.0</ele><time>2026-04-12T11:04:23Z</time></trkpt><trkpt lat="40.953803663633444" lon="14.622231822536257"><ele>256.0</ele><time>2026-04-12T11:04:25Z</time></trkpt><trkpt lat="40.95371631432212" lon="14.622194844018026"><ele>256.0</ele><time>2026-04-12T11:04:26Z</time></trkpt><trkpt lat="40.953642842351826" lon="14.622153414479689"><ele>256.0</ele><time>2026-04-12T11:04:27Z</time></trkpt><trkpt lat="40.95356181919894" lon="14.622095911694448"><ele>256.0</ele><time>2026-04-12T11:04:28Z</time></trkpt><trkpt lat="40.953464367099386" lon="14.622033065863858"><ele>256.0</ele><time>2026-04-12T11:04:29Z</time></trkpt><trkpt lat="40.953360553234106" lon="14.621968871493754"><ele>251.4</ele><time>2026-04-12T11:04:30Z</time></trkpt><trkpt lat="40.953256856991395" lon="14.621903415866445"><ele>246.8</ele><time>2026-04-12T11:04:31Z</time></trkpt><trkpt lat="40.95315060659596" lon="14.62183779853444"><ele>242.20000000000002</ele><time>2026-04-12T11:04:32Z</time></trkpt><trkpt lat="40.95304511019966" lon="14.62177254576073"><ele>237.60000000000002</ele><time>2026-04-12T11:04:33Z</time></trkpt><trkpt lat="40.95295784897002" lon="14.621716587261936"><ele>233.0</ele><time>2026-04-12T11:04:34Z</time></trkpt><trkpt lat="40.952873175397315" lon="14.621662006791798"><ele>233.00000000000003</ele><time>2026-04-12T11:04:35Z</time></trkpt><trkpt lat="40.95278583200791" lon="14.621605819742804"><ele>233.0</ele><time>2026-04-12T11:04:36Z</time></trkpt><trkpt lat="40.95271090787078" lon="14.621558033001193"><ele>233.0</ele><time>2026-04-12T11:04:37Z</time></trkpt><trkpt lat="40.952638994298354" lon="14.621512845117723"><ele>233.0</ele><time>2026-04-12T11:04:38Z</time></trkpt><trkpt lat="40.95257532454312" lon="14.621474889891049"><ele>233.00000000000003</ele><time>2026-04-12T11:04:39Z</time></trkpt><trkpt lat="40.952496713273675" lon="14.621401910896648"><ele>233.0</ele><time>2026-04-12T11:04:41Z</time></trkpt><trkpt lat="40.952484111997016" lon="14.621232662251952"><ele>231.4</ele><time>2026-04-12T11:04:43Z</time></trkpt><trkpt lat="40.95247704780443" lon="14.621145029313624"><ele>229.8</ele><time>2026-04-12T11:04:44Z</time></trkpt><trkpt lat="40.952466737619126" lon="14.621010918385597"><ele>228.2</ele><time>2026-04-12T11:04:46Z</time></trkpt><trkpt lat="40.952544038008774" lon="14.62095070103627"><ele>226.6</ele><time>2026-04-12T11:04:49Z</time></trkpt><trkpt lat="40.952636509813054" lon="14.620943444497085"><ele>225.0</ele><time>2026-04-12T11:04:50Z</time></trkpt><trkpt lat="40.952751291367335" lon="14.62093788552738"><ele>225.0</ele><time>2026-04-12T11:04:51Z</time></trkpt><trkpt lat="40.95283419493946" lon="14.620930210364733"><ele>225.0</ele><time>2026-04-12T11:04:52Z</time></trkpt><trkpt lat="40.95288402795599" lon="14.620777028423266"><ele>225.0</ele><time>2026-04-12T11:04:55Z</time></trkpt><trkpt lat="40.95286256203023" lon="14.620645646055971"><ele>225.0</ele><time>2026-04-12T11:04:56Z</time></trkpt><trkpt lat="40.95284695668261" lon="14.620527195893382"><ele>225.0</ele><time>2026-04-12T11:04:57Z</time></trkpt><trkpt lat="40.95283408395555" lon="14.620417395976155"><ele>223.0</ele><time>2026-04-12T11:04:58Z</time></trkpt><trkpt lat="40.95282432157938" lon="14.62030573733117"><ele>221.0</ele><time>2026-04-12T11:04:59Z</time></trkpt><trkpt lat="40.952817876047476" lon="14.62019041727647"><ele>219.0</ele><time>2026-04-12T11:05:00Z</time></trkpt><trkpt lat="40.95279254826595" lon="14.620076945252288"><ele>217.0</ele><time>2026-04-12T11:05:01Z</time></trkpt><trkpt lat="40.95276460836177" lon="14.619965167692317"><ele>215.0</ele><time>2026-04-12T11:05:02Z</time></trkpt><trkpt lat="40.952725843720806" lon="14.619858731823994"><ele>213.0</ele><time>2026-04-12T11:05:03Z</time></trkpt><trkpt lat="40.95268858751856" lon="14.619761890993445"><ele>213.0</ele><time>2026-04-12T11:05:04Z</time></trkpt><trkpt lat="40.95263977289832" lon="14.619692193687639"><ele>213.0</ele><time>2026-04-12T11:05:05Z</time></trkpt><trkpt lat="40.95261449385133" lon="14.61959328219565"><ele>213.0</ele><time>2026-04-12T11:05:06Z</time></trkpt><trkpt lat="40.9525976548348" lon="14.619477166938438"><ele>213.0</ele><time>2026-04-12T11:05:07Z</time></trkpt><trkpt lat="40.95256864433401" lon="14.619390796265865"><ele>213.0</ele><time>2026-04-12T11:05:08Z</time></trkpt><trkpt lat="40.952530885740735" lon="14.619273577606739"><ele>213.0</ele><time>2026-04-12T11:05:10Z</time></trkpt><trkpt lat="40.952550594914754" lon="14.619154319206169"><ele>211.33333333333334</ele><time>2026-04-12T11:05:12Z</time></trkpt><trkpt lat="40.95255359891328" lon="14.619055387215349"><ele>209.66666666666669</ele><time>2026-04-12T11:05:13Z</time></trkpt><trkpt lat="40.952558289952954" lon="14.618960231890814"><ele>208.0</ele><time>2026-04-12T11:05:14Z</time></trkpt><trkpt lat="40.95259916812712" lon="14.61885879565633"><ele>206.33333333333334</ele><time>2026-04-12T11:05:15Z</time></trkpt><trkpt lat="40.95259203275705" lon="14.618754145508474"><ele>204.66666666666669</ele><time>2026-04-12T11:05:16Z</time></trkpt><trkpt lat="40.95258302196862" lon="14.61863129471501"><ele>203.0</ele><time>2026-04-12T11:05:17Z</time></trkpt><trkpt lat="40.95257439359041" lon="14.618513657709617"><ele>202.50000000000003</ele><time>2026-04-12T11:05:18Z</time></trkpt><trkpt lat="40.95256547831724" lon="14.618399872007245"><ele>202.0</ele><time>2026-04-12T11:05:19Z</time></trkpt><trkpt lat="40.95255781447039" lon="14.618306329882213"><ele>201.5</ele><time>2026-04-12T11:05:20Z</time></trkpt><trkpt lat="40.95254614133797" lon="14.61816385188789"><ele>201.0</ele><time>2026-04-12T11:05:22Z</time></trkpt><trkpt lat="40.95253567180458" lon="14.618037331921101"><ele>200.50000000000003</ele><time>2026-04-12T11:05:25Z</time></trkpt><trkpt lat="40.95252449003045" lon="14.617929377762652"><ele>200.0</ele><time>2026-04-12T11:05:29Z</time></trkpt><trkpt lat="40.95258190908579" lon="14.617834692284104"><ele>199.66666666666669</ele><time>2026-04-12T11:05:31Z</time></trkpt><trkpt lat="40.952651283391" lon="14.617725326448658"><ele>199.33333333333334</ele><time>2026-04-12T11:05:33Z</time></trkpt><trkpt lat="40.95265337182557" lon="14.617628449787304"><ele>199.0</ele><time>2026-04-12T11:05:34Z</time></trkpt><trkpt lat="40.952615185646245" lon="14.617527587762213"><ele>198.66666666666669</ele><time>2026-04-12T11:05:35Z</time></trkpt><trkpt lat="40.95257137943274" lon="14.617447227233486"><ele>198.33333333333334</ele><time>2026-04-12T11:05:36Z</time></trkpt><trkpt lat="40.952541623256884" lon="14.617369959161406"><ele>198.0</ele><time>2026-04-12T11:05:37Z</time></trkpt><trkpt lat="40.95253162076266" lon="14.61722130129742"><ele>197.83333333333334</ele><time>2026-04-12T11:05:39Z</time></trkpt><trkpt lat="40.952570509240005" lon="14.617151769102826"><ele>197.66666666666669</ele><time>2026-04-12T11:05:40Z</time></trkpt><trkpt lat="40.95263154813984" lon="14.61709704625369"><ele>197.5</ele><time>2026-04-12T11:05:41Z</time></trkpt><trkpt lat="40.95271251243656" lon="14.617063279630996"><ele>197.33333333333334</ele><time>2026-04-12T11:05:42Z</time></trkpt><trkpt lat="40.95279832618287" lon="14.61703532620628"><ele>197.16666666666669</ele><time>2026-04-12T11:05:43Z</time></trkpt><trkpt lat="40.952897314821165" lon="14.616982484612008"><ele>197.0</ele><time>2026-04-12T11:05:44Z</time></trkpt><trkpt lat="40.952990002063885" lon="14.616938290835007"><ele>196.5</ele><time>2026-04-12T11:05:45Z</time></trkpt><trkpt lat="40.953082572462996" lon="14.616890812865545"><ele>196.0</ele><time>2026-04-12T11:05:46Z</time></trkpt><trkpt lat="40.953189785501095" lon="14.616835961148999"><ele>195.5</ele><time>2026-04-12T11:05:47Z</time></trkpt><trkpt lat="40.95330107139951" lon="14.61677695468896"><ele>195.0</ele><time>2026-04-12T11:05:48Z</time></trkpt><trkpt lat="40.95342720071075" lon="14.616718825290905"><ele>195.0</ele><time>2026-04-12T11:05:49Z</time></trkpt><trkpt lat="40.95354059522997" lon="14.616654948284072"><ele>195.0</ele><time>2026-04-12T11:05:50Z</time></trkpt><trkpt lat="40.95364422300916" lon="14.616589404753034"><ele>195.0</ele><time>2026-04-12T11:05:51Z</time></trkpt><trkpt lat="40.95373067017426" lon="14.616496573261855"><ele>195.0</ele><time>2026-04-12T11:05:52Z</time></trkpt><trkpt lat="40.95378230904755" lon="14.616370544110865"><ele>195.0</ele><time>2026-04-12T11:05:53Z</time></trkpt><trkpt lat="40.95381044213043" lon="14.616231148009394"><ele>195.0</ele><time>2026-04-12T11:05:54Z</time></trkpt><trkpt lat="40.953833471458516" lon="14.616087292209128"><ele>195.0</ele><time>2026-04-12T11:05:55Z</time></trkpt><trkpt lat="40.95383915572656" lon="14.615931770150445"><ele>195.0</ele><time>2026-04-12T11:05:56Z</time></trkpt><trkpt lat="40.95384233883315" lon="14.615783099271246"><ele>195.0</ele><time>2026-04-12T11:05:57Z</time></trkpt><trkpt lat="40.95385393613839" lon="14.615660961867766"><ele>195.0</ele><time>2026-04-12T11:05:58Z</time></trkpt><trkpt lat="40.95385964800649" lon="14.615537587627644"><ele>195.0</ele><time>2026-04-12T11:05:59Z</time></trkpt><trkpt lat="40.95386312622131" lon="14.615415922338851"><ele>195.0</ele><time>2026-04-12T11:06:00Z</time></trkpt><trkpt lat="40.95386455843678" lon="14.615314376098741"><ele>195.0</ele><time>2026-04-12T11:06:01Z</time></trkpt><trkpt lat="40.95386420310609" lon="14.615223506942499"><ele>195.0</ele><time>2026-04-12T11:06:02Z</time></trkpt><trkpt lat="40.953882173205635" lon="14.615068608809802"><ele>194.66666666666666</ele><time>2026-04-12T11:06:04Z</time></trkpt><trkpt lat="40.95387961480688" lon="14.614965640185297"><ele>194.33333333333331</ele><time>2026-04-12T11:06:05Z</time></trkpt><trkpt lat="40.95388829218961" lon="14.614859849051072"><ele>194.0</ele><time>2026-04-12T11:06:06Z</time></trkpt><trkpt lat="40.95391309262708" lon="14.614745264196678"><ele>193.66666666666666</ele><time>2026-04-12T11:06:07Z</time></trkpt><trkpt lat="40.95391063708191" lon="14.614620750035899"><ele>193.33333333333331</ele><time>2026-04-12T11:06:08Z</time></trkpt><trkpt lat="40.953907550006704" lon="14.614481830078073"><ele>193.0</ele><time>2026-04-12T11:06:09Z</time></trkpt><trkpt lat="40.953904348429425" lon="14.614346326645105"><ele>192.60000000000002</ele><time>2026-04-12T11:06:10Z</time></trkpt><trkpt lat="40.95390155242149" lon="14.614214667342106"><ele>192.20000000000002</ele><time>2026-04-12T11:06:11Z</time></trkpt><trkpt lat="40.953899180353055" lon="14.61408266000344"><ele>191.8</ele><time>2026-04-12T11:06:12Z</time></trkpt><trkpt lat="40.95390283890487" lon="14.613939430806983"><ele>191.4</ele><time>2026-04-12T11:06:13Z</time></trkpt><trkpt lat="40.95392642004376" lon="14.613804547411194"><ele>191.0</ele><time>2026-04-12T11:06:14Z</time></trkpt><trkpt lat="40.95395787297032" lon="14.613687438505437"><ele>190.60000000000002</ele><time>2026-04-12T11:06:15Z</time></trkpt><trkpt lat="40.953998457113805" lon="14.613570654543654"><ele>190.2</ele><time>2026-04-12T11:06:16Z</time></trkpt><trkpt lat="40.95402943066912" lon="14.613457628478098"><ele>189.8</ele><time>2026-04-12T11:06:17Z</time></trkpt><trkpt lat="40.9540791906251" lon="14.613355766443968"><ele>189.39999999999998</ele><time>2026-04-12T11:06:18Z</time></trkpt><trkpt lat="40.9541297537561" lon="14.613248341382029"><ele>189.0</ele><time>2026-04-12T11:06:19Z</time></trkpt><trkpt lat="40.95418391245396" lon="14.613146590776404"><ele>189.33333333333334</ele><time>2026-04-12T11:06:20Z</time></trkpt><trkpt lat="40.95423027507583" lon="14.6130465938344"><ele>189.66666666666666</ele><time>2026-04-12T11:06:21Z</time></trkpt><trkpt lat="40.954274758396146" lon="14.61294639181344"><ele>190.0</ele><time>2026-04-12T11:06:22Z</time></trkpt><trkpt lat="40.95432309123479" lon="14.612844600053785"><ele>190.33333333333331</ele><time>2026-04-12T11:06:23Z</time></trkpt><trkpt lat="40.95437084658017" lon="14.612738761193613"><ele>190.66666666666666</ele><time>2026-04-12T11:06:24Z</time></trkpt><trkpt lat="40.95442063050497" lon="14.612648357416859"><ele>191.0</ele><time>2026-04-12T11:06:25Z</time></trkpt><trkpt lat="40.954467312828456" lon="14.61256587924051"><ele>191.0</ele><time>2026-04-12T11:06:26Z</time></trkpt><trkpt lat="40.95451211480326" lon="14.612474877811357"><ele>191.0</ele><time>2026-04-12T11:06:27Z</time></trkpt><trkpt lat="40.954571683009874" lon="14.612386054145453"><ele>191.0</ele><time>2026-04-12T11:06:28Z</time></trkpt><trkpt lat="40.954626097326745" lon="14.61230622203629"><ele>191.0</ele><time>2026-04-12T11:06:29Z</time></trkpt><trkpt lat="40.95467704533629" lon="14.612232537667206"><ele>191.0</ele><time>2026-04-12T11:06:30Z</time></trkpt><trkpt lat="40.954733711775766" lon="14.612150693924022"><ele>191.0</ele><time>2026-04-12T11:06:31Z</time></trkpt><trkpt lat="40.954790021934635" lon="14.612059793245932"><ele>191.0</ele><time>2026-04-12T11:06:32Z</time></trkpt><trkpt lat="40.954838035323526" lon="14.611959670815024"><ele>191.0</ele><time>2026-04-12T11:06:33Z</time></trkpt><trkpt lat="40.954865843193495" lon="14.611841853508166"><ele>191.0</ele><time>2026-04-12T11:06:34Z</time></trkpt><trkpt lat="40.95488326308046" lon="14.611718518521027"><ele>191.0</ele><time>2026-04-12T11:06:35Z</time></trkpt><trkpt lat="40.95489715623775" lon="14.611593449081013"><ele>191.0</ele><time>2026-04-12T11:06:36Z</time></trkpt><trkpt lat="40.95489908263925" lon="14.611461982837513"><ele>191.0</ele><time>2026-04-12T11:06:37Z</time></trkpt><trkpt lat="40.954901742488666" lon="14.611331547522763"><ele>191.0</ele><time>2026-04-12T11:06:38Z</time></trkpt><trkpt lat="40.95491041352267" lon="14.611196830205769"><ele>191.0</ele><time>2026-04-12T11:06:39Z</time></trkpt><trkpt lat="40.95491459395648" lon="14.611064255946074"><ele>191.0</ele><time>2026-04-12T11:06:40Z</time></trkpt><trkpt lat="40.95491337513615" lon="14.610917592882275"><ele>191.0</ele><time>2026-04-12T11:06:41Z</time></trkpt><trkpt lat="40.95489914170378" lon="14.610774846074609"><ele>190.75</ele><time>2026-04-12T11:06:42Z</time></trkpt><trkpt lat="40.954918918807266" lon="14.610621953001983"><ele>190.5</ele><time>2026-04-12T11:06:43Z</time></trkpt><trkpt lat="40.9549229261234" lon="14.610471209230912"><ele>190.25</ele><time>2026-04-12T11:06:44Z</time></trkpt><trkpt lat="40.954961331456026" lon="14.610326301292305"><ele>190.0</ele><time>2026-04-12T11:06:45Z</time></trkpt><trkpt lat="40.955014104474216" lon="14.61019488652384"><ele>191.0</ele><time>2026-04-12T11:06:46Z</time></trkpt><trkpt lat="40.95509792761534" lon="14.610071303565508"><ele>192.0</ele><time>2026-04-12T11:06:47Z</time></trkpt><trkpt lat="40.955197908507905" lon="14.609962649111482"><ele>193.0</ele><time>2026-04-12T11:06:48Z</time></trkpt><trkpt lat="40.95530820512229" lon="14.609856743440002"><ele>194.0</ele><time>2026-04-12T11:06:49Z</time></trkpt><trkpt lat="40.955406998550565" lon="14.609751772243898"><ele>194.0</ele><time>2026-04-12T11:06:50Z</time></trkpt><trkpt lat="40.955500758159005" lon="14.609659363068095"><ele>194.0</ele><time>2026-04-12T11:06:51Z</time></trkpt><trkpt lat="40.95559349358375" lon="14.609575450189459"><ele>194.0</ele><time>2026-04-12T11:06:52Z</time></trkpt><trkpt lat="40.955675840284705" lon="14.60949380027087"><ele>194.0</ele><time>2026-04-12T11:06:53Z</time></trkpt><trkpt lat="40.95575764789145" lon="14.609405584324561"><ele>194.0</ele><time>2026-04-12T11:06:54Z</time></trkpt><trkpt lat="40.955839883134175" lon="14.609325187850029"><ele>194.2</ele><time>2026-04-12T11:06:55Z</time></trkpt><trkpt lat="40.955915459474426" lon="14.609254773094762"><ele>194.39999999999998</ele><time>2026-04-12T11:06:56Z</time></trkpt><trkpt lat="40.955979780583846" lon="14.609183225019997"><ele>194.6</ele><time>2026-04-12T11:06:57Z</time></trkpt><trkpt lat="40.9560330124899" lon="14.609115370948631"><ele>194.8</ele><time>2026-04-12T11:06:58Z</time></trkpt><trkpt lat="40.956104446708444" lon="14.60907210284379"><ele>195.0</ele><time>2026-04-12T11:07:00Z</time></trkpt><trkpt lat="40.9560466530558" lon="14.60892310069279"><ele>195.0</ele><time>2026-04-12T11:07:01Z</time></trkpt><trkpt lat="40.95602857292251" lon="14.60876404822613"><ele>195.0</ele><time>2026-04-12T11:07:03Z</time></trkpt><trkpt lat="40.95602596031341" lon="14.608611372878704"><ele>195.0</ele><time>2026-04-12T11:07:05Z</time></trkpt><trkpt lat="40.95601681950294" lon="14.608458382558101"><ele>195.0</ele><time>2026-04-12T11:07:07Z</time></trkpt><trkpt lat="40.956005949868214" lon="14.608367740772966"><ele>195.0</ele><time>2026-04-12T11:07:08Z</time></trkpt><trkpt lat="40.95599896713784" lon="14.60827634554839"><ele>195.33333333333334</ele><time>2026-04-12T11:07:09Z</time></trkpt><trkpt lat="40.95600217290004" lon="14.608134718856459"><ele>195.66666666666669</ele><time>2026-04-12T11:07:11Z</time></trkpt><trkpt lat="40.955992938582455" lon="14.608035922934297"><ele>196.0</ele><time>2026-04-12T11:07:13Z</time></trkpt><trkpt lat="40.956036118145896" lon="14.60797178174506"><ele>196.33333333333334</ele><time>2026-04-12T11:09:23Z</time></trkpt><trkpt lat="40.95611107494043" lon="14.607973360607563"><ele>196.66666666666669</ele><time>2026-04-12T11:09:35Z</time></trkpt><trkpt lat="40.9562063890556" lon="14.607980729209554"><ele>197.0</ele><time>2026-04-12T11:09:44Z</time></trkpt><trkpt lat="40.956236789138366" lon="14.607899714358359"><ele>197.0</ele><time>2026-04-12T11:11:41Z</time></trkpt><trkpt lat="40.95618863742355" lon="14.607970612913137"><ele>197.0</ele><time>2026-04-12T11:22:19Z</time></trkpt><trkpt lat="40.956120820943084" lon="14.607976138388892"><ele>197.0</ele><time>2026-04-12T11:22:27Z</time></trkpt><trkpt lat="40.95605716336306" lon="14.607955346988243"><ele>197.0</ele><time>2026-04-12T11:22:49Z</time></trkpt><trkpt lat="40.95599555511353" lon="14.607975473396236"><ele>197.0</ele><time>2026-04-12T11:22:55Z</time></trkpt><trkpt lat="40.955992513603505" lon="14.608061747008348"><ele>197.0</ele><time>2026-04-12T11:22:59Z</time></trkpt><trkpt lat="40.9559809108367" lon="14.608144137925171"><ele>197.0</ele><time>2026-04-12T11:23:03Z</time></trkpt><trkpt lat="40.955986401425285" lon="14.608233721319252"><ele>197.0</ele><time>2026-04-12T11:29:31Z</time></trkpt><trkpt lat="40.955997252965226" lon="14.608332901530577"><ele>197.0</ele><time>2026-04-12T11:29:36Z</time></trkpt><trkpt lat="40.956003111294216" lon="14.608421091290321"><ele>197.0</ele><time>2026-04-12T11:29:41Z</time></trkpt><trkpt lat="40.95602522582587" lon="14.608503153685739"><ele>197.0</ele><time>2026-04-12T11:29:49Z</time></trkpt><trkpt lat="40.956026691485555" lon="14.608627383814952"><ele>197.0</ele><time>2026-04-12T11:29:52Z</time></trkpt><trkpt lat="40.956028016542916" lon="14.608728663452771"><ele>197.0</ele><time>2026-04-12T11:29:54Z</time></trkpt><trkpt lat="40.956030456873854" lon="14.60882122902961"><ele>197.0</ele><time>2026-04-12T11:29:56Z</time></trkpt><trkpt lat="40.95603646961104" lon="14.608911358311056"><ele>196.66666666666669</ele><time>2026-04-12T11:29:58Z</time></trkpt><trkpt lat="40.95604596009408" lon="14.608999285927998"><ele>196.33333333333334</ele><time>2026-04-12T11:30:01Z</time></trkpt><trkpt lat="40.95603765162935" lon="14.609102021443315"><ele>196.0</ele><time>2026-04-12T11:30:11Z</time></trkpt><trkpt lat="40.95598342231652" lon="14.609154799559544"><ele>195.66666666666669</ele><time>2026-04-12T11:30:13Z</time></trkpt><trkpt lat="40.955905121200175" lon="14.609224499452102"><ele>195.33333333333334</ele><time>2026-04-12T11:30:15Z</time></trkpt><trkpt lat="40.95580736207237" lon="14.609316919995301"><ele>195.0</ele><time>2026-04-12T11:30:16.999Z</time></trkpt><trkpt lat="40.95575117342172" lon="14.609375831669936"><ele>194.83333333333334</ele><time>2026-04-12T11:30:17.999Z</time></trkpt><trkpt lat="40.955689278737" lon="14.609435632340245"><ele>194.66666666666669</ele><time>2026-04-12T11:30:18.999Z</time></trkpt><trkpt lat="40.95562491668712" lon="14.609497715548763"><ele>194.5</ele><time>2026-04-12T11:30:19.999Z</time></trkpt><trkpt lat="40.95556090423096" lon="14.60956204825068"><ele>194.33333333333334</ele><time>2026-04-12T11:30:20.999Z</time></trkpt><trkpt lat="40.955492732603204" lon="14.609627956229756"><ele>194.16666666666669</ele><time>2026-04-12T11:30:21.999Z</time></trkpt><trkpt lat="40.955427182116" lon="14.609693607047173"><ele>194.0</ele><time>2026-04-12T11:30:22.999Z</time></trkpt><trkpt lat="40.95536167178546" lon="14.609759497747408"><ele>194.00000000000003</ele><time>2026-04-12T11:30:23.999Z</time></trkpt><trkpt lat="40.95529607045002" lon="14.609824390785615"><ele>194.0</ele><time>2026-04-12T11:30:24.999Z</time></trkpt><trkpt lat="40.9552283253201" lon="14.609889562361905"><ele>194.0</ele><time>2026-04-12T11:30:25.999Z</time></trkpt><trkpt lat="40.95516147495364" lon="14.609956896410193"><ele>194.0</ele><time>2026-04-12T11:30:26.999Z</time></trkpt><trkpt lat="40.955096456037126" lon="14.61002821429603"><ele>194.00000000000003</ele><time>2026-04-12T11:30:27.999Z</time></trkpt><trkpt lat="40.9550369124266" lon="14.61011181625198"><ele>194.0</ele><time>2026-04-12T11:30:28.999Z</time></trkpt><trkpt lat="40.95498600447633" lon="14.610207232491765"><ele>193.2</ele><time>2026-04-12T11:30:29.999Z</time></trkpt><trkpt lat="40.9549440896855" lon="14.610316389271619"><ele>192.39999999999998</ele><time>2026-04-12T11:30:30.999Z</time></trkpt><trkpt lat="40.954911807034996" lon="14.610431513390598"><ele>191.6</ele><time>2026-04-12T11:30:31.999Z</time></trkpt><trkpt lat="40.95489253387787" lon="14.610558256006158"><ele>190.8</ele><time>2026-04-12T11:30:32.999Z</time></trkpt><trkpt lat="40.95488937836823" lon="14.610681761280855"><ele>190.0</ele><time>2026-04-12T11:30:33.999Z</time></trkpt><trkpt lat="40.95489212732081" lon="14.610785257810694"><ele>190.0</ele><time>2026-04-12T11:30:34.999Z</time></trkpt><trkpt lat="40.954892038146994" lon="14.610877807972823"><ele>190.0</ele><time>2026-04-12T11:30:35.999Z</time></trkpt><trkpt lat="40.95489063390601" lon="14.610968265086449"><ele>190.0</ele><time>2026-04-12T11:30:36.999Z</time></trkpt><trkpt lat="40.95489017082499" lon="14.611056277381246"><ele>190.0</ele><time>2026-04-12T11:30:37.999Z</time></trkpt><trkpt lat="40.95489141308689" lon="14.611145093631347"><ele>190.0</ele><time>2026-04-12T11:30:38.999Z</time></trkpt><trkpt lat="40.954891469161154" lon="14.61123973589772"><ele>190.0</ele><time>2026-04-12T11:30:39.999Z</time></trkpt><trkpt lat="40.954891244002475" lon="14.611333364555653"><ele>190.0</ele><time>2026-04-12T11:30:40.999Z</time></trkpt><trkpt lat="40.954890043187994" lon="14.611425730151801"><ele>190.2</ele><time>2026-04-12T11:30:41.999Z</time></trkpt><trkpt lat="40.954886946893524" lon="14.61151350147168"><ele>190.4</ele><time>2026-04-12T11:30:42.999Z</time></trkpt><trkpt lat="40.954878413637566" lon="14.611596120871909"><ele>190.60000000000002</ele><time>2026-04-12T11:30:43.999Z</time></trkpt><trkpt lat="40.95483852134741" lon="14.611750527619543"><ele>190.8</ele><time>2026-04-12T11:30:45.999Z</time></trkpt><trkpt lat="40.95477780825289" lon="14.61188385299918"><ele>191.0</ele><time>2026-04-12T11:30:47.999Z</time></trkpt><trkpt lat="40.95463868569051" lon="14.611923524121092"><ele>191.0</ele><time>2026-04-12T11:30:49.999Z</time></trkpt><trkpt lat="40.95457193410197" lon="14.6119348229615"><ele>191.0</ele><time>2026-04-12T11:30:50.999Z</time></trkpt><trkpt lat="40.95450058391335" lon="14.611951175206105"><ele>191.0</ele><time>2026-04-12T11:30:51.999Z</time></trkpt><trkpt lat="40.954428108099734" lon="14.611975548074819"><ele>191.0</ele><time>2026-04-12T11:30:52.999Z</time></trkpt><trkpt lat="40.9543525558471" lon="14.612003847822104"><ele>191.0</ele><time>2026-04-12T11:30:53.999Z</time></trkpt><trkpt lat="40.95427022672856" lon="14.612008303828045"><ele>191.0</ele><time>2026-04-12T11:30:54.999Z</time></trkpt><trkpt lat="40.95419014338371" lon="14.612028146125345"><ele>190.83333333333331</ele><time>2026-04-12T11:30:55.999Z</time></trkpt><trkpt lat="40.954110065550054" lon="14.61204798707756"><ele>190.66666666666666</ele><time>2026-04-12T11:30:56.999Z</time></trkpt><trkpt lat="40.95403195247407" lon="14.612086912961946"><ele>190.5</ele><time>2026-04-12T11:30:57.999Z</time></trkpt><trkpt lat="40.95394795110537" lon="14.612098099455505"><ele>190.33333333333334</ele><time>2026-04-12T11:30:58.999Z</time></trkpt><trkpt lat="40.953863183223476" lon="14.612113404627253"><ele>190.16666666666669</ele><time>2026-04-12T11:30:59.999Z</time></trkpt><trkpt lat="40.95377923934626" lon="14.612132234371519"><ele>190.0</ele><time>2026-04-12T11:31:00.999Z</time></trkpt><trkpt lat="40.95369512245319" lon="14.61215250018035"><ele>190.0</ele><time>2026-04-12T11:31:01.999Z</time></trkpt><trkpt lat="40.95361011451111" lon="14.612172543505727"><ele>190.0</ele><time>2026-04-12T11:31:02.999Z</time></trkpt><trkpt lat="40.95352396563021" lon="14.612193547524965"><ele>190.0</ele><time>2026-04-12T11:31:03.999Z</time></trkpt><trkpt lat="40.95343694556001" lon="14.612214488891809"><ele>190.0</ele><time>2026-04-12T11:31:04.999Z</time></trkpt><trkpt lat="40.953347872608575" lon="14.612234123705282"><ele>190.0</ele><time>2026-04-12T11:31:05.999Z</time></trkpt><trkpt lat="40.95325751654912" lon="14.612253496699092"><ele>190.0</ele><time>2026-04-12T11:31:06.999Z</time></trkpt><trkpt lat="40.95316579272743" lon="14.612273738170153"><ele>189.6</ele><time>2026-04-12T11:31:07.999Z</time></trkpt><trkpt lat="40.95307368344047" lon="14.612295367182384"><ele>189.2</ele><time>2026-04-12T11:31:08.999Z</time></trkpt><trkpt lat="40.95298044409156" lon="14.612319082340187"><ele>188.8</ele><time>2026-04-12T11:31:09.999Z</time></trkpt><trkpt lat="40.95288684390246" lon="14.612343672911098"><ele>188.4</ele><time>2026-04-12T11:31:10.999Z</time></trkpt><trkpt lat="40.95279408052803" lon="14.612369253956889"><ele>188.0</ele><time>2026-04-12T11:31:11.999Z</time></trkpt><trkpt lat="40.952704969977034" lon="14.612396523744213"><ele>188.0</ele><time>2026-04-12T11:31:12.999Z</time></trkpt><trkpt lat="40.95261753123443" lon="14.612418736271053"><ele>188.0</ele><time>2026-04-12T11:31:13.998Z</time></trkpt><trkpt lat="40.95253024897921" lon="14.612434811706356"><ele>188.0</ele><time>2026-04-12T11:31:14.998Z</time></trkpt><trkpt lat="40.9524451027948" lon="14.612451786534157"><ele>188.0</ele><time>2026-04-12T11:31:15.998Z</time></trkpt><trkpt lat="40.952363502048506" lon="14.612472196796356"><ele>188.0</ele><time>2026-04-12T11:31:16.998Z</time></trkpt><trkpt lat="40.95228693963767" lon="14.612491240793036"><ele>188.0</ele><time>2026-04-12T11:31:17.998Z</time></trkpt><trkpt lat="40.952212407377225" lon="14.612504176479053"><ele>188.0</ele><time>2026-04-12T11:31:18.998Z</time></trkpt><trkpt lat="40.952142207325664" lon="14.612511331820043"><ele>188.0</ele><time>2026-04-12T11:31:19.998Z</time></trkpt><trkpt lat="40.95203797691082" lon="14.612511708050214"><ele>188.0</ele><time>2026-04-12T11:31:21.998Z</time></trkpt><trkpt lat="40.95197153804777" lon="14.612515473113838"><ele>188.0</ele><time>2026-04-12T11:31:28.998Z</time></trkpt><trkpt lat="40.95192432133116" lon="14.612634206720994"><ele>188.0</ele><time>2026-04-12T11:31:31.998Z</time></trkpt><trkpt lat="40.95192460785507" lon="14.612763065180818"><ele>188.0</ele><time>2026-04-12T11:31:33.998Z</time></trkpt><trkpt lat="40.95189194718449" lon="14.612918197789183"><ele>188.0</ele><time>2026-04-12T11:31:35.998Z</time></trkpt><trkpt lat="40.95181682999031" lon="14.613040775596867"><ele>188.0</ele><time>2026-04-12T11:31:37.998Z</time></trkpt><trkpt lat="40.95175894159754" lon="14.613078522653566"><ele>188.0</ele><time>2026-04-12T11:31:38.998Z</time></trkpt><trkpt lat="40.95169121235725" lon="14.613105284375914"><ele>188.0</ele><time>2026-04-12T11:31:39.998Z</time></trkpt><trkpt lat="40.95161338679475" lon="14.613126448673771"><ele>188.0</ele><time>2026-04-12T11:31:40.998Z</time></trkpt><trkpt lat="40.9515237215914" lon="14.613144449281643"><ele>188.0</ele><time>2026-04-12T11:31:41.998Z</time></trkpt><trkpt lat="40.95143657525086" lon="14.613157950504549"><ele>187.8</ele><time>2026-04-12T11:31:42.998Z</time></trkpt><trkpt lat="40.951342788694106" lon="14.61317166560424"><ele>187.60000000000002</ele><time>2026-04-12T11:31:43.998Z</time></trkpt><trkpt lat="40.951245129467516" lon="14.613186154059274"><ele>187.39999999999998</ele><time>2026-04-12T11:31:44.998Z</time></trkpt><trkpt lat="40.95114399971273" lon="14.613200250080311"><ele>187.2</ele><time>2026-04-12T11:31:45.998Z</time></trkpt><trkpt lat="40.951041450805356" lon="14.613214423946024"><ele>187.0</ele><time>2026-04-12T11:31:46.998Z</time></trkpt><trkpt lat="40.9509361715516" lon="14.613228931687377"><ele>186.8</ele><time>2026-04-12T11:31:47.999Z</time></trkpt><trkpt lat="40.95082965412065" lon="14.613244702703721"><ele>186.6</ele><time>2026-04-12T11:31:48.999Z</time></trkpt><trkpt lat="40.95072070520465" lon="14.613261039373954"><ele>186.4</ele><time>2026-04-12T11:31:49.999Z</time></trkpt><trkpt lat="40.95061084889027" lon="14.613278375294426"><ele>186.20000000000002</ele><time>2026-04-12T11:31:50.999Z</time></trkpt><trkpt lat="40.950501370800765" lon="14.61329580629131"><ele>186.0</ele><time>2026-04-12T11:31:51.999Z</time></trkpt><trkpt lat="40.95039048200769" lon="14.613314254469639"><ele>186.0</ele><time>2026-04-12T11:31:52.999Z</time></trkpt><trkpt lat="40.95027922502863" lon="14.61333340050252"><ele>186.0</ele><time>2026-04-12T11:31:53.999Z</time></trkpt><trkpt lat="40.95016669470115" lon="14.61335071602931"><ele>186.0</ele><time>2026-04-12T11:31:54.999Z</time></trkpt><trkpt lat="40.950052951865125" lon="14.613367563845802"><ele>186.0</ele><time>2026-04-12T11:31:55.999Z</time></trkpt><trkpt lat="40.94993771660672" lon="14.613385171438221"><ele>186.0</ele><time>2026-04-12T11:31:56.999Z</time></trkpt><trkpt lat="40.94982103858329" lon="14.613402206433875"><ele>186.0</ele><time>2026-04-12T11:31:57.999Z</time></trkpt><trkpt lat="40.949703096194476" lon="14.613419554861618"><ele>186.0</ele><time>2026-04-12T11:31:58.999Z</time></trkpt><trkpt lat="40.94958415544044" lon="14.613435920204983"><ele>186.0</ele><time>2026-04-12T11:31:59.999Z</time></trkpt><trkpt lat="40.94946506012784" lon="14.613452935421595"><ele>186.0</ele><time>2026-04-12T11:32:00.999Z</time></trkpt><trkpt lat="40.94934519567108" lon="14.613470372330855"><ele>186.0</ele><time>2026-04-12T11:32:01.999Z</time></trkpt><trkpt lat="40.94922602065458" lon="14.613489177131443"><ele>186.0</ele><time>2026-04-12T11:32:02.999Z</time></trkpt><trkpt lat="40.94910535287937" lon="14.613506696799856"><ele>186.0</ele><time>2026-04-12T11:32:03.999Z</time></trkpt><trkpt lat="40.94898334717541" lon="14.61352369744368"><ele>185.75</ele><time>2026-04-12T11:32:04.999Z</time></trkpt><trkpt lat="40.94886141875633" lon="14.613544323546021"><ele>185.5</ele><time>2026-04-12T11:32:05.999Z</time></trkpt><trkpt lat="40.94874118773741" lon="14.613572409691946"><ele>185.25</ele><time>2026-04-12T11:32:06.999Z</time></trkpt><trkpt lat="40.94862537098207" lon="14.613616579316403"><ele>185.0</ele><time>2026-04-12T11:32:07.999Z</time></trkpt><trkpt lat="40.948514961731895" lon="14.613679340426955"><ele>185.75</ele><time>2026-04-12T11:32:08.999Z</time></trkpt><trkpt lat="40.94840996813852" lon="14.613763402748576"><ele>186.5</ele><time>2026-04-12T11:32:09.999Z</time></trkpt><trkpt lat="40.9483141372089" lon="14.61386496034662"><ele>187.25</ele><time>2026-04-12T11:32:10.999Z</time></trkpt><trkpt lat="40.94823053241855" lon="14.6139827012619"><ele>188.0</ele><time>2026-04-12T11:32:11.999Z</time></trkpt><trkpt lat="40.94815946867352" lon="14.614113089769424"><ele>188.0</ele><time>2026-04-12T11:32:12.999Z</time></trkpt><trkpt lat="40.94810214231034" lon="14.614252619026594"><ele>188.0</ele><time>2026-04-12T11:32:13.999Z</time></trkpt><trkpt lat="40.948058789019385" lon="14.614397896072528"><ele>188.0</ele><time>2026-04-12T11:32:14.999Z</time></trkpt><trkpt lat="40.948023813227145" lon="14.614550606101025"><ele>188.0</ele><time>2026-04-12T11:32:15.999Z</time></trkpt><trkpt lat="40.94800742424421" lon="14.614707187743525"><ele>189.25</ele><time>2026-04-12T11:32:16.999Z</time></trkpt><trkpt lat="40.94800437755865" lon="14.614867476032629"><ele>190.5</ele><time>2026-04-12T11:32:17.999Z</time></trkpt><trkpt lat="40.94801095313893" lon="14.615028487807438"><ele>191.75</ele><time>2026-04-12T11:32:18.999Z</time></trkpt><trkpt lat="40.94802439277575" lon="14.615187801184671"><ele>193.0</ele><time>2026-04-12T11:32:19.999Z</time></trkpt><trkpt lat="40.9480376161531" lon="14.61534662137399"><ele>193.75</ele><time>2026-04-12T11:32:20.999Z</time></trkpt><trkpt lat="40.94805105140762" lon="14.615504880999753"><ele>194.5</ele><time>2026-04-12T11:32:21.999Z</time></trkpt><trkpt lat="40.94806274348249" lon="14.615663788682781"><ele>195.25</ele><time>2026-04-12T11:32:22.999Z</time></trkpt><trkpt lat="40.94807567790983" lon="14.615822316232743"><ele>196.0</ele><time>2026-04-12T11:32:23.999Z</time></trkpt><trkpt lat="40.948088785264794" lon="14.615981645103885"><ele>196.0</ele><time>2026-04-12T11:32:24.999Z</time></trkpt><trkpt lat="40.94810341921534" lon="14.616140823865896"><ele>196.0</ele><time>2026-04-12T11:32:25.999Z</time></trkpt><trkpt lat="40.94811904958264" lon="14.616299576847823"><ele>196.0</ele><time>2026-04-12T11:32:26.999Z</time></trkpt><trkpt lat="40.94813299101834" lon="14.616457759998841"><ele>196.0</ele><time>2026-04-12T11:32:27.999Z</time></trkpt><trkpt lat="40.948146898391364" lon="14.616617675868056"><ele>196.5</ele><time>2026-04-12T11:32:28.999Z</time></trkpt><trkpt lat="40.94816016095162" lon="14.616779249782658"><ele>197.0</ele><time>2026-04-12T11:32:29.999Z</time></trkpt><trkpt lat="40.948171572952596" lon="14.6169421382288"><ele>197.5</ele><time>2026-04-12T11:32:30.999Z</time></trkpt><trkpt lat="40.94818349883093" lon="14.617106196583363"><ele>198.0</ele><time>2026-04-12T11:32:31.999Z</time></trkpt><trkpt lat="40.94819463957608" lon="14.617269577925857"><ele>198.5</ele><time>2026-04-12T11:32:32.999Z</time></trkpt><trkpt lat="40.94820706283133" lon="14.617432499247078"><ele>199.0</ele><time>2026-04-12T11:32:33.999Z</time></trkpt><trkpt lat="40.94821999855794" lon="14.617599094443019"><ele>199.5</ele><time>2026-04-12T11:32:34.999Z</time></trkpt><trkpt lat="40.948233043499016" lon="14.617768954388357"><ele>200.0</ele><time>2026-04-12T11:32:35.999Z</time></trkpt><trkpt lat="40.94824634920125" lon="14.617938424355845"><ele>201.0</ele><time>2026-04-12T11:32:36.999Z</time></trkpt><trkpt lat="40.9482604451643" lon="14.6181051970461"><ele>202.0</ele><time>2026-04-12T11:32:37.999Z</time></trkpt><trkpt lat="40.94827543590171" lon="14.618269718029255"><ele>203.0</ele><time>2026-04-12T11:32:38.999Z</time></trkpt><trkpt lat="40.948291612921345" lon="14.618432619916446"><ele>204.0</ele><time>2026-04-12T11:32:39.999Z</time></trkpt><trkpt lat="40.94830607563094" lon="14.61859039080108"><ele>204.79999999999998</ele><time>2026-04-12T11:32:40.999Z</time></trkpt><trkpt lat="40.94831879657548" lon="14.618744227589973"><ele>205.6</ele><time>2026-04-12T11:32:41.999Z</time></trkpt><trkpt lat="40.94833143998677" lon="14.618892330651882"><ele>206.4</ele><time>2026-04-12T11:32:42.999Z</time></trkpt><trkpt lat="40.948343452306474" lon="14.619032543147481"><ele>207.2</ele><time>2026-04-12T11:32:43.999Z</time></trkpt><trkpt lat="40.94835358575634" lon="14.619161361750036"><ele>208.0</ele><time>2026-04-12T11:32:44.999Z</time></trkpt><trkpt lat="40.94836088080605" lon="14.61927442014097"><ele>207.99999999999997</ele><time>2026-04-12T11:32:45.999Z</time></trkpt><trkpt lat="40.9483645605319" lon="14.619363731407715"><ele>208.0</ele><time>2026-04-12T11:32:46.999Z</time></trkpt><trkpt lat="40.94834106673561" lon="14.61946074351356"><ele>208.0</ele><time>2026-04-12T11:32:48.999Z</time></trkpt><trkpt lat="40.948280734689476" lon="14.619512513956"><ele>208.0</ele><time>2026-04-12T11:32:50.999Z</time></trkpt><trkpt lat="40.948173330061394" lon="14.619566509607056"><ele>207.99999999999997</ele><time>2026-04-12T11:32:52.999Z</time></trkpt><trkpt lat="40.94810466332319" lon="14.619599634284562"><ele>208.0</ele><time>2026-04-12T11:32:53.999Z</time></trkpt><trkpt lat="40.94803319280803" lon="14.6196395139613"><ele>208.33333333333331</ele><time>2026-04-12T11:32:54.999Z</time></trkpt><trkpt lat="40.94795690178593" lon="14.619684001675"><ele>208.66666666666666</ele><time>2026-04-12T11:32:55.999Z</time></trkpt><trkpt lat="40.94788090623895" lon="14.619734059270264"><ele>209.0</ele><time>2026-04-12T11:32:56.999Z</time></trkpt><trkpt lat="40.94780176415527" lon="14.619787660245937"><ele>209.33333333333331</ele><time>2026-04-12T11:32:57.999Z</time></trkpt><trkpt lat="40.94772242210733" lon="14.619844367441118"><ele>209.66666666666666</ele><time>2026-04-12T11:32:58.999Z</time></trkpt><trkpt lat="40.9476431975616" lon="14.619905967668606"><ele>210.0</ele><time>2026-04-12T11:32:59.999Z</time></trkpt><trkpt lat="40.94756214984199" lon="14.61996369048229"><ele>210.0</ele><time>2026-04-12T11:33:00.999Z</time></trkpt><trkpt lat="40.9474833885114" lon="14.620018465494388"><ele>210.0</ele><time>2026-04-12T11:33:01.999Z</time></trkpt><trkpt lat="40.94740442026071" lon="14.620073494870473"><ele>210.0</ele><time>2026-04-12T11:33:02.999Z</time></trkpt><trkpt lat="40.94732334065666" lon="14.620130383902303"><ele>210.0</ele><time>2026-04-12T11:33:03.999Z</time></trkpt><trkpt lat="40.94724424213341" lon="14.620190976545539"><ele>210.0</ele><time>2026-04-12T11:33:04.999Z</time></trkpt><trkpt lat="40.947165074712046" lon="14.620255225125227"><ele>210.8</ele><time>2026-04-12T11:33:05.999Z</time></trkpt><trkpt lat="40.94708605663535" lon="14.620323993906684"><ele>211.6</ele><time>2026-04-12T11:33:06.999Z</time></trkpt><trkpt lat="40.94700525343394" lon="14.620400007415219"><ele>212.39999999999998</ele><time>2026-04-12T11:33:07.999Z</time></trkpt><trkpt lat="40.946923987340426" lon="14.62047989580475"><ele>213.2</ele><time>2026-04-12T11:33:08.999Z</time></trkpt><trkpt lat="40.94684415566148" lon="14.620566573451288"><ele>214.0</ele><time>2026-04-12T11:33:09.999Z</time></trkpt><trkpt lat="40.94676355131789" lon="14.620655632253062"><ele>213.79999999999998</ele><time>2026-04-12T11:33:10.999Z</time></trkpt><trkpt lat="40.94667514367584" lon="14.620730361940884"><ele>213.59999999999997</ele><time>2026-04-12T11:33:11.999Z</time></trkpt><trkpt lat="40.94659687854919" lon="14.620818920407748"><ele>213.4</ele><time>2026-04-12T11:33:12.999Z</time></trkpt><trkpt lat="40.946524022449914" lon="14.620906029277768"><ele>213.2</ele><time>2026-04-12T11:33:13.999Z</time></trkpt><trkpt lat="40.94645108044495" lon="14.620989003712491"><ele>213.0</ele><time>2026-04-12T11:33:14.999Z</time></trkpt><trkpt lat="40.946380948968084" lon="14.621067559332605"><ele>213.0</ele><time>2026-04-12T11:33:15.999Z</time></trkpt><trkpt lat="40.94631008135987" lon="14.621142222737129"><ele>213.0</ele><time>2026-04-12T11:33:16.999Z</time></trkpt><trkpt lat="40.946239940136074" lon="14.62121014259122"><ele>213.0</ele><time>2026-04-12T11:33:17.999Z</time></trkpt><trkpt lat="40.946172454557924" lon="14.621266508656438"><ele>213.0</ele><time>2026-04-12T11:33:18.999Z</time></trkpt><trkpt lat="40.94610787925593" lon="14.621307181987442"><ele>213.0</ele><time>2026-04-12T11:33:19.998Z</time></trkpt><trkpt lat="40.94604017262213" lon="14.621343113975765"><ele>213.0</ele><time>2026-04-12T11:33:20.998Z</time></trkpt><trkpt lat="40.94597227095573" lon="14.621374739098636"><ele>213.28571428571428</ele><time>2026-04-12T11:33:21.998Z</time></trkpt><trkpt lat="40.94591011964723" lon="14.621408790366157"><ele>213.57142857142856</ele><time>2026-04-12T11:33:22.998Z</time></trkpt><trkpt lat="40.945825062842346" lon="14.621430183855166"><ele>213.85714285714283</ele><time>2026-04-12T11:33:24.998Z</time></trkpt><trkpt lat="40.94576205513283" lon="14.621430712881581"><ele>214.14285714285714</ele><time>2026-04-12T11:33:28.998Z</time></trkpt><trkpt lat="40.945700233206004" lon="14.621458920128637"><ele>214.42857142857144</ele><time>2026-04-12T11:33:31.998Z</time></trkpt><trkpt lat="40.94561481370181" lon="14.621476715556632"><ele>214.7142857142857</ele><time>2026-04-12T11:36:01Z</time></trkpt><trkpt lat="40.94556925361763" lon="14.621536644743744"><ele>215.0</ele><time>2026-04-12T11:36:04Z</time></trkpt><trkpt lat="40.94551266813686" lon="14.621608936074983"><ele>215.0</ele><time>2026-04-12T11:36:07Z</time></trkpt><trkpt lat="40.9454175060573" lon="14.621651180694416"><ele>215.0</ele><time>2026-04-12T11:36:09Z</time></trkpt><trkpt lat="40.94530447545343" lon="14.62173003085678"><ele>215.0</ele><time>2026-04-12T11:36:11Z</time></trkpt><trkpt lat="40.94522891277154" lon="14.621791276762801"><ele>215.0</ele><time>2026-04-12T11:36:12Z</time></trkpt><trkpt lat="40.94517208814054" lon="14.621838304339057"><ele>215.0</ele><time>2026-04-12T11:36:13Z</time></trkpt><trkpt lat="40.945117619409004" lon="14.621908250957341"><ele>215.00000000000003</ele><time>2026-04-12T11:36:14Z</time></trkpt><trkpt lat="40.94505251304456" lon="14.621949862492148"><ele>215.0</ele><time>2026-04-12T11:36:15Z</time></trkpt><trkpt lat="40.944986043961485" lon="14.62199946796539"><ele>215.0</ele><time>2026-04-12T11:36:16Z</time></trkpt><trkpt lat="40.94491156133075" lon="14.622052182017002"><ele>215.0</ele><time>2026-04-12T11:36:17Z</time></trkpt><trkpt lat="40.944828255861175" lon="14.622074929776947"><ele>215.00000000000003</ele><time>2026-04-12T11:36:18Z</time></trkpt><trkpt lat="40.9447505067997" lon="14.622130492789351"><ele>215.0</ele><time>2026-04-12T11:36:19Z</time></trkpt><trkpt lat="40.94466027629228" lon="14.622164935151662"><ele>215.6</ele><time>2026-04-12T11:36:20Z</time></trkpt><trkpt lat="40.944556225514326" lon="14.622181682076777"><ele>216.2</ele><time>2026-04-12T11:36:21Z</time></trkpt><trkpt lat="40.9444572716572" lon="14.622216540824704"><ele>216.8</ele><time>2026-04-12T11:36:22Z</time></trkpt><trkpt lat="40.944363391003876" lon="14.622249612462404"><ele>217.4</ele><time>2026-04-12T11:36:23Z</time></trkpt><trkpt lat="40.94427078185411" lon="14.622282040444517"><ele>218.0</ele><time>2026-04-12T11:36:24Z</time></trkpt><trkpt lat="40.944181144133715" lon="14.62231325744259"><ele>218.00000000000003</ele><time>2026-04-12T11:36:25Z</time></trkpt><trkpt lat="40.94409596214598" lon="14.62234292267022"><ele>218.0</ele><time>2026-04-12T11:36:26Z</time></trkpt><trkpt lat="40.94401496223837" lon="14.622371131483629"><ele>218.0</ele><time>2026-04-12T11:36:27Z</time></trkpt><trkpt lat="40.94394105509673" lon="14.622396870216512"><ele>218.0</ele><time>2026-04-12T11:36:28Z</time></trkpt><trkpt lat="40.94387958848313" lon="14.622420966712307"><ele>218.00000000000003</ele><time>2026-04-12T11:36:29Z</time></trkpt><trkpt lat="40.943764194324004" lon="14.622427965475596"><ele>218.0</ele><time>2026-04-12T11:36:31Z</time></trkpt><trkpt lat="40.94370030338439" lon="14.622383187920578"><ele>218.0</ele><time>2026-04-12T11:36:32Z</time></trkpt><trkpt lat="40.943634738408925" lon="14.622321245156364"><ele>218.0</ele><time>2026-04-12T11:36:33Z</time></trkpt><trkpt lat="40.943565514216516" lon="14.62224045488968"><ele>218.0</ele><time>2026-04-12T11:36:34Z</time></trkpt><trkpt lat="40.94349253311239" lon="14.622155225260041"><ele>218.0</ele><time>2026-04-12T11:36:35Z</time></trkpt><trkpt lat="40.94341897158309" lon="14.622065875265415"><ele>218.0</ele><time>2026-04-12T11:36:36Z</time></trkpt><trkpt lat="40.94334449197752" lon="14.621974189567643"><ele>217.33333333333334</ele><time>2026-04-12T11:36:37Z</time></trkpt><trkpt lat="40.9432762012896" lon="14.621886630324285"><ele>216.66666666666669</ele><time>2026-04-12T11:36:38Z</time></trkpt><trkpt lat="40.9432158490689" lon="14.621810518731206"><ele>216.0</ele><time>2026-04-12T11:36:39Z</time></trkpt><trkpt lat="40.943162798530786" lon="14.621746501764337"><ele>215.33333333333331</ele><time>2026-04-12T11:36:40Z</time></trkpt><trkpt lat="40.94307814632375" lon="14.621650224739877"><ele>214.66666666666666</ele><time>2026-04-12T11:36:42Z</time></trkpt><trkpt lat="40.943012491754594" lon="14.621577669672433"><ele>214.0</ele><time>2026-04-12T11:36:44Z</time></trkpt><trkpt lat="40.942962276372775" lon="14.621506567854787"><ele>214.0</ele><time>2026-04-12T11:36:57Z</time></trkpt><trkpt lat="40.942897993498946" lon="14.621440221701773"><ele>213.99999999999997</ele><time>2026-04-12T11:36:59Z</time></trkpt><trkpt lat="40.942796583298914" lon="14.621321461346566"><ele>213.99999999999997</ele><time>2026-04-12T11:37:01Z</time></trkpt><trkpt lat="40.94273225759772" lon="14.621256751917196"><ele>214.0</ele><time>2026-04-12T11:37:02Z</time></trkpt><trkpt lat="40.9426579086543" lon="14.621192614570127"><ele>214.0</ele><time>2026-04-12T11:37:03Z</time></trkpt><trkpt lat="40.94257593869786" lon="14.621125278532649"><ele>213.2</ele><time>2026-04-12T11:37:04Z</time></trkpt><trkpt lat="40.942491270386775" lon="14.621059217502978"><ele>212.39999999999998</ele><time>2026-04-12T11:37:05Z</time></trkpt><trkpt lat="40.94240124664733" lon="14.62098982906896"><ele>211.6</ele><time>2026-04-12T11:37:06Z</time></trkpt><trkpt lat="40.942303288417804" lon="14.62091203190776"><ele>210.8</ele><time>2026-04-12T11:37:07Z</time></trkpt><trkpt lat="40.942199038180036" lon="14.620830178013543"><ele>210.0</ele><time>2026-04-12T11:37:08Z</time></trkpt><trkpt lat="40.9420925473595" lon="14.620746457849235"><ele>210.0</ele><time>2026-04-12T11:37:09Z</time></trkpt><trkpt lat="40.94198425489915" lon="14.620659355487442"><ele>210.0</ele><time>2026-04-12T11:37:10Z</time></trkpt><trkpt lat="40.941875551302054" lon="14.62056962877722"><ele>210.0</ele><time>2026-04-12T11:37:11Z</time></trkpt><trkpt lat="40.941768404844154" lon="14.620478405927201"><ele>210.0</ele><time>2026-04-12T11:37:12Z</time></trkpt><trkpt lat="40.9416636971396" lon="14.620386220218528"><ele>209.25</ele><time>2026-04-12T11:37:13Z</time></trkpt><trkpt lat="40.94156225875969" lon="14.620294160195845"><ele>208.5</ele><time>2026-04-12T11:37:14Z</time></trkpt><trkpt lat="40.941465812949374" lon="14.620204623933201"><ele>207.75</ele><time>2026-04-12T11:37:15Z</time></trkpt><trkpt lat="40.94137029385543" lon="14.620113986702863"><ele>207.0</ele><time>2026-04-12T11:37:16Z</time></trkpt><trkpt lat="40.941276870127474" lon="14.62002338232742"><ele>207.0</ele><time>2026-04-12T11:37:17Z</time></trkpt><trkpt lat="40.9411865155325" lon="14.619933176129166"><ele>207.0</ele><time>2026-04-12T11:37:18Z</time></trkpt><trkpt lat="40.94109894956205" lon="14.619844357184293"><ele>207.0</ele><time>2026-04-12T11:37:19Z</time></trkpt><trkpt lat="40.94101437538598" lon="14.61975445851929"><ele>207.0</ele><time>2026-04-12T11:37:20Z</time></trkpt><trkpt lat="40.940931480431395" lon="14.619661864876472"><ele>207.0</ele><time>2026-04-12T11:37:21Z</time></trkpt><trkpt lat="40.940855608022765" lon="14.619562549153127"><ele>206.8</ele><time>2026-04-12T11:37:22Z</time></trkpt><trkpt lat="40.940784867556125" lon="14.619458230484796"><ele>206.6</ele><time>2026-04-12T11:37:23Z</time></trkpt><trkpt lat="40.94071655700962" lon="14.61934986501602"><ele>206.4</ele><time>2026-04-12T11:37:24Z</time></trkpt><trkpt lat="40.94064966123302" lon="14.619239907855702"><ele>206.20000000000002</ele><time>2026-04-12T11:37:25Z</time></trkpt><trkpt lat="40.940585303543926" lon="14.619122653516584"><ele>206.0</ele><time>2026-04-12T11:37:26Z</time></trkpt><trkpt lat="40.940527447379274" lon="14.618996598815128"><ele>206.0</ele><time>2026-04-12T11:37:27Z</time></trkpt><trkpt lat="40.94047902420381" lon="14.618861044851682"><ele>206.0</ele><time>2026-04-12T11:37:28Z</time></trkpt><trkpt lat="40.940440844470004" lon="14.6187156648746"><ele>206.0</ele><time>2026-04-12T11:37:29Z</time></trkpt><trkpt lat="40.94041558420253" lon="14.618560761480786"><ele>206.0</ele><time>2026-04-12T11:37:30Z</time></trkpt><trkpt lat="40.940402557442724" lon="14.618397606034929"><ele>205.75</ele><time>2026-04-12T11:37:31Z</time></trkpt><trkpt lat="40.94040778515839" lon="14.618229858668935"><ele>205.5</ele><time>2026-04-12T11:37:31.999Z</time></trkpt><trkpt lat="40.94042905288469" lon="14.618061557084001"><ele>205.25</ele><time>2026-04-12T11:37:32.999Z</time></trkpt><trkpt lat="40.94046280883999" lon="14.617894509070515"><ele>205.0</ele><time>2026-04-12T11:37:33.999Z</time></trkpt><trkpt lat="40.94050672406835" lon="14.617730349344347"><ele>204.75</ele><time>2026-04-12T11:37:34.999Z</time></trkpt><trkpt lat="40.940560936694574" lon="14.617569432299357"><ele>204.5</ele><time>2026-04-12T11:37:35.999Z</time></trkpt><trkpt lat="40.94062733078783" lon="14.61740682882079"><ele>204.25</ele><time>2026-04-12T11:37:36.999Z</time></trkpt><trkpt lat="40.94070224841267" lon="14.617243494802015"><ele>204.0</ele><time>2026-04-12T11:37:37.999Z</time></trkpt><trkpt lat="40.940781796126586" lon="14.61707494285628"><ele>204.0</ele><time>2026-04-12T11:37:38.999Z</time></trkpt><trkpt lat="40.94086488352635" lon="14.616898649175127"><ele>204.0</ele><time>2026-04-12T11:37:40Z</time></trkpt><trkpt lat="40.940953875291875" lon="14.616712139588618"><ele>204.0</ele><time>2026-04-12T11:37:41Z</time></trkpt><trkpt lat="40.941046989664876" lon="14.61651391844913"><ele>203.0</ele><time>2026-04-12T11:37:42Z</time></trkpt><trkpt lat="40.9411408825602" lon="14.616308273785128"><ele>202.0</ele><time>2026-04-12T11:37:43Z</time></trkpt><trkpt lat="40.94123057852986" lon="14.616095816043961"><ele>201.0</ele><time>2026-04-12T11:37:44Z</time></trkpt><trkpt lat="40.94132342426929" lon="14.61587662537737"><ele>201.0</ele><time>2026-04-12T11:37:45Z</time></trkpt><trkpt lat="40.94141819558405" lon="14.615649515592798"><ele>201.0</ele><time>2026-04-12T11:37:46Z</time></trkpt><trkpt lat="40.94151199012221" lon="14.615417300961417"><ele>201.0</ele><time>2026-04-12T11:37:47Z</time></trkpt><trkpt lat="40.94160473786945" lon="14.615176394844719"><ele>201.0</ele><time>2026-04-12T11:37:48Z</time></trkpt><trkpt lat="40.94169426512225" lon="14.614928476900227"><ele>201.0</ele><time>2026-04-12T11:37:49Z</time></trkpt><trkpt lat="40.941783239987416" lon="14.614674503800828"><ele>201.0</ele><time>2026-04-12T11:37:50Z</time></trkpt><trkpt lat="40.94186732639512" lon="14.614411782146801"><ele>199.33333333333331</ele><time>2026-04-12T11:37:51Z</time></trkpt><trkpt lat="40.94194551447659" lon="14.614140937713094"><ele>197.66666666666666</ele><time>2026-04-12T11:37:52Z</time></trkpt><trkpt lat="40.94202002411272" lon="14.613859776104118"><ele>196.0</ele><time>2026-04-12T11:37:53Z</time></trkpt><trkpt lat="40.942089810542285" lon="14.613576897615118"><ele>195.5</ele><time>2026-04-12T11:37:54Z</time></trkpt><trkpt lat="40.94215753207279" lon="14.613284994473112"><ele>195.0</ele><time>2026-04-12T11:37:55Z</time></trkpt><trkpt lat="40.9422215327828" lon="14.612985435582205"><ele>194.0</ele><time>2026-04-12T11:37:56Z</time></trkpt><trkpt lat="40.94227997584568" lon="14.612677720300757"><ele>193.0</ele><time>2026-04-12T11:37:57Z</time></trkpt><trkpt lat="40.9423323202381" lon="14.612361558099908"><ele>193.0</ele><time>2026-04-12T11:37:58Z</time></trkpt><trkpt lat="40.9423811316555" lon="14.612039968659337"><ele>193.0</ele><time>2026-04-12T11:37:59Z</time></trkpt><trkpt lat="40.942425705249114" lon="14.611714016370366"><ele>192.5</ele><time>2026-04-12T11:38:00Z</time></trkpt><trkpt lat="40.94246733503316" lon="14.611385389789941"><ele>192.0</ele><time>2026-04-12T11:38:01Z</time></trkpt><trkpt lat="40.94250805099555" lon="14.611055751128152"><ele>190.5</ele><time>2026-04-12T11:38:02Z</time></trkpt><trkpt lat="40.942549050466376" lon="14.610725233060165"><ele>189.0</ele><time>2026-04-12T11:38:03Z</time></trkpt><trkpt lat="40.94259039979885" lon="14.610394614436"><ele>188.0</ele><time>2026-04-12T11:38:04Z</time></trkpt><trkpt lat="40.94263261224768" lon="14.610063538217966"><ele>187.0</ele><time>2026-04-12T11:38:05Z</time></trkpt><trkpt lat="40.94267728841423" lon="14.609731650435013"><ele>186.5</ele><time>2026-04-12T11:38:06Z</time></trkpt><trkpt lat="40.94272201097317" lon="14.60939851634965"><ele>186.0</ele><time>2026-04-12T11:38:07Z</time></trkpt><trkpt lat="40.94276399077508" lon="14.609064166537875"><ele>186.0</ele><time>2026-04-12T11:38:08Z</time></trkpt><trkpt lat="40.94280519379373" lon="14.608729384103043"><ele>186.0</ele><time>2026-04-12T11:38:09Z</time></trkpt><trkpt lat="40.942847144392765" lon="14.608392984805842"><ele>184.0</ele><time>2026-04-12T11:38:10Z</time></trkpt><trkpt lat="40.94288906504703" lon="14.608054722983798"><ele>182.0</ele><time>2026-04-12T11:38:11Z</time></trkpt><trkpt lat="40.942931524877906" lon="14.607714747515072"><ele>181.0</ele><time>2026-04-12T11:38:12Z</time></trkpt><trkpt lat="40.94297365856533" lon="14.607374449975419"><ele>180.0</ele><time>2026-04-12T11:38:13Z</time></trkpt><trkpt lat="40.943014486616484" lon="14.607032357842698"><ele>180.5</ele><time>2026-04-12T11:38:14Z</time></trkpt><trkpt lat="40.94305585582594" lon="14.606690186953728"><ele>181.0</ele><time>2026-04-12T11:38:15Z</time></trkpt><trkpt lat="40.943098397660705" lon="14.606346702731571"><ele>181.0</ele><time>2026-04-12T11:38:16Z</time></trkpt><trkpt lat="40.94314072362258" lon="14.606001671976944"><ele>181.0</ele><time>2026-04-12T11:38:17Z</time></trkpt><trkpt lat="40.94318287072475" lon="14.605657398580401"><ele>180.0</ele><time>2026-04-12T11:38:18Z</time></trkpt><trkpt lat="40.94322715739412" lon="14.605313103429996"><ele>179.0</ele><time>2026-04-12T11:38:19Z</time></trkpt><trkpt lat="40.943271685397676" lon="14.604968355818402"><ele>179.0</ele><time>2026-04-12T11:38:20Z</time></trkpt><trkpt lat="40.94331662199986" lon="14.604622815237885"><ele>179.0</ele><time>2026-04-12T11:38:21Z</time></trkpt><trkpt lat="40.94336360738513" lon="14.604276215953353"><ele>178.0</ele><time>2026-04-12T11:38:22Z</time></trkpt><trkpt lat="40.94341658804546" lon="14.603929115916603"><ele>177.0</ele><time>2026-04-12T11:38:23Z</time></trkpt><trkpt lat="40.94347465260646" lon="14.603581607145413"><ele>177.0</ele><time>2026-04-12T11:38:24Z</time></trkpt><trkpt lat="40.943537959377075" lon="14.603233875949627"><ele>177.0</ele><time>2026-04-12T11:38:25Z</time></trkpt><trkpt lat="40.94360578209685" lon="14.602885409974538"><ele>176.5</ele><time>2026-04-12T11:38:26Z</time></trkpt><trkpt lat="40.94367758606307" lon="14.602536697736547"><ele>176.0</ele><time>2026-04-12T11:38:27Z</time></trkpt><trkpt lat="40.9437505698718" lon="14.602188301246311"><ele>176.5</ele><time>2026-04-12T11:38:28Z</time></trkpt><trkpt lat="40.943824288300064" lon="14.601838199309762"><ele>177.0</ele><time>2026-04-12T11:38:29Z</time></trkpt><trkpt lat="40.94389900906154" lon="14.601487012369127"><ele>178.0</ele><time>2026-04-12T11:38:30Z</time></trkpt><trkpt lat="40.9439752610679" lon="14.601135660834608"><ele>179.0</ele><time>2026-04-12T11:38:31Z</time></trkpt><trkpt lat="40.944052799019246" lon="14.600781983153622"><ele>179.0</ele><time>2026-04-12T11:38:32Z</time></trkpt><trkpt lat="40.944129187507514" lon="14.600427837516605"><ele>179.0</ele><time>2026-04-12T11:38:33Z</time></trkpt><trkpt lat="40.944205430787406" lon="14.600072883465593"><ele>176.0</ele><time>2026-04-12T11:38:34Z</time></trkpt><trkpt lat="40.944279690725466" lon="14.599717695210101"><ele>173.0</ele><time>2026-04-12T11:38:35Z</time></trkpt><trkpt lat="40.94435490522864" lon="14.599364358479303"><ele>171.0</ele><time>2026-04-12T11:38:36Z</time></trkpt><trkpt lat="40.944429872478" lon="14.599012113954984"><ele>169.0</ele><time>2026-04-12T11:38:37Z</time></trkpt><trkpt lat="40.94450515752796" lon="14.598660813344702"><ele>168.0</ele><time>2026-04-12T11:38:38Z</time></trkpt><trkpt lat="40.94458052939912" lon="14.598309012986228"><ele>167.0</ele><time>2026-04-12T11:38:39Z</time></trkpt><trkpt lat="40.944656822596585" lon="14.597957950877321"><ele>168.0</ele><time>2026-04-12T11:38:40Z</time></trkpt><trkpt lat="40.944733229805465" lon="14.597606988531519"><ele>169.0</ele><time>2026-04-12T11:38:41Z</time></trkpt><trkpt lat="40.94480964175016" lon="14.59725547869985"><ele>168.5</ele><time>2026-04-12T11:38:42Z</time></trkpt><trkpt lat="40.94488506870241" lon="14.596903392007603"><ele>168.0</ele><time>2026-04-12T11:38:43Z</time></trkpt><trkpt lat="40.94496159388239" lon="14.596548605839613"><ele>168.0</ele><time>2026-04-12T11:38:44Z</time></trkpt><trkpt lat="40.94503899752077" lon="14.59619207610032"><ele>168.0</ele><time>2026-04-12T11:38:45Z</time></trkpt><trkpt lat="40.94511611289276" lon="14.595833329140058"><ele>164.5</ele><time>2026-04-12T11:38:46Z</time></trkpt><trkpt lat="40.94519378737418" lon="14.59547440129774"><ele>161.0</ele><time>2026-04-12T11:38:47Z</time></trkpt><trkpt lat="40.9452700814808" lon="14.595114198426016"><ele>161.0</ele><time>2026-04-12T11:38:48Z</time></trkpt><trkpt lat="40.94534717570893" lon="14.59475406354442"><ele>161.0</ele><time>2026-04-12T11:38:49Z</time></trkpt><trkpt lat="40.94542512415622" lon="14.594393534166118"><ele>160.0</ele><time>2026-04-12T11:38:50Z</time></trkpt><trkpt lat="40.94550280156139" lon="14.59403131880285"><ele>159.0</ele><time>2026-04-12T11:38:51Z</time></trkpt><trkpt lat="40.9455805262602" lon="14.593668257174615"><ele>159.0</ele><time>2026-04-12T11:38:52Z</time></trkpt><trkpt lat="40.945658694969964" lon="14.593304473787677"><ele>159.0</ele><time>2026-04-12T11:38:53Z</time></trkpt><trkpt lat="40.94573639871962" lon="14.592939639496247"><ele>158.0</ele><time>2026-04-12T11:38:54Z</time></trkpt><trkpt lat="40.94581573476639" lon="14.592574235560075"><ele>157.0</ele><time>2026-04-12T11:38:55Z</time></trkpt><trkpt lat="40.945894488187975" lon="14.592208468748977"><ele>155.0</ele><time>2026-04-12T11:38:56Z</time></trkpt><trkpt lat="40.94597162789533" lon="14.591841272286047"><ele>153.0</ele><time>2026-04-12T11:38:57Z</time></trkpt><trkpt lat="40.94604896404517" lon="14.591473939322574"><ele>152.5</ele><time>2026-04-12T11:38:58Z</time></trkpt><trkpt lat="40.94612636722226" lon="14.591108090350291"><ele>152.0</ele><time>2026-04-12T11:38:59Z</time></trkpt><trkpt lat="40.946203376583526" lon="14.590742590626043"><ele>152.0</ele><time>2026-04-12T11:39:00Z</time></trkpt><trkpt lat="40.946280342021886" lon="14.590379442159499"><ele>152.0</ele><time>2026-04-12T11:39:01Z</time></trkpt><trkpt lat="40.94635569484199" lon="14.590019605457073"><ele>151.5</ele><time>2026-04-12T11:39:02Z</time></trkpt><trkpt lat="40.9464298425841" lon="14.589658219251046"><ele>151.0</ele><time>2026-04-12T11:39:03Z</time></trkpt><trkpt lat="40.94650395364666" lon="14.589295970612959"><ele>150.0</ele><time>2026-04-12T11:39:04Z</time></trkpt><trkpt lat="40.94657893157372" lon="14.588934410089905"><ele>149.0</ele><time>2026-04-12T11:39:05Z</time></trkpt><trkpt lat="40.946652782378465" lon="14.588572305654548"><ele>146.0</ele><time>2026-04-12T11:39:06Z</time></trkpt><trkpt lat="40.94672652137538" lon="14.588209639750328"><ele>143.0</ele><time>2026-04-12T11:39:07Z</time></trkpt><trkpt lat="40.946800476132346" lon="14.58784654861409"><ele>142.5</ele><time>2026-04-12T11:39:08Z</time></trkpt><trkpt lat="40.946873986688345" lon="14.587484280433296"><ele>142.0</ele><time>2026-04-12T11:39:09Z</time></trkpt><trkpt lat="40.9469458542642" lon="14.587124042222296"><ele>141.5</ele><time>2026-04-12T11:39:10Z</time></trkpt><trkpt lat="40.94701278867751" lon="14.586765010512574"><ele>141.0</ele><time>2026-04-12T11:39:11Z</time></trkpt><trkpt lat="40.94706544669137" lon="14.586405802243544"><ele>140.0</ele><time>2026-04-12T11:39:12Z</time></trkpt><trkpt lat="40.94710866831231" lon="14.586047274428951"><ele>139.0</ele><time>2026-04-12T11:39:13Z</time></trkpt><trkpt lat="40.94714863730274" lon="14.585689932757704"><ele>139.0</ele><time>2026-04-12T11:39:14Z</time></trkpt><trkpt lat="40.94717762521578" lon="14.585331664217158"><ele>139.0</ele><time>2026-04-12T11:39:15Z</time></trkpt><trkpt lat="40.94719173398545" lon="14.584975064264375"><ele>139.0</ele><time>2026-04-12T11:39:16Z</time></trkpt><trkpt lat="40.9472008683345" lon="14.584620552578354"><ele>139.0</ele><time>2026-04-12T11:39:17Z</time></trkpt><trkpt lat="40.947201651653295" lon="14.584264402022152"><ele>137.5</ele><time>2026-04-12T11:39:18Z</time></trkpt><trkpt lat="40.94719694732867" lon="14.583905455174296"><ele>136.0</ele><time>2026-04-12T11:39:19Z</time></trkpt><trkpt lat="40.947184928553526" lon="14.583543677928807"><ele>135.0</ele><time>2026-04-12T11:39:20Z</time></trkpt><trkpt lat="40.94716364247479" lon="14.58317871857246"><ele>134.0</ele><time>2026-04-12T11:39:21Z</time></trkpt><trkpt lat="40.947135035152584" lon="14.58281253745276"><ele>133.5</ele><time>2026-04-12T11:39:22Z</time></trkpt><trkpt lat="40.947103516502935" lon="14.582443074282061"><ele>133.0</ele><time>2026-04-12T11:39:23Z</time></trkpt><trkpt lat="40.94707274961866" lon="14.582072188944524"><ele>132.0</ele><time>2026-04-12T11:39:24Z</time></trkpt><trkpt lat="40.947040916171" lon="14.58169843045191"><ele>131.0</ele><time>2026-04-12T11:39:25Z</time></trkpt><trkpt lat="40.94700972247595" lon="14.581323233936326"><ele>130.0</ele><time>2026-04-12T11:39:26Z</time></trkpt><trkpt lat="40.946978780476655" lon="14.58094665479001"><ele>129.0</ele><time>2026-04-12T11:39:27Z</time></trkpt><trkpt lat="40.94694680158031" lon="14.580569588897916"><ele>128.5</ele><time>2026-04-12T11:39:28Z</time></trkpt><trkpt lat="40.9469157803863" lon="14.580191500897122"><ele>128.0</ele><time>2026-04-12T11:39:29Z</time></trkpt><trkpt lat="40.94688333008389" lon="14.579813972695646"><ele>127.5</ele><time>2026-04-12T11:39:30Z</time></trkpt><trkpt lat="40.946849701003714" lon="14.57943589904646"><ele>127.0</ele><time>2026-04-12T11:39:31.001Z</time></trkpt><trkpt lat="40.946818098147276" lon="14.579056391196678"><ele>125.5</ele><time>2026-04-12T11:39:32.001Z</time></trkpt><trkpt lat="40.94678794419446" lon="14.578677100172603"><ele>124.0</ele><time>2026-04-12T11:39:33.001Z</time></trkpt><trkpt lat="40.946751793492076" lon="14.578300270432155"><ele>124.0</ele><time>2026-04-12T11:39:34.001Z</time></trkpt><trkpt lat="40.94672509877045" lon="14.57792287930975"><ele>124.0</ele><time>2026-04-12T11:39:35.001Z</time></trkpt><trkpt lat="40.94669110975252" lon="14.577553310621319"><ele>124.0</ele><time>2026-04-12T11:39:36.001Z</time></trkpt><trkpt lat="40.9466622400023" lon="14.577184451093563"><ele>124.0</ele><time>2026-04-12T11:39:37.001Z</time></trkpt><trkpt lat="40.946631586814036" lon="14.576820563469674"><ele>124.0</ele><time>2026-04-12T11:39:38Z</time></trkpt><trkpt lat="40.946602795596256" lon="14.576459987871349"><ele>124.0</ele><time>2026-04-12T11:39:39Z</time></trkpt><trkpt lat="40.946576280790666" lon="14.576103364061515"><ele>123.5</ele><time>2026-04-12T11:39:40Z</time></trkpt><trkpt lat="40.946547309274386" lon="14.575749404474122"><ele>123.0</ele><time>2026-04-12T11:39:41Z</time></trkpt><trkpt lat="40.946520786653956" lon="14.575396109781929"><ele>122.0</ele><time>2026-04-12T11:39:42Z</time></trkpt><trkpt lat="40.94649372033946" lon="14.575045171294137"><ele>121.0</ele><time>2026-04-12T11:39:43Z</time></trkpt><trkpt lat="40.946467066348426" lon="14.574692450313027"><ele>120.5</ele><time>2026-04-12T11:39:44Z</time></trkpt><trkpt lat="40.94644141833596" lon="14.574337990141327"><ele>120.0</ele><time>2026-04-12T11:39:45Z</time></trkpt><trkpt lat="40.94641797925768" lon="14.573987775688826"><ele>119.5</ele><time>2026-04-12T11:39:46Z</time></trkpt><trkpt lat="40.94639078967202" lon="14.573642886927392"><ele>119.0</ele><time>2026-04-12T11:39:47Z</time></trkpt><trkpt lat="40.946364611361446" lon="14.57329240531214"><ele>119.0</ele><time>2026-04-12T11:39:48Z</time></trkpt><trkpt lat="40.94633524712775" lon="14.572949852214723"><ele>119.0</ele><time>2026-04-12T11:39:49Z</time></trkpt><trkpt lat="40.94630456921603" lon="14.572612110481565"><ele>119.0</ele><time>2026-04-12T11:39:50Z</time></trkpt><trkpt lat="40.946278575087206" lon="14.57228279163058"><ele>119.0</ele><time>2026-04-12T11:39:51Z</time></trkpt><trkpt lat="40.94625481128824" lon="14.571949038252267"><ele>119.0</ele><time>2026-04-12T11:39:52Z</time></trkpt><trkpt lat="40.94622679426156" lon="14.571616153390236"><ele>119.0</ele><time>2026-04-12T11:39:53Z</time></trkpt><trkpt lat="40.94620233927826" lon="14.571287945747104"><ele>118.0</ele><time>2026-04-12T11:39:54Z</time></trkpt><trkpt lat="40.94617693644019" lon="14.570958917218078"><ele>117.0</ele><time>2026-04-12T11:39:55Z</time></trkpt><trkpt lat="40.94614583556453" lon="14.57063314349159"><ele>116.0</ele><time>2026-04-12T11:39:56Z</time></trkpt><trkpt lat="40.94611848665041" lon="14.570310789429016"><ele>115.0</ele><time>2026-04-12T11:39:57Z</time></trkpt><trkpt lat="40.946092170399226" lon="14.569987776548764"><ele>115.0</ele><time>2026-04-12T11:39:58Z</time></trkpt><trkpt lat="40.946064543574636" lon="14.569669594106555"><ele>115.0</ele><time>2026-04-12T11:39:59Z</time></trkpt><trkpt lat="40.94603634909383" lon="14.569352306908835"><ele>113.5</ele><time>2026-04-12T11:40:00Z</time></trkpt><trkpt lat="40.946005734054616" lon="14.569034260709428"><ele>112.0</ele><time>2026-04-12T11:40:01Z</time></trkpt><trkpt lat="40.945981225468564" lon="14.568718565866186"><ele>111.5</ele><time>2026-04-12T11:40:02Z</time></trkpt><trkpt lat="40.94595418727208" lon="14.568401435844327"><ele>111.0</ele><time>2026-04-12T11:40:03Z</time></trkpt><trkpt lat="40.945924278665466" lon="14.568087139201593"><ele>111.0</ele><time>2026-04-12T11:40:04Z</time></trkpt><trkpt lat="40.945899338858474" lon="14.567772596244312"><ele>111.0</ele><time>2026-04-12T11:40:05Z</time></trkpt><trkpt lat="40.945875248685354" lon="14.567457548291713"><ele>111.0</ele><time>2026-04-12T11:40:06Z</time></trkpt><trkpt lat="40.945849972671176" lon="14.567143995839633"><ele>111.0</ele><time>2026-04-12T11:40:07Z</time></trkpt><trkpt lat="40.94582407669424" lon="14.566829160213391"><ele>110.0</ele><time>2026-04-12T11:40:08Z</time></trkpt><trkpt lat="40.94579750546202" lon="14.566513725025597"><ele>109.0</ele><time>2026-04-12T11:40:09Z</time></trkpt><trkpt lat="40.94577301322437" lon="14.566199707901182"><ele>107.0</ele><time>2026-04-12T11:40:10Z</time></trkpt><trkpt lat="40.94574853961554" lon="14.565887151913504"><ele>105.0</ele><time>2026-04-12T11:40:11Z</time></trkpt><trkpt lat="40.94571962690574" lon="14.565578123917616"><ele>104.0</ele><time>2026-04-12T11:40:12Z</time></trkpt><trkpt lat="40.94569398670438" lon="14.56526875619312"><ele>103.0</ele><time>2026-04-12T11:40:13Z</time></trkpt><trkpt lat="40.945668969436326" lon="14.564963961602647"><ele>103.0</ele><time>2026-04-12T11:40:14Z</time></trkpt><trkpt lat="40.94564341137123" lon="14.564662363293865"><ele>103.0</ele><time>2026-04-12T11:40:15Z</time></trkpt><trkpt lat="40.94561804772396" lon="14.564364135705445"><ele>102.33333333333334</ele><time>2026-04-12T11:40:16Z</time></trkpt><trkpt lat="40.945593619278384" lon="14.564070608247839"><ele>101.66666666666666</ele><time>2026-04-12T11:40:17Z</time></trkpt><trkpt lat="40.94556732513637" lon="14.563781389195121"><ele>101.0</ele><time>2026-04-12T11:40:18Z</time></trkpt><trkpt lat="40.94553553974822" lon="14.563497644202311"><ele>100.0</ele><time>2026-04-12T11:40:19Z</time></trkpt><trkpt lat="40.945500588444666" lon="14.563215558352528"><ele>99.0</ele><time>2026-04-12T11:40:20Z</time></trkpt><trkpt lat="40.94546607721719" lon="14.56293745204958"><ele>98.0</ele><time>2026-04-12T11:40:21Z</time></trkpt><trkpt lat="40.94542650390583" lon="14.56266048425334"><ele>97.66666666666666</ele><time>2026-04-12T11:40:22Z</time></trkpt><trkpt lat="40.94538193974961" lon="14.562386687292154"><ele>97.33333333333334</ele><time>2026-04-12T11:40:23Z</time></trkpt><trkpt lat="40.94533120140748" lon="14.562115362400885"><ele>97.0</ele><time>2026-04-12T11:40:24Z</time></trkpt><trkpt lat="40.94527793051" lon="14.561842156170547"><ele>96.66666666666667</ele><time>2026-04-12T11:40:25Z</time></trkpt><trkpt lat="40.945215562885984" lon="14.56157093157081"><ele>96.33333333333334</ele><time>2026-04-12T11:40:26Z</time></trkpt><trkpt lat="40.94514312499271" lon="14.56129838108216"><ele>96.0</ele><time>2026-04-12T11:40:27Z</time></trkpt><trkpt lat="40.94506363807292" lon="14.561027744808772"><ele>94.33333333333333</ele><time>2026-04-12T11:40:28Z</time></trkpt><trkpt lat="40.94497497774648" lon="14.560759278248355"><ele>92.66666666666666</ele><time>2026-04-12T11:40:29Z</time></trkpt><trkpt lat="40.94488188323477" lon="14.560491628859015"><ele>91.0</ele><time>2026-04-12T11:40:30Z</time></trkpt><trkpt lat="40.944781664187964" lon="14.560224630396624"><ele>89.5</ele><time>2026-04-12T11:40:31Z</time></trkpt><trkpt lat="40.94467374713753" lon="14.559960349631467"><ele>88.0</ele><time>2026-04-12T11:40:32Z</time></trkpt><trkpt lat="40.94456257173969" lon="14.559700427209933"><ele>88.0</ele><time>2026-04-12T11:40:33Z</time></trkpt><trkpt lat="40.94444462472768" lon="14.559444214068893"><ele>88.0</ele><time>2026-04-12T11:40:34Z</time></trkpt><trkpt lat="40.94432147814042" lon="14.55919314102653"><ele>87.5</ele><time>2026-04-12T11:40:35Z</time></trkpt><trkpt lat="40.944191126806466" lon="14.558947860401124"><ele>87.0</ele><time>2026-04-12T11:40:36Z</time></trkpt><trkpt lat="40.94405557575377" lon="14.558707077045138"><ele>86.5</ele><time>2026-04-12T11:40:37Z</time></trkpt><trkpt lat="40.943920812009964" lon="14.55846572122815"><ele>86.0</ele><time>2026-04-12T11:40:38Z</time></trkpt><trkpt lat="40.94379204130186" lon="14.55822144915997"><ele>86.0</ele><time>2026-04-12T11:40:39Z</time></trkpt><trkpt lat="40.943667862347766" lon="14.55796928004562"><ele>86.0</ele><time>2026-04-12T11:40:40Z</time></trkpt><trkpt lat="40.94354095248551" lon="14.55772163788118"><ele>85.33333333333334</ele><time>2026-04-12T11:40:41Z</time></trkpt><trkpt lat="40.94341204424282" lon="14.55748224806128"><ele>84.66666666666667</ele><time>2026-04-12T11:40:42Z</time></trkpt><trkpt lat="40.943287388107784" lon="14.557234284144855"><ele>84.0</ele><time>2026-04-12T11:40:43Z</time></trkpt><trkpt lat="40.94316108419057" lon="14.556988336824812"><ele>82.5</ele><time>2026-04-12T11:40:44Z</time></trkpt><trkpt lat="40.94303409539825" lon="14.556741880275585"><ele>81.0</ele><time>2026-04-12T11:40:45Z</time></trkpt><trkpt lat="40.94290541299674" lon="14.556498330417876"><ele>81.0</ele><time>2026-04-12T11:40:46Z</time></trkpt><trkpt lat="40.94277562981696" lon="14.556252433539353"><ele>81.0</ele><time>2026-04-12T11:40:47Z</time></trkpt><trkpt lat="40.942644491093205" lon="14.556007310264338"><ele>80.5</ele><time>2026-04-12T11:40:48Z</time></trkpt><trkpt lat="40.94251388753099" lon="14.555763567722318"><ele>80.0</ele><time>2026-04-12T11:40:49Z</time></trkpt><trkpt lat="40.94238471334782" lon="14.55551857903832"><ele>79.0</ele><time>2026-04-12T11:40:50Z</time></trkpt><trkpt lat="40.94225421450528" lon="14.555272029952793"><ele>78.0</ele><time>2026-04-12T11:40:51Z</time></trkpt><trkpt lat="40.94212252527931" lon="14.555027541708807"><ele>78.0</ele><time>2026-04-12T11:40:52Z</time></trkpt><trkpt lat="40.94199189368228" lon="14.554787183430685"><ele>78.0</ele><time>2026-04-12T11:40:53.001Z</time></trkpt><trkpt lat="40.94186361090802" lon="14.55454090450992"><ele>77.0</ele><time>2026-04-12T11:40:54.001Z</time></trkpt><trkpt lat="40.94173671946863" lon="14.554295646929603"><ele>76.0</ele><time>2026-04-12T11:40:55.001Z</time></trkpt><trkpt lat="40.941610467189015" lon="14.554049055417044"><ele>75.5</ele><time>2026-04-12T11:40:56.001Z</time></trkpt><trkpt lat="40.94147966721035" lon="14.553800814306873"><ele>75.0</ele><time>2026-04-12T11:40:57.001Z</time></trkpt><trkpt lat="40.94134779897391" lon="14.553551850224071"><ele>74.5</ele><time>2026-04-12T11:40:58.001Z</time></trkpt><trkpt lat="40.94121611888139" lon="14.553300765836823"><ele>74.0</ele><time>2026-04-12T11:40:59.001Z</time></trkpt><trkpt lat="40.941082105062925" lon="14.553048052494358"><ele>73.0</ele><time>2026-04-12T11:41:00.001Z</time></trkpt><trkpt lat="40.940946332568956" lon="14.552794052996603"><ele>72.0</ele><time>2026-04-12T11:41:01.001Z</time></trkpt><trkpt lat="40.94080828003878" lon="14.552536828829147"><ele>72.0</ele><time>2026-04-12T11:41:02.001Z</time></trkpt><trkpt lat="40.940669958536894" lon="14.552278506751968"><ele>72.0</ele><time>2026-04-12T11:41:03.001Z</time></trkpt><trkpt lat="40.94053363996082" lon="14.5520166722446"><ele>71.5</ele><time>2026-04-12T11:41:04.001Z</time></trkpt><trkpt lat="40.940406238432125" lon="14.551753137480416"><ele>71.0</ele><time>2026-04-12T11:41:05.001Z</time></trkpt><trkpt lat="40.94027282429906" lon="14.551488172390393"><ele>71.0</ele><time>2026-04-12T11:41:06.001Z</time></trkpt><trkpt lat="40.94013676803501" lon="14.55122326298237"><ele>71.0</ele><time>2026-04-12T11:41:07.001Z</time></trkpt><trkpt lat="40.93998475158343" lon="14.550950064391625"><ele>70.0</ele><time>2026-04-12T11:41:08.001Z</time></trkpt><trkpt lat="40.93983726605118" lon="14.550677982327542"><ele>69.0</ele><time>2026-04-12T11:41:09.001Z</time></trkpt><trkpt lat="40.939687012351555" lon="14.550400766001472"><ele>67.5</ele><time>2026-04-12T11:41:10.001Z</time></trkpt><trkpt lat="40.93953839272614" lon="14.550121106878057"><ele>66.0</ele><time>2026-04-12T11:41:11.001Z</time></trkpt><trkpt lat="40.93939048441331" lon="14.549839770894273"><ele>66.0</ele><time>2026-04-12T11:41:12.001Z</time></trkpt><trkpt lat="40.93925919780206" lon="14.549548081957687"><ele>66.0</ele><time>2026-04-12T11:41:13.001Z</time></trkpt><trkpt lat="40.93909606040751" lon="14.549276505002064"><ele>65.5</ele><time>2026-04-12T11:41:14.001Z</time></trkpt><trkpt lat="40.93895051435582" lon="14.548996789176003"><ele>65.0</ele><time>2026-04-12T11:41:15.001Z</time></trkpt><trkpt lat="40.938803200496274" lon="14.548717361498545"><ele>65.0</ele><time>2026-04-12T11:41:16.001Z</time></trkpt><trkpt lat="40.938654992395314" lon="14.548436536095078"><ele>65.0</ele><time>2026-04-12T11:41:17.001Z</time></trkpt><trkpt lat="40.938506946049294" lon="14.548156212467493"><ele>64.0</ele><time>2026-04-12T11:41:18.001Z</time></trkpt><trkpt lat="40.93835772230704" lon="14.547873480109129"><ele>63.0</ele><time>2026-04-12T11:41:19.001Z</time></trkpt><trkpt lat="40.93820796347075" lon="14.547589838063061"><ele>63.0</ele><time>2026-04-12T11:41:20.001Z</time></trkpt><trkpt lat="40.93805766096161" lon="14.54730373676149"><ele>63.0</ele><time>2026-04-12T11:41:21.001Z</time></trkpt><trkpt lat="40.93790478441279" lon="14.54702147831687"><ele>63.0</ele><time>2026-04-12T11:41:22.001Z</time></trkpt><trkpt lat="40.93775282578957" lon="14.546727718966242"><ele>63.0</ele><time>2026-04-12T11:41:23.001Z</time></trkpt><trkpt lat="40.9375974533831" lon="14.546435181143652"><ele>61.0</ele><time>2026-04-12T11:41:24.001Z</time></trkpt><trkpt lat="40.93744189090235" lon="14.546142580204155"><ele>59.0</ele><time>2026-04-12T11:41:25.001Z</time></trkpt><trkpt lat="40.93728636025466" lon="14.545849227660629"><ele>59.0</ele><time>2026-04-12T11:41:26.001Z</time></trkpt><trkpt lat="40.93712992247807" lon="14.545556254377528"><ele>59.0</ele><time>2026-04-12T11:41:27.001Z</time></trkpt><trkpt lat="40.936975240499116" lon="14.54526075393569"><ele>58.0</ele><time>2026-04-12T11:41:28.001Z</time></trkpt><trkpt lat="40.936822670708715" lon="14.54496365762114"><ele>57.0</ele><time>2026-04-12T11:41:29.001Z</time></trkpt><trkpt lat="40.93667338677029" lon="14.54466195094316"><ele>55.5</ele><time>2026-04-12T11:41:30.001Z</time></trkpt><trkpt lat="40.93652936283348" lon="14.544357451307675"><ele>54.0</ele><time>2026-04-12T11:41:31.001Z</time></trkpt><trkpt lat="40.93638790966179" lon="14.544049550565596"><ele>54.0</ele><time>2026-04-12T11:41:32.001Z</time></trkpt><trkpt lat="40.936248528778556" lon="14.543737404721615"><ele>54.0</ele><time>2026-04-12T11:41:33.001Z</time></trkpt><trkpt lat="40.93611294174213" lon="14.543420762034685"><ele>54.0</ele><time>2026-04-12T11:41:34.001Z</time></trkpt><trkpt lat="40.93597972137557" lon="14.543100308965823"><ele>54.0</ele><time>2026-04-12T11:41:35.001Z</time></trkpt><trkpt lat="40.93584905329539" lon="14.542774759084354"><ele>54.0</ele><time>2026-04-12T11:41:36.001Z</time></trkpt><trkpt lat="40.93572144281036" lon="14.542446064350898"><ele>54.0</ele><time>2026-04-12T11:41:37.001Z</time></trkpt><trkpt lat="40.9355972363401" lon="14.542114528005705"><ele>53.5</ele><time>2026-04-12T11:41:38.001Z</time></trkpt><trkpt lat="40.935477636879824" lon="14.541780849932511"><ele>53.0</ele><time>2026-04-12T11:41:39.001Z</time></trkpt><trkpt lat="40.935362274716" lon="14.541444650932657"><ele>52.5</ele><time>2026-04-12T11:41:40.001Z</time></trkpt><trkpt lat="40.935250739206936" lon="14.541108696392978"><ele>52.0</ele><time>2026-04-12T11:41:41.001Z</time></trkpt><trkpt lat="40.935141822536224" lon="14.54077174945645"><ele>52.0</ele><time>2026-04-12T11:41:42.001Z</time></trkpt><trkpt lat="40.9350388301968" lon="14.540432502200481"><ele>52.0</ele><time>2026-04-12T11:41:43.001Z</time></trkpt><trkpt lat="40.93494238836185" lon="14.540092979716208"><ele>52.0</ele><time>2026-04-12T11:41:43.999Z</time></trkpt><trkpt lat="40.934850470107605" lon="14.539751773006266"><ele>52.0</ele><time>2026-04-12T11:41:44.999Z</time></trkpt><trkpt lat="40.93476236851354" lon="14.539410781198251"><ele>51.5</ele><time>2026-04-12T11:41:45.999Z</time></trkpt><trkpt lat="40.93467870575421" lon="14.53907111895699"><ele>51.0</ele><time>2026-04-12T11:41:46.999Z</time></trkpt><trkpt lat="40.93460061623696" lon="14.538734173514596"><ele>50.0</ele><time>2026-04-12T11:41:47.999Z</time></trkpt><trkpt lat="40.934523993641264" lon="14.538400385848856"><ele>49.0</ele><time>2026-04-12T11:41:48.999Z</time></trkpt><trkpt lat="40.93444196946901" lon="14.538062108990845"><ele>48.0</ele><time>2026-04-12T11:41:49.999Z</time></trkpt><trkpt lat="40.934362388133074" lon="14.537718422990627"><ele>47.0</ele><time>2026-04-12T11:41:50.999Z</time></trkpt><trkpt lat="40.934289103095864" lon="14.53736663112211"><ele>46.5</ele><time>2026-04-12T11:41:51.999Z</time></trkpt><trkpt lat="40.93422002298441" lon="14.53700747981238"><ele>46.0</ele><time>2026-04-12T11:41:52.999Z</time></trkpt><trkpt lat="40.934154479449724" lon="14.536641482139956"><ele>46.0</ele><time>2026-04-12T11:41:53.999Z</time></trkpt><trkpt lat="40.934090285741625" lon="14.53626915348767"><ele>46.0</ele><time>2026-04-12T11:41:54.999Z</time></trkpt><trkpt lat="40.934024828273046" lon="14.535891734694857"><ele>45.5</ele><time>2026-04-12T11:41:55.999Z</time></trkpt><trkpt lat="40.933960006065355" lon="14.535509196005377"><ele>45.0</ele><time>2026-04-12T11:41:56.999Z</time></trkpt><trkpt lat="40.93389260972818" lon="14.535123678445588"><ele>45.0</ele><time>2026-04-12T11:41:57.999Z</time></trkpt><trkpt lat="40.9338236260611" lon="14.534734359599012"><ele>45.0</ele><time>2026-04-12T11:41:58.999Z</time></trkpt><trkpt lat="40.93375682065139" lon="14.534341937823628"><ele>45.0</ele><time>2026-04-12T11:41:59.999Z</time></trkpt><trkpt lat="40.93368806306672" lon="14.53394698375888"><ele>45.0</ele><time>2026-04-12T11:42:00.999Z</time></trkpt><trkpt lat="40.9336211668544" lon="14.533548704610407"><ele>44.5</ele><time>2026-04-12T11:42:01.999Z</time></trkpt><trkpt lat="40.93355457876047" lon="14.53314972764614"><ele>44.0</ele><time>2026-04-12T11:42:02.999Z</time></trkpt><trkpt lat="40.933485248802654" lon="14.532749073016074"><ele>43.5</ele><time>2026-04-12T11:42:03.999Z</time></trkpt><trkpt lat="40.93341592202311" lon="14.532346008253697"><ele>43.0</ele><time>2026-04-12T11:42:04.999Z</time></trkpt><trkpt lat="40.93334667977024" lon="14.531941448818007"><ele>42.5</ele><time>2026-04-12T11:42:05.999Z</time></trkpt><trkpt lat="40.93327602225924" lon="14.531534378986922"><ele>42.0</ele><time>2026-04-12T11:42:06.999Z</time></trkpt><trkpt lat="40.933205757248395" lon="14.53112431496582"><ele>41.5</ele><time>2026-04-12T11:42:07.999Z</time></trkpt><trkpt lat="40.933134870843624" lon="14.530712315763596"><ele>41.0</ele><time>2026-04-12T11:42:08.999Z</time></trkpt><trkpt lat="40.93306365381799" lon="14.53030044196255"><ele>40.0</ele><time>2026-04-12T11:42:09.999Z</time></trkpt><trkpt lat="40.93299295036351" lon="14.529886945060406"><ele>39.0</ele><time>2026-04-12T11:42:10.999Z</time></trkpt><trkpt lat="40.932921338021345" lon="14.529472961296452"><ele>39.0</ele><time>2026-04-12T11:42:12Z</time></trkpt><trkpt lat="40.9328498850529" lon="14.52905784268468"><ele>39.0</ele><time>2026-04-12T11:42:13Z</time></trkpt><trkpt lat="40.93278069961179" lon="14.52864136063568"><ele>40.0</ele><time>2026-04-12T11:42:14Z</time></trkpt><trkpt lat="40.93270987549255" lon="14.528224680073437"><ele>41.0</ele><time>2026-04-12T11:42:15Z</time></trkpt><trkpt lat="40.93263914455431" lon="14.527806936868904"><ele>42.0</ele><time>2026-04-12T11:42:16Z</time></trkpt><trkpt lat="40.93256874904023" lon="14.527389103027163"><ele>43.0</ele><time>2026-04-12T11:42:17Z</time></trkpt><trkpt lat="40.93249752527585" lon="14.526971065998106"><ele>41.0</ele><time>2026-04-12T11:42:18Z</time></trkpt><trkpt lat="40.93242614366944" lon="14.526550618770345"><ele>39.0</ele><time>2026-04-12T11:42:19Z</time></trkpt><trkpt lat="40.93235310083331" lon="14.526128071495982"><ele>39.0</ele><time>2026-04-12T11:42:20Z</time></trkpt><trkpt lat="40.93227850328813" lon="14.525703133589511"><ele>39.0</ele><time>2026-04-12T11:42:21Z</time></trkpt><trkpt lat="40.9322040458247" lon="14.525274824202658"><ele>38.0</ele><time>2026-04-12T11:42:22Z</time></trkpt><trkpt lat="40.93212909846549" lon="14.52484545269124"><ele>37.0</ele><time>2026-04-12T11:42:23Z</time></trkpt><trkpt lat="40.932054708472215" lon="14.524415408272509"><ele>37.0</ele><time>2026-04-12T11:42:24Z</time></trkpt><trkpt lat="40.931981201234386" lon="14.5239845367442"><ele>37.0</ele><time>2026-04-12T11:42:25Z</time></trkpt><trkpt lat="40.93190738515238" lon="14.523554295748333"><ele>36.0</ele><time>2026-04-12T11:42:26Z</time></trkpt><trkpt lat="40.93183307650343" lon="14.523123968894486"><ele>35.0</ele><time>2026-04-12T11:42:27Z</time></trkpt><trkpt lat="40.93175708521191" lon="14.522694204594435"><ele>35.5</ele><time>2026-04-12T11:42:28Z</time></trkpt><trkpt lat="40.93168289041908" lon="14.522270138174205"><ele>36.0</ele><time>2026-04-12T11:42:29Z</time></trkpt><trkpt lat="40.931612175446766" lon="14.521853220969591"><ele>35.0</ele><time>2026-04-12T11:42:30Z</time></trkpt><trkpt lat="40.931543665274425" lon="14.521437944723647"><ele>34.0</ele><time>2026-04-12T11:42:31Z</time></trkpt><trkpt lat="40.931478508669855" lon="14.521027007063042"><ele>34.0</ele><time>2026-04-12T11:42:32Z</time></trkpt><trkpt lat="40.93141695626788" lon="14.520622227086173"><ele>34.0</ele><time>2026-04-12T11:42:33Z</time></trkpt><trkpt lat="40.93136007525626" lon="14.520223907478217"><ele>34.5</ele><time>2026-04-12T11:42:34Z</time></trkpt><trkpt lat="40.93130605521346" lon="14.519831588334752"><ele>35.0</ele><time>2026-04-12T11:42:35Z</time></trkpt><trkpt lat="40.93125572272756" lon="14.519446018480817"><ele>35.0</ele><time>2026-04-12T11:42:36Z</time></trkpt><trkpt lat="40.93120973893303" lon="14.519065003417184"><ele>35.0</ele><time>2026-04-12T11:42:37Z</time></trkpt><trkpt lat="40.931169850832376" lon="14.518686148560079"><ele>35.0</ele><time>2026-04-12T11:42:38Z</time></trkpt><trkpt lat="40.93113387150469" lon="14.518309420473567"><ele>35.0</ele><time>2026-04-12T11:42:39Z</time></trkpt><trkpt lat="40.93110293338466" lon="14.517934533566528"><ele>35.0</ele><time>2026-04-12T11:42:40Z</time></trkpt><trkpt lat="40.93107622134089" lon="14.517560188760347"><ele>35.0</ele><time>2026-04-12T11:42:41Z</time></trkpt><trkpt lat="40.931052482788374" lon="14.517184713853444"><ele>34.5</ele><time>2026-04-12T11:42:42Z</time></trkpt><trkpt lat="40.93103243594536" lon="14.516809482213192"><ele>34.0</ele><time>2026-04-12T11:42:43Z</time></trkpt><trkpt lat="40.931016753089516" lon="14.51643546073331"><ele>34.0</ele><time>2026-04-12T11:42:44Z</time></trkpt><trkpt lat="40.93100683070942" lon="14.516061065097151"><ele>34.0</ele><time>2026-04-12T11:42:45Z</time></trkpt><trkpt lat="40.93100058975753" lon="14.515688336468076"><ele>33.5</ele><time>2026-04-12T11:42:46Z</time></trkpt><trkpt lat="40.93099501448732" lon="14.515315862007446"><ele>33.0</ele><time>2026-04-12T11:42:47Z</time></trkpt><trkpt lat="40.930989613843174" lon="14.51494311673386"><ele>33.0</ele><time>2026-04-12T11:42:48Z</time></trkpt><trkpt lat="40.93098298218136" lon="14.514571337020014"><ele>33.0</ele><time>2026-04-12T11:42:49Z</time></trkpt><trkpt lat="40.93097586644781" lon="14.514202687294093"><ele>33.0</ele><time>2026-04-12T11:42:50Z</time></trkpt><trkpt lat="40.930969511474125" lon="14.51383792449522"><ele>33.0</ele><time>2026-04-12T11:42:51Z</time></trkpt><trkpt lat="40.930962866294614" lon="14.513475498118066"><ele>32.5</ele><time>2026-04-12T11:42:52Z</time></trkpt><trkpt lat="40.930957907063586" lon="14.513114794374694"><ele>32.0</ele><time>2026-04-12T11:42:53Z</time></trkpt><trkpt lat="40.93095207041612" lon="14.512754648403869"><ele>31.5</ele><time>2026-04-12T11:42:54Z</time></trkpt><trkpt lat="40.93094667932377" lon="14.512392257572898"><ele>31.0</ele><time>2026-04-12T11:42:55Z</time></trkpt><trkpt lat="40.93093867076627" lon="14.512028914849571"><ele>31.0</ele><time>2026-04-12T11:42:56Z</time></trkpt><trkpt lat="40.93093186069593" lon="14.51166269058492"><ele>31.0</ele><time>2026-04-12T11:42:57Z</time></trkpt><trkpt lat="40.93092495294826" lon="14.511294553775993"><ele>31.5</ele><time>2026-04-12T11:42:58Z</time></trkpt><trkpt lat="40.930918627656474" lon="14.510923608377393"><ele>32.0</ele><time>2026-04-12T11:42:59Z</time></trkpt><trkpt lat="40.9309136395521" lon="14.510550734474386"><ele>31.5</ele><time>2026-04-12T11:43:00Z</time></trkpt><trkpt lat="40.93090954497438" lon="14.510175426174353"><ele>31.0</ele><time>2026-04-12T11:43:01Z</time></trkpt><trkpt lat="40.930906521884125" lon="14.509797103826584"><ele>31.0</ele><time>2026-04-12T11:43:02Z</time></trkpt><trkpt lat="40.93090020661082" lon="14.509416635019809"><ele>31.0</ele><time>2026-04-12T11:43:03Z</time></trkpt><trkpt lat="40.930889792450344" lon="14.509035379888127"><ele>31.5</ele><time>2026-04-12T11:43:04Z</time></trkpt><trkpt lat="40.930877113068696" lon="14.508652141372133"><ele>32.0</ele><time>2026-04-12T11:43:05Z</time></trkpt><trkpt lat="40.93085894088295" lon="14.50826963690259"><ele>32.0</ele><time>2026-04-12T11:43:06Z</time></trkpt><trkpt lat="40.9308354490546" lon="14.50789262247674"><ele>32.0</ele><time>2026-04-12T11:43:07Z</time></trkpt><trkpt lat="40.93081023081493" lon="14.507517496827807"><ele>32.0</ele><time>2026-04-12T11:43:08Z</time></trkpt><trkpt lat="40.930781083621376" lon="14.5071422101227"><ele>32.0</ele><time>2026-04-12T11:43:09Z</time></trkpt><trkpt lat="40.930745368234355" lon="14.50676739808243"><ele>32.0</ele><time>2026-04-12T11:43:10Z</time></trkpt><trkpt lat="40.93070661774124" lon="14.506392159293329"><ele>32.0</ele><time>2026-04-12T11:43:11Z</time></trkpt><trkpt lat="40.930662898781655" lon="14.506018492939061"><ele>32.0</ele><time>2026-04-12T11:43:12Z</time></trkpt><trkpt lat="40.93061487075465" lon="14.505645385150517"><ele>32.0</ele><time>2026-04-12T11:43:13.001Z</time></trkpt><trkpt lat="40.93056199477855" lon="14.505277747971814"><ele>32.5</ele><time>2026-04-12T11:43:14.001Z</time></trkpt><trkpt lat="40.93050375966757" lon="14.504915739271036"><ele>33.0</ele><time>2026-04-12T11:43:15.001Z</time></trkpt><trkpt lat="40.93044050029545" lon="14.504555721664737"><ele>33.0</ele><time>2026-04-12T11:43:16.001Z</time></trkpt><trkpt lat="40.930368675086754" lon="14.504195975105343"><ele>33.0</ele><time>2026-04-12T11:43:17.001Z</time></trkpt><trkpt lat="40.9302920409328" lon="14.503834469707865"><ele>32.5</ele><time>2026-04-12T11:43:18.001Z</time></trkpt><trkpt lat="40.93021076557101" lon="14.503470527157825"><ele>32.0</ele><time>2026-04-12T11:43:19.001Z</time></trkpt><trkpt lat="40.930128176787925" lon="14.503104824327446"><ele>31.5</ele><time>2026-04-12T11:43:20.001Z</time></trkpt><trkpt lat="40.93004146787026" lon="14.502737644793962"><ele>31.0</ele><time>2026-04-12T11:43:21.001Z</time></trkpt><trkpt lat="40.930126796863334" lon="14.502328123769837"><ele>30.5</ele><time>2026-04-12T11:43:22.001Z</time></trkpt><trkpt lat="40.93007620498903" lon="14.501949747729576"><ele>30.0</ele><time>2026-04-12T11:43:23.001Z</time></trkpt><trkpt lat="40.93002560607888" lon="14.501571304618231"><ele>31.5</ele><time>2026-04-12T11:43:24.001Z</time></trkpt><trkpt lat="40.929958765362855" lon="14.50119626005098"><ele>33.0</ele><time>2026-04-12T11:43:25.001Z</time></trkpt><trkpt lat="40.929540040047954" lon="14.50090265085866"><ele>33.0</ele><time>2026-04-12T11:43:26.001Z</time></trkpt><trkpt lat="40.92942734260875" lon="14.50053917143333"><ele>33.0</ele><time>2026-04-12T11:43:27.001Z</time></trkpt><trkpt lat="40.92930893736559" lon="14.500175179464108"><ele>32.5</ele><time>2026-04-12T11:43:28.001Z</time></trkpt><trkpt lat="40.929184602661294" lon="14.499813696139961"><ele>32.0</ele><time>2026-04-12T11:43:29.001Z</time></trkpt><trkpt lat="40.929056557669924" lon="14.499454197441235"><ele>34.0</ele><time>2026-04-12T11:43:30.001Z</time></trkpt><trkpt lat="40.928923849866145" lon="14.499095411824031"><ele>36.0</ele><time>2026-04-12T11:43:31.001Z</time></trkpt><trkpt lat="40.928787283042915" lon="14.498739784410793"><ele>37.0</ele><time>2026-04-12T11:43:32.001Z</time></trkpt><trkpt lat="40.9286476936575" lon="14.498385542470091"><ele>38.0</ele><time>2026-04-12T11:43:33.001Z</time></trkpt><trkpt lat="40.9285053111796" lon="14.498034925994451"><ele>35.5</ele><time>2026-04-12T11:43:34.001Z</time></trkpt><trkpt lat="40.92835684381437" lon="14.497688734465585"><ele>33.0</ele><time>2026-04-12T11:43:35.001Z</time></trkpt><trkpt lat="40.92820342468423" lon="14.49734802345372"><ele>34.5</ele><time>2026-04-12T11:43:36.001Z</time></trkpt><trkpt lat="40.92804667569857" lon="14.497011057542629"><ele>36.0</ele><time>2026-04-12T11:43:37.001Z</time></trkpt><trkpt lat="40.92788868493822" lon="14.496677646341084"><ele>36.0</ele><time>2026-04-12T11:43:38.001Z</time></trkpt><trkpt lat="40.9277316542461" lon="14.496351472637528"><ele>36.0</ele><time>2026-04-12T11:43:39.001Z</time></trkpt><trkpt lat="40.92757724683024" lon="14.496027960095786"><ele>35.0</ele><time>2026-04-12T11:43:40.001Z</time></trkpt><trkpt lat="40.92742301788093" lon="14.495708616358877"><ele>34.0</ele><time>2026-04-12T11:43:41.001Z</time></trkpt><trkpt lat="40.92726887539244" lon="14.495393751126816"><ele>33.0</ele><time>2026-04-12T11:43:42.001Z</time></trkpt><trkpt lat="40.92711541680383" lon="14.495081945658132"><ele>32.0</ele><time>2026-04-12T11:43:43.001Z</time></trkpt><trkpt lat="40.926964193976886" lon="14.494772196157246"><ele>31.0</ele><time>2026-04-12T11:43:44.001Z</time></trkpt><trkpt lat="40.92681685970063" lon="14.494463263822443"><ele>30.0</ele><time>2026-04-12T11:43:45.001Z</time></trkpt><trkpt lat="40.926669629872926" lon="14.494156925000471"><ele>30.0</ele><time>2026-04-12T11:43:46.001Z</time></trkpt><trkpt lat="40.92652197914313" lon="14.49385609969008"><ele>30.0</ele><time>2026-04-12T11:43:47.001Z</time></trkpt><trkpt lat="40.92637717234476" lon="14.493556356509034"><ele>30.0</ele><time>2026-04-12T11:43:48.001Z</time></trkpt><trkpt lat="40.92623452779541" lon="14.49325758683596"><ele>30.0</ele><time>2026-04-12T11:43:49.001Z</time></trkpt><trkpt lat="40.92609161755151" lon="14.492962653731572"><ele>30.5</ele><time>2026-04-12T11:43:50Z</time></trkpt><trkpt lat="40.925949770792755" lon="14.492670358354218"><ele>31.0</ele><time>2026-04-12T11:43:51Z</time></trkpt><trkpt lat="40.92580969635322" lon="14.49238020094599"><ele>31.0</ele><time>2026-04-12T11:43:52Z</time></trkpt><trkpt lat="40.92567039161613" lon="14.492093945547085"><ele>31.0</ele><time>2026-04-12T11:43:53Z</time></trkpt><trkpt lat="40.925531463504825" lon="14.491810161360206"><ele>31.0</ele><time>2026-04-12T11:43:54Z</time></trkpt><trkpt lat="40.925391842703895" lon="14.491531373317072"><ele>31.0</ele><time>2026-04-12T11:43:55Z</time></trkpt><trkpt lat="40.9252532434464" lon="14.491250688407689"><ele>30.5</ele><time>2026-04-12T11:43:56Z</time></trkpt><trkpt lat="40.92511664978997" lon="14.49096873947758"><ele>30.0</ele><time>2026-04-12T11:43:57Z</time></trkpt><trkpt lat="40.92498076059455" lon="14.490687730768581"><ele>30.0</ele><time>2026-04-12T11:43:58Z</time></trkpt><trkpt lat="40.924845132891875" lon="14.49040556175212"><ele>30.0</ele><time>2026-04-12T11:43:59Z</time></trkpt><trkpt lat="40.92471059555275" lon="14.490125000314487"><ele>30.0</ele><time>2026-04-12T11:44:00Z</time></trkpt><trkpt lat="40.92457672637681" lon="14.489849687171818"><ele>30.0</ele><time>2026-04-12T11:44:01Z</time></trkpt><trkpt lat="40.92444382574379" lon="14.489576432533426"><ele>30.5</ele><time>2026-04-12T11:44:02Z</time></trkpt><trkpt lat="40.92431010694614" lon="14.489303134922139"><ele>31.0</ele><time>2026-04-12T11:44:03Z</time></trkpt><trkpt lat="40.924174589370516" lon="14.489030102446403"><ele>31.0</ele><time>2026-04-12T11:44:04Z</time></trkpt><trkpt lat="40.92403997011995" lon="14.488756822897075"><ele>31.0</ele><time>2026-04-12T11:44:05Z</time></trkpt><trkpt lat="40.9239059433405" lon="14.488483216093671"><ele>31.0</ele><time>2026-04-12T11:44:06Z</time></trkpt><trkpt lat="40.92377143347159" lon="14.488210405830301"><ele>31.0</ele><time>2026-04-12T11:44:07Z</time></trkpt><trkpt lat="40.92363820043334" lon="14.487937468796998"><ele>31.5</ele><time>2026-04-12T11:44:08Z</time></trkpt><trkpt lat="40.923505749573216" lon="14.487662967331389"><ele>32.0</ele><time>2026-04-12T11:44:09Z</time></trkpt><trkpt lat="40.9233738584025" lon="14.487388331242425"><ele>32.0</ele><time>2026-04-12T11:44:10Z</time></trkpt><trkpt lat="40.92324453860217" lon="14.487116853063092"><ele>32.0</ele><time>2026-04-12T11:44:11Z</time></trkpt><trkpt lat="40.92311670342422" lon="14.486849451236594"><ele>32.0</ele><time>2026-04-12T11:44:12Z</time></trkpt><trkpt lat="40.92299062142563" lon="14.4865841807271"><ele>32.0</ele><time>2026-04-12T11:44:13Z</time></trkpt><trkpt lat="40.92286373609521" lon="14.48632112947391"><ele>32.0</ele><time>2026-04-12T11:44:14Z</time></trkpt><trkpt lat="40.92273643216103" lon="14.486059723303939"><ele>32.0</ele><time>2026-04-12T11:44:15Z</time></trkpt><trkpt lat="40.922607808900715" lon="14.485799029323104"><ele>32.5</ele><time>2026-04-12T11:44:16Z</time></trkpt><trkpt lat="40.9224791652167" lon="14.485536362812425"><ele>33.0</ele><time>2026-04-12T11:44:17Z</time></trkpt><trkpt lat="40.922350278871924" lon="14.485271990764636"><ele>33.0</ele><time>2026-04-12T11:44:18Z</time></trkpt><trkpt lat="40.922221796940235" lon="14.485005239514217"><ele>33.0</ele><time>2026-04-12T11:44:19Z</time></trkpt><trkpt lat="40.922091936089856" lon="14.48473647259341"><ele>33.5</ele><time>2026-04-12T11:44:20Z</time></trkpt><trkpt lat="40.92195996172622" lon="14.484466063989904"><ele>34.0</ele><time>2026-04-12T11:44:21Z</time></trkpt><trkpt lat="40.92182626150922" lon="14.484192775302613"><ele>33.5</ele><time>2026-04-12T11:44:22Z</time></trkpt><trkpt lat="40.921691103493345" lon="14.48391603294604"><ele>33.0</ele><time>2026-04-12T11:44:23Z</time></trkpt><trkpt lat="40.92155642889077" lon="14.48363533451902"><ele>33.0</ele><time>2026-04-12T11:44:24Z</time></trkpt><trkpt lat="40.92142130068623" lon="14.483351356276714"><ele>33.0</ele><time>2026-04-12T11:44:25Z</time></trkpt><trkpt lat="40.921282734864235" lon="14.483064994992185"><ele>33.0</ele><time>2026-04-12T11:44:26Z</time></trkpt><trkpt lat="40.92114265457984" lon="14.482775573561923"><ele>33.0</ele><time>2026-04-12T11:44:27Z</time></trkpt><trkpt lat="40.921002160439336" lon="14.482483068739429"><ele>32.5</ele><time>2026-04-12T11:44:28Z</time></trkpt><trkpt lat="40.92086108574005" lon="14.48218797149159"><ele>32.0</ele><time>2026-04-12T11:44:29Z</time></trkpt><trkpt lat="40.92072076046258" lon="14.481888767386423"><ele>32.0</ele><time>2026-04-12T11:44:30Z</time></trkpt><trkpt lat="40.92058258419998" lon="14.481585133031583"><ele>32.0</ele><time>2026-04-12T11:44:31Z</time></trkpt><trkpt lat="40.9204464395171" lon="14.481278165359736"><ele>32.5</ele><time>2026-04-12T11:44:32Z</time></trkpt><trkpt lat="40.92031315183911" lon="14.48096836515351"><ele>33.0</ele><time>2026-04-12T11:44:33.001Z</time></trkpt><trkpt lat="40.92018083108276" lon="14.480656355849161"><ele>32.5</ele><time>2026-04-12T11:44:34.001Z</time></trkpt><trkpt lat="40.920049611298985" lon="14.480341639290863"><ele>32.0</ele><time>2026-04-12T11:44:35.001Z</time></trkpt><trkpt lat="40.9199207332674" lon="14.48002637480665"><ele>32.0</ele><time>2026-04-12T11:44:36.001Z</time></trkpt><trkpt lat="40.919792692698266" lon="14.479718566316087"><ele>32.0</ele><time>2026-04-12T11:44:37.001Z</time></trkpt><trkpt lat="40.91966701141252" lon="14.479412899531564"><ele>32.5</ele><time>2026-04-12T11:44:38.001Z</time></trkpt><trkpt lat="40.91954475021982" lon="14.47911106508068"><ele>33.0</ele><time>2026-04-12T11:44:39.001Z</time></trkpt><trkpt lat="40.919425193590534" lon="14.478814747293876"><ele>32.5</ele><time>2026-04-12T11:44:40.001Z</time></trkpt><trkpt lat="40.919307746703716" lon="14.478523327114422"><ele>32.0</ele><time>2026-04-12T11:44:41.001Z</time></trkpt><trkpt lat="40.91919097924565" lon="14.47823763909209"><ele>32.0</ele><time>2026-04-12T11:44:42.001Z</time></trkpt><trkpt lat="40.91907512403615" lon="14.477955319240799"><ele>32.0</ele><time>2026-04-12T11:44:43.001Z</time></trkpt><trkpt lat="40.918961052537966" lon="14.477674672010949"><ele>32.5</ele><time>2026-04-12T11:44:44.001Z</time></trkpt><trkpt lat="40.91884677539121" lon="14.477392371572103"><ele>33.0</ele><time>2026-04-12T11:44:45.001Z</time></trkpt><trkpt lat="40.918732077719774" lon="14.477108997152452"><ele>32.5</ele><time>2026-04-12T11:44:46.001Z</time></trkpt><trkpt lat="40.91861904827641" lon="14.476824539083667"><ele>32.0</ele><time>2026-04-12T11:44:47.001Z</time></trkpt><trkpt lat="40.91850582918773" lon="14.476541186160462"><ele>32.0</ele><time>2026-04-12T11:44:48.001Z</time></trkpt><trkpt lat="40.91839153471301" lon="14.476260670997634"><ele>32.0</ele><time>2026-04-12T11:44:49.001Z</time></trkpt><trkpt lat="40.91827925552594" lon="14.475983864148985"><ele>32.0</ele><time>2026-04-12T11:44:50.001Z</time></trkpt><trkpt lat="40.91816754340327" lon="14.475708823481328"><ele>32.0</ele><time>2026-04-12T11:44:51.001Z</time></trkpt><trkpt lat="40.91805677757077" lon="14.475435455483437"><ele>32.5</ele><time>2026-04-12T11:44:52.001Z</time></trkpt><trkpt lat="40.91794671518037" lon="14.475162482545993"><ele>33.0</ele><time>2026-04-12T11:44:53.001Z</time></trkpt><trkpt lat="40.917836121374144" lon="14.474891646497714"><ele>33.0</ele><time>2026-04-12T11:44:54.001Z</time></trkpt><trkpt lat="40.91772637709454" lon="14.474625119965099"><ele>33.0</ele><time>2026-04-12T11:44:55Z</time></trkpt><trkpt lat="40.917618619006184" lon="14.474358875207178"><ele>33.0</ele><time>2026-04-12T11:44:56Z</time></trkpt><trkpt lat="40.9175118011641" lon="14.474097850615484"><ele>33.0</ele><time>2026-04-12T11:44:57Z</time></trkpt><trkpt lat="40.917405687485704" lon="14.473840218107107"><ele>33.0</ele><time>2026-04-12T11:44:58Z</time></trkpt><trkpt lat="40.91730137163879" lon="14.473585968782913"><ele>33.0</ele><time>2026-04-12T11:44:59Z</time></trkpt><trkpt lat="40.91720119664958" lon="14.473333954935725"><ele>33.0</ele><time>2026-04-12T11:45:00Z</time></trkpt><trkpt lat="40.917106593852125" lon="14.473081897326653"><ele>33.0</ele><time>2026-04-12T11:45:01Z</time></trkpt><trkpt lat="40.91702178419721" lon="14.472838804268468"><ele>32.0</ele><time>2026-04-12T11:45:02Z</time></trkpt><trkpt lat="40.916944530460775" lon="14.4726144889663"><ele>31.0</ele><time>2026-04-12T11:45:03Z</time></trkpt><trkpt lat="40.9168798786988" lon="14.472413906413616"><ele>30.0</ele><time>2026-04-12T11:45:04Z</time></trkpt><trkpt lat="40.91682429391743" lon="14.472232659170672"><ele>30.25</ele><time>2026-04-12T11:45:05Z</time></trkpt><trkpt lat="40.91677595172939" lon="14.472063167352959"><ele>30.5</ele><time>2026-04-12T11:45:06Z</time></trkpt><trkpt lat="40.9167318939887" lon="14.471899570904915"><ele>30.75</ele><time>2026-04-12T11:45:07Z</time></trkpt><trkpt lat="40.916689634679294" lon="14.471747739035672"><ele>31.0</ele><time>2026-04-12T11:45:08Z</time></trkpt><trkpt lat="40.91665199170633" lon="14.471606710484007"><ele>31.333333333333336</ele><time>2026-04-12T11:45:09Z</time></trkpt><trkpt lat="40.91661554150399" lon="14.471474742341153"><ele>31.666666666666668</ele><time>2026-04-12T11:45:10Z</time></trkpt><trkpt lat="40.91658205752871" lon="14.47136610698482"><ele>32.0</ele><time>2026-04-12T11:45:11Z</time></trkpt><trkpt lat="40.916549127465835" lon="14.471269121836553"><ele>32.333333333333336</ele><time>2026-04-12T11:45:12Z</time></trkpt><trkpt lat="40.91651840353594" lon="14.471181514510985"><ele>32.666666666666664</ele><time>2026-04-12T11:45:13Z</time></trkpt><trkpt lat="40.91648888342666" lon="14.47110148649609"><ele>33.0</ele><time>2026-04-12T11:45:14Z</time></trkpt><trkpt lat="40.916442583429756" lon="14.47098273681826"><ele>33.0</ele><time>2026-04-12T11:45:16Z</time></trkpt><trkpt lat="40.91641002486872" lon="14.470900270779643"><ele>33.0</ele><time>2026-04-12T11:45:18Z</time></trkpt><trkpt lat="40.91636477275513" lon="14.470794234717108"><ele>33.0</ele><time>2026-04-12T11:46:40Z</time></trkpt><trkpt lat="40.916338533532674" lon="14.470717997794049"><ele>33.0</ele><time>2026-04-12T11:46:42Z</time></trkpt><trkpt lat="40.91629742529169" lon="14.470608502166487"><ele>33.0</ele><time>2026-04-12T11:46:44Z</time></trkpt><trkpt lat="40.916236538982176" lon="14.470457221062093"><ele>33.0</ele><time>2026-04-12T11:46:46Z</time></trkpt><trkpt lat="40.91619486394925" lon="14.47035872418873"><ele>32.8</ele><time>2026-04-12T11:46:47Z</time></trkpt><trkpt lat="40.91614328107967" lon="14.470245510555088"><ele>32.599999999999994</ele><time>2026-04-12T11:46:48Z</time></trkpt><trkpt lat="40.916085519002465" lon="14.47012797250197"><ele>32.400000000000006</ele><time>2026-04-12T11:46:49Z</time></trkpt><trkpt lat="40.916022139504655" lon="14.470003768790251"><ele>32.2</ele><time>2026-04-12T11:46:50Z</time></trkpt><trkpt lat="40.91595572974101" lon="14.469870265076963"><ele>32.0</ele><time>2026-04-12T11:46:51Z</time></trkpt><trkpt lat="40.91588363914615" lon="14.469728232651427"><ele>32.0</ele><time>2026-04-12T11:46:52Z</time></trkpt><trkpt lat="40.91580773353635" lon="14.46958063710278"><ele>32.0</ele><time>2026-04-12T11:46:53Z</time></trkpt><trkpt lat="40.91572864613412" lon="14.469428752550712"><ele>32.0</ele><time>2026-04-12T11:46:54Z</time></trkpt><trkpt lat="40.91564720057523" lon="14.469273618913999"><ele>32.0</ele><time>2026-04-12T11:46:55Z</time></trkpt><trkpt lat="40.9155658273531" lon="14.469115052674868"><ele>32.0</ele><time>2026-04-12T11:46:56Z</time></trkpt><trkpt lat="40.915481207744655" lon="14.468951662427845"><ele>32.0</ele><time>2026-04-12T11:46:57Z</time></trkpt><trkpt lat="40.91539502145413" lon="14.468781277874353"><ele>32.0</ele><time>2026-04-12T11:46:58Z</time></trkpt><trkpt lat="40.91531043711635" lon="14.468600850534152"><ele>32.0</ele><time>2026-04-12T11:46:59Z</time></trkpt><trkpt lat="40.91522531164657" lon="14.468411872429892"><ele>32.0</ele><time>2026-04-12T11:47:00Z</time></trkpt><trkpt lat="40.915138851689015" lon="14.468215023842324"><ele>32.0</ele><time>2026-04-12T11:47:01Z</time></trkpt><trkpt lat="40.91505037921118" lon="14.468011771229067"><ele>31.666666666666664</ele><time>2026-04-12T11:47:02Z</time></trkpt><trkpt lat="40.91496379485489" lon="14.46780645584301"><ele>31.333333333333336</ele><time>2026-04-12T11:47:03Z</time></trkpt><trkpt lat="40.914876698439244" lon="14.467594137852434"><ele>31.0</ele><time>2026-04-12T11:47:04Z</time></trkpt><trkpt lat="40.914787524204634" lon="14.467376227815867"><ele>31.0</ele><time>2026-04-12T11:47:05Z</time></trkpt><trkpt lat="40.914696352624375" lon="14.467152497600576"><ele>31.0</ele><time>2026-04-12T11:47:06Z</time></trkpt><trkpt lat="40.914603759749426" lon="14.466922984698519"><ele>31.0</ele><time>2026-04-12T11:47:07Z</time></trkpt><trkpt lat="40.91450835683515" lon="14.466691008992305"><ele>31.0</ele><time>2026-04-12T11:47:08Z</time></trkpt><trkpt lat="40.91441169509998" lon="14.466455481183493"><ele>31.0</ele><time>2026-04-12T11:47:09Z</time></trkpt><trkpt lat="40.91431313810245" lon="14.466216806971863"><ele>31.0</ele><time>2026-04-12T11:47:10Z</time></trkpt><trkpt lat="40.91421664158936" lon="14.465973900857048"><ele>31.0</ele><time>2026-04-12T11:47:11Z</time></trkpt><trkpt lat="40.914115969345595" lon="14.465730987103328"><ele>31.0</ele><time>2026-04-12T11:47:12Z</time></trkpt><trkpt lat="40.91401803599798" lon="14.4654842028979"><ele>31.0</ele><time>2026-04-12T11:47:13Z</time></trkpt><trkpt lat="40.91391851828873" lon="14.465236423805516"><ele>31.0</ele><time>2026-04-12T11:47:14Z</time></trkpt><trkpt lat="40.913817319204206" lon="14.464987702482254"><ele>31.0</ele><time>2026-04-12T11:47:15Z</time></trkpt><trkpt lat="40.913714919799894" lon="14.464736255315225"><ele>31.0</ele><time>2026-04-12T11:47:16Z</time></trkpt><trkpt lat="40.91361244869143" lon="14.464482130279826"><ele>31.0</ele><time>2026-04-12T11:47:17Z</time></trkpt><trkpt lat="40.91350931971821" lon="14.464225118916454"><ele>31.0</ele><time>2026-04-12T11:47:18Z</time></trkpt><trkpt lat="40.91340375439791" lon="14.463966671103872"><ele>31.0</ele><time>2026-04-12T11:47:19Z</time></trkpt><trkpt lat="40.91329803456718" lon="14.463706662151267"><ele>31.5</ele><time>2026-04-12T11:47:20Z</time></trkpt><trkpt lat="40.91319207719053" lon="14.46344307456844"><ele>32.0</ele><time>2026-04-12T11:47:21Z</time></trkpt><trkpt lat="40.91308414358552" lon="14.463178221660657"><ele>32.0</ele><time>2026-04-12T11:47:22Z</time></trkpt><trkpt lat="40.91297562960022" lon="14.462910430618676"><ele>32.0</ele><time>2026-04-12T11:47:23Z</time></trkpt><trkpt lat="40.912864139595584" lon="14.462640107525242"><ele>32.0</ele><time>2026-04-12T11:47:24Z</time></trkpt><trkpt lat="40.912754981149334" lon="14.462364173779783"><ele>32.0</ele><time>2026-04-12T11:47:25Z</time></trkpt><trkpt lat="40.91264123499411" lon="14.46208781884105"><ele>33.5</ele><time>2026-04-12T11:47:26Z</time></trkpt><trkpt lat="40.91252929920289" lon="14.461806358512952"><ele>35.0</ele><time>2026-04-12T11:47:27Z</time></trkpt><trkpt lat="40.912412169641186" lon="14.461524584935912"><ele>34.5</ele><time>2026-04-12T11:47:28.001Z</time></trkpt><trkpt lat="40.91229745005594" lon="14.461236765006957"><ele>34.0</ele><time>2026-04-12T11:47:29.001Z</time></trkpt><trkpt lat="40.912175683203344" lon="14.460946855542812"><ele>34.0</ele><time>2026-04-12T11:47:30.001Z</time></trkpt><trkpt lat="40.912056051876505" lon="14.460650552526415"><ele>34.0</ele><time>2026-04-12T11:47:31.001Z</time></trkpt><trkpt lat="40.91193417698088" lon="14.460355367099293"><ele>33.5</ele><time>2026-04-12T11:47:32.001Z</time></trkpt><trkpt lat="40.91181294398518" lon="14.460061189491793"><ele>33.0</ele><time>2026-04-12T11:47:33.001Z</time></trkpt><trkpt lat="40.911689737962895" lon="14.459760548752971"><ele>34.5</ele><time>2026-04-12T11:47:34.001Z</time></trkpt><trkpt lat="40.9115693001191" lon="14.45945386555984"><ele>36.0</ele><time>2026-04-12T11:47:35.001Z</time></trkpt><trkpt lat="40.91145175132041" lon="14.459142560348194"><ele>36.0</ele><time>2026-04-12T11:47:36.001Z</time></trkpt><trkpt lat="40.9113377583748" lon="14.458827153056392"><ele>36.0</ele><time>2026-04-12T11:47:37.001Z</time></trkpt><trkpt lat="40.911229171630794" lon="14.458506635570197"><ele>36.0</ele><time>2026-04-12T11:47:38.001Z</time></trkpt><trkpt lat="40.911124652176994" lon="14.458181790887213"><ele>36.0</ele><time>2026-04-12T11:47:39.001Z</time></trkpt><trkpt lat="40.911021997926966" lon="14.457854155031248"><ele>36.0</ele><time>2026-04-12T11:47:40.001Z</time></trkpt><trkpt lat="40.910921240621676" lon="14.457521799504152"><ele>36.0</ele><time>2026-04-12T11:47:41.001Z</time></trkpt><trkpt lat="40.910825033520375" lon="14.457185734000197"><ele>37.0</ele><time>2026-04-12T11:47:42.001Z</time></trkpt><trkpt lat="40.91073160104447" lon="14.456846740242682"><ele>38.0</ele><time>2026-04-12T11:47:43.001Z</time></trkpt><trkpt lat="40.910642539423286" lon="14.456504978254628"><ele>37.0</ele><time>2026-04-12T11:47:44.001Z</time></trkpt><trkpt lat="40.910556738783114" lon="14.45615858326998"><ele>36.0</ele><time>2026-04-12T11:47:45.001Z</time></trkpt><trkpt lat="40.910474955034125" lon="14.455809626170147"><ele>36.0</ele><time>2026-04-12T11:47:46.001Z</time></trkpt><trkpt lat="40.91039604422561" lon="14.455457974904547"><ele>36.0</ele><time>2026-04-12T11:47:47.001Z</time></trkpt><trkpt lat="40.91031874473079" lon="14.45510467918834"><ele>36.0</ele><time>2026-04-12T11:47:48.001Z</time></trkpt><trkpt lat="40.91024605598454" lon="14.454749429475976"><ele>36.0</ele><time>2026-04-12T11:47:49.001Z</time></trkpt><trkpt lat="40.91017949547679" lon="14.454391446424411"><ele>36.0</ele><time>2026-04-12T11:47:50.001Z</time></trkpt><trkpt lat="40.91011921870725" lon="14.454032960976733"><ele>36.0</ele><time>2026-04-12T11:47:51.001Z</time></trkpt><trkpt lat="40.9100620744154" lon="14.453673833816628"><ele>37.0</ele><time>2026-04-12T11:47:52.001Z</time></trkpt><trkpt lat="40.9100104593597" lon="14.453315097947902"><ele>38.0</ele><time>2026-04-12T11:47:53.001Z</time></trkpt><trkpt lat="40.9099609743731" lon="14.452955892800286"><ele>38.0</ele><time>2026-04-12T11:47:54.001Z</time></trkpt><trkpt lat="40.909911670106" lon="14.452596829069195"><ele>38.0</ele><time>2026-04-12T11:47:55.001Z</time></trkpt><trkpt lat="40.90986393606419" lon="14.452237860693556"><ele>38.0</ele><time>2026-04-12T11:47:56.001Z</time></trkpt><trkpt lat="40.909818416726715" lon="14.451878307030698"><ele>38.0</ele><time>2026-04-12T11:47:57.001Z</time></trkpt><trkpt lat="40.909775283418945" lon="14.451517795748822"><ele>38.5</ele><time>2026-04-12T11:47:58.001Z</time></trkpt><trkpt lat="40.90973268842232" lon="14.451155311221996"><ele>39.0</ele><time>2026-04-12T11:47:59.001Z</time></trkpt><trkpt lat="40.90969151529876" lon="14.45079166670584"><ele>38.5</ele><time>2026-04-12T11:48:00.001Z</time></trkpt><trkpt lat="40.90964631178086" lon="14.450425894178917"><ele>38.0</ele><time>2026-04-12T11:48:01.001Z</time></trkpt><trkpt lat="40.90960145297975" lon="14.450057585922378"><ele>38.0</ele><time>2026-04-12T11:48:02Z</time></trkpt><trkpt lat="40.90955626366486" lon="14.449688374295015"><ele>38.0</ele><time>2026-04-12T11:48:03Z</time></trkpt><trkpt lat="40.90950923984188" lon="14.449317034970763"><ele>38.0</ele><time>2026-04-12T11:48:04Z</time></trkpt><trkpt lat="40.90946338623134" lon="14.448944123022505"><ele>38.0</ele><time>2026-04-12T11:48:05Z</time></trkpt><trkpt lat="40.90941623806438" lon="14.448568612453764"><ele>38.0</ele><time>2026-04-12T11:48:06Z</time></trkpt><trkpt lat="40.90937021862191" lon="14.448190859677005"><ele>38.0</ele><time>2026-04-12T11:48:07Z</time></trkpt><trkpt lat="40.90932515425499" lon="14.44781134070121"><ele>38.0</ele><time>2026-04-12T11:48:08Z</time></trkpt><trkpt lat="40.90927870087966" lon="14.447429386673306"><ele>38.0</ele><time>2026-04-12T11:48:09Z</time></trkpt><trkpt lat="40.90923255900977" lon="14.447046138773201"><ele>38.0</ele><time>2026-04-12T11:48:10Z</time></trkpt><trkpt lat="40.909185464060165" lon="14.446661024906486"><ele>38.0</ele><time>2026-04-12T11:48:11Z</time></trkpt><trkpt lat="40.90913758247979" lon="14.446274723833122"><ele>38.0</ele><time>2026-04-12T11:48:12Z</time></trkpt><trkpt lat="40.909089425571615" lon="14.445887490746026"><ele>38.0</ele><time>2026-04-12T11:48:13Z</time></trkpt><trkpt lat="40.9090428086479" lon="14.445498566113379"><ele>39.0</ele><time>2026-04-12T11:48:14Z</time></trkpt><trkpt lat="40.90899699346253" lon="14.44510901105666"><ele>40.0</ele><time>2026-04-12T11:48:15Z</time></trkpt><trkpt lat="40.90894826592084" lon="14.444718481664028"><ele>40.5</ele><time>2026-04-12T11:48:16Z</time></trkpt><trkpt lat="40.90890067636699" lon="14.444327029542093"><ele>41.0</ele><time>2026-04-12T11:48:17Z</time></trkpt><trkpt lat="40.90885255946241" lon="14.443934748271229"><ele>40.5</ele><time>2026-04-12T11:48:18Z</time></trkpt><trkpt lat="40.908804321557156" lon="14.443541399729067"><ele>40.0</ele><time>2026-04-12T11:48:19Z</time></trkpt><trkpt lat="40.90875442925406" lon="14.443148305736315"><ele>39.0</ele><time>2026-04-12T11:48:20Z</time></trkpt><trkpt lat="40.908704267092645" lon="14.442753580674355"><ele>38.0</ele><time>2026-04-12T11:48:21Z</time></trkpt><trkpt lat="40.9086558027584" lon="14.442357930197053"><ele>37.5</ele><time>2026-04-12T11:48:22Z</time></trkpt><trkpt lat="40.90860791354129" lon="14.441961550459313"><ele>37.0</ele><time>2026-04-12T11:48:23Z</time></trkpt><trkpt lat="40.908560752838376" lon="14.441564106931876"><ele>38.0</ele><time>2026-04-12T11:48:24Z</time></trkpt><trkpt lat="40.90851167699758" lon="14.441166857887932"><ele>39.0</ele><time>2026-04-12T11:48:25Z</time></trkpt><trkpt lat="40.90846259544706" lon="14.440769839551916"><ele>39.5</ele><time>2026-04-12T11:48:26Z</time></trkpt><trkpt lat="40.908413041937365" lon="14.44037302342807"><ele>40.0</ele><time>2026-04-12T11:48:27Z</time></trkpt><trkpt lat="40.90836586966527" lon="14.43997578715611"><ele>40.0</ele><time>2026-04-12T11:48:28Z</time></trkpt><trkpt lat="40.908317233450894" lon="14.439578691609803"><ele>40.0</ele><time>2026-04-12T11:48:29Z</time></trkpt><trkpt lat="40.908268754494586" lon="14.439181662240731"><ele>40.5</ele><time>2026-04-12T11:48:30Z</time></trkpt><trkpt lat="40.90821902591039" lon="14.438784341556083"><ele>41.0</ele><time>2026-04-12T11:48:31Z</time></trkpt><trkpt lat="40.908170813896064" lon="14.43838755341649"><ele>41.0</ele><time>2026-04-12T11:48:32Z</time></trkpt><trkpt lat="40.90812200253476" lon="14.437991647610783"><ele>41.0</ele><time>2026-04-12T11:48:33Z</time></trkpt><trkpt lat="40.908073076421296" lon="14.437595977682424"><ele>41.0</ele><time>2026-04-12T11:48:34Z</time></trkpt><trkpt lat="40.9080244705961" lon="14.437200127453002"><ele>41.0</ele><time>2026-04-12T11:48:35Z</time></trkpt><trkpt lat="40.90797532291578" lon="14.436803446811389"><ele>41.0</ele><time>2026-04-12T11:48:36Z</time></trkpt><trkpt lat="40.907927087162626" lon="14.436405418143725"><ele>41.0</ele><time>2026-04-12T11:48:37Z</time></trkpt><trkpt lat="40.907879342139935" lon="14.436005784861882"><ele>41.0</ele><time>2026-04-12T11:48:38Z</time></trkpt><trkpt lat="40.907828952246845" lon="14.435604295031283"><ele>41.0</ele><time>2026-04-12T11:48:39Z</time></trkpt><trkpt lat="40.9077806370054" lon="14.435201179792207"><ele>41.5</ele><time>2026-04-12T11:48:40Z</time></trkpt><trkpt lat="40.90773236848441" lon="14.434796715124076"><ele>42.0</ele><time>2026-04-12T11:48:41Z</time></trkpt><trkpt lat="40.90768060495636" lon="14.434391322471035"><ele>42.0</ele><time>2026-04-12T11:48:42Z</time></trkpt><trkpt lat="40.90763238658996" lon="14.433986311328399"><ele>42.0</ele><time>2026-04-12T11:48:43Z</time></trkpt><trkpt lat="40.9075830834377" lon="14.433580241529539"><ele>43.0</ele><time>2026-04-12T11:48:44Z</time></trkpt><trkpt lat="40.90753327759283" lon="14.433174645656305"><ele>44.0</ele><time>2026-04-12T11:48:45Z</time></trkpt><trkpt lat="40.907482004147965" lon="14.432769461898259"><ele>44.0</ele><time>2026-04-12T11:48:46Z</time></trkpt><trkpt lat="40.90743221721767" lon="14.432364355041384"><ele>44.0</ele><time>2026-04-12T11:48:47Z</time></trkpt><trkpt lat="40.90738153793139" lon="14.431960318072727"><ele>44.0</ele><time>2026-04-12T11:48:48Z</time></trkpt><trkpt lat="40.90733035336953" lon="14.431556793787612"><ele>44.0</ele><time>2026-04-12T11:48:49Z</time></trkpt><trkpt lat="40.90728322973906" lon="14.431153062146596"><ele>44.0</ele><time>2026-04-12T11:48:50Z</time></trkpt><trkpt lat="40.907235033596876" lon="14.430749360760798"><ele>44.0</ele><time>2026-04-12T11:48:51Z</time></trkpt><trkpt lat="40.907187335134395" lon="14.430344867905765"><ele>44.0</ele><time>2026-04-12T11:48:52Z</time></trkpt><trkpt lat="40.90713934450123" lon="14.429941473271668"><ele>44.0</ele><time>2026-04-12T11:48:53Z</time></trkpt><trkpt lat="40.907091128588256" lon="14.429538622260319"><ele>45.0</ele><time>2026-04-12T11:48:54Z</time></trkpt><trkpt lat="40.9070397750619" lon="14.42913745944044"><ele>46.0</ele><time>2026-04-12T11:48:55Z</time></trkpt><trkpt lat="40.90699065757935" lon="14.428737121092201"><ele>46.0</ele><time>2026-04-12T11:48:56Z</time></trkpt><trkpt lat="40.90694060400031" lon="14.428338141702179"><ele>46.0</ele><time>2026-04-12T11:48:57Z</time></trkpt><trkpt lat="40.9068897025914" lon="14.427941979763705"><ele>46.5</ele><time>2026-04-12T11:48:58Z</time></trkpt><trkpt lat="40.906840153558065" lon="14.427547566816362"><ele>47.0</ele><time>2026-04-12T11:48:59Z</time></trkpt><trkpt lat="40.90679104818537" lon="14.427153995811857"><ele>47.0</ele><time>2026-04-12T11:49:00Z</time></trkpt><trkpt lat="40.90674398611478" lon="14.426760828175038"><ele>47.0</ele><time>2026-04-12T11:49:01Z</time></trkpt><trkpt lat="40.90669825180135" lon="14.426368576220986"><ele>46.5</ele><time>2026-04-12T11:49:02Z</time></trkpt><trkpt lat="40.906649376249234" lon="14.42597697626868"><ele>46.0</ele><time>2026-04-12T11:49:03Z</time></trkpt><trkpt lat="40.90660048887187" lon="14.425587149242471"><ele>47.0</ele><time>2026-04-12T11:49:04Z</time></trkpt><trkpt lat="40.906551043666006" lon="14.42519657305127"><ele>48.0</ele><time>2026-04-12T11:49:05Z</time></trkpt><trkpt lat="40.90650265725865" lon="14.4248058009271"><ele>48.5</ele><time>2026-04-12T11:49:06Z</time></trkpt><trkpt lat="40.90645455402352" lon="14.42441484960485"><ele>49.0</ele><time>2026-04-12T11:49:07Z</time></trkpt><trkpt lat="40.90640740619527" lon="14.42402251977097"><ele>49.5</ele><time>2026-04-12T11:49:08Z</time></trkpt><trkpt lat="40.90635974180079" lon="14.423630663237518"><ele>50.0</ele><time>2026-04-12T11:49:09Z</time></trkpt><trkpt lat="40.906311563851936" lon="14.423236831801585"><ele>49.5</ele><time>2026-04-12T11:49:10Z</time></trkpt><trkpt lat="40.90626357623122" lon="14.422842032426754"><ele>49.0</ele><time>2026-04-12T11:49:11Z</time></trkpt><trkpt lat="40.90621434058715" lon="14.422445257672862"><ele>48.5</ele><time>2026-04-12T11:49:12Z</time></trkpt><trkpt lat="40.90616510910753" lon="14.4220456964718"><ele>48.0</ele><time>2026-04-12T11:49:13Z</time></trkpt><trkpt lat="40.9061160246547" lon="14.421642708149667"><ele>48.0</ele><time>2026-04-12T11:49:14Z</time></trkpt><trkpt lat="40.906066967209135" lon="14.42123708493261"><ele>48.0</ele><time>2026-04-12T11:49:15Z</time></trkpt><trkpt lat="40.90601813017133" lon="14.42082715779817"><ele>48.0</ele><time>2026-04-12T11:49:16.001Z</time></trkpt><trkpt lat="40.905969629211185" lon="14.420414140391365"><ele>48.0</ele><time>2026-04-12T11:49:17.001Z</time></trkpt><trkpt lat="40.90592023301121" lon="14.419998062236008"><ele>48.0</ele><time>2026-04-12T11:49:18.001Z</time></trkpt><trkpt lat="40.90586969668344" lon="14.41957930946085"><ele>48.0</ele><time>2026-04-12T11:49:19.001Z</time></trkpt><trkpt lat="40.905818155360585" lon="14.419158528368582"><ele>47.5</ele><time>2026-04-12T11:49:20.001Z</time></trkpt><trkpt lat="40.90576454725519" lon="14.418737027170963"><ele>47.0</ele><time>2026-04-12T11:49:21.001Z</time></trkpt><trkpt lat="40.905714330083256" lon="14.418315004123889"><ele>46.5</ele><time>2026-04-12T11:49:22.001Z</time></trkpt><trkpt lat="40.905661221889225" lon="14.417898307696047"><ele>46.0</ele><time>2026-04-12T11:49:23.001Z</time></trkpt><trkpt lat="40.90561010106746" lon="14.417489075056814"><ele>46.0</ele><time>2026-04-12T11:49:24.001Z</time></trkpt><trkpt lat="40.905559279512026" lon="14.41708748361773"><ele>46.0</ele><time>2026-04-12T11:49:25.001Z</time></trkpt><trkpt lat="40.90550734835849" lon="14.416695164143883"><ele>46.5</ele><time>2026-04-12T11:49:26.001Z</time></trkpt><trkpt lat="40.90545902171705" lon="14.416308584381383"><ele>47.0</ele><time>2026-04-12T11:49:27.001Z</time></trkpt><trkpt lat="40.905411242913196" lon="14.415934062064318"><ele>47.0</ele><time>2026-04-12T11:49:28.001Z</time></trkpt><trkpt lat="40.90536498093512" lon="14.415565445475755"><ele>47.0</ele><time>2026-04-12T11:49:29.001Z</time></trkpt><trkpt lat="40.90531976809" lon="14.415200573434523"><ele>46.5</ele><time>2026-04-12T11:49:30.001Z</time></trkpt><trkpt lat="40.90527112195342" lon="14.414834865382412"><ele>46.0</ele><time>2026-04-12T11:49:31.001Z</time></trkpt><trkpt lat="40.90521684079971" lon="14.414467900754627"><ele>46.0</ele><time>2026-04-12T11:49:32.001Z</time></trkpt><trkpt lat="40.90516365413853" lon="14.414097141721523"><ele>46.0</ele><time>2026-04-12T11:49:33.001Z</time></trkpt><trkpt lat="40.90511191741506" lon="14.41372257841114"><ele>46.5</ele><time>2026-04-12T11:49:34.001Z</time></trkpt><trkpt lat="40.90506249844027" lon="14.41334440416151"><ele>47.0</ele><time>2026-04-12T11:49:35.001Z</time></trkpt><trkpt lat="40.90501457697277" lon="14.412963297345003"><ele>46.0</ele><time>2026-04-12T11:49:36.001Z</time></trkpt><trkpt lat="40.90496786862354" lon="14.412579429561164"><ele>45.0</ele><time>2026-04-12T11:49:37.001Z</time></trkpt><trkpt lat="40.90492255134631" lon="14.41219256986656"><ele>45.5</ele><time>2026-04-12T11:49:38.001Z</time></trkpt><trkpt lat="40.904876946664125" lon="14.411802778772179"><ele>46.0</ele><time>2026-04-12T11:49:39.001Z</time></trkpt><trkpt lat="40.90482864839358" lon="14.411410464471619"><ele>46.0</ele><time>2026-04-12T11:49:40.001Z</time></trkpt><trkpt lat="40.90477549654746" lon="14.411015960515192"><ele>46.0</ele><time>2026-04-12T11:49:41.001Z</time></trkpt><trkpt lat="40.90471929297224" lon="14.410618241911312"><ele>46.0</ele><time>2026-04-12T11:49:42.001Z</time></trkpt><trkpt lat="40.90466053000808" lon="14.41021818455412"><ele>46.0</ele><time>2026-04-12T11:49:43.001Z</time></trkpt><trkpt lat="40.90459611518843" lon="14.40981660192098"><ele>45.0</ele><time>2026-04-12T11:49:44.001Z</time></trkpt><trkpt lat="40.904525602160895" lon="14.409414593484696"><ele>44.0</ele><time>2026-04-12T11:49:45.001Z</time></trkpt><trkpt lat="40.90444858637279" lon="14.409013896877465"><ele>43.0</ele><time>2026-04-12T11:49:46.001Z</time></trkpt><trkpt lat="40.90436448329989" lon="14.408617200885754"><ele>42.0</ele><time>2026-04-12T11:49:47.001Z</time></trkpt><trkpt lat="40.904275097479086" lon="14.408224819042731"><ele>42.0</ele><time>2026-04-12T11:49:48.001Z</time></trkpt><trkpt lat="40.9041810429585" lon="14.40784093749075"><ele>42.0</ele><time>2026-04-12T11:49:49.001Z</time></trkpt><trkpt lat="40.90408444204893" lon="14.407464449320361"><ele>43.0</ele><time>2026-04-12T11:49:50.001Z</time></trkpt><trkpt lat="40.90398265929554" lon="14.407092609241483"><ele>44.0</ele><time>2026-04-12T11:49:51.001Z</time></trkpt><trkpt lat="40.903874356978925" lon="14.406726234616956"><ele>44.0</ele><time>2026-04-12T11:49:52.001Z</time></trkpt><trkpt lat="40.90376294885303" lon="14.406362220976147"><ele>44.0</ele><time>2026-04-12T11:49:53.001Z</time></trkpt><trkpt lat="40.90365210111885" lon="14.405996297270049"><ele>44.0</ele><time>2026-04-12T11:49:54.001Z</time></trkpt><trkpt lat="40.90354283342202" lon="14.40562960316511"><ele>44.0</ele><time>2026-04-12T11:49:55.001Z</time></trkpt><trkpt lat="40.90343385973259" lon="14.40526257231939"><ele>45.0</ele><time>2026-04-12T11:49:56.001Z</time></trkpt><trkpt lat="40.90332734763131" lon="14.404895892137182"><ele>46.0</ele><time>2026-04-12T11:49:57.001Z</time></trkpt><trkpt lat="40.90321987351863" lon="14.404529767578346"><ele>47.0</ele><time>2026-04-12T11:49:58.001Z</time></trkpt><trkpt lat="40.90311081234745" lon="14.404164211862316"><ele>48.0</ele><time>2026-04-12T11:49:59.001Z</time></trkpt><trkpt lat="40.903001491604996" lon="14.403800269101419"><ele>46.0</ele><time>2026-04-12T11:50:00.001Z</time></trkpt><trkpt lat="40.90289339149394" lon="14.403435215031102"><ele>44.0</ele><time>2026-04-12T11:50:01.001Z</time></trkpt><trkpt lat="40.90278486260212" lon="14.403072834396353"><ele>44.5</ele><time>2026-04-12T11:50:02.001Z</time></trkpt><trkpt lat="40.90267608737065" lon="14.40271093469901"><ele>45.0</ele><time>2026-04-12T11:50:03.001Z</time></trkpt><trkpt lat="40.90256828779785" lon="14.402351340128092"><ele>44.0</ele><time>2026-04-12T11:50:04.001Z</time></trkpt><trkpt lat="40.9024619243209" lon="14.401994793807107"><ele>43.0</ele><time>2026-04-12T11:50:05.001Z</time></trkpt><trkpt lat="40.902356657964035" lon="14.401639407299728"><ele>42.5</ele><time>2026-04-12T11:50:06.001Z</time></trkpt><trkpt lat="40.90225212441447" lon="14.40129448138752"><ele>42.0</ele><time>2026-04-12T11:50:07Z</time></trkpt><trkpt lat="40.902146721976585" lon="14.400955695881375"><ele>42.0</ele><time>2026-04-12T11:50:08Z</time></trkpt><trkpt lat="40.90204281880798" lon="14.40062125464607"><ele>42.0</ele><time>2026-04-12T11:50:09Z</time></trkpt><trkpt lat="40.90194184466505" lon="14.400286307704556"><ele>42.0</ele><time>2026-04-12T11:50:10Z</time></trkpt><trkpt lat="40.90184203596885" lon="14.399948446163458"><ele>42.0</ele><time>2026-04-12T11:50:11Z</time></trkpt><trkpt lat="40.90173983734003" lon="14.399610322176404"><ele>42.5</ele><time>2026-04-12T11:50:12Z</time></trkpt><trkpt lat="40.90163693393326" lon="14.399271047447375"><ele>43.0</ele><time>2026-04-12T11:50:13Z</time></trkpt><trkpt lat="40.90153422366227" lon="14.398929525795687"><ele>42.5</ele><time>2026-04-12T11:50:14Z</time></trkpt><trkpt lat="40.901433811294794" lon="14.39858754321262"><ele>42.0</ele><time>2026-04-12T11:50:15Z</time></trkpt><trkpt lat="40.901331605175706" lon="14.398246654311517"><ele>41.5</ele><time>2026-04-12T11:50:16Z</time></trkpt><trkpt lat="40.90123055924792" lon="14.397905127015976"><ele>41.0</ele><time>2026-04-12T11:50:17Z</time></trkpt><trkpt lat="40.9011277123525" lon="14.397563194675746"><ele>41.0</ele><time>2026-04-12T11:50:18Z</time></trkpt><trkpt lat="40.901025277481914" lon="14.39722013888377"><ele>41.0</ele><time>2026-04-12T11:50:19Z</time></trkpt><trkpt lat="40.90092323009951" lon="14.396875575295152"><ele>41.0</ele><time>2026-04-12T11:50:20Z</time></trkpt><trkpt lat="40.900821567668324" lon="14.396530154700976"><ele>41.0</ele><time>2026-04-12T11:50:21Z</time></trkpt><trkpt lat="40.90072056040266" lon="14.396182551304177"><ele>41.5</ele><time>2026-04-12T11:50:22Z</time></trkpt><trkpt lat="40.90062443768406" lon="14.39583054110852"><ele>42.0</ele><time>2026-04-12T11:50:23Z</time></trkpt><trkpt lat="40.90054118240397" lon="14.395472912582214"><ele>41.0</ele><time>2026-04-12T11:50:24Z</time></trkpt><trkpt lat="40.90047634191359" lon="14.395108676610764"><ele>40.0</ele><time>2026-04-12T11:50:25Z</time></trkpt><trkpt lat="40.90042562700079" lon="14.394739710378783"><ele>40.0</ele><time>2026-04-12T11:50:26Z</time></trkpt><trkpt lat="40.900390346778856" lon="14.394366150242217"><ele>40.0</ele><time>2026-04-12T11:50:27Z</time></trkpt><trkpt lat="40.900369048930855" lon="14.393989633455108"><ele>39.5</ele><time>2026-04-12T11:50:28Z</time></trkpt><trkpt lat="40.900363596208024" lon="14.393612302478592"><ele>39.0</ele><time>2026-04-12T11:50:29Z</time></trkpt><trkpt lat="40.90037548185885" lon="14.393236994551676"><ele>38.5</ele><time>2026-04-12T11:50:30Z</time></trkpt><trkpt lat="40.900401961552284" lon="14.392862423908849"><ele>38.0</ele><time>2026-04-12T11:50:31Z</time></trkpt><trkpt lat="40.90044170081454" lon="14.392490819719406"><ele>38.0</ele><time>2026-04-12T11:50:32Z</time></trkpt><trkpt lat="40.9005002911743" lon="14.39212247086397"><ele>38.0</ele><time>2026-04-12T11:50:33Z</time></trkpt><trkpt lat="40.900569620575176" lon="14.391758784562649"><ele>38.0</ele><time>2026-04-12T11:50:34Z</time></trkpt><trkpt lat="40.900655706661254" lon="14.391400266664323"><ele>38.0</ele><time>2026-04-12T11:50:35Z</time></trkpt><trkpt lat="40.900752196959665" lon="14.391050103837314"><ele>38.0</ele><time>2026-04-12T11:50:36Z</time></trkpt><trkpt lat="40.900862529449014" lon="14.390707719308338"><ele>38.0</ele><time>2026-04-12T11:50:37Z</time></trkpt><trkpt lat="40.900974680927455" lon="14.390367230389085"><ele>38.0</ele><time>2026-04-12T11:50:38Z</time></trkpt><trkpt lat="40.90108930081127" lon="14.390028874733483"><ele>38.0</ele><time>2026-04-12T11:50:39Z</time></trkpt><trkpt lat="40.90120515987528" lon="14.389689758834702"><ele>37.0</ele><time>2026-04-12T11:50:40Z</time></trkpt><trkpt lat="40.901319138726926" lon="14.389348256663574"><ele>36.0</ele><time>2026-04-12T11:50:41Z</time></trkpt><trkpt lat="40.90143671956837" lon="14.389004781973249"><ele>36.5</ele><time>2026-04-12T11:50:42Z</time></trkpt><trkpt lat="40.90155381474407" lon="14.388658394808328"><ele>37.0</ele><time>2026-04-12T11:50:43Z</time></trkpt><trkpt lat="40.901673175483815" lon="14.388308711312442"><ele>36.0</ele><time>2026-04-12T11:50:44Z</time></trkpt><trkpt lat="40.90179361015548" lon="14.387955720915027"><ele>35.0</ele><time>2026-04-12T11:50:45Z</time></trkpt><trkpt lat="40.90191549980265" lon="14.38759918720026"><ele>35.0</ele><time>2026-04-12T11:50:46Z</time></trkpt><trkpt lat="40.902037330421635" lon="14.387239756549056"><ele>35.0</ele><time>2026-04-12T11:50:47Z</time></trkpt><trkpt lat="40.90215987077709" lon="14.386878701818176"><ele>35.5</ele><time>2026-04-12T11:50:48Z</time></trkpt><trkpt lat="40.902280872059514" lon="14.386515782434422"><ele>36.0</ele><time>2026-04-12T11:50:49Z</time></trkpt><trkpt lat="40.902401237581735" lon="14.386156552935127"><ele>35.0</ele><time>2026-04-12T11:50:50Z</time></trkpt><trkpt lat="40.902516753416016" lon="14.385799554305162"><ele>34.0</ele><time>2026-04-12T11:50:51Z</time></trkpt><trkpt lat="40.902626019804664" lon="14.385444548896185"><ele>33.5</ele><time>2026-04-12T11:50:52Z</time></trkpt><trkpt lat="40.9027245318602" lon="14.385089118870688"><ele>33.0</ele><time>2026-04-12T11:50:53Z</time></trkpt><trkpt lat="40.90280882407038" lon="14.384732722818068"><ele>33.0</ele><time>2026-04-12T11:50:54Z</time></trkpt><trkpt lat="40.90287729146141" lon="14.384376776459463"><ele>33.0</ele><time>2026-04-12T11:50:55Z</time></trkpt><trkpt lat="40.90293356691658" lon="14.384020504738452"><ele>32.5</ele><time>2026-04-12T11:50:56Z</time></trkpt><trkpt lat="40.90297776504716" lon="14.383665089563102"><ele>32.0</ele><time>2026-04-12T11:50:57Z</time></trkpt><trkpt lat="40.90301194464935" lon="14.383310772548889"><ele>33.0</ele><time>2026-04-12T11:50:58Z</time></trkpt><trkpt lat="40.9030367152049" lon="14.382956575887542"><ele>34.0</ele><time>2026-04-12T11:50:59Z</time></trkpt><trkpt lat="40.903050224352704" lon="14.382602147299597"><ele>34.0</ele><time>2026-04-12T11:51:00Z</time></trkpt><trkpt lat="40.90305318969088" lon="14.382248585791121"><ele>34.0</ele><time>2026-04-12T11:51:01Z</time></trkpt><trkpt lat="40.90304571500653" lon="14.381896173680696"><ele>34.0</ele><time>2026-04-12T11:51:02Z</time></trkpt><trkpt lat="40.903026006995965" lon="14.381544226468678"><ele>34.0</ele><time>2026-04-12T11:51:03Z</time></trkpt><trkpt lat="40.902996456858176" lon="14.38119397991036"><ele>34.0</ele><time>2026-04-12T11:51:04.001Z</time></trkpt><trkpt lat="40.90295897194389" lon="14.38084653869769"><ele>34.0</ele><time>2026-04-12T11:51:05.001Z</time></trkpt><trkpt lat="40.90291894532195" lon="14.380499922564697"><ele>33.5</ele><time>2026-04-12T11:51:06.001Z</time></trkpt><trkpt lat="40.90287764982446" lon="14.380155317444876"><ele>33.0</ele><time>2026-04-12T11:51:07.001Z</time></trkpt><trkpt lat="40.902837418259274" lon="14.379811080453676"><ele>32.0</ele><time>2026-04-12T11:51:08.001Z</time></trkpt><trkpt lat="40.90279551795537" lon="14.379464047043665"><ele>31.0</ele><time>2026-04-12T11:51:09.001Z</time></trkpt><trkpt lat="40.902755460732074" lon="14.379116423830679"><ele>30.5</ele><time>2026-04-12T11:51:10.001Z</time></trkpt><trkpt lat="40.90271541269889" lon="14.378768950055"><ele>30.0</ele><time>2026-04-12T11:51:11.001Z</time></trkpt><trkpt lat="40.90267379183487" lon="14.378418418407684"><ele>30.0</ele><time>2026-04-12T11:51:12.001Z</time></trkpt><trkpt lat="40.90263134074165" lon="14.378064465028245"><ele>30.0</ele><time>2026-04-12T11:51:13.001Z</time></trkpt><trkpt lat="40.902587886337464" lon="14.377708059338888"><ele>30.5</ele><time>2026-04-12T11:51:14.001Z</time></trkpt><trkpt lat="40.90254420670936" lon="14.377349892291114"><ele>31.0</ele><time>2026-04-12T11:51:15.001Z</time></trkpt><trkpt lat="40.90250062553258" lon="14.376990688751638"><ele>31.0</ele><time>2026-04-12T11:51:16.001Z</time></trkpt><trkpt lat="40.90245765733895" lon="14.376631629630372"><ele>31.0</ele><time>2026-04-12T11:51:17.001Z</time></trkpt><trkpt lat="40.90241345234899" lon="14.376274285495102"><ele>31.0</ele><time>2026-04-12T11:51:18.001Z</time></trkpt><trkpt lat="40.902371566473555" lon="14.37592056081586"><ele>31.0</ele><time>2026-04-12T11:51:19.001Z</time></trkpt><trkpt lat="40.90233035677107" lon="14.375569163647691"><ele>31.0</ele><time>2026-04-12T11:51:20.001Z</time></trkpt><trkpt lat="40.90228959511889" lon="14.375219591037576"><ele>31.0</ele><time>2026-04-12T11:51:21.001Z</time></trkpt><trkpt lat="40.90224700665581" lon="14.37487098818353"><ele>31.0</ele><time>2026-04-12T11:51:22.001Z</time></trkpt><trkpt lat="40.90220544657379" lon="14.374521131683247"><ele>31.0</ele><time>2026-04-12T11:51:23.001Z</time></trkpt><trkpt lat="40.902162148235185" lon="14.374170760277243"><ele>32.0</ele><time>2026-04-12T11:51:24.001Z</time></trkpt><trkpt lat="40.90212014131357" lon="14.37381965036559"><ele>33.0</ele><time>2026-04-12T11:51:25.001Z</time></trkpt><trkpt lat="40.90207690963994" lon="14.373468432838484"><ele>33.0</ele><time>2026-04-12T11:51:26.001Z</time></trkpt><trkpt lat="40.90203584434749" lon="14.373116428924744"><ele>33.0</ele><time>2026-04-12T11:51:27.001Z</time></trkpt><trkpt lat="40.90199406421572" lon="14.372765176368173"><ele>33.0</ele><time>2026-04-12T11:51:28.001Z</time></trkpt><trkpt lat="40.901951323097194" lon="14.372411814972324"><ele>33.0</ele><time>2026-04-12T11:51:29.001Z</time></trkpt><trkpt lat="40.90190669235169" lon="14.372055986627847"><ele>32.0</ele><time>2026-04-12T11:51:30.001Z</time></trkpt><trkpt lat="40.901865209514064" lon="14.37169741171702"><ele>31.0</ele><time>2026-04-12T11:51:31.001Z</time></trkpt><trkpt lat="40.90182191036865" lon="14.371339471744019"><ele>30.5</ele><time>2026-04-12T11:51:32.001Z</time></trkpt><trkpt lat="40.90177910334253" lon="14.370984617274111"><ele>30.0</ele><time>2026-04-12T11:51:33.001Z</time></trkpt><trkpt lat="40.90173667977289" lon="14.37063411874822"><ele>30.5</ele><time>2026-04-12T11:51:34.001Z</time></trkpt><trkpt lat="40.90169576942003" lon="14.370287185843614"><ele>31.0</ele><time>2026-04-12T11:51:35.001Z</time></trkpt><trkpt lat="40.90165810454445" lon="14.369939488949067"><ele>30.5</ele><time>2026-04-12T11:51:36.001Z</time></trkpt><trkpt lat="40.90162377254437" lon="14.369592050103554"><ele>30.0</ele><time>2026-04-12T11:51:37.001Z</time></trkpt><trkpt lat="40.90160136374785" lon="14.369243879703212"><ele>30.0</ele><time>2026-04-12T11:51:38.001Z</time></trkpt><trkpt lat="40.90158637862281" lon="14.368895621188548"><ele>30.0</ele><time>2026-04-12T11:51:39.001Z</time></trkpt><trkpt lat="40.901579066002896" lon="14.368547189314743"><ele>30.0</ele><time>2026-04-12T11:51:40.001Z</time></trkpt><trkpt lat="40.901579614783174" lon="14.368197910089968"><ele>30.0</ele><time>2026-04-12T11:51:41.001Z</time></trkpt><trkpt lat="40.90158726427133" lon="14.367848518638255"><ele>30.0</ele><time>2026-04-12T11:51:42.001Z</time></trkpt><trkpt lat="40.90160125981036" lon="14.367499345943578"><ele>30.0</ele><time>2026-04-12T11:51:43.001Z</time></trkpt><trkpt lat="40.901619959160406" lon="14.367148652646938"><ele>30.5</ele><time>2026-04-12T11:51:44.001Z</time></trkpt><trkpt lat="40.901645660891575" lon="14.366796846794733"><ele>31.0</ele><time>2026-04-12T11:51:45.001Z</time></trkpt><trkpt lat="40.9016776136893" lon="14.366444538956188"><ele>30.5</ele><time>2026-04-12T11:51:46.001Z</time></trkpt><trkpt lat="40.901719006974275" lon="14.366093527006434"><ele>30.0</ele><time>2026-04-12T11:51:47.001Z</time></trkpt><trkpt lat="40.90177194730398" lon="14.36574379587424"><ele>30.5</ele><time>2026-04-12T11:51:48.001Z</time></trkpt><trkpt lat="40.90183514584729" lon="14.365394888811785"><ele>31.0</ele><time>2026-04-12T11:51:49.001Z</time></trkpt><trkpt lat="40.90190780139601" lon="14.365046776439694"><ele>31.0</ele><time>2026-04-12T11:51:50.001Z</time></trkpt><trkpt lat="40.90198705894629" lon="14.364699469719083"><ele>31.0</ele><time>2026-04-12T11:51:51.001Z</time></trkpt><trkpt lat="40.90207944643513" lon="14.364355827614885"><ele>32.5</ele><time>2026-04-12T11:51:52.001Z</time></trkpt><trkpt lat="40.902179863753126" lon="14.364015031502474"><ele>34.0</ele><time>2026-04-12T11:51:53.001Z</time></trkpt><trkpt lat="40.90229219956501" lon="14.363681575326979"><ele>35.0</ele><time>2026-04-12T11:51:54.001Z</time></trkpt><trkpt lat="40.902413464738025" lon="14.363356981682122"><ele>36.0</ele><time>2026-04-12T11:51:55.001Z</time></trkpt><trkpt lat="40.90254064750645" lon="14.363038664673411"><ele>35.0</ele><time>2026-04-12T11:51:56.001Z</time></trkpt><trkpt lat="40.90266698151273" lon="14.362729637568686"><ele>34.0</ele><time>2026-04-12T11:51:57.001Z</time></trkpt><trkpt lat="40.90279369531726" lon="14.36242881457849"><ele>35.0</ele><time>2026-04-12T11:51:58.001Z</time></trkpt><trkpt lat="40.90291724902612" lon="14.36213388275539"><ele>36.0</ele><time>2026-04-12T11:51:59.001Z</time></trkpt><trkpt lat="40.90303856019242" lon="14.361843566262406"><ele>36.0</ele><time>2026-04-12T11:52:00.001Z</time></trkpt><trkpt lat="40.90315743923493" lon="14.361558109790645"><ele>36.0</ele><time>2026-04-12T11:52:01.001Z</time></trkpt><trkpt lat="40.903274746241955" lon="14.361277127066002"><ele>36.0</ele><time>2026-04-12T11:52:02.001Z</time></trkpt><trkpt lat="40.903390764085145" lon="14.360997881913535"><ele>36.0</ele><time>2026-04-12T11:52:03.001Z</time></trkpt><trkpt lat="40.90350608527867" lon="14.360720091139076"><ele>36.0</ele><time>2026-04-12T11:52:04.001Z</time></trkpt><trkpt lat="40.90362406693912" lon="14.360443904867974"><ele>36.0</ele><time>2026-04-12T11:52:05.001Z</time></trkpt><trkpt lat="40.903741452496696" lon="14.36016654199801"><ele>36.0</ele><time>2026-04-12T11:52:06.001Z</time></trkpt><trkpt lat="40.90385894847065" lon="14.359885208618909"><ele>36.0</ele><time>2026-04-12T11:52:07.001Z</time></trkpt><trkpt lat="40.90397582811672" lon="14.35959922888925"><ele>36.0</ele><time>2026-04-12T11:52:08.001Z</time></trkpt><trkpt lat="40.90408962178789" lon="14.359306866871162"><ele>36.0</ele><time>2026-04-12T11:52:09.001Z</time></trkpt><trkpt lat="40.90420038065857" lon="14.359006856241484"><ele>35.0</ele><time>2026-04-12T11:52:10.001Z</time></trkpt><trkpt lat="40.90430509569368" lon="14.358697274488025"><ele>34.0</ele><time>2026-04-12T11:52:11.001Z</time></trkpt><trkpt lat="40.904404758944146" lon="14.358380039261085"><ele>34.0</ele><time>2026-04-12T11:52:12.001Z</time></trkpt><trkpt lat="40.90449840755848" lon="14.358055756288621"><ele>34.0</ele><time>2026-04-12T11:52:13Z</time></trkpt><trkpt lat="40.904586166454976" lon="14.357722821801422"><ele>33.5</ele><time>2026-04-12T11:52:14Z</time></trkpt><trkpt lat="40.90466705901096" lon="14.357381259660453"><ele>33.0</ele><time>2026-04-12T11:52:15Z</time></trkpt><trkpt lat="40.90474012445068" lon="14.35703162958989"><ele>33.0</ele><time>2026-04-12T11:52:16Z</time></trkpt><trkpt lat="40.904803236035114" lon="14.356674115323306"><ele>33.0</ele><time>2026-04-12T11:52:17Z</time></trkpt><trkpt lat="40.904855874103106" lon="14.35630828932433"><ele>31.5</ele><time>2026-04-12T11:52:18Z</time></trkpt><trkpt lat="40.904898091906105" lon="14.355935839013359"><ele>30.0</ele><time>2026-04-12T11:52:19Z</time></trkpt><trkpt lat="40.90493370771594" lon="14.355557111347917"><ele>30.0</ele><time>2026-04-12T11:52:20Z</time></trkpt><trkpt lat="40.90496266079919" lon="14.355173837060482"><ele>30.0</ele><time>2026-04-12T11:52:21Z</time></trkpt><trkpt lat="40.90498870421702" lon="14.354785878249434"><ele>30.0</ele><time>2026-04-12T11:52:22Z</time></trkpt><trkpt lat="40.90500746651377" lon="14.3543953712385"><ele>30.0</ele><time>2026-04-12T11:52:23Z</time></trkpt><trkpt lat="40.90501642652443" lon="14.354002029470061"><ele>30.5</ele><time>2026-04-12T11:52:24Z</time></trkpt><trkpt lat="40.90501421592387" lon="14.353606433887677"><ele>31.0</ele><time>2026-04-12T11:52:25Z</time></trkpt><trkpt lat="40.90500319739476" lon="14.353207755021836"><ele>31.0</ele><time>2026-04-12T11:52:26Z</time></trkpt><trkpt lat="40.904988745419146" lon="14.352808819997845"><ele>31.0</ele><time>2026-04-12T11:52:27Z</time></trkpt><trkpt lat="40.90497291781948" lon="14.352411826187685"><ele>31.5</ele><time>2026-04-12T11:52:28Z</time></trkpt><trkpt lat="40.90495617354662" lon="14.352015812975164"><ele>32.0</ele><time>2026-04-12T11:52:29Z</time></trkpt><trkpt lat="40.904935100553324" lon="14.35161802700467"><ele>34.0</ele><time>2026-04-12T11:52:30Z</time></trkpt><trkpt lat="40.90491068014805" lon="14.351217352276985"><ele>36.0</ele><time>2026-04-12T11:52:31Z</time></trkpt><trkpt lat="40.90488793532177" lon="14.350814156875266"><ele>36.5</ele><time>2026-04-12T11:52:32Z</time></trkpt><trkpt lat="40.90486533034142" lon="14.350408562436515"><ele>37.0</ele><time>2026-04-12T11:52:33Z</time></trkpt><trkpt lat="40.904843276174454" lon="14.350000548946625"><ele>36.5</ele><time>2026-04-12T11:52:34Z</time></trkpt><trkpt lat="40.904822806373765" lon="14.34959104881987"><ele>36.0</ele><time>2026-04-12T11:52:35Z</time></trkpt><trkpt lat="40.904801903190844" lon="14.349182954465384"><ele>36.0</ele><time>2026-04-12T11:52:36Z</time></trkpt><trkpt lat="40.90478188193901" lon="14.348777256042098"><ele>36.0</ele><time>2026-04-12T11:52:37Z</time></trkpt><trkpt lat="40.90476129078848" lon="14.348375081445237"><ele>35.5</ele><time>2026-04-12T11:52:38Z</time></trkpt><trkpt lat="40.9047433386065" lon="14.34798017080615"><ele>35.0</ele><time>2026-04-12T11:52:39Z</time></trkpt><trkpt lat="40.90472624262948" lon="14.347590159828679"><ele>38.5</ele><time>2026-04-12T11:52:40Z</time></trkpt><trkpt lat="40.90471198212936" lon="14.347207105209616"><ele>42.0</ele><time>2026-04-12T11:52:41Z</time></trkpt><trkpt lat="40.90470048306958" lon="14.346831048537636"><ele>42.0</ele><time>2026-04-12T11:52:42Z</time></trkpt><trkpt lat="40.904694620072874" lon="14.34646236737606"><ele>42.0</ele><time>2026-04-12T11:52:43Z</time></trkpt><trkpt lat="40.904700718021495" lon="14.346099443916343"><ele>42.0</ele><time>2026-04-12T11:52:44Z</time></trkpt><trkpt lat="40.904715858752546" lon="14.345743029385588"><ele>42.0</ele><time>2026-04-12T11:52:45Z</time></trkpt><trkpt lat="40.90473723107316" lon="14.345391747860017"><ele>40.5</ele><time>2026-04-12T11:52:46Z</time></trkpt><trkpt lat="40.90476210125673" lon="14.345045580777768"><ele>39.0</ele><time>2026-04-12T11:52:47Z</time></trkpt><trkpt lat="40.90479362792066" lon="14.344705186191302"><ele>38.5</ele><time>2026-04-12T11:52:48Z</time></trkpt><trkpt lat="40.90483272947008" lon="14.344366441758016"><ele>38.0</ele><time>2026-04-12T11:52:49Z</time></trkpt><trkpt lat="40.90487876555585" lon="14.344027881875393"><ele>36.5</ele><time>2026-04-12T11:52:50Z</time></trkpt><trkpt lat="40.90493403277159" lon="14.343690869474734"><ele>35.0</ele><time>2026-04-12T11:52:51Z</time></trkpt><trkpt lat="40.904998218125655" lon="14.343356432962954"><ele>34.5</ele><time>2026-04-12T11:52:52Z</time></trkpt><trkpt lat="40.90506706450963" lon="14.34302530260764"><ele>34.0</ele><time>2026-04-12T11:52:53Z</time></trkpt><trkpt lat="40.905142856344405" lon="14.34270026671425"><ele>36.0</ele><time>2026-04-12T11:52:54Z</time></trkpt><trkpt lat="40.90522111177381" lon="14.34237857999621"><ele>38.0</ele><time>2026-04-12T11:52:55Z</time></trkpt><trkpt lat="40.905301869561164" lon="14.342057921221484"><ele>39.0</ele><time>2026-04-12T11:52:56Z</time></trkpt><trkpt lat="40.90538306673489" lon="14.341736859687535"><ele>40.0</ele><time>2026-04-12T11:52:57Z</time></trkpt><trkpt lat="40.90546422503006" lon="14.341414719388887"><ele>40.0</ele><time>2026-04-12T11:52:58Z</time></trkpt><trkpt lat="40.90554560385283" lon="14.34109271277884"><ele>40.0</ele><time>2026-04-12T11:52:59Z</time></trkpt><trkpt lat="40.905626294264515" lon="14.34077171314246"><ele>39.5</ele><time>2026-04-12T11:53:00Z</time></trkpt><trkpt lat="40.9057066333893" lon="14.340450114603874"><ele>39.0</ele><time>2026-04-12T11:53:01Z</time></trkpt><trkpt lat="40.90578639112009" lon="14.340127661820436"><ele>39.0</ele><time>2026-04-12T11:53:02Z</time></trkpt><trkpt lat="40.905876924395976" lon="14.339796290625888"><ele>39.0</ele><time>2026-04-12T11:53:03Z</time></trkpt><trkpt lat="40.905955253308555" lon="14.339486749482312"><ele>40.5</ele><time>2026-04-12T11:53:04Z</time></trkpt><trkpt lat="40.906025941512866" lon="14.33917008704105"><ele>42.0</ele><time>2026-04-12T11:53:05Z</time></trkpt><trkpt lat="40.906105541478475" lon="14.338865209914953"><ele>42.5</ele><time>2026-04-12T11:53:06.001Z</time></trkpt><trkpt lat="40.906182435022004" lon="14.338561152624418"><ele>43.0</ele><time>2026-04-12T11:53:07.001Z</time></trkpt><trkpt lat="40.90625507809748" lon="14.338266409316313"><ele>42.5</ele><time>2026-04-12T11:53:08.001Z</time></trkpt><trkpt lat="40.90632625439656" lon="14.337975929473558"><ele>42.0</ele><time>2026-04-12T11:53:09.001Z</time></trkpt><trkpt lat="40.906394936549546" lon="14.337690145004856"><ele>42.0</ele><time>2026-04-12T11:53:10.001Z</time></trkpt><trkpt lat="40.90646942318865" lon="14.33740505186177"><ele>42.0</ele><time>2026-04-12T11:53:11.001Z</time></trkpt><trkpt lat="40.90654623638252" lon="14.337124555273613"><ele>40.333333333333336</ele><time>2026-04-12T11:53:12.001Z</time></trkpt><trkpt lat="40.90661942958036" lon="14.336847909955063"><ele>38.66666666666667</ele><time>2026-04-12T11:53:13.001Z</time></trkpt><trkpt lat="40.90668955738751" lon="14.336574963506397"><ele>37.0</ele><time>2026-04-12T11:53:14.001Z</time></trkpt><trkpt lat="40.90675464503819" lon="14.336298607908361"><ele>37.0</ele><time>2026-04-12T11:53:15.001Z</time></trkpt><trkpt lat="40.90681946612745" lon="14.336024557024942"><ele>37.0</ele><time>2026-04-12T11:53:16.001Z</time></trkpt><trkpt lat="40.90688439806893" lon="14.335750704582674"><ele>37.0</ele><time>2026-04-12T11:53:17.001Z</time></trkpt><trkpt lat="40.906952678129315" lon="14.335481863607233"><ele>37.333333333333336</ele><time>2026-04-12T11:53:18.001Z</time></trkpt><trkpt lat="40.90702532039152" lon="14.335211023047616"><ele>37.666666666666664</ele><time>2026-04-12T11:53:19.001Z</time></trkpt><trkpt lat="40.90709489093216" lon="14.334939381389496"><ele>38.0</ele><time>2026-04-12T11:53:20.001Z</time></trkpt><trkpt lat="40.90716279671813" lon="14.334673027295027"><ele>38.33333333333333</ele><time>2026-04-12T11:53:21.001Z</time></trkpt><trkpt lat="40.90722821101896" lon="14.33440944474117"><ele>38.666666666666664</ele><time>2026-04-12T11:53:22.001Z</time></trkpt><trkpt lat="40.90729325541651" lon="14.334143755150102"><ele>39.0</ele><time>2026-04-12T11:53:23.001Z</time></trkpt><trkpt lat="40.907357312191095" lon="14.333879450859163"><ele>39.333333333333336</ele><time>2026-04-12T11:53:24.001Z</time></trkpt><trkpt lat="40.90742135623517" lon="14.333619844226495"><ele>39.66666666666667</ele><time>2026-04-12T11:53:25.001Z</time></trkpt><trkpt lat="40.90748956896635" lon="14.333357889956057"><ele>40.0</ele><time>2026-04-12T11:53:26.001Z</time></trkpt><trkpt lat="40.90755953679508" lon="14.333094260865527"><ele>40.0</ele><time>2026-04-12T11:53:27.001Z</time></trkpt><trkpt lat="40.907627501212524" lon="14.332831408998922"><ele>40.0</ele><time>2026-04-12T11:53:28.001Z</time></trkpt><trkpt lat="40.90769133586673" lon="14.33257155866208"><ele>40.0</ele><time>2026-04-12T11:53:29.001Z</time></trkpt><trkpt lat="40.907756409654745" lon="14.33230628828708"><ele>40.66666666666667</ele><time>2026-04-12T11:53:30.001Z</time></trkpt><trkpt lat="40.907825117680275" lon="14.33204196563899"><ele>41.333333333333336</ele><time>2026-04-12T11:53:31.001Z</time></trkpt><trkpt lat="40.907890852159476" lon="14.331771881249614"><ele>42.0</ele><time>2026-04-12T11:53:32.001Z</time></trkpt><trkpt lat="40.907957090012914" lon="14.331498831246837"><ele>42.333333333333336</ele><time>2026-04-12T11:53:33.001Z</time></trkpt><trkpt lat="40.90802693946926" lon="14.33122133911043"><ele>42.66666666666667</ele><time>2026-04-12T11:53:34.001Z</time></trkpt><trkpt lat="40.908096943820325" lon="14.330942855491378"><ele>43.0</ele><time>2026-04-12T11:53:35.001Z</time></trkpt><trkpt lat="40.90816896274021" lon="14.330662704803752"><ele>42.0</ele><time>2026-04-12T11:53:36.001Z</time></trkpt><trkpt lat="40.90824165478939" lon="14.330378349483848"><ele>41.0</ele><time>2026-04-12T11:53:37.001Z</time></trkpt><trkpt lat="40.90831631971331" lon="14.330091995976128"><ele>41.0</ele><time>2026-04-12T11:53:38.001Z</time></trkpt><trkpt lat="40.908386422577834" lon="14.329806837191375"><ele>41.0</ele><time>2026-04-12T11:53:39.001Z</time></trkpt><trkpt lat="40.90845777353796" lon="14.32951720471897"><ele>42.0</ele><time>2026-04-12T11:53:40.001Z</time></trkpt><trkpt lat="40.90853063515867" lon="14.329230521001547"><ele>43.0</ele><time>2026-04-12T11:53:41.001Z</time></trkpt><trkpt lat="40.90860074273173" lon="14.328947403224344"><ele>43.0</ele><time>2026-04-12T11:53:42.001Z</time></trkpt><trkpt lat="40.90867070396544" lon="14.32866024852878"><ele>43.0</ele><time>2026-04-12T11:53:43.001Z</time></trkpt><trkpt lat="40.908744875052456" lon="14.328377493394"><ele>43.0</ele><time>2026-04-12T11:53:44.001Z</time></trkpt><trkpt lat="40.90881744102268" lon="14.32809298320253"><ele>43.0</ele><time>2026-04-12T11:53:45.001Z</time></trkpt><trkpt lat="40.9088884052471" lon="14.327808487208596"><ele>43.0</ele><time>2026-04-12T11:53:46.001Z</time></trkpt><trkpt lat="40.90895828823928" lon="14.327527810348498"><ele>43.0</ele><time>2026-04-12T11:53:47.001Z</time></trkpt><trkpt lat="40.9090283751043" lon="14.327247905667418"><ele>43.0</ele><time>2026-04-12T11:53:48.001Z</time></trkpt><trkpt lat="40.9090962341397" lon="14.32696769517647"><ele>43.66666666666667</ele><time>2026-04-12T11:53:49.001Z</time></trkpt><trkpt lat="40.9091591843647" lon="14.326685481644962"><ele>44.333333333333336</ele><time>2026-04-12T11:53:50.001Z</time></trkpt><trkpt lat="40.909219363940466" lon="14.326403005755468"><ele>45.0</ele><time>2026-04-12T11:53:51.001Z</time></trkpt><trkpt lat="40.9092754166774" lon="14.326120921416052"><ele>45.333333333333336</ele><time>2026-04-12T11:53:52.001Z</time></trkpt><trkpt lat="40.90932390981047" lon="14.32583922334284"><ele>45.66666666666667</ele><time>2026-04-12T11:53:53.001Z</time></trkpt><trkpt lat="40.90936296489062" lon="14.325561330947453"><ele>46.0</ele><time>2026-04-12T11:53:54.001Z</time></trkpt><trkpt lat="40.909399438720996" lon="14.325283140042753"><ele>46.0</ele><time>2026-04-12T11:53:55.001Z</time></trkpt><trkpt lat="40.909429155277934" lon="14.324996740540925"><ele>46.0</ele><time>2026-04-12T11:53:56.001Z</time></trkpt><trkpt lat="40.909461424815184" lon="14.324707321052681"><ele>46.0</ele><time>2026-04-12T11:53:57.001Z</time></trkpt><trkpt lat="40.90949279611675" lon="14.324421009901902"><ele>45.66666666666667</ele><time>2026-04-12T11:53:58.001Z</time></trkpt><trkpt lat="40.90952121758805" lon="14.324130451068502"><ele>45.333333333333336</ele><time>2026-04-12T11:53:59.001Z</time></trkpt><trkpt lat="40.9095482732759" lon="14.323837623861184"><ele>45.0</ele><time>2026-04-12T11:54:00.001Z</time></trkpt><trkpt lat="40.90957024395917" lon="14.323540151577605"><ele>45.0</ele><time>2026-04-12T11:54:01.001Z</time></trkpt><trkpt lat="40.90959502668877" lon="14.323238131438227"><ele>45.0</ele><time>2026-04-12T11:54:02.001Z</time></trkpt><trkpt lat="40.90962322770259" lon="14.322939825920699"><ele>43.5</ele><time>2026-04-12T11:54:03.001Z</time></trkpt><trkpt lat="40.90964949634158" lon="14.322637041858542"><ele>42.0</ele><time>2026-04-12T11:54:04.001Z</time></trkpt><trkpt lat="40.90967442148692" lon="14.322332273183724"><ele>42.5</ele><time>2026-04-12T11:54:05.001Z</time></trkpt><trkpt lat="40.90969985255857" lon="14.322027767960476"><ele>43.0</ele><time>2026-04-12T11:54:06.001Z</time></trkpt><trkpt lat="40.909726053794465" lon="14.32173070671269"><ele>43.0</ele><time>2026-04-12T11:54:07.001Z</time></trkpt><trkpt lat="40.90975043566103" lon="14.321442507920498"><ele>43.0</ele><time>2026-04-12T11:54:08.001Z</time></trkpt><trkpt lat="40.90977486734254" lon="14.32116294814533"><ele>43.0</ele><time>2026-04-12T11:54:09.001Z</time></trkpt><trkpt lat="40.90979976260319" lon="14.320891491212965"><ele>43.66666666666667</ele><time>2026-04-12T11:54:10.001Z</time></trkpt><trkpt lat="40.90982436382533" lon="14.320640268154836"><ele>44.333333333333336</ele><time>2026-04-12T11:54:11.001Z</time></trkpt><trkpt lat="40.9098466477587" lon="14.320398901354057"><ele>45.0</ele><time>2026-04-12T11:54:12.001Z</time></trkpt><trkpt lat="40.90986431941547" lon="14.320169914474883"><ele>45.666666666666664</ele><time>2026-04-12T11:54:13.001Z</time></trkpt><trkpt lat="40.90988702294304" lon="14.319946691905784"><ele>46.33333333333333</ele><time>2026-04-12T11:54:14.001Z</time></trkpt><trkpt lat="40.9099086905607" lon="14.31973050148519"><ele>47.0</ele><time>2026-04-12T11:54:15.001Z</time></trkpt><trkpt lat="40.90991980359899" lon="14.319533683675687"><ele>47.0</ele><time>2026-04-12T11:54:16.001Z</time></trkpt><trkpt lat="40.90992409881218" lon="14.319351406891405"><ele>47.0</ele><time>2026-04-12T11:54:17.001Z</time></trkpt><trkpt lat="40.90991927228394" lon="14.319168366400609"><ele>47.0</ele><time>2026-04-12T11:54:18.001Z</time></trkpt><trkpt lat="40.90989523184114" lon="14.318988081634073"><ele>47.0</ele><time>2026-04-12T11:54:18.999Z</time></trkpt><trkpt lat="40.9098539103999" lon="14.318810829693634"><ele>47.0</ele><time>2026-04-12T11:54:19.999Z</time></trkpt><trkpt lat="40.90978420074422" lon="14.318650479397304"><ele>47.0</ele><time>2026-04-12T11:54:20.999Z</time></trkpt><trkpt lat="40.909688348438145" lon="14.318509916747063"><ele>47.0</ele><time>2026-04-12T11:54:21.999Z</time></trkpt><trkpt lat="40.909582551483055" lon="14.318397829317691"><ele>47.0</ele><time>2026-04-12T11:54:22.999Z</time></trkpt><trkpt lat="40.909454234325686" lon="14.318300494000303"><ele>47.0</ele><time>2026-04-12T11:54:23.999Z</time></trkpt><trkpt lat="40.90931663916928" lon="14.318232279794108"><ele>47.0</ele><time>2026-04-12T11:54:24.999Z</time></trkpt><trkpt lat="40.90916879474606" lon="14.318191530111585"><ele>47.0</ele><time>2026-04-12T11:54:25.999Z</time></trkpt><trkpt lat="40.90901304846343" lon="14.31818293775093"><ele>48.0</ele><time>2026-04-12T11:54:26.999Z</time></trkpt><trkpt lat="40.9088522320021" lon="14.318224126475279"><ele>49.0</ele><time>2026-04-12T11:54:27.999Z</time></trkpt><trkpt lat="40.908698527638556" lon="14.318301217926717"><ele>50.0</ele><time>2026-04-12T11:54:28.999Z</time></trkpt><trkpt lat="40.908553081283124" lon="14.318416864984659"><ele>50.0</ele><time>2026-04-12T11:54:29.999Z</time></trkpt><trkpt lat="40.90841986241103" lon="14.318550160441365"><ele>50.0</ele><time>2026-04-12T11:54:30.999Z</time></trkpt><trkpt lat="40.908298960455696" lon="14.318706590094719"><ele>50.0</ele><time>2026-04-12T11:54:31.999Z</time></trkpt><trkpt lat="40.90816469299815" lon="14.318861932521354"><ele>49.333333333333336</ele><time>2026-04-12T11:54:32.999Z</time></trkpt><trkpt lat="40.90804885218834" lon="14.319017330325654"><ele>48.66666666666667</ele><time>2026-04-12T11:54:33.999Z</time></trkpt><trkpt lat="40.907925972766925" lon="14.319174348773345"><ele>48.0</ele><time>2026-04-12T11:54:35Z</time></trkpt><trkpt lat="40.907798574786376" lon="14.319327469361994"><ele>48.0</ele><time>2026-04-12T11:54:36Z</time></trkpt><trkpt lat="40.90766444915982" lon="14.319467275552471"><ele>48.0</ele><time>2026-04-12T11:54:37Z</time></trkpt><trkpt lat="40.90752336321301" lon="14.319588094500652"><ele>48.0</ele><time>2026-04-12T11:54:38Z</time></trkpt><trkpt lat="40.90737519227" lon="14.31968776530515"><ele>48.66666666666667</ele><time>2026-04-12T11:54:39Z</time></trkpt><trkpt lat="40.90722426910006" lon="14.319769074111248"><ele>49.333333333333336</ele><time>2026-04-12T11:54:40Z</time></trkpt><trkpt lat="40.90706822601378" lon="14.31983217736911"><ele>50.0</ele><time>2026-04-12T11:54:41Z</time></trkpt><trkpt lat="40.90690763207253" lon="14.319878480783759"><ele>49.66666666666667</ele><time>2026-04-12T11:54:42Z</time></trkpt><trkpt lat="40.90674357179455" lon="14.31990752687784"><ele>49.33333333333333</ele><time>2026-04-12T11:54:43Z</time></trkpt><trkpt lat="40.90657477535881" lon="14.319917336574468"><ele>49.0</ele><time>2026-04-12T11:54:44Z</time></trkpt><trkpt lat="40.90640274839258" lon="14.319905756024431"><ele>49.0</ele><time>2026-04-12T11:54:45Z</time></trkpt><trkpt lat="40.906228532369106" lon="14.31988617005437"><ele>49.0</ele><time>2026-04-12T11:54:46Z</time></trkpt><trkpt lat="40.90605053784265" lon="14.319863019255171"><ele>49.0</ele><time>2026-04-12T11:54:47Z</time></trkpt><trkpt lat="40.905869159637476" lon="14.319836018522563"><ele>49.33333333333333</ele><time>2026-04-12T11:54:48Z</time></trkpt><trkpt lat="40.90568379892588" lon="14.319810516464244"><ele>49.66666666666667</ele><time>2026-04-12T11:54:49Z</time></trkpt><trkpt lat="40.90549409180011" lon="14.319786846879305"><ele>50.0</ele><time>2026-04-12T11:54:50Z</time></trkpt><trkpt lat="40.90530678847484" lon="14.319760577267063"><ele>50.333333333333336</ele><time>2026-04-12T11:54:51Z</time></trkpt><trkpt lat="40.90511896103715" lon="14.319733126804238"><ele>50.66666666666667</ele><time>2026-04-12T11:54:52Z</time></trkpt><trkpt lat="40.90492438515548" lon="14.319705662372185"><ele>51.0</ele><time>2026-04-12T11:54:53Z</time></trkpt><trkpt lat="40.90473230251898" lon="14.31968024421255"><ele>51.0</ele><time>2026-04-12T11:54:54Z</time></trkpt><trkpt lat="40.90454403756169" lon="14.319656831624037"><ele>51.0</ele><time>2026-04-12T11:54:55Z</time></trkpt><trkpt lat="40.904359276145236" lon="14.319633046079373"><ele>51.0</ele><time>2026-04-12T11:54:56Z</time></trkpt><trkpt lat="40.904178063415024" lon="14.319609341417975"><ele>50.0</ele><time>2026-04-12T11:54:57Z</time></trkpt><trkpt lat="40.904008553604726" lon="14.319587124038305"><ele>49.0</ele><time>2026-04-12T11:54:58Z</time></trkpt><trkpt lat="40.90385831286294" lon="14.319566396770822"><ele>48.0</ele><time>2026-04-12T11:54:59Z</time></trkpt><trkpt lat="40.90371593451649" lon="14.319546553987921"><ele>48.0</ele><time>2026-04-12T11:55:00Z</time></trkpt><trkpt lat="40.90357527511238" lon="14.319526783692947"><ele>48.0</ele><time>2026-04-12T11:55:01Z</time></trkpt><trkpt lat="40.90343808185444" lon="14.319506688622118"><ele>48.0</ele><time>2026-04-12T11:55:02Z</time></trkpt><trkpt lat="40.90330600600729" lon="14.319485131663944"><ele>48.0</ele><time>2026-04-12T11:55:03Z</time></trkpt><trkpt lat="40.9031826483584" lon="14.319465858349924"><ele>47.75</ele><time>2026-04-12T11:55:04Z</time></trkpt><trkpt lat="40.903056594367705" lon="14.319449247138648"><ele>47.5</ele><time>2026-04-12T11:55:05Z</time></trkpt><trkpt lat="40.90292699594614" lon="14.319431844650621"><ele>47.25</ele><time>2026-04-12T11:55:06Z</time></trkpt><trkpt lat="40.90279348291616" lon="14.319411940130458"><ele>47.0</ele><time>2026-04-12T11:55:07Z</time></trkpt><trkpt lat="40.90265547596225" lon="14.319390330519942"><ele>46.25</ele><time>2026-04-12T11:55:08Z</time></trkpt><trkpt lat="40.902512238002096" lon="14.319365872447744"><ele>45.5</ele><time>2026-04-12T11:55:09Z</time></trkpt><trkpt lat="40.90236431938284" lon="14.319340664589294"><ele>44.75</ele><time>2026-04-12T11:55:10Z</time></trkpt><trkpt lat="40.90221331939806" lon="14.3193152041708"><ele>44.0</ele><time>2026-04-12T11:55:11Z</time></trkpt><trkpt lat="40.90205897783095" lon="14.319289589324985"><ele>44.0</ele><time>2026-04-12T11:55:12Z</time></trkpt><trkpt lat="40.90190118048833" lon="14.319263822341872"><ele>44.0</ele><time>2026-04-12T11:55:13Z</time></trkpt><trkpt lat="40.90173860601473" lon="14.319236404083266"><ele>44.0</ele><time>2026-04-12T11:55:14Z</time></trkpt><trkpt lat="40.90157218708412" lon="14.319209333465015"><ele>44.666666666666664</ele><time>2026-04-12T11:55:15Z</time></trkpt><trkpt lat="40.90140400760418" lon="14.319182626492331"><ele>45.333333333333336</ele><time>2026-04-12T11:55:16Z</time></trkpt><trkpt lat="40.90123161160122" lon="14.31915412076449"><ele>46.0</ele><time>2026-04-12T11:55:17Z</time></trkpt><trkpt lat="40.90105608427881" lon="14.319126430088081"><ele>47.0</ele><time>2026-04-12T11:55:18Z</time></trkpt><trkpt lat="40.900879456317625" lon="14.319100649963493"><ele>48.0</ele><time>2026-04-12T11:55:19Z</time></trkpt><trkpt lat="40.90070262650137" lon="14.319073766738438"><ele>49.0</ele><time>2026-04-12T11:55:20Z</time></trkpt><trkpt lat="40.90052496160074" lon="14.319045032497485"><ele>49.0</ele><time>2026-04-12T11:55:21Z</time></trkpt><trkpt lat="40.90034764030775" lon="14.319015978660055"><ele>49.0</ele><time>2026-04-12T11:55:22Z</time></trkpt><trkpt lat="40.90017220944686" lon="14.318985258203666"><ele>49.0</ele><time>2026-04-12T11:55:23Z</time></trkpt><trkpt lat="40.899994806732906" lon="14.318953431943745"><ele>49.33333333333333</ele><time>2026-04-12T11:55:24Z</time></trkpt><trkpt lat="40.89981703800523" lon="14.318922098032182"><ele>49.66666666666667</ele><time>2026-04-12T11:55:25Z</time></trkpt><trkpt lat="40.899640233204096" lon="14.318890563857902"><ele>50.0</ele><time>2026-04-12T11:55:26Z</time></trkpt><trkpt lat="40.89946607804634" lon="14.31885819447046"><ele>50.0</ele><time>2026-04-12T11:55:27Z</time></trkpt><trkpt lat="40.89929235052959" lon="14.318826476562622"><ele>50.0</ele><time>2026-04-12T11:55:28Z</time></trkpt><trkpt lat="40.89911852064722" lon="14.318794444894136"><ele>50.0</ele><time>2026-04-12T11:55:29Z</time></trkpt><trkpt lat="40.89894694264862" lon="14.318761206119106"><ele>50.333333333333336</ele><time>2026-04-12T11:55:30Z</time></trkpt><trkpt lat="40.89877648347624" lon="14.318728604246019"><ele>50.66666666666667</ele><time>2026-04-12T11:55:31Z</time></trkpt><trkpt lat="40.89860536197087" lon="14.318694109169515"><ele>51.0</ele><time>2026-04-12T11:55:32Z</time></trkpt><trkpt lat="40.89843213930234" lon="14.318659180058857"><ele>50.0</ele><time>2026-04-12T11:55:33Z</time></trkpt><trkpt lat="40.89825749349151" lon="14.318625471778935"><ele>49.0</ele><time>2026-04-12T11:55:34Z</time></trkpt><trkpt lat="40.89808119305566" lon="14.318592466818117"><ele>48.0</ele><time>2026-04-12T11:55:35Z</time></trkpt><trkpt lat="40.8979060437702" lon="14.318562062044895"><ele>48.0</ele><time>2026-04-12T11:55:36Z</time></trkpt><trkpt lat="40.89773092776523" lon="14.318534841980727"><ele>48.0</ele><time>2026-04-12T11:55:37Z</time></trkpt><trkpt lat="40.89755796038159" lon="14.318509179929976"><ele>48.0</ele><time>2026-04-12T11:55:38Z</time></trkpt><trkpt lat="40.897384927313915" lon="14.318482483164525"><ele>46.333333333333336</ele><time>2026-04-12T11:55:39Z</time></trkpt><trkpt lat="40.89720901163104" lon="14.318456025373239"><ele>44.66666666666667</ele><time>2026-04-12T11:55:40Z</time></trkpt><trkpt lat="40.8970348019855" lon="14.31843062053342"><ele>43.0</ele><time>2026-04-12T11:55:41Z</time></trkpt><trkpt lat="40.89686296856175" lon="14.318403655795318"><ele>42.66666666666667</ele><time>2026-04-12T11:55:42Z</time></trkpt><trkpt lat="40.896694808955644" lon="14.318376527305821"><ele>42.333333333333336</ele><time>2026-04-12T11:55:43Z</time></trkpt><trkpt lat="40.89653282996394" lon="14.318349410928882"><ele>42.0</ele><time>2026-04-12T11:55:44Z</time></trkpt><trkpt lat="40.89637773475982" lon="14.318324695160424"><ele>42.0</ele><time>2026-04-12T11:55:45Z</time></trkpt><trkpt lat="40.896230519906965" lon="14.318294223329788"><ele>42.0</ele><time>2026-04-12T11:55:46.001Z</time></trkpt><trkpt lat="40.89608674229753" lon="14.318254840158348"><ele>42.0</ele><time>2026-04-12T11:55:47.001Z</time></trkpt><trkpt lat="40.89594745223851" lon="14.318202959249486"><ele>42.0</ele><time>2026-04-12T11:55:48.001Z</time></trkpt><trkpt lat="40.8958143955012" lon="14.318137117628458"><ele>42.400000000000006</ele><time>2026-04-12T11:55:49.001Z</time></trkpt><trkpt lat="40.895699726219284" lon="14.318065359664702"><ele>42.800000000000004</ele><time>2026-04-12T11:55:50.001Z</time></trkpt><trkpt lat="40.89560565179683" lon="14.317992783766524"><ele>43.2</ele><time>2026-04-12T11:55:51.001Z</time></trkpt><trkpt lat="40.8955326369294" lon="14.31791017498489"><ele>43.6</ele><time>2026-04-12T11:55:52.001Z</time></trkpt><trkpt lat="40.89547853743495" lon="14.31781131891723"><ele>44.0</ele><time>2026-04-12T11:55:53.001Z</time></trkpt><trkpt lat="40.895447465836945" lon="14.317701394289799"><ele>44.0</ele><time>2026-04-12T11:55:54.001Z</time></trkpt><trkpt lat="40.895440202000664" lon="14.317591033705458"><ele>44.0</ele><time>2026-04-12T11:55:55.001Z</time></trkpt><trkpt lat="40.89545489632673" lon="14.317475145182973"><ele>44.0</ele><time>2026-04-12T11:55:56.001Z</time></trkpt><trkpt lat="40.89549430457053" lon="14.31736816855645"><ele>44.0</ele><time>2026-04-12T11:55:57.001Z</time></trkpt><trkpt lat="40.895555767871194" lon="14.317268641991342"><ele>44.0</ele><time>2026-04-12T11:55:58.001Z</time></trkpt><trkpt lat="40.89563968662072" lon="14.317185913756548"><ele>44.75</ele><time>2026-04-12T11:55:59.001Z</time></trkpt><trkpt lat="40.895740497411204" lon="14.31713240202662"><ele>45.5</ele><time>2026-04-12T11:56:00.001Z</time></trkpt><trkpt lat="40.89585225926306" lon="14.317110049596002"><ele>46.25</ele><time>2026-04-12T11:56:01.001Z</time></trkpt><trkpt lat="40.89596936510864" lon="14.31712303900294"><ele>47.0</ele><time>2026-04-12T11:56:02.001Z</time></trkpt><trkpt lat="40.89608422160363" lon="14.317167330004716"><ele>46.8</ele><time>2026-04-12T11:56:03.001Z</time></trkpt><trkpt lat="40.89619460916402" lon="14.317230178006207"><ele>46.6</ele><time>2026-04-12T11:56:04.001Z</time></trkpt><trkpt lat="40.89630245182045" lon="14.317296637599496"><ele>46.4</ele><time>2026-04-12T11:56:05.001Z</time></trkpt><trkpt lat="40.89639746336127" lon="14.31736837778788"><ele>46.199999999999996</ele><time>2026-04-12T11:56:06.001Z</time></trkpt><trkpt lat="40.896472126173386" lon="14.317435311355458"><ele>46.0</ele><time>2026-04-12T11:56:07.001Z</time></trkpt><trkpt lat="40.896532142983624" lon="14.317499783323209"><ele>46.0</ele><time>2026-04-12T11:56:08.001Z</time></trkpt><trkpt lat="40.89659050478062" lon="14.31757234053392"><ele>46.0</ele><time>2026-04-12T11:56:09.001Z</time></trkpt><trkpt lat="40.89665961684007" lon="14.317648915345506"><ele>46.0</ele><time>2026-04-12T11:56:10.001Z</time></trkpt><trkpt lat="40.89670237418101" lon="14.317763233676073"><ele>46.0</ele><time>2026-04-12T11:56:11.001Z</time></trkpt><trkpt lat="40.89676296191799" lon="14.317878229446402"><ele>46.0</ele><time>2026-04-12T11:56:12.001Z</time></trkpt><trkpt lat="40.896822386943896" lon="14.318009696240066"><ele>45.25</ele><time>2026-04-12T11:56:13.001Z</time></trkpt><trkpt lat="40.896879494557744" lon="14.318155885629665"><ele>44.5</ele><time>2026-04-12T11:56:14.001Z</time></trkpt><trkpt lat="40.89693568801937" lon="14.318313561158597"><ele>43.75</ele><time>2026-04-12T11:56:15.001Z</time></trkpt><trkpt lat="40.89698762564282" lon="14.318476174577949"><ele>43.0</ele><time>2026-04-12T11:56:16.001Z</time></trkpt><trkpt lat="40.89703730588808" lon="14.318646928321671"><ele>43.0</ele><time>2026-04-12T11:56:17.001Z</time></trkpt><trkpt lat="40.89708575641649" lon="14.31881606366633"><ele>43.0</ele><time>2026-04-12T11:56:18.001Z</time></trkpt><trkpt lat="40.897132533075585" lon="14.318981454009736"><ele>43.0</ele><time>2026-04-12T11:56:19.001Z</time></trkpt><trkpt lat="40.897179872084465" lon="14.31914795018107"><ele>43.0</ele><time>2026-04-12T11:56:20.001Z</time></trkpt><trkpt lat="40.89722084452024" lon="14.319306040794457"><ele>42.75</ele><time>2026-04-12T11:56:21.001Z</time></trkpt><trkpt lat="40.8972755163362" lon="14.319483219591298"><ele>42.5</ele><time>2026-04-12T11:56:22.001Z</time></trkpt><trkpt lat="40.89730897049153" lon="14.319663284600821"><ele>42.25</ele><time>2026-04-12T11:56:23.001Z</time></trkpt><trkpt lat="40.89732871931312" lon="14.319840142715769"><ele>42.0</ele><time>2026-04-12T11:56:24.001Z</time></trkpt><trkpt lat="40.897331826066164" lon="14.32001995650194"><ele>41.5</ele><time>2026-04-12T11:56:24.999Z</time></trkpt><trkpt lat="40.897322662484925" lon="14.320201560237722"><ele>41.0</ele><time>2026-04-12T11:56:25.999Z</time></trkpt><trkpt lat="40.89729817489358" lon="14.32038282399986"><ele>40.5</ele><time>2026-04-12T11:56:26.999Z</time></trkpt><trkpt lat="40.897259994771915" lon="14.320564950373319"><ele>40.0</ele><time>2026-04-12T11:56:27.999Z</time></trkpt><trkpt lat="40.897207559321615" lon="14.320746718706062"><ele>39.333333333333336</ele><time>2026-04-12T11:56:28.999Z</time></trkpt><trkpt lat="40.8971441976707" lon="14.320930491924194"><ele>38.666666666666664</ele><time>2026-04-12T11:56:29.999Z</time></trkpt><trkpt lat="40.897075701509905" lon="14.32111447886375"><ele>38.0</ele><time>2026-04-12T11:56:30.999Z</time></trkpt><trkpt lat="40.897007572613646" lon="14.32130172703181"><ele>37.33333333333333</ele><time>2026-04-12T11:56:32Z</time></trkpt><trkpt lat="40.896937587764846" lon="14.321489005586507"><ele>36.666666666666664</ele><time>2026-04-12T11:56:33Z</time></trkpt><trkpt lat="40.896862071010034" lon="14.321677227083383"><ele>36.0</ele><time>2026-04-12T11:56:34Z</time></trkpt><trkpt lat="40.896776578781584" lon="14.321862891035908"><ele>36.666666666666664</ele><time>2026-04-12T11:56:35Z</time></trkpt><trkpt lat="40.89668115209744" lon="14.322043908453022"><ele>37.33333333333333</ele><time>2026-04-12T11:56:36Z</time></trkpt><trkpt lat="40.89656121752523" lon="14.322206162770396"><ele>38.0</ele><time>2026-04-12T11:56:37Z</time></trkpt><trkpt lat="40.89644235544614" lon="14.322371172554382"><ele>36.33333333333333</ele><time>2026-04-12T11:56:38Z</time></trkpt><trkpt lat="40.89632006370651" lon="14.322537061832582"><ele>34.666666666666664</ele><time>2026-04-12T11:56:39Z</time></trkpt><trkpt lat="40.896198115414904" lon="14.322704870850133"><ele>33.0</ele><time>2026-04-12T11:56:40Z</time></trkpt><trkpt lat="40.89608662310066" lon="14.322893565488048"><ele>33.0</ele><time>2026-04-12T11:56:41Z</time></trkpt><trkpt lat="40.895946867094914" lon="14.323049087626979"><ele>33.0</ele><time>2026-04-12T11:56:42Z</time></trkpt><trkpt lat="40.895793510342635" lon="14.323190491870504"><ele>33.0</ele><time>2026-04-12T11:56:43Z</time></trkpt><trkpt lat="40.89562922507771" lon="14.323318537630305"><ele>32.333333333333336</ele><time>2026-04-12T11:56:44Z</time></trkpt><trkpt lat="40.89546386320387" lon="14.323436815029009"><ele>31.666666666666668</ele><time>2026-04-12T11:56:45Z</time></trkpt><trkpt lat="40.89529421181125" lon="14.323555133210712"><ele>31.0</ele><time>2026-04-12T11:56:46Z</time></trkpt><trkpt lat="40.89512144863065" lon="14.323674877124951"><ele>31.333333333333336</ele><time>2026-04-12T11:56:47Z</time></trkpt><trkpt lat="40.89494646428005" lon="14.323791428413829"><ele>31.666666666666664</ele><time>2026-04-12T11:56:48Z</time></trkpt><trkpt lat="40.89476549425375" lon="14.323900937423854"><ele>32.0</ele><time>2026-04-12T11:56:49Z</time></trkpt><trkpt lat="40.89457931380601" lon="14.323999235015192"><ele>31.0</ele><time>2026-04-12T11:56:50Z</time></trkpt><trkpt lat="40.89439000235066" lon="14.324086785133318"><ele>30.0</ele><time>2026-04-12T11:56:51Z</time></trkpt><trkpt lat="40.89419868270771" lon="14.324168272992292"><ele>29.0</ele><time>2026-04-12T11:56:52Z</time></trkpt><trkpt lat="40.89400565740982" lon="14.324246076376594"><ele>29.0</ele><time>2026-04-12T11:56:53Z</time></trkpt><trkpt lat="40.893813237529905" lon="14.324325299042137"><ele>29.0</ele><time>2026-04-12T11:56:54Z</time></trkpt><trkpt lat="40.89362231115463" lon="14.324406806353009"><ele>29.0</ele><time>2026-04-12T11:56:55Z</time></trkpt><trkpt lat="40.893430252361185" lon="14.324489239995998"><ele>28.333333333333332</ele><time>2026-04-12T11:56:56Z</time></trkpt><trkpt lat="40.89323937633557" lon="14.32457474011852"><ele>27.666666666666664</ele><time>2026-04-12T11:56:57Z</time></trkpt><trkpt lat="40.89305050345298" lon="14.324667566408822"><ele>27.0</ele><time>2026-04-12T11:56:58Z</time></trkpt><trkpt lat="40.89286439988629" lon="14.324770436449619"><ele>26.666666666666664</ele><time>2026-04-12T11:56:59Z</time></trkpt><trkpt lat="40.89268192265271" lon="14.324885321056973"><ele>26.333333333333332</ele><time>2026-04-12T11:57:00Z</time></trkpt><trkpt lat="40.89250354387682" lon="14.325013281297231"><ele>26.0</ele><time>2026-04-12T11:57:01Z</time></trkpt><trkpt lat="40.89232932602173" lon="14.325156765432789"><ele>25.666666666666664</ele><time>2026-04-12T11:57:02Z</time></trkpt><trkpt lat="40.8921590243321" lon="14.325313932687378"><ele>25.333333333333336</ele><time>2026-04-12T11:57:03Z</time></trkpt><trkpt lat="40.89199407869021" lon="14.32548794407843"><ele>25.0</ele><time>2026-04-12T11:57:04Z</time></trkpt><trkpt lat="40.891833366964036" lon="14.325675581186427"><ele>25.333333333333336</ele><time>2026-04-12T11:57:05Z</time></trkpt><trkpt lat="40.89167908078286" lon="14.325875956145975"><ele>25.666666666666664</ele><time>2026-04-12T11:57:06Z</time></trkpt><trkpt lat="40.891533031473195" lon="14.326091012188169"><ele>26.0</ele><time>2026-04-12T11:57:07Z</time></trkpt><trkpt lat="40.89139793010399" lon="14.32632042671781"><ele>26.0</ele><time>2026-04-12T11:57:08Z</time></trkpt><trkpt lat="40.891272337545296" lon="14.32656203398302"><ele>26.0</ele><time>2026-04-12T11:57:09Z</time></trkpt><trkpt lat="40.89115713129909" lon="14.32681188593349"><ele>26.0</ele><time>2026-04-12T11:57:10Z</time></trkpt><trkpt lat="40.89105444300947" lon="14.32707361677818"><ele>25.0</ele><time>2026-04-12T11:57:11Z</time></trkpt><trkpt lat="40.89096355372196" lon="14.327347065094179"><ele>24.0</ele><time>2026-04-12T11:57:12Z</time></trkpt><trkpt lat="40.89088403027781" lon="14.32762803604841"><ele>24.0</ele><time>2026-04-12T11:57:13Z</time></trkpt><trkpt lat="40.890818314293846" lon="14.32791827646951"><ele>24.0</ele><time>2026-04-12T11:57:14Z</time></trkpt><trkpt lat="40.890764730870664" lon="14.32821647045604"><ele>22.5</ele><time>2026-04-12T11:57:15Z</time></trkpt><trkpt lat="40.890718901652235" lon="14.32852243643834"><ele>21.0</ele><time>2026-04-12T11:57:16Z</time></trkpt><trkpt lat="40.890684545229405" lon="14.328834762183503"><ele>19.0</ele><time>2026-04-12T11:57:17Z</time></trkpt><trkpt lat="40.89066017424368" lon="14.329154719550896"><ele>17.0</ele><time>2026-04-12T11:57:18Z</time></trkpt><trkpt lat="40.89064751807395" lon="14.329479501784474"><ele>15.0</ele><time>2026-04-12T11:57:19Z</time></trkpt><trkpt lat="40.8906452987218" lon="14.329804286869567"><ele>13.0</ele><time>2026-04-12T11:57:20Z</time></trkpt><trkpt lat="40.890652273289106" lon="14.330128393380734"><ele>13.0</ele><time>2026-04-12T11:57:21Z</time></trkpt><trkpt lat="40.89066540714189" lon="14.330457710612455"><ele>13.0</ele><time>2026-04-12T11:57:22Z</time></trkpt><trkpt lat="40.89068776804827" lon="14.330787801613422"><ele>12.5</ele><time>2026-04-12T11:57:23Z</time></trkpt><trkpt lat="40.890718269800615" lon="14.331121165167385"><ele>12.0</ele><time>2026-04-12T11:57:24Z</time></trkpt><trkpt lat="40.89075255789875" lon="14.331456928011274"><ele>12.0</ele><time>2026-04-12T11:57:25Z</time></trkpt><trkpt lat="40.89079192123902" lon="14.331792962761028"><ele>12.0</ele><time>2026-04-12T11:57:26Z</time></trkpt><trkpt lat="40.890833907071745" lon="14.332129478775002"><ele>12.5</ele><time>2026-04-12T11:57:27Z</time></trkpt><trkpt lat="40.89087715108885" lon="14.332468974496239"><ele>13.0</ele><time>2026-04-12T11:57:28Z</time></trkpt><trkpt lat="40.890924245385044" lon="14.332806645106693"><ele>13.5</ele><time>2026-04-12T11:57:29Z</time></trkpt><trkpt lat="40.89097025926896" lon="14.333146522702664"><ele>14.0</ele><time>2026-04-12T11:57:30.001Z</time></trkpt><trkpt lat="40.891017388907265" lon="14.333485464991172"><ele>14.0</ele><time>2026-04-12T11:57:31.001Z</time></trkpt><trkpt lat="40.8910646398387" lon="14.3338264059776"><ele>14.0</ele><time>2026-04-12T11:57:32.001Z</time></trkpt><trkpt lat="40.89111134357819" lon="14.334166732535051"><ele>13.5</ele><time>2026-04-12T11:57:33.001Z</time></trkpt><trkpt lat="40.89115848824031" lon="14.334507656143913"><ele>13.0</ele><time>2026-04-12T11:57:34.001Z</time></trkpt><trkpt lat="40.89120585839713" lon="14.334849680898213"><ele>13.0</ele><time>2026-04-12T11:57:35.001Z</time></trkpt><trkpt lat="40.891253405038285" lon="14.335192326229336"><ele>13.0</ele><time>2026-04-12T11:57:36.001Z</time></trkpt><trkpt lat="40.891300804595936" lon="14.335535360260067"><ele>12.5</ele><time>2026-04-12T11:57:37.001Z</time></trkpt><trkpt lat="40.89134639272593" lon="14.33588151878536"><ele>12.0</ele><time>2026-04-12T11:57:38.001Z</time></trkpt><trkpt lat="40.891393506430795" lon="14.336227652951878"><ele>13.0</ele><time>2026-04-12T11:57:39.001Z</time></trkpt><trkpt lat="40.89144126889947" lon="14.336572691196"><ele>14.0</ele><time>2026-04-12T11:57:40.001Z</time></trkpt><trkpt lat="40.8914864741514" lon="14.336917925480376"><ele>13.5</ele><time>2026-04-12T11:57:41.001Z</time></trkpt><trkpt lat="40.891529053183824" lon="14.337263270272793"><ele>13.0</ele><time>2026-04-12T11:57:42.001Z</time></trkpt><trkpt lat="40.89156774603303" lon="14.337610025975728"><ele>13.0</ele><time>2026-04-12T11:57:43.001Z</time></trkpt><trkpt lat="40.891600664031195" lon="14.337956993106003"><ele>13.0</ele><time>2026-04-12T11:57:44.001Z</time></trkpt><trkpt lat="40.891625822094355" lon="14.338304744173813"><ele>13.0</ele><time>2026-04-12T11:57:45.001Z</time></trkpt><trkpt lat="40.89164404580805" lon="14.338651541767128"><ele>13.0</ele><time>2026-04-12T11:57:46.001Z</time></trkpt><trkpt lat="40.89165494116552" lon="14.338996039028439"><ele>14.0</ele><time>2026-04-12T11:57:47.001Z</time></trkpt><trkpt lat="40.891662680689684" lon="14.339338973888943"><ele>15.0</ele><time>2026-04-12T11:57:48.001Z</time></trkpt><trkpt lat="40.89166500019087" lon="14.33968034042486"><ele>15.0</ele><time>2026-04-12T11:57:49.001Z</time></trkpt><trkpt lat="40.89166093145011" lon="14.340021803961639"><ele>15.0</ele><time>2026-04-12T11:57:50.001Z</time></trkpt><trkpt lat="40.891651209427884" lon="14.340361877910107"><ele>15.5</ele><time>2026-04-12T11:57:51.001Z</time></trkpt><trkpt lat="40.89163628277548" lon="14.340700899837358"><ele>16.0</ele><time>2026-04-12T11:57:52.001Z</time></trkpt><trkpt lat="40.89161471653933" lon="14.341038385929211"><ele>16.0</ele><time>2026-04-12T11:57:53.001Z</time></trkpt><trkpt lat="40.891589916417296" lon="14.341374174256508"><ele>16.0</ele><time>2026-04-12T11:57:54.001Z</time></trkpt><trkpt lat="40.891560283810215" lon="14.341709284681171"><ele>16.0</ele><time>2026-04-12T11:57:55.001Z</time></trkpt><trkpt lat="40.891528251597556" lon="14.342043474282576"><ele>16.0</ele><time>2026-04-12T11:57:56.001Z</time></trkpt><trkpt lat="40.89149192889265" lon="14.342377742165423"><ele>16.0</ele><time>2026-04-12T11:57:57.001Z</time></trkpt><trkpt lat="40.891453374825794" lon="14.342710423425256"><ele>16.0</ele><time>2026-04-12T11:57:58.001Z</time></trkpt><trkpt lat="40.891415867145696" lon="14.343042312516314"><ele>16.0</ele><time>2026-04-12T11:57:59.001Z</time></trkpt><trkpt lat="40.89137630319583" lon="14.343375083836023"><ele>16.0</ele><time>2026-04-12T11:58:00.001Z</time></trkpt><trkpt lat="40.891338494968416" lon="14.343707356100062"><ele>16.5</ele><time>2026-04-12T11:58:01.001Z</time></trkpt><trkpt lat="40.89130077697359" lon="14.344039566678491"><ele>17.0</ele><time>2026-04-12T11:58:02.001Z</time></trkpt><trkpt lat="40.89126072903359" lon="14.344371017423173"><ele>17.0</ele><time>2026-04-12T11:58:03.001Z</time></trkpt><trkpt lat="40.891220557241276" lon="14.344699591439658"><ele>17.0</ele><time>2026-04-12T11:58:04.001Z</time></trkpt><trkpt lat="40.891182994271844" lon="14.345027916363518"><ele>17.5</ele><time>2026-04-12T11:58:05.001Z</time></trkpt><trkpt lat="40.89114544033522" lon="14.345356975609514"><ele>18.0</ele><time>2026-04-12T11:58:06.001Z</time></trkpt><trkpt lat="40.89110677509387" lon="14.34568572984027"><ele>18.0</ele><time>2026-04-12T11:58:07.001Z</time></trkpt><trkpt lat="40.8910681815946" lon="14.346012805064264"><ele>18.0</ele><time>2026-04-12T11:58:08.001Z</time></trkpt><trkpt lat="40.891029968502984" lon="14.346335611197492"><ele>17.5</ele><time>2026-04-12T11:58:09.001Z</time></trkpt><trkpt lat="40.89099339446009" lon="14.346652360220238"><ele>17.0</ele><time>2026-04-12T11:58:10.001Z</time></trkpt><trkpt lat="40.890956211674755" lon="14.346968541265174"><ele>17.5</ele><time>2026-04-12T11:58:11.001Z</time></trkpt><trkpt lat="40.890920378559" lon="14.34728165326772"><ele>18.0</ele><time>2026-04-12T11:58:12.001Z</time></trkpt><trkpt lat="40.89088476570126" lon="14.347594241768325"><ele>18.0</ele><time>2026-04-12T11:58:13.001Z</time></trkpt><trkpt lat="40.8908530039499" lon="14.347910091324403"><ele>18.0</ele><time>2026-04-12T11:58:14.001Z</time></trkpt><trkpt lat="40.89082361172978" lon="14.348229690877151"><ele>19.5</ele><time>2026-04-12T11:58:15.001Z</time></trkpt><trkpt lat="40.890794113471266" lon="14.34855261480854"><ele>21.0</ele><time>2026-04-12T11:58:16.001Z</time></trkpt><trkpt lat="40.89076133536785" lon="14.348877376175526"><ele>21.5</ele><time>2026-04-12T11:58:17.001Z</time></trkpt><trkpt lat="40.890722836534515" lon="14.349202875126469"><ele>22.0</ele><time>2026-04-12T11:58:18.001Z</time></trkpt><trkpt lat="40.89068173888334" lon="14.34953040007171"><ele>21.0</ele><time>2026-04-12T11:58:19.001Z</time></trkpt><trkpt lat="40.89063839475265" lon="14.349858812555606"><ele>20.0</ele><time>2026-04-12T11:58:20.001Z</time></trkpt><trkpt lat="40.89059224670879" lon="14.350189521661145"><ele>20.0</ele><time>2026-04-12T11:58:21.001Z</time></trkpt><trkpt lat="40.89054168905807" lon="14.350520636195538"><ele>20.0</ele><time>2026-04-12T11:58:22.001Z</time></trkpt><trkpt lat="40.89048569406906" lon="14.350851661519645"><ele>19.5</ele><time>2026-04-12T11:58:23.001Z</time></trkpt><trkpt lat="40.89042611660385" lon="14.351182502482152"><ele>19.0</ele><time>2026-04-12T11:58:24.001Z</time></trkpt><trkpt lat="40.89036103217772" lon="14.3515137008207"><ele>19.0</ele><time>2026-04-12T11:58:25.001Z</time></trkpt><trkpt lat="40.890287505055724" lon="14.351844054581065"><ele>19.0</ele><time>2026-04-12T11:58:26.001Z</time></trkpt><trkpt lat="40.89020692152543" lon="14.352171158171267"><ele>19.0</ele><time>2026-04-12T11:58:27.001Z</time></trkpt><trkpt lat="40.890117735752916" lon="14.352491536718308"><ele>19.0</ele><time>2026-04-12T11:58:28.001Z</time></trkpt><trkpt lat="40.89002102805937" lon="14.35280578547678"><ele>21.0</ele><time>2026-04-12T11:58:29.001Z</time></trkpt><trkpt lat="40.88991611412139" lon="14.353112118469237"><ele>23.0</ele><time>2026-04-12T11:58:30.001Z</time></trkpt><trkpt lat="40.88979957779826" lon="14.353408034055116"><ele>23.0</ele><time>2026-04-12T11:58:31Z</time></trkpt><trkpt lat="40.88967471222846" lon="14.353690135356121"><ele>23.0</ele><time>2026-04-12T11:58:32Z</time></trkpt><trkpt lat="40.88954371505478" lon="14.353959219972667"><ele>23.0</ele><time>2026-04-12T11:58:33Z</time></trkpt><trkpt lat="40.889406976179956" lon="14.354215749238243"><ele>23.0</ele><time>2026-04-12T11:58:34Z</time></trkpt><trkpt lat="40.88926529710534" lon="14.354461988673963"><ele>24.0</ele><time>2026-04-12T11:58:35Z</time></trkpt><trkpt lat="40.88911593115378" lon="14.354695516914484"><ele>25.0</ele><time>2026-04-12T11:58:36Z</time></trkpt><trkpt lat="40.88896121942712" lon="14.3549179250567"><ele>25.666666666666668</ele><time>2026-04-12T11:58:37Z</time></trkpt><trkpt lat="40.888801119282654" lon="14.355125243412616"><ele>26.333333333333336</ele><time>2026-04-12T11:58:38Z</time></trkpt><trkpt lat="40.88863899681686" lon="14.355320286107494"><ele>27.0</ele><time>2026-04-12T11:58:39Z</time></trkpt><trkpt lat="40.88847665005136" lon="14.355497715329474"><ele>27.0</ele><time>2026-04-12T11:58:40Z</time></trkpt><trkpt lat="40.88831398625031" lon="14.355659909763858"><ele>27.0</ele><time>2026-04-12T11:58:41Z</time></trkpt><trkpt lat="40.88815413126711" lon="14.355808541876952"><ele>27.0</ele><time>2026-04-12T11:58:42Z</time></trkpt><trkpt lat="40.887997687299496" lon="14.355941820277428"><ele>27.0</ele><time>2026-04-12T11:58:43Z</time></trkpt><trkpt lat="40.88784460437906" lon="14.356059440000816"><ele>27.0</ele><time>2026-04-12T11:58:44Z</time></trkpt><trkpt lat="40.88770426403617" lon="14.356161172967363"><ele>27.0</ele><time>2026-04-12T11:58:45Z</time></trkpt><trkpt lat="40.8875771189303" lon="14.356249180547476"><ele>26.75</ele><time>2026-04-12T11:58:46Z</time></trkpt><trkpt lat="40.887458127697485" lon="14.356326273239702"><ele>26.5</ele><time>2026-04-12T11:58:47Z</time></trkpt><trkpt lat="40.88735368656182" lon="14.356424088575983"><ele>26.25</ele><time>2026-04-12T11:58:48Z</time></trkpt><trkpt lat="40.88724876965362" lon="14.356446210138609"><ele>26.0</ele><time>2026-04-12T11:58:49Z</time></trkpt><trkpt lat="40.887152702020785" lon="14.356485153119865"><ele>26.4</ele><time>2026-04-12T11:58:50Z</time></trkpt><trkpt lat="40.88705361212905" lon="14.356497024374665"><ele>26.8</ele><time>2026-04-12T11:58:51Z</time></trkpt><trkpt lat="40.88695512631101" lon="14.356486769232317"><ele>27.199999999999996</ele><time>2026-04-12T11:58:52Z</time></trkpt><trkpt lat="40.88685958890565" lon="14.356447273953624"><ele>27.599999999999998</ele><time>2026-04-12T11:58:53Z</time></trkpt><trkpt lat="40.88677480564535" lon="14.356379832000748"><ele>28.0</ele><time>2026-04-12T11:58:54Z</time></trkpt><trkpt lat="40.88670525715145" lon="14.356286891640064"><ele>28.0</ele><time>2026-04-12T11:58:55Z</time></trkpt><trkpt lat="40.88665590258" lon="14.356175468604578"><ele>27.999999999999996</ele><time>2026-04-12T11:58:56Z</time></trkpt><trkpt lat="40.88663566325481" lon="14.356052484734494"><ele>27.999999999999996</ele><time>2026-04-12T11:58:57Z</time></trkpt><trkpt lat="40.88663870124743" lon="14.35592767436524"><ele>28.0</ele><time>2026-04-12T11:58:58Z</time></trkpt><trkpt lat="40.88665855443944" lon="14.355803661780113"><ele>28.0</ele><time>2026-04-12T11:58:59Z</time></trkpt><trkpt lat="40.886711915012896" lon="14.355705177333151"><ele>27.666666666666668</ele><time>2026-04-12T11:59:00Z</time></trkpt><trkpt lat="40.886765588039665" lon="14.355615732113286"><ele>27.333333333333336</ele><time>2026-04-12T11:59:01Z</time></trkpt><trkpt lat="40.886834916933736" lon="14.355544962084293"><ele>27.0</ele><time>2026-04-12T11:59:02.001Z</time></trkpt><trkpt lat="40.886907472994956" lon="14.355478420992949"><ele>26.666666666666664</ele><time>2026-04-12T11:59:03.001Z</time></trkpt><trkpt lat="40.88699651350246" lon="14.355447525602205"><ele>26.333333333333332</ele><time>2026-04-12T11:59:04.001Z</time></trkpt><trkpt lat="40.88708326431233" lon="14.355414684129482"><ele>26.0</ele><time>2026-04-12T11:59:05.001Z</time></trkpt><trkpt lat="40.88717092914485" lon="14.3553790345682"><ele>26.0</ele><time>2026-04-12T11:59:06.001Z</time></trkpt><trkpt lat="40.88725768847235" lon="14.355341854351579"><ele>26.0</ele><time>2026-04-12T11:59:07.001Z</time></trkpt><trkpt lat="40.887342514565034" lon="14.355304722559895"><ele>26.0</ele><time>2026-04-12T11:59:08.001Z</time></trkpt><trkpt lat="40.88742487995512" lon="14.355268247052159"><ele>26.0</ele><time>2026-04-12T11:59:09.001Z</time></trkpt><trkpt lat="40.887497108630136" lon="14.355236096767662"><ele>26.0</ele><time>2026-04-12T11:59:10.001Z</time></trkpt><trkpt lat="40.887598797218864" lon="14.355190444557087"><ele>26.0</ele><time>2026-04-12T11:59:12.001Z</time></trkpt><trkpt lat="40.88766099978143" lon="14.355133065157386"><ele>26.0</ele><time>2026-04-12T11:59:14.001Z</time></trkpt><trkpt lat="40.8876842650948" lon="14.355034548903111"><ele>26.0</ele><time>2026-04-12T11:59:17Z</time></trkpt><trkpt lat="40.887650739538515" lon="14.354891176125"><ele>26.0</ele><time>2026-04-12T11:59:20Z</time></trkpt><trkpt lat="40.887574907748544" lon="14.354767472575748"><ele>26.0</ele><time>2026-04-12T11:59:22Z</time></trkpt><trkpt lat="40.88752873186356" lon="14.354701064251838"><ele>25.999999999999996</ele><time>2026-04-12T11:59:23Z</time></trkpt><trkpt lat="40.887476919418404" lon="14.354635378529917"><ele>26.0</ele><time>2026-04-12T11:59:24Z</time></trkpt><trkpt lat="40.88741974782633" lon="14.354567081357727"><ele>26.0</ele><time>2026-04-12T11:59:25Z</time></trkpt><trkpt lat="40.88735341786033" lon="14.354491510331114"><ele>26.0</ele><time>2026-04-12T11:59:26Z</time></trkpt><trkpt lat="40.88728359375856" lon="14.354415946998227"><ele>25.999999999999996</ele><time>2026-04-12T11:59:27Z</time></trkpt><trkpt lat="40.8872127714265" lon="14.354340580398842"><ele>26.0</ele><time>2026-04-12T11:59:28Z</time></trkpt><trkpt lat="40.88714075562757" lon="14.354259657169134"><ele>26.0</ele><time>2026-04-12T11:59:29Z</time></trkpt><trkpt lat="40.88706676916462" lon="14.354172671004852"><ele>26.0</ele><time>2026-04-12T11:59:30Z</time></trkpt><trkpt lat="40.88698988127711" lon="14.354081501831542"><ele>26.0</ele><time>2026-04-12T11:59:31Z</time></trkpt><trkpt lat="40.886911089798154" lon="14.353989666711856"><ele>26.0</ele><time>2026-04-12T11:59:32Z</time></trkpt><trkpt lat="40.886830771759236" lon="14.353896792950795"><ele>26.0</ele><time>2026-04-12T11:59:33Z</time></trkpt><trkpt lat="40.88675179539171" lon="14.353803172200736"><ele>25.8</ele><time>2026-04-12T11:59:34Z</time></trkpt><trkpt lat="40.88667415958172" lon="14.353713074988425"><ele>25.6</ele><time>2026-04-12T11:59:35Z</time></trkpt><trkpt lat="40.886598522750944" lon="14.35362587675252"><ele>25.4</ele><time>2026-04-12T11:59:36Z</time></trkpt><trkpt lat="40.886520958157625" lon="14.353534060171901"><ele>25.2</ele><time>2026-04-12T11:59:37Z</time></trkpt><trkpt lat="40.886442487460066" lon="14.353443507846102"><ele>25.0</ele><time>2026-04-12T11:59:38Z</time></trkpt><trkpt lat="40.8863620327102" lon="14.353353445906555"><ele>25.0</ele><time>2026-04-12T11:59:39Z</time></trkpt><trkpt lat="40.88628250142627" lon="14.353261603490065"><ele>25.0</ele><time>2026-04-12T11:59:40Z</time></trkpt><trkpt lat="40.88620486627566" lon="14.353170704222837"><ele>25.0</ele><time>2026-04-12T11:59:41Z</time></trkpt><trkpt lat="40.88612840225656" lon="14.353079770614768"><ele>25.0</ele><time>2026-04-12T11:59:42Z</time></trkpt><trkpt lat="40.88605465773868" lon="14.352989243027618"><ele>25.0</ele><time>2026-04-12T11:59:43Z</time></trkpt><trkpt lat="40.885988780769146" lon="14.352893765342346"><ele>24.833333333333336</ele><time>2026-04-12T11:59:44Z</time></trkpt><trkpt lat="40.88593361775295" lon="14.352792174893871"><ele>24.666666666666668</ele><time>2026-04-12T11:59:45Z</time></trkpt><trkpt lat="40.88588904500966" lon="14.352684050540343"><ele>24.5</ele><time>2026-04-12T11:59:46Z</time></trkpt><trkpt lat="40.88585557508921" lon="14.352573882376188"><ele>24.333333333333336</ele><time>2026-04-12T11:59:47Z</time></trkpt><trkpt lat="40.88583230586318" lon="14.35247262773506"><ele>24.166666666666668</ele><time>2026-04-12T11:59:48Z</time></trkpt><trkpt lat="40.885812321509185" lon="14.35238283115252"><ele>24.0</ele><time>2026-04-12T11:59:49Z</time></trkpt><trkpt lat="40.88578923943753" lon="14.352298657254734"><ele>24.166666666666668</ele><time>2026-04-12T11:59:50Z</time></trkpt><trkpt lat="40.885763324875334" lon="14.352221747698895"><ele>24.333333333333336</ele><time>2026-04-12T11:59:51Z</time></trkpt><trkpt lat="40.88569198137847" lon="14.352116778716882"><ele>24.5</ele><time>2026-04-12T11:59:53Z</time></trkpt><trkpt lat="40.885576371074166" lon="14.352110618092043"><ele>24.666666666666668</ele><time>2026-04-12T11:59:55Z</time></trkpt><trkpt lat="40.8855487073326" lon="14.352190754965717"><ele>24.833333333333336</ele><time>2026-04-12T11:59:56Z</time></trkpt><trkpt lat="40.885487405021976" lon="14.352232997705226"><ele>25.0</ele><time>2026-04-12T11:59:57Z</time></trkpt><trkpt lat="40.88542350757659" lon="14.35227930412214"><ele>25.000000000000004</ele><time>2026-04-12T11:59:58Z</time></trkpt><trkpt lat="40.88535161654833" lon="14.352331402459837"><ele>25.0</ele><time>2026-04-12T11:59:59Z</time></trkpt><trkpt lat="40.88530026064925" lon="14.352400968873471"><ele>25.0</ele><time>2026-04-12T12:00:00Z</time></trkpt><trkpt lat="40.88520691899683" lon="14.352434635070335"><ele>25.0</ele><time>2026-04-12T12:00:01Z</time></trkpt><trkpt lat="40.88512518383058" lon="14.352493073710868"><ele>25.000000000000004</ele><time>2026-04-12T12:00:02Z</time></trkpt><trkpt lat="40.88503804001121" lon="14.352555359916574"><ele>25.0</ele><time>2026-04-12T12:00:03Z</time></trkpt><trkpt lat="40.88493042746281" lon="14.352584049941171"><ele>25.0</ele><time>2026-04-12T12:00:04Z</time></trkpt><trkpt lat="40.884833972223944" lon="14.35265537022644"><ele>25.0</ele><time>2026-04-12T12:00:05Z</time></trkpt><trkpt lat="40.88473311491533" lon="14.352728956206809"><ele>25.0</ele><time>2026-04-12T12:00:06Z</time></trkpt><trkpt lat="40.88462992486724" lon="14.35280427698577"><ele>25.0</ele><time>2026-04-12T12:00:07Z</time></trkpt><trkpt lat="40.88452517747196" lon="14.352883610962797"><ele>25.0</ele><time>2026-04-12T12:00:08Z</time></trkpt><trkpt lat="40.88441860254432" lon="14.352964071501601"><ele>25.0</ele><time>2026-04-12T12:00:09Z</time></trkpt><trkpt lat="40.884314125502456" lon="14.35304279127154"><ele>25.0</ele><time>2026-04-12T12:00:10Z</time></trkpt><trkpt lat="40.88422147155587" lon="14.353143701421343"><ele>25.0</ele><time>2026-04-12T12:00:11Z</time></trkpt><trkpt lat="40.88411108365795" lon="14.353189380557627"><ele>25.0</ele><time>2026-04-12T12:00:12Z</time></trkpt><trkpt lat="40.884014418428976" lon="14.353257570842619"><ele>25.0</ele><time>2026-04-12T12:00:13Z</time></trkpt><trkpt lat="40.88391996185626" lon="14.353320544751051"><ele>25.0</ele><time>2026-04-12T12:00:14Z</time></trkpt><trkpt lat="40.883828397705244" lon="14.353378129547643"><ele>25.0</ele><time>2026-04-12T12:00:15Z</time></trkpt><trkpt lat="40.88374685964369" lon="14.353453165574091"><ele>25.0</ele><time>2026-04-12T12:00:16Z</time></trkpt><trkpt lat="40.8836528358804" lon="14.353483437410052"><ele>25.000000000000004</ele><time>2026-04-12T12:00:17Z</time></trkpt><trkpt lat="40.88356900474095" lon="14.353529459239894"><ele>25.0</ele><time>2026-04-12T12:00:18.001Z</time></trkpt><trkpt lat="40.88348805573247" lon="14.353571341632815"><ele>25.0</ele><time>2026-04-12T12:00:19.001Z</time></trkpt><trkpt lat="40.88341076690708" lon="14.353606091031114"><ele>25.0</ele><time>2026-04-12T12:00:20.001Z</time></trkpt><trkpt lat="40.88334672120916" lon="14.353631119984474"><ele>25.000000000000004</ele><time>2026-04-12T12:00:21.001Z</time></trkpt><trkpt lat="40.88328054883022" lon="14.3536492689371"><ele>25.0</ele><time>2026-04-12T12:00:22.001Z</time></trkpt><trkpt lat="40.883212556468926" lon="14.353667662408533"><ele>25.333333333333336</ele><time>2026-04-12T12:00:23.001Z</time></trkpt><trkpt lat="40.883153439000665" lon="14.353757465613038"><ele>25.666666666666668</ele><time>2026-04-12T12:00:24.001Z</time></trkpt><trkpt lat="40.883072163851594" lon="14.353793646178772"><ele>26.0</ele><time>2026-04-12T12:00:25.001Z</time></trkpt><trkpt lat="40.88299405468652" lon="14.353828594140037"><ele>26.333333333333336</ele><time>2026-04-12T12:00:26.001Z</time></trkpt><trkpt lat="40.88291188091175" lon="14.353865360704045"><ele>26.666666666666668</ele><time>2026-04-12T12:00:27.001Z</time></trkpt><trkpt lat="40.8828239085021" lon="14.35390472168048"><ele>27.0</ele><time>2026-04-12T12:00:28.001Z</time></trkpt><trkpt lat="40.88273207251743" lon="14.353942036828432"><ele>27.200000000000003</ele><time>2026-04-12T12:00:29.001Z</time></trkpt><trkpt lat="40.882633563969" lon="14.353986173175377"><ele>27.400000000000002</ele><time>2026-04-12T12:00:30.001Z</time></trkpt><trkpt lat="40.88253188761347" lon="14.35403219116449"><ele>27.599999999999998</ele><time>2026-04-12T12:00:31.001Z</time></trkpt><trkpt lat="40.882430755117994" lon="14.35407899057623"><ele>27.799999999999997</ele><time>2026-04-12T12:00:32.001Z</time></trkpt><trkpt lat="40.882330435647596" lon="14.354126449324351"><ele>28.0</ele><time>2026-04-12T12:00:33.001Z</time></trkpt><trkpt lat="40.88223432365589" lon="14.354173465991165"><ele>27.599999999999998</ele><time>2026-04-12T12:00:34.001Z</time></trkpt><trkpt lat="40.88214009332694" lon="14.354221404595425"><ele>27.199999999999996</ele><time>2026-04-12T12:00:35.001Z</time></trkpt><trkpt lat="40.88204780890477" lon="14.354270738953227"><ele>26.8</ele><time>2026-04-12T12:00:36.001Z</time></trkpt><trkpt lat="40.88195619972269" lon="14.354322949692405"><ele>26.4</ele><time>2026-04-12T12:00:37Z</time></trkpt><trkpt lat="40.881861569545045" lon="14.354380578491792"><ele>26.0</ele><time>2026-04-12T12:00:38Z</time></trkpt><trkpt lat="40.88176578886549" lon="14.354439420019347"><ele>26.4</ele><time>2026-04-12T12:00:39Z</time></trkpt><trkpt lat="40.88166921653354" lon="14.35450129279917"><ele>26.8</ele><time>2026-04-12T12:00:40Z</time></trkpt><trkpt lat="40.88157073870633" lon="14.354565105650847"><ele>27.199999999999996</ele><time>2026-04-12T12:00:41Z</time></trkpt><trkpt lat="40.88147075295871" lon="14.354631122088948"><ele>27.599999999999998</ele><time>2026-04-12T12:00:42Z</time></trkpt><trkpt lat="40.88136841966351" lon="14.354698911009223"><ele>28.0</ele><time>2026-04-12T12:00:43Z</time></trkpt><trkpt lat="40.88126439747096" lon="14.354767535600093"><ele>28.0</ele><time>2026-04-12T12:00:44Z</time></trkpt><trkpt lat="40.88115912546009" lon="14.35483684838064"><ele>28.0</ele><time>2026-04-12T12:00:45Z</time></trkpt><trkpt lat="40.88105287171296" lon="14.3549099873876"><ele>28.0</ele><time>2026-04-12T12:00:46Z</time></trkpt><trkpt lat="40.880946838871566" lon="14.354983551894547"><ele>28.0</ele><time>2026-04-12T12:00:47Z</time></trkpt><trkpt lat="40.880840358168186" lon="14.355057456380475"><ele>28.5</ele><time>2026-04-12T12:00:48Z</time></trkpt><trkpt lat="40.88073251939929" lon="14.35513284864966"><ele>29.0</ele><time>2026-04-12T12:00:49Z</time></trkpt><trkpt lat="40.88062435546761" lon="14.355207847323582"><ele>29.5</ele><time>2026-04-12T12:00:50Z</time></trkpt><trkpt lat="40.88051380741715" lon="14.355282927386375"><ele>30.0</ele><time>2026-04-12T12:00:51Z</time></trkpt><trkpt lat="40.88040279793041" lon="14.355359431646054"><ele>30.0</ele><time>2026-04-12T12:00:52Z</time></trkpt><trkpt lat="40.880292554328264" lon="14.355438146204083"><ele>30.0</ele><time>2026-04-12T12:00:53Z</time></trkpt><trkpt lat="40.88018244907018" lon="14.355514931736352"><ele>30.0</ele><time>2026-04-12T12:00:54Z</time></trkpt><trkpt lat="40.88007266207373" lon="14.355591358228768"><ele>30.0</ele><time>2026-04-12T12:00:55Z</time></trkpt><trkpt lat="40.879962315195094" lon="14.355665678154326"><ele>30.75</ele><time>2026-04-12T12:00:56Z</time></trkpt><trkpt lat="40.879852171203375" lon="14.35573912169241"><ele>31.5</ele><time>2026-04-12T12:00:57Z</time></trkpt><trkpt lat="40.87974177261353" lon="14.35581223970973"><ele>32.25</ele><time>2026-04-12T12:00:58Z</time></trkpt><trkpt lat="40.879630681766194" lon="14.355886506561365"><ele>33.0</ele><time>2026-04-12T12:00:59Z</time></trkpt><trkpt lat="40.879521011877586" lon="14.355959782118836"><ele>33.0</ele><time>2026-04-12T12:01:00Z</time></trkpt><trkpt lat="40.87941233579453" lon="14.356033398657036"><ele>33.0</ele><time>2026-04-12T12:01:01Z</time></trkpt><trkpt lat="40.87930308702706" lon="14.356108138944789"><ele>33.0</ele><time>2026-04-12T12:01:02Z</time></trkpt><trkpt lat="40.87919365930251" lon="14.356183603705816"><ele>33.0</ele><time>2026-04-12T12:01:03Z</time></trkpt><trkpt lat="40.8790826374071" lon="14.356258021151854"><ele>33.5</ele><time>2026-04-12T12:01:04Z</time></trkpt><trkpt lat="40.87897048149698" lon="14.356333678319395"><ele>34.0</ele><time>2026-04-12T12:01:05Z</time></trkpt><trkpt lat="40.87885772641443" lon="14.356411360834258"><ele>34.5</ele><time>2026-04-12T12:01:06Z</time></trkpt><trkpt lat="40.87874285553004" lon="14.356489378549544"><ele>35.0</ele><time>2026-04-12T12:01:07Z</time></trkpt><trkpt lat="40.87862878686649" lon="14.356566053681583"><ele>35.0</ele><time>2026-04-12T12:01:08Z</time></trkpt><trkpt lat="40.87851471589023" lon="14.356642562764348"><ele>35.0</ele><time>2026-04-12T12:01:09Z</time></trkpt><trkpt lat="40.87840156808506" lon="14.356719984963808"><ele>35.0</ele><time>2026-04-12T12:01:10Z</time></trkpt><trkpt lat="40.87828876224263" lon="14.356795169103842"><ele>35.0</ele><time>2026-04-12T12:01:11Z</time></trkpt><trkpt lat="40.878178661579675" lon="14.356869008514723"><ele>35.5</ele><time>2026-04-12T12:01:12Z</time></trkpt><trkpt lat="40.87806932183612" lon="14.356941009955811"><ele>36.0</ele><time>2026-04-12T12:01:13Z</time></trkpt><trkpt lat="40.87795933910213" lon="14.357012804585466"><ele>36.5</ele><time>2026-04-12T12:01:14Z</time></trkpt><trkpt lat="40.87785556996075" lon="14.357098038324887"><ele>37.0</ele><time>2026-04-12T12:01:15Z</time></trkpt><trkpt lat="40.87774860653152" lon="14.357171505191149"><ele>37.0</ele><time>2026-04-12T12:01:16Z</time></trkpt><trkpt lat="40.877643966882566" lon="14.357243734380008"><ele>37.0</ele><time>2026-04-12T12:01:17Z</time></trkpt><trkpt lat="40.87754257864657" lon="14.357312630601397"><ele>37.0</ele><time>2026-04-12T12:01:18Z</time></trkpt><trkpt lat="40.87744530241877" lon="14.357377613544282"><ele>37.0</ele><time>2026-04-12T12:01:19Z</time></trkpt><trkpt lat="40.87735744451114" lon="14.357435278252348"><ele>37.0</ele><time>2026-04-12T12:01:20Z</time></trkpt><trkpt lat="40.87728330124763" lon="14.357482852966564"><ele>37.6</ele><time>2026-04-12T12:01:21Z</time></trkpt><trkpt lat="40.87721583008026" lon="14.357526624545134"><ele>38.2</ele><time>2026-04-12T12:01:22Z</time></trkpt><trkpt lat="40.87715535588335" lon="14.357565825590251"><ele>38.8</ele><time>2026-04-12T12:01:23Z</time></trkpt><trkpt lat="40.877045533173096" lon="14.357630954433326"><ele>39.4</ele><time>2026-04-12T12:01:25Z</time></trkpt><trkpt lat="40.876958384219876" lon="14.357693991894608"><ele>40.0</ele><time>2026-04-12T12:01:27Z</time></trkpt><trkpt lat="40.876840338595784" lon="14.357559674795178"><ele>40.0</ele><time>2026-04-12T12:01:29Z</time></trkpt><trkpt lat="40.876825677682056" lon="14.357475663411519"><ele>40.0</ele><time>2026-04-12T12:01:30Z</time></trkpt><trkpt lat="40.876759605214716" lon="14.357350835087216"><ele>40.0</ele><time>2026-04-12T12:01:32Z</time></trkpt><trkpt lat="40.876722162057334" lon="14.357203276088551"><ele>40.0</ele><time>2026-04-12T12:01:34Z</time></trkpt><trkpt lat="40.87669268988" lon="14.357125657402175"><ele>40.0</ele><time>2026-04-12T12:01:35Z</time></trkpt><trkpt lat="40.87665962342114" lon="14.357038572694629"><ele>40.0</ele><time>2026-04-12T12:01:36Z</time></trkpt><trkpt lat="40.876621060880915" lon="14.356941170002404"><ele>39.6</ele><time>2026-04-12T12:01:37Z</time></trkpt><trkpt lat="40.87658510256485" lon="14.356838864961837"><ele>39.2</ele><time>2026-04-12T12:01:38Z</time></trkpt><trkpt lat="40.8765451114108" lon="14.356732813369671"><ele>38.8</ele><time>2026-04-12T12:01:39Z</time></trkpt><trkpt lat="40.876502948899414" lon="14.35662236788863"><ele>38.4</ele><time>2026-04-12T12:01:40Z</time></trkpt><trkpt lat="40.87645980114669" lon="14.356507538586879"><ele>38.0</ele><time>2026-04-12T12:01:41Z</time></trkpt><trkpt lat="40.87641710294797" lon="14.35639197642758"><ele>37.8</ele><time>2026-04-12T12:01:42Z</time></trkpt><trkpt lat="40.87637227970398" lon="14.356272420228958"><ele>37.599999999999994</ele><time>2026-04-12T12:01:43Z</time></trkpt><trkpt lat="40.87632701488284" lon="14.35615507958168"><ele>37.400000000000006</ele><time>2026-04-12T12:01:44Z</time></trkpt><trkpt lat="40.8762820666454" lon="14.356039602402571"><ele>37.2</ele><time>2026-04-12T12:01:45Z</time></trkpt><trkpt lat="40.87623611744235" lon="14.355921614967265"><ele>37.0</ele><time>2026-04-12T12:01:46Z</time></trkpt><trkpt lat="40.87618955618778" lon="14.355802616352063"><ele>37.0</ele><time>2026-04-12T12:01:47Z</time></trkpt><trkpt lat="40.8761438555633" lon="14.355681568539733"><ele>37.0</ele><time>2026-04-12T12:01:48Z</time></trkpt><trkpt lat="40.87609917985901" lon="14.355562962902656"><ele>37.0</ele><time>2026-04-12T12:01:49Z</time></trkpt><trkpt lat="40.87605675395636" lon="14.355446204723377"><ele>37.0</ele><time>2026-04-12T12:01:50Z</time></trkpt><trkpt lat="40.87601643970554" lon="14.355334306718754"><ele>37.0</ele><time>2026-04-12T12:01:51Z</time></trkpt><trkpt lat="40.87598369484984" lon="14.355235731194279"><ele>36.833333333333336</ele><time>2026-04-12T12:01:52Z</time></trkpt><trkpt lat="40.87595657335059" lon="14.355150642046404"><ele>36.66666666666667</ele><time>2026-04-12T12:01:53Z</time></trkpt><trkpt lat="40.875899579724845" lon="14.355006294449668"><ele>36.5</ele><time>2026-04-12T12:01:55Z</time></trkpt><trkpt lat="40.87584357699584" lon="14.354954490077434"><ele>36.333333333333336</ele><time>2026-04-12T12:01:56Z</time></trkpt><trkpt lat="40.87580144267099" lon="14.354873553472904"><ele>36.166666666666664</ele><time>2026-04-12T12:01:57Z</time></trkpt><trkpt lat="40.875742194368875" lon="14.354815298893419"><ele>36.0</ele><time>2026-04-12T12:01:58Z</time></trkpt><trkpt lat="40.87569043458884" lon="14.354748383798434"><ele>36.333333333333336</ele><time>2026-04-12T12:01:59Z</time></trkpt><trkpt lat="40.87564546584" lon="14.354675496218787"><ele>36.666666666666664</ele><time>2026-04-12T12:02:00.001Z</time></trkpt><trkpt lat="40.87559993320592" lon="14.354586388908187"><ele>37.0</ele><time>2026-04-12T12:02:01.001Z</time></trkpt><trkpt lat="40.87555299969406" lon="14.354495564375407"><ele>37.33333333333333</ele><time>2026-04-12T12:02:02.001Z</time></trkpt><trkpt lat="40.875500281982866" lon="14.354393064408248"><ele>37.666666666666664</ele><time>2026-04-12T12:02:03.001Z</time></trkpt><trkpt lat="40.875445935864946" lon="14.35427813663726"><ele>38.0</ele><time>2026-04-12T12:02:04.001Z</time></trkpt><trkpt lat="40.87539347905575" lon="14.354158714660665"><ele>38.0</ele><time>2026-04-12T12:02:05.001Z</time></trkpt><trkpt lat="40.87533725649878" lon="14.35403699494159"><ele>38.0</ele><time>2026-04-12T12:02:06.001Z</time></trkpt><trkpt lat="40.8752769623959" lon="14.35391303717814"><ele>38.0</ele><time>2026-04-12T12:02:07.001Z</time></trkpt><trkpt lat="40.875215692031205" lon="14.353788478417249"><ele>38.0</ele><time>2026-04-12T12:02:08.001Z</time></trkpt><trkpt lat="40.87515483442779" lon="14.353665841310931"><ele>38.0</ele><time>2026-04-12T12:02:09.001Z</time></trkpt><trkpt lat="40.87509633432322" lon="14.35354615594034"><ele>37.8</ele><time>2026-04-12T12:02:10.001Z</time></trkpt><trkpt lat="40.87503732849676" lon="14.353427313767476"><ele>37.599999999999994</ele><time>2026-04-12T12:02:11.001Z</time></trkpt><trkpt lat="40.874980501766515" lon="14.353310625784099"><ele>37.400000000000006</ele><time>2026-04-12T12:02:12.001Z</time></trkpt><trkpt lat="40.87492363371763" lon="14.353198784660954"><ele>37.2</ele><time>2026-04-12T12:02:13.001Z</time></trkpt><trkpt lat="40.87486289399394" lon="14.353081578403177"><ele>37.0</ele><time>2026-04-12T12:02:14.001Z</time></trkpt><trkpt lat="40.874801906033746" lon="14.352962970305203"><ele>37.0</ele><time>2026-04-12T12:02:15.001Z</time></trkpt><trkpt lat="40.874739282219196" lon="14.352842371197358"><ele>37.0</ele><time>2026-04-12T12:02:16.001Z</time></trkpt><trkpt lat="40.87467552670721" lon="14.352716976157215"><ele>37.0</ele><time>2026-04-12T12:02:17.001Z</time></trkpt><trkpt lat="40.87461053391538" lon="14.352592886958531"><ele>37.0</ele><time>2026-04-12T12:02:18.001Z</time></trkpt><trkpt lat="40.874543029575044" lon="14.35246687115519"><ele>37.0</ele><time>2026-04-12T12:02:19.001Z</time></trkpt><trkpt lat="40.87447706311176" lon="14.35234224968038"><ele>37.0</ele><time>2026-04-12T12:02:20.001Z</time></trkpt><trkpt lat="40.87441121599532" lon="14.352215174318578"><ele>37.0</ele><time>2026-04-12T12:02:21.001Z</time></trkpt><trkpt lat="40.874346405631435" lon="14.352089137732618"><ele>37.0</ele><time>2026-04-12T12:02:22.001Z</time></trkpt><trkpt lat="40.87428054265373" lon="14.351962176318576"><ele>36.75</ele><time>2026-04-12T12:02:23.001Z</time></trkpt><trkpt lat="40.87421447567155" lon="14.35183560508014"><ele>36.5</ele><time>2026-04-12T12:02:24.001Z</time></trkpt><trkpt lat="40.87415053722733" lon="14.351711432003789"><ele>36.25</ele><time>2026-04-12T12:02:25.001Z</time></trkpt><trkpt lat="40.87408868756874" lon="14.351584503067153"><ele>36.0</ele><time>2026-04-12T12:02:26.001Z</time></trkpt><trkpt lat="40.87402425019563" lon="14.351461116893544"><ele>35.75</ele><time>2026-04-12T12:02:27.001Z</time></trkpt><trkpt lat="40.87395933384485" lon="14.351338782610172"><ele>35.5</ele><time>2026-04-12T12:02:28.001Z</time></trkpt><trkpt lat="40.87389341118407" lon="14.351214600681702"><ele>35.25</ele><time>2026-04-12T12:02:29.001Z</time></trkpt><trkpt lat="40.87382524396359" lon="14.351091069885475"><ele>35.0</ele><time>2026-04-12T12:02:30.001Z</time></trkpt><trkpt lat="40.87375565459195" lon="14.350967381780672"><ele>35.0</ele><time>2026-04-12T12:02:31.001Z</time></trkpt><trkpt lat="40.87368841888982" lon="14.35084143374488"><ele>35.0</ele><time>2026-04-12T12:02:32.001Z</time></trkpt><trkpt lat="40.873624060843376" lon="14.35071522305909"><ele>35.0</ele><time>2026-04-12T12:02:33.001Z</time></trkpt><trkpt lat="40.87355920726543" lon="14.350590542287142"><ele>35.0</ele><time>2026-04-12T12:02:34.001Z</time></trkpt><trkpt lat="40.87349531508602" lon="14.35046705113254"><ele>35.0</ele><time>2026-04-12T12:02:35.001Z</time></trkpt><trkpt lat="40.873432372509114" lon="14.350345440396223"><ele>35.0</ele><time>2026-04-12T12:02:36.001Z</time></trkpt><trkpt lat="40.87337015037752" lon="14.350225069731415"><ele>35.0</ele><time>2026-04-12T12:02:37.001Z</time></trkpt><trkpt lat="40.87330786641827" lon="14.350105767765614"><ele>35.0</ele><time>2026-04-12T12:02:38.001Z</time></trkpt><trkpt lat="40.873246102502605" lon="14.349982239756217"><ele>35.0</ele><time>2026-04-12T12:02:39.001Z</time></trkpt><trkpt lat="40.873187033733274" lon="14.34985912082025"><ele>35.0</ele><time>2026-04-12T12:02:40.001Z</time></trkpt><trkpt lat="40.873131181858064" lon="14.349732969687524"><ele>35.0</ele><time>2026-04-12T12:02:41.001Z</time></trkpt><trkpt lat="40.87307835288054" lon="14.34960600230287"><ele>35.0</ele><time>2026-04-12T12:02:42Z</time></trkpt><trkpt lat="40.87302768748529" lon="14.34947651066575"><ele>35.0</ele><time>2026-04-12T12:02:43Z</time></trkpt><trkpt lat="40.87298091091427" lon="14.349346890189993"><ele>35.0</ele><time>2026-04-12T12:02:44Z</time></trkpt><trkpt lat="40.87293338020219" lon="14.349220825269104"><ele>35.0</ele><time>2026-04-12T12:02:45Z</time></trkpt><trkpt lat="40.87288720936862" lon="14.34909642326755"><ele>35.0</ele><time>2026-04-12T12:02:46Z</time></trkpt><trkpt lat="40.87284321274743" lon="14.348979569945262"><ele>35.0</ele><time>2026-04-12T12:02:47Z</time></trkpt><trkpt lat="40.87281059331655" lon="14.348892289891806"><ele>35.0</ele><time>2026-04-12T12:02:48Z</time></trkpt><trkpt lat="40.87276405993828" lon="14.348763678055851"><ele>35.0</ele><time>2026-04-12T12:02:50Z</time></trkpt><trkpt lat="40.87276178269691" lon="14.348645640026774"><ele>34.666666666666664</ele><time>2026-04-12T12:02:52Z</time></trkpt><trkpt lat="40.8728776010721" lon="14.348552755449157"><ele>34.33333333333333</ele><time>2026-04-12T12:02:54Z</time></trkpt><trkpt lat="40.87293558828837" lon="14.348495717861418"><ele>34.0</ele><time>2026-04-12T12:02:55Z</time></trkpt><trkpt lat="40.8729914187477" lon="14.34844080167396"><ele>33.666666666666664</ele><time>2026-04-12T12:02:56Z</time></trkpt><trkpt lat="40.87304596589098" lon="14.348387147790241"><ele>33.333333333333336</ele><time>2026-04-12T12:02:57Z</time></trkpt><trkpt lat="40.87310909112949" lon="14.348325203356543"><ele>33.0</ele><time>2026-04-12T12:02:58Z</time></trkpt><trkpt lat="40.873176628316614" lon="14.348258969793966"><ele>33.0</ele><time>2026-04-12T12:02:59Z</time></trkpt><trkpt lat="40.87324717151422" lon="14.348189788158908"><ele>33.0</ele><time>2026-04-12T12:03:00Z</time></trkpt><trkpt lat="40.87332036601522" lon="14.348117331154757"><ele>33.0</ele><time>2026-04-12T12:03:01Z</time></trkpt><trkpt lat="40.873394151333365" lon="14.348031888650567"><ele>33.0</ele><time>2026-04-12T12:03:02Z</time></trkpt><trkpt lat="40.873472209878976" lon="14.34795456761964"><ele>33.0</ele><time>2026-04-12T12:03:03Z</time></trkpt><trkpt lat="40.87355207194156" lon="14.347874617227955"><ele>32.199999999999996</ele><time>2026-04-12T12:03:04Z</time></trkpt><trkpt lat="40.873634697021515" lon="14.347791858159711"><ele>31.4</ele><time>2026-04-12T12:03:05Z</time></trkpt><trkpt lat="40.87371670603582" lon="14.347707553444808"><ele>30.599999999999998</ele><time>2026-04-12T12:03:06Z</time></trkpt><trkpt lat="40.87379955952749" lon="14.347625808854369"><ele>29.799999999999997</ele><time>2026-04-12T12:03:07Z</time></trkpt><trkpt lat="40.87388032378352" lon="14.347543773168766"><ele>29.0</ele><time>2026-04-12T12:03:08Z</time></trkpt><trkpt lat="40.87396484121572" lon="14.347459744828763"><ele>29.0</ele><time>2026-04-12T12:03:09Z</time></trkpt><trkpt lat="40.87404657570922" lon="14.347377326561551"><ele>29.0</ele><time>2026-04-12T12:03:10Z</time></trkpt><trkpt lat="40.874127246512806" lon="14.347297102561916"><ele>29.0</ele><time>2026-04-12T12:03:11Z</time></trkpt><trkpt lat="40.8742040006751" lon="14.347221764049815"><ele>29.0</ele><time>2026-04-12T12:03:12Z</time></trkpt><trkpt lat="40.874267699795745" lon="14.34716133005147"><ele>29.0</ele><time>2026-04-12T12:03:13Z</time></trkpt><trkpt lat="40.874327715159055" lon="14.347101626457585"><ele>28.999999999999996</ele><time>2026-04-12T12:03:14Z</time></trkpt><trkpt lat="40.87439073998249" lon="14.34703409382552"><ele>29.0</ele><time>2026-04-12T12:03:15Z</time></trkpt><trkpt lat="40.87445351425696" lon="14.346967816600799"><ele>29.0</ele><time>2026-04-12T12:03:16Z</time></trkpt><trkpt lat="40.87452051440999" lon="14.346901558148927"><ele>29.0</ele><time>2026-04-12T12:03:17Z</time></trkpt><trkpt lat="40.87458254820594" lon="14.346837803438106"><ele>28.999999999999996</ele><time>2026-04-12T12:03:18Z</time></trkpt><trkpt lat="40.874643925815484" lon="14.346778819881823"><ele>29.0</ele><time>2026-04-12T12:03:19Z</time></trkpt><trkpt lat="40.87469874224388" lon="14.346724481539232"><ele>28.999999999999996</ele><time>2026-04-12T12:03:20Z</time></trkpt><trkpt lat="40.87474905899425" lon="14.346670525358041"><ele>29.0</ele><time>2026-04-12T12:03:21Z</time></trkpt><trkpt lat="40.87480372932971" lon="14.346589962972518"><ele>29.0</ele><time>2026-04-12T12:03:23Z</time></trkpt><trkpt lat="40.874773809544635" lon="14.346456758750644"><ele>29.0</ele><time>2026-04-12T12:03:26Z</time></trkpt><trkpt lat="40.87471739654634" lon="14.346333971949395"><ele>28.999999999999996</ele><time>2026-04-12T12:03:28Z</time></trkpt><trkpt lat="40.874684339369935" lon="14.346261156719805"><ele>29.0</ele><time>2026-04-12T12:03:29Z</time></trkpt><trkpt lat="40.87465046462923" lon="14.346186582434429"><ele>28.833333333333332</ele><time>2026-04-12T12:03:30Z</time></trkpt><trkpt lat="40.87461402821821" lon="14.346106368832773"><ele>28.666666666666664</ele><time>2026-04-12T12:03:31Z</time></trkpt><trkpt lat="40.874575288157224" lon="14.346021083726963"><ele>28.5</ele><time>2026-04-12T12:03:32Z</time></trkpt><trkpt lat="40.87453437321571" lon="14.345929694694542"><ele>28.333333333333336</ele><time>2026-04-12T12:03:33Z</time></trkpt><trkpt lat="40.87449281290492" lon="14.345835645199108"><ele>28.166666666666668</ele><time>2026-04-12T12:03:34Z</time></trkpt><trkpt lat="40.87446406173378" lon="14.345735223245665"><ele>28.0</ele><time>2026-04-12T12:03:35Z</time></trkpt><trkpt lat="40.87440990089718" lon="14.345647422532345"><ele>28.0</ele><time>2026-04-12T12:03:36Z</time></trkpt><trkpt lat="40.874369102316514" lon="14.345552403783586"><ele>27.999999999999996</ele><time>2026-04-12T12:03:37Z</time></trkpt><trkpt lat="40.87432375597863" lon="14.345446793624799"><ele>27.999999999999996</ele><time>2026-04-12T12:03:38Z</time></trkpt><trkpt lat="40.87427620943399" lon="14.3453335389337"><ele>28.0</ele><time>2026-04-12T12:03:39Z</time></trkpt><trkpt lat="40.87424239220147" lon="14.345212333051107"><ele>28.0</ele><time>2026-04-12T12:03:40Z</time></trkpt><trkpt lat="40.87419184828271" lon="14.3451028720944"><ele>28.2</ele><time>2026-04-12T12:03:41Z</time></trkpt><trkpt lat="40.87414413439412" lon="14.344995944479724"><ele>28.4</ele><time>2026-04-12T12:03:42Z</time></trkpt><trkpt lat="40.87410199070217" lon="14.344894103555777"><ele>28.599999999999998</ele><time>2026-04-12T12:03:43Z</time></trkpt><trkpt lat="40.874067132166715" lon="14.344805496252793"><ele>28.799999999999997</ele><time>2026-04-12T12:03:44Z</time></trkpt><trkpt lat="40.874012410792815" lon="14.34466683236798"><ele>29.0</ele><time>2026-04-12T12:03:46Z</time></trkpt><trkpt lat="40.87396924945916" lon="14.344564202923888"><ele>29.000000000000004</ele><time>2026-04-12T12:03:48.001Z</time></trkpt><trkpt lat="40.873912821997735" lon="14.344508194818824"><ele>29.0</ele><time>2026-04-12T12:03:51.001Z</time></trkpt><trkpt lat="40.87382501880375" lon="14.344554069090258"><ele>29.000000000000004</ele><time>2026-04-12T12:03:54.001Z</time></trkpt><trkpt lat="40.87376923375111" lon="14.344595546960768"><ele>29.000000000000004</ele><time>2026-04-12T12:03:56.001Z</time></trkpt><trkpt lat="40.87371120836981" lon="14.344633159298175"><ele>29.0</ele><time>2026-04-12T12:04:02.001Z</time></trkpt><trkpt lat="40.873676814811105" lon="14.344710582276614"><ele>29.000000000000004</ele><time>2026-04-12T12:04:14.001Z</time></trkpt><trkpt lat="40.87369615639681" lon="14.344790386163975"><ele>29.000000000000004</ele><time>2026-04-12T12:04:23.001Z</time></trkpt><trkpt lat="40.873630035958186" lon="14.344784009220339"><ele>29.0</ele><time>2026-04-12T12:14:44Z</time></trkpt><trkpt lat="40.87359442371448" lon="14.344856977606614"><ele>29.0</ele><time>2026-04-12T12:15:07Z</time></trkpt><trkpt lat="40.873534704319056" lon="14.344935481909506"><ele>29.0</ele><time>2026-04-12T12:15:11Z</time></trkpt><trkpt lat="40.87346492104033" lon="14.344925304591557"><ele>29.0</ele><time>2026-04-12T12:15:17.001Z</time></trkpt><trkpt lat="40.87339897658671" lon="14.344959155883148"><ele>29.0</ele><time>2026-04-12T12:15:21.001Z</time></trkpt><trkpt lat="40.87353117967836" lon="14.344787657179708"><ele>29.0</ele><time>2026-04-12T12:15:34.08Z</time></trkpt><trkpt lat="40.87370470942414" lon="14.344679947405421"><ele>29.0</ele><time>2026-04-12T12:15:35Z</time></trkpt><trkpt lat="40.87374395774169" lon="14.344751793705484"><ele>29.0</ele><time>2026-04-12T12:15:39Z</time></trkpt><trkpt lat="40.873674103680266" lon="14.344770445504228"><ele>29.0</ele><time>2026-04-12T12:16:03Z</time></trkpt><trkpt lat="40.873733964379674" lon="14.344719582817007"><ele>29.0</ele><time>2026-04-12T12:16:06Z</time></trkpt><trkpt lat="40.87366465697828" lon="14.3447596982156"><ele>28.999999999999996</ele><time>2026-04-12T12:16:10Z</time></trkpt><trkpt lat="40.87372223641034" lon="14.3447158061557"><ele>29.0</ele><time>2026-04-12T12:16:18Z</time></trkpt><trkpt lat="40.873646071553246" lon="14.344715294543578"><ele>29.0</ele><time>2026-04-12T12:16:23Z</time></trkpt><trkpt lat="40.87359650920304" lon="14.344787767906967"><ele>29.0</ele><time>2026-04-12T12:16:45Z</time></trkpt><trkpt lat="40.87361640625462" lon="14.3448676098243"><ele>28.999999999999996</ele><time>2026-04-12T12:16:51Z</time></trkpt><trkpt lat="40.873705202808495" lon="14.34483919752318"><ele>29.0</ele><time>2026-04-12T12:16:55Z</time></trkpt><trkpt lat="40.8736268414289" lon="14.34473607669799"><ele>29.0</ele><time>2026-04-12T12:16:58Z</time></trkpt><trkpt lat="40.87375710241015" lon="14.344783948894376"><ele>29.0</ele><time>2026-04-12T12:17:19Z</time></trkpt><trkpt lat="40.873762395805954" lon="14.344930293564387"><ele>29.0</ele><time>2026-04-12T12:17:22Z</time></trkpt><trkpt lat="40.87381459347567" lon="14.344862698549099"><ele>29.0</ele><time>2026-04-12T12:17:25Z</time></trkpt><trkpt lat="40.87358609535251" lon="14.344778607796952"><ele>29.0</ele><time>2026-04-12T12:17:30.42Z</time></trkpt><trkpt lat="40.873884529736465" lon="14.344850480015962"><ele>29.0</ele><time>2026-04-12T12:17:31Z</time></trkpt><trkpt lat="40.87377218057646" lon="14.344869099029033"><ele>29.0</ele><time>2026-04-12T12:17:33Z</time></trkpt><trkpt lat="40.87369363795754" lon="14.344802820272992"><ele>29.0</ele><time>2026-04-12T12:17:35Z</time></trkpt><trkpt lat="40.8739053947296" lon="14.344744826817003"><ele>29.0</ele><time>2026-04-12T12:17:38Z</time></trkpt><trkpt lat="40.87388306912644" lon="14.344925513858351"><ele>29.0</ele><time>2026-04-12T12:17:39Z</time></trkpt><trkpt lat="40.873938371817125" lon="14.344988683794126"><ele>29.0</ele><time>2026-04-12T12:17:42Z</time></trkpt><trkpt lat="40.87413818325662" lon="14.344846994454342"><ele>29.0</ele><time>2026-04-12T12:17:52.069Z</time></trkpt><trkpt lat="40.874311165016906" lon="14.34464631595359"><ele>29.0</ele><time>2026-04-12T12:17:53.072Z</time></trkpt><trkpt lat="40.8742248657809" lon="14.344718900972717"><ele>29.0</ele><time>2026-04-12T12:17:57.068Z</time></trkpt><trkpt lat="40.874137303053324" lon="14.344823581218677"><ele>29.0</ele><time>2026-04-12T12:17:58.071Z</time></trkpt><trkpt lat="40.874079520967506" lon="14.344867580315267"><ele>29.0</ele><time>2026-04-12T12:18:00.07Z</time></trkpt><trkpt lat="40.87401830304287" lon="14.3448903520604"><ele>29.0</ele><time>2026-04-12T12:18:02.07Z</time></trkpt><trkpt lat="40.873872004779166" lon="14.34484889670051"><ele>29.0</ele><time>2026-04-12T12:19:40.024Z</time></trkpt><trkpt lat="40.873757064613756" lon="14.344791746550626"><ele>29.0</ele><time>2026-04-12T12:22:52.779Z</time></trkpt><trkpt lat="40.87358609535251" lon="14.344778607796952"><ele>29.0</ele><time>2026-04-12T12:23:21.616Z</time></trkpt><trkpt lat="40.87372969544074" lon="14.34477813814547"><ele>29.0</ele><time>2026-04-12T12:23:43.79Z</time></trkpt><trkpt lat="40.87358609535251" lon="14.344778607796952"><ele>29.0</ele><time>2026-04-12T12:35:41.406Z</time></trkpt><trkpt lat="40.87388331927102" lon="14.344837577469523"><ele>29.0</ele><time>2026-04-12T12:35:46.921Z</time></trkpt><trkpt lat="40.8739477175912" lon="14.344862494100212"><ele>29.0</ele><time>2026-04-12T12:35:53.232Z</time></trkpt><trkpt lat="40.87367052724465" lon="14.344886599738857"><ele>29.0</ele><time>2026-04-12T12:36:44.764Z</time></trkpt><trkpt lat="40.87358609535251" lon="14.344778607796952"><ele>29.0</ele><time>2026-04-12T12:51:28.533Z</time></trkpt><trkpt lat="40.873730276969596" lon="14.344778740443891"><ele>29.0</ele><time>2026-04-12T12:52:29.959Z</time></trkpt></trkseg></trk></gpx>